<?xml version="1.0" encoding="UTF-8" standalone="no" ?>
<gpx xmlns="http://www.topografix.com/GPX/1/1" xmlns:xsi="http://www.w3.org/2001/XMLSchema-instance" xsi:schemaLocation="http://www.topografix.com/GPX/1/1 http://www.topografix.com/GPX/1/1/gpx.xsd" version="1.1" creator="VisuGPX - https://www.visugpx.com">
  <metadata>
    <name>Tour d'Europe: étape 045</name>
    <desc><![CDATA[Étape 045]]></desc>
  </metadata>
  <trk>
    <name><![CDATA[Tour d'Europe: étape 045]]></name>
    <trkseg>
      <trkpt lat="64.87243" lon="11.59018">
        <ele>87.577237</ele>
        <time>2020-08-12T07:34:41.759Z</time>
      </trkpt>
      <trkpt lat="64.87239" lon="11.58987">
        <ele>87.577237</ele>
        <time>2020-08-12T07:34:43.026Z</time>
      </trkpt>
      <trkpt lat="64.87212" lon="11.58962">
        <ele>87.577237</ele>
        <time>2020-08-12T07:36:33.731Z</time>
      </trkpt>
      <trkpt lat="64.87205" lon="11.58976">
        <ele>87.577237</ele>
        <time>2020-08-12T07:36:37.762Z</time>
      </trkpt>
      <trkpt lat="64.87196" lon="11.58989">
        <ele>87.577237</ele>
        <time>2020-08-12T07:36:42.747Z</time>
      </trkpt>
      <trkpt lat="64.87187" lon="11.59001">
        <ele>87.577237</ele>
        <time>2020-08-12T07:36:48.735Z</time>
      </trkpt>
      <trkpt lat="64.87178" lon="11.59012">
        <ele>87.577237</ele>
        <time>2020-08-12T07:36:54.742Z</time>
      </trkpt>
      <trkpt lat="64.87169" lon="11.59022">
        <ele>87.569407</ele>
        <time>2020-08-12T07:36:59.731Z</time>
      </trkpt>
      <trkpt lat="64.87161" lon="11.59031">
        <ele>87.545507</ele>
        <time>2020-08-12T07:37:03.726Z</time>
      </trkpt>
      <trkpt lat="64.87152" lon="11.59036">
        <ele>87.521096</ele>
        <time>2020-08-12T07:37:07.716Z</time>
      </trkpt>
      <trkpt lat="64.87142" lon="11.59043">
        <ele>87.494401</ele>
        <time>2020-08-12T07:37:12.740Z</time>
      </trkpt>
      <trkpt lat="64.87133" lon="11.59041">
        <ele>87.469496</ele>
        <time>2020-08-12T07:37:17.782Z</time>
      </trkpt>
      <trkpt lat="64.87129" lon="11.5902">
        <ele>87.444287</ele>
        <time>2020-08-12T07:37:22.726Z</time>
      </trkpt>
      <trkpt lat="64.87124" lon="11.58998">
        <ele>87.4168</ele>
        <time>2020-08-12T07:37:27.722Z</time>
      </trkpt>
      <trkpt lat="64.87121" lon="11.58975">
        <ele>87.3895</ele>
        <time>2020-08-12T07:37:31.730Z</time>
      </trkpt>
      <trkpt lat="64.87118" lon="11.58954">
        <ele>87.364148</ele>
        <time>2020-08-12T07:37:34.714Z</time>
      </trkpt>
      <trkpt lat="64.87115" lon="11.58933">
        <ele>87.339261</ele>
        <time>2020-08-12T07:37:37.729Z</time>
      </trkpt>
      <trkpt lat="64.87112" lon="11.5891">
        <ele>87.312829</ele>
        <time>2020-08-12T07:37:40.725Z</time>
      </trkpt>
      <trkpt lat="64.87108" lon="11.58886">
        <ele>87.284534</ele>
        <time>2020-08-12T07:37:43.729Z</time>
      </trkpt>
      <trkpt lat="64.87104" lon="11.58862">
        <ele>87.255627</ele>
        <time>2020-08-12T07:37:46.744Z</time>
      </trkpt>
      <trkpt lat="64.87098" lon="11.58842">
        <ele>87.228532</ele>
        <time>2020-08-12T07:37:49.727Z</time>
      </trkpt>
      <trkpt lat="64.87091" lon="11.58823">
        <ele>87.200426</ele>
        <time>2020-08-12T07:37:52.718Z</time>
      </trkpt>
      <trkpt lat="64.87084" lon="11.58805">
        <ele>87.171611</ele>
        <time>2020-08-12T07:37:55.740Z</time>
      </trkpt>
      <trkpt lat="64.87074" lon="11.58789">
        <ele>87.140048</ele>
        <time>2020-08-12T07:37:58.734Z</time>
      </trkpt>
      <trkpt lat="64.87063" lon="11.58774">
        <ele>87.107905</ele>
        <time>2020-08-12T07:38:01.735Z</time>
      </trkpt>
      <trkpt lat="64.87051" lon="11.58764">
        <ele>86.824565</ele>
        <time>2020-08-12T07:38:04.741Z</time>
      </trkpt>
      <trkpt lat="64.87042" lon="11.58757">
        <ele>86.607643</ele>
        <time>2020-08-12T07:38:06.728Z</time>
      </trkpt>
      <trkpt lat="64.87033" lon="11.58752">
        <ele>86.382212</ele>
        <time>2020-08-12T07:38:08.717Z</time>
      </trkpt>
      <trkpt lat="64.87023" lon="11.5875">
        <ele>86.146514</ele>
        <time>2020-08-12T07:38:10.746Z</time>
      </trkpt>
      <trkpt lat="64.87013" lon="11.58747">
        <ele>85.903821</ele>
        <time>2020-08-12T07:38:12.716Z</time>
      </trkpt>
      <trkpt lat="64.87002" lon="11.58745">
        <ele>85.64307</ele>
        <time>2020-08-12T07:38:14.728Z</time>
      </trkpt>
      <trkpt lat="64.8699" lon="11.58744">
        <ele>85.368274</ele>
        <time>2020-08-12T07:38:16.736Z</time>
      </trkpt>
      <trkpt lat="64.86978" lon="11.58743">
        <ele>85.072104</ele>
        <time>2020-08-12T07:38:18.710Z</time>
      </trkpt>
      <trkpt lat="64.86965" lon="11.58742">
        <ele>84.759133</ele>
        <time>2020-08-12T07:38:20.725Z</time>
      </trkpt>
      <trkpt lat="64.86951" lon="11.58742">
        <ele>84.434422</ele>
        <time>2020-08-12T07:38:22.728Z</time>
      </trkpt>
      <trkpt lat="64.86937" lon="11.58741">
        <ele>84.083239</ele>
        <time>2020-08-12T07:38:24.714Z</time>
      </trkpt>
      <trkpt lat="64.86921" lon="11.58739">
        <ele>83.714877</ele>
        <time>2020-08-12T07:38:26.745Z</time>
      </trkpt>
      <trkpt lat="64.86906" lon="11.58738">
        <ele>83.34699</ele>
        <time>2020-08-12T07:38:28.754Z</time>
      </trkpt>
      <trkpt lat="64.86892" lon="11.58735">
        <ele>83.004551</ele>
        <time>2020-08-12T07:38:30.730Z</time>
      </trkpt>
      <trkpt lat="64.86879" lon="11.58731">
        <ele>82.698203</ele>
        <time>2020-08-12T07:38:32.730Z</time>
      </trkpt>
      <trkpt lat="64.86866" lon="11.5873">
        <ele>82.398858</ele>
        <time>2020-08-12T07:38:34.750Z</time>
      </trkpt>
      <trkpt lat="64.86854" lon="11.58729">
        <ele>82.109538</ele>
        <time>2020-08-12T07:38:36.715Z</time>
      </trkpt>
      <trkpt lat="64.86843" lon="11.58728">
        <ele>81.829773</ele>
        <time>2020-08-12T07:38:38.713Z</time>
      </trkpt>
      <trkpt lat="64.86831" lon="11.58727">
        <ele>81.547213</ele>
        <time>2020-08-12T07:38:40.722Z</time>
      </trkpt>
      <trkpt lat="64.86818" lon="11.58724">
        <ele>81.237346</ele>
        <time>2020-08-12T07:38:42.744Z</time>
      </trkpt>
      <trkpt lat="64.86804" lon="11.58718">
        <ele>80.887399</ele>
        <time>2020-08-12T07:38:44.745Z</time>
      </trkpt>
      <trkpt lat="64.86789" lon="11.58716">
        <ele>80.534877</ele>
        <time>2020-08-12T07:38:46.721Z</time>
      </trkpt>
      <trkpt lat="64.86776" lon="11.58719">
        <ele>80.217081</ele>
        <time>2020-08-12T07:38:48.730Z</time>
      </trkpt>
      <trkpt lat="64.86769" lon="11.58737">
        <ele>79.959486</ele>
        <time>2020-08-12T07:38:50.724Z</time>
      </trkpt>
      <trkpt lat="64.86768" lon="11.58762">
        <ele>79.700075</ele>
        <time>2020-08-12T07:38:52.751Z</time>
      </trkpt>
      <trkpt lat="64.86769" lon="11.58793">
        <ele>79.384172</ele>
        <time>2020-08-12T07:38:55.735Z</time>
      </trkpt>
      <trkpt lat="64.86768" lon="11.58823">
        <ele>79.076926</ele>
        <time>2020-08-12T07:38:58.715Z</time>
      </trkpt>
      <trkpt lat="64.86766" lon="11.58854">
        <ele>78.757946</ele>
        <time>2020-08-12T07:39:01.710Z</time>
      </trkpt>
      <trkpt lat="64.86765" lon="11.58875">
        <ele>78.536488</ele>
        <time>2020-08-12T07:39:03.740Z</time>
      </trkpt>
      <trkpt lat="64.86765" lon="11.58898">
        <ele>78.519682</ele>
        <time>2020-08-12T07:39:05.713Z</time>
      </trkpt>
      <trkpt lat="64.86764" lon="11.58922">
        <ele>78.584521</ele>
        <time>2020-08-12T07:39:07.736Z</time>
      </trkpt>
      <trkpt lat="64.86763" lon="11.58946">
        <ele>78.650354</ele>
        <time>2020-08-12T07:39:09.750Z</time>
      </trkpt>
      <trkpt lat="64.86762" lon="11.58969">
        <ele>78.715881</ele>
        <time>2020-08-12T07:39:11.724Z</time>
      </trkpt>
      <trkpt lat="64.86759" lon="11.58993">
        <ele>78.782042</ele>
        <time>2020-08-12T07:39:13.720Z</time>
      </trkpt>
      <trkpt lat="64.86757" lon="11.59016">
        <ele>78.847646</ele>
        <time>2020-08-12T07:39:15.746Z</time>
      </trkpt>
      <trkpt lat="64.86754" lon="11.59039">
        <ele>78.911638</ele>
        <time>2020-08-12T07:39:17.708Z</time>
      </trkpt>
      <trkpt lat="64.86751" lon="11.59061">
        <ele>78.974914</ele>
        <time>2020-08-12T07:39:19.722Z</time>
      </trkpt>
      <trkpt lat="64.86747" lon="11.59082">
        <ele>79.035804</ele>
        <time>2020-08-12T07:39:21.738Z</time>
      </trkpt>
      <trkpt lat="64.86743" lon="11.59103">
        <ele>79.099631</ele>
        <time>2020-08-12T07:39:23.748Z</time>
      </trkpt>
      <trkpt lat="64.86739" lon="11.59125">
        <ele>79.165184</ele>
        <time>2020-08-12T07:39:25.731Z</time>
      </trkpt>
      <trkpt lat="64.86735" lon="11.59145">
        <ele>79.225931</ele>
        <time>2020-08-12T07:39:27.745Z</time>
      </trkpt>
      <trkpt lat="64.8673" lon="11.59172">
        <ele>79.305506</ele>
        <time>2020-08-12T07:39:30.721Z</time>
      </trkpt>
      <trkpt lat="64.86726" lon="11.59197">
        <ele>79.380563</ele>
        <time>2020-08-12T07:39:33.728Z</time>
      </trkpt>
      <trkpt lat="64.86722" lon="11.59221">
        <ele>79.450369</ele>
        <time>2020-08-12T07:39:36.722Z</time>
      </trkpt>
      <trkpt lat="64.86718" lon="11.59243">
        <ele>79.515891</ele>
        <time>2020-08-12T07:39:39.755Z</time>
      </trkpt>
      <trkpt lat="64.86713" lon="11.59263">
        <ele>79.577562</ele>
        <time>2020-08-12T07:39:42.738Z</time>
      </trkpt>
      <trkpt lat="64.86708" lon="11.59282">
        <ele>79.702525</ele>
        <time>2020-08-12T07:39:45.727Z</time>
      </trkpt>
      <trkpt lat="64.86699" lon="11.59294">
        <ele>80.148888</ele>
        <time>2020-08-12T07:39:48.730Z</time>
      </trkpt>
      <trkpt lat="64.86693" lon="11.59311">
        <ele>80.586382</ele>
        <time>2020-08-12T07:39:51.716Z</time>
      </trkpt>
      <trkpt lat="64.86688" lon="11.59331">
        <ele>81.019139</ele>
        <time>2020-08-12T07:39:54.714Z</time>
      </trkpt>
      <trkpt lat="64.86686" lon="11.59352">
        <ele>81.434144</ele>
        <time>2020-08-12T07:39:57.751Z</time>
      </trkpt>
      <trkpt lat="64.86682" lon="11.59376">
        <ele>81.92888</ele>
        <time>2020-08-12T07:40:01.745Z</time>
      </trkpt>
      <trkpt lat="64.86678" lon="11.59401">
        <ele>82.43356</ele>
        <time>2020-08-12T07:40:05.728Z</time>
      </trkpt>
      <trkpt lat="64.86674" lon="11.5942">
        <ele>82.840294</ele>
        <time>2020-08-12T07:40:08.729Z</time>
      </trkpt>
      <trkpt lat="64.8667" lon="11.59439">
        <ele>83.246456</ele>
        <time>2020-08-12T07:40:11.740Z</time>
      </trkpt>
      <trkpt lat="64.86664" lon="11.59462">
        <ele>83.765704</ele>
        <time>2020-08-12T07:40:15.753Z</time>
      </trkpt>
      <trkpt lat="64.86657" lon="11.59485">
        <ele>84.311394</ele>
        <time>2020-08-12T07:40:19.745Z</time>
      </trkpt>
      <trkpt lat="64.8665" lon="11.595">
        <ele>84.735246</ele>
        <time>2020-08-12T07:40:22.729Z</time>
      </trkpt>
      <trkpt lat="64.86641" lon="11.59518">
        <ele>85.256597</ele>
        <time>2020-08-12T07:40:26.749Z</time>
      </trkpt>
      <trkpt lat="64.86634" lon="11.59535">
        <ele>85.740832</ele>
        <time>2020-08-12T07:40:30.708Z</time>
      </trkpt>
      <trkpt lat="64.86626" lon="11.59551">
        <ele>86.192412</ele>
        <time>2020-08-12T07:40:34.730Z</time>
      </trkpt>
      <trkpt lat="64.86618" lon="11.59565">
        <ele>86.666059</ele>
        <time>2020-08-12T07:40:38.737Z</time>
      </trkpt>
      <trkpt lat="64.86609" lon="11.59581">
        <ele>87.140545</ele>
        <time>2020-08-12T07:40:42.730Z</time>
      </trkpt>
      <trkpt lat="64.86601" lon="11.59595">
        <ele>87.594915</ele>
        <time>2020-08-12T07:40:46.722Z</time>
      </trkpt>
      <trkpt lat="64.86593" lon="11.5961">
        <ele>87.794179</ele>
        <time>2020-08-12T07:40:50.730Z</time>
      </trkpt>
      <trkpt lat="64.86584" lon="11.59624">
        <ele>87.868286</ele>
        <time>2020-08-12T07:40:54.743Z</time>
      </trkpt>
      <trkpt lat="64.86575" lon="11.5963">
        <ele>87.935574</ele>
        <time>2020-08-12T07:40:58.728Z</time>
      </trkpt>
      <trkpt lat="64.86565" lon="11.59625">
        <ele>88.006293</ele>
        <time>2020-08-12T07:41:02.723Z</time>
      </trkpt>
      <trkpt lat="64.86555" lon="11.59623">
        <ele>88.069903</ele>
        <time>2020-08-12T07:41:05.720Z</time>
      </trkpt>
      <trkpt lat="64.86545" lon="11.59624">
        <ele>88.143671</ele>
        <time>2020-08-12T07:41:08.713Z</time>
      </trkpt>
      <trkpt lat="64.86531" lon="11.59626">
        <ele>88.237616</ele>
        <time>2020-08-12T07:41:11.714Z</time>
      </trkpt>
      <trkpt lat="64.86521" lon="11.59628">
        <ele>88.310229</ele>
        <time>2020-08-12T07:41:13.744Z</time>
      </trkpt>
      <trkpt lat="64.86509" lon="11.59631">
        <ele>88.387863</ele>
        <time>2020-08-12T07:41:15.767Z</time>
      </trkpt>
      <trkpt lat="64.86497" lon="11.59634">
        <ele>88.474778</ele>
        <time>2020-08-12T07:41:17.717Z</time>
      </trkpt>
      <trkpt lat="64.86483" lon="11.59639">
        <ele>88.570655</ele>
        <time>2020-08-12T07:41:19.723Z</time>
      </trkpt>
      <trkpt lat="64.8647" lon="11.59641">
        <ele>88.664707</ele>
        <time>2020-08-12T07:41:21.729Z</time>
      </trkpt>
      <trkpt lat="64.86457" lon="11.59645">
        <ele>88.748703</ele>
        <time>2020-08-12T07:41:23.745Z</time>
      </trkpt>
      <trkpt lat="64.86446" lon="11.59646">
        <ele>88.828835</ele>
        <time>2020-08-12T07:41:25.730Z</time>
      </trkpt>
      <trkpt lat="64.86435" lon="11.59648">
        <ele>88.903532</ele>
        <time>2020-08-12T07:41:27.747Z</time>
      </trkpt>
      <trkpt lat="64.86426" lon="11.59652">
        <ele>88.965547</ele>
        <time>2020-08-12T07:41:29.728Z</time>
      </trkpt>
      <trkpt lat="64.86413" lon="11.59661">
        <ele>89.517355</ele>
        <time>2020-08-12T07:41:32.730Z</time>
      </trkpt>
      <trkpt lat="64.86405" lon="11.59671">
        <ele>90.001339</ele>
        <time>2020-08-12T07:41:34.718Z</time>
      </trkpt>
      <trkpt lat="64.86397" lon="11.59684">
        <ele>90.470702</ele>
        <time>2020-08-12T07:41:36.739Z</time>
      </trkpt>
      <trkpt lat="64.8639" lon="11.5971">
        <ele>91.129351</ele>
        <time>2020-08-12T07:41:39.743Z</time>
      </trkpt>
      <trkpt lat="64.86384" lon="11.59733">
        <ele>91.702219</ele>
        <time>2020-08-12T07:41:42.732Z</time>
      </trkpt>
      <trkpt lat="64.86379" lon="11.59751">
        <ele>92.165183</ele>
        <time>2020-08-12T07:41:45.761Z</time>
      </trkpt>
      <trkpt lat="64.86374" lon="11.59772">
        <ele>92.70081</ele>
        <time>2020-08-12T07:41:49.711Z</time>
      </trkpt>
      <trkpt lat="64.86368" lon="11.5979">
        <ele>93.159186</ele>
        <time>2020-08-12T07:41:52.725Z</time>
      </trkpt>
      <trkpt lat="64.86364" lon="11.59814">
        <ele>93.701516</ele>
        <time>2020-08-12T07:41:56.723Z</time>
      </trkpt>
      <trkpt lat="64.86362" lon="11.59839">
        <ele>94.251003</ele>
        <time>2020-08-12T07:42:01.745Z</time>
      </trkpt>
      <trkpt lat="64.8636" lon="11.59862">
        <ele>94.765905</ele>
        <time>2020-08-12T07:42:05.720Z</time>
      </trkpt>
      <trkpt lat="64.86359" lon="11.59885">
        <ele>95.246255</ele>
        <time>2020-08-12T07:42:09.722Z</time>
      </trkpt>
      <trkpt lat="64.8636" lon="11.59909">
        <ele>95.764146</ele>
        <time>2020-08-12T07:42:13.723Z</time>
      </trkpt>
      <trkpt lat="64.86365" lon="11.5993">
        <ele>96.267879</ele>
        <time>2020-08-12T07:42:17.724Z</time>
      </trkpt>
      <trkpt lat="64.86369" lon="11.5995">
        <ele>96.738832</ele>
        <time>2020-08-12T07:42:21.723Z</time>
      </trkpt>
      <trkpt lat="64.86374" lon="11.59967">
        <ele>97.204653</ele>
        <time>2020-08-12T07:42:25.745Z</time>
      </trkpt>
      <trkpt lat="64.86385" lon="11.59979">
        <ele>97.778511</ele>
        <time>2020-08-12T07:42:29.752Z</time>
      </trkpt>
      <trkpt lat="64.86393" lon="11.59985">
        <ele>98.248755</ele>
        <time>2020-08-12T07:42:32.729Z</time>
      </trkpt>
      <trkpt lat="64.86403" lon="11.59988">
        <ele>98.758769</ele>
        <time>2020-08-12T07:42:35.734Z</time>
      </trkpt>
      <trkpt lat="64.86413" lon="11.59987">
        <ele>99.287013</ele>
        <time>2020-08-12T07:42:38.717Z</time>
      </trkpt>
      <trkpt lat="64.86424" lon="11.59985">
        <ele>99.907281</ele>
        <time>2020-08-12T07:42:42.734Z</time>
      </trkpt>
      <trkpt lat="64.86433" lon="11.59982">
        <ele>100.397031</ele>
        <time>2020-08-12T07:42:45.729Z</time>
      </trkpt>
      <trkpt lat="64.86445" lon="11.59986">
        <ele>101.001502</ele>
        <time>2020-08-12T07:42:49.725Z</time>
      </trkpt>
      <trkpt lat="64.86451" lon="11.6">
        <ele>101.487469</ele>
        <time>2020-08-12T07:42:53.709Z</time>
      </trkpt>
      <trkpt lat="64.86454" lon="11.60025">
        <ele>102.0756</ele>
        <time>2020-08-12T07:42:57.736Z</time>
      </trkpt>
      <trkpt lat="64.86457" lon="11.60048">
        <ele>102.596406</ele>
        <time>2020-08-12T07:43:01.726Z</time>
      </trkpt>
      <trkpt lat="64.86458" lon="11.60071">
        <ele>103.133633</ele>
        <time>2020-08-12T07:43:05.740Z</time>
      </trkpt>
      <trkpt lat="64.8646" lon="11.60093">
        <ele>103.650743</ele>
        <time>2020-08-12T07:43:09.749Z</time>
      </trkpt>
      <trkpt lat="64.86464" lon="11.60118">
        <ele>104.255809</ele>
        <time>2020-08-12T07:43:14.745Z</time>
      </trkpt>
      <trkpt lat="64.86467" lon="11.60144">
        <ele>104.844696</ele>
        <time>2020-08-12T07:43:18.716Z</time>
      </trkpt>
      <trkpt lat="64.8647" lon="11.60164">
        <ele>105.331212</ele>
        <time>2020-08-12T07:43:21.709Z</time>
      </trkpt>
      <trkpt lat="64.86473" lon="11.60191">
        <ele>105.962619</ele>
        <time>2020-08-12T07:43:25.736Z</time>
      </trkpt>
      <trkpt lat="64.86475" lon="11.60219">
        <ele>106.600414</ele>
        <time>2020-08-12T07:43:29.729Z</time>
      </trkpt>
      <trkpt lat="64.86477" lon="11.60245">
        <ele>107.206128</ele>
        <time>2020-08-12T07:43:33.728Z</time>
      </trkpt>
      <trkpt lat="64.86479" lon="11.60271">
        <ele>107.637183</ele>
        <time>2020-08-12T07:43:37.708Z</time>
      </trkpt>
      <trkpt lat="64.86481" lon="11.60292">
        <ele>107.70137</ele>
        <time>2020-08-12T07:43:40.727Z</time>
      </trkpt>
      <trkpt lat="64.86483" lon="11.60313">
        <ele>107.765833</ele>
        <time>2020-08-12T07:43:43.740Z</time>
      </trkpt>
      <trkpt lat="64.86485" lon="11.60338">
        <ele>107.842451</ele>
        <time>2020-08-12T07:43:47.729Z</time>
      </trkpt>
      <trkpt lat="64.86486" lon="11.60362">
        <ele>107.913191</ele>
        <time>2020-08-12T07:43:51.724Z</time>
      </trkpt>
      <trkpt lat="64.86488" lon="11.60383">
        <ele>107.976633</ele>
        <time>2020-08-12T07:43:55.714Z</time>
      </trkpt>
      <trkpt lat="64.8649" lon="11.60406">
        <ele>108.048246</ele>
        <time>2020-08-12T07:43:59.766Z</time>
      </trkpt>
      <trkpt lat="64.86492" lon="11.60428">
        <ele>108.115919</ele>
        <time>2020-08-12T07:44:03.733Z</time>
      </trkpt>
      <trkpt lat="64.86496" lon="11.60452">
        <ele>108.193029</ele>
        <time>2020-08-12T07:44:08.748Z</time>
      </trkpt>
      <trkpt lat="64.86498" lon="11.60476">
        <ele>108.263936</ele>
        <time>2020-08-12T07:44:13.734Z</time>
      </trkpt>
      <trkpt lat="64.86475" lon="11.60449">
        <ele>108.444986</ele>
        <time>2020-08-12T07:52:18.722Z</time>
      </trkpt>
      <trkpt lat="64.86497" lon="11.60482">
        <ele>108.626433</ele>
        <time>2020-08-12T07:52:20.718Z</time>
      </trkpt>
      <trkpt lat="64.86505" lon="11.60493">
        <ele>108.692691</ele>
        <time>2020-08-12T07:52:23.718Z</time>
      </trkpt>
      <trkpt lat="64.8652" lon="11.60502">
        <ele>108.802618</ele>
        <time>2020-08-12T07:58:13.739Z</time>
      </trkpt>
      <trkpt lat="64.8653" lon="11.60489">
        <ele>108.916976</ele>
        <time>2020-08-12T07:58:17.766Z</time>
      </trkpt>
      <trkpt lat="64.86538" lon="11.6048">
        <ele>109.406193</ele>
        <time>2020-08-12T07:58:21.722Z</time>
      </trkpt>
      <trkpt lat="64.86549" lon="11.60473">
        <ele>109.987938</ele>
        <time>2020-08-12T07:58:26.740Z</time>
      </trkpt>
      <trkpt lat="64.8656" lon="11.60466">
        <ele>110.580862</ele>
        <time>2020-08-12T07:58:31.734Z</time>
      </trkpt>
      <trkpt lat="64.8657" lon="11.60461">
        <ele>111.17108</ele>
        <time>2020-08-12T07:58:36.762Z</time>
      </trkpt>
      <trkpt lat="64.86581" lon="11.60452">
        <ele>111.749264</ele>
        <time>2020-08-12T07:58:41.729Z</time>
      </trkpt>
      <trkpt lat="64.8659" lon="11.60447">
        <ele>112.236278</ele>
        <time>2020-08-12T07:58:45.724Z</time>
      </trkpt>
      <trkpt lat="64.86598" lon="11.60438">
        <ele>112.73611</ele>
        <time>2020-08-12T07:58:49.762Z</time>
      </trkpt>
      <trkpt lat="64.86606" lon="11.60422">
        <ele>113.289555</ele>
        <time>2020-08-12T07:58:53.714Z</time>
      </trkpt>
      <trkpt lat="64.86616" lon="11.60413">
        <ele>113.85976</ele>
        <time>2020-08-12T07:58:57.724Z</time>
      </trkpt>
      <trkpt lat="64.86625" lon="11.60415">
        <ele>114.350448</ele>
        <time>2020-08-12T07:59:01.715Z</time>
      </trkpt>
      <trkpt lat="64.86634" lon="11.60423">
        <ele>114.834957</ele>
        <time>2020-08-12T07:59:05.742Z</time>
      </trkpt>
      <trkpt lat="64.86642" lon="11.6043">
        <ele>115.313209</ele>
        <time>2020-08-12T07:59:09.732Z</time>
      </trkpt>
      <trkpt lat="64.86652" lon="11.60436">
        <ele>115.824163</ele>
        <time>2020-08-12T07:59:14.724Z</time>
      </trkpt>
      <trkpt lat="64.86662" lon="11.60439">
        <ele>116.377524</ele>
        <time>2020-08-12T07:59:19.730Z</time>
      </trkpt>
      <trkpt lat="64.86673" lon="11.60447">
        <ele>116.980005</ele>
        <time>2020-08-12T07:59:24.725Z</time>
      </trkpt>
      <trkpt lat="64.86682" lon="11.60453">
        <ele>117.504795</ele>
        <time>2020-08-12T07:59:28.725Z</time>
      </trkpt>
      <trkpt lat="64.86691" lon="11.60461">
        <ele>118.011556</ele>
        <time>2020-08-12T07:59:32.777Z</time>
      </trkpt>
      <trkpt lat="64.86701" lon="11.6047">
        <ele>118.614922</ele>
        <time>2020-08-12T07:59:37.726Z</time>
      </trkpt>
      <trkpt lat="64.86709" lon="11.60481">
        <ele>119.27904</ele>
        <time>2020-08-12T07:59:42.769Z</time>
      </trkpt>
      <trkpt lat="64.86718" lon="11.6049">
        <ele>119.914953</ele>
        <time>2020-08-12T07:59:46.747Z</time>
      </trkpt>
      <trkpt lat="64.86726" lon="11.60505">
        <ele>120.653413</ele>
        <time>2020-08-12T07:59:51.720Z</time>
      </trkpt>
      <trkpt lat="64.86733" lon="11.6052">
        <ele>121.302423</ele>
        <time>2020-08-12T07:59:56.725Z</time>
      </trkpt>
      <trkpt lat="64.86739" lon="11.60536">
        <ele>121.936847</ele>
        <time>2020-08-12T08:00:01.718Z</time>
      </trkpt>
      <trkpt lat="64.86744" lon="11.60553">
        <ele>122.566894</ele>
        <time>2020-08-12T08:00:06.747Z</time>
      </trkpt>
      <trkpt lat="64.8675" lon="11.60572">
        <ele>123.271989</ele>
        <time>2020-08-12T08:00:11.725Z</time>
      </trkpt>
      <trkpt lat="64.86756" lon="11.60593">
        <ele>124.028842</ele>
        <time>2020-08-12T08:00:16.724Z</time>
      </trkpt>
      <trkpt lat="64.86762" lon="11.60615">
        <ele>124.774777</ele>
        <time>2020-08-12T08:00:21.719Z</time>
      </trkpt>
      <trkpt lat="64.86766" lon="11.60637">
        <ele>125.483284</ele>
        <time>2020-08-12T08:00:26.741Z</time>
      </trkpt>
      <trkpt lat="64.86767" lon="11.60659">
        <ele>126.14493</ele>
        <time>2020-08-12T08:00:31.732Z</time>
      </trkpt>
      <trkpt lat="64.8677" lon="11.60682">
        <ele>126.867749</ele>
        <time>2020-08-12T08:00:36.727Z</time>
      </trkpt>
      <trkpt lat="64.86772" lon="11.60704">
        <ele>127.539891</ele>
        <time>2020-08-12T08:00:41.742Z</time>
      </trkpt>
      <trkpt lat="64.86773" lon="11.60725">
        <ele>128.183395</ele>
        <time>2020-08-12T08:00:46.734Z</time>
      </trkpt>
      <trkpt lat="64.86775" lon="11.60748">
        <ele>128.847467</ele>
        <time>2020-08-12T08:00:51.731Z</time>
      </trkpt>
      <trkpt lat="64.86777" lon="11.60771">
        <ele>129.564082</ele>
        <time>2020-08-12T08:00:57.721Z</time>
      </trkpt>
      <trkpt lat="64.86779" lon="11.60795">
        <ele>130.303987</ele>
        <time>2020-08-12T08:01:03.717Z</time>
      </trkpt>
      <trkpt lat="64.86782" lon="11.60818">
        <ele>130.992311</ele>
        <time>2020-08-12T08:01:09.728Z</time>
      </trkpt>
      <trkpt lat="64.86783" lon="11.60841">
        <ele>131.625667</ele>
        <time>2020-08-12T08:01:15.746Z</time>
      </trkpt>
      <trkpt lat="64.86786" lon="11.60863">
        <ele>132.242117</ele>
        <time>2020-08-12T08:01:21.722Z</time>
      </trkpt>
      <trkpt lat="64.86789" lon="11.60885">
        <ele>132.896321</ele>
        <time>2020-08-12T08:01:27.719Z</time>
      </trkpt>
      <trkpt lat="64.86793" lon="11.60904">
        <ele>133.478673</ele>
        <time>2020-08-12T08:01:33.716Z</time>
      </trkpt>
      <trkpt lat="64.86796" lon="11.60924">
        <ele>134.061895</ele>
        <time>2020-08-12T08:01:38.756Z</time>
      </trkpt>
      <trkpt lat="64.86802" lon="11.60943">
        <ele>134.69308</ele>
        <time>2020-08-12T08:01:43.717Z</time>
      </trkpt>
      <trkpt lat="64.86807" lon="11.6096">
        <ele>135.287964</ele>
        <time>2020-08-12T08:01:48.729Z</time>
      </trkpt>
      <trkpt lat="64.86814" lon="11.6098">
        <ele>135.957051</ele>
        <time>2020-08-12T08:01:54.737Z</time>
      </trkpt>
      <trkpt lat="64.86821" lon="11.60996">
        <ele>136.576307</ele>
        <time>2020-08-12T08:01:59.740Z</time>
      </trkpt>
      <trkpt lat="64.86827" lon="11.61011">
        <ele>137.161877</ele>
        <time>2020-08-12T08:02:04.772Z</time>
      </trkpt>
      <trkpt lat="64.86836" lon="11.61027">
        <ele>137.857022</ele>
        <time>2020-08-12T08:02:10.719Z</time>
      </trkpt>
      <trkpt lat="64.86843" lon="11.61041">
        <ele>138.479549</ele>
        <time>2020-08-12T08:02:16.729Z</time>
      </trkpt>
      <trkpt lat="64.86851" lon="11.61053">
        <ele>139.084416</ele>
        <time>2020-08-12T08:02:21.745Z</time>
      </trkpt>
      <trkpt lat="64.8686" lon="11.61065">
        <ele>139.730649</ele>
        <time>2020-08-12T08:02:26.731Z</time>
      </trkpt>
      <trkpt lat="64.86867" lon="11.61078">
        <ele>140.330844</ele>
        <time>2020-08-12T08:02:31.753Z</time>
      </trkpt>
      <trkpt lat="64.86876" lon="11.61093">
        <ele>141.02461</ele>
        <time>2020-08-12T08:02:37.720Z</time>
      </trkpt>
      <trkpt lat="64.86884" lon="11.61105">
        <ele>141.627906</ele>
        <time>2020-08-12T08:02:42.803Z</time>
      </trkpt>
      <trkpt lat="64.86892" lon="11.61116">
        <ele>142.217019</ele>
        <time>2020-08-12T08:02:47.720Z</time>
      </trkpt>
      <trkpt lat="64.869" lon="11.61127">
        <ele>142.749277</ele>
        <time>2020-08-12T08:02:52.747Z</time>
      </trkpt>
      <trkpt lat="64.86907" lon="11.61139">
        <ele>143.188911</ele>
        <time>2020-08-12T08:02:57.808Z</time>
      </trkpt>
      <trkpt lat="64.86915" lon="11.61154">
        <ele>143.647055</ele>
        <time>2020-08-12T08:03:02.728Z</time>
      </trkpt>
      <trkpt lat="64.86922" lon="11.61167">
        <ele>144.08285</ele>
        <time>2020-08-12T08:03:07.717Z</time>
      </trkpt>
      <trkpt lat="64.86929" lon="11.61181">
        <ele>144.507657</ele>
        <time>2020-08-12T08:03:12.747Z</time>
      </trkpt>
      <trkpt lat="64.86936" lon="11.61195">
        <ele>144.948599</ele>
        <time>2020-08-12T08:03:17.732Z</time>
      </trkpt>
      <trkpt lat="64.86942" lon="11.61212">
        <ele>145.395492</ele>
        <time>2020-08-12T08:03:22.753Z</time>
      </trkpt>
      <trkpt lat="64.8695" lon="11.61229">
        <ele>145.87679</ele>
        <time>2020-08-12T08:03:28.712Z</time>
      </trkpt>
      <trkpt lat="64.86957" lon="11.61247">
        <ele>146.355525</ele>
        <time>2020-08-12T08:03:34.734Z</time>
      </trkpt>
      <trkpt lat="64.86963" lon="11.61266">
        <ele>146.843752</ele>
        <time>2020-08-12T08:03:40.732Z</time>
      </trkpt>
      <trkpt lat="64.86969" lon="11.61283">
        <ele>147.273443</ele>
        <time>2020-08-12T08:03:45.719Z</time>
      </trkpt>
      <trkpt lat="64.86974" lon="11.61304">
        <ele>147.750594</ele>
        <time>2020-08-12T08:03:51.728Z</time>
      </trkpt>
      <trkpt lat="64.86978" lon="11.61326">
        <ele>148.23152</ele>
        <time>2020-08-12T08:03:57.760Z</time>
      </trkpt>
      <trkpt lat="64.86982" lon="11.6135">
        <ele>148.736847</ele>
        <time>2020-08-12T08:04:03.723Z</time>
      </trkpt>
      <trkpt lat="64.86987" lon="11.61371">
        <ele>149.232505</ele>
        <time>2020-08-12T08:04:09.737Z</time>
      </trkpt>
      <trkpt lat="64.86991" lon="11.61394">
        <ele>149.720676</ele>
        <time>2020-08-12T08:04:15.727Z</time>
      </trkpt>
      <trkpt lat="64.86995" lon="11.61413">
        <ele>150.155007</ele>
        <time>2020-08-12T08:04:21.753Z</time>
      </trkpt>
      <trkpt lat="64.87" lon="11.6143">
        <ele>150.573889</ele>
        <time>2020-08-12T08:04:26.741Z</time>
      </trkpt>
      <trkpt lat="64.87005" lon="11.61451">
        <ele>151.034602</ele>
        <time>2020-08-12T08:04:31.731Z</time>
      </trkpt>
      <trkpt lat="64.8701" lon="11.61473">
        <ele>151.2214</ele>
        <time>2020-08-12T08:04:36.730Z</time>
      </trkpt>
      <trkpt lat="64.87015" lon="11.61491">
        <ele>151.380939</ele>
        <time>2020-08-12T08:04:40.754Z</time>
      </trkpt>
      <trkpt lat="64.8702" lon="11.61511">
        <ele>151.554477</ele>
        <time>2020-08-12T08:04:44.717Z</time>
      </trkpt>
      <trkpt lat="64.87026" lon="11.6153">
        <ele>151.732541</ele>
        <time>2020-08-12T08:04:48.727Z</time>
      </trkpt>
      <trkpt lat="64.87032" lon="11.61549">
        <ele>151.913067</ele>
        <time>2020-08-12T08:04:52.721Z</time>
      </trkpt>
      <trkpt lat="64.87039" lon="11.61569">
        <ele>152.096758</ele>
        <time>2020-08-12T08:04:56.715Z</time>
      </trkpt>
      <trkpt lat="64.87047" lon="11.61587">
        <ele>152.302173</ele>
        <time>2020-08-12T08:05:00.725Z</time>
      </trkpt>
      <trkpt lat="64.87055" lon="11.61606">
        <ele>152.50336</ele>
        <time>2020-08-12T08:05:04.715Z</time>
      </trkpt>
      <trkpt lat="64.87062" lon="11.61622">
        <ele>152.671637</ele>
        <time>2020-08-12T08:05:07.725Z</time>
      </trkpt>
      <trkpt lat="64.87071" lon="11.61639">
        <ele>152.867038</ele>
        <time>2020-08-12T08:05:10.760Z</time>
      </trkpt>
      <trkpt lat="64.87079" lon="11.6166">
        <ele>153.081158</ele>
        <time>2020-08-12T08:05:13.750Z</time>
      </trkpt>
      <trkpt lat="64.87088" lon="11.6168">
        <ele>153.304699</ele>
        <time>2020-08-12T08:05:16.749Z</time>
      </trkpt>
      <trkpt lat="64.87098" lon="11.61699">
        <ele>153.516247</ele>
        <time>2020-08-12T08:05:19.735Z</time>
      </trkpt>
      <trkpt lat="64.87106" lon="11.61719">
        <ele>153.72229</ele>
        <time>2020-08-12T08:05:22.747Z</time>
      </trkpt>
      <trkpt lat="64.87114" lon="11.61738">
        <ele>153.931489</ele>
        <time>2020-08-12T08:05:25.715Z</time>
      </trkpt>
      <trkpt lat="64.87124" lon="11.61757">
        <ele>154.15007</ele>
        <time>2020-08-12T08:05:28.713Z</time>
      </trkpt>
      <trkpt lat="64.87132" lon="11.61779">
        <ele>154.016913</ele>
        <time>2020-08-12T08:05:31.721Z</time>
      </trkpt>
      <trkpt lat="64.87141" lon="11.61802">
        <ele>153.774858</ele>
        <time>2020-08-12T08:05:34.734Z</time>
      </trkpt>
      <trkpt lat="64.87147" lon="11.6182">
        <ele>153.605609</ele>
        <time>2020-08-12T08:05:36.724Z</time>
      </trkpt>
      <trkpt lat="64.87154" lon="11.61837">
        <ele>153.4352</ele>
        <time>2020-08-12T08:05:38.728Z</time>
      </trkpt>
      <trkpt lat="64.87158" lon="11.61857">
        <ele>153.271547</ele>
        <time>2020-08-12T08:05:40.737Z</time>
      </trkpt>
      <trkpt lat="64.87162" lon="11.61877">
        <ele>153.101106</ele>
        <time>2020-08-12T08:05:42.734Z</time>
      </trkpt>
      <trkpt lat="64.87167" lon="11.61898">
        <ele>152.923588</ele>
        <time>2020-08-12T08:05:44.728Z</time>
      </trkpt>
      <trkpt lat="64.87171" lon="11.61918">
        <ele>152.759025</ele>
        <time>2020-08-12T08:05:46.778Z</time>
      </trkpt>
      <trkpt lat="64.87173" lon="11.61939">
        <ele>152.596386</ele>
        <time>2020-08-12T08:05:48.724Z</time>
      </trkpt>
      <trkpt lat="64.87176" lon="11.61959">
        <ele>152.435888</ele>
        <time>2020-08-12T08:05:50.792Z</time>
      </trkpt>
      <trkpt lat="64.87178" lon="11.61989">
        <ele>152.212548</ele>
        <time>2020-08-12T08:05:53.745Z</time>
      </trkpt>
      <trkpt lat="64.8718" lon="11.6202">
        <ele>151.97735</ele>
        <time>2020-08-12T08:05:56.715Z</time>
      </trkpt>
      <trkpt lat="64.8718" lon="11.62051">
        <ele>151.744813</ele>
        <time>2020-08-12T08:05:59.765Z</time>
      </trkpt>
      <trkpt lat="64.8718" lon="11.62072">
        <ele>151.586533</ele>
        <time>2020-08-12T08:06:01.719Z</time>
      </trkpt>
      <trkpt lat="64.87179" lon="11.62103">
        <ele>151.350678</ele>
        <time>2020-08-12T08:06:04.731Z</time>
      </trkpt>
      <trkpt lat="64.87177" lon="11.62135">
        <ele>151.111525</ele>
        <time>2020-08-12T08:06:07.736Z</time>
      </trkpt>
      <trkpt lat="64.87175" lon="11.62157">
        <ele>151.002508</ele>
        <time>2020-08-12T08:06:09.786Z</time>
      </trkpt>
      <trkpt lat="64.87173" lon="11.62178">
        <ele>150.97498</ele>
        <time>2020-08-12T08:06:11.721Z</time>
      </trkpt>
      <trkpt lat="64.87171" lon="11.62199">
        <ele>150.948194</ele>
        <time>2020-08-12T08:06:13.710Z</time>
      </trkpt>
      <trkpt lat="64.87169" lon="11.62229">
        <ele>150.909325</ele>
        <time>2020-08-12T08:06:16.721Z</time>
      </trkpt>
      <trkpt lat="64.87168" lon="11.62259">
        <ele>150.870498</ele>
        <time>2020-08-12T08:06:19.730Z</time>
      </trkpt>
      <trkpt lat="64.87166" lon="11.6229">
        <ele>150.831166</ele>
        <time>2020-08-12T08:06:22.754Z</time>
      </trkpt>
      <trkpt lat="64.87166" lon="11.6232">
        <ele>150.794024</ele>
        <time>2020-08-12T08:06:25.722Z</time>
      </trkpt>
      <trkpt lat="64.87167" lon="11.62349">
        <ele>150.756865</ele>
        <time>2020-08-12T08:06:28.749Z</time>
      </trkpt>
      <trkpt lat="64.8717" lon="11.62378">
        <ele>150.718799</ele>
        <time>2020-08-12T08:06:31.744Z</time>
      </trkpt>
      <trkpt lat="64.87174" lon="11.62404">
        <ele>150.683182</ele>
        <time>2020-08-12T08:06:34.754Z</time>
      </trkpt>
      <trkpt lat="64.87178" lon="11.6243">
        <ele>150.648527</ele>
        <time>2020-08-12T08:06:37.747Z</time>
      </trkpt>
      <trkpt lat="64.87183" lon="11.62453">
        <ele>150.615796</ele>
        <time>2020-08-12T08:06:40.734Z</time>
      </trkpt>
      <trkpt lat="64.87189" lon="11.62473">
        <ele>150.585059</ele>
        <time>2020-08-12T08:06:43.728Z</time>
      </trkpt>
      <trkpt lat="64.87194" lon="11.62491">
        <ele>150.556597</ele>
        <time>2020-08-12T08:06:46.731Z</time>
      </trkpt>
      <trkpt lat="64.87201" lon="11.62508">
        <ele>150.52867</ele>
        <time>2020-08-12T08:06:49.724Z</time>
      </trkpt>
      <trkpt lat="64.87207" lon="11.6253">
        <ele>150.494733</ele>
        <time>2020-08-12T08:06:53.767Z</time>
      </trkpt>
      <trkpt lat="64.87213" lon="11.62549">
        <ele>150.84961</ele>
        <time>2020-08-12T08:06:57.748Z</time>
      </trkpt>
      <trkpt lat="64.87219" lon="11.62568">
        <ele>151.694157</ele>
        <time>2020-08-12T08:07:01.721Z</time>
      </trkpt>
      <trkpt lat="64.87225" lon="11.62587">
        <ele>152.539343</ele>
        <time>2020-08-12T08:07:05.727Z</time>
      </trkpt>
      <trkpt lat="64.87231" lon="11.62609">
        <ele>153.469974</ele>
        <time>2020-08-12T08:07:10.723Z</time>
      </trkpt>
      <trkpt lat="64.87237" lon="11.62626">
        <ele>154.27561</ele>
        <time>2020-08-12T08:07:14.753Z</time>
      </trkpt>
      <trkpt lat="64.87244" lon="11.62646">
        <ele>155.190148</ele>
        <time>2020-08-12T08:07:19.762Z</time>
      </trkpt>
      <trkpt lat="64.8725" lon="11.62663">
        <ele>155.962846</ele>
        <time>2020-08-12T08:07:24.765Z</time>
      </trkpt>
      <trkpt lat="64.87256" lon="11.62681">
        <ele>156.795704</ele>
        <time>2020-08-12T08:07:29.738Z</time>
      </trkpt>
      <trkpt lat="64.87263" lon="11.62697">
        <ele>157.580946</ele>
        <time>2020-08-12T08:07:34.734Z</time>
      </trkpt>
      <trkpt lat="64.87269" lon="11.62714">
        <ele>158.435591</ele>
        <time>2020-08-12T08:07:39.734Z</time>
      </trkpt>
      <trkpt lat="64.87275" lon="11.62732">
        <ele>159.235665</ele>
        <time>2020-08-12T08:07:44.725Z</time>
      </trkpt>
      <trkpt lat="64.87282" lon="11.6275">
        <ele>160.103657</ele>
        <time>2020-08-12T08:07:49.724Z</time>
      </trkpt>
      <trkpt lat="64.87289" lon="11.6277">
        <ele>161.002639</ele>
        <time>2020-08-12T08:07:55.737Z</time>
      </trkpt>
      <trkpt lat="64.87295" lon="11.62789">
        <ele>161.88471</ele>
        <time>2020-08-12T08:08:01.714Z</time>
      </trkpt>
      <trkpt lat="64.87302" lon="11.62808">
        <ele>162.730934</ele>
        <time>2020-08-12T08:08:06.725Z</time>
      </trkpt>
      <trkpt lat="64.87308" lon="11.62825">
        <ele>163.549854</ele>
        <time>2020-08-12T08:08:11.742Z</time>
      </trkpt>
      <trkpt lat="64.87314" lon="11.62843">
        <ele>164.374376</ele>
        <time>2020-08-12T08:08:16.722Z</time>
      </trkpt>
      <trkpt lat="64.8732" lon="11.6286">
        <ele>165.174399</ele>
        <time>2020-08-12T08:08:21.747Z</time>
      </trkpt>
      <trkpt lat="64.87328" lon="11.62876">
        <ele>165.868803</ele>
        <time>2020-08-12T08:08:26.713Z</time>
      </trkpt>
      <trkpt lat="64.87336" lon="11.62893">
        <ele>166.368516</ele>
        <time>2020-08-12T08:08:31.735Z</time>
      </trkpt>
      <trkpt lat="64.87344" lon="11.6291">
        <ele>166.898489</ele>
        <time>2020-08-12T08:08:36.729Z</time>
      </trkpt>
      <trkpt lat="64.87353" lon="11.62924">
        <ele>167.426337</ele>
        <time>2020-08-12T08:08:41.745Z</time>
      </trkpt>
      <trkpt lat="64.8736" lon="11.62939">
        <ele>167.889149</ele>
        <time>2020-08-12T08:08:46.714Z</time>
      </trkpt>
      <trkpt lat="64.87367" lon="11.62956">
        <ele>168.405964</ele>
        <time>2020-08-12T08:08:52.725Z</time>
      </trkpt>
      <trkpt lat="64.87374" lon="11.62971">
        <ele>168.859232</ele>
        <time>2020-08-12T08:08:57.730Z</time>
      </trkpt>
      <trkpt lat="64.87381" lon="11.62988">
        <ele>169.3628</ele>
        <time>2020-08-12T08:09:03.730Z</time>
      </trkpt>
      <trkpt lat="64.87388" lon="11.63004">
        <ele>169.821936</ele>
        <time>2020-08-12T08:09:09.726Z</time>
      </trkpt>
      <trkpt lat="64.87395" lon="11.63019">
        <ele>170.287275</ele>
        <time>2020-08-12T08:09:15.725Z</time>
      </trkpt>
      <trkpt lat="64.87402" lon="11.63036">
        <ele>170.778009</ele>
        <time>2020-08-12T08:09:20.739Z</time>
      </trkpt>
      <trkpt lat="64.87408" lon="11.63051">
        <ele>171.230481</ele>
        <time>2020-08-12T08:09:25.764Z</time>
      </trkpt>
      <trkpt lat="64.87416" lon="11.63063">
        <ele>171.673426</ele>
        <time>2020-08-12T08:09:30.777Z</time>
      </trkpt>
      <trkpt lat="64.87423" lon="11.63078">
        <ele>172.147429</ele>
        <time>2020-08-12T08:09:35.777Z</time>
      </trkpt>
      <trkpt lat="64.8743" lon="11.63091">
        <ele>172.586465</ele>
        <time>2020-08-12T08:09:40.729Z</time>
      </trkpt>
      <trkpt lat="64.87438" lon="11.63109">
        <ele>173.114223</ele>
        <time>2020-08-12T08:09:46.730Z</time>
      </trkpt>
      <trkpt lat="64.87446" lon="11.63124">
        <ele>173.634503</ele>
        <time>2020-08-12T08:09:52.746Z</time>
      </trkpt>
      <trkpt lat="64.87455" lon="11.63139">
        <ele>174.154782</ele>
        <time>2020-08-12T08:09:58.754Z</time>
      </trkpt>
      <trkpt lat="64.87463" lon="11.63153">
        <ele>174.55694</ele>
        <time>2020-08-12T08:10:03.715Z</time>
      </trkpt>
      <trkpt lat="64.8747" lon="11.63166">
        <ele>174.814711</ele>
        <time>2020-08-12T08:10:07.755Z</time>
      </trkpt>
      <trkpt lat="64.87477" lon="11.63181">
        <ele>175.073565</ele>
        <time>2020-08-12T08:10:11.776Z</time>
      </trkpt>
      <trkpt lat="64.87485" lon="11.63195">
        <ele>175.335756</ele>
        <time>2020-08-12T08:10:15.730Z</time>
      </trkpt>
      <trkpt lat="64.87493" lon="11.63213">
        <ele>175.647546</ele>
        <time>2020-08-12T08:10:20.732Z</time>
      </trkpt>
      <trkpt lat="64.875" lon="11.63225">
        <ele>175.902556</ele>
        <time>2020-08-12T08:10:24.714Z</time>
      </trkpt>
      <trkpt lat="64.87508" lon="11.63243">
        <ele>176.202993</ele>
        <time>2020-08-12T08:10:29.727Z</time>
      </trkpt>
      <trkpt lat="64.87516" lon="11.63259">
        <ele>176.492925</ele>
        <time>2020-08-12T08:10:34.744Z</time>
      </trkpt>
      <trkpt lat="64.87524" lon="11.63277">
        <ele>176.802397</ele>
        <time>2020-08-12T08:10:39.722Z</time>
      </trkpt>
      <trkpt lat="64.87532" lon="11.63293">
        <ele>177.087089</ele>
        <time>2020-08-12T08:10:44.768Z</time>
      </trkpt>
      <trkpt lat="64.87538" lon="11.63306">
        <ele>177.336919</ele>
        <time>2020-08-12T08:10:48.735Z</time>
      </trkpt>
      <trkpt lat="64.87546" lon="11.63323">
        <ele>177.6305</ele>
        <time>2020-08-12T08:10:53.733Z</time>
      </trkpt>
      <trkpt lat="64.87554" lon="11.63341">
        <ele>177.925367</ele>
        <time>2020-08-12T08:10:58.748Z</time>
      </trkpt>
      <trkpt lat="64.8756" lon="11.63358">
        <ele>178.189472</ele>
        <time>2020-08-12T08:11:03.714Z</time>
      </trkpt>
      <trkpt lat="64.87567" lon="11.63376">
        <ele>178.488992</ele>
        <time>2020-08-12T08:11:08.728Z</time>
      </trkpt>
      <trkpt lat="64.87573" lon="11.63392">
        <ele>178.748768</ele>
        <time>2020-08-12T08:11:12.726Z</time>
      </trkpt>
      <trkpt lat="64.87581" lon="11.63412">
        <ele>179.06342</ele>
        <time>2020-08-12T08:11:17.723Z</time>
      </trkpt>
      <trkpt lat="64.87588" lon="11.6343">
        <ele>179.341093</ele>
        <time>2020-08-12T08:11:21.779Z</time>
      </trkpt>
      <trkpt lat="64.87594" lon="11.63447">
        <ele>179.120064</ele>
        <time>2020-08-12T08:11:25.729Z</time>
      </trkpt>
      <trkpt lat="64.87602" lon="11.63465">
        <ele>178.577786</ele>
        <time>2020-08-12T08:11:29.728Z</time>
      </trkpt>
      <trkpt lat="64.87609" lon="11.63486">
        <ele>177.977742</ele>
        <time>2020-08-12T08:11:33.730Z</time>
      </trkpt>
      <trkpt lat="64.87615" lon="11.63506">
        <ele>177.469358</ele>
        <time>2020-08-12T08:11:36.761Z</time>
      </trkpt>
      <trkpt lat="64.8762" lon="11.63524">
        <ele>177.001415</ele>
        <time>2020-08-12T08:11:39.721Z</time>
      </trkpt>
      <trkpt lat="64.87625" lon="11.63548">
        <ele>176.401036</ele>
        <time>2020-08-12T08:11:43.731Z</time>
      </trkpt>
      <trkpt lat="64.87629" lon="11.63575">
        <ele>175.793172</ele>
        <time>2020-08-12T08:11:47.756Z</time>
      </trkpt>
      <trkpt lat="64.87633" lon="11.63602">
        <ele>175.174416</ele>
        <time>2020-08-12T08:11:51.755Z</time>
      </trkpt>
      <trkpt lat="64.87638" lon="11.63623">
        <ele>174.646223</ele>
        <time>2020-08-12T08:11:54.736Z</time>
      </trkpt>
      <trkpt lat="64.87644" lon="11.63647">
        <ele>174.047795</ele>
        <time>2020-08-12T08:11:57.712Z</time>
      </trkpt>
      <trkpt lat="64.8765" lon="11.63676">
        <ele>173.365348</ele>
        <time>2020-08-12T08:12:00.727Z</time>
      </trkpt>
      <trkpt lat="64.87656" lon="11.63695">
        <ele>172.858074</ele>
        <time>2020-08-12T08:12:02.727Z</time>
      </trkpt>
      <trkpt lat="64.87662" lon="11.63716">
        <ele>172.301421</ele>
        <time>2020-08-12T08:12:04.742Z</time>
      </trkpt>
      <trkpt lat="64.87669" lon="11.63739">
        <ele>171.693597</ele>
        <time>2020-08-12T08:12:06.719Z</time>
      </trkpt>
      <trkpt lat="64.87676" lon="11.63764">
        <ele>171.042223</ele>
        <time>2020-08-12T08:12:08.732Z</time>
      </trkpt>
      <trkpt lat="64.87685" lon="11.63789">
        <ele>170.346276</ele>
        <time>2020-08-12T08:12:10.750Z</time>
      </trkpt>
      <trkpt lat="64.87695" lon="11.63815">
        <ele>169.460191</ele>
        <time>2020-08-12T08:12:12.728Z</time>
      </trkpt>
      <trkpt lat="64.87707" lon="11.63841">
        <ele>168.481544</ele>
        <time>2020-08-12T08:12:14.764Z</time>
      </trkpt>
      <trkpt lat="64.8772" lon="11.63865">
        <ele>167.456395</ele>
        <time>2020-08-12T08:12:16.753Z</time>
      </trkpt>
      <trkpt lat="64.87734" lon="11.6389">
        <ele>166.392422</ele>
        <time>2020-08-12T08:12:18.722Z</time>
      </trkpt>
      <trkpt lat="64.87742" lon="11.63902">
        <ele>165.848862</ele>
        <time>2020-08-12T08:12:19.737Z</time>
      </trkpt>
      <trkpt lat="64.87749" lon="11.63914">
        <ele>165.284412</ele>
        <time>2020-08-12T08:12:20.732Z</time>
      </trkpt>
      <trkpt lat="64.87758" lon="11.63926">
        <ele>164.702895</ele>
        <time>2020-08-12T08:12:21.754Z</time>
      </trkpt>
      <trkpt lat="64.87766" lon="11.63938">
        <ele>164.125037</ele>
        <time>2020-08-12T08:12:22.722Z</time>
      </trkpt>
      <trkpt lat="64.87774" lon="11.63951">
        <ele>163.542129</ele>
        <time>2020-08-12T08:12:23.748Z</time>
      </trkpt>
      <trkpt lat="64.87782" lon="11.63964">
        <ele>162.950705</ele>
        <time>2020-08-12T08:12:24.758Z</time>
      </trkpt>
      <trkpt lat="64.8779" lon="11.63977">
        <ele>162.350493</ele>
        <time>2020-08-12T08:12:25.731Z</time>
      </trkpt>
      <trkpt lat="64.87798" lon="11.63992">
        <ele>161.744515</ele>
        <time>2020-08-12T08:12:26.725Z</time>
      </trkpt>
      <trkpt lat="64.87806" lon="11.64007">
        <ele>161.135305</ele>
        <time>2020-08-12T08:12:27.738Z</time>
      </trkpt>
      <trkpt lat="64.87813" lon="11.64023">
        <ele>160.510629</ele>
        <time>2020-08-12T08:12:28.762Z</time>
      </trkpt>
      <trkpt lat="64.87821" lon="11.64041">
        <ele>159.884519</ele>
        <time>2020-08-12T08:12:29.751Z</time>
      </trkpt>
      <trkpt lat="64.87827" lon="11.6406">
        <ele>159.249841</ele>
        <time>2020-08-12T08:12:30.731Z</time>
      </trkpt>
      <trkpt lat="64.87832" lon="11.64082">
        <ele>158.593311</ele>
        <time>2020-08-12T08:12:31.722Z</time>
      </trkpt>
      <trkpt lat="64.87837" lon="11.64105">
        <ele>157.92241</ele>
        <time>2020-08-12T08:12:32.717Z</time>
      </trkpt>
      <trkpt lat="64.87842" lon="11.6413">
        <ele>157.238371</ele>
        <time>2020-08-12T08:12:33.728Z</time>
      </trkpt>
      <trkpt lat="64.87846" lon="11.64155">
        <ele>156.544204</ele>
        <time>2020-08-12T08:12:34.717Z</time>
      </trkpt>
      <trkpt lat="64.87849" lon="11.64181">
        <ele>155.846532</ele>
        <time>2020-08-12T08:12:35.742Z</time>
      </trkpt>
      <trkpt lat="64.87851" lon="11.64208">
        <ele>155.145469</ele>
        <time>2020-08-12T08:12:36.726Z</time>
      </trkpt>
      <trkpt lat="64.87852" lon="11.64235">
        <ele>154.430209</ele>
        <time>2020-08-12T08:12:37.732Z</time>
      </trkpt>
      <trkpt lat="64.87852" lon="11.64263">
        <ele>153.70993</ele>
        <time>2020-08-12T08:12:38.724Z</time>
      </trkpt>
      <trkpt lat="64.87852" lon="11.64292">
        <ele>152.982219</ele>
        <time>2020-08-12T08:12:39.762Z</time>
      </trkpt>
      <trkpt lat="64.87851" lon="11.6432">
        <ele>152.24636</ele>
        <time>2020-08-12T08:12:40.750Z</time>
      </trkpt>
      <trkpt lat="64.87848" lon="11.64348">
        <ele>151.501627</ele>
        <time>2020-08-12T08:12:41.747Z</time>
      </trkpt>
      <trkpt lat="64.87844" lon="11.64375">
        <ele>150.763316</ele>
        <time>2020-08-12T08:12:42.729Z</time>
      </trkpt>
      <trkpt lat="64.87839" lon="11.64401">
        <ele>150.029435</ele>
        <time>2020-08-12T08:12:43.748Z</time>
      </trkpt>
      <trkpt lat="64.87834" lon="11.64427">
        <ele>149.277189</ele>
        <time>2020-08-12T08:12:44.729Z</time>
      </trkpt>
      <trkpt lat="64.87827" lon="11.64452">
        <ele>148.53276</ele>
        <time>2020-08-12T08:12:45.735Z</time>
      </trkpt>
      <trkpt lat="64.8782" lon="11.64475">
        <ele>147.703185</ele>
        <time>2020-08-12T08:12:46.734Z</time>
      </trkpt>
      <trkpt lat="64.87811" lon="11.64497">
        <ele>146.862069</ele>
        <time>2020-08-12T08:12:47.709Z</time>
      </trkpt>
      <trkpt lat="64.87802" lon="11.64517">
        <ele>146.027789</ele>
        <time>2020-08-12T08:12:48.746Z</time>
      </trkpt>
      <trkpt lat="64.87792" lon="11.64536">
        <ele>145.187082</ele>
        <time>2020-08-12T08:12:49.735Z</time>
      </trkpt>
      <trkpt lat="64.87781" lon="11.64554">
        <ele>144.32409</ele>
        <time>2020-08-12T08:12:50.742Z</time>
      </trkpt>
      <trkpt lat="64.8777" lon="11.64569">
        <ele>143.472002</ele>
        <time>2020-08-12T08:12:51.740Z</time>
      </trkpt>
      <trkpt lat="64.87759" lon="11.64585">
        <ele>142.631386</ele>
        <time>2020-08-12T08:12:52.760Z</time>
      </trkpt>
      <trkpt lat="64.87748" lon="11.646">
        <ele>141.767664</ele>
        <time>2020-08-12T08:12:53.753Z</time>
      </trkpt>
      <trkpt lat="64.87736" lon="11.64615">
        <ele>140.90835</ele>
        <time>2020-08-12T08:12:54.758Z</time>
      </trkpt>
      <trkpt lat="64.87725" lon="11.6463">
        <ele>140.053407</ele>
        <time>2020-08-12T08:12:55.737Z</time>
      </trkpt>
      <trkpt lat="64.87714" lon="11.64645">
        <ele>139.188513</ele>
        <time>2020-08-12T08:12:56.755Z</time>
      </trkpt>
      <trkpt lat="64.87703" lon="11.64663">
        <ele>138.315362</ele>
        <time>2020-08-12T08:12:57.714Z</time>
      </trkpt>
      <trkpt lat="64.87693" lon="11.64681">
        <ele>137.459049</ele>
        <time>2020-08-12T08:12:58.745Z</time>
      </trkpt>
      <trkpt lat="64.87684" lon="11.64703">
        <ele>136.593769</ele>
        <time>2020-08-12T08:12:59.716Z</time>
      </trkpt>
      <trkpt lat="64.87676" lon="11.64727">
        <ele>135.679827</ele>
        <time>2020-08-12T08:13:00.738Z</time>
      </trkpt>
      <trkpt lat="64.87669" lon="11.64752">
        <ele>134.770857</ele>
        <time>2020-08-12T08:13:01.724Z</time>
      </trkpt>
      <trkpt lat="64.87663" lon="11.64779">
        <ele>133.854443</ele>
        <time>2020-08-12T08:13:02.724Z</time>
      </trkpt>
      <trkpt lat="64.87659" lon="11.64808">
        <ele>132.935949</ele>
        <time>2020-08-12T08:13:03.720Z</time>
      </trkpt>
      <trkpt lat="64.87655" lon="11.64838">
        <ele>131.965314</ele>
        <time>2020-08-12T08:13:04.722Z</time>
      </trkpt>
      <trkpt lat="64.87652" lon="11.6487">
        <ele>130.980545</ele>
        <time>2020-08-12T08:13:05.735Z</time>
      </trkpt>
      <trkpt lat="64.87651" lon="11.64902">
        <ele>130.014926</ele>
        <time>2020-08-12T08:13:06.743Z</time>
      </trkpt>
      <trkpt lat="64.8765" lon="11.64934">
        <ele>129.068625</ele>
        <time>2020-08-12T08:13:07.730Z</time>
      </trkpt>
      <trkpt lat="64.87651" lon="11.64964">
        <ele>128.144521</ele>
        <time>2020-08-12T08:13:08.735Z</time>
      </trkpt>
      <trkpt lat="64.87653" lon="11.64994">
        <ele>127.236239</ele>
        <time>2020-08-12T08:13:09.728Z</time>
      </trkpt>
      <trkpt lat="64.87656" lon="11.65023">
        <ele>126.316425</ele>
        <time>2020-08-12T08:13:10.753Z</time>
      </trkpt>
      <trkpt lat="64.87659" lon="11.65052">
        <ele>125.417178</ele>
        <time>2020-08-12T08:13:11.734Z</time>
      </trkpt>
      <trkpt lat="64.87662" lon="11.65081">
        <ele>124.516859</ele>
        <time>2020-08-12T08:13:12.783Z</time>
      </trkpt>
      <trkpt lat="64.87665" lon="11.65111">
        <ele>123.626789</ele>
        <time>2020-08-12T08:13:13.738Z</time>
      </trkpt>
      <trkpt lat="64.87668" lon="11.65142">
        <ele>122.874771</ele>
        <time>2020-08-12T08:13:14.729Z</time>
      </trkpt>
      <trkpt lat="64.8767" lon="11.65172">
        <ele>122.122754</ele>
        <time>2020-08-12T08:13:15.733Z</time>
      </trkpt>
      <trkpt lat="64.87673" lon="11.65203">
        <ele>121.374274</ele>
        <time>2020-08-12T08:13:16.727Z</time>
      </trkpt>
      <trkpt lat="64.87676" lon="11.65233">
        <ele>120.626983</ele>
        <time>2020-08-12T08:13:17.730Z</time>
      </trkpt>
      <trkpt lat="64.87678" lon="11.65263">
        <ele>119.879693</ele>
        <time>2020-08-12T08:13:18.733Z</time>
      </trkpt>
      <trkpt lat="64.87681" lon="11.65293">
        <ele>119.135916</ele>
        <time>2020-08-12T08:13:19.754Z</time>
      </trkpt>
      <trkpt lat="64.87684" lon="11.65324">
        <ele>118.389797</ele>
        <time>2020-08-12T08:13:20.715Z</time>
      </trkpt>
      <trkpt lat="64.87687" lon="11.65353">
        <ele>117.649506</ele>
        <time>2020-08-12T08:13:21.745Z</time>
      </trkpt>
      <trkpt lat="64.8769" lon="11.65384">
        <ele>116.90451</ele>
        <time>2020-08-12T08:13:22.741Z</time>
      </trkpt>
      <trkpt lat="64.87692" lon="11.65414">
        <ele>116.146598</ele>
        <time>2020-08-12T08:13:23.732Z</time>
      </trkpt>
      <trkpt lat="64.87695" lon="11.65445">
        <ele>115.391047</ele>
        <time>2020-08-12T08:13:24.736Z</time>
      </trkpt>
      <trkpt lat="64.87698" lon="11.65476">
        <ele>114.628315</ele>
        <time>2020-08-12T08:13:25.739Z</time>
      </trkpt>
      <trkpt lat="64.87701" lon="11.65506">
        <ele>113.869192</ele>
        <time>2020-08-12T08:13:26.726Z</time>
      </trkpt>
      <trkpt lat="64.87704" lon="11.65537">
        <ele>113.07628</ele>
        <time>2020-08-12T08:13:27.725Z</time>
      </trkpt>
      <trkpt lat="64.87707" lon="11.65568">
        <ele>112.268807</ele>
        <time>2020-08-12T08:13:28.728Z</time>
      </trkpt>
      <trkpt lat="64.8771" lon="11.65598">
        <ele>111.47153</ele>
        <time>2020-08-12T08:13:29.730Z</time>
      </trkpt>
      <trkpt lat="64.87713" lon="11.65629">
        <ele>110.67681</ele>
        <time>2020-08-12T08:13:30.762Z</time>
      </trkpt>
      <trkpt lat="64.87716" lon="11.65659">
        <ele>109.879535</ele>
        <time>2020-08-12T08:13:31.729Z</time>
      </trkpt>
      <trkpt lat="64.87719" lon="11.65689">
        <ele>109.091966</ele>
        <time>2020-08-12T08:13:32.744Z</time>
      </trkpt>
      <trkpt lat="64.87722" lon="11.65719">
        <ele>108.309796</ele>
        <time>2020-08-12T08:13:33.730Z</time>
      </trkpt>
      <trkpt lat="64.87726" lon="11.65748">
        <ele>107.530757</ele>
        <time>2020-08-12T08:13:34.745Z</time>
      </trkpt>
      <trkpt lat="64.8773" lon="11.65777">
        <ele>106.74958</ele>
        <time>2020-08-12T08:13:35.769Z</time>
      </trkpt>
      <trkpt lat="64.87735" lon="11.65805">
        <ele>105.96979</ele>
        <time>2020-08-12T08:13:36.723Z</time>
      </trkpt>
      <trkpt lat="64.87741" lon="11.65832">
        <ele>105.194266</ele>
        <time>2020-08-12T08:13:37.769Z</time>
      </trkpt>
      <trkpt lat="64.87747" lon="11.65859">
        <ele>104.418597</ele>
        <time>2020-08-12T08:13:38.731Z</time>
      </trkpt>
      <trkpt lat="64.87754" lon="11.65884">
        <ele>103.649084</ele>
        <time>2020-08-12T08:13:39.722Z</time>
      </trkpt>
      <trkpt lat="64.87761" lon="11.65909">
        <ele>102.877636</ele>
        <time>2020-08-12T08:13:40.719Z</time>
      </trkpt>
      <trkpt lat="64.87769" lon="11.65932">
        <ele>102.088281</ele>
        <time>2020-08-12T08:13:41.730Z</time>
      </trkpt>
      <trkpt lat="64.87778" lon="11.65955">
        <ele>101.28531</ele>
        <time>2020-08-12T08:13:42.777Z</time>
      </trkpt>
      <trkpt lat="64.87786" lon="11.65978">
        <ele>100.496171</ele>
        <time>2020-08-12T08:13:43.726Z</time>
      </trkpt>
      <trkpt lat="64.87795" lon="11.66">
        <ele>99.70446</ele>
        <time>2020-08-12T08:13:44.746Z</time>
      </trkpt>
      <trkpt lat="64.87805" lon="11.66021">
        <ele>98.906099</ele>
        <time>2020-08-12T08:13:45.728Z</time>
      </trkpt>
      <trkpt lat="64.87814" lon="11.66041">
        <ele>98.124726</ele>
        <time>2020-08-12T08:13:46.737Z</time>
      </trkpt>
      <trkpt lat="64.87824" lon="11.66061">
        <ele>97.341102</ele>
        <time>2020-08-12T08:13:47.830Z</time>
      </trkpt>
      <trkpt lat="64.87833" lon="11.6608">
        <ele>96.556793</ele>
        <time>2020-08-12T08:13:48.735Z</time>
      </trkpt>
      <trkpt lat="64.87844" lon="11.66098">
        <ele>95.767736</ele>
        <time>2020-08-12T08:13:49.741Z</time>
      </trkpt>
      <trkpt lat="64.87854" lon="11.66116">
        <ele>94.966005</ele>
        <time>2020-08-12T08:13:50.783Z</time>
      </trkpt>
      <trkpt lat="64.87865" lon="11.66133">
        <ele>94.153964</ele>
        <time>2020-08-12T08:13:51.721Z</time>
      </trkpt>
      <trkpt lat="64.87876" lon="11.66149">
        <ele>93.348514</ele>
        <time>2020-08-12T08:13:52.747Z</time>
      </trkpt>
      <trkpt lat="64.87887" lon="11.66165">
        <ele>92.550297</ele>
        <time>2020-08-12T08:13:53.747Z</time>
      </trkpt>
      <trkpt lat="64.87899" lon="11.6618">
        <ele>91.765276</ele>
        <time>2020-08-12T08:13:54.726Z</time>
      </trkpt>
      <trkpt lat="64.8791" lon="11.66194">
        <ele>91.315027</ele>
        <time>2020-08-12T08:13:55.767Z</time>
      </trkpt>
      <trkpt lat="64.8792" lon="11.66208">
        <ele>90.936064</ele>
        <time>2020-08-12T08:13:56.742Z</time>
      </trkpt>
      <trkpt lat="64.87931" lon="11.66222">
        <ele>90.568924</ele>
        <time>2020-08-12T08:13:57.732Z</time>
      </trkpt>
      <trkpt lat="64.87941" lon="11.66235">
        <ele>90.215028</ele>
        <time>2020-08-12T08:13:58.769Z</time>
      </trkpt>
      <trkpt lat="64.87951" lon="11.66248">
        <ele>89.860312</ele>
        <time>2020-08-12T08:13:59.757Z</time>
      </trkpt>
      <trkpt lat="64.87961" lon="11.66261">
        <ele>89.519017</ele>
        <time>2020-08-12T08:14:00.728Z</time>
      </trkpt>
      <trkpt lat="64.8797" lon="11.66273">
        <ele>89.187644</ele>
        <time>2020-08-12T08:14:01.731Z</time>
      </trkpt>
      <trkpt lat="64.8798" lon="11.66285">
        <ele>88.864606</ele>
        <time>2020-08-12T08:14:02.720Z</time>
      </trkpt>
      <trkpt lat="64.87988" lon="11.66297">
        <ele>88.554999</ele>
        <time>2020-08-12T08:14:03.730Z</time>
      </trkpt>
      <trkpt lat="64.87997" lon="11.66308">
        <ele>88.255312</ele>
        <time>2020-08-12T08:14:04.725Z</time>
      </trkpt>
      <trkpt lat="64.88005" lon="11.66319">
        <ele>87.966828</ele>
        <time>2020-08-12T08:14:05.733Z</time>
      </trkpt>
      <trkpt lat="64.88013" lon="11.66329">
        <ele>87.689544</ele>
        <time>2020-08-12T08:14:06.736Z</time>
      </trkpt>
      <trkpt lat="64.88028" lon="11.66349">
        <ele>87.170717</ele>
        <time>2020-08-12T08:14:08.723Z</time>
      </trkpt>
      <trkpt lat="64.88041" lon="11.66368">
        <ele>86.694835</ele>
        <time>2020-08-12T08:14:10.755Z</time>
      </trkpt>
      <trkpt lat="64.88054" lon="11.66385">
        <ele>86.252599</ele>
        <time>2020-08-12T08:14:12.744Z</time>
      </trkpt>
      <trkpt lat="64.88066" lon="11.664">
        <ele>86.366864</ele>
        <time>2020-08-12T08:14:14.746Z</time>
      </trkpt>
      <trkpt lat="64.88077" lon="11.66415">
        <ele>86.699163</ele>
        <time>2020-08-12T08:14:16.722Z</time>
      </trkpt>
      <trkpt lat="64.88088" lon="11.66429">
        <ele>87.012786</ele>
        <time>2020-08-12T08:14:18.724Z</time>
      </trkpt>
      <trkpt lat="64.88098" lon="11.66442">
        <ele>87.311704</ele>
        <time>2020-08-12T08:14:20.758Z</time>
      </trkpt>
      <trkpt lat="64.88107" lon="11.66455">
        <ele>87.5846</ele>
        <time>2020-08-12T08:14:22.736Z</time>
      </trkpt>
      <trkpt lat="64.88116" lon="11.66466">
        <ele>87.847632</ele>
        <time>2020-08-12T08:14:24.729Z</time>
      </trkpt>
      <trkpt lat="64.88125" lon="11.66478">
        <ele>88.099632</ele>
        <time>2020-08-12T08:14:26.723Z</time>
      </trkpt>
      <trkpt lat="64.88133" lon="11.6649">
        <ele>88.345014</ele>
        <time>2020-08-12T08:14:28.739Z</time>
      </trkpt>
      <trkpt lat="64.88141" lon="11.665">
        <ele>88.57443</ele>
        <time>2020-08-12T08:14:30.748Z</time>
      </trkpt>
      <trkpt lat="64.88152" lon="11.66515">
        <ele>88.908037</ele>
        <time>2020-08-12T08:14:33.726Z</time>
      </trkpt>
      <trkpt lat="64.88163" lon="11.66529">
        <ele>89.227106</ele>
        <time>2020-08-12T08:14:36.753Z</time>
      </trkpt>
      <trkpt lat="64.88173" lon="11.66543">
        <ele>89.528106</ele>
        <time>2020-08-12T08:14:39.728Z</time>
      </trkpt>
      <trkpt lat="64.88183" lon="11.66556">
        <ele>89.810314</ele>
        <time>2020-08-12T08:14:42.738Z</time>
      </trkpt>
      <trkpt lat="64.88192" lon="11.66568">
        <ele>90.074406</ele>
        <time>2020-08-12T08:14:45.746Z</time>
      </trkpt>
      <trkpt lat="64.88201" lon="11.6658">
        <ele>90.34191</ele>
        <time>2020-08-12T08:14:48.785Z</time>
      </trkpt>
      <trkpt lat="64.88211" lon="11.66592">
        <ele>90.615455</ele>
        <time>2020-08-12T08:14:51.770Z</time>
      </trkpt>
      <trkpt lat="64.88221" lon="11.66606">
        <ele>90.64938</ele>
        <time>2020-08-12T08:14:54.713Z</time>
      </trkpt>
      <trkpt lat="64.88229" lon="11.66617">
        <ele>90.571129</ele>
        <time>2020-08-12T08:14:56.734Z</time>
      </trkpt>
      <trkpt lat="64.88238" lon="11.66629">
        <ele>90.48583</ele>
        <time>2020-08-12T08:14:58.724Z</time>
      </trkpt>
      <trkpt lat="64.88246" lon="11.66641">
        <ele>90.397536</ele>
        <time>2020-08-12T08:15:00.724Z</time>
      </trkpt>
      <trkpt lat="64.88255" lon="11.66654">
        <ele>90.307406</ele>
        <time>2020-08-12T08:15:02.745Z</time>
      </trkpt>
      <trkpt lat="64.88265" lon="11.66667">
        <ele>90.211882</ele>
        <time>2020-08-12T08:15:04.735Z</time>
      </trkpt>
      <trkpt lat="64.88274" lon="11.6668">
        <ele>90.117664</ele>
        <time>2020-08-12T08:15:06.722Z</time>
      </trkpt>
      <trkpt lat="64.88284" lon="11.66694">
        <ele>90.019336</ele>
        <time>2020-08-12T08:15:08.730Z</time>
      </trkpt>
      <trkpt lat="64.88294" lon="11.66708">
        <ele>89.917865</ele>
        <time>2020-08-12T08:15:10.728Z</time>
      </trkpt>
      <trkpt lat="64.88304" lon="11.66723">
        <ele>89.817045</ele>
        <time>2020-08-12T08:15:12.750Z</time>
      </trkpt>
      <trkpt lat="64.88314" lon="11.66739">
        <ele>89.711933</ele>
        <time>2020-08-12T08:15:14.739Z</time>
      </trkpt>
      <trkpt lat="64.88324" lon="11.66756">
        <ele>89.60397</ele>
        <time>2020-08-12T08:15:16.725Z</time>
      </trkpt>
      <trkpt lat="64.88334" lon="11.66772">
        <ele>89.500111</ele>
        <time>2020-08-12T08:15:18.743Z</time>
      </trkpt>
      <trkpt lat="64.88344" lon="11.6679">
        <ele>89.392169</ele>
        <time>2020-08-12T08:15:20.745Z</time>
      </trkpt>
      <trkpt lat="64.88354" lon="11.66808">
        <ele>89.281536</ele>
        <time>2020-08-12T08:15:22.729Z</time>
      </trkpt>
      <trkpt lat="64.88365" lon="11.66829">
        <ele>89.163628</ele>
        <time>2020-08-12T08:15:24.729Z</time>
      </trkpt>
      <trkpt lat="64.88375" lon="11.6685">
        <ele>89.010559</ele>
        <time>2020-08-12T08:15:26.765Z</time>
      </trkpt>
      <trkpt lat="64.88387" lon="11.66871">
        <ele>88.85527</ele>
        <time>2020-08-12T08:15:28.795Z</time>
      </trkpt>
      <trkpt lat="64.88399" lon="11.66891">
        <ele>88.695021</ele>
        <time>2020-08-12T08:15:30.709Z</time>
      </trkpt>
      <trkpt lat="64.88411" lon="11.66911">
        <ele>88.532654</ele>
        <time>2020-08-12T08:15:32.765Z</time>
      </trkpt>
      <trkpt lat="64.88423" lon="11.66931">
        <ele>88.374705</ele>
        <time>2020-08-12T08:15:34.743Z</time>
      </trkpt>
      <trkpt lat="64.88435" lon="11.66948">
        <ele>88.220299</ele>
        <time>2020-08-12T08:15:36.733Z</time>
      </trkpt>
      <trkpt lat="64.88446" lon="11.66965">
        <ele>88.071582</ele>
        <time>2020-08-12T08:15:38.718Z</time>
      </trkpt>
      <trkpt lat="64.88458" lon="11.66979">
        <ele>87.927767</ele>
        <time>2020-08-12T08:15:40.773Z</time>
      </trkpt>
      <trkpt lat="64.8847" lon="11.66991">
        <ele>87.787452</ele>
        <time>2020-08-12T08:15:42.757Z</time>
      </trkpt>
      <trkpt lat="64.88482" lon="11.67002">
        <ele>87.652053</ele>
        <time>2020-08-12T08:15:44.737Z</time>
      </trkpt>
      <trkpt lat="64.88493" lon="11.67013">
        <ele>87.520454</ele>
        <time>2020-08-12T08:15:46.749Z</time>
      </trkpt>
      <trkpt lat="64.88504" lon="11.67024">
        <ele>87.393236</ele>
        <time>2020-08-12T08:15:48.731Z</time>
      </trkpt>
      <trkpt lat="64.88514" lon="11.67033">
        <ele>87.268728</ele>
        <time>2020-08-12T08:15:50.738Z</time>
      </trkpt>
      <trkpt lat="64.88524" lon="11.67042">
        <ele>87.165986</ele>
        <time>2020-08-12T08:15:52.753Z</time>
      </trkpt>
      <trkpt lat="64.88534" lon="11.67051">
        <ele>87.085313</ele>
        <time>2020-08-12T08:15:54.744Z</time>
      </trkpt>
      <trkpt lat="64.88543" lon="11.67059">
        <ele>87.007614</ele>
        <time>2020-08-12T08:15:56.723Z</time>
      </trkpt>
      <trkpt lat="64.88551" lon="11.67069">
        <ele>86.931626</ele>
        <time>2020-08-12T08:15:58.746Z</time>
      </trkpt>
      <trkpt lat="64.8856" lon="11.67078">
        <ele>86.855199</ele>
        <time>2020-08-12T08:16:00.730Z</time>
      </trkpt>
      <trkpt lat="64.88568" lon="11.67088">
        <ele>86.782041</ele>
        <time>2020-08-12T08:16:02.726Z</time>
      </trkpt>
      <trkpt lat="64.88576" lon="11.67099">
        <ele>86.708943</ele>
        <time>2020-08-12T08:16:04.718Z</time>
      </trkpt>
      <trkpt lat="64.88588" lon="11.67113">
        <ele>86.601918</ele>
        <time>2020-08-12T08:16:07.740Z</time>
      </trkpt>
      <trkpt lat="64.88596" lon="11.67123">
        <ele>86.528513</ele>
        <time>2020-08-12T08:16:09.733Z</time>
      </trkpt>
      <trkpt lat="64.88605" lon="11.67133">
        <ele>86.451889</ele>
        <time>2020-08-12T08:16:11.756Z</time>
      </trkpt>
      <trkpt lat="64.88613" lon="11.67144">
        <ele>86.375869</ele>
        <time>2020-08-12T08:16:13.724Z</time>
      </trkpt>
      <trkpt lat="64.88622" lon="11.67155">
        <ele>86.296555</ele>
        <time>2020-08-12T08:16:15.767Z</time>
      </trkpt>
      <trkpt lat="64.88631" lon="11.67166">
        <ele>86.211153</ele>
        <time>2020-08-12T08:16:17.727Z</time>
      </trkpt>
      <trkpt lat="64.88641" lon="11.67177">
        <ele>86.122862</ele>
        <time>2020-08-12T08:16:19.734Z</time>
      </trkpt>
      <trkpt lat="64.88652" lon="11.6719">
        <ele>86.026174</ele>
        <time>2020-08-12T08:16:21.760Z</time>
      </trkpt>
      <trkpt lat="64.88664" lon="11.67202">
        <ele>85.923488</ele>
        <time>2020-08-12T08:16:23.741Z</time>
      </trkpt>
      <trkpt lat="64.88677" lon="11.67214">
        <ele>85.814584</ele>
        <time>2020-08-12T08:16:25.735Z</time>
      </trkpt>
      <trkpt lat="64.8869" lon="11.67228">
        <ele>85.385308</ele>
        <time>2020-08-12T08:16:27.715Z</time>
      </trkpt>
      <trkpt lat="64.88704" lon="11.67243">
        <ele>84.727051</ele>
        <time>2020-08-12T08:16:29.763Z</time>
      </trkpt>
      <trkpt lat="64.88718" lon="11.67257">
        <ele>84.036905</ele>
        <time>2020-08-12T08:16:31.746Z</time>
      </trkpt>
      <trkpt lat="64.88734" lon="11.67271">
        <ele>83.326696</ele>
        <time>2020-08-12T08:16:33.723Z</time>
      </trkpt>
      <trkpt lat="64.88749" lon="11.67287">
        <ele>82.618111</ele>
        <time>2020-08-12T08:16:35.730Z</time>
      </trkpt>
      <trkpt lat="64.88764" lon="11.67301">
        <ele>81.911232</ele>
        <time>2020-08-12T08:16:37.745Z</time>
      </trkpt>
      <trkpt lat="64.88779" lon="11.67315">
        <ele>81.19499</ele>
        <time>2020-08-12T08:16:39.726Z</time>
      </trkpt>
      <trkpt lat="64.88794" lon="11.67329">
        <ele>80.488827</ele>
        <time>2020-08-12T08:16:41.746Z</time>
      </trkpt>
      <trkpt lat="64.8881" lon="11.67342">
        <ele>79.76862</ele>
        <time>2020-08-12T08:16:43.727Z</time>
      </trkpt>
      <trkpt lat="64.88826" lon="11.67353">
        <ele>79.037749</ele>
        <time>2020-08-12T08:16:45.726Z</time>
      </trkpt>
      <trkpt lat="64.88843" lon="11.67363">
        <ele>78.30473</ele>
        <time>2020-08-12T08:16:47.738Z</time>
      </trkpt>
      <trkpt lat="64.8886" lon="11.6737">
        <ele>77.251235</ele>
        <time>2020-08-12T08:16:49.738Z</time>
      </trkpt>
      <trkpt lat="64.88869" lon="11.67371">
        <ele>76.613292</ele>
        <time>2020-08-12T08:16:50.752Z</time>
      </trkpt>
      <trkpt lat="64.88887" lon="11.67372">
        <ele>75.305798</ele>
        <time>2020-08-12T08:16:52.720Z</time>
      </trkpt>
      <trkpt lat="64.88897" lon="11.67371">
        <ele>74.633972</ele>
        <time>2020-08-12T08:16:53.722Z</time>
      </trkpt>
      <trkpt lat="64.88906" lon="11.6737">
        <ele>73.954699</ele>
        <time>2020-08-12T08:16:54.733Z</time>
      </trkpt>
      <trkpt lat="64.88916" lon="11.67369">
        <ele>73.260883</ele>
        <time>2020-08-12T08:16:55.724Z</time>
      </trkpt>
      <trkpt lat="64.88926" lon="11.67368">
        <ele>72.552484</ele>
        <time>2020-08-12T08:16:56.730Z</time>
      </trkpt>
      <trkpt lat="64.88936" lon="11.67367">
        <ele>71.837934</ele>
        <time>2020-08-12T08:16:57.748Z</time>
      </trkpt>
      <trkpt lat="64.88946" lon="11.67368">
        <ele>71.116317</ele>
        <time>2020-08-12T08:16:58.730Z</time>
      </trkpt>
      <trkpt lat="64.88956" lon="11.67369">
        <ele>70.39421</ele>
        <time>2020-08-12T08:16:59.731Z</time>
      </trkpt>
      <trkpt lat="64.88966" lon="11.6737">
        <ele>69.685972</ele>
        <time>2020-08-12T08:17:00.774Z</time>
      </trkpt>
      <trkpt lat="64.88976" lon="11.67371">
        <ele>68.977008</ele>
        <time>2020-08-12T08:17:01.759Z</time>
      </trkpt>
      <trkpt lat="64.88986" lon="11.67374">
        <ele>68.252056</ele>
        <time>2020-08-12T08:17:02.756Z</time>
      </trkpt>
      <trkpt lat="64.88996" lon="11.67377">
        <ele>67.530637</ele>
        <time>2020-08-12T08:17:03.748Z</time>
      </trkpt>
      <trkpt lat="64.89006" lon="11.67381">
        <ele>66.820054</ele>
        <time>2020-08-12T08:17:04.741Z</time>
      </trkpt>
      <trkpt lat="64.89015" lon="11.67386">
        <ele>66.103674</ele>
        <time>2020-08-12T08:17:05.742Z</time>
      </trkpt>
      <trkpt lat="64.89025" lon="11.67392">
        <ele>65.383226</ele>
        <time>2020-08-12T08:17:06.727Z</time>
      </trkpt>
      <trkpt lat="64.89035" lon="11.67398">
        <ele>64.834816</ele>
        <time>2020-08-12T08:17:07.724Z</time>
      </trkpt>
      <trkpt lat="64.89044" lon="11.67404">
        <ele>64.396154</ele>
        <time>2020-08-12T08:17:08.732Z</time>
      </trkpt>
      <trkpt lat="64.89053" lon="11.67412">
        <ele>63.956795</ele>
        <time>2020-08-12T08:17:09.747Z</time>
      </trkpt>
      <trkpt lat="64.89061" lon="11.6742">
        <ele>63.5305</ele>
        <time>2020-08-12T08:17:10.749Z</time>
      </trkpt>
      <trkpt lat="64.8907" lon="11.67427">
        <ele>63.109243</ele>
        <time>2020-08-12T08:17:11.731Z</time>
      </trkpt>
      <trkpt lat="64.89086" lon="11.67443">
        <ele>62.285419</ele>
        <time>2020-08-12T08:17:13.721Z</time>
      </trkpt>
      <trkpt lat="64.89102" lon="11.6746">
        <ele>61.494396</ele>
        <time>2020-08-12T08:17:15.742Z</time>
      </trkpt>
      <trkpt lat="64.89116" lon="11.67477">
        <ele>60.741844</ele>
        <time>2020-08-12T08:17:17.725Z</time>
      </trkpt>
      <trkpt lat="64.8913" lon="11.67493">
        <ele>60.013788</ele>
        <time>2020-08-12T08:17:19.745Z</time>
      </trkpt>
      <trkpt lat="64.89144" lon="11.67509">
        <ele>59.285795</ele>
        <time>2020-08-12T08:17:21.767Z</time>
      </trkpt>
      <trkpt lat="64.89159" lon="11.67525">
        <ele>58.530933</ele>
        <time>2020-08-12T08:17:23.715Z</time>
      </trkpt>
      <trkpt lat="64.89175" lon="11.67542">
        <ele>57.737439</ele>
        <time>2020-08-12T08:17:25.733Z</time>
      </trkpt>
      <trkpt lat="64.8919" lon="11.6756">
        <ele>56.929668</ele>
        <time>2020-08-12T08:17:27.745Z</time>
      </trkpt>
      <trkpt lat="64.89206" lon="11.67578">
        <ele>56.299874</ele>
        <time>2020-08-12T08:17:29.772Z</time>
      </trkpt>
      <trkpt lat="64.89221" lon="11.67595">
        <ele>55.72537</ele>
        <time>2020-08-12T08:17:31.737Z</time>
      </trkpt>
      <trkpt lat="64.89236" lon="11.67613">
        <ele>55.161833</ele>
        <time>2020-08-12T08:17:33.727Z</time>
      </trkpt>
      <trkpt lat="64.8925" lon="11.6763">
        <ele>54.630977</ele>
        <time>2020-08-12T08:17:35.719Z</time>
      </trkpt>
      <trkpt lat="64.89263" lon="11.67645">
        <ele>54.140678</ele>
        <time>2020-08-12T08:17:37.741Z</time>
      </trkpt>
      <trkpt lat="64.89276" lon="11.67659">
        <ele>53.666863</ele>
        <time>2020-08-12T08:17:39.722Z</time>
      </trkpt>
      <trkpt lat="64.89288" lon="11.67672">
        <ele>53.21071</ele>
        <time>2020-08-12T08:17:41.721Z</time>
      </trkpt>
      <trkpt lat="64.893" lon="11.67685">
        <ele>52.766133</ele>
        <time>2020-08-12T08:17:43.734Z</time>
      </trkpt>
      <trkpt lat="64.89312" lon="11.67697">
        <ele>52.348946</ele>
        <time>2020-08-12T08:17:45.762Z</time>
      </trkpt>
      <trkpt lat="64.89322" lon="11.67708">
        <ele>51.956596</ele>
        <time>2020-08-12T08:17:47.722Z</time>
      </trkpt>
      <trkpt lat="64.89333" lon="11.67721">
        <ele>51.558128</ele>
        <time>2020-08-12T08:17:49.741Z</time>
      </trkpt>
      <trkpt lat="64.89343" lon="11.67733">
        <ele>51.177249</ele>
        <time>2020-08-12T08:17:51.726Z</time>
      </trkpt>
      <trkpt lat="64.89353" lon="11.67745">
        <ele>50.79425</ele>
        <time>2020-08-12T08:17:53.732Z</time>
      </trkpt>
      <trkpt lat="64.89363" lon="11.67757">
        <ele>50.923755</ele>
        <time>2020-08-12T08:17:55.726Z</time>
      </trkpt>
      <trkpt lat="64.89373" lon="11.6777">
        <ele>51.200982</ele>
        <time>2020-08-12T08:17:57.748Z</time>
      </trkpt>
      <trkpt lat="64.89383" lon="11.67785">
        <ele>51.484991</ele>
        <time>2020-08-12T08:17:59.740Z</time>
      </trkpt>
      <trkpt lat="64.89393" lon="11.67799">
        <ele>51.767394</ele>
        <time>2020-08-12T08:18:01.739Z</time>
      </trkpt>
      <trkpt lat="64.89403" lon="11.67815">
        <ele>52.054918</ele>
        <time>2020-08-12T08:18:03.755Z</time>
      </trkpt>
      <trkpt lat="64.89412" lon="11.67831">
        <ele>52.335467</ele>
        <time>2020-08-12T08:18:05.746Z</time>
      </trkpt>
      <trkpt lat="64.89421" lon="11.67846">
        <ele>52.602645</ele>
        <time>2020-08-12T08:18:07.725Z</time>
      </trkpt>
      <trkpt lat="64.8943" lon="11.67862">
        <ele>52.865926</ele>
        <time>2020-08-12T08:18:09.738Z</time>
      </trkpt>
      <trkpt lat="64.89438" lon="11.67879">
        <ele>53.129207</ele>
        <time>2020-08-12T08:18:11.727Z</time>
      </trkpt>
      <trkpt lat="64.89446" lon="11.67895">
        <ele>53.377047</ele>
        <time>2020-08-12T08:18:13.748Z</time>
      </trkpt>
      <trkpt lat="64.89454" lon="11.6791">
        <ele>53.621045</ele>
        <time>2020-08-12T08:18:15.726Z</time>
      </trkpt>
      <trkpt lat="64.89461" lon="11.67926">
        <ele>53.85579</ele>
        <time>2020-08-12T08:18:17.772Z</time>
      </trkpt>
      <trkpt lat="64.89468" lon="11.67942">
        <ele>54.094377</ele>
        <time>2020-08-12T08:18:19.751Z</time>
      </trkpt>
      <trkpt lat="64.89475" lon="11.67957">
        <ele>54.320327</ele>
        <time>2020-08-12T08:18:21.724Z</time>
      </trkpt>
      <trkpt lat="64.89481" lon="11.67974">
        <ele>54.542156</ele>
        <time>2020-08-12T08:18:23.757Z</time>
      </trkpt>
      <trkpt lat="64.89489" lon="11.67997">
        <ele>54.859267</ele>
        <time>2020-08-12T08:18:26.726Z</time>
      </trkpt>
      <trkpt lat="64.89496" lon="11.6802">
        <ele>55.169269</ele>
        <time>2020-08-12T08:18:29.736Z</time>
      </trkpt>
      <trkpt lat="64.89503" lon="11.68041">
        <ele>55.49694</ele>
        <time>2020-08-12T08:18:32.734Z</time>
      </trkpt>
      <trkpt lat="64.89508" lon="11.68061">
        <ele>55.786074</ele>
        <time>2020-08-12T08:18:35.719Z</time>
      </trkpt>
      <trkpt lat="64.89513" lon="11.68079">
        <ele>56.065053</ele>
        <time>2020-08-12T08:18:38.754Z</time>
      </trkpt>
      <trkpt lat="64.89518" lon="11.68097">
        <ele>56.335761</ele>
        <time>2020-08-12T08:18:41.760Z</time>
      </trkpt>
      <trkpt lat="64.89525" lon="11.68121">
        <ele>56.683916</ele>
        <time>2020-08-12T08:18:45.789Z</time>
      </trkpt>
      <trkpt lat="64.8953" lon="11.68139">
        <ele>56.959883</ele>
        <time>2020-08-12T08:18:48.723Z</time>
      </trkpt>
      <trkpt lat="64.89536" lon="11.68163">
        <ele>57.31327</ele>
        <time>2020-08-12T08:18:52.742Z</time>
      </trkpt>
      <trkpt lat="64.89542" lon="11.68182">
        <ele>57.593464</ele>
        <time>2020-08-12T08:18:55.728Z</time>
      </trkpt>
      <trkpt lat="64.89548" lon="11.68203">
        <ele>57.91001</ele>
        <time>2020-08-12T08:18:58.728Z</time>
      </trkpt>
      <trkpt lat="64.89554" lon="11.68225">
        <ele>58.237264</ele>
        <time>2020-08-12T08:19:01.722Z</time>
      </trkpt>
      <trkpt lat="64.8956" lon="11.68248">
        <ele>58.576968</ele>
        <time>2020-08-12T08:19:04.742Z</time>
      </trkpt>
      <trkpt lat="64.89566" lon="11.68272">
        <ele>58.927783</ele>
        <time>2020-08-12T08:19:07.730Z</time>
      </trkpt>
      <trkpt lat="64.89572" lon="11.68296">
        <ele>59.283327</ele>
        <time>2020-08-12T08:19:10.748Z</time>
      </trkpt>
      <trkpt lat="64.89578" lon="11.6832">
        <ele>59.627481</ele>
        <time>2020-08-12T08:19:13.731Z</time>
      </trkpt>
      <trkpt lat="64.89584" lon="11.68345">
        <ele>59.983552</ele>
        <time>2020-08-12T08:19:16.729Z</time>
      </trkpt>
      <trkpt lat="64.8959" lon="11.68369">
        <ele>60.320426</ele>
        <time>2020-08-12T08:19:19.733Z</time>
      </trkpt>
      <trkpt lat="64.89595" lon="11.68391">
        <ele>60.520103</ele>
        <time>2020-08-12T08:19:22.728Z</time>
      </trkpt>
      <trkpt lat="64.89601" lon="11.68412">
        <ele>60.704674</ele>
        <time>2020-08-12T08:19:25.734Z</time>
      </trkpt>
      <trkpt lat="64.89608" lon="11.68432">
        <ele>60.896188</ele>
        <time>2020-08-12T08:19:28.725Z</time>
      </trkpt>
      <trkpt lat="64.89613" lon="11.68451">
        <ele>61.067312</ele>
        <time>2020-08-12T08:19:31.745Z</time>
      </trkpt>
      <trkpt lat="64.89618" lon="11.6847">
        <ele>61.234083</ele>
        <time>2020-08-12T08:19:34.728Z</time>
      </trkpt>
      <trkpt lat="64.89623" lon="11.6849">
        <ele>61.403265</ele>
        <time>2020-08-12T08:19:37.759Z</time>
      </trkpt>
      <trkpt lat="64.89626" lon="11.68511">
        <ele>61.567148</ele>
        <time>2020-08-12T08:19:40.739Z</time>
      </trkpt>
      <trkpt lat="64.8963" lon="11.68533">
        <ele>61.739319</ele>
        <time>2020-08-12T08:19:43.744Z</time>
      </trkpt>
      <trkpt lat="64.89633" lon="11.68555">
        <ele>61.910393</ele>
        <time>2020-08-12T08:19:46.731Z</time>
      </trkpt>
      <trkpt lat="64.89636" lon="11.68577">
        <ele>62.081265</ele>
        <time>2020-08-12T08:19:49.734Z</time>
      </trkpt>
      <trkpt lat="64.89638" lon="11.68599">
        <ele>62.250211</ele>
        <time>2020-08-12T08:19:52.743Z</time>
      </trkpt>
      <trkpt lat="64.8964" lon="11.68622">
        <ele>62.424741</ele>
        <time>2020-08-12T08:19:55.754Z</time>
      </trkpt>
      <trkpt lat="64.89643" lon="11.68648">
        <ele>62.617024</ele>
        <time>2020-08-12T08:19:58.751Z</time>
      </trkpt>
      <trkpt lat="64.89644" lon="11.68676">
        <ele>62.824756</ele>
        <time>2020-08-12T08:20:01.753Z</time>
      </trkpt>
      <trkpt lat="64.89646" lon="11.68703">
        <ele>63.031069</ele>
        <time>2020-08-12T08:20:04.740Z</time>
      </trkpt>
      <trkpt lat="64.89649" lon="11.68732">
        <ele>63.246919</ele>
        <time>2020-08-12T08:20:07.749Z</time>
      </trkpt>
      <trkpt lat="64.89652" lon="11.68761">
        <ele>63.472545</ele>
        <time>2020-08-12T08:20:10.735Z</time>
      </trkpt>
      <trkpt lat="64.89654" lon="11.68791">
        <ele>63.521577</ele>
        <time>2020-08-12T08:20:13.735Z</time>
      </trkpt>
      <trkpt lat="64.89656" lon="11.68821">
        <ele>63.565995</ele>
        <time>2020-08-12T08:20:16.738Z</time>
      </trkpt>
      <trkpt lat="64.89657" lon="11.68852">
        <ele>63.611579</ele>
        <time>2020-08-12T08:20:19.736Z</time>
      </trkpt>
      <trkpt lat="64.89659" lon="11.68879">
        <ele>63.652449</ele>
        <time>2020-08-12T08:20:22.735Z</time>
      </trkpt>
      <trkpt lat="64.89661" lon="11.68906">
        <ele>63.692634</ele>
        <time>2020-08-12T08:20:25.726Z</time>
      </trkpt>
      <trkpt lat="64.89662" lon="11.68934">
        <ele>63.734028</ele>
        <time>2020-08-12T08:20:29.743Z</time>
      </trkpt>
      <trkpt lat="64.89665" lon="11.68959">
        <ele>63.77187</ele>
        <time>2020-08-12T08:20:33.739Z</time>
      </trkpt>
      <trkpt lat="64.89668" lon="11.68982">
        <ele>63.806875</ele>
        <time>2020-08-12T08:20:37.730Z</time>
      </trkpt>
      <trkpt lat="64.89671" lon="11.69004">
        <ele>63.840551</ele>
        <time>2020-08-12T08:20:41.766Z</time>
      </trkpt>
      <trkpt lat="64.89674" lon="11.69025">
        <ele>63.872614</ele>
        <time>2020-08-12T08:20:45.741Z</time>
      </trkpt>
      <trkpt lat="64.89677" lon="11.69048">
        <ele>63.907812</ele>
        <time>2020-08-12T08:20:49.727Z</time>
      </trkpt>
      <trkpt lat="64.89678" lon="11.69069">
        <ele>63.939238</ele>
        <time>2020-08-12T08:20:53.730Z</time>
      </trkpt>
      <trkpt lat="64.8968" lon="11.6909">
        <ele>63.970744</ele>
        <time>2020-08-12T08:20:57.715Z</time>
      </trkpt>
      <trkpt lat="64.89682" lon="11.69112">
        <ele>64.003546</ele>
        <time>2020-08-12T08:21:02.730Z</time>
      </trkpt>
      <trkpt lat="64.89685" lon="11.69136">
        <ele>64.040818</ele>
        <time>2020-08-12T08:21:08.718Z</time>
      </trkpt>
      <trkpt lat="64.89688" lon="11.69157">
        <ele>64.072934</ele>
        <time>2020-08-12T08:21:13.717Z</time>
      </trkpt>
      <trkpt lat="64.89691" lon="11.6918">
        <ele>64.266353</ele>
        <time>2020-08-12T08:21:19.716Z</time>
      </trkpt>
      <trkpt lat="64.89695" lon="11.69199">
        <ele>64.90619</ele>
        <time>2020-08-12T08:21:24.731Z</time>
      </trkpt>
      <trkpt lat="64.89699" lon="11.69221">
        <ele>65.589548</ele>
        <time>2020-08-12T08:21:29.743Z</time>
      </trkpt>
      <trkpt lat="64.89704" lon="11.69243">
        <ele>66.341299</ele>
        <time>2020-08-12T08:21:35.734Z</time>
      </trkpt>
      <trkpt lat="64.89709" lon="11.69263">
        <ele>67.043481</ele>
        <time>2020-08-12T08:21:41.740Z</time>
      </trkpt>
      <trkpt lat="64.89715" lon="11.69284">
        <ele>67.790676</ele>
        <time>2020-08-12T08:21:47.749Z</time>
      </trkpt>
      <trkpt lat="64.89719" lon="11.69303">
        <ele>68.435125</ele>
        <time>2020-08-12T08:21:52.726Z</time>
      </trkpt>
      <trkpt lat="64.89723" lon="11.69325">
        <ele>69.140683</ele>
        <time>2020-08-12T08:21:58.729Z</time>
      </trkpt>
      <trkpt lat="64.89727" lon="11.69346">
        <ele>69.826644</ele>
        <time>2020-08-12T08:22:04.711Z</time>
      </trkpt>
      <trkpt lat="64.8973" lon="11.6937">
        <ele>70.565073</ele>
        <time>2020-08-12T08:22:10.725Z</time>
      </trkpt>
      <trkpt lat="64.89733" lon="11.69393">
        <ele>71.284561</ele>
        <time>2020-08-12T08:22:15.713Z</time>
      </trkpt>
      <trkpt lat="64.89738" lon="11.69416">
        <ele>72.028109</ele>
        <time>2020-08-12T08:22:20.732Z</time>
      </trkpt>
      <trkpt lat="64.89741" lon="11.69437">
        <ele>72.73599</ele>
        <time>2020-08-12T08:22:25.762Z</time>
      </trkpt>
      <trkpt lat="64.89745" lon="11.69462">
        <ele>73.524664</ele>
        <time>2020-08-12T08:22:30.732Z</time>
      </trkpt>
      <trkpt lat="64.89748" lon="11.69486">
        <ele>74.272376</ele>
        <time>2020-08-12T08:22:34.733Z</time>
      </trkpt>
      <trkpt lat="64.89752" lon="11.69512">
        <ele>75.094791</ele>
        <time>2020-08-12T08:22:38.755Z</time>
      </trkpt>
      <trkpt lat="64.89754" lon="11.69534">
        <ele>75.743494</ele>
        <time>2020-08-12T08:22:41.726Z</time>
      </trkpt>
      <trkpt lat="64.89757" lon="11.69555">
        <ele>76.398344</ele>
        <time>2020-08-12T08:22:44.720Z</time>
      </trkpt>
      <trkpt lat="64.89759" lon="11.69576">
        <ele>76.916223</ele>
        <time>2020-08-12T08:22:47.737Z</time>
      </trkpt>
      <trkpt lat="64.89762" lon="11.69597">
        <ele>77.325594</ele>
        <time>2020-08-12T08:22:50.734Z</time>
      </trkpt>
      <trkpt lat="64.89766" lon="11.69618">
        <ele>77.71773</ele>
        <time>2020-08-12T08:22:53.716Z</time>
      </trkpt>
      <trkpt lat="64.89768" lon="11.6964">
        <ele>78.105039</ele>
        <time>2020-08-12T08:22:56.718Z</time>
      </trkpt>
      <trkpt lat="64.89771" lon="11.69662">
        <ele>78.51711</ele>
        <time>2020-08-12T08:22:59.730Z</time>
      </trkpt>
      <trkpt lat="64.89774" lon="11.69683">
        <ele>78.904857</ele>
        <time>2020-08-12T08:23:02.745Z</time>
      </trkpt>
      <trkpt lat="64.89778" lon="11.69703">
        <ele>79.280194</ele>
        <time>2020-08-12T08:23:05.743Z</time>
      </trkpt>
      <trkpt lat="64.89781" lon="11.69724">
        <ele>79.674268</ele>
        <time>2020-08-12T08:23:08.748Z</time>
      </trkpt>
      <trkpt lat="64.89784" lon="11.69745">
        <ele>80.065721</ele>
        <time>2020-08-12T08:23:11.752Z</time>
      </trkpt>
      <trkpt lat="64.89788" lon="11.6977">
        <ele>80.539749</ele>
        <time>2020-08-12T08:23:15.730Z</time>
      </trkpt>
      <trkpt lat="64.89792" lon="11.69794">
        <ele>80.993042</ele>
        <time>2020-08-12T08:23:19.728Z</time>
      </trkpt>
      <trkpt lat="64.89796" lon="11.69817">
        <ele>81.425518</ele>
        <time>2020-08-12T08:23:23.725Z</time>
      </trkpt>
      <trkpt lat="64.89798" lon="11.69839">
        <ele>81.832051</ele>
        <time>2020-08-12T08:23:27.730Z</time>
      </trkpt>
      <trkpt lat="64.89801" lon="11.69862">
        <ele>82.248047</ele>
        <time>2020-08-12T08:23:31.726Z</time>
      </trkpt>
      <trkpt lat="64.89804" lon="11.69885">
        <ele>82.677177</ele>
        <time>2020-08-12T08:23:35.743Z</time>
      </trkpt>
      <trkpt lat="64.89807" lon="11.69908">
        <ele>83.102551</ele>
        <time>2020-08-12T08:23:39.742Z</time>
      </trkpt>
      <trkpt lat="64.8981" lon="11.69932">
        <ele>83.536587</ele>
        <time>2020-08-12T08:23:43.724Z</time>
      </trkpt>
      <trkpt lat="64.89814" lon="11.69957">
        <ele>83.999743</ele>
        <time>2020-08-12T08:23:47.754Z</time>
      </trkpt>
      <trkpt lat="64.89817" lon="11.69981">
        <ele>84.304971</ele>
        <time>2020-08-12T08:23:51.729Z</time>
      </trkpt>
      <trkpt lat="64.8982" lon="11.70001">
        <ele>84.48269</ele>
        <time>2020-08-12T08:23:54.744Z</time>
      </trkpt>
      <trkpt lat="64.89823" lon="11.70022">
        <ele>84.668835</ele>
        <time>2020-08-12T08:23:57.730Z</time>
      </trkpt>
      <trkpt lat="64.89826" lon="11.70043">
        <ele>84.857238</ele>
        <time>2020-08-12T08:24:00.748Z</time>
      </trkpt>
      <trkpt lat="64.89829" lon="11.70067">
        <ele>85.061952</ele>
        <time>2020-08-12T08:24:03.751Z</time>
      </trkpt>
      <trkpt lat="64.89831" lon="11.70089">
        <ele>85.251515</ele>
        <time>2020-08-12T08:24:06.744Z</time>
      </trkpt>
      <trkpt lat="64.89833" lon="11.70113">
        <ele>85.460708</ele>
        <time>2020-08-12T08:24:09.720Z</time>
      </trkpt>
      <trkpt lat="64.89837" lon="11.70135">
        <ele>85.655087</ele>
        <time>2020-08-12T08:24:12.733Z</time>
      </trkpt>
      <trkpt lat="64.89841" lon="11.70158">
        <ele>85.860364</ele>
        <time>2020-08-12T08:24:15.732Z</time>
      </trkpt>
      <trkpt lat="64.89845" lon="11.70182">
        <ele>86.078833</ele>
        <time>2020-08-12T08:24:18.755Z</time>
      </trkpt>
      <trkpt lat="64.8985" lon="11.70205">
        <ele>86.291019</ele>
        <time>2020-08-12T08:24:21.765Z</time>
      </trkpt>
      <trkpt lat="64.89855" lon="11.70228">
        <ele>86.512737</ele>
        <time>2020-08-12T08:24:24.739Z</time>
      </trkpt>
      <trkpt lat="64.89862" lon="11.7025">
        <ele>86.739367</ele>
        <time>2020-08-12T08:24:27.734Z</time>
      </trkpt>
      <trkpt lat="64.89869" lon="11.70271">
        <ele>86.96184</ele>
        <time>2020-08-12T08:24:30.733Z</time>
      </trkpt>
      <trkpt lat="64.89877" lon="11.70292">
        <ele>87.194976</ele>
        <time>2020-08-12T08:24:33.715Z</time>
      </trkpt>
      <trkpt lat="64.89885" lon="11.70312">
        <ele>87.434187</ele>
        <time>2020-08-12T08:24:36.720Z</time>
      </trkpt>
      <trkpt lat="64.89892" lon="11.70332">
        <ele>87.644578</ele>
        <time>2020-08-12T08:24:39.748Z</time>
      </trkpt>
      <trkpt lat="64.89898" lon="11.70355">
        <ele>87.485587</ele>
        <time>2020-08-12T08:24:42.734Z</time>
      </trkpt>
      <trkpt lat="64.89904" lon="11.70374">
        <ele>87.13632</ele>
        <time>2020-08-12T08:24:45.721Z</time>
      </trkpt>
      <trkpt lat="64.89911" lon="11.70395">
        <ele>86.762943</ele>
        <time>2020-08-12T08:24:48.722Z</time>
      </trkpt>
      <trkpt lat="64.89918" lon="11.70416">
        <ele>86.364793</ele>
        <time>2020-08-12T08:24:51.725Z</time>
      </trkpt>
      <trkpt lat="64.89926" lon="11.70436">
        <ele>85.974278</ele>
        <time>2020-08-12T08:24:54.746Z</time>
      </trkpt>
      <trkpt lat="64.89932" lon="11.70456">
        <ele>85.605817</ele>
        <time>2020-08-12T08:24:57.754Z</time>
      </trkpt>
      <trkpt lat="64.8994" lon="11.70475">
        <ele>85.235172</ele>
        <time>2020-08-12T08:25:00.742Z</time>
      </trkpt>
      <trkpt lat="64.89947" lon="11.70493">
        <ele>84.878123</ele>
        <time>2020-08-12T08:25:03.777Z</time>
      </trkpt>
      <trkpt lat="64.89954" lon="11.70511">
        <ele>84.522803</ele>
        <time>2020-08-12T08:25:06.739Z</time>
      </trkpt>
      <trkpt lat="64.89961" lon="11.70532">
        <ele>84.136524</ele>
        <time>2020-08-12T08:25:09.727Z</time>
      </trkpt>
      <trkpt lat="64.89969" lon="11.70551">
        <ele>83.752405</ele>
        <time>2020-08-12T08:25:12.737Z</time>
      </trkpt>
      <trkpt lat="64.89977" lon="11.7057">
        <ele>83.358353</ele>
        <time>2020-08-12T08:25:15.758Z</time>
      </trkpt>
      <trkpt lat="64.89985" lon="11.7059">
        <ele>82.965571</ele>
        <time>2020-08-12T08:25:18.729Z</time>
      </trkpt>
      <trkpt lat="64.89993" lon="11.70609">
        <ele>82.584476</ele>
        <time>2020-08-12T08:25:21.744Z</time>
      </trkpt>
      <trkpt lat="64.9" lon="11.70627">
        <ele>82.232917</ele>
        <time>2020-08-12T08:25:24.728Z</time>
      </trkpt>
      <trkpt lat="64.90007" lon="11.70644">
        <ele>81.892865</ele>
        <time>2020-08-12T08:25:27.757Z</time>
      </trkpt>
      <trkpt lat="64.90013" lon="11.70662">
        <ele>81.551849</ele>
        <time>2020-08-12T08:25:30.735Z</time>
      </trkpt>
      <trkpt lat="64.90022" lon="11.70682">
        <ele>81.198659</ele>
        <time>2020-08-12T08:25:33.730Z</time>
      </trkpt>
      <trkpt lat="64.90031" lon="11.70705">
        <ele>80.802376</ele>
        <time>2020-08-12T08:25:36.793Z</time>
      </trkpt>
      <trkpt lat="64.90038" lon="11.70723">
        <ele>80.503444</ele>
        <time>2020-08-12T08:25:38.746Z</time>
      </trkpt>
      <trkpt lat="64.90045" lon="11.70741">
        <ele>80.192421</ele>
        <time>2020-08-12T08:25:40.750Z</time>
      </trkpt>
      <trkpt lat="64.90052" lon="11.70761">
        <ele>79.860573</ele>
        <time>2020-08-12T08:25:42.736Z</time>
      </trkpt>
      <trkpt lat="64.9006" lon="11.70784">
        <ele>79.487555</ele>
        <time>2020-08-12T08:25:44.754Z</time>
      </trkpt>
      <trkpt lat="64.90068" lon="11.70811">
        <ele>79.074864</ele>
        <time>2020-08-12T08:25:46.764Z</time>
      </trkpt>
      <trkpt lat="64.90076" lon="11.7084">
        <ele>78.63576</ele>
        <time>2020-08-12T08:25:48.715Z</time>
      </trkpt>
      <trkpt lat="64.90083" lon="11.70872">
        <ele>78.190623</ele>
        <time>2020-08-12T08:25:50.710Z</time>
      </trkpt>
      <trkpt lat="64.9009" lon="11.70904">
        <ele>77.731047</ele>
        <time>2020-08-12T08:25:52.754Z</time>
      </trkpt>
      <trkpt lat="64.90098" lon="11.70936">
        <ele>77.278692</ele>
        <time>2020-08-12T08:25:54.764Z</time>
      </trkpt>
      <trkpt lat="64.90105" lon="11.70966">
        <ele>76.847867</ele>
        <time>2020-08-12T08:25:56.739Z</time>
      </trkpt>
      <trkpt lat="64.90111" lon="11.70995">
        <ele>76.43679</ele>
        <time>2020-08-12T08:25:58.745Z</time>
      </trkpt>
      <trkpt lat="64.90117" lon="11.71023">
        <ele>76.405676</ele>
        <time>2020-08-12T08:26:00.727Z</time>
      </trkpt>
      <trkpt lat="64.90123" lon="11.71052">
        <ele>76.62108</ele>
        <time>2020-08-12T08:26:02.719Z</time>
      </trkpt>
      <trkpt lat="64.90128" lon="11.7108">
        <ele>76.828864</ele>
        <time>2020-08-12T08:26:04.787Z</time>
      </trkpt>
      <trkpt lat="64.90133" lon="11.71105">
        <ele>77.022775</ele>
        <time>2020-08-12T08:26:06.731Z</time>
      </trkpt>
      <trkpt lat="64.90137" lon="11.7113">
        <ele>77.209061</ele>
        <time>2020-08-12T08:26:08.744Z</time>
      </trkpt>
      <trkpt lat="64.90142" lon="11.71155">
        <ele>77.394792</ele>
        <time>2020-08-12T08:26:10.725Z</time>
      </trkpt>
      <trkpt lat="64.90147" lon="11.71178">
        <ele>77.574032</ele>
        <time>2020-08-12T08:26:12.726Z</time>
      </trkpt>
      <trkpt lat="64.90152" lon="11.71201">
        <ele>77.747865</ele>
        <time>2020-08-12T08:26:14.763Z</time>
      </trkpt>
      <trkpt lat="64.90156" lon="11.71224">
        <ele>77.912128</ele>
        <time>2020-08-12T08:26:16.731Z</time>
      </trkpt>
      <trkpt lat="64.9016" lon="11.71244">
        <ele>78.063287</ele>
        <time>2020-08-12T08:26:18.753Z</time>
      </trkpt>
      <trkpt lat="64.90165" lon="11.7127">
        <ele>78.265582</ele>
        <time>2020-08-12T08:26:21.732Z</time>
      </trkpt>
      <trkpt lat="64.9017" lon="11.71294">
        <ele>78.44505</ele>
        <time>2020-08-12T08:26:24.733Z</time>
      </trkpt>
      <trkpt lat="64.90174" lon="11.71316">
        <ele>78.606197</ele>
        <time>2020-08-12T08:26:27.723Z</time>
      </trkpt>
      <trkpt lat="64.90178" lon="11.71335">
        <ele>78.754271</ele>
        <time>2020-08-12T08:26:30.716Z</time>
      </trkpt>
      <trkpt lat="64.90184" lon="11.7136">
        <ele>78.94558</ele>
        <time>2020-08-12T08:26:34.730Z</time>
      </trkpt>
      <trkpt lat="64.90188" lon="11.71379">
        <ele>79.092194</ele>
        <time>2020-08-12T08:26:37.723Z</time>
      </trkpt>
      <trkpt lat="64.90192" lon="11.71404">
        <ele>79.453136</ele>
        <time>2020-08-12T08:26:41.755Z</time>
      </trkpt>
      <trkpt lat="64.90196" lon="11.71424">
        <ele>79.888604</ele>
        <time>2020-08-12T08:26:44.743Z</time>
      </trkpt>
      <trkpt lat="64.90199" lon="11.71446">
        <ele>80.336637</ele>
        <time>2020-08-12T08:26:47.729Z</time>
      </trkpt>
      <trkpt lat="64.90203" lon="11.71467">
        <ele>80.758248</ele>
        <time>2020-08-12T08:26:50.731Z</time>
      </trkpt>
      <trkpt lat="64.90207" lon="11.71489">
        <ele>81.236396</ele>
        <time>2020-08-12T08:26:53.737Z</time>
      </trkpt>
      <trkpt lat="64.90212" lon="11.71511">
        <ele>81.705822</ele>
        <time>2020-08-12T08:26:56.745Z</time>
      </trkpt>
      <trkpt lat="64.90215" lon="11.71532">
        <ele>82.124041</ele>
        <time>2020-08-12T08:26:59.758Z</time>
      </trkpt>
      <trkpt lat="64.90217" lon="11.71552">
        <ele>82.531774</ele>
        <time>2020-08-12T08:27:02.734Z</time>
      </trkpt>
      <trkpt lat="64.9022" lon="11.71573">
        <ele>82.949316</ele>
        <time>2020-08-12T08:27:05.727Z</time>
      </trkpt>
      <trkpt lat="64.90223" lon="11.71594">
        <ele>83.372949</ele>
        <time>2020-08-12T08:27:08.761Z</time>
      </trkpt>
      <trkpt lat="64.90226" lon="11.71617">
        <ele>83.835153</ele>
        <time>2020-08-12T08:27:11.752Z</time>
      </trkpt>
      <trkpt lat="64.90228" lon="11.7164">
        <ele>84.302874</ele>
        <time>2020-08-12T08:27:14.756Z</time>
      </trkpt>
      <trkpt lat="64.90232" lon="11.71665">
        <ele>84.80989</ele>
        <time>2020-08-12T08:27:17.748Z</time>
      </trkpt>
      <trkpt lat="64.90235" lon="11.71685">
        <ele>85.224314</ele>
        <time>2020-08-12T08:27:19.728Z</time>
      </trkpt>
      <trkpt lat="64.9024" lon="11.71708">
        <ele>85.702457</ele>
        <time>2020-08-12T08:27:21.744Z</time>
      </trkpt>
      <trkpt lat="64.90244" lon="11.71733">
        <ele>86.210826</ele>
        <time>2020-08-12T08:27:23.722Z</time>
      </trkpt>
      <trkpt lat="64.90249" lon="11.71759">
        <ele>86.775621</ele>
        <time>2020-08-12T08:27:25.750Z</time>
      </trkpt>
      <trkpt lat="64.90254" lon="11.71789">
        <ele>87.23996</ele>
        <time>2020-08-12T08:27:27.737Z</time>
      </trkpt>
      <trkpt lat="64.9026" lon="11.71822">
        <ele>86.430853</ele>
        <time>2020-08-12T08:27:29.762Z</time>
      </trkpt>
      <trkpt lat="64.90265" lon="11.71857">
        <ele>85.570759</ele>
        <time>2020-08-12T08:27:31.733Z</time>
      </trkpt>
      <trkpt lat="64.90269" lon="11.71891">
        <ele>84.726789</ele>
        <time>2020-08-12T08:27:33.758Z</time>
      </trkpt>
      <trkpt lat="64.90273" lon="11.71929">
        <ele>83.821316</ele>
        <time>2020-08-12T08:27:35.727Z</time>
      </trkpt>
      <trkpt lat="64.90278" lon="11.71967">
        <ele>82.882911</ele>
        <time>2020-08-12T08:27:37.748Z</time>
      </trkpt>
      <trkpt lat="64.90282" lon="11.72005">
        <ele>81.964719</ele>
        <time>2020-08-12T08:27:39.746Z</time>
      </trkpt>
      <trkpt lat="64.90288" lon="11.72045">
        <ele>80.992388</ele>
        <time>2020-08-12T08:27:41.747Z</time>
      </trkpt>
      <trkpt lat="64.90294" lon="11.72084">
        <ele>80.006871</ele>
        <time>2020-08-12T08:27:43.751Z</time>
      </trkpt>
      <trkpt lat="64.90298" lon="11.72103">
        <ele>79.509942</ele>
        <time>2020-08-12T08:27:44.733Z</time>
      </trkpt>
      <trkpt lat="64.90301" lon="11.72123">
        <ele>79.008704</ele>
        <time>2020-08-12T08:27:45.724Z</time>
      </trkpt>
      <trkpt lat="64.90305" lon="11.72143">
        <ele>78.496617</ele>
        <time>2020-08-12T08:27:46.737Z</time>
      </trkpt>
      <trkpt lat="64.90309" lon="11.72164">
        <ele>77.97146</ele>
        <time>2020-08-12T08:27:47.710Z</time>
      </trkpt>
      <trkpt lat="64.90314" lon="11.72183">
        <ele>77.453753</ele>
        <time>2020-08-12T08:27:48.732Z</time>
      </trkpt>
      <trkpt lat="64.90318" lon="11.72203">
        <ele>77.019241</ele>
        <time>2020-08-12T08:27:49.746Z</time>
      </trkpt>
      <trkpt lat="64.90323" lon="11.72221">
        <ele>76.600264</ele>
        <time>2020-08-12T08:27:50.738Z</time>
      </trkpt>
      <trkpt lat="64.90333" lon="11.72255">
        <ele>75.780704</ele>
        <time>2020-08-12T08:27:52.719Z</time>
      </trkpt>
      <trkpt lat="64.90344" lon="11.72287">
        <ele>74.981425</ele>
        <time>2020-08-12T08:27:54.758Z</time>
      </trkpt>
      <trkpt lat="64.90356" lon="11.72315">
        <ele>74.214708</ele>
        <time>2020-08-12T08:27:56.724Z</time>
      </trkpt>
      <trkpt lat="64.90367" lon="11.72341">
        <ele>73.472579</ele>
        <time>2020-08-12T08:27:58.740Z</time>
      </trkpt>
      <trkpt lat="64.90378" lon="11.72367">
        <ele>72.748563</ele>
        <time>2020-08-12T08:28:00.735Z</time>
      </trkpt>
      <trkpt lat="64.90389" lon="11.72392">
        <ele>72.052292</ele>
        <time>2020-08-12T08:28:02.755Z</time>
      </trkpt>
      <trkpt lat="64.904" lon="11.72414">
        <ele>71.394686</ele>
        <time>2020-08-12T08:28:04.735Z</time>
      </trkpt>
      <trkpt lat="64.9041" lon="11.72434">
        <ele>70.793502</ele>
        <time>2020-08-12T08:28:06.740Z</time>
      </trkpt>
      <trkpt lat="64.90419" lon="11.72453">
        <ele>70.229513</ele>
        <time>2020-08-12T08:28:08.751Z</time>
      </trkpt>
      <trkpt lat="64.90427" lon="11.7247">
        <ele>69.736033</ele>
        <time>2020-08-12T08:28:10.775Z</time>
      </trkpt>
      <trkpt lat="64.90435" lon="11.72486">
        <ele>69.250509</ele>
        <time>2020-08-12T08:28:12.739Z</time>
      </trkpt>
      <trkpt lat="64.90442" lon="11.72501">
        <ele>69.596603</ele>
        <time>2020-08-12T08:28:14.731Z</time>
      </trkpt>
      <trkpt lat="64.90449" lon="11.72516">
        <ele>70.217797</ele>
        <time>2020-08-12T08:28:16.738Z</time>
      </trkpt>
      <trkpt lat="64.90459" lon="11.72534">
        <ele>71.039343</ele>
        <time>2020-08-12T08:28:19.741Z</time>
      </trkpt>
      <trkpt lat="64.90466" lon="11.7255">
        <ele>71.743328</ele>
        <time>2020-08-12T08:28:22.773Z</time>
      </trkpt>
      <trkpt lat="64.90473" lon="11.72566">
        <ele>72.405832</ele>
        <time>2020-08-12T08:28:25.737Z</time>
      </trkpt>
      <trkpt lat="64.9048" lon="11.72581">
        <ele>73.025097</ele>
        <time>2020-08-12T08:28:28.740Z</time>
      </trkpt>
      <trkpt lat="64.90488" lon="11.72598">
        <ele>73.763288</ele>
        <time>2020-08-12T08:28:32.735Z</time>
      </trkpt>
      <trkpt lat="64.90495" lon="11.72614">
        <ele>74.394503</ele>
        <time>2020-08-12T08:28:36.748Z</time>
      </trkpt>
      <trkpt lat="64.90502" lon="11.72629">
        <ele>75.017657</ele>
        <time>2020-08-12T08:28:40.747Z</time>
      </trkpt>
      <trkpt lat="64.90508" lon="11.72644">
        <ele>75.647697</ele>
        <time>2020-08-12T08:28:44.757Z</time>
      </trkpt>
      <trkpt lat="64.90516" lon="11.72658">
        <ele>76.330995</ele>
        <time>2020-08-12T08:28:48.725Z</time>
      </trkpt>
      <trkpt lat="64.90523" lon="11.72674">
        <ele>76.937182</ele>
        <time>2020-08-12T08:28:52.731Z</time>
      </trkpt>
      <trkpt lat="64.9053" lon="11.72687">
        <ele>77.540961</ele>
        <time>2020-08-12T08:28:56.727Z</time>
      </trkpt>
      <trkpt lat="64.90537" lon="11.72703">
        <ele>78.236817</ele>
        <time>2020-08-12T08:29:01.722Z</time>
      </trkpt>
      <trkpt lat="64.90543" lon="11.7272">
        <ele>78.864026</ele>
        <time>2020-08-12T08:29:05.736Z</time>
      </trkpt>
      <trkpt lat="64.90551" lon="11.72731">
        <ele>79.479382</ele>
        <time>2020-08-12T08:29:09.752Z</time>
      </trkpt>
      <trkpt lat="64.90558" lon="11.72745">
        <ele>80.087868</ele>
        <time>2020-08-12T08:29:13.724Z</time>
      </trkpt>
      <trkpt lat="64.90564" lon="11.72763">
        <ele>80.776004</ele>
        <time>2020-08-12T08:29:18.746Z</time>
      </trkpt>
      <trkpt lat="64.9057" lon="11.72783">
        <ele>81.346077</ele>
        <time>2020-08-12T08:29:23.731Z</time>
      </trkpt>
      <trkpt lat="64.90576" lon="11.72802">
        <ele>81.625314</ele>
        <time>2020-08-12T08:29:28.755Z</time>
      </trkpt>
      <trkpt lat="64.90582" lon="11.7282">
        <ele>81.895908</ele>
        <time>2020-08-12T08:29:33.727Z</time>
      </trkpt>
      <trkpt lat="64.90587" lon="11.72841">
        <ele>82.17472</ele>
        <time>2020-08-12T08:29:38.762Z</time>
      </trkpt>
      <trkpt lat="64.90592" lon="11.72864">
        <ele>82.48075</ele>
        <time>2020-08-12T08:29:43.778Z</time>
      </trkpt>
      <trkpt lat="64.90597" lon="11.72887">
        <ele>82.770199</ele>
        <time>2020-08-12T08:29:48.722Z</time>
      </trkpt>
      <trkpt lat="64.90601" lon="11.72905">
        <ele>83.019731</ele>
        <time>2020-08-12T08:29:52.724Z</time>
      </trkpt>
      <trkpt lat="64.90606" lon="11.72927">
        <ele>83.300607</ele>
        <time>2020-08-12T08:29:56.762Z</time>
      </trkpt>
      <trkpt lat="64.9061" lon="11.72948">
        <ele>83.577138</ele>
        <time>2020-08-12T08:30:00.756Z</time>
      </trkpt>
      <trkpt lat="64.90614" lon="11.72971">
        <ele>83.873121</ele>
        <time>2020-08-12T08:30:04.745Z</time>
      </trkpt>
      <trkpt lat="64.90618" lon="11.7299">
        <ele>84.121577</ele>
        <time>2020-08-12T08:30:07.743Z</time>
      </trkpt>
      <trkpt lat="64.90622" lon="11.73012">
        <ele>84.394902</ele>
        <time>2020-08-12T08:30:10.758Z</time>
      </trkpt>
      <trkpt lat="64.90626" lon="11.73035">
        <ele>84.690883</ele>
        <time>2020-08-12T08:30:13.762Z</time>
      </trkpt>
      <trkpt lat="64.90633" lon="11.7306">
        <ele>85.045711</ele>
        <time>2020-08-12T08:30:16.717Z</time>
      </trkpt>
      <trkpt lat="64.90639" lon="11.73079">
        <ele>85.321276</ele>
        <time>2020-08-12T08:30:18.745Z</time>
      </trkpt>
      <trkpt lat="64.90645" lon="11.731">
        <ele>85.615252</ele>
        <time>2020-08-12T08:30:20.735Z</time>
      </trkpt>
      <trkpt lat="64.90651" lon="11.73124">
        <ele>85.937916</ele>
        <time>2020-08-12T08:30:22.730Z</time>
      </trkpt>
      <trkpt lat="64.90658" lon="11.73149">
        <ele>86.162743</ele>
        <time>2020-08-12T08:30:24.732Z</time>
      </trkpt>
      <trkpt lat="64.90664" lon="11.73175">
        <ele>85.543718</ele>
        <time>2020-08-12T08:30:26.736Z</time>
      </trkpt>
      <trkpt lat="64.9067" lon="11.73202">
        <ele>84.91474</ele>
        <time>2020-08-12T08:30:28.755Z</time>
      </trkpt>
      <trkpt lat="64.90677" lon="11.7323">
        <ele>84.271121</ele>
        <time>2020-08-12T08:30:30.733Z</time>
      </trkpt>
      <trkpt lat="64.90684" lon="11.73258">
        <ele>83.619884</ele>
        <time>2020-08-12T08:30:32.722Z</time>
      </trkpt>
      <trkpt lat="64.90691" lon="11.73286">
        <ele>82.958612</ele>
        <time>2020-08-12T08:30:34.726Z</time>
      </trkpt>
      <trkpt lat="64.90698" lon="11.73316">
        <ele>82.270563</ele>
        <time>2020-08-12T08:30:36.738Z</time>
      </trkpt>
      <trkpt lat="64.90707" lon="11.73345">
        <ele>81.562723</ele>
        <time>2020-08-12T08:30:38.760Z</time>
      </trkpt>
      <trkpt lat="64.90715" lon="11.73375">
        <ele>80.832183</ele>
        <time>2020-08-12T08:30:40.727Z</time>
      </trkpt>
      <trkpt lat="64.90725" lon="11.73405">
        <ele>80.088471</ele>
        <time>2020-08-12T08:30:42.727Z</time>
      </trkpt>
      <trkpt lat="64.90734" lon="11.73436">
        <ele>79.322626</ele>
        <time>2020-08-12T08:30:44.738Z</time>
      </trkpt>
      <trkpt lat="64.90743" lon="11.7347">
        <ele>78.515297</ele>
        <time>2020-08-12T08:30:46.759Z</time>
      </trkpt>
      <trkpt lat="64.90753" lon="11.73503">
        <ele>77.681934</ele>
        <time>2020-08-12T08:30:48.728Z</time>
      </trkpt>
      <trkpt lat="64.90765" lon="11.73533">
        <ele>76.351505</ele>
        <time>2020-08-12T08:30:50.748Z</time>
      </trkpt>
      <trkpt lat="64.90781" lon="11.73545">
        <ele>75.08552</ele>
        <time>2020-08-12T08:30:52.746Z</time>
      </trkpt>
      <trkpt lat="64.90795" lon="11.73537">
        <ele>73.967704</ele>
        <time>2020-08-12T08:30:54.747Z</time>
      </trkpt>
      <trkpt lat="64.90804" lon="11.73518">
        <ele>73.08291</ele>
        <time>2020-08-12T08:30:56.723Z</time>
      </trkpt>
      <trkpt lat="64.9081" lon="11.73497">
        <ele>72.251133</ele>
        <time>2020-08-12T08:30:58.765Z</time>
      </trkpt>
      <trkpt lat="64.90813" lon="11.73474">
        <ele>71.464467</ele>
        <time>2020-08-12T08:31:00.765Z</time>
      </trkpt>
      <trkpt lat="64.90816" lon="11.73451">
        <ele>70.69401</ele>
        <time>2020-08-12T08:31:02.751Z</time>
      </trkpt>
      <trkpt lat="64.90817" lon="11.73428">
        <ele>69.9419</ele>
        <time>2020-08-12T08:31:04.746Z</time>
      </trkpt>
      <trkpt lat="64.90818" lon="11.73405">
        <ele>69.208316</ele>
        <time>2020-08-12T08:31:06.735Z</time>
      </trkpt>
      <trkpt lat="64.90818" lon="11.73384">
        <ele>68.519579</ele>
        <time>2020-08-12T08:31:08.744Z</time>
      </trkpt>
      <trkpt lat="64.90817" lon="11.73355">
        <ele>67.585726</ele>
        <time>2020-08-12T08:31:11.753Z</time>
      </trkpt>
      <trkpt lat="64.90815" lon="11.73329">
        <ele>66.722223</ele>
        <time>2020-08-12T08:31:14.763Z</time>
      </trkpt>
      <trkpt lat="64.90813" lon="11.73301">
        <ele>65.800541</ele>
        <time>2020-08-12T08:31:17.765Z</time>
      </trkpt>
      <trkpt lat="64.90811" lon="11.73277">
        <ele>65.02294</ele>
        <time>2020-08-12T08:31:19.775Z</time>
      </trkpt>
      <trkpt lat="64.9081" lon="11.7325">
        <ele>64.131039</ele>
        <time>2020-08-12T08:31:21.740Z</time>
      </trkpt>
      <trkpt lat="64.90808" lon="11.7322">
        <ele>63.573828</ele>
        <time>2020-08-12T08:31:23.737Z</time>
      </trkpt>
      <trkpt lat="64.90808" lon="11.73188">
        <ele>63.061765</ele>
        <time>2020-08-12T08:31:25.733Z</time>
      </trkpt>
      <trkpt lat="64.90811" lon="11.73155">
        <ele>62.512168</ele>
        <time>2020-08-12T08:31:27.742Z</time>
      </trkpt>
      <trkpt lat="64.90821" lon="11.73119">
        <ele>61.84007</ele>
        <time>2020-08-12T08:31:29.759Z</time>
      </trkpt>
      <trkpt lat="64.90827" lon="11.73104">
        <ele>61.484339</ele>
        <time>2020-08-12T08:31:30.792Z</time>
      </trkpt>
      <trkpt lat="64.90835" lon="11.7309">
        <ele>61.102073</ele>
        <time>2020-08-12T08:31:31.729Z</time>
      </trkpt>
      <trkpt lat="64.90844" lon="11.73079">
        <ele>60.724892</ele>
        <time>2020-08-12T08:31:32.742Z</time>
      </trkpt>
      <trkpt lat="64.90854" lon="11.73071">
        <ele>60.342653</ele>
        <time>2020-08-12T08:31:33.743Z</time>
      </trkpt>
      <trkpt lat="64.90863" lon="11.73064">
        <ele>59.98665</ele>
        <time>2020-08-12T08:31:34.754Z</time>
      </trkpt>
      <trkpt lat="64.90879" lon="11.73048">
        <ele>59.295621</ele>
        <time>2020-08-12T08:31:36.727Z</time>
      </trkpt>
      <trkpt lat="64.90888" lon="11.73035">
        <ele>58.908866</ele>
        <time>2020-08-12T08:31:37.744Z</time>
      </trkpt>
      <trkpt lat="64.90896" lon="11.73018">
        <ele>58.498477</ele>
        <time>2020-08-12T08:31:38.732Z</time>
      </trkpt>
      <trkpt lat="64.90902" lon="11.72999">
        <ele>58.108564</ele>
        <time>2020-08-12T08:31:39.731Z</time>
      </trkpt>
      <trkpt lat="64.90907" lon="11.72977">
        <ele>57.71877</ele>
        <time>2020-08-12T08:31:40.742Z</time>
      </trkpt>
      <trkpt lat="64.90909" lon="11.72951">
        <ele>57.299194</ele>
        <time>2020-08-12T08:31:41.763Z</time>
      </trkpt>
      <trkpt lat="64.9091" lon="11.72924">
        <ele>56.922186</ele>
        <time>2020-08-12T08:31:42.745Z</time>
      </trkpt>
      <trkpt lat="64.90908" lon="11.72899">
        <ele>56.589962</ele>
        <time>2020-08-12T08:31:43.730Z</time>
      </trkpt>
      <trkpt lat="64.90903" lon="11.72874">
        <ele>56.244675</ele>
        <time>2020-08-12T08:31:44.735Z</time>
      </trkpt>
      <trkpt lat="64.90896" lon="11.7285">
        <ele>55.871272</ele>
        <time>2020-08-12T08:31:45.738Z</time>
      </trkpt>
      <trkpt lat="64.90889" lon="11.72825">
        <ele>55.493366</ele>
        <time>2020-08-12T08:31:46.769Z</time>
      </trkpt>
      <trkpt lat="64.90882" lon="11.728">
        <ele>55.116196</ele>
        <time>2020-08-12T08:31:47.745Z</time>
      </trkpt>
      <trkpt lat="64.90876" lon="11.72776">
        <ele>54.755481</ele>
        <time>2020-08-12T08:31:48.731Z</time>
      </trkpt>
      <trkpt lat="64.9087" lon="11.72751">
        <ele>54.388541</ele>
        <time>2020-08-12T08:31:49.737Z</time>
      </trkpt>
      <trkpt lat="64.90865" lon="11.72725">
        <ele>54.024752</ele>
        <time>2020-08-12T08:31:50.728Z</time>
      </trkpt>
      <trkpt lat="64.9086" lon="11.72699">
        <ele>53.662464</ele>
        <time>2020-08-12T08:31:51.718Z</time>
      </trkpt>
      <trkpt lat="64.90855" lon="11.72674">
        <ele>53.321238</ele>
        <time>2020-08-12T08:31:52.744Z</time>
      </trkpt>
      <trkpt lat="64.90851" lon="11.72649">
        <ele>52.979607</ele>
        <time>2020-08-12T08:31:53.741Z</time>
      </trkpt>
      <trkpt lat="64.90848" lon="11.72625">
        <ele>52.655872</ele>
        <time>2020-08-12T08:31:54.750Z</time>
      </trkpt>
      <trkpt lat="64.90845" lon="11.72602">
        <ele>52.351509</ele>
        <time>2020-08-12T08:31:55.742Z</time>
      </trkpt>
      <trkpt lat="64.90843" lon="11.72579">
        <ele>52.057275</ele>
        <time>2020-08-12T08:31:56.735Z</time>
      </trkpt>
      <trkpt lat="64.9084" lon="11.72559">
        <ele>51.7801</ele>
        <time>2020-08-12T08:31:57.751Z</time>
      </trkpt>
      <trkpt lat="64.90834" lon="11.72521">
        <ele>52.158843</ele>
        <time>2020-08-12T08:31:59.742Z</time>
      </trkpt>
      <trkpt lat="64.9083" lon="11.72486">
        <ele>52.539455</ele>
        <time>2020-08-12T08:32:01.731Z</time>
      </trkpt>
      <trkpt lat="64.90826" lon="11.72458">
        <ele>52.863618</ele>
        <time>2020-08-12T08:32:03.727Z</time>
      </trkpt>
      <trkpt lat="64.90822" lon="11.72431">
        <ele>53.166489</ele>
        <time>2020-08-12T08:32:05.737Z</time>
      </trkpt>
      <trkpt lat="64.90818" lon="11.72409">
        <ele>53.423</ele>
        <time>2020-08-12T08:32:07.731Z</time>
      </trkpt>
      <trkpt lat="64.90813" lon="11.72381">
        <ele>53.745216</ele>
        <time>2020-08-12T08:32:10.726Z</time>
      </trkpt>
      <trkpt lat="64.9081" lon="11.72354">
        <ele>54.042418</ele>
        <time>2020-08-12T08:32:13.729Z</time>
      </trkpt>
      <trkpt lat="64.90808" lon="11.72329">
        <ele>54.308646</ele>
        <time>2020-08-12T08:32:16.734Z</time>
      </trkpt>
      <trkpt lat="64.90807" lon="11.72303">
        <ele>54.592912</ele>
        <time>2020-08-12T08:32:20.735Z</time>
      </trkpt>
      <trkpt lat="64.90802" lon="11.72281">
        <ele>54.847647</ele>
        <time>2020-08-12T08:32:24.747Z</time>
      </trkpt>
      <trkpt lat="64.90798" lon="11.72262">
        <ele>55.076867</ele>
        <time>2020-08-12T08:32:28.743Z</time>
      </trkpt>
      <trkpt lat="64.90795" lon="11.72238">
        <ele>55.35438</ele>
        <time>2020-08-12T08:32:33.756Z</time>
      </trkpt>
      <trkpt lat="64.90791" lon="11.72216">
        <ele>55.608847</ele>
        <time>2020-08-12T08:32:38.740Z</time>
      </trkpt>
      <trkpt lat="64.90787" lon="11.72193">
        <ele>55.86346</ele>
        <time>2020-08-12T08:32:43.739Z</time>
      </trkpt>
      <trkpt lat="64.90784" lon="11.7217">
        <ele>56.123203</ele>
        <time>2020-08-12T08:32:48.750Z</time>
      </trkpt>
      <trkpt lat="64.90781" lon="11.72148">
        <ele>56.219724</ele>
        <time>2020-08-12T08:32:53.727Z</time>
      </trkpt>
      <trkpt lat="64.90779" lon="11.72123">
        <ele>56.060324</ele>
        <time>2020-08-12T08:32:58.723Z</time>
      </trkpt>
      <trkpt lat="64.90777" lon="11.72099">
        <ele>55.902032</ele>
        <time>2020-08-12T08:33:03.743Z</time>
      </trkpt>
      <trkpt lat="64.90776" lon="11.72075">
        <ele>55.744664</ele>
        <time>2020-08-12T08:33:07.752Z</time>
      </trkpt>
      <trkpt lat="64.90775" lon="11.72047">
        <ele>55.563821</ele>
        <time>2020-08-12T08:33:11.757Z</time>
      </trkpt>
      <trkpt lat="64.90774" lon="11.72024">
        <ele>55.415543</ele>
        <time>2020-08-12T08:33:14.732Z</time>
      </trkpt>
      <trkpt lat="64.90773" lon="11.71999">
        <ele>55.253151</ele>
        <time>2020-08-12T08:33:17.737Z</time>
      </trkpt>
      <trkpt lat="64.90774" lon="11.71971">
        <ele>55.07814</ele>
        <time>2020-08-12T08:33:20.723Z</time>
      </trkpt>
      <trkpt lat="64.90774" lon="11.7194">
        <ele>54.876505</ele>
        <time>2020-08-12T08:33:23.719Z</time>
      </trkpt>
      <trkpt lat="64.90775" lon="11.71914">
        <ele>54.706953</ele>
        <time>2020-08-12T08:33:25.731Z</time>
      </trkpt>
      <trkpt lat="64.90777" lon="11.71881">
        <ele>54.49619</ele>
        <time>2020-08-12T08:33:27.725Z</time>
      </trkpt>
      <trkpt lat="64.9078" lon="11.71846">
        <ele>54.262164</ele>
        <time>2020-08-12T08:33:29.751Z</time>
      </trkpt>
      <trkpt lat="64.90785" lon="11.71807">
        <ele>54.003071</ele>
        <time>2020-08-12T08:33:31.749Z</time>
      </trkpt>
      <trkpt lat="64.90789" lon="11.71767">
        <ele>53.739077</ele>
        <time>2020-08-12T08:33:33.753Z</time>
      </trkpt>
      <trkpt lat="64.90793" lon="11.7173">
        <ele>53.580742</ele>
        <time>2020-08-12T08:33:35.741Z</time>
      </trkpt>
      <trkpt lat="64.90795" lon="11.71694">
        <ele>53.700421</ele>
        <time>2020-08-12T08:33:37.767Z</time>
      </trkpt>
      <trkpt lat="64.90795" lon="11.71659">
        <ele>53.814797</ele>
        <time>2020-08-12T08:33:39.718Z</time>
      </trkpt>
      <trkpt lat="64.90794" lon="11.71628">
        <ele>53.918301</ele>
        <time>2020-08-12T08:33:41.736Z</time>
      </trkpt>
      <trkpt lat="64.90792" lon="11.71599">
        <ele>54.013201</ele>
        <time>2020-08-12T08:33:43.744Z</time>
      </trkpt>
      <trkpt lat="64.9079" lon="11.71572">
        <ele>54.102883</ele>
        <time>2020-08-12T08:33:45.745Z</time>
      </trkpt>
      <trkpt lat="64.9079" lon="11.71544">
        <ele>54.196677</ele>
        <time>2020-08-12T08:33:47.755Z</time>
      </trkpt>
      <trkpt lat="64.90789" lon="11.71516">
        <ele>54.288773</ele>
        <time>2020-08-12T08:33:49.726Z</time>
      </trkpt>
      <trkpt lat="64.90788" lon="11.7149">
        <ele>54.376079</ele>
        <time>2020-08-12T08:33:51.743Z</time>
      </trkpt>
      <trkpt lat="64.90789" lon="11.71466">
        <ele>54.453943</ele>
        <time>2020-08-12T08:33:53.734Z</time>
      </trkpt>
      <trkpt lat="64.9079" lon="11.71443">
        <ele>54.52929</ele>
        <time>2020-08-12T08:33:55.742Z</time>
      </trkpt>
      <trkpt lat="64.90791" lon="11.71422">
        <ele>54.600635</ele>
        <time>2020-08-12T08:33:57.742Z</time>
      </trkpt>
      <trkpt lat="64.90792" lon="11.71392">
        <ele>54.700134</ele>
        <time>2020-08-12T08:34:00.735Z</time>
      </trkpt>
      <trkpt lat="64.90793" lon="11.71363">
        <ele>54.793728</ele>
        <time>2020-08-12T08:34:03.744Z</time>
      </trkpt>
      <trkpt lat="64.90793" lon="11.71338">
        <ele>54.878457</ele>
        <time>2020-08-12T08:34:06.756Z</time>
      </trkpt>
      <trkpt lat="64.90793" lon="11.71312">
        <ele>54.973777</ele>
        <time>2020-08-12T08:34:09.726Z</time>
      </trkpt>
      <trkpt lat="64.90792" lon="11.71289">
        <ele>55.119888</ele>
        <time>2020-08-12T08:34:12.724Z</time>
      </trkpt>
      <trkpt lat="64.9079" lon="11.71267">
        <ele>55.251721</ele>
        <time>2020-08-12T08:34:15.746Z</time>
      </trkpt>
      <trkpt lat="64.90788" lon="11.71243">
        <ele>55.401458</ele>
        <time>2020-08-12T08:34:19.817Z</time>
      </trkpt>
      <trkpt lat="64.90785" lon="11.7122">
        <ele>55.551278</ele>
        <time>2020-08-12T08:34:23.755Z</time>
      </trkpt>
      <trkpt lat="64.90782" lon="11.71196">
        <ele>55.7041</ele>
        <time>2020-08-12T08:34:28.746Z</time>
      </trkpt>
      <trkpt lat="64.90778" lon="11.71175">
        <ele>55.838266</ele>
        <time>2020-08-12T08:34:33.745Z</time>
      </trkpt>
      <trkpt lat="64.90774" lon="11.71154">
        <ele>55.985421</ele>
        <time>2020-08-12T08:34:38.727Z</time>
      </trkpt>
      <trkpt lat="64.90769" lon="11.71134">
        <ele>56.127161</ele>
        <time>2020-08-12T08:34:43.752Z</time>
      </trkpt>
      <trkpt lat="64.90765" lon="11.71114">
        <ele>56.263606</ele>
        <time>2020-08-12T08:34:48.735Z</time>
      </trkpt>
      <trkpt lat="64.90759" lon="11.71096">
        <ele>56.404102</ele>
        <time>2020-08-12T08:34:53.723Z</time>
      </trkpt>
      <trkpt lat="64.90753" lon="11.71077">
        <ele>56.543368</ele>
        <time>2020-08-12T08:34:58.782Z</time>
      </trkpt>
      <trkpt lat="64.90749" lon="11.71057">
        <ele>56.67901</ele>
        <time>2020-08-12T08:35:03.736Z</time>
      </trkpt>
      <trkpt lat="64.90744" lon="11.71036">
        <ele>56.828344</ele>
        <time>2020-08-12T08:35:08.738Z</time>
      </trkpt>
      <trkpt lat="64.9074" lon="11.71016">
        <ele>56.960976</ele>
        <time>2020-08-12T08:35:12.735Z</time>
      </trkpt>
      <trkpt lat="64.90735" lon="11.70994">
        <ele>57.111728</ele>
        <time>2020-08-12T08:35:16.738Z</time>
      </trkpt>
      <trkpt lat="64.90729" lon="11.70971">
        <ele>57.275564</ele>
        <time>2020-08-12T08:35:20.750Z</time>
      </trkpt>
      <trkpt lat="64.90725" lon="11.70944">
        <ele>57.445852</ele>
        <time>2020-08-12T08:35:24.741Z</time>
      </trkpt>
      <trkpt lat="64.90722" lon="11.70923">
        <ele>57.846528</ele>
        <time>2020-08-12T08:35:27.755Z</time>
      </trkpt>
      <trkpt lat="64.90719" lon="11.70901">
        <ele>58.679032</ele>
        <time>2020-08-12T08:35:30.792Z</time>
      </trkpt>
      <trkpt lat="64.90716" lon="11.70877">
        <ele>59.556945</ele>
        <time>2020-08-12T08:35:33.731Z</time>
      </trkpt>
      <trkpt lat="64.90713" lon="11.70853">
        <ele>60.4467</ele>
        <time>2020-08-12T08:35:36.747Z</time>
      </trkpt>
      <trkpt lat="64.90711" lon="11.70829">
        <ele>61.324376</ele>
        <time>2020-08-12T08:35:39.767Z</time>
      </trkpt>
      <trkpt lat="64.90709" lon="11.70806">
        <ele>62.179661</ele>
        <time>2020-08-12T08:35:42.737Z</time>
      </trkpt>
      <trkpt lat="64.90708" lon="11.70783">
        <ele>63.019053</ele>
        <time>2020-08-12T08:35:45.744Z</time>
      </trkpt>
      <trkpt lat="64.90708" lon="11.7076">
        <ele>63.830268</ele>
        <time>2020-08-12T08:35:48.723Z</time>
      </trkpt>
      <trkpt lat="64.90708" lon="11.70733">
        <ele>64.788219</ele>
        <time>2020-08-12T08:35:52.733Z</time>
      </trkpt>
      <trkpt lat="64.90708" lon="11.70707">
        <ele>65.713882</ele>
        <time>2020-08-12T08:35:56.749Z</time>
      </trkpt>
      <trkpt lat="64.90709" lon="11.70684">
        <ele>66.542556</ele>
        <time>2020-08-12T08:36:00.725Z</time>
      </trkpt>
      <trkpt lat="64.90709" lon="11.70661">
        <ele>67.378531</ele>
        <time>2020-08-12T08:36:05.726Z</time>
      </trkpt>
      <trkpt lat="64.9071" lon="11.70639">
        <ele>68.183774</ele>
        <time>2020-08-12T08:36:10.750Z</time>
      </trkpt>
      <trkpt lat="64.90709" lon="11.70614">
        <ele>69.056239</ele>
        <time>2020-08-12T08:36:16.734Z</time>
      </trkpt>
      <trkpt lat="64.90709" lon="11.7059">
        <ele>69.924501</ele>
        <time>2020-08-12T08:36:23.731Z</time>
      </trkpt>
      <trkpt lat="64.90711" lon="11.70569">
        <ele>70.711987</ele>
        <time>2020-08-12T08:36:30.757Z</time>
      </trkpt>
      <trkpt lat="64.90711" lon="11.70544">
        <ele>71.580372</ele>
        <time>2020-08-12T08:36:37.720Z</time>
      </trkpt>
      <trkpt lat="64.90713" lon="11.70522">
        <ele>72.410721</ele>
        <time>2020-08-12T08:36:44.726Z</time>
      </trkpt>
      <trkpt lat="64.90714" lon="11.70499">
        <ele>73.093156</ele>
        <time>2020-08-12T08:36:51.779Z</time>
      </trkpt>
      <trkpt lat="64.90717" lon="11.70478">
        <ele>73.63244</ele>
        <time>2020-08-12T08:36:58.721Z</time>
      </trkpt>
      <trkpt lat="64.90719" lon="11.70457">
        <ele>74.181873</ele>
        <time>2020-08-12T08:37:04.729Z</time>
      </trkpt>
      <trkpt lat="64.90724" lon="11.70437">
        <ele>74.784715</ele>
        <time>2020-08-12T08:37:11.752Z</time>
      </trkpt>
      <trkpt lat="64.90724" lon="11.70415">
        <ele>75.333108</ele>
        <time>2020-08-12T08:37:18.738Z</time>
      </trkpt>
      <trkpt lat="64.90726" lon="11.70392">
        <ele>75.903459</ele>
        <time>2020-08-12T08:37:25.741Z</time>
      </trkpt>
      <trkpt lat="64.90729" lon="11.70371">
        <ele>76.466082</ele>
        <time>2020-08-12T08:37:32.739Z</time>
      </trkpt>
      <trkpt lat="64.90733" lon="11.70352">
        <ele>76.995852</ele>
        <time>2020-08-12T08:37:38.746Z</time>
      </trkpt>
      <trkpt lat="64.90736" lon="11.70329">
        <ele>77.587282</ele>
        <time>2020-08-12T08:37:45.765Z</time>
      </trkpt>
      <trkpt lat="64.90739" lon="11.70306">
        <ele>78.198202</ele>
        <time>2020-08-12T08:37:53.715Z</time>
      </trkpt>
      <trkpt lat="64.90743" lon="11.70286">
        <ele>78.752056</ele>
        <time>2020-08-12T08:38:00.757Z</time>
      </trkpt>
      <trkpt lat="64.90747" lon="11.70266">
        <ele>79.300409</ele>
        <time>2020-08-12T08:38:06.766Z</time>
      </trkpt>
      <trkpt lat="64.90749" lon="11.70244">
        <ele>79.860067</ele>
        <time>2020-08-12T08:38:13.736Z</time>
      </trkpt>
      <trkpt lat="64.90753" lon="11.70225">
        <ele>80.394672</ele>
        <time>2020-08-12T08:38:20.745Z</time>
      </trkpt>
      <trkpt lat="64.90759" lon="11.70204">
        <ele>81.026954</ele>
        <time>2020-08-12T08:38:27.749Z</time>
      </trkpt>
      <trkpt lat="64.90764" lon="11.70186">
        <ele>81.569459</ele>
        <time>2020-08-12T08:38:33.749Z</time>
      </trkpt>
      <trkpt lat="64.90769" lon="11.70166">
        <ele>82.160623</ele>
        <time>2020-08-12T08:38:40.747Z</time>
      </trkpt>
      <trkpt lat="64.90775" lon="11.70147">
        <ele>82.739307</ele>
        <time>2020-08-12T08:38:46.728Z</time>
      </trkpt>
      <trkpt lat="64.90781" lon="11.7013">
        <ele>83.287374</ele>
        <time>2020-08-12T08:38:51.781Z</time>
      </trkpt>
      <trkpt lat="64.90787" lon="11.70113">
        <ele>83.186602</ele>
        <time>2020-08-12T08:38:55.724Z</time>
      </trkpt>
      <trkpt lat="64.90793" lon="11.70092">
        <ele>82.951763</ele>
        <time>2020-08-12T08:38:59.732Z</time>
      </trkpt>
      <trkpt lat="64.908" lon="11.70069">
        <ele>82.690205</ele>
        <time>2020-08-12T08:39:03.773Z</time>
      </trkpt>
      <trkpt lat="64.90806" lon="11.7005">
        <ele>82.482587</ele>
        <time>2020-08-12T08:39:06.741Z</time>
      </trkpt>
      <trkpt lat="64.90812" lon="11.70031">
        <ele>82.259558</ele>
        <time>2020-08-12T08:39:09.724Z</time>
      </trkpt>
      <trkpt lat="64.90819" lon="11.7001">
        <ele>82.017918</ele>
        <time>2020-08-12T08:39:12.773Z</time>
      </trkpt>
      <trkpt lat="64.90827" lon="11.69988">
        <ele>81.753587</ele>
        <time>2020-08-12T08:39:15.761Z</time>
      </trkpt>
      <trkpt lat="64.90833" lon="11.69972">
        <ele>81.557714</ele>
        <time>2020-08-12T08:39:17.731Z</time>
      </trkpt>
      <trkpt lat="64.90841" lon="11.69957">
        <ele>81.338979</ele>
        <time>2020-08-12T08:39:19.766Z</time>
      </trkpt>
      <trkpt lat="64.90851" lon="11.69943">
        <ele>81.081909</ele>
        <time>2020-08-12T08:39:21.744Z</time>
      </trkpt>
      <trkpt lat="64.90863" lon="11.69931">
        <ele>80.787685</ele>
        <time>2020-08-12T08:39:23.725Z</time>
      </trkpt>
      <trkpt lat="64.90878" lon="11.69921">
        <ele>80.455873</ele>
        <time>2020-08-12T08:39:25.730Z</time>
      </trkpt>
      <trkpt lat="64.90895" lon="11.69917">
        <ele>80.090674</ele>
        <time>2020-08-12T08:39:27.755Z</time>
      </trkpt>
      <trkpt lat="64.90904" lon="11.69917">
        <ele>79.891765</ele>
        <time>2020-08-12T08:39:28.739Z</time>
      </trkpt>
      <trkpt lat="64.90913" lon="11.69919">
        <ele>79.694111</ele>
        <time>2020-08-12T08:39:29.745Z</time>
      </trkpt>
      <trkpt lat="64.90923" lon="11.69923">
        <ele>79.492048</ele>
        <time>2020-08-12T08:39:30.747Z</time>
      </trkpt>
      <trkpt lat="64.90932" lon="11.69928">
        <ele>78.969146</ele>
        <time>2020-08-12T08:39:31.766Z</time>
      </trkpt>
      <trkpt lat="64.90941" lon="11.69934">
        <ele>78.384635</ele>
        <time>2020-08-12T08:39:32.752Z</time>
      </trkpt>
      <trkpt lat="64.90952" lon="11.69939">
        <ele>77.765204</ele>
        <time>2020-08-12T08:39:33.724Z</time>
      </trkpt>
      <trkpt lat="64.90962" lon="11.69943">
        <ele>77.137207</ele>
        <time>2020-08-12T08:39:34.741Z</time>
      </trkpt>
      <trkpt lat="64.90972" lon="11.69945">
        <ele>76.532669</ele>
        <time>2020-08-12T08:39:35.727Z</time>
      </trkpt>
      <trkpt lat="64.90982" lon="11.69944">
        <ele>75.942099</ele>
        <time>2020-08-12T08:39:36.732Z</time>
      </trkpt>
      <trkpt lat="64.90992" lon="11.69942">
        <ele>75.348611</ele>
        <time>2020-08-12T08:39:37.749Z</time>
      </trkpt>
      <trkpt lat="64.91002" lon="11.69939">
        <ele>74.776836</ele>
        <time>2020-08-12T08:39:38.737Z</time>
      </trkpt>
      <trkpt lat="64.91011" lon="11.69936">
        <ele>74.228802</ele>
        <time>2020-08-12T08:39:39.726Z</time>
      </trkpt>
      <trkpt lat="64.91027" lon="11.69934">
        <ele>73.312747</ele>
        <time>2020-08-12T08:39:41.718Z</time>
      </trkpt>
      <trkpt lat="64.9104" lon="11.69946">
        <ele>72.499361</ele>
        <time>2020-08-12T08:39:43.774Z</time>
      </trkpt>
      <trkpt lat="64.91047" lon="11.69969">
        <ele>71.770525</ele>
        <time>2020-08-12T08:39:45.749Z</time>
      </trkpt>
      <trkpt lat="64.9105" lon="11.69997">
        <ele>71.046877</ele>
        <time>2020-08-12T08:39:47.750Z</time>
      </trkpt>
      <trkpt lat="64.91055" lon="11.70022">
        <ele>70.35768</ele>
        <time>2020-08-12T08:39:49.765Z</time>
      </trkpt>
      <trkpt lat="64.91061" lon="11.70046">
        <ele>69.681265</ele>
        <time>2020-08-12T08:39:51.755Z</time>
      </trkpt>
      <trkpt lat="64.91066" lon="11.70068">
        <ele>69.020764</ele>
        <time>2020-08-12T08:39:53.740Z</time>
      </trkpt>
      <trkpt lat="64.91071" lon="11.70092">
        <ele>68.674928</ele>
        <time>2020-08-12T08:39:55.725Z</time>
      </trkpt>
      <trkpt lat="64.91077" lon="11.70114">
        <ele>68.448066</ele>
        <time>2020-08-12T08:39:57.734Z</time>
      </trkpt>
      <trkpt lat="64.91081" lon="11.70135">
        <ele>68.231156</ele>
        <time>2020-08-12T08:39:59.751Z</time>
      </trkpt>
      <trkpt lat="64.91087" lon="11.70156">
        <ele>68.013737</ele>
        <time>2020-08-12T08:40:01.731Z</time>
      </trkpt>
      <trkpt lat="64.91092" lon="11.70176">
        <ele>67.796138</ele>
        <time>2020-08-12T08:40:03.761Z</time>
      </trkpt>
      <trkpt lat="64.91097" lon="11.70197">
        <ele>67.573588</ele>
        <time>2020-08-12T08:40:05.725Z</time>
      </trkpt>
      <trkpt lat="64.91104" lon="11.70218">
        <ele>67.34677</ele>
        <time>2020-08-12T08:40:07.741Z</time>
      </trkpt>
      <trkpt lat="64.9111" lon="11.70237">
        <ele>67.128454</ele>
        <time>2020-08-12T08:40:09.785Z</time>
      </trkpt>
      <trkpt lat="64.91116" lon="11.70257">
        <ele>66.907785</ele>
        <time>2020-08-12T08:40:11.735Z</time>
      </trkpt>
      <trkpt lat="64.91122" lon="11.70276">
        <ele>66.69291</ele>
        <time>2020-08-12T08:40:13.734Z</time>
      </trkpt>
      <trkpt lat="64.91128" lon="11.70294">
        <ele>66.480378</ele>
        <time>2020-08-12T08:40:15.789Z</time>
      </trkpt>
      <trkpt lat="64.91135" lon="11.70312">
        <ele>66.270644</ele>
        <time>2020-08-12T08:40:17.718Z</time>
      </trkpt>
      <trkpt lat="64.91141" lon="11.7033">
        <ele>66.064801</ele>
        <time>2020-08-12T08:40:19.726Z</time>
      </trkpt>
      <trkpt lat="64.91147" lon="11.70347">
        <ele>65.865954</ele>
        <time>2020-08-12T08:40:21.725Z</time>
      </trkpt>
      <trkpt lat="64.91152" lon="11.70364">
        <ele>65.6753</ele>
        <time>2020-08-12T08:40:23.741Z</time>
      </trkpt>
      <trkpt lat="64.91158" lon="11.70381">
        <ele>65.475745</ele>
        <time>2020-08-12T08:40:25.740Z</time>
      </trkpt>
      <trkpt lat="64.91164" lon="11.70399">
        <ele>65.269903</ele>
        <time>2020-08-12T08:40:27.754Z</time>
      </trkpt>
      <trkpt lat="64.9117" lon="11.70417">
        <ele>65.063553</ele>
        <time>2020-08-12T08:40:29.725Z</time>
      </trkpt>
      <trkpt lat="64.91176" lon="11.70434">
        <ele>65.086774</ele>
        <time>2020-08-12T08:40:31.733Z</time>
      </trkpt>
      <trkpt lat="64.91184" lon="11.70457">
        <ele>65.186587</ele>
        <time>2020-08-12T08:40:34.727Z</time>
      </trkpt>
      <trkpt lat="64.91193" lon="11.70481">
        <ele>65.291177</ele>
        <time>2020-08-12T08:40:37.777Z</time>
      </trkpt>
      <trkpt lat="64.912" lon="11.70496">
        <ele>65.362557</ele>
        <time>2020-08-12T08:40:39.731Z</time>
      </trkpt>
      <trkpt lat="64.91206" lon="11.70513">
        <ele>65.432006</ele>
        <time>2020-08-12T08:40:41.729Z</time>
      </trkpt>
      <trkpt lat="64.91212" lon="11.7053">
        <ele>65.508424</ele>
        <time>2020-08-12T08:40:43.731Z</time>
      </trkpt>
      <trkpt lat="64.91219" lon="11.70547">
        <ele>65.583374</ele>
        <time>2020-08-12T08:40:45.746Z</time>
      </trkpt>
      <trkpt lat="64.91225" lon="11.70563">
        <ele>65.65569</ele>
        <time>2020-08-12T08:40:47.748Z</time>
      </trkpt>
      <trkpt lat="64.91232" lon="11.70579">
        <ele>65.725999</ele>
        <time>2020-08-12T08:40:49.732Z</time>
      </trkpt>
      <trkpt lat="64.91238" lon="11.70595">
        <ele>65.7952</ele>
        <time>2020-08-12T08:40:51.763Z</time>
      </trkpt>
      <trkpt lat="64.91247" lon="11.70618">
        <ele>65.89863</ele>
        <time>2020-08-12T08:40:54.762Z</time>
      </trkpt>
      <trkpt lat="64.91255" lon="11.70641">
        <ele>65.997491</ele>
        <time>2020-08-12T08:40:57.733Z</time>
      </trkpt>
      <trkpt lat="64.91263" lon="11.70663">
        <ele>66.091826</ele>
        <time>2020-08-12T08:41:00.725Z</time>
      </trkpt>
      <trkpt lat="64.91271" lon="11.70683">
        <ele>66.18175</ele>
        <time>2020-08-12T08:41:03.738Z</time>
      </trkpt>
      <trkpt lat="64.91279" lon="11.70704">
        <ele>66.274858</ele>
        <time>2020-08-12T08:41:06.733Z</time>
      </trkpt>
      <trkpt lat="64.91288" lon="11.70726">
        <ele>66.371233</ele>
        <time>2020-08-12T08:41:09.731Z</time>
      </trkpt>
      <trkpt lat="64.91296" lon="11.70746">
        <ele>66.537319</ele>
        <time>2020-08-12T08:41:12.724Z</time>
      </trkpt>
      <trkpt lat="64.91303" lon="11.70769">
        <ele>66.779513</ele>
        <time>2020-08-12T08:41:15.750Z</time>
      </trkpt>
      <trkpt lat="64.91311" lon="11.7079">
        <ele>67.009442</ele>
        <time>2020-08-12T08:41:18.726Z</time>
      </trkpt>
      <trkpt lat="64.91318" lon="11.70811">
        <ele>67.238147</ele>
        <time>2020-08-12T08:41:21.736Z</time>
      </trkpt>
      <trkpt lat="64.91326" lon="11.70829">
        <ele>67.451913</ele>
        <time>2020-08-12T08:41:24.736Z</time>
      </trkpt>
      <trkpt lat="64.91334" lon="11.70846">
        <ele>67.656542</ele>
        <time>2020-08-12T08:41:27.754Z</time>
      </trkpt>
      <trkpt lat="64.91341" lon="11.70864">
        <ele>67.876985</ele>
        <time>2020-08-12T08:41:30.725Z</time>
      </trkpt>
      <trkpt lat="64.9135" lon="11.70883">
        <ele>68.107934</ele>
        <time>2020-08-12T08:41:33.722Z</time>
      </trkpt>
      <trkpt lat="64.91359" lon="11.70902">
        <ele>68.338087</ele>
        <time>2020-08-12T08:41:36.732Z</time>
      </trkpt>
      <trkpt lat="64.91368" lon="11.7092">
        <ele>68.578617</ele>
        <time>2020-08-12T08:41:39.745Z</time>
      </trkpt>
      <trkpt lat="64.91378" lon="11.7094">
        <ele>68.827955</ele>
        <time>2020-08-12T08:41:42.731Z</time>
      </trkpt>
      <trkpt lat="64.91387" lon="11.7096">
        <ele>69.082455</ele>
        <time>2020-08-12T08:41:45.749Z</time>
      </trkpt>
      <trkpt lat="64.91396" lon="11.70978">
        <ele>69.306545</ele>
        <time>2020-08-12T08:41:48.745Z</time>
      </trkpt>
      <trkpt lat="64.91403" lon="11.70995">
        <ele>69.502274</ele>
        <time>2020-08-12T08:41:51.738Z</time>
      </trkpt>
      <trkpt lat="64.91411" lon="11.71011">
        <ele>69.712413</ele>
        <time>2020-08-12T08:41:55.730Z</time>
      </trkpt>
      <trkpt lat="64.91419" lon="11.71027">
        <ele>69.922827</ele>
        <time>2020-08-12T08:41:59.725Z</time>
      </trkpt>
      <trkpt lat="64.91429" lon="11.71047">
        <ele>70.357625</ele>
        <time>2020-08-12T08:42:04.741Z</time>
      </trkpt>
      <trkpt lat="64.91436" lon="11.71063">
        <ele>70.711256</ele>
        <time>2020-08-12T08:42:08.726Z</time>
      </trkpt>
      <trkpt lat="64.91444" lon="11.71081">
        <ele>71.112327</ele>
        <time>2020-08-12T08:42:13.745Z</time>
      </trkpt>
      <trkpt lat="64.91452" lon="11.71098">
        <ele>71.515316</ele>
        <time>2020-08-12T08:42:18.728Z</time>
      </trkpt>
      <trkpt lat="64.91461" lon="11.71112">
        <ele>71.910605</ele>
        <time>2020-08-12T08:42:22.717Z</time>
      </trkpt>
      <trkpt lat="64.9147" lon="11.71129">
        <ele>72.317112</ele>
        <time>2020-08-12T08:42:26.737Z</time>
      </trkpt>
      <trkpt lat="64.91477" lon="11.71144">
        <ele>72.668865</ele>
        <time>2020-08-12T08:42:29.730Z</time>
      </trkpt>
      <trkpt lat="64.91485" lon="11.71161">
        <ele>73.054653</ele>
        <time>2020-08-12T08:42:32.773Z</time>
      </trkpt>
      <trkpt lat="64.91493" lon="11.71177">
        <ele>73.439216</ele>
        <time>2020-08-12T08:42:35.734Z</time>
      </trkpt>
      <trkpt lat="64.91502" lon="11.71194">
        <ele>73.840195</ele>
        <time>2020-08-12T08:42:38.725Z</time>
      </trkpt>
      <trkpt lat="64.91512" lon="11.71213">
        <ele>74.309157</ele>
        <time>2020-08-12T08:42:41.734Z</time>
      </trkpt>
      <trkpt lat="64.91519" lon="11.71226">
        <ele>74.633933</ele>
        <time>2020-08-12T08:42:43.732Z</time>
      </trkpt>
      <trkpt lat="64.91526" lon="11.71241">
        <ele>74.968094</ele>
        <time>2020-08-12T08:42:45.733Z</time>
      </trkpt>
      <trkpt lat="64.91533" lon="11.71256">
        <ele>75.314829</ele>
        <time>2020-08-12T08:42:47.753Z</time>
      </trkpt>
      <trkpt lat="64.9154" lon="11.71271">
        <ele>75.677808</ele>
        <time>2020-08-12T08:42:49.739Z</time>
      </trkpt>
      <trkpt lat="64.91548" lon="11.71286">
        <ele>76.037039</ele>
        <time>2020-08-12T08:42:51.743Z</time>
      </trkpt>
      <trkpt lat="64.91556" lon="11.71302">
        <ele>76.406774</ele>
        <time>2020-08-12T08:42:53.778Z</time>
      </trkpt>
      <trkpt lat="64.91564" lon="11.71318">
        <ele>76.332935</ele>
        <time>2020-08-12T08:42:55.730Z</time>
      </trkpt>
      <trkpt lat="64.91571" lon="11.71333">
        <ele>76.177033</ele>
        <time>2020-08-12T08:42:57.736Z</time>
      </trkpt>
      <trkpt lat="64.91578" lon="11.71347">
        <ele>76.033529</ele>
        <time>2020-08-12T08:42:59.752Z</time>
      </trkpt>
      <trkpt lat="64.91587" lon="11.71366">
        <ele>75.839941</ele>
        <time>2020-08-12T08:43:02.767Z</time>
      </trkpt>
      <trkpt lat="64.91595" lon="11.71384">
        <ele>75.664579</ele>
        <time>2020-08-12T08:43:05.736Z</time>
      </trkpt>
      <trkpt lat="64.91603" lon="11.714">
        <ele>75.504977</ele>
        <time>2020-08-12T08:43:08.747Z</time>
      </trkpt>
      <trkpt lat="64.9161" lon="11.71414">
        <ele>75.357847</ele>
        <time>2020-08-12T08:43:11.732Z</time>
      </trkpt>
      <trkpt lat="64.91618" lon="11.71429">
        <ele>75.193172</ele>
        <time>2020-08-12T08:43:15.732Z</time>
      </trkpt>
      <trkpt lat="64.91625" lon="11.71444">
        <ele>75.045057</ele>
        <time>2020-08-12T08:43:19.743Z</time>
      </trkpt>
      <trkpt lat="64.91633" lon="11.71457">
        <ele>74.883453</ele>
        <time>2020-08-12T08:43:23.752Z</time>
      </trkpt>
      <trkpt lat="64.91642" lon="11.7147">
        <ele>74.719783</ele>
        <time>2020-08-12T08:43:27.724Z</time>
      </trkpt>
      <trkpt lat="64.91652" lon="11.71481">
        <ele>74.539118</ele>
        <time>2020-08-12T08:43:31.724Z</time>
      </trkpt>
      <trkpt lat="64.91664" lon="11.71487">
        <ele>74.345923</ele>
        <time>2020-08-12T08:43:35.764Z</time>
      </trkpt>
      <trkpt lat="64.91674" lon="11.7149">
        <ele>74.186765</ele>
        <time>2020-08-12T08:43:38.721Z</time>
      </trkpt>
      <trkpt lat="64.91683" lon="11.71494">
        <ele>74.03453</ele>
        <time>2020-08-12T08:43:41.720Z</time>
      </trkpt>
      <trkpt lat="64.91694" lon="11.71504">
        <ele>73.846094</ele>
        <time>2020-08-12T08:43:45.756Z</time>
      </trkpt>
      <trkpt lat="64.91705" lon="11.71513">
        <ele>73.668931</ele>
        <time>2020-08-12T08:43:49.749Z</time>
      </trkpt>
      <trkpt lat="64.91714" lon="11.71524">
        <ele>73.614497</ele>
        <time>2020-08-12T08:43:53.732Z</time>
      </trkpt>
      <trkpt lat="64.91724" lon="11.71538">
        <ele>73.619736</ele>
        <time>2020-08-12T08:43:57.729Z</time>
      </trkpt>
      <trkpt lat="64.91733" lon="11.7155">
        <ele>73.624492</ele>
        <time>2020-08-12T08:44:01.743Z</time>
      </trkpt>
      <trkpt lat="64.91742" lon="11.71562">
        <ele>73.629142</ele>
        <time>2020-08-12T08:44:05.733Z</time>
      </trkpt>
      <trkpt lat="64.91751" lon="11.71574">
        <ele>73.633741</ele>
        <time>2020-08-12T08:44:09.774Z</time>
      </trkpt>
      <trkpt lat="64.9176" lon="11.71585">
        <ele>73.638264</ele>
        <time>2020-08-12T08:44:13.754Z</time>
      </trkpt>
      <trkpt lat="64.91769" lon="11.71596">
        <ele>73.642899</ele>
        <time>2020-08-12T08:44:17.769Z</time>
      </trkpt>
      <trkpt lat="64.91776" lon="11.71607">
        <ele>73.647026</ele>
        <time>2020-08-12T08:44:21.733Z</time>
      </trkpt>
      <trkpt lat="64.91784" lon="11.71618">
        <ele>73.651193</ele>
        <time>2020-08-12T08:44:25.728Z</time>
      </trkpt>
      <trkpt lat="64.91793" lon="11.7163">
        <ele>73.656019</ele>
        <time>2020-08-12T08:44:29.738Z</time>
      </trkpt>
      <trkpt lat="64.91801" lon="11.71642">
        <ele>73.660207</ele>
        <time>2020-08-12T08:44:32.750Z</time>
      </trkpt>
      <trkpt lat="64.9181" lon="11.71655">
        <ele>73.665052</ele>
        <time>2020-08-12T08:44:35.730Z</time>
      </trkpt>
      <trkpt lat="64.91821" lon="11.7167">
        <ele>73.670869</ele>
        <time>2020-08-12T08:44:38.743Z</time>
      </trkpt>
      <trkpt lat="64.91829" lon="11.71682">
        <ele>73.675126</ele>
        <time>2020-08-12T08:44:40.751Z</time>
      </trkpt>
      <trkpt lat="64.91838" lon="11.71693">
        <ele>73.679509</ele>
        <time>2020-08-12T08:44:42.729Z</time>
      </trkpt>
      <trkpt lat="64.91846" lon="11.71704">
        <ele>73.683794</ele>
        <time>2020-08-12T08:44:44.751Z</time>
      </trkpt>
      <trkpt lat="64.91854" lon="11.71716">
        <ele>73.688295</ele>
        <time>2020-08-12T08:44:46.757Z</time>
      </trkpt>
      <trkpt lat="64.91863" lon="11.71728">
        <ele>73.692982</ele>
        <time>2020-08-12T08:44:48.724Z</time>
      </trkpt>
      <trkpt lat="64.91872" lon="11.71741">
        <ele>73.523386</ele>
        <time>2020-08-12T08:44:50.745Z</time>
      </trkpt>
      <trkpt lat="64.91881" lon="11.71753">
        <ele>73.332217</ele>
        <time>2020-08-12T08:44:52.720Z</time>
      </trkpt>
      <trkpt lat="64.9189" lon="11.71766">
        <ele>73.126658</ele>
        <time>2020-08-12T08:44:54.721Z</time>
      </trkpt>
      <trkpt lat="64.91901" lon="11.71779">
        <ele>72.907492</ele>
        <time>2020-08-12T08:44:56.757Z</time>
      </trkpt>
      <trkpt lat="64.91911" lon="11.71794">
        <ele>72.675701</ele>
        <time>2020-08-12T08:44:58.734Z</time>
      </trkpt>
      <trkpt lat="64.91922" lon="11.71809">
        <ele>72.447028</ele>
        <time>2020-08-12T08:45:00.755Z</time>
      </trkpt>
      <trkpt lat="64.91933" lon="11.71823">
        <ele>72.219115</ele>
        <time>2020-08-12T08:45:02.733Z</time>
      </trkpt>
      <trkpt lat="64.91944" lon="11.71837">
        <ele>71.986123</ele>
        <time>2020-08-12T08:45:04.726Z</time>
      </trkpt>
      <trkpt lat="64.91955" lon="11.71854">
        <ele>71.746291</ele>
        <time>2020-08-12T08:45:06.748Z</time>
      </trkpt>
      <trkpt lat="64.91966" lon="11.71871">
        <ele>71.498698</ele>
        <time>2020-08-12T08:45:08.745Z</time>
      </trkpt>
      <trkpt lat="64.91977" lon="11.71889">
        <ele>71.256097</ele>
        <time>2020-08-12T08:45:10.768Z</time>
      </trkpt>
      <trkpt lat="64.91987" lon="11.71907">
        <ele>71.025883</ele>
        <time>2020-08-12T08:45:12.739Z</time>
      </trkpt>
      <trkpt lat="64.91996" lon="11.71924">
        <ele>70.805868</ele>
        <time>2020-08-12T08:45:14.726Z</time>
      </trkpt>
      <trkpt lat="64.92005" lon="11.71943">
        <ele>70.590087</ele>
        <time>2020-08-12T08:45:16.800Z</time>
      </trkpt>
      <trkpt lat="64.92013" lon="11.71962">
        <ele>70.381437</ele>
        <time>2020-08-12T08:45:18.795Z</time>
      </trkpt>
      <trkpt lat="64.92021" lon="11.71981">
        <ele>70.901177</ele>
        <time>2020-08-12T08:45:20.742Z</time>
      </trkpt>
      <trkpt lat="64.92028" lon="11.72">
        <ele>71.428598</ele>
        <time>2020-08-12T08:45:22.725Z</time>
      </trkpt>
      <trkpt lat="64.92034" lon="11.72018">
        <ele>71.941686</ele>
        <time>2020-08-12T08:45:24.725Z</time>
      </trkpt>
      <trkpt lat="64.9204" lon="11.72036">
        <ele>72.411336</ele>
        <time>2020-08-12T08:45:26.735Z</time>
      </trkpt>
      <trkpt lat="64.92048" lon="11.7206">
        <ele>73.045416</ele>
        <time>2020-08-12T08:45:29.749Z</time>
      </trkpt>
      <trkpt lat="64.92054" lon="11.72079">
        <ele>73.569591</ele>
        <time>2020-08-12T08:45:32.724Z</time>
      </trkpt>
      <trkpt lat="64.9206" lon="11.72097">
        <ele>74.024633</ele>
        <time>2020-08-12T08:45:35.777Z</time>
      </trkpt>
      <trkpt lat="64.92066" lon="11.72118">
        <ele>74.572716</ele>
        <time>2020-08-12T08:45:39.738Z</time>
      </trkpt>
      <trkpt lat="64.92073" lon="11.72138">
        <ele>75.114528</ele>
        <time>2020-08-12T08:45:44.729Z</time>
      </trkpt>
      <trkpt lat="64.92079" lon="11.72158">
        <ele>75.64189</ele>
        <time>2020-08-12T08:45:49.725Z</time>
      </trkpt>
      <trkpt lat="64.92086" lon="11.72178">
        <ele>76.179187</ele>
        <time>2020-08-12T08:45:54.743Z</time>
      </trkpt>
      <trkpt lat="64.92092" lon="11.72196">
        <ele>76.664719</ele>
        <time>2020-08-12T08:45:59.754Z</time>
      </trkpt>
      <trkpt lat="64.921" lon="11.72212">
        <ele>77.175446</ele>
        <time>2020-08-12T08:46:04.732Z</time>
      </trkpt>
      <trkpt lat="64.92109" lon="11.72229">
        <ele>77.730476</ele>
        <time>2020-08-12T08:46:09.740Z</time>
      </trkpt>
      <trkpt lat="64.92116" lon="11.72243">
        <ele>78.221669</ele>
        <time>2020-08-12T08:46:14.761Z</time>
      </trkpt>
      <trkpt lat="64.92126" lon="11.72255">
        <ele>78.765313</ele>
        <time>2020-08-12T08:46:19.736Z</time>
      </trkpt>
      <trkpt lat="64.92134" lon="11.72264">
        <ele>79.223189</ele>
        <time>2020-08-12T08:46:23.725Z</time>
      </trkpt>
      <trkpt lat="64.92143" lon="11.72269">
        <ele>79.046227</ele>
        <time>2020-08-12T08:46:27.733Z</time>
      </trkpt>
      <trkpt lat="64.92153" lon="11.72274">
        <ele>78.704859</ele>
        <time>2020-08-12T08:46:32.714Z</time>
      </trkpt>
      <trkpt lat="64.92162" lon="11.72278">
        <ele>78.370364</ele>
        <time>2020-08-12T08:46:36.758Z</time>
      </trkpt>
      <trkpt lat="64.92172" lon="11.72282">
        <ele>78.045587</ele>
        <time>2020-08-12T08:46:39.745Z</time>
      </trkpt>
      <trkpt lat="64.92182" lon="11.72288">
        <ele>77.682498</ele>
        <time>2020-08-12T08:46:42.759Z</time>
      </trkpt>
      <trkpt lat="64.92193" lon="11.723">
        <ele>77.24225</ele>
        <time>2020-08-12T08:46:45.763Z</time>
      </trkpt>
      <trkpt lat="64.92203" lon="11.72311">
        <ele>76.8451</ele>
        <time>2020-08-12T08:46:47.738Z</time>
      </trkpt>
      <trkpt lat="64.92212" lon="11.72327">
        <ele>76.475002</ele>
        <time>2020-08-12T08:46:49.728Z</time>
      </trkpt>
      <trkpt lat="64.9222" lon="11.72344">
        <ele>76.087315</ele>
        <time>2020-08-12T08:46:51.720Z</time>
      </trkpt>
      <trkpt lat="64.92229" lon="11.72362">
        <ele>75.682404</ele>
        <time>2020-08-12T08:46:53.734Z</time>
      </trkpt>
      <trkpt lat="64.92236" lon="11.72383">
        <ele>75.283286</ele>
        <time>2020-08-12T08:46:55.730Z</time>
      </trkpt>
      <trkpt lat="64.92243" lon="11.72406">
        <ele>74.863585</ele>
        <time>2020-08-12T08:46:57.732Z</time>
      </trkpt>
      <trkpt lat="64.9225" lon="11.72431">
        <ele>74.425878</ele>
        <time>2020-08-12T08:46:59.752Z</time>
      </trkpt>
      <trkpt lat="64.92256" lon="11.72456">
        <ele>73.988159</ele>
        <time>2020-08-12T08:47:01.737Z</time>
      </trkpt>
      <trkpt lat="64.92264" lon="11.72482">
        <ele>73.524549</ele>
        <time>2020-08-12T08:47:03.739Z</time>
      </trkpt>
      <trkpt lat="64.9227" lon="11.72507">
        <ele>73.09311</ele>
        <time>2020-08-12T08:47:05.749Z</time>
      </trkpt>
      <trkpt lat="64.92277" lon="11.7253">
        <ele>72.897454</ele>
        <time>2020-08-12T08:47:07.797Z</time>
      </trkpt>
      <trkpt lat="64.92283" lon="11.72552">
        <ele>72.756321</ele>
        <time>2020-08-12T08:47:09.773Z</time>
      </trkpt>
      <trkpt lat="64.9229" lon="11.72574">
        <ele>72.610154</ele>
        <time>2020-08-12T08:47:11.752Z</time>
      </trkpt>
      <trkpt lat="64.92296" lon="11.72596">
        <ele>72.474186</ele>
        <time>2020-08-12T08:47:13.736Z</time>
      </trkpt>
      <trkpt lat="64.92302" lon="11.72618">
        <ele>72.340879</ele>
        <time>2020-08-12T08:47:15.733Z</time>
      </trkpt>
      <trkpt lat="64.92308" lon="11.72639">
        <ele>72.20625</ele>
        <time>2020-08-12T08:47:17.771Z</time>
      </trkpt>
      <trkpt lat="64.92313" lon="11.72661">
        <ele>72.072944</ele>
        <time>2020-08-12T08:47:19.725Z</time>
      </trkpt>
      <trkpt lat="64.92319" lon="11.72683">
        <ele>71.931373</ele>
        <time>2020-08-12T08:47:21.727Z</time>
      </trkpt>
      <trkpt lat="64.92326" lon="11.72706">
        <ele>71.788274</ele>
        <time>2020-08-12T08:47:23.751Z</time>
      </trkpt>
      <trkpt lat="64.92332" lon="11.72728">
        <ele>71.650748</ele>
        <time>2020-08-12T08:47:25.747Z</time>
      </trkpt>
      <trkpt lat="64.92337" lon="11.7275">
        <ele>71.516732</ele>
        <time>2020-08-12T08:47:27.732Z</time>
      </trkpt>
      <trkpt lat="64.92343" lon="11.72772">
        <ele>71.379982</ele>
        <time>2020-08-12T08:47:29.746Z</time>
      </trkpt>
      <trkpt lat="64.92349" lon="11.72793">
        <ele>71.244625</ele>
        <time>2020-08-12T08:47:31.752Z</time>
      </trkpt>
      <trkpt lat="64.92354" lon="11.72814">
        <ele>71.114874</ele>
        <time>2020-08-12T08:47:33.765Z</time>
      </trkpt>
      <trkpt lat="64.92359" lon="11.72836">
        <ele>70.985287</ele>
        <time>2020-08-12T08:47:35.748Z</time>
      </trkpt>
      <trkpt lat="64.92363" lon="11.72857">
        <ele>70.861239</ele>
        <time>2020-08-12T08:47:37.723Z</time>
      </trkpt>
      <trkpt lat="64.92367" lon="11.72877">
        <ele>70.859883</ele>
        <time>2020-08-12T08:47:39.747Z</time>
      </trkpt>
      <trkpt lat="64.92372" lon="11.72904">
        <ele>71.190545</ele>
        <time>2020-08-12T08:47:42.744Z</time>
      </trkpt>
      <trkpt lat="64.92377" lon="11.72925">
        <ele>71.47696</ele>
        <time>2020-08-12T08:47:45.749Z</time>
      </trkpt>
      <trkpt lat="64.92381" lon="11.72946">
        <ele>71.731935</ele>
        <time>2020-08-12T08:47:48.736Z</time>
      </trkpt>
      <trkpt lat="64.92385" lon="11.72965">
        <ele>71.975571</ele>
        <time>2020-08-12T08:47:51.737Z</time>
      </trkpt>
      <trkpt lat="64.9239" lon="11.72989">
        <ele>72.285378</ele>
        <time>2020-08-12T08:47:55.742Z</time>
      </trkpt>
      <trkpt lat="64.92395" lon="11.73014">
        <ele>72.587573</ele>
        <time>2020-08-12T08:47:59.746Z</time>
      </trkpt>
      <trkpt lat="64.92398" lon="11.73039">
        <ele>72.891478</ele>
        <time>2020-08-12T08:48:03.736Z</time>
      </trkpt>
      <trkpt lat="64.92402" lon="11.73061">
        <ele>73.172613</ele>
        <time>2020-08-12T08:48:07.742Z</time>
      </trkpt>
      <trkpt lat="64.92405" lon="11.73084">
        <ele>73.444533</ele>
        <time>2020-08-12T08:48:11.735Z</time>
      </trkpt>
      <trkpt lat="64.92408" lon="11.73108">
        <ele>73.722973</ele>
        <time>2020-08-12T08:48:15.731Z</time>
      </trkpt>
      <trkpt lat="64.92411" lon="11.73133">
        <ele>74.020526</ele>
        <time>2020-08-12T08:48:19.758Z</time>
      </trkpt>
      <trkpt lat="64.92413" lon="11.73156">
        <ele>74.294111</ele>
        <time>2020-08-12T08:48:23.731Z</time>
      </trkpt>
      <trkpt lat="64.92416" lon="11.73178">
        <ele>74.55758</ele>
        <time>2020-08-12T08:48:27.732Z</time>
      </trkpt>
      <trkpt lat="64.92418" lon="11.73204">
        <ele>74.855171</ele>
        <time>2020-08-12T08:48:32.730Z</time>
      </trkpt>
      <trkpt lat="64.9242" lon="11.73229">
        <ele>75.147415</ele>
        <time>2020-08-12T08:48:37.787Z</time>
      </trkpt>
      <trkpt lat="64.92422" lon="11.73253">
        <ele>75.429588</ele>
        <time>2020-08-12T08:48:42.760Z</time>
      </trkpt>
      <trkpt lat="64.92425" lon="11.73276">
        <ele>75.857913</ele>
        <time>2020-08-12T08:48:47.778Z</time>
      </trkpt>
      <trkpt lat="64.92428" lon="11.73299">
        <ele>76.763452</ele>
        <time>2020-08-12T08:48:52.733Z</time>
      </trkpt>
      <trkpt lat="64.92432" lon="11.7332">
        <ele>77.634737</ele>
        <time>2020-08-12T08:48:57.740Z</time>
      </trkpt>
      <trkpt lat="64.92437" lon="11.73341">
        <ele>78.55217</ele>
        <time>2020-08-12T08:49:02.777Z</time>
      </trkpt>
      <trkpt lat="64.92443" lon="11.73364">
        <ele>79.539301</ele>
        <time>2020-08-12T08:49:07.749Z</time>
      </trkpt>
      <trkpt lat="64.92447" lon="11.73386">
        <ele>80.462861</ele>
        <time>2020-08-12T08:49:12.725Z</time>
      </trkpt>
      <trkpt lat="64.92452" lon="11.73405">
        <ele>81.340287</ele>
        <time>2020-08-12T08:49:17.741Z</time>
      </trkpt>
      <trkpt lat="64.92457" lon="11.73426">
        <ele>82.21161</ele>
        <time>2020-08-12T08:49:22.721Z</time>
      </trkpt>
      <trkpt lat="64.92462" lon="11.73446">
        <ele>83.067115</ele>
        <time>2020-08-12T08:49:27.728Z</time>
      </trkpt>
      <trkpt lat="64.92466" lon="11.73467">
        <ele>83.960232</ele>
        <time>2020-08-12T08:49:33.746Z</time>
      </trkpt>
      <trkpt lat="64.92471" lon="11.73488">
        <ele>84.879761</ele>
        <time>2020-08-12T08:49:39.730Z</time>
      </trkpt>
      <trkpt lat="64.92477" lon="11.73507">
        <ele>85.749592</ele>
        <time>2020-08-12T08:49:44.734Z</time>
      </trkpt>
      <trkpt lat="64.92481" lon="11.73528">
        <ele>86.613675</ele>
        <time>2020-08-12T08:49:49.733Z</time>
      </trkpt>
      <trkpt lat="64.92486" lon="11.73547">
        <ele>87.461125</ele>
        <time>2020-08-12T08:49:54.737Z</time>
      </trkpt>
      <trkpt lat="64.9249" lon="11.73567">
        <ele>88.306589</ele>
        <time>2020-08-12T08:49:59.737Z</time>
      </trkpt>
      <trkpt lat="64.92494" lon="11.73588">
        <ele>89.160436</ele>
        <time>2020-08-12T08:50:04.794Z</time>
      </trkpt>
      <trkpt lat="64.92499" lon="11.73608">
        <ele>90.040837</ele>
        <time>2020-08-12T08:50:09.743Z</time>
      </trkpt>
      <trkpt lat="64.92504" lon="11.7363">
        <ele>90.984239</ele>
        <time>2020-08-12T08:50:15.737Z</time>
      </trkpt>
      <trkpt lat="64.92509" lon="11.73652">
        <ele>91.679849</ele>
        <time>2020-08-12T08:50:21.717Z</time>
      </trkpt>
      <trkpt lat="64.92514" lon="11.73674">
        <ele>91.853075</ele>
        <time>2020-08-12T08:50:26.728Z</time>
      </trkpt>
      <trkpt lat="64.92519" lon="11.73693">
        <ele>92.012254</ele>
        <time>2020-08-12T08:50:31.734Z</time>
      </trkpt>
      <trkpt lat="64.92524" lon="11.73712">
        <ele>92.174165</ele>
        <time>2020-08-12T08:50:36.741Z</time>
      </trkpt>
      <trkpt lat="64.92529" lon="11.73734">
        <ele>92.346118</ele>
        <time>2020-08-12T08:50:41.719Z</time>
      </trkpt>
      <trkpt lat="64.92533" lon="11.73752">
        <ele>92.497112</ele>
        <time>2020-08-12T08:50:45.744Z</time>
      </trkpt>
      <trkpt lat="64.92538" lon="11.73771">
        <ele>92.651527</ele>
        <time>2020-08-12T08:50:49.728Z</time>
      </trkpt>
      <trkpt lat="64.92544" lon="11.73788">
        <ele>92.813775</ele>
        <time>2020-08-12T08:50:53.726Z</time>
      </trkpt>
      <trkpt lat="64.9255" lon="11.73808">
        <ele>92.981578</ele>
        <time>2020-08-12T08:50:57.763Z</time>
      </trkpt>
      <trkpt lat="64.92558" lon="11.73823">
        <ele>93.16541</ele>
        <time>2020-08-12T08:51:01.737Z</time>
      </trkpt>
      <trkpt lat="64.92567" lon="11.73842">
        <ele>93.360712</ele>
        <time>2020-08-12T08:51:05.744Z</time>
      </trkpt>
      <trkpt lat="64.92574" lon="11.73858">
        <ele>93.524916</ele>
        <time>2020-08-12T08:51:08.753Z</time>
      </trkpt>
      <trkpt lat="64.92582" lon="11.73875">
        <ele>93.7063</ele>
        <time>2020-08-12T08:51:11.741Z</time>
      </trkpt>
      <trkpt lat="64.92591" lon="11.73892">
        <ele>93.896345</ele>
        <time>2020-08-12T08:51:14.722Z</time>
      </trkpt>
      <trkpt lat="64.92601" lon="11.73912">
        <ele>94.110688</ele>
        <time>2020-08-12T08:51:17.738Z</time>
      </trkpt>
      <trkpt lat="64.92607" lon="11.73927">
        <ele>94.264109</ele>
        <time>2020-08-12T08:51:19.729Z</time>
      </trkpt>
      <trkpt lat="64.92613" lon="11.73944">
        <ele>94.42487</ele>
        <time>2020-08-12T08:51:21.735Z</time>
      </trkpt>
      <trkpt lat="64.92621" lon="11.73963">
        <ele>94.605586</ele>
        <time>2020-08-12T08:51:23.747Z</time>
      </trkpt>
      <trkpt lat="64.92628" lon="11.73984">
        <ele>94.146469</ele>
        <time>2020-08-12T08:51:25.746Z</time>
      </trkpt>
      <trkpt lat="64.92635" lon="11.74009">
        <ele>93.488582</ele>
        <time>2020-08-12T08:51:27.724Z</time>
      </trkpt>
      <trkpt lat="64.92641" lon="11.74035">
        <ele>92.839925</ele>
        <time>2020-08-12T08:51:29.742Z</time>
      </trkpt>
      <trkpt lat="64.92646" lon="11.7406">
        <ele>92.217967</ele>
        <time>2020-08-12T08:51:31.764Z</time>
      </trkpt>
      <trkpt lat="64.92652" lon="11.74085">
        <ele>91.609239</ele>
        <time>2020-08-12T08:51:33.751Z</time>
      </trkpt>
      <trkpt lat="64.92656" lon="11.7411">
        <ele>91.010764</ele>
        <time>2020-08-12T08:51:35.763Z</time>
      </trkpt>
      <trkpt lat="64.92661" lon="11.74137">
        <ele>90.361011</ele>
        <time>2020-08-12T08:51:37.741Z</time>
      </trkpt>
      <trkpt lat="64.92665" lon="11.74167">
        <ele>89.678515</ele>
        <time>2020-08-12T08:51:39.737Z</time>
      </trkpt>
      <trkpt lat="64.9267" lon="11.74195">
        <ele>89.023271</ele>
        <time>2020-08-12T08:51:41.737Z</time>
      </trkpt>
      <trkpt lat="64.92675" lon="11.74219">
        <ele>88.432162</ele>
        <time>2020-08-12T08:51:43.745Z</time>
      </trkpt>
      <trkpt lat="64.92679" lon="11.74241">
        <ele>87.888102</ele>
        <time>2020-08-12T08:51:45.746Z</time>
      </trkpt>
      <trkpt lat="64.92683" lon="11.74263">
        <ele>87.374632</ele>
        <time>2020-08-12T08:51:47.743Z</time>
      </trkpt>
      <trkpt lat="64.92686" lon="11.74283">
        <ele>86.897553</ele>
        <time>2020-08-12T08:51:49.745Z</time>
      </trkpt>
      <trkpt lat="64.9269" lon="11.74303">
        <ele>86.418172</ele>
        <time>2020-08-12T08:51:51.792Z</time>
      </trkpt>
      <trkpt lat="64.92696" lon="11.74329">
        <ele>85.766643</ele>
        <time>2020-08-12T08:51:54.742Z</time>
      </trkpt>
      <trkpt lat="64.927" lon="11.74355">
        <ele>85.317315</ele>
        <time>2020-08-12T08:51:57.747Z</time>
      </trkpt>
      <trkpt lat="64.92704" lon="11.74379">
        <ele>85.307589</ele>
        <time>2020-08-12T08:52:00.741Z</time>
      </trkpt>
      <trkpt lat="64.92708" lon="11.74405">
        <ele>85.297215</ele>
        <time>2020-08-12T08:52:03.734Z</time>
      </trkpt>
      <trkpt lat="64.92712" lon="11.74431">
        <ele>85.287205</ele>
        <time>2020-08-12T08:52:06.729Z</time>
      </trkpt>
      <trkpt lat="64.92716" lon="11.74457">
        <ele>85.276865</ele>
        <time>2020-08-12T08:52:09.727Z</time>
      </trkpt>
      <trkpt lat="64.9272" lon="11.74483">
        <ele>85.26639</ele>
        <time>2020-08-12T08:52:12.747Z</time>
      </trkpt>
      <trkpt lat="64.92726" lon="11.74509">
        <ele>85.255643</ele>
        <time>2020-08-12T08:52:15.733Z</time>
      </trkpt>
      <trkpt lat="64.92731" lon="11.74535">
        <ele>85.245016</ele>
        <time>2020-08-12T08:52:18.733Z</time>
      </trkpt>
      <trkpt lat="64.92736" lon="11.7456">
        <ele>85.234567</ele>
        <time>2020-08-12T08:52:21.733Z</time>
      </trkpt>
      <trkpt lat="64.92743" lon="11.74586">
        <ele>85.223246</ele>
        <time>2020-08-12T08:52:24.749Z</time>
      </trkpt>
      <trkpt lat="64.92749" lon="11.74604">
        <ele>85.214702</ele>
        <time>2020-08-12T08:52:26.730Z</time>
      </trkpt>
      <trkpt lat="64.92755" lon="11.74621">
        <ele>85.206529</ele>
        <time>2020-08-12T08:52:28.749Z</time>
      </trkpt>
      <trkpt lat="64.92761" lon="11.74639">
        <ele>85.197968</ele>
        <time>2020-08-12T08:52:30.742Z</time>
      </trkpt>
      <trkpt lat="64.92768" lon="11.74658">
        <ele>85.188925</ele>
        <time>2020-08-12T08:52:32.726Z</time>
      </trkpt>
      <trkpt lat="64.92775" lon="11.74678">
        <ele>85.17906</ele>
        <time>2020-08-12T08:52:34.736Z</time>
      </trkpt>
      <trkpt lat="64.92783" lon="11.747">
        <ele>85.167969</ele>
        <time>2020-08-12T08:52:36.729Z</time>
      </trkpt>
      <trkpt lat="64.92793" lon="11.74724">
        <ele>84.968527</ele>
        <time>2020-08-12T08:52:38.726Z</time>
      </trkpt>
      <trkpt lat="64.92802" lon="11.74749">
        <ele>84.577797</ele>
        <time>2020-08-12T08:52:40.764Z</time>
      </trkpt>
      <trkpt lat="64.92812" lon="11.74774">
        <ele>84.184462</ele>
        <time>2020-08-12T08:52:42.752Z</time>
      </trkpt>
      <trkpt lat="64.92821" lon="11.74799">
        <ele>83.794317</ele>
        <time>2020-08-12T08:52:44.760Z</time>
      </trkpt>
      <trkpt lat="64.92832" lon="11.74823">
        <ele>83.396519</ele>
        <time>2020-08-12T08:52:46.734Z</time>
      </trkpt>
      <trkpt lat="64.92843" lon="11.74846">
        <ele>82.974637</ele>
        <time>2020-08-12T08:52:48.718Z</time>
      </trkpt>
      <trkpt lat="64.92856" lon="11.74866">
        <ele>82.552718</ele>
        <time>2020-08-12T08:52:50.734Z</time>
      </trkpt>
      <trkpt lat="64.9287" lon="11.74882">
        <ele>82.142006</ele>
        <time>2020-08-12T08:52:52.732Z</time>
      </trkpt>
      <trkpt lat="64.92881" lon="11.74899">
        <ele>81.77418</ele>
        <time>2020-08-12T08:52:54.724Z</time>
      </trkpt>
      <trkpt lat="64.9289" lon="11.74915">
        <ele>81.462427</ele>
        <time>2020-08-12T08:52:56.752Z</time>
      </trkpt>
      <trkpt lat="64.92899" lon="11.7493">
        <ele>81.173881</ele>
        <time>2020-08-12T08:52:58.742Z</time>
      </trkpt>
      <trkpt lat="64.92906" lon="11.74943">
        <ele>80.908387</ele>
        <time>2020-08-12T08:53:00.730Z</time>
      </trkpt>
      <trkpt lat="64.92916" lon="11.74964">
        <ele>80.548162</ele>
        <time>2020-08-12T08:53:03.745Z</time>
      </trkpt>
      <trkpt lat="64.92925" lon="11.74982">
        <ele>80.217791</ele>
        <time>2020-08-12T08:53:06.759Z</time>
      </trkpt>
      <trkpt lat="64.92935" lon="11.75001">
        <ele>80.05644</ele>
        <time>2020-08-12T08:53:09.720Z</time>
      </trkpt>
      <trkpt lat="64.92942" lon="11.75016">
        <ele>79.93936</ele>
        <time>2020-08-12T08:53:11.773Z</time>
      </trkpt>
      <trkpt lat="64.9295" lon="11.7503">
        <ele>79.813363</ele>
        <time>2020-08-12T08:53:13.737Z</time>
      </trkpt>
      <trkpt lat="64.92958" lon="11.75046">
        <ele>79.683909</ele>
        <time>2020-08-12T08:53:15.733Z</time>
      </trkpt>
      <trkpt lat="64.92965" lon="11.75062">
        <ele>79.552079</ele>
        <time>2020-08-12T08:53:17.744Z</time>
      </trkpt>
      <trkpt lat="64.92974" lon="11.75079">
        <ele>79.414989</ele>
        <time>2020-08-12T08:53:19.785Z</time>
      </trkpt>
      <trkpt lat="64.92982" lon="11.75095">
        <ele>79.279916</ele>
        <time>2020-08-12T08:53:21.745Z</time>
      </trkpt>
      <trkpt lat="64.9299" lon="11.7511">
        <ele>79.142527</ele>
        <time>2020-08-12T08:53:23.749Z</time>
      </trkpt>
      <trkpt lat="64.92999" lon="11.75126">
        <ele>79.008149</ele>
        <time>2020-08-12T08:53:25.742Z</time>
      </trkpt>
      <trkpt lat="64.93006" lon="11.75142">
        <ele>78.879184</ele>
        <time>2020-08-12T08:53:27.750Z</time>
      </trkpt>
      <trkpt lat="64.93013" lon="11.75159">
        <ele>78.752257</ele>
        <time>2020-08-12T08:53:29.733Z</time>
      </trkpt>
      <trkpt lat="64.9302" lon="11.75174">
        <ele>78.635085</ele>
        <time>2020-08-12T08:53:31.754Z</time>
      </trkpt>
      <trkpt lat="64.93026" lon="11.7519">
        <ele>78.517531</ele>
        <time>2020-08-12T08:53:33.746Z</time>
      </trkpt>
      <trkpt lat="64.93033" lon="11.75205">
        <ele>78.397261</ele>
        <time>2020-08-12T08:53:35.731Z</time>
      </trkpt>
      <trkpt lat="64.93042" lon="11.75228">
        <ele>78.229202</ele>
        <time>2020-08-12T08:53:38.729Z</time>
      </trkpt>
      <trkpt lat="64.93051" lon="11.75249">
        <ele>78.070995</ele>
        <time>2020-08-12T08:53:41.736Z</time>
      </trkpt>
      <trkpt lat="64.93058" lon="11.75271">
        <ele>77.955391</ele>
        <time>2020-08-12T08:53:44.746Z</time>
      </trkpt>
      <trkpt lat="64.93066" lon="11.75294">
        <ele>78.132913</ele>
        <time>2020-08-12T08:53:47.744Z</time>
      </trkpt>
      <trkpt lat="64.93073" lon="11.75318">
        <ele>78.316958</ele>
        <time>2020-08-12T08:53:50.776Z</time>
      </trkpt>
      <trkpt lat="64.9308" lon="11.75343">
        <ele>78.505419</ele>
        <time>2020-08-12T08:53:53.738Z</time>
      </trkpt>
      <trkpt lat="64.93088" lon="11.75367">
        <ele>78.687618</ele>
        <time>2020-08-12T08:53:56.754Z</time>
      </trkpt>
      <trkpt lat="64.93095" lon="11.7539">
        <ele>78.859171</ele>
        <time>2020-08-12T08:53:59.755Z</time>
      </trkpt>
      <trkpt lat="64.93101" lon="11.75409">
        <ele>79.010095</ele>
        <time>2020-08-12T08:54:02.749Z</time>
      </trkpt>
      <trkpt lat="64.93107" lon="11.75428">
        <ele>79.154198</ele>
        <time>2020-08-12T08:54:05.732Z</time>
      </trkpt>
      <trkpt lat="64.93115" lon="11.75446">
        <ele>79.315735</ele>
        <time>2020-08-12T08:54:08.763Z</time>
      </trkpt>
      <trkpt lat="64.93123" lon="11.75465">
        <ele>79.476407</ele>
        <time>2020-08-12T08:54:11.744Z</time>
      </trkpt>
      <trkpt lat="64.9313" lon="11.75484">
        <ele>79.628907</ele>
        <time>2020-08-12T08:54:14.726Z</time>
      </trkpt>
      <trkpt lat="64.93137" lon="11.755">
        <ele>79.771397</ele>
        <time>2020-08-12T08:54:17.748Z</time>
      </trkpt>
      <trkpt lat="64.93144" lon="11.75515">
        <ele>79.9152</ele>
        <time>2020-08-12T08:54:20.746Z</time>
      </trkpt>
      <trkpt lat="64.93152" lon="11.7553">
        <ele>80.062496</ele>
        <time>2020-08-12T08:54:23.732Z</time>
      </trkpt>
      <trkpt lat="64.9316" lon="11.75547">
        <ele>80.21752</ele>
        <time>2020-08-12T08:54:26.746Z</time>
      </trkpt>
      <trkpt lat="64.93168" lon="11.75562">
        <ele>80.36888</ele>
        <time>2020-08-12T08:54:29.739Z</time>
      </trkpt>
      <trkpt lat="64.93176" lon="11.75579">
        <ele>80.523785</ele>
        <time>2020-08-12T08:54:32.761Z</time>
      </trkpt>
      <trkpt lat="64.93184" lon="11.75595">
        <ele>80.909548</ele>
        <time>2020-08-12T08:54:35.748Z</time>
      </trkpt>
      <trkpt lat="64.93192" lon="11.7561">
        <ele>81.318922</ele>
        <time>2020-08-12T08:54:38.732Z</time>
      </trkpt>
      <trkpt lat="64.932" lon="11.75625">
        <ele>81.725613</ele>
        <time>2020-08-12T08:54:41.788Z</time>
      </trkpt>
      <trkpt lat="64.93208" lon="11.75639">
        <ele>82.127827</ele>
        <time>2020-08-12T08:54:44.752Z</time>
      </trkpt>
      <trkpt lat="64.93216" lon="11.75651">
        <ele>82.517772</ele>
        <time>2020-08-12T08:54:47.718Z</time>
      </trkpt>
      <trkpt lat="64.93223" lon="11.75666">
        <ele>82.905023</ele>
        <time>2020-08-12T08:54:50.744Z</time>
      </trkpt>
      <trkpt lat="64.9323" lon="11.7568">
        <ele>83.288054</ele>
        <time>2020-08-12T08:54:53.722Z</time>
      </trkpt>
      <trkpt lat="64.93239" lon="11.75696">
        <ele>83.734975</ele>
        <time>2020-08-12T08:54:57.744Z</time>
      </trkpt>
      <trkpt lat="64.93248" lon="11.75712">
        <ele>84.213423</ele>
        <time>2020-08-12T08:55:01.730Z</time>
      </trkpt>
      <trkpt lat="64.93256" lon="11.75727">
        <ele>84.642008</ele>
        <time>2020-08-12T08:55:05.739Z</time>
      </trkpt>
      <trkpt lat="64.93265" lon="11.75744">
        <ele>85.101583</ele>
        <time>2020-08-12T08:55:09.747Z</time>
      </trkpt>
      <trkpt lat="64.93273" lon="11.75763">
        <ele>85.560917</ele>
        <time>2020-08-12T08:55:13.733Z</time>
      </trkpt>
      <trkpt lat="64.93281" lon="11.75783">
        <ele>86.025159</ele>
        <time>2020-08-12T08:55:17.761Z</time>
      </trkpt>
      <trkpt lat="64.93287" lon="11.75804">
        <ele>86.476115</ele>
        <time>2020-08-12T08:55:21.738Z</time>
      </trkpt>
      <trkpt lat="64.93292" lon="11.75825">
        <ele>86.886619</ele>
        <time>2020-08-12T08:55:25.726Z</time>
      </trkpt>
      <trkpt lat="64.93296" lon="11.75845">
        <ele>87.268734</ele>
        <time>2020-08-12T08:55:29.726Z</time>
      </trkpt>
      <trkpt lat="64.93301" lon="11.75869">
        <ele>87.725446</ele>
        <time>2020-08-12T08:55:34.743Z</time>
      </trkpt>
      <trkpt lat="64.93305" lon="11.75889">
        <ele>88.156892</ele>
        <time>2020-08-12T08:55:38.730Z</time>
      </trkpt>
      <trkpt lat="64.9331" lon="11.75912">
        <ele>88.684211</ele>
        <time>2020-08-12T08:55:43.741Z</time>
      </trkpt>
      <trkpt lat="64.93315" lon="11.75936">
        <ele>89.216891</ele>
        <time>2020-08-12T08:55:48.733Z</time>
      </trkpt>
      <trkpt lat="64.9332" lon="11.75959">
        <ele>89.741581</ele>
        <time>2020-08-12T08:55:53.770Z</time>
      </trkpt>
      <trkpt lat="64.93324" lon="11.75978">
        <ele>90.176481</ele>
        <time>2020-08-12T08:55:57.729Z</time>
      </trkpt>
      <trkpt lat="64.9333" lon="11.75999">
        <ele>90.687773</ele>
        <time>2020-08-12T08:56:02.722Z</time>
      </trkpt>
      <trkpt lat="64.93336" lon="11.76022">
        <ele>91.225524</ele>
        <time>2020-08-12T08:56:07.756Z</time>
      </trkpt>
      <trkpt lat="64.93341" lon="11.76041">
        <ele>91.667772</ele>
        <time>2020-08-12T08:56:11.751Z</time>
      </trkpt>
      <trkpt lat="64.93345" lon="11.7606">
        <ele>92.120467</ele>
        <time>2020-08-12T08:56:15.729Z</time>
      </trkpt>
      <trkpt lat="64.93351" lon="11.76083">
        <ele>92.665895</ele>
        <time>2020-08-12T08:56:20.737Z</time>
      </trkpt>
      <trkpt lat="64.93358" lon="11.76103">
        <ele>93.177354</ele>
        <time>2020-08-12T08:56:25.752Z</time>
      </trkpt>
      <trkpt lat="64.93364" lon="11.76124">
        <ele>93.688003</ele>
        <time>2020-08-12T08:56:30.748Z</time>
      </trkpt>
      <trkpt lat="64.93369" lon="11.76143">
        <ele>94.146792</ele>
        <time>2020-08-12T08:56:34.748Z</time>
      </trkpt>
      <trkpt lat="64.93375" lon="11.76164">
        <ele>94.659792</ele>
        <time>2020-08-12T08:56:39.749Z</time>
      </trkpt>
      <trkpt lat="64.9338" lon="11.76183">
        <ele>95.10132</ele>
        <time>2020-08-12T08:56:43.746Z</time>
      </trkpt>
      <trkpt lat="64.93385" lon="11.76202">
        <ele>95.574469</ele>
        <time>2020-08-12T08:56:47.730Z</time>
      </trkpt>
      <trkpt lat="64.9339" lon="11.76222">
        <ele>96.032377</ele>
        <time>2020-08-12T08:56:51.762Z</time>
      </trkpt>
      <trkpt lat="64.93396" lon="11.76244">
        <ele>96.46889</ele>
        <time>2020-08-12T08:56:56.741Z</time>
      </trkpt>
      <trkpt lat="64.93402" lon="11.76264">
        <ele>96.460503</ele>
        <time>2020-08-12T08:57:00.756Z</time>
      </trkpt>
      <trkpt lat="64.93408" lon="11.76287">
        <ele>96.451205</ele>
        <time>2020-08-12T08:57:04.741Z</time>
      </trkpt>
      <trkpt lat="64.93414" lon="11.7631">
        <ele>96.442037</ele>
        <time>2020-08-12T08:57:08.759Z</time>
      </trkpt>
      <trkpt lat="64.93422" lon="11.76327">
        <ele>96.433306</ele>
        <time>2020-08-12T08:57:12.738Z</time>
      </trkpt>
      <trkpt lat="64.93431" lon="11.76343">
        <ele>96.424214</ele>
        <time>2020-08-12T08:57:16.750Z</time>
      </trkpt>
      <trkpt lat="64.93439" lon="11.76353">
        <ele>96.416771</ele>
        <time>2020-08-12T08:57:19.790Z</time>
      </trkpt>
      <trkpt lat="64.93449" lon="11.76365">
        <ele>96.407925</ele>
        <time>2020-08-12T08:57:23.757Z</time>
      </trkpt>
      <trkpt lat="64.93459" lon="11.76376">
        <ele>96.398957</ele>
        <time>2020-08-12T08:57:27.738Z</time>
      </trkpt>
      <trkpt lat="64.9347" lon="11.76387">
        <ele>96.389386</ele>
        <time>2020-08-12T08:57:31.747Z</time>
      </trkpt>
      <trkpt lat="64.9348" lon="11.76397">
        <ele>96.380262</ele>
        <time>2020-08-12T08:57:35.792Z</time>
      </trkpt>
      <trkpt lat="64.93489" lon="11.7641">
        <ele>96.371737</ele>
        <time>2020-08-12T08:57:39.735Z</time>
      </trkpt>
      <trkpt lat="64.93499" lon="11.76427">
        <ele>96.362</ele>
        <time>2020-08-12T08:57:43.760Z</time>
      </trkpt>
      <trkpt lat="64.93508" lon="11.76445">
        <ele>96.352389</ele>
        <time>2020-08-12T08:57:47.732Z</time>
      </trkpt>
      <trkpt lat="64.93516" lon="11.76465">
        <ele>96.342953</ele>
        <time>2020-08-12T08:57:51.796Z</time>
      </trkpt>
      <trkpt lat="64.93523" lon="11.76484">
        <ele>96.334245</ele>
        <time>2020-08-12T08:57:55.732Z</time>
      </trkpt>
      <trkpt lat="64.93528" lon="11.76505">
        <ele>96.325806</ele>
        <time>2020-08-12T08:57:59.738Z</time>
      </trkpt>
      <trkpt lat="64.93533" lon="11.76528">
        <ele>96.26924</ele>
        <time>2020-08-12T08:58:03.764Z</time>
      </trkpt>
      <trkpt lat="64.93537" lon="11.7655">
        <ele>96.209087</ele>
        <time>2020-08-12T08:58:07.726Z</time>
      </trkpt>
      <trkpt lat="64.93544" lon="11.76572">
        <ele>96.141622</ele>
        <time>2020-08-12T08:58:11.748Z</time>
      </trkpt>
      <trkpt lat="64.93552" lon="11.76591">
        <ele>96.074704</ele>
        <time>2020-08-12T08:58:15.763Z</time>
      </trkpt>
      <trkpt lat="64.93559" lon="11.76604">
        <ele>96.019865</ele>
        <time>2020-08-12T08:58:18.736Z</time>
      </trkpt>
      <trkpt lat="64.93567" lon="11.76615">
        <ele>95.966017</ele>
        <time>2020-08-12T08:58:21.737Z</time>
      </trkpt>
      <trkpt lat="64.93576" lon="11.76626">
        <ele>95.905909</ele>
        <time>2020-08-12T08:58:24.766Z</time>
      </trkpt>
      <trkpt lat="64.93586" lon="11.76632">
        <ele>95.844967</ele>
        <time>2020-08-12T08:58:27.725Z</time>
      </trkpt>
      <trkpt lat="64.93596" lon="11.76636">
        <ele>95.784418</ele>
        <time>2020-08-12T08:58:30.726Z</time>
      </trkpt>
      <trkpt lat="64.93605" lon="11.76642">
        <ele>95.731254</ele>
        <time>2020-08-12T08:58:33.730Z</time>
      </trkpt>
      <trkpt lat="64.93615" lon="11.76645">
        <ele>95.671129</ele>
        <time>2020-08-12T08:58:36.733Z</time>
      </trkpt>
      <trkpt lat="64.93625" lon="11.76648">
        <ele>95.610115</ele>
        <time>2020-08-12T08:58:39.737Z</time>
      </trkpt>
      <trkpt lat="64.93636" lon="11.76654">
        <ele>95.543109</ele>
        <time>2020-08-12T08:58:42.714Z</time>
      </trkpt>
      <trkpt lat="64.93648" lon="11.76659">
        <ele>95.468776</ele>
        <time>2020-08-12T08:58:45.731Z</time>
      </trkpt>
      <trkpt lat="64.93661" lon="11.76663">
        <ele>95.391566</ele>
        <time>2020-08-12T08:58:48.729Z</time>
      </trkpt>
      <trkpt lat="64.93675" lon="11.76668">
        <ele>95.311471</ele>
        <time>2020-08-12T08:58:51.733Z</time>
      </trkpt>
      <trkpt lat="64.93684" lon="11.76672">
        <ele>95.247796</ele>
        <time>2020-08-12T08:58:53.744Z</time>
      </trkpt>
      <trkpt lat="64.93697" lon="11.76677">
        <ele>95.030528</ele>
        <time>2020-08-12T08:58:56.784Z</time>
      </trkpt>
      <trkpt lat="64.9371" lon="11.76682">
        <ele>94.81269</ele>
        <time>2020-08-12T08:58:59.753Z</time>
      </trkpt>
      <trkpt lat="64.93723" lon="11.76686">
        <ele>94.604242</ele>
        <time>2020-08-12T08:59:02.753Z</time>
      </trkpt>
      <trkpt lat="64.93735" lon="11.76691">
        <ele>94.401285</ele>
        <time>2020-08-12T08:59:05.743Z</time>
      </trkpt>
      <trkpt lat="64.93747" lon="11.76695">
        <ele>94.206104</ele>
        <time>2020-08-12T08:59:08.731Z</time>
      </trkpt>
      <trkpt lat="64.93758" lon="11.76698">
        <ele>94.026342</ele>
        <time>2020-08-12T08:59:11.748Z</time>
      </trkpt>
      <trkpt lat="64.93769" lon="11.767">
        <ele>93.845618</ele>
        <time>2020-08-12T08:59:14.732Z</time>
      </trkpt>
      <trkpt lat="64.93781" lon="11.76705">
        <ele>93.638592</ele>
        <time>2020-08-12T08:59:17.746Z</time>
      </trkpt>
      <trkpt lat="64.93791" lon="11.76707">
        <ele>93.480303</ele>
        <time>2020-08-12T08:59:19.746Z</time>
      </trkpt>
      <trkpt lat="64.93801" lon="11.7671">
        <ele>93.3085</ele>
        <time>2020-08-12T08:59:21.749Z</time>
      </trkpt>
      <trkpt lat="64.93813" lon="11.76714">
        <ele>93.10988</ele>
        <time>2020-08-12T08:59:23.797Z</time>
      </trkpt>
      <trkpt lat="64.93827" lon="11.76719">
        <ele>92.885017</ele>
        <time>2020-08-12T08:59:25.723Z</time>
      </trkpt>
      <trkpt lat="64.93843" lon="11.76724">
        <ele>92.620813</ele>
        <time>2020-08-12T08:59:27.723Z</time>
      </trkpt>
      <trkpt lat="64.9386" lon="11.7673">
        <ele>92.327167</ele>
        <time>2020-08-12T08:59:29.745Z</time>
      </trkpt>
      <trkpt lat="64.93869" lon="11.76734">
        <ele>92.421276</ele>
        <time>2020-08-12T08:59:30.754Z</time>
      </trkpt>
      <trkpt lat="64.93879" lon="11.76737">
        <ele>92.541829</ele>
        <time>2020-08-12T08:59:31.747Z</time>
      </trkpt>
      <trkpt lat="64.93888" lon="11.7674">
        <ele>92.656176</ele>
        <time>2020-08-12T08:59:32.736Z</time>
      </trkpt>
      <trkpt lat="64.93897" lon="11.76743">
        <ele>92.771408</ele>
        <time>2020-08-12T08:59:33.748Z</time>
      </trkpt>
      <trkpt lat="64.93913" lon="11.76749">
        <ele>92.986387</ele>
        <time>2020-08-12T08:59:35.729Z</time>
      </trkpt>
      <trkpt lat="64.93928" lon="11.76754">
        <ele>93.176062</ele>
        <time>2020-08-12T08:59:37.777Z</time>
      </trkpt>
      <trkpt lat="64.93941" lon="11.76759">
        <ele>93.334681</ele>
        <time>2020-08-12T08:59:39.738Z</time>
      </trkpt>
      <trkpt lat="64.93951" lon="11.76764">
        <ele>93.467728</ele>
        <time>2020-08-12T08:59:41.753Z</time>
      </trkpt>
      <trkpt lat="64.93963" lon="11.76773">
        <ele>93.631129</ele>
        <time>2020-08-12T08:59:44.732Z</time>
      </trkpt>
      <trkpt lat="64.93973" lon="11.76778">
        <ele>93.76402</ele>
        <time>2020-08-12T08:59:47.754Z</time>
      </trkpt>
      <trkpt lat="64.93983" lon="11.76783">
        <ele>93.88505</ele>
        <time>2020-08-12T08:59:51.746Z</time>
      </trkpt>
      <trkpt lat="64.93992" lon="11.76785">
        <ele>94.009822</ele>
        <time>2020-08-12T08:59:57.731Z</time>
      </trkpt>
      <trkpt lat="64.94002" lon="11.76787">
        <ele>94.134858</ele>
        <time>2020-08-12T09:00:03.740Z</time>
      </trkpt>
      <trkpt lat="64.94011" lon="11.7679">
        <ele>94.252896</ele>
        <time>2020-08-12T09:00:08.728Z</time>
      </trkpt>
      <trkpt lat="64.9402" lon="11.76794">
        <ele>94.369119</ele>
        <time>2020-08-12T09:00:14.739Z</time>
      </trkpt>
      <trkpt lat="64.9403" lon="11.768">
        <ele>94.490939</ele>
        <time>2020-08-12T09:00:20.778Z</time>
      </trkpt>
      <trkpt lat="64.94038" lon="11.76805">
        <ele>94.595479</ele>
        <time>2020-08-12T09:00:25.738Z</time>
      </trkpt>
      <trkpt lat="64.94049" lon="11.76809">
        <ele>94.508659</ele>
        <time>2020-08-12T09:00:30.728Z</time>
      </trkpt>
      <trkpt lat="64.94059" lon="11.76813">
        <ele>94.422699</ele>
        <time>2020-08-12T09:00:34.726Z</time>
      </trkpt>
      <trkpt lat="64.94069" lon="11.76816">
        <ele>94.343746</ele>
        <time>2020-08-12T09:00:37.719Z</time>
      </trkpt>
      <trkpt lat="64.94081" lon="11.76817">
        <ele>94.244182</ele>
        <time>2020-08-12T09:00:40.759Z</time>
      </trkpt>
      <trkpt lat="64.94095" lon="11.76817">
        <ele>94.13242</ele>
        <time>2020-08-12T09:00:43.741Z</time>
      </trkpt>
      <trkpt lat="64.94105" lon="11.76816">
        <ele>94.04998</ele>
        <time>2020-08-12T09:00:45.746Z</time>
      </trkpt>
      <trkpt lat="64.94115" lon="11.76813">
        <ele>93.9647</ele>
        <time>2020-08-12T09:00:47.726Z</time>
      </trkpt>
      <trkpt lat="64.94126" lon="11.76809">
        <ele>93.87788</ele>
        <time>2020-08-12T09:00:49.731Z</time>
      </trkpt>
      <trkpt lat="64.94137" lon="11.76803">
        <ele>93.785206</ele>
        <time>2020-08-12T09:00:51.762Z</time>
      </trkpt>
      <trkpt lat="64.94148" lon="11.76795">
        <ele>93.691207</ele>
        <time>2020-08-12T09:00:53.731Z</time>
      </trkpt>
      <trkpt lat="64.94159" lon="11.76789">
        <ele>93.600901</ele>
        <time>2020-08-12T09:00:55.735Z</time>
      </trkpt>
      <trkpt lat="64.94169" lon="11.76781">
        <ele>93.510628</ele>
        <time>2020-08-12T09:00:57.766Z</time>
      </trkpt>
      <trkpt lat="64.9418" lon="11.76774">
        <ele>93.418478</ele>
        <time>2020-08-12T09:00:59.772Z</time>
      </trkpt>
      <trkpt lat="64.94191" lon="11.76767">
        <ele>93.32554</ele>
        <time>2020-08-12T09:01:01.742Z</time>
      </trkpt>
      <trkpt lat="64.94202" lon="11.7676">
        <ele>93.232326</ele>
        <time>2020-08-12T09:01:03.737Z</time>
      </trkpt>
      <trkpt lat="64.94213" lon="11.76753">
        <ele>93.1386</ele>
        <time>2020-08-12T09:01:05.799Z</time>
      </trkpt>
      <trkpt lat="64.94224" lon="11.76746">
        <ele>93.319365</ele>
        <time>2020-08-12T09:01:07.738Z</time>
      </trkpt>
      <trkpt lat="64.94234" lon="11.7674">
        <ele>93.512202</ele>
        <time>2020-08-12T09:01:09.754Z</time>
      </trkpt>
      <trkpt lat="64.94244" lon="11.76734">
        <ele>93.697325</ele>
        <time>2020-08-12T09:01:11.733Z</time>
      </trkpt>
      <trkpt lat="64.94254" lon="11.7673">
        <ele>93.869315</ele>
        <time>2020-08-12T09:01:13.756Z</time>
      </trkpt>
      <trkpt lat="64.94263" lon="11.76727">
        <ele>94.030446</ele>
        <time>2020-08-12T09:01:15.744Z</time>
      </trkpt>
      <trkpt lat="64.94274" lon="11.76723">
        <ele>94.236339</ele>
        <time>2020-08-12T09:01:18.745Z</time>
      </trkpt>
      <trkpt lat="64.94284" lon="11.7672">
        <ele>94.411678</ele>
        <time>2020-08-12T09:01:21.748Z</time>
      </trkpt>
      <trkpt lat="64.94294" lon="11.7672">
        <ele>94.591471</ele>
        <time>2020-08-12T09:01:24.745Z</time>
      </trkpt>
      <trkpt lat="64.94304" lon="11.76719">
        <ele>94.780362</ele>
        <time>2020-08-12T09:01:27.729Z</time>
      </trkpt>
      <trkpt lat="64.94314" lon="11.76722">
        <ele>94.950422</ele>
        <time>2020-08-12T09:01:30.735Z</time>
      </trkpt>
      <trkpt lat="64.94322" lon="11.76726">
        <ele>95.112135</ele>
        <time>2020-08-12T09:01:33.747Z</time>
      </trkpt>
      <trkpt lat="64.94332" lon="11.7673">
        <ele>95.283985</ele>
        <time>2020-08-12T09:01:37.749Z</time>
      </trkpt>
      <trkpt lat="64.94341" lon="11.76738">
        <ele>95.45777</ele>
        <time>2020-08-12T09:01:43.729Z</time>
      </trkpt>
      <trkpt lat="64.94351" lon="11.76745">
        <ele>95.643128</ele>
        <time>2020-08-12T09:01:50.754Z</time>
      </trkpt>
      <trkpt lat="64.94361" lon="11.7675">
        <ele>95.82476</ele>
        <time>2020-08-12T09:01:57.726Z</time>
      </trkpt>
      <trkpt lat="64.94371" lon="11.76755">
        <ele>96.009401</ele>
        <time>2020-08-12T09:02:04.729Z</time>
      </trkpt>
      <trkpt lat="64.9438" lon="11.76755">
        <ele>96.173085</ele>
        <time>2020-08-12T09:02:10.757Z</time>
      </trkpt>
      <trkpt lat="64.94389" lon="11.7676">
        <ele>96.341054</ele>
        <time>2020-08-12T09:02:17.755Z</time>
      </trkpt>
      <trkpt lat="64.94399" lon="11.76769">
        <ele>96.806964</ele>
        <time>2020-08-12T09:02:24.731Z</time>
      </trkpt>
      <trkpt lat="64.94408" lon="11.76773">
        <ele>97.260136</ele>
        <time>2020-08-12T09:02:30.735Z</time>
      </trkpt>
      <trkpt lat="64.94417" lon="11.76776">
        <ele>97.703205</ele>
        <time>2020-08-12T09:02:36.735Z</time>
      </trkpt>
      <trkpt lat="64.94427" lon="11.76781">
        <ele>98.160657</ele>
        <time>2020-08-12T09:02:42.761Z</time>
      </trkpt>
      <trkpt lat="64.94436" lon="11.76786">
        <ele>98.590071</ele>
        <time>2020-08-12T09:02:48.738Z</time>
      </trkpt>
      <trkpt lat="64.94446" lon="11.76788">
        <ele>99.082954</ele>
        <time>2020-08-12T09:02:55.749Z</time>
      </trkpt>
      <trkpt lat="64.94456" lon="11.7679">
        <ele>99.566461</ele>
        <time>2020-08-12T09:03:02.749Z</time>
      </trkpt>
      <trkpt lat="64.94466" lon="11.76791">
        <ele>100.049681</ele>
        <time>2020-08-12T09:03:09.741Z</time>
      </trkpt>
      <trkpt lat="64.94476" lon="11.76792">
        <ele>100.546339</ele>
        <time>2020-08-12T09:03:16.741Z</time>
      </trkpt>
      <trkpt lat="64.94485" lon="11.7679">
        <ele>100.977181</ele>
        <time>2020-08-12T09:03:22.754Z</time>
      </trkpt>
      <trkpt lat="64.94496" lon="11.76789">
        <ele>101.464598</ele>
        <time>2020-08-12T09:03:28.727Z</time>
      </trkpt>
      <trkpt lat="64.94506" lon="11.76788">
        <ele>101.971284</ele>
        <time>2020-08-12T09:03:33.733Z</time>
      </trkpt>
      <trkpt lat="64.94517" lon="11.76786">
        <ele>102.464797</ele>
        <time>2020-08-12T09:03:37.793Z</time>
      </trkpt>
      <trkpt lat="64.94526" lon="11.76784">
        <ele>102.928702</ele>
        <time>2020-08-12T09:03:40.734Z</time>
      </trkpt>
      <trkpt lat="64.94537" lon="11.76787">
        <ele>103.451476</ele>
        <time>2020-08-12T09:03:43.731Z</time>
      </trkpt>
      <trkpt lat="64.9455" lon="11.76791">
        <ele>104.078105</ele>
        <time>2020-08-12T09:03:46.765Z</time>
      </trkpt>
      <trkpt lat="64.94563" lon="11.76799">
        <ele>104.700944</ele>
        <time>2020-08-12T09:03:49.763Z</time>
      </trkpt>
      <trkpt lat="64.94574" lon="11.76811">
        <ele>105.031871</ele>
        <time>2020-08-12T09:03:52.748Z</time>
      </trkpt>
      <trkpt lat="64.94584" lon="11.76825">
        <ele>105.170516</ele>
        <time>2020-08-12T09:03:55.755Z</time>
      </trkpt>
      <trkpt lat="64.94592" lon="11.7684">
        <ele>105.291643</ele>
        <time>2020-08-12T09:03:58.763Z</time>
      </trkpt>
      <trkpt lat="64.946" lon="11.76855">
        <ele>105.407255</ele>
        <time>2020-08-12T09:04:01.746Z</time>
      </trkpt>
      <trkpt lat="64.94607" lon="11.76872">
        <ele>105.526695</ele>
        <time>2020-08-12T09:04:04.737Z</time>
      </trkpt>
      <trkpt lat="64.94613" lon="11.76889">
        <ele>105.637551</ele>
        <time>2020-08-12T09:04:07.751Z</time>
      </trkpt>
      <trkpt lat="64.94619" lon="11.76905">
        <ele>105.744996</ele>
        <time>2020-08-12T09:04:10.730Z</time>
      </trkpt>
      <trkpt lat="64.94625" lon="11.76923">
        <ele>105.857063</ele>
        <time>2020-08-12T09:04:13.738Z</time>
      </trkpt>
      <trkpt lat="64.94631" lon="11.76941">
        <ele>105.973221</ele>
        <time>2020-08-12T09:04:16.750Z</time>
      </trkpt>
      <trkpt lat="64.94637" lon="11.76959">
        <ele>106.084853</ele>
        <time>2020-08-12T09:04:19.769Z</time>
      </trkpt>
      <trkpt lat="64.94642" lon="11.76977">
        <ele>106.192062</ele>
        <time>2020-08-12T09:04:22.766Z</time>
      </trkpt>
      <trkpt lat="64.94648" lon="11.76996">
        <ele>106.304859</ele>
        <time>2020-08-12T09:04:25.765Z</time>
      </trkpt>
      <trkpt lat="64.94653" lon="11.77018">
        <ele>106.433821</ele>
        <time>2020-08-12T09:04:28.777Z</time>
      </trkpt>
      <trkpt lat="64.94659" lon="11.77046">
        <ele>106.586326</ele>
        <time>2020-08-12T09:04:31.773Z</time>
      </trkpt>
      <trkpt lat="64.94662" lon="11.77068">
        <ele>106.700947</ele>
        <time>2020-08-12T09:04:33.743Z</time>
      </trkpt>
      <trkpt lat="64.94665" lon="11.7709">
        <ele>106.818022</ele>
        <time>2020-08-12T09:04:35.748Z</time>
      </trkpt>
      <trkpt lat="64.94667" lon="11.77115">
        <ele>106.944379</ele>
        <time>2020-08-12T09:04:37.735Z</time>
      </trkpt>
      <trkpt lat="64.9467" lon="11.77141">
        <ele>107.100181</ele>
        <time>2020-08-12T09:04:39.765Z</time>
      </trkpt>
      <trkpt lat="64.94672" lon="11.77166">
        <ele>107.413535</ele>
        <time>2020-08-12T09:04:41.734Z</time>
      </trkpt>
      <trkpt lat="64.94676" lon="11.7719">
        <ele>107.716118</ele>
        <time>2020-08-12T09:04:43.744Z</time>
      </trkpt>
      <trkpt lat="64.94681" lon="11.77211">
        <ele>108.00198</ele>
        <time>2020-08-12T09:04:45.772Z</time>
      </trkpt>
      <trkpt lat="64.94686" lon="11.77231">
        <ele>108.286354</ele>
        <time>2020-08-12T09:04:47.743Z</time>
      </trkpt>
      <trkpt lat="64.94692" lon="11.77248">
        <ele>108.558574</ele>
        <time>2020-08-12T09:04:49.742Z</time>
      </trkpt>
      <trkpt lat="64.94699" lon="11.77266">
        <ele>108.834548</ele>
        <time>2020-08-12T09:04:51.754Z</time>
      </trkpt>
      <trkpt lat="64.94705" lon="11.77282">
        <ele>109.101281</ele>
        <time>2020-08-12T09:04:53.746Z</time>
      </trkpt>
      <trkpt lat="64.94711" lon="11.77299">
        <ele>109.360898</ele>
        <time>2020-08-12T09:04:55.742Z</time>
      </trkpt>
      <trkpt lat="64.94718" lon="11.77322">
        <ele>109.706557</ele>
        <time>2020-08-12T09:04:58.745Z</time>
      </trkpt>
      <trkpt lat="64.94724" lon="11.77342">
        <ele>110.005922</ele>
        <time>2020-08-12T09:05:01.749Z</time>
      </trkpt>
      <trkpt lat="64.9473" lon="11.7736">
        <ele>110.27586</ele>
        <time>2020-08-12T09:05:04.726Z</time>
      </trkpt>
      <trkpt lat="64.94736" lon="11.77376">
        <ele>110.533433</ele>
        <time>2020-08-12T09:05:07.729Z</time>
      </trkpt>
      <trkpt lat="64.94742" lon="11.77396">
        <ele>110.834028</ele>
        <time>2020-08-12T09:05:11.731Z</time>
      </trkpt>
      <trkpt lat="64.94748" lon="11.77415">
        <ele>111.110475</ele>
        <time>2020-08-12T09:05:15.726Z</time>
      </trkpt>
      <trkpt lat="64.94754" lon="11.77436">
        <ele>111.41929</ele>
        <time>2020-08-12T09:05:20.757Z</time>
      </trkpt>
      <trkpt lat="64.9476" lon="11.77454">
        <ele>111.689713</ele>
        <time>2020-08-12T09:05:25.731Z</time>
      </trkpt>
      <trkpt lat="64.94766" lon="11.77473">
        <ele>111.976259</ele>
        <time>2020-08-12T09:05:31.742Z</time>
      </trkpt>
      <trkpt lat="64.94771" lon="11.77492">
        <ele>112.078316</ele>
        <time>2020-08-12T09:05:37.746Z</time>
      </trkpt>
      <trkpt lat="64.94776" lon="11.77512">
        <ele>111.802711</ele>
        <time>2020-08-12T09:05:43.736Z</time>
      </trkpt>
      <trkpt lat="64.94783" lon="11.7753">
        <ele>111.513252</ele>
        <time>2020-08-12T09:05:49.747Z</time>
      </trkpt>
      <trkpt lat="64.9479" lon="11.77546">
        <ele>111.252321</ele>
        <time>2020-08-12T09:05:54.753Z</time>
      </trkpt>
      <trkpt lat="64.94796" lon="11.77564">
        <ele>110.976301</ele>
        <time>2020-08-12T09:05:59.729Z</time>
      </trkpt>
      <trkpt lat="64.94803" lon="11.7758">
        <ele>110.700873</ele>
        <time>2020-08-12T09:06:04.722Z</time>
      </trkpt>
      <trkpt lat="64.94811" lon="11.77597">
        <ele>110.415388</ele>
        <time>2020-08-12T09:06:08.724Z</time>
      </trkpt>
      <trkpt lat="64.94819" lon="11.77612">
        <ele>110.115367</ele>
        <time>2020-08-12T09:06:11.745Z</time>
      </trkpt>
      <trkpt lat="64.94826" lon="11.77626">
        <ele>109.86324</ele>
        <time>2020-08-12T09:06:13.743Z</time>
      </trkpt>
      <trkpt lat="64.94834" lon="11.77641">
        <ele>109.597187</ele>
        <time>2020-08-12T09:06:15.731Z</time>
      </trkpt>
      <trkpt lat="64.94841" lon="11.77655">
        <ele>109.330602</ele>
        <time>2020-08-12T09:06:17.758Z</time>
      </trkpt>
      <trkpt lat="64.94849" lon="11.77668">
        <ele>109.071201</ele>
        <time>2020-08-12T09:06:19.740Z</time>
      </trkpt>
      <trkpt lat="64.94856" lon="11.7768">
        <ele>108.816642</ele>
        <time>2020-08-12T09:06:21.753Z</time>
      </trkpt>
      <trkpt lat="64.94865" lon="11.77693">
        <ele>108.541299</ele>
        <time>2020-08-12T09:06:23.720Z</time>
      </trkpt>
      <trkpt lat="64.94874" lon="11.77707">
        <ele>108.235857</ele>
        <time>2020-08-12T09:06:25.753Z</time>
      </trkpt>
      <trkpt lat="64.94884" lon="11.77723">
        <ele>107.901169</ele>
        <time>2020-08-12T09:06:27.737Z</time>
      </trkpt>
      <trkpt lat="64.94895" lon="11.7774">
        <ele>107.528976</ele>
        <time>2020-08-12T09:06:29.741Z</time>
      </trkpt>
      <trkpt lat="64.94906" lon="11.77759">
        <ele>107.156233</ele>
        <time>2020-08-12T09:06:31.741Z</time>
      </trkpt>
      <trkpt lat="64.94917" lon="11.77777">
        <ele>106.790444</ele>
        <time>2020-08-12T09:06:33.736Z</time>
      </trkpt>
      <trkpt lat="64.94929" lon="11.77795">
        <ele>106.418647</ele>
        <time>2020-08-12T09:06:35.731Z</time>
      </trkpt>
      <trkpt lat="64.94941" lon="11.77814">
        <ele>106.032476</ele>
        <time>2020-08-12T09:06:37.751Z</time>
      </trkpt>
      <trkpt lat="64.94953" lon="11.77833">
        <ele>105.636405</ele>
        <time>2020-08-12T09:06:39.725Z</time>
      </trkpt>
      <trkpt lat="64.94965" lon="11.77852">
        <ele>105.243072</ele>
        <time>2020-08-12T09:06:41.741Z</time>
      </trkpt>
      <trkpt lat="64.94977" lon="11.7787">
        <ele>104.861047</ele>
        <time>2020-08-12T09:06:43.751Z</time>
      </trkpt>
      <trkpt lat="64.94991" lon="11.77887">
        <ele>104.445376</ele>
        <time>2020-08-12T09:06:45.786Z</time>
      </trkpt>
      <trkpt lat="64.95006" lon="11.77899">
        <ele>104.013411</ele>
        <time>2020-08-12T09:06:47.726Z</time>
      </trkpt>
      <trkpt lat="64.95021" lon="11.77908">
        <ele>103.595966</ele>
        <time>2020-08-12T09:06:49.748Z</time>
      </trkpt>
      <trkpt lat="64.95036" lon="11.77916">
        <ele>103.188291</ele>
        <time>2020-08-12T09:06:51.746Z</time>
      </trkpt>
      <trkpt lat="64.95049" lon="11.77925">
        <ele>102.807331</ele>
        <time>2020-08-12T09:06:53.742Z</time>
      </trkpt>
      <trkpt lat="64.95062" lon="11.77933">
        <ele>102.449797</ele>
        <time>2020-08-12T09:06:55.750Z</time>
      </trkpt>
      <trkpt lat="64.95074" lon="11.77938">
        <ele>102.331147</ele>
        <time>2020-08-12T09:06:57.731Z</time>
      </trkpt>
      <trkpt lat="64.95084" lon="11.77943">
        <ele>102.349711</ele>
        <time>2020-08-12T09:06:59.748Z</time>
      </trkpt>
      <trkpt lat="64.95094" lon="11.77948">
        <ele>102.366183</ele>
        <time>2020-08-12T09:07:01.745Z</time>
      </trkpt>
      <trkpt lat="64.95106" lon="11.77957">
        <ele>102.388351</ele>
        <time>2020-08-12T09:07:04.748Z</time>
      </trkpt>
      <trkpt lat="64.95117" lon="11.77968">
        <ele>102.409386</ele>
        <time>2020-08-12T09:07:07.742Z</time>
      </trkpt>
      <trkpt lat="64.95128" lon="11.77981">
        <ele>102.430568</ele>
        <time>2020-08-12T09:07:10.752Z</time>
      </trkpt>
      <trkpt lat="64.9514" lon="11.77994">
        <ele>102.453181</ele>
        <time>2020-08-12T09:07:13.748Z</time>
      </trkpt>
      <trkpt lat="64.95148" lon="11.78003">
        <ele>102.468827</ele>
        <time>2020-08-12T09:07:15.733Z</time>
      </trkpt>
      <trkpt lat="64.95157" lon="11.78015">
        <ele>102.485719</ele>
        <time>2020-08-12T09:07:17.737Z</time>
      </trkpt>
      <trkpt lat="64.95166" lon="11.78027">
        <ele>102.50331</ele>
        <time>2020-08-12T09:07:19.733Z</time>
      </trkpt>
      <trkpt lat="64.95174" lon="11.7804">
        <ele>102.521017</ele>
        <time>2020-08-12T09:07:21.741Z</time>
      </trkpt>
      <trkpt lat="64.95183" lon="11.78054">
        <ele>102.538268</ele>
        <time>2020-08-12T09:07:23.775Z</time>
      </trkpt>
      <trkpt lat="64.9519" lon="11.78067">
        <ele>102.554719</ele>
        <time>2020-08-12T09:07:25.736Z</time>
      </trkpt>
      <trkpt lat="64.95198" lon="11.78081">
        <ele>102.571164</ele>
        <time>2020-08-12T09:07:27.764Z</time>
      </trkpt>
      <trkpt lat="64.95205" lon="11.78096">
        <ele>102.587391</ele>
        <time>2020-08-12T09:07:29.745Z</time>
      </trkpt>
      <trkpt lat="64.95215" lon="11.78113">
        <ele>102.609145</ele>
        <time>2020-08-12T09:07:32.737Z</time>
      </trkpt>
      <trkpt lat="64.95224" lon="11.78131">
        <ele>102.637256</ele>
        <time>2020-08-12T09:07:35.756Z</time>
      </trkpt>
      <trkpt lat="64.95233" lon="11.78146">
        <ele>102.800635</ele>
        <time>2020-08-12T09:07:38.745Z</time>
      </trkpt>
      <trkpt lat="64.9524" lon="11.78161">
        <ele>102.94635</ele>
        <time>2020-08-12T09:07:41.726Z</time>
      </trkpt>
      <trkpt lat="64.95247" lon="11.78175">
        <ele>103.09165</ele>
        <time>2020-08-12T09:07:44.764Z</time>
      </trkpt>
      <trkpt lat="64.95254" lon="11.78188">
        <ele>103.229717</ele>
        <time>2020-08-12T09:07:47.744Z</time>
      </trkpt>
      <trkpt lat="64.95264" lon="11.78205">
        <ele>103.408787</ele>
        <time>2020-08-12T09:07:51.783Z</time>
      </trkpt>
      <trkpt lat="64.95271" lon="11.78218">
        <ele>103.554053</ele>
        <time>2020-08-12T09:07:54.784Z</time>
      </trkpt>
      <trkpt lat="64.95278" lon="11.78233">
        <ele>103.69817</ele>
        <time>2020-08-12T09:07:57.741Z</time>
      </trkpt>
      <trkpt lat="64.95286" lon="11.78246">
        <ele>103.847985</ele>
        <time>2020-08-12T09:08:00.750Z</time>
      </trkpt>
      <trkpt lat="64.95295" lon="11.7826">
        <ele>104.011918</ele>
        <time>2020-08-12T09:08:03.730Z</time>
      </trkpt>
      <trkpt lat="64.95304" lon="11.78273">
        <ele>104.1694</ele>
        <time>2020-08-12T09:08:06.728Z</time>
      </trkpt>
      <trkpt lat="64.95313" lon="11.78287">
        <ele>104.340416</ele>
        <time>2020-08-12T09:08:09.733Z</time>
      </trkpt>
      <trkpt lat="64.95324" lon="11.78301">
        <ele>104.531047</ele>
        <time>2020-08-12T09:08:12.741Z</time>
      </trkpt>
      <trkpt lat="64.95336" lon="11.7831">
        <ele>104.73008</ele>
        <time>2020-08-12T09:08:15.749Z</time>
      </trkpt>
      <trkpt lat="64.95345" lon="11.78315">
        <ele>104.868846</ele>
        <time>2020-08-12T09:08:17.736Z</time>
      </trkpt>
      <trkpt lat="64.95354" lon="11.78317">
        <ele>105.010797</ele>
        <time>2020-08-12T09:08:19.745Z</time>
      </trkpt>
      <trkpt lat="64.95364" lon="11.78316">
        <ele>105.160005</ele>
        <time>2020-08-12T09:08:21.746Z</time>
      </trkpt>
      <trkpt lat="64.95373" lon="11.78312">
        <ele>105.300254</ele>
        <time>2020-08-12T09:08:23.769Z</time>
      </trkpt>
      <trkpt lat="64.95386" lon="11.783">
        <ele>105.271762</ele>
        <time>2020-08-12T09:08:26.740Z</time>
      </trkpt>
      <trkpt lat="64.95393" lon="11.78288">
        <ele>105.126277</ele>
        <time>2020-08-12T09:08:28.743Z</time>
      </trkpt>
      <trkpt lat="64.954" lon="11.7827">
        <ele>104.964154</ele>
        <time>2020-08-12T09:08:30.766Z</time>
      </trkpt>
      <trkpt lat="64.95406" lon="11.78249">
        <ele>104.78897</ele>
        <time>2020-08-12T09:08:32.746Z</time>
      </trkpt>
      <trkpt lat="64.95411" lon="11.78224">
        <ele>104.603479</ele>
        <time>2020-08-12T09:08:34.758Z</time>
      </trkpt>
      <trkpt lat="64.95414" lon="11.78199">
        <ele>104.424099</ele>
        <time>2020-08-12T09:08:36.781Z</time>
      </trkpt>
      <trkpt lat="64.95417" lon="11.78175">
        <ele>104.250652</ele>
        <time>2020-08-12T09:08:38.776Z</time>
      </trkpt>
      <trkpt lat="64.95419" lon="11.78151">
        <ele>104.088393</ele>
        <time>2020-08-12T09:08:40.735Z</time>
      </trkpt>
      <trkpt lat="64.95421" lon="11.78126">
        <ele>103.915119</ele>
        <time>2020-08-12T09:08:42.806Z</time>
      </trkpt>
      <trkpt lat="64.95423" lon="11.78103">
        <ele>103.747362</ele>
        <time>2020-08-12T09:08:44.755Z</time>
      </trkpt>
      <trkpt lat="64.95427" lon="11.78079">
        <ele>103.577982</ele>
        <time>2020-08-12T09:08:46.750Z</time>
      </trkpt>
      <trkpt lat="64.95432" lon="11.78057">
        <ele>103.402844</ele>
        <time>2020-08-12T09:08:48.742Z</time>
      </trkpt>
      <trkpt lat="64.9544" lon="11.78037">
        <ele>103.216154</ele>
        <time>2020-08-12T09:08:50.745Z</time>
      </trkpt>
      <trkpt lat="64.9545" lon="11.78022">
        <ele>103.022809</ele>
        <time>2020-08-12T09:08:52.740Z</time>
      </trkpt>
      <trkpt lat="64.95461" lon="11.78014">
        <ele>102.836642</ele>
        <time>2020-08-12T09:08:54.752Z</time>
      </trkpt>
      <trkpt lat="64.95472" lon="11.78011">
        <ele>102.65861</ele>
        <time>2020-08-12T09:08:56.767Z</time>
      </trkpt>
      <trkpt lat="64.95483" lon="11.78014">
        <ele>102.498401</ele>
        <time>2020-08-12T09:08:58.729Z</time>
      </trkpt>
      <trkpt lat="64.95494" lon="11.78018">
        <ele>102.584729</ele>
        <time>2020-08-12T09:09:00.732Z</time>
      </trkpt>
      <trkpt lat="64.95503" lon="11.7802">
        <ele>102.66347</ele>
        <time>2020-08-12T09:09:02.739Z</time>
      </trkpt>
      <trkpt lat="64.95516" lon="11.78022">
        <ele>102.774988</ele>
        <time>2020-08-12T09:09:05.740Z</time>
      </trkpt>
      <trkpt lat="64.95525" lon="11.78024">
        <ele>102.851939</ele>
        <time>2020-08-12T09:09:07.782Z</time>
      </trkpt>
      <trkpt lat="64.95534" lon="11.78026">
        <ele>102.927521</ele>
        <time>2020-08-12T09:09:09.746Z</time>
      </trkpt>
      <trkpt lat="64.95546" lon="11.7803">
        <ele>103.026907</ele>
        <time>2020-08-12T09:09:12.731Z</time>
      </trkpt>
      <trkpt lat="64.95556" lon="11.78034">
        <ele>103.110825</ele>
        <time>2020-08-12T09:09:15.747Z</time>
      </trkpt>
      <trkpt lat="64.95566" lon="11.78039">
        <ele>103.19168</ele>
        <time>2020-08-12T09:09:18.745Z</time>
      </trkpt>
      <trkpt lat="64.95575" lon="11.78045">
        <ele>103.272172</ele>
        <time>2020-08-12T09:09:21.759Z</time>
      </trkpt>
      <trkpt lat="64.95584" lon="11.78052">
        <ele>103.35485</ele>
        <time>2020-08-12T09:09:24.745Z</time>
      </trkpt>
      <trkpt lat="64.95593" lon="11.78058">
        <ele>103.433427</ele>
        <time>2020-08-12T09:09:27.748Z</time>
      </trkpt>
      <trkpt lat="64.95605" lon="11.78067">
        <ele>103.531646</ele>
        <time>2020-08-12T09:09:31.726Z</time>
      </trkpt>
      <trkpt lat="64.95615" lon="11.78075">
        <ele>103.626691</ele>
        <time>2020-08-12T09:09:35.735Z</time>
      </trkpt>
      <trkpt lat="64.95624" lon="11.78083">
        <ele>103.703733</ele>
        <time>2020-08-12T09:09:38.758Z</time>
      </trkpt>
      <trkpt lat="64.95633" lon="11.78091">
        <ele>103.780152</ele>
        <time>2020-08-12T09:09:41.735Z</time>
      </trkpt>
      <trkpt lat="64.95642" lon="11.78098">
        <ele>103.859841</ele>
        <time>2020-08-12T09:09:44.747Z</time>
      </trkpt>
      <trkpt lat="64.95651" lon="11.78104">
        <ele>103.940326</ele>
        <time>2020-08-12T09:09:47.733Z</time>
      </trkpt>
      <trkpt lat="64.95662" lon="11.78112">
        <ele>103.939296</ele>
        <time>2020-08-12T09:09:51.737Z</time>
      </trkpt>
      <trkpt lat="64.95674" lon="11.7812">
        <ele>103.819187</ele>
        <time>2020-08-12T09:09:55.728Z</time>
      </trkpt>
      <trkpt lat="64.95683" lon="11.78127">
        <ele>103.720515</ele>
        <time>2020-08-12T09:09:58.734Z</time>
      </trkpt>
      <trkpt lat="64.95694" lon="11.78134">
        <ele>103.613163</ele>
        <time>2020-08-12T09:10:01.730Z</time>
      </trkpt>
      <trkpt lat="64.95706" lon="11.78143">
        <ele>103.488601</ele>
        <time>2020-08-12T09:10:04.751Z</time>
      </trkpt>
      <trkpt lat="64.95714" lon="11.7815">
        <ele>103.397877</ele>
        <time>2020-08-12T09:10:06.759Z</time>
      </trkpt>
      <trkpt lat="64.95724" lon="11.78157">
        <ele>103.300415</ele>
        <time>2020-08-12T09:10:08.764Z</time>
      </trkpt>
      <trkpt lat="64.95734" lon="11.78164">
        <ele>103.194638</ele>
        <time>2020-08-12T09:10:10.780Z</time>
      </trkpt>
      <trkpt lat="64.95744" lon="11.78172">
        <ele>103.088127</ele>
        <time>2020-08-12T09:10:12.751Z</time>
      </trkpt>
      <trkpt lat="64.95754" lon="11.78179">
        <ele>102.987694</ele>
        <time>2020-08-12T09:10:14.748Z</time>
      </trkpt>
      <trkpt lat="64.95763" lon="11.78187">
        <ele>102.888888</ele>
        <time>2020-08-12T09:10:16.748Z</time>
      </trkpt>
      <trkpt lat="64.95772" lon="11.78194">
        <ele>102.795066</ele>
        <time>2020-08-12T09:10:18.740Z</time>
      </trkpt>
      <trkpt lat="64.95781" lon="11.78202">
        <ele>102.70194</ele>
        <time>2020-08-12T09:10:20.734Z</time>
      </trkpt>
      <trkpt lat="64.9579" lon="11.7821">
        <ele>102.603867</ele>
        <time>2020-08-12T09:10:22.720Z</time>
      </trkpt>
      <trkpt lat="64.95799" lon="11.78218">
        <ele>102.50357</ele>
        <time>2020-08-12T09:10:24.765Z</time>
      </trkpt>
      <trkpt lat="64.95809" lon="11.78228">
        <ele>102.401813</ele>
        <time>2020-08-12T09:10:26.724Z</time>
      </trkpt>
      <trkpt lat="64.95818" lon="11.78238">
        <ele>102.295905</ele>
        <time>2020-08-12T09:10:28.742Z</time>
      </trkpt>
      <trkpt lat="64.95828" lon="11.7825">
        <ele>102.206384</ele>
        <time>2020-08-12T09:10:30.769Z</time>
      </trkpt>
      <trkpt lat="64.95836" lon="11.7826">
        <ele>102.237605</ele>
        <time>2020-08-12T09:10:32.728Z</time>
      </trkpt>
      <trkpt lat="64.95844" lon="11.78271">
        <ele>102.267236</ele>
        <time>2020-08-12T09:10:34.753Z</time>
      </trkpt>
      <trkpt lat="64.95854" lon="11.78287">
        <ele>102.309163</ele>
        <time>2020-08-12T09:10:37.727Z</time>
      </trkpt>
      <trkpt lat="64.95864" lon="11.78304">
        <ele>102.349661</ele>
        <time>2020-08-12T09:10:40.737Z</time>
      </trkpt>
      <trkpt lat="64.95874" lon="11.78321">
        <ele>102.389049</ele>
        <time>2020-08-12T09:10:43.719Z</time>
      </trkpt>
      <trkpt lat="64.95884" lon="11.78337">
        <ele>102.429445</ele>
        <time>2020-08-12T09:10:46.743Z</time>
      </trkpt>
      <trkpt lat="64.95892" lon="11.7835">
        <ele>102.460925</ele>
        <time>2020-08-12T09:10:48.751Z</time>
      </trkpt>
      <trkpt lat="64.959" lon="11.78364">
        <ele>102.494402</ele>
        <time>2020-08-12T09:10:50.760Z</time>
      </trkpt>
      <trkpt lat="64.95908" lon="11.78378">
        <ele>102.528529</ele>
        <time>2020-08-12T09:10:52.726Z</time>
      </trkpt>
      <trkpt lat="64.95916" lon="11.78391">
        <ele>102.560277</ele>
        <time>2020-08-12T09:10:54.736Z</time>
      </trkpt>
      <trkpt lat="64.95926" lon="11.7841">
        <ele>102.603519</ele>
        <time>2020-08-12T09:10:57.745Z</time>
      </trkpt>
      <trkpt lat="64.95936" lon="11.78428">
        <ele>102.643735</ele>
        <time>2020-08-12T09:11:00.741Z</time>
      </trkpt>
      <trkpt lat="64.95945" lon="11.78446">
        <ele>102.683351</ele>
        <time>2020-08-12T09:11:03.763Z</time>
      </trkpt>
      <trkpt lat="64.95954" lon="11.78463">
        <ele>102.721655</ele>
        <time>2020-08-12T09:11:06.733Z</time>
      </trkpt>
      <trkpt lat="64.95963" lon="11.78481">
        <ele>102.761171</ele>
        <time>2020-08-12T09:11:09.771Z</time>
      </trkpt>
      <trkpt lat="64.95973" lon="11.78498">
        <ele>102.818987</ele>
        <time>2020-08-12T09:11:12.792Z</time>
      </trkpt>
      <trkpt lat="64.95982" lon="11.78516">
        <ele>103.064862</ele>
        <time>2020-08-12T09:11:15.761Z</time>
      </trkpt>
      <trkpt lat="64.95991" lon="11.78531">
        <ele>103.305882</ele>
        <time>2020-08-12T09:11:18.750Z</time>
      </trkpt>
      <trkpt lat="64.96" lon="11.78544">
        <ele>103.551296</ele>
        <time>2020-08-12T09:11:21.770Z</time>
      </trkpt>
      <trkpt lat="64.96011" lon="11.78556">
        <ele>103.810031</ele>
        <time>2020-08-12T09:11:24.741Z</time>
      </trkpt>
      <trkpt lat="64.96024" lon="11.78566">
        <ele>104.095198</ele>
        <time>2020-08-12T09:11:27.754Z</time>
      </trkpt>
      <trkpt lat="64.96033" lon="11.7857">
        <ele>104.294215</ele>
        <time>2020-08-12T09:11:29.771Z</time>
      </trkpt>
      <trkpt lat="64.96042" lon="11.78574">
        <ele>104.496803</ele>
        <time>2020-08-12T09:11:31.777Z</time>
      </trkpt>
      <trkpt lat="64.96051" lon="11.78578">
        <ele>104.701366</ele>
        <time>2020-08-12T09:11:33.756Z</time>
      </trkpt>
      <trkpt lat="64.9606" lon="11.78582">
        <ele>104.900755</ele>
        <time>2020-08-12T09:11:35.733Z</time>
      </trkpt>
      <trkpt lat="64.96073" lon="11.78589">
        <ele>105.184913</ele>
        <time>2020-08-12T09:11:38.779Z</time>
      </trkpt>
      <trkpt lat="64.96086" lon="11.78596">
        <ele>105.463776</ele>
        <time>2020-08-12T09:11:41.747Z</time>
      </trkpt>
      <trkpt lat="64.96096" lon="11.78603">
        <ele>105.707249</ele>
        <time>2020-08-12T09:11:44.746Z</time>
      </trkpt>
      <trkpt lat="64.96107" lon="11.78612">
        <ele>105.942291</ele>
        <time>2020-08-12T09:11:47.782Z</time>
      </trkpt>
      <trkpt lat="64.96116" lon="11.78623">
        <ele>106.169611</ele>
        <time>2020-08-12T09:11:50.763Z</time>
      </trkpt>
      <trkpt lat="64.96125" lon="11.78634">
        <ele>106.387575</ele>
        <time>2020-08-12T09:11:53.762Z</time>
      </trkpt>
      <trkpt lat="64.96133" lon="11.78645">
        <ele>106.591051</ele>
        <time>2020-08-12T09:11:56.734Z</time>
      </trkpt>
      <trkpt lat="64.96141" lon="11.78656">
        <ele>106.770042</ele>
        <time>2020-08-12T09:11:59.781Z</time>
      </trkpt>
      <trkpt lat="64.9615" lon="11.78674">
        <ele>106.965639</ele>
        <time>2020-08-12T09:12:03.734Z</time>
      </trkpt>
      <trkpt lat="64.96158" lon="11.78694">
        <ele>107.160024</ele>
        <time>2020-08-12T09:12:07.724Z</time>
      </trkpt>
      <trkpt lat="64.96165" lon="11.78715">
        <ele>107.346425</ele>
        <time>2020-08-12T09:12:11.750Z</time>
      </trkpt>
      <trkpt lat="64.96173" lon="11.78735">
        <ele>107.537001</ele>
        <time>2020-08-12T09:12:15.759Z</time>
      </trkpt>
      <trkpt lat="64.96179" lon="11.78753">
        <ele>107.708233</ele>
        <time>2020-08-12T09:12:19.738Z</time>
      </trkpt>
      <trkpt lat="64.96187" lon="11.78772">
        <ele>107.88498</ele>
        <time>2020-08-12T09:12:23.745Z</time>
      </trkpt>
      <trkpt lat="64.96193" lon="11.78791">
        <ele>108.061639</ele>
        <time>2020-08-12T09:12:27.738Z</time>
      </trkpt>
      <trkpt lat="64.96201" lon="11.78811">
        <ele>108.245319</ele>
        <time>2020-08-12T09:12:31.746Z</time>
      </trkpt>
      <trkpt lat="64.96209" lon="11.78828">
        <ele>108.427965</ele>
        <time>2020-08-12T09:12:35.732Z</time>
      </trkpt>
      <trkpt lat="64.96217" lon="11.78847">
        <ele>108.62255</ele>
        <time>2020-08-12T09:12:39.737Z</time>
      </trkpt>
      <trkpt lat="64.96226" lon="11.78863">
        <ele>108.809351</ele>
        <time>2020-08-12T09:12:43.764Z</time>
      </trkpt>
      <trkpt lat="64.96235" lon="11.78882">
        <ele>109.006589</ele>
        <time>2020-08-12T09:12:47.781Z</time>
      </trkpt>
      <trkpt lat="64.96243" lon="11.789">
        <ele>109.191173</ele>
        <time>2020-08-12T09:12:51.741Z</time>
      </trkpt>
      <trkpt lat="64.96251" lon="11.7892">
        <ele>109.387229</ele>
        <time>2020-08-12T09:12:55.729Z</time>
      </trkpt>
      <trkpt lat="64.96258" lon="11.78935">
        <ele>109.541129</ele>
        <time>2020-08-12T09:12:58.775Z</time>
      </trkpt>
      <trkpt lat="64.96264" lon="11.78952">
        <ele>109.692673</ele>
        <time>2020-08-12T09:13:01.755Z</time>
      </trkpt>
      <trkpt lat="64.9627" lon="11.78969">
        <ele>109.622022</ele>
        <time>2020-08-12T09:13:04.742Z</time>
      </trkpt>
      <trkpt lat="64.96276" lon="11.78988">
        <ele>109.546491</ele>
        <time>2020-08-12T09:13:07.775Z</time>
      </trkpt>
      <trkpt lat="64.96282" lon="11.79011">
        <ele>109.463772</ele>
        <time>2020-08-12T09:13:10.744Z</time>
      </trkpt>
      <trkpt lat="64.96286" lon="11.79039">
        <ele>109.36797</ele>
        <time>2020-08-12T09:13:13.742Z</time>
      </trkpt>
      <trkpt lat="64.96289" lon="11.79069">
        <ele>109.27202</ele>
        <time>2020-08-12T09:13:16.749Z</time>
      </trkpt>
      <trkpt lat="64.96293" lon="11.79095">
        <ele>109.185567</ele>
        <time>2020-08-12T09:13:19.745Z</time>
      </trkpt>
      <trkpt lat="64.96295" lon="11.79119">
        <ele>109.109178</ele>
        <time>2020-08-12T09:13:22.729Z</time>
      </trkpt>
      <trkpt lat="64.96296" lon="11.7914">
        <ele>109.041219</ele>
        <time>2020-08-12T09:13:25.750Z</time>
      </trkpt>
      <trkpt lat="64.96299" lon="11.79167">
        <ele>108.953704</ele>
        <time>2020-08-12T09:13:29.785Z</time>
      </trkpt>
      <trkpt lat="64.96302" lon="11.79194">
        <ele>108.864724</ele>
        <time>2020-08-12T09:13:33.740Z</time>
      </trkpt>
      <trkpt lat="64.96307" lon="11.79216">
        <ele>108.789541</ele>
        <time>2020-08-12T09:13:36.726Z</time>
      </trkpt>
      <trkpt lat="64.96312" lon="11.79239">
        <ele>108.707726</ele>
        <time>2020-08-12T09:13:39.764Z</time>
      </trkpt>
      <trkpt lat="64.96319" lon="11.79262">
        <ele>108.619824</ele>
        <time>2020-08-12T09:13:42.737Z</time>
      </trkpt>
      <trkpt lat="64.96327" lon="11.79286">
        <ele>108.520804</ele>
        <time>2020-08-12T09:13:45.728Z</time>
      </trkpt>
      <trkpt lat="64.96333" lon="11.79303">
        <ele>108.45203</ele>
        <time>2020-08-12T09:13:47.750Z</time>
      </trkpt>
      <trkpt lat="64.96338" lon="11.7932">
        <ele>108.384862</ele>
        <time>2020-08-12T09:13:49.736Z</time>
      </trkpt>
      <trkpt lat="64.96346" lon="11.79345">
        <ele>108.565433</ele>
        <time>2020-08-12T09:13:52.745Z</time>
      </trkpt>
      <trkpt lat="64.96351" lon="11.79369">
        <ele>108.825077</ele>
        <time>2020-08-12T09:13:55.738Z</time>
      </trkpt>
      <trkpt lat="64.96356" lon="11.79391">
        <ele>109.0711</ele>
        <time>2020-08-12T09:13:58.733Z</time>
      </trkpt>
      <trkpt lat="64.9636" lon="11.79413">
        <ele>109.299527</ele>
        <time>2020-08-12T09:14:01.751Z</time>
      </trkpt>
      <trkpt lat="64.96364" lon="11.79432">
        <ele>109.514678</ele>
        <time>2020-08-12T09:14:04.800Z</time>
      </trkpt>
      <trkpt lat="64.96369" lon="11.79452">
        <ele>109.735454</ele>
        <time>2020-08-12T09:14:07.735Z</time>
      </trkpt>
      <trkpt lat="64.96374" lon="11.79475">
        <ele>109.994538</ele>
        <time>2020-08-12T09:14:11.734Z</time>
      </trkpt>
      <trkpt lat="64.96381" lon="11.79497">
        <ele>110.263674</ele>
        <time>2020-08-12T09:14:15.735Z</time>
      </trkpt>
      <trkpt lat="64.96391" lon="11.79515">
        <ele>110.546457</ele>
        <time>2020-08-12T09:14:19.734Z</time>
      </trkpt>
      <trkpt lat="64.96399" lon="11.7953">
        <ele>110.777867</ele>
        <time>2020-08-12T09:14:22.730Z</time>
      </trkpt>
      <trkpt lat="64.96406" lon="11.79545">
        <ele>111.004295</ele>
        <time>2020-08-12T09:14:25.742Z</time>
      </trkpt>
      <trkpt lat="64.96414" lon="11.7956">
        <ele>111.229048</ele>
        <time>2020-08-12T09:14:28.781Z</time>
      </trkpt>
      <trkpt lat="64.96421" lon="11.79573">
        <ele>111.438086</ele>
        <time>2020-08-12T09:14:31.789Z</time>
      </trkpt>
      <trkpt lat="64.96428" lon="11.79588">
        <ele>111.660504</ele>
        <time>2020-08-12T09:14:34.755Z</time>
      </trkpt>
      <trkpt lat="64.96435" lon="11.79602">
        <ele>111.87563</ele>
        <time>2020-08-12T09:14:37.740Z</time>
      </trkpt>
      <trkpt lat="64.96442" lon="11.79618">
        <ele>112.089174</ele>
        <time>2020-08-12T09:14:40.741Z</time>
      </trkpt>
      <trkpt lat="64.96448" lon="11.79635">
        <ele>112.31206</ele>
        <time>2020-08-12T09:14:43.757Z</time>
      </trkpt>
      <trkpt lat="64.96454" lon="11.79651">
        <ele>112.519907</ele>
        <time>2020-08-12T09:14:46.741Z</time>
      </trkpt>
      <trkpt lat="64.96459" lon="11.79668">
        <ele>112.696879</ele>
        <time>2020-08-12T09:14:49.755Z</time>
      </trkpt>
      <trkpt lat="64.96465" lon="11.79686">
        <ele>112.878857</ele>
        <time>2020-08-12T09:14:52.752Z</time>
      </trkpt>
      <trkpt lat="64.9647" lon="11.79703">
        <ele>113.059983</ele>
        <time>2020-08-12T09:14:55.765Z</time>
      </trkpt>
      <trkpt lat="64.96477" lon="11.79725">
        <ele>113.282662</ele>
        <time>2020-08-12T09:14:59.738Z</time>
      </trkpt>
      <trkpt lat="64.96483" lon="11.79743">
        <ele>113.476021</ele>
        <time>2020-08-12T09:15:03.741Z</time>
      </trkpt>
      <trkpt lat="64.96489" lon="11.79761">
        <ele>113.672099</ele>
        <time>2020-08-12T09:15:07.740Z</time>
      </trkpt>
      <trkpt lat="64.96497" lon="11.7978">
        <ele>113.893649</ele>
        <time>2020-08-12T09:15:11.781Z</time>
      </trkpt>
      <trkpt lat="64.96506" lon="11.798">
        <ele>114.126079</ele>
        <time>2020-08-12T09:15:15.747Z</time>
      </trkpt>
      <trkpt lat="64.96512" lon="11.79815">
        <ele>114.305916</ele>
        <time>2020-08-12T09:15:18.748Z</time>
      </trkpt>
      <trkpt lat="64.96518" lon="11.79837">
        <ele>114.520408</ele>
        <time>2020-08-12T09:15:22.765Z</time>
      </trkpt>
      <trkpt lat="64.96523" lon="11.79858">
        <ele>114.723544</ele>
        <time>2020-08-12T09:15:26.747Z</time>
      </trkpt>
      <trkpt lat="64.96528" lon="11.79878">
        <ele>114.920728</ele>
        <time>2020-08-12T09:15:30.759Z</time>
      </trkpt>
      <trkpt lat="64.96533" lon="11.79899">
        <ele>115.12051</ele>
        <time>2020-08-12T09:15:34.755Z</time>
      </trkpt>
      <trkpt lat="64.96538" lon="11.79921">
        <ele>115.322172</ele>
        <time>2020-08-12T09:15:38.739Z</time>
      </trkpt>
      <trkpt lat="64.96541" lon="11.79941">
        <ele>115.500489</ele>
        <time>2020-08-12T09:15:42.750Z</time>
      </trkpt>
      <trkpt lat="64.96544" lon="11.79962">
        <ele>115.685062</ele>
        <time>2020-08-12T09:15:46.748Z</time>
      </trkpt>
      <trkpt lat="64.96548" lon="11.79982">
        <ele>115.870161</ele>
        <time>2020-08-12T09:15:50.736Z</time>
      </trkpt>
      <trkpt lat="64.96551" lon="11.80004">
        <ele>116.066608</ele>
        <time>2020-08-12T09:15:54.750Z</time>
      </trkpt>
      <trkpt lat="64.96556" lon="11.80026">
        <ele>116.266076</ele>
        <time>2020-08-12T09:15:58.725Z</time>
      </trkpt>
      <trkpt lat="64.96561" lon="11.80049">
        <ele>116.487872</ele>
        <time>2020-08-12T09:16:02.764Z</time>
      </trkpt>
      <trkpt lat="64.96566" lon="11.80069">
        <ele>116.674963</ele>
        <time>2020-08-12T09:16:05.766Z</time>
      </trkpt>
      <trkpt lat="64.96572" lon="11.80091">
        <ele>116.891802</ele>
        <time>2020-08-12T09:16:08.722Z</time>
      </trkpt>
      <trkpt lat="64.96578" lon="11.80114">
        <ele>117.110027</ele>
        <time>2020-08-12T09:16:11.725Z</time>
      </trkpt>
      <trkpt lat="64.96584" lon="11.80136">
        <ele>117.317753</ele>
        <time>2020-08-12T09:16:14.750Z</time>
      </trkpt>
      <trkpt lat="64.9659" lon="11.80158">
        <ele>117.533235</ele>
        <time>2020-08-12T09:16:17.735Z</time>
      </trkpt>
      <trkpt lat="64.96595" lon="11.80181">
        <ele>117.752873</ele>
        <time>2020-08-12T09:16:20.758Z</time>
      </trkpt>
      <trkpt lat="64.96601" lon="11.80207">
        <ele>117.986264</ele>
        <time>2020-08-12T09:16:23.757Z</time>
      </trkpt>
      <trkpt lat="64.96606" lon="11.80229">
        <ele>118.196375</ele>
        <time>2020-08-12T09:16:26.753Z</time>
      </trkpt>
      <trkpt lat="64.96611" lon="11.8025">
        <ele>118.395763</ele>
        <time>2020-08-12T09:16:29.752Z</time>
      </trkpt>
      <trkpt lat="64.96617" lon="11.80274">
        <ele>118.621366</ele>
        <time>2020-08-12T09:16:33.754Z</time>
      </trkpt>
      <trkpt lat="64.96622" lon="11.80296">
        <ele>118.822465</ele>
        <time>2020-08-12T09:16:37.736Z</time>
      </trkpt>
      <trkpt lat="64.96627" lon="11.80318">
        <ele>119.035427</ele>
        <time>2020-08-12T09:16:42.732Z</time>
      </trkpt>
      <trkpt lat="64.96632" lon="11.80337">
        <ele>119.217704</ele>
        <time>2020-08-12T09:16:46.742Z</time>
      </trkpt>
      <trkpt lat="64.96637" lon="11.80359">
        <ele>119.417357</ele>
        <time>2020-08-12T09:16:51.751Z</time>
      </trkpt>
      <trkpt lat="64.96641" lon="11.80378">
        <ele>119.623141</ele>
        <time>2020-08-12T09:16:56.762Z</time>
      </trkpt>
      <trkpt lat="64.96646" lon="11.80399">
        <ele>119.899427</ele>
        <time>2020-08-12T09:17:02.758Z</time>
      </trkpt>
      <trkpt lat="64.96651" lon="11.80421">
        <ele>120.188688</ele>
        <time>2020-08-12T09:17:08.734Z</time>
      </trkpt>
      <trkpt lat="64.96656" lon="11.80439">
        <ele>120.440667</ele>
        <time>2020-08-12T09:17:13.736Z</time>
      </trkpt>
      <trkpt lat="64.96662" lon="11.8046">
        <ele>120.725511</ele>
        <time>2020-08-12T09:17:19.734Z</time>
      </trkpt>
      <trkpt lat="64.96666" lon="11.8048">
        <ele>120.988301</ele>
        <time>2020-08-12T09:17:25.763Z</time>
      </trkpt>
      <trkpt lat="64.96671" lon="11.80501">
        <ele>121.269099</ele>
        <time>2020-08-12T09:17:31.734Z</time>
      </trkpt>
      <trkpt lat="64.96675" lon="11.80521">
        <ele>121.525075</ele>
        <time>2020-08-12T09:17:36.760Z</time>
      </trkpt>
      <trkpt lat="64.9668" lon="11.80539">
        <ele>121.778462</ele>
        <time>2020-08-12T09:17:41.776Z</time>
      </trkpt>
      <trkpt lat="64.96683" lon="11.80559">
        <ele>122.028819</ele>
        <time>2020-08-12T09:17:46.761Z</time>
      </trkpt>
      <trkpt lat="64.96688" lon="11.80579">
        <ele>122.298567</ele>
        <time>2020-08-12T09:17:51.758Z</time>
      </trkpt>
      <trkpt lat="64.96693" lon="11.80599">
        <ele>122.564326</ele>
        <time>2020-08-12T09:17:56.735Z</time>
      </trkpt>
      <trkpt lat="64.96699" lon="11.8062">
        <ele>122.848261</ele>
        <time>2020-08-12T09:18:01.745Z</time>
      </trkpt>
      <trkpt lat="64.96703" lon="11.8064">
        <ele>123.110655</ele>
        <time>2020-08-12T09:18:06.744Z</time>
      </trkpt>
      <trkpt lat="64.96706" lon="11.80663">
        <ele>123.393386</ele>
        <time>2020-08-12T09:18:12.751Z</time>
      </trkpt>
      <trkpt lat="64.96712" lon="11.80683">
        <ele>123.669383</ele>
        <time>2020-08-12T09:18:17.742Z</time>
      </trkpt>
      <trkpt lat="64.96717" lon="11.80702">
        <ele>123.942082</ele>
        <time>2020-08-12T09:18:22.742Z</time>
      </trkpt>
      <trkpt lat="64.96724" lon="11.80723">
        <ele>124.234682</ele>
        <time>2020-08-12T09:18:27.744Z</time>
      </trkpt>
      <trkpt lat="64.96728" lon="11.80744">
        <ele>124.4579</ele>
        <time>2020-08-12T09:18:31.751Z</time>
      </trkpt>
      <trkpt lat="64.96733" lon="11.80766">
        <ele>124.295427</ele>
        <time>2020-08-12T09:18:35.746Z</time>
      </trkpt>
      <trkpt lat="64.96739" lon="11.80789">
        <ele>124.127406</ele>
        <time>2020-08-12T09:18:39.750Z</time>
      </trkpt>
      <trkpt lat="64.96744" lon="11.80807">
        <ele>123.986957</ele>
        <time>2020-08-12T09:18:42.762Z</time>
      </trkpt>
      <trkpt lat="64.96749" lon="11.80829">
        <ele>123.825729</ele>
        <time>2020-08-12T09:18:46.730Z</time>
      </trkpt>
      <trkpt lat="64.96754" lon="11.8085">
        <ele>123.670931</ele>
        <time>2020-08-12T09:18:50.755Z</time>
      </trkpt>
      <trkpt lat="64.96758" lon="11.80869">
        <ele>123.533212</ele>
        <time>2020-08-12T09:18:53.758Z</time>
      </trkpt>
      <trkpt lat="64.96764" lon="11.80892">
        <ele>123.365651</ele>
        <time>2020-08-12T09:18:56.733Z</time>
      </trkpt>
      <trkpt lat="64.9677" lon="11.80918">
        <ele>123.170336</ele>
        <time>2020-08-12T09:18:59.735Z</time>
      </trkpt>
      <trkpt lat="64.96776" lon="11.80939">
        <ele>123.005249</ele>
        <time>2020-08-12T09:19:01.768Z</time>
      </trkpt>
      <trkpt lat="64.96784" lon="11.80962">
        <ele>122.819108</ele>
        <time>2020-08-12T09:19:03.734Z</time>
      </trkpt>
      <trkpt lat="64.96794" lon="11.80986">
        <ele>122.610119</ele>
        <time>2020-08-12T09:19:05.785Z</time>
      </trkpt>
      <trkpt lat="64.96806" lon="11.81007">
        <ele>122.380059</ele>
        <time>2020-08-12T09:19:07.743Z</time>
      </trkpt>
      <trkpt lat="64.96821" lon="11.81025">
        <ele>122.126836</ele>
        <time>2020-08-12T09:19:09.740Z</time>
      </trkpt>
      <trkpt lat="64.96838" lon="11.81039">
        <ele>121.855197</ele>
        <time>2020-08-12T09:19:11.748Z</time>
      </trkpt>
      <trkpt lat="64.96846" lon="11.81046">
        <ele>121.655183</ele>
        <time>2020-08-12T09:19:12.777Z</time>
      </trkpt>
      <trkpt lat="64.96855" lon="11.81052">
        <ele>121.289954</ele>
        <time>2020-08-12T09:19:13.758Z</time>
      </trkpt>
      <trkpt lat="64.96864" lon="11.81057">
        <ele>120.921278</ele>
        <time>2020-08-12T09:19:14.753Z</time>
      </trkpt>
      <trkpt lat="64.96873" lon="11.81062">
        <ele>120.557985</ele>
        <time>2020-08-12T09:19:15.768Z</time>
      </trkpt>
      <trkpt lat="64.96882" lon="11.81067">
        <ele>120.185426</ele>
        <time>2020-08-12T09:19:16.748Z</time>
      </trkpt>
      <trkpt lat="64.96891" lon="11.81072">
        <ele>119.812868</ele>
        <time>2020-08-12T09:19:17.786Z</time>
      </trkpt>
      <trkpt lat="64.969" lon="11.81076">
        <ele>119.445318</ele>
        <time>2020-08-12T09:19:18.737Z</time>
      </trkpt>
      <trkpt lat="64.9691" lon="11.81081">
        <ele>119.061098</ele>
        <time>2020-08-12T09:19:19.747Z</time>
      </trkpt>
      <trkpt lat="64.96919" lon="11.81087">
        <ele>118.677974</ele>
        <time>2020-08-12T09:19:20.755Z</time>
      </trkpt>
      <trkpt lat="64.96929" lon="11.81092">
        <ele>118.289115</ele>
        <time>2020-08-12T09:19:21.731Z</time>
      </trkpt>
      <trkpt lat="64.96938" lon="11.81097">
        <ele>117.894598</ele>
        <time>2020-08-12T09:19:22.745Z</time>
      </trkpt>
      <trkpt lat="64.96948" lon="11.81099">
        <ele>117.501711</ele>
        <time>2020-08-12T09:19:23.746Z</time>
      </trkpt>
      <trkpt lat="64.96958" lon="11.81099">
        <ele>117.094909</ele>
        <time>2020-08-12T09:19:24.742Z</time>
      </trkpt>
      <trkpt lat="64.96968" lon="11.81094">
        <ele>116.695112</ele>
        <time>2020-08-12T09:19:25.736Z</time>
      </trkpt>
      <trkpt lat="64.96977" lon="11.81084">
        <ele>116.286771</ele>
        <time>2020-08-12T09:19:26.747Z</time>
      </trkpt>
      <trkpt lat="64.96985" lon="11.81071">
        <ele>115.899994</ele>
        <time>2020-08-12T09:19:27.751Z</time>
      </trkpt>
      <trkpt lat="64.96992" lon="11.81053">
        <ele>115.503202</ele>
        <time>2020-08-12T09:19:28.761Z</time>
      </trkpt>
      <trkpt lat="64.96997" lon="11.81033">
        <ele>115.09787</ele>
        <time>2020-08-12T09:19:29.745Z</time>
      </trkpt>
      <trkpt lat="64.97001" lon="11.81012">
        <ele>114.717183</ele>
        <time>2020-08-12T09:19:30.766Z</time>
      </trkpt>
      <trkpt lat="64.97004" lon="11.8099">
        <ele>114.30914</ele>
        <time>2020-08-12T09:19:31.748Z</time>
      </trkpt>
      <trkpt lat="64.97006" lon="11.80967">
        <ele>113.874283</ele>
        <time>2020-08-12T09:19:32.773Z</time>
      </trkpt>
      <trkpt lat="64.97007" lon="11.80944">
        <ele>113.434899</ele>
        <time>2020-08-12T09:19:33.759Z</time>
      </trkpt>
      <trkpt lat="64.97007" lon="11.8092">
        <ele>113.002463</ele>
        <time>2020-08-12T09:19:34.746Z</time>
      </trkpt>
      <trkpt lat="64.97007" lon="11.80897">
        <ele>112.571884</ele>
        <time>2020-08-12T09:19:35.761Z</time>
      </trkpt>
      <trkpt lat="64.97007" lon="11.80874">
        <ele>112.133114</ele>
        <time>2020-08-12T09:19:36.746Z</time>
      </trkpt>
      <trkpt lat="64.97009" lon="11.8085">
        <ele>111.687001</ele>
        <time>2020-08-12T09:19:37.750Z</time>
      </trkpt>
      <trkpt lat="64.97012" lon="11.80826">
        <ele>111.237302</ele>
        <time>2020-08-12T09:19:38.747Z</time>
      </trkpt>
      <trkpt lat="64.97015" lon="11.80803">
        <ele>110.778702</ele>
        <time>2020-08-12T09:19:39.739Z</time>
      </trkpt>
      <trkpt lat="64.97019" lon="11.80781">
        <ele>110.327391</ele>
        <time>2020-08-12T09:19:40.755Z</time>
      </trkpt>
      <trkpt lat="64.97024" lon="11.8076">
        <ele>109.884446</ele>
        <time>2020-08-12T09:19:41.759Z</time>
      </trkpt>
      <trkpt lat="64.9703" lon="11.80741">
        <ele>109.441051</ele>
        <time>2020-08-12T09:19:42.751Z</time>
      </trkpt>
      <trkpt lat="64.97037" lon="11.80723">
        <ele>108.996198</ele>
        <time>2020-08-12T09:19:43.756Z</time>
      </trkpt>
      <trkpt lat="64.97044" lon="11.80706">
        <ele>108.55497</ele>
        <time>2020-08-12T09:19:44.731Z</time>
      </trkpt>
      <trkpt lat="64.97052" lon="11.8069">
        <ele>108.107695</ele>
        <time>2020-08-12T09:19:45.733Z</time>
      </trkpt>
      <trkpt lat="64.9706" lon="11.80675">
        <ele>107.652528</ele>
        <time>2020-08-12T09:19:46.768Z</time>
      </trkpt>
      <trkpt lat="64.97069" lon="11.80663">
        <ele>107.203997</ele>
        <time>2020-08-12T09:19:47.754Z</time>
      </trkpt>
      <trkpt lat="64.97078" lon="11.80651">
        <ele>106.755472</ele>
        <time>2020-08-12T09:19:48.754Z</time>
      </trkpt>
      <trkpt lat="64.97087" lon="11.80639">
        <ele>106.26348</ele>
        <time>2020-08-12T09:19:49.781Z</time>
      </trkpt>
      <trkpt lat="64.97096" lon="11.80629">
        <ele>105.774834</ele>
        <time>2020-08-12T09:19:50.751Z</time>
      </trkpt>
      <trkpt lat="64.97105" lon="11.8062">
        <ele>105.288361</ele>
        <time>2020-08-12T09:19:51.733Z</time>
      </trkpt>
      <trkpt lat="64.97114" lon="11.80612">
        <ele>104.801238</ele>
        <time>2020-08-12T09:19:52.744Z</time>
      </trkpt>
      <trkpt lat="64.97123" lon="11.80604">
        <ele>104.323883</ele>
        <time>2020-08-12T09:19:53.749Z</time>
      </trkpt>
      <trkpt lat="64.97133" lon="11.80597">
        <ele>103.851807</ele>
        <time>2020-08-12T09:19:54.729Z</time>
      </trkpt>
      <trkpt lat="64.97142" lon="11.8059">
        <ele>103.37973</ele>
        <time>2020-08-12T09:19:55.736Z</time>
      </trkpt>
      <trkpt lat="64.97151" lon="11.80583">
        <ele>102.901075</ele>
        <time>2020-08-12T09:19:56.750Z</time>
      </trkpt>
      <trkpt lat="64.9716" lon="11.80576">
        <ele>102.423074</ele>
        <time>2020-08-12T09:19:57.756Z</time>
      </trkpt>
      <trkpt lat="64.9717" lon="11.80568">
        <ele>101.947694</ele>
        <time>2020-08-12T09:19:58.738Z</time>
      </trkpt>
      <trkpt lat="64.97179" lon="11.80561">
        <ele>101.478275</ele>
        <time>2020-08-12T09:19:59.732Z</time>
      </trkpt>
      <trkpt lat="64.97188" lon="11.80553">
        <ele>101.013466</ele>
        <time>2020-08-12T09:20:00.776Z</time>
      </trkpt>
      <trkpt lat="64.97196" lon="11.80545">
        <ele>100.562462</ele>
        <time>2020-08-12T09:20:01.749Z</time>
      </trkpt>
      <trkpt lat="64.97205" lon="11.80534">
        <ele>100.098957</ele>
        <time>2020-08-12T09:20:02.745Z</time>
      </trkpt>
      <trkpt lat="64.97213" lon="11.80522">
        <ele>99.634562</ele>
        <time>2020-08-12T09:20:03.782Z</time>
      </trkpt>
      <trkpt lat="64.9722" lon="11.80509">
        <ele>99.169373</ele>
        <time>2020-08-12T09:20:04.740Z</time>
      </trkpt>
      <trkpt lat="64.97228" lon="11.80494">
        <ele>98.709527</ele>
        <time>2020-08-12T09:20:05.733Z</time>
      </trkpt>
      <trkpt lat="64.97235" lon="11.80479">
        <ele>98.245872</ele>
        <time>2020-08-12T09:20:06.739Z</time>
      </trkpt>
      <trkpt lat="64.97241" lon="11.80463">
        <ele>97.797935</ele>
        <time>2020-08-12T09:20:07.735Z</time>
      </trkpt>
      <trkpt lat="64.97248" lon="11.80448">
        <ele>97.368443</ele>
        <time>2020-08-12T09:20:08.763Z</time>
      </trkpt>
      <trkpt lat="64.97254" lon="11.80433">
        <ele>96.952383</ele>
        <time>2020-08-12T09:20:09.734Z</time>
      </trkpt>
      <trkpt lat="64.97261" lon="11.80418">
        <ele>96.528361</ele>
        <time>2020-08-12T09:20:10.740Z</time>
      </trkpt>
      <trkpt lat="64.97267" lon="11.80403">
        <ele>96.10901</ele>
        <time>2020-08-12T09:20:11.733Z</time>
      </trkpt>
      <trkpt lat="64.97274" lon="11.80389">
        <ele>95.682298</ele>
        <time>2020-08-12T09:20:12.738Z</time>
      </trkpt>
      <trkpt lat="64.97281" lon="11.80373">
        <ele>95.25189</ele>
        <time>2020-08-12T09:20:13.783Z</time>
      </trkpt>
      <trkpt lat="64.97287" lon="11.80357">
        <ele>94.832701</ele>
        <time>2020-08-12T09:20:14.745Z</time>
      </trkpt>
      <trkpt lat="64.973" lon="11.80328">
        <ele>94.013465</ele>
        <time>2020-08-12T09:20:16.740Z</time>
      </trkpt>
      <trkpt lat="64.97306" lon="11.80313">
        <ele>93.599353</ele>
        <time>2020-08-12T09:20:17.742Z</time>
      </trkpt>
      <trkpt lat="64.97313" lon="11.803">
        <ele>93.181152</ele>
        <time>2020-08-12T09:20:18.747Z</time>
      </trkpt>
      <trkpt lat="64.97321" lon="11.80288">
        <ele>92.757518</ele>
        <time>2020-08-12T09:20:19.754Z</time>
      </trkpt>
      <trkpt lat="64.97329" lon="11.80277">
        <ele>92.341173</ele>
        <time>2020-08-12T09:20:20.768Z</time>
      </trkpt>
      <trkpt lat="64.97337" lon="11.80265">
        <ele>91.912945</ele>
        <time>2020-08-12T09:20:21.762Z</time>
      </trkpt>
      <trkpt lat="64.97345" lon="11.80254">
        <ele>91.481721</ele>
        <time>2020-08-12T09:20:22.735Z</time>
      </trkpt>
      <trkpt lat="64.97353" lon="11.80243">
        <ele>91.046219</ele>
        <time>2020-08-12T09:20:23.750Z</time>
      </trkpt>
      <trkpt lat="64.97361" lon="11.80233">
        <ele>90.61256</ele>
        <time>2020-08-12T09:20:24.741Z</time>
      </trkpt>
      <trkpt lat="64.97369" lon="11.80221">
        <ele>90.173068</ele>
        <time>2020-08-12T09:20:25.725Z</time>
      </trkpt>
      <trkpt lat="64.97377" lon="11.80209">
        <ele>89.747659</ele>
        <time>2020-08-12T09:20:26.763Z</time>
      </trkpt>
      <trkpt lat="64.97385" lon="11.80196">
        <ele>89.265276</ele>
        <time>2020-08-12T09:20:27.766Z</time>
      </trkpt>
      <trkpt lat="64.97392" lon="11.80182">
        <ele>88.756905</ele>
        <time>2020-08-12T09:20:28.771Z</time>
      </trkpt>
      <trkpt lat="64.97399" lon="11.80165">
        <ele>88.247525</ele>
        <time>2020-08-12T09:20:29.732Z</time>
      </trkpt>
      <trkpt lat="64.97404" lon="11.80148">
        <ele>87.751166</ele>
        <time>2020-08-12T09:20:30.753Z</time>
      </trkpt>
      <trkpt lat="64.97408" lon="11.80129">
        <ele>87.26965</ele>
        <time>2020-08-12T09:20:31.746Z</time>
      </trkpt>
      <trkpt lat="64.97413" lon="11.80089">
        <ele>86.341261</ele>
        <time>2020-08-12T09:20:33.727Z</time>
      </trkpt>
      <trkpt lat="64.97414" lon="11.80068">
        <ele>85.851414</ele>
        <time>2020-08-12T09:20:34.750Z</time>
      </trkpt>
      <trkpt lat="64.97416" lon="11.80046">
        <ele>85.354868</ele>
        <time>2020-08-12T09:20:35.733Z</time>
      </trkpt>
      <trkpt lat="64.97417" lon="11.80025">
        <ele>84.862789</ele>
        <time>2020-08-12T09:20:36.735Z</time>
      </trkpt>
      <trkpt lat="64.97418" lon="11.80003">
        <ele>84.366244</ele>
        <time>2020-08-12T09:20:37.765Z</time>
      </trkpt>
      <trkpt lat="64.9742" lon="11.79981">
        <ele>83.860005</ele>
        <time>2020-08-12T09:20:38.785Z</time>
      </trkpt>
      <trkpt lat="64.97421" lon="11.79958">
        <ele>83.333398</ele>
        <time>2020-08-12T09:20:39.746Z</time>
      </trkpt>
      <trkpt lat="64.97423" lon="11.79934">
        <ele>82.798294</ele>
        <time>2020-08-12T09:20:40.738Z</time>
      </trkpt>
      <trkpt lat="64.97426" lon="11.79911">
        <ele>82.269805</ele>
        <time>2020-08-12T09:20:41.785Z</time>
      </trkpt>
      <trkpt lat="64.97428" lon="11.79888">
        <ele>81.734207</ele>
        <time>2020-08-12T09:20:42.753Z</time>
      </trkpt>
      <trkpt lat="64.97432" lon="11.79866">
        <ele>81.181499</ele>
        <time>2020-08-12T09:20:43.766Z</time>
      </trkpt>
      <trkpt lat="64.97437" lon="11.79844">
        <ele>80.615687</ele>
        <time>2020-08-12T09:20:44.761Z</time>
      </trkpt>
      <trkpt lat="64.97443" lon="11.79824">
        <ele>80.046848</ele>
        <time>2020-08-12T09:20:45.738Z</time>
      </trkpt>
      <trkpt lat="64.97452" lon="11.79808">
        <ele>79.489769</ele>
        <time>2020-08-12T09:20:46.746Z</time>
      </trkpt>
      <trkpt lat="64.97462" lon="11.79798">
        <ele>78.933065</ele>
        <time>2020-08-12T09:20:47.755Z</time>
      </trkpt>
      <trkpt lat="64.97472" lon="11.79792">
        <ele>78.375979</ele>
        <time>2020-08-12T09:20:48.731Z</time>
      </trkpt>
      <trkpt lat="64.97483" lon="11.79789">
        <ele>77.807737</ele>
        <time>2020-08-12T09:20:49.804Z</time>
      </trkpt>
      <trkpt lat="64.97494" lon="11.79788">
        <ele>77.233607</ele>
        <time>2020-08-12T09:20:50.749Z</time>
      </trkpt>
      <trkpt lat="64.97505" lon="11.79788">
        <ele>76.664794</ele>
        <time>2020-08-12T09:20:51.748Z</time>
      </trkpt>
      <trkpt lat="64.97516" lon="11.79787">
        <ele>76.116233</ele>
        <time>2020-08-12T09:20:52.756Z</time>
      </trkpt>
      <trkpt lat="64.97526" lon="11.79786">
        <ele>75.572535</ele>
        <time>2020-08-12T09:20:53.748Z</time>
      </trkpt>
      <trkpt lat="64.97536" lon="11.79784">
        <ele>75.049093</ele>
        <time>2020-08-12T09:20:54.742Z</time>
      </trkpt>
      <trkpt lat="64.97546" lon="11.79782">
        <ele>74.535109</ele>
        <time>2020-08-12T09:20:55.747Z</time>
      </trkpt>
      <trkpt lat="64.97556" lon="11.79779">
        <ele>74.01953</ele>
        <time>2020-08-12T09:20:56.734Z</time>
      </trkpt>
      <trkpt lat="64.97566" lon="11.79777">
        <ele>73.509085</ele>
        <time>2020-08-12T09:20:57.762Z</time>
      </trkpt>
      <trkpt lat="64.97576" lon="11.79774">
        <ele>73.004983</ele>
        <time>2020-08-12T09:20:58.772Z</time>
      </trkpt>
      <trkpt lat="64.97585" lon="11.79772">
        <ele>72.511984</ele>
        <time>2020-08-12T09:20:59.766Z</time>
      </trkpt>
      <trkpt lat="64.97595" lon="11.79772">
        <ele>72.020618</ele>
        <time>2020-08-12T09:21:00.732Z</time>
      </trkpt>
      <trkpt lat="64.97604" lon="11.79772">
        <ele>71.524198</ele>
        <time>2020-08-12T09:21:01.734Z</time>
      </trkpt>
      <trkpt lat="64.97614" lon="11.79774">
        <ele>71.026551</ele>
        <time>2020-08-12T09:21:02.765Z</time>
      </trkpt>
      <trkpt lat="64.97624" lon="11.79776">
        <ele>70.57488</ele>
        <time>2020-08-12T09:21:03.742Z</time>
      </trkpt>
      <trkpt lat="64.97633" lon="11.79779">
        <ele>70.193925</ele>
        <time>2020-08-12T09:21:04.744Z</time>
      </trkpt>
      <trkpt lat="64.97642" lon="11.79783">
        <ele>69.821882</ele>
        <time>2020-08-12T09:21:05.766Z</time>
      </trkpt>
      <trkpt lat="64.97652" lon="11.79789">
        <ele>69.444779</ele>
        <time>2020-08-12T09:21:06.743Z</time>
      </trkpt>
      <trkpt lat="64.97661" lon="11.79795">
        <ele>69.07064</ele>
        <time>2020-08-12T09:21:07.737Z</time>
      </trkpt>
      <trkpt lat="64.9767" lon="11.79801">
        <ele>68.709345</ele>
        <time>2020-08-12T09:21:08.765Z</time>
      </trkpt>
      <trkpt lat="64.97678" lon="11.79808">
        <ele>68.355661</ele>
        <time>2020-08-12T09:21:09.769Z</time>
      </trkpt>
      <trkpt lat="64.97687" lon="11.79816">
        <ele>68.003457</ele>
        <time>2020-08-12T09:21:10.754Z</time>
      </trkpt>
      <trkpt lat="64.97695" lon="11.79825">
        <ele>67.643765</ele>
        <time>2020-08-12T09:21:11.753Z</time>
      </trkpt>
      <trkpt lat="64.97703" lon="11.79834">
        <ele>67.279294</ele>
        <time>2020-08-12T09:21:12.749Z</time>
      </trkpt>
      <trkpt lat="64.97712" lon="11.79844">
        <ele>66.911954</ele>
        <time>2020-08-12T09:21:13.774Z</time>
      </trkpt>
      <trkpt lat="64.97721" lon="11.79854">
        <ele>66.52546</ele>
        <time>2020-08-12T09:21:14.757Z</time>
      </trkpt>
      <trkpt lat="64.9773" lon="11.79864">
        <ele>66.133994</ele>
        <time>2020-08-12T09:21:15.755Z</time>
      </trkpt>
      <trkpt lat="64.97739" lon="11.79874">
        <ele>65.73815</ele>
        <time>2020-08-12T09:21:16.736Z</time>
      </trkpt>
      <trkpt lat="64.97748" lon="11.79885">
        <ele>65.335999</ele>
        <time>2020-08-12T09:21:17.735Z</time>
      </trkpt>
      <trkpt lat="64.97757" lon="11.79896">
        <ele>64.926636</ele>
        <time>2020-08-12T09:21:18.736Z</time>
      </trkpt>
      <trkpt lat="64.97767" lon="11.79906">
        <ele>64.520916</ele>
        <time>2020-08-12T09:21:19.740Z</time>
      </trkpt>
      <trkpt lat="64.97776" lon="11.79916">
        <ele>64.099821</ele>
        <time>2020-08-12T09:21:20.748Z</time>
      </trkpt>
      <trkpt lat="64.97786" lon="11.79925">
        <ele>63.690972</ele>
        <time>2020-08-12T09:21:21.749Z</time>
      </trkpt>
      <trkpt lat="64.97796" lon="11.79934">
        <ele>63.25768</ele>
        <time>2020-08-12T09:21:22.770Z</time>
      </trkpt>
      <trkpt lat="64.97805" lon="11.79941">
        <ele>62.832544</ele>
        <time>2020-08-12T09:21:23.750Z</time>
      </trkpt>
      <trkpt lat="64.97815" lon="11.79948">
        <ele>62.406228</ele>
        <time>2020-08-12T09:21:24.806Z</time>
      </trkpt>
      <trkpt lat="64.97824" lon="11.79953">
        <ele>62.009485</ele>
        <time>2020-08-12T09:21:25.778Z</time>
      </trkpt>
      <trkpt lat="64.97841" lon="11.79958">
        <ele>61.300385</ele>
        <time>2020-08-12T09:21:27.750Z</time>
      </trkpt>
      <trkpt lat="64.97857" lon="11.7996">
        <ele>60.605612</ele>
        <time>2020-08-12T09:21:29.725Z</time>
      </trkpt>
      <trkpt lat="64.97873" lon="11.7996">
        <ele>59.936719</ele>
        <time>2020-08-12T09:21:31.749Z</time>
      </trkpt>
      <trkpt lat="64.97888" lon="11.79959">
        <ele>59.305465</ele>
        <time>2020-08-12T09:21:33.746Z</time>
      </trkpt>
      <trkpt lat="64.97902" lon="11.79956">
        <ele>58.711121</ele>
        <time>2020-08-12T09:21:35.751Z</time>
      </trkpt>
      <trkpt lat="64.97915" lon="11.79954">
        <ele>58.163343</ele>
        <time>2020-08-12T09:21:37.730Z</time>
      </trkpt>
      <trkpt lat="64.97927" lon="11.79951">
        <ele>57.635493</ele>
        <time>2020-08-12T09:21:39.742Z</time>
      </trkpt>
      <trkpt lat="64.9794" lon="11.79948">
        <ele>57.094825</ele>
        <time>2020-08-12T09:21:41.772Z</time>
      </trkpt>
      <trkpt lat="64.97953" lon="11.79946">
        <ele>56.539852</ele>
        <time>2020-08-12T09:21:43.778Z</time>
      </trkpt>
      <trkpt lat="64.97966" lon="11.79947">
        <ele>56.028294</ele>
        <time>2020-08-12T09:21:45.742Z</time>
      </trkpt>
      <trkpt lat="64.97979" lon="11.7995">
        <ele>55.872039</ele>
        <time>2020-08-12T09:21:47.740Z</time>
      </trkpt>
      <trkpt lat="64.97993" lon="11.79955">
        <ele>55.708788</ele>
        <time>2020-08-12T09:21:49.738Z</time>
      </trkpt>
      <trkpt lat="64.98006" lon="11.79963">
        <ele>55.538704</ele>
        <time>2020-08-12T09:21:51.751Z</time>
      </trkpt>
      <trkpt lat="64.9802" lon="11.79974">
        <ele>55.365462</ele>
        <time>2020-08-12T09:21:53.758Z</time>
      </trkpt>
      <trkpt lat="64.98034" lon="11.79984">
        <ele>55.198095</ele>
        <time>2020-08-12T09:21:55.776Z</time>
      </trkpt>
      <trkpt lat="64.98048" lon="11.79993">
        <ele>55.023754</ele>
        <time>2020-08-12T09:21:57.778Z</time>
      </trkpt>
      <trkpt lat="64.98062" lon="11.79999">
        <ele>54.85726</ele>
        <time>2020-08-12T09:21:59.760Z</time>
      </trkpt>
      <trkpt lat="64.98076" lon="11.79999">
        <ele>54.692235</ele>
        <time>2020-08-12T09:22:01.735Z</time>
      </trkpt>
      <trkpt lat="64.98088" lon="11.79992">
        <ele>54.54319</ele>
        <time>2020-08-12T09:22:03.737Z</time>
      </trkpt>
      <trkpt lat="64.98099" lon="11.79979">
        <ele>54.398155</ele>
        <time>2020-08-12T09:22:05.786Z</time>
      </trkpt>
      <trkpt lat="64.98107" lon="11.7996">
        <ele>54.258357</ele>
        <time>2020-08-12T09:22:07.736Z</time>
      </trkpt>
      <trkpt lat="64.98115" lon="11.7994">
        <ele>54.123355</ele>
        <time>2020-08-12T09:22:09.737Z</time>
      </trkpt>
      <trkpt lat="64.98122" lon="11.79919">
        <ele>53.989494</ele>
        <time>2020-08-12T09:22:11.751Z</time>
      </trkpt>
      <trkpt lat="64.98128" lon="11.79899">
        <ele>54.029112</ele>
        <time>2020-08-12T09:22:13.759Z</time>
      </trkpt>
      <trkpt lat="64.98134" lon="11.7988">
        <ele>54.333564</ele>
        <time>2020-08-12T09:22:15.773Z</time>
      </trkpt>
      <trkpt lat="64.98139" lon="11.79862">
        <ele>54.618296</ele>
        <time>2020-08-12T09:22:17.780Z</time>
      </trkpt>
      <trkpt lat="64.98145" lon="11.79843">
        <ele>54.929332</ele>
        <time>2020-08-12T09:22:19.743Z</time>
      </trkpt>
      <trkpt lat="64.98151" lon="11.79824">
        <ele>55.239315</ele>
        <time>2020-08-12T09:22:21.747Z</time>
      </trkpt>
      <trkpt lat="64.98158" lon="11.79806">
        <ele>55.554906</ele>
        <time>2020-08-12T09:22:23.767Z</time>
      </trkpt>
      <trkpt lat="64.98164" lon="11.7979">
        <ele>55.851252</ele>
        <time>2020-08-12T09:22:25.730Z</time>
      </trkpt>
      <trkpt lat="64.98172" lon="11.79776">
        <ele>56.137277</ele>
        <time>2020-08-12T09:22:27.753Z</time>
      </trkpt>
      <trkpt lat="64.98182" lon="11.79758">
        <ele>56.542913</ele>
        <time>2020-08-12T09:22:30.783Z</time>
      </trkpt>
      <trkpt lat="64.98191" lon="11.79747">
        <ele>56.868007</ele>
        <time>2020-08-12T09:22:33.731Z</time>
      </trkpt>
      <trkpt lat="64.98201" lon="11.79736">
        <ele>57.192106</ele>
        <time>2020-08-12T09:22:37.748Z</time>
      </trkpt>
      <trkpt lat="64.98211" lon="11.79726">
        <ele>57.53186</ele>
        <time>2020-08-12T09:22:43.749Z</time>
      </trkpt>
      <trkpt lat="64.98221" lon="11.79714">
        <ele>57.891995</ele>
        <time>2020-08-12T09:22:48.745Z</time>
      </trkpt>
      <trkpt lat="64.98232" lon="11.79701">
        <ele>58.255769</ele>
        <time>2020-08-12T09:22:52.748Z</time>
      </trkpt>
      <trkpt lat="64.9824" lon="11.79685">
        <ele>58.601326</ele>
        <time>2020-08-12T09:22:56.746Z</time>
      </trkpt>
      <trkpt lat="64.98246" lon="11.79668">
        <ele>58.891878</ele>
        <time>2020-08-12T09:22:59.756Z</time>
      </trkpt>
      <trkpt lat="64.98252" lon="11.79649">
        <ele>59.194906</ele>
        <time>2020-08-12T09:23:02.784Z</time>
      </trkpt>
      <trkpt lat="64.98257" lon="11.79628">
        <ele>59.509273</ele>
        <time>2020-08-12T09:23:05.731Z</time>
      </trkpt>
      <trkpt lat="64.98262" lon="11.79605">
        <ele>59.608447</ele>
        <time>2020-08-12T09:23:08.733Z</time>
      </trkpt>
      <trkpt lat="64.98266" lon="11.7958">
        <ele>59.712425</ele>
        <time>2020-08-12T09:23:11.740Z</time>
      </trkpt>
      <trkpt lat="64.98268" lon="11.79554">
        <ele>59.817501</ele>
        <time>2020-08-12T09:23:14.741Z</time>
      </trkpt>
      <trkpt lat="64.98269" lon="11.79526">
        <ele>59.925741</ele>
        <time>2020-08-12T09:23:17.777Z</time>
      </trkpt>
      <trkpt lat="64.98267" lon="11.79499">
        <ele>60.03082</ele>
        <time>2020-08-12T09:23:20.733Z</time>
      </trkpt>
      <trkpt lat="64.98265" lon="11.79475">
        <ele>60.12677</ele>
        <time>2020-08-12T09:23:23.734Z</time>
      </trkpt>
      <trkpt lat="64.98264" lon="11.7945">
        <ele>60.223696</ele>
        <time>2020-08-12T09:23:26.755Z</time>
      </trkpt>
      <trkpt lat="64.98261" lon="11.79424">
        <ele>60.327462</ele>
        <time>2020-08-12T09:23:29.757Z</time>
      </trkpt>
      <trkpt lat="64.98258" lon="11.79396">
        <ele>60.439338</ele>
        <time>2020-08-12T09:23:32.791Z</time>
      </trkpt>
      <trkpt lat="64.98255" lon="11.79367">
        <ele>60.559355</ele>
        <time>2020-08-12T09:23:35.751Z</time>
      </trkpt>
      <trkpt lat="64.98253" lon="11.79346">
        <ele>60.642174</ele>
        <time>2020-08-12T09:23:37.744Z</time>
      </trkpt>
      <trkpt lat="64.9825" lon="11.79315">
        <ele>60.765163</ele>
        <time>2020-08-12T09:23:40.736Z</time>
      </trkpt>
      <trkpt lat="64.98248" lon="11.79284">
        <ele>60.888134</ele>
        <time>2020-08-12T09:23:43.734Z</time>
      </trkpt>
      <trkpt lat="64.98245" lon="11.79254">
        <ele>61.008642</ele>
        <time>2020-08-12T09:23:46.789Z</time>
      </trkpt>
      <trkpt lat="64.98241" lon="11.79225">
        <ele>61.124377</ele>
        <time>2020-08-12T09:23:49.744Z</time>
      </trkpt>
      <trkpt lat="64.98239" lon="11.792">
        <ele>61.192789</ele>
        <time>2020-08-12T09:23:52.747Z</time>
      </trkpt>
      <trkpt lat="64.98235" lon="11.79177">
        <ele>61.240653</ele>
        <time>2020-08-12T09:23:55.742Z</time>
      </trkpt>
      <trkpt lat="64.98231" lon="11.79151">
        <ele>61.294505</ele>
        <time>2020-08-12T09:23:58.733Z</time>
      </trkpt>
      <trkpt lat="64.98224" lon="11.79123">
        <ele>61.355683</ele>
        <time>2020-08-12T09:24:01.756Z</time>
      </trkpt>
      <trkpt lat="64.9822" lon="11.79104">
        <ele>61.399776</ele>
        <time>2020-08-12T09:24:03.748Z</time>
      </trkpt>
      <trkpt lat="64.98215" lon="11.79083">
        <ele>61.444561</ele>
        <time>2020-08-12T09:24:05.745Z</time>
      </trkpt>
      <trkpt lat="64.98211" lon="11.79061">
        <ele>61.491906</ele>
        <time>2020-08-12T09:24:07.752Z</time>
      </trkpt>
      <trkpt lat="64.98206" lon="11.79039">
        <ele>61.540591</ele>
        <time>2020-08-12T09:24:09.759Z</time>
      </trkpt>
      <trkpt lat="64.98201" lon="11.79015">
        <ele>61.591539</ele>
        <time>2020-08-12T09:24:11.737Z</time>
      </trkpt>
      <trkpt lat="64.98197" lon="11.78992">
        <ele>61.641474</ele>
        <time>2020-08-12T09:24:13.767Z</time>
      </trkpt>
      <trkpt lat="64.98193" lon="11.78967">
        <ele>61.692474</ele>
        <time>2020-08-12T09:24:15.751Z</time>
      </trkpt>
      <trkpt lat="64.98189" lon="11.78944">
        <ele>61.741157</ele>
        <time>2020-08-12T09:24:17.738Z</time>
      </trkpt>
      <trkpt lat="64.98187" lon="11.78921">
        <ele>61.786973</ele>
        <time>2020-08-12T09:24:19.747Z</time>
      </trkpt>
      <trkpt lat="64.98185" lon="11.78891">
        <ele>61.845608</ele>
        <time>2020-08-12T09:24:22.757Z</time>
      </trkpt>
      <trkpt lat="64.98183" lon="11.78867">
        <ele>61.892656</ele>
        <time>2020-08-12T09:24:25.758Z</time>
      </trkpt>
      <trkpt lat="64.98182" lon="11.78841">
        <ele>61.942652</ele>
        <time>2020-08-12T09:24:29.733Z</time>
      </trkpt>
      <trkpt lat="64.98181" lon="11.78816">
        <ele>62.038079</ele>
        <time>2020-08-12T09:24:34.743Z</time>
      </trkpt>
      <trkpt lat="64.98181" lon="11.78792">
        <ele>62.512664</ele>
        <time>2020-08-12T09:24:39.754Z</time>
      </trkpt>
      <trkpt lat="64.98182" lon="11.78768">
        <ele>62.981509</ele>
        <time>2020-08-12T09:24:44.778Z</time>
      </trkpt>
      <trkpt lat="64.98182" lon="11.78745">
        <ele>63.438585</ele>
        <time>2020-08-12T09:24:50.780Z</time>
      </trkpt>
      <trkpt lat="64.98182" lon="11.78722">
        <ele>63.890134</ele>
        <time>2020-08-12T09:24:56.744Z</time>
      </trkpt>
      <trkpt lat="64.98182" lon="11.787">
        <ele>64.314068</ele>
        <time>2020-08-12T09:25:02.764Z</time>
      </trkpt>
      <trkpt lat="64.98183" lon="11.78679">
        <ele>64.73212</ele>
        <time>2020-08-12T09:25:08.747Z</time>
      </trkpt>
      <trkpt lat="64.98182" lon="11.78655">
        <ele>65.207031</ele>
        <time>2020-08-12T09:25:15.744Z</time>
      </trkpt>
      <trkpt lat="64.98182" lon="11.78633">
        <ele>65.630736</ele>
        <time>2020-08-12T09:25:21.739Z</time>
      </trkpt>
      <trkpt lat="64.98182" lon="11.78609">
        <ele>66.110174</ele>
        <time>2020-08-12T09:25:28.763Z</time>
      </trkpt>
      <trkpt lat="64.98182" lon="11.78588">
        <ele>66.527299</ele>
        <time>2020-08-12T09:25:34.782Z</time>
      </trkpt>
      <trkpt lat="64.98182" lon="11.78566">
        <ele>66.958114</ele>
        <time>2020-08-12T09:25:39.740Z</time>
      </trkpt>
      <trkpt lat="64.98182" lon="11.78543">
        <ele>67.397537</ele>
        <time>2020-08-12T09:25:44.738Z</time>
      </trkpt>
      <trkpt lat="64.98182" lon="11.78521">
        <ele>67.833012</ele>
        <time>2020-08-12T09:25:49.745Z</time>
      </trkpt>
      <trkpt lat="64.98181" lon="11.785">
        <ele>68.258769</ele>
        <time>2020-08-12T09:25:53.730Z</time>
      </trkpt>
      <trkpt lat="64.98179" lon="11.78477">
        <ele>68.709455</ele>
        <time>2020-08-12T09:25:57.744Z</time>
      </trkpt>
      <trkpt lat="64.98177" lon="11.78452">
        <ele>69.221018</ele>
        <time>2020-08-12T09:26:01.737Z</time>
      </trkpt>
      <trkpt lat="64.98175" lon="11.78428">
        <ele>69.681775</ele>
        <time>2020-08-12T09:26:04.725Z</time>
      </trkpt>
      <trkpt lat="64.98172" lon="11.784">
        <ele>70.260603</ele>
        <time>2020-08-12T09:26:07.762Z</time>
      </trkpt>
      <trkpt lat="64.9817" lon="11.78378">
        <ele>69.994885</ele>
        <time>2020-08-12T09:26:09.740Z</time>
      </trkpt>
      <trkpt lat="64.98166" lon="11.78357">
        <ele>69.573852</ele>
        <time>2020-08-12T09:26:11.749Z</time>
      </trkpt>
      <trkpt lat="64.98161" lon="11.78334">
        <ele>69.107408</ele>
        <time>2020-08-12T09:26:13.748Z</time>
      </trkpt>
      <trkpt lat="64.98155" lon="11.78308">
        <ele>68.593564</ele>
        <time>2020-08-12T09:26:15.746Z</time>
      </trkpt>
      <trkpt lat="64.98149" lon="11.78281">
        <ele>68.039689</ele>
        <time>2020-08-12T09:26:17.744Z</time>
      </trkpt>
      <trkpt lat="64.98142" lon="11.78253">
        <ele>67.461267</ele>
        <time>2020-08-12T09:26:19.730Z</time>
      </trkpt>
      <trkpt lat="64.98136" lon="11.78222">
        <ele>66.848729</ele>
        <time>2020-08-12T09:26:21.748Z</time>
      </trkpt>
      <trkpt lat="64.98129" lon="11.7819">
        <ele>66.21745</ele>
        <time>2020-08-12T09:26:23.734Z</time>
      </trkpt>
      <trkpt lat="64.98123" lon="11.78156">
        <ele>65.546977</ele>
        <time>2020-08-12T09:26:25.759Z</time>
      </trkpt>
      <trkpt lat="64.98117" lon="11.78121">
        <ele>64.86181</ele>
        <time>2020-08-12T09:26:27.756Z</time>
      </trkpt>
      <trkpt lat="64.9811" lon="11.78086">
        <ele>64.165087</ele>
        <time>2020-08-12T09:26:29.736Z</time>
      </trkpt>
      <trkpt lat="64.98104" lon="11.78049">
        <ele>63.453516</ele>
        <time>2020-08-12T09:26:31.744Z</time>
      </trkpt>
      <trkpt lat="64.98097" lon="11.78011">
        <ele>62.723768</ele>
        <time>2020-08-12T09:26:33.754Z</time>
      </trkpt>
      <trkpt lat="64.9809" lon="11.77973">
        <ele>61.664897</ele>
        <time>2020-08-12T09:26:35.749Z</time>
      </trkpt>
      <trkpt lat="64.98086" lon="11.77953">
        <ele>61.108071</ele>
        <time>2020-08-12T09:26:36.744Z</time>
      </trkpt>
      <trkpt lat="64.98083" lon="11.77933">
        <ele>60.55122</ele>
        <time>2020-08-12T09:26:37.770Z</time>
      </trkpt>
      <trkpt lat="64.98079" lon="11.77913">
        <ele>59.987295</ele>
        <time>2020-08-12T09:26:38.757Z</time>
      </trkpt>
      <trkpt lat="64.98075" lon="11.77893">
        <ele>59.430467</ele>
        <time>2020-08-12T09:26:39.736Z</time>
      </trkpt>
      <trkpt lat="64.98072" lon="11.77873">
        <ele>58.864188</ele>
        <time>2020-08-12T09:26:40.746Z</time>
      </trkpt>
      <trkpt lat="64.98068" lon="11.77852">
        <ele>58.304853</ele>
        <time>2020-08-12T09:26:41.784Z</time>
      </trkpt>
      <trkpt lat="64.98065" lon="11.77831">
        <ele>57.733344</ele>
        <time>2020-08-12T09:26:42.754Z</time>
      </trkpt>
      <trkpt lat="64.98062" lon="11.77811">
        <ele>57.157486</ele>
        <time>2020-08-12T09:26:43.754Z</time>
      </trkpt>
      <trkpt lat="64.98058" lon="11.77789">
        <ele>56.579045</ele>
        <time>2020-08-12T09:26:44.747Z</time>
      </trkpt>
      <trkpt lat="64.98055" lon="11.77768">
        <ele>55.995517</ele>
        <time>2020-08-12T09:26:45.752Z</time>
      </trkpt>
      <trkpt lat="64.98052" lon="11.77747">
        <ele>55.409582</ele>
        <time>2020-08-12T09:26:46.754Z</time>
      </trkpt>
      <trkpt lat="64.98048" lon="11.77725">
        <ele>54.822815</ele>
        <time>2020-08-12T09:26:47.742Z</time>
      </trkpt>
      <trkpt lat="64.98045" lon="11.77703">
        <ele>54.218505</ele>
        <time>2020-08-12T09:26:48.785Z</time>
      </trkpt>
      <trkpt lat="64.98041" lon="11.77681">
        <ele>53.611234</ele>
        <time>2020-08-12T09:26:49.734Z</time>
      </trkpt>
      <trkpt lat="64.98038" lon="11.77658">
        <ele>52.992822</ele>
        <time>2020-08-12T09:26:50.741Z</time>
      </trkpt>
      <trkpt lat="64.98035" lon="11.77634">
        <ele>52.365693</ele>
        <time>2020-08-12T09:26:51.753Z</time>
      </trkpt>
      <trkpt lat="64.98033" lon="11.7761">
        <ele>51.752556</ele>
        <time>2020-08-12T09:26:52.768Z</time>
      </trkpt>
      <trkpt lat="64.9803" lon="11.77586">
        <ele>51.303787</ele>
        <time>2020-08-12T09:26:53.743Z</time>
      </trkpt>
      <trkpt lat="64.98027" lon="11.77563">
        <ele>50.862695</ele>
        <time>2020-08-12T09:26:54.743Z</time>
      </trkpt>
      <trkpt lat="64.98025" lon="11.77541">
        <ele>50.429851</ele>
        <time>2020-08-12T09:26:55.740Z</time>
      </trkpt>
      <trkpt lat="64.98022" lon="11.77518">
        <ele>50.003909</ele>
        <time>2020-08-12T09:26:56.746Z</time>
      </trkpt>
      <trkpt lat="64.9802" lon="11.77496">
        <ele>49.579007</ele>
        <time>2020-08-12T09:26:57.755Z</time>
      </trkpt>
      <trkpt lat="64.98018" lon="11.77473">
        <ele>49.155104</ele>
        <time>2020-08-12T09:26:58.756Z</time>
      </trkpt>
      <trkpt lat="64.98015" lon="11.77451">
        <ele>48.736564</ele>
        <time>2020-08-12T09:26:59.720Z</time>
      </trkpt>
      <trkpt lat="64.98013" lon="11.77429">
        <ele>48.316236</ele>
        <time>2020-08-12T09:27:00.746Z</time>
      </trkpt>
      <trkpt lat="64.98011" lon="11.77406">
        <ele>47.897695</ele>
        <time>2020-08-12T09:27:01.735Z</time>
      </trkpt>
      <trkpt lat="64.98009" lon="11.77385">
        <ele>47.487285</ele>
        <time>2020-08-12T09:27:02.786Z</time>
      </trkpt>
      <trkpt lat="64.98007" lon="11.77363">
        <ele>47.081243</ele>
        <time>2020-08-12T09:27:03.786Z</time>
      </trkpt>
      <trkpt lat="64.98005" lon="11.77342">
        <ele>46.68433</ele>
        <time>2020-08-12T09:27:04.757Z</time>
      </trkpt>
      <trkpt lat="64.98003" lon="11.77301">
        <ele>45.934237</ele>
        <time>2020-08-12T09:27:06.735Z</time>
      </trkpt>
      <trkpt lat="64.98002" lon="11.77262">
        <ele>45.202621</ele>
        <time>2020-08-12T09:27:08.732Z</time>
      </trkpt>
      <trkpt lat="64.98003" lon="11.77224">
        <ele>44.51047</ele>
        <time>2020-08-12T09:27:10.754Z</time>
      </trkpt>
      <trkpt lat="64.98006" lon="11.77189">
        <ele>44.062368</ele>
        <time>2020-08-12T09:27:12.775Z</time>
      </trkpt>
      <trkpt lat="64.9801" lon="11.77157">
        <ele>44.304821</ele>
        <time>2020-08-12T09:27:14.757Z</time>
      </trkpt>
      <trkpt lat="64.98015" lon="11.77128">
        <ele>44.53083</ele>
        <time>2020-08-12T09:27:16.754Z</time>
      </trkpt>
      <trkpt lat="64.98021" lon="11.77103">
        <ele>44.739328</ele>
        <time>2020-08-12T09:27:18.754Z</time>
      </trkpt>
      <trkpt lat="64.98027" lon="11.77081">
        <ele>44.932177</ele>
        <time>2020-08-12T09:27:20.735Z</time>
      </trkpt>
      <trkpt lat="64.98033" lon="11.7706">
        <ele>45.112041</ele>
        <time>2020-08-12T09:27:22.755Z</time>
      </trkpt>
      <trkpt lat="64.98039" lon="11.77041">
        <ele>45.281463</ele>
        <time>2020-08-12T09:27:24.753Z</time>
      </trkpt>
      <trkpt lat="64.98044" lon="11.77023">
        <ele>45.446141</ele>
        <time>2020-08-12T09:27:26.735Z</time>
      </trkpt>
      <trkpt lat="64.98052" lon="11.76998">
        <ele>45.665451</ele>
        <time>2020-08-12T09:27:29.773Z</time>
      </trkpt>
      <trkpt lat="64.98059" lon="11.76976">
        <ele>45.864044</ele>
        <time>2020-08-12T09:27:32.748Z</time>
      </trkpt>
      <trkpt lat="64.98066" lon="11.76957">
        <ele>46.041448</ele>
        <time>2020-08-12T09:27:35.757Z</time>
      </trkpt>
      <trkpt lat="64.98072" lon="11.7694">
        <ele>46.206151</ele>
        <time>2020-08-12T09:27:38.736Z</time>
      </trkpt>
      <trkpt lat="64.98079" lon="11.76919">
        <ele>46.399129</ele>
        <time>2020-08-12T09:27:42.742Z</time>
      </trkpt>
      <trkpt lat="64.98085" lon="11.76897">
        <ele>46.592792</ele>
        <time>2020-08-12T09:27:46.728Z</time>
      </trkpt>
      <trkpt lat="64.98092" lon="11.76876">
        <ele>46.784508</ele>
        <time>2020-08-12T09:27:50.733Z</time>
      </trkpt>
      <trkpt lat="64.98099" lon="11.76856">
        <ele>46.975297</ele>
        <time>2020-08-12T09:27:54.747Z</time>
      </trkpt>
      <trkpt lat="64.98108" lon="11.7684">
        <ele>47.113546</ele>
        <time>2020-08-12T09:27:58.734Z</time>
      </trkpt>
      <trkpt lat="64.98115" lon="11.76825">
        <ele>47.180848</ele>
        <time>2020-08-12T09:28:02.759Z</time>
      </trkpt>
      <trkpt lat="64.98123" lon="11.76809">
        <ele>47.250919</ele>
        <time>2020-08-12T09:28:06.750Z</time>
      </trkpt>
      <trkpt lat="64.98131" lon="11.76795">
        <ele>47.321162</ele>
        <time>2020-08-12T09:28:10.745Z</time>
      </trkpt>
      <trkpt lat="64.9814" lon="11.76779">
        <ele>47.395474</ele>
        <time>2020-08-12T09:28:14.728Z</time>
      </trkpt>
      <trkpt lat="64.98147" lon="11.76768">
        <ele>47.458498</ele>
        <time>2020-08-12T09:28:17.766Z</time>
      </trkpt>
      <trkpt lat="64.98155" lon="11.76757">
        <ele>47.520623</ele>
        <time>2020-08-12T09:28:20.734Z</time>
      </trkpt>
      <trkpt lat="64.98164" lon="11.76745">
        <ele>47.589421</ele>
        <time>2020-08-12T09:28:23.746Z</time>
      </trkpt>
      <trkpt lat="64.98174" lon="11.76729">
        <ele>47.67419</ele>
        <time>2020-08-12T09:28:26.733Z</time>
      </trkpt>
      <trkpt lat="64.98183" lon="11.76717">
        <ele>47.741207</ele>
        <time>2020-08-12T09:28:28.756Z</time>
      </trkpt>
      <trkpt lat="64.98192" lon="11.76704">
        <ele>47.815934</ele>
        <time>2020-08-12T09:28:30.731Z</time>
      </trkpt>
      <trkpt lat="64.98201" lon="11.76688">
        <ele>47.896725</ele>
        <time>2020-08-12T09:28:32.784Z</time>
      </trkpt>
      <trkpt lat="64.98212" lon="11.76669">
        <ele>47.986523</ele>
        <time>2020-08-12T09:28:34.756Z</time>
      </trkpt>
      <trkpt lat="64.98223" lon="11.7665">
        <ele>48.080666</ele>
        <time>2020-08-12T09:28:36.746Z</time>
      </trkpt>
      <trkpt lat="64.98234" lon="11.7663">
        <ele>48.179508</ele>
        <time>2020-08-12T09:28:38.749Z</time>
      </trkpt>
      <trkpt lat="64.98245" lon="11.76608">
        <ele>48.274396</ele>
        <time>2020-08-12T09:28:40.836Z</time>
      </trkpt>
      <trkpt lat="64.98253" lon="11.76582">
        <ele>48.382122</ele>
        <time>2020-08-12T09:28:42.755Z</time>
      </trkpt>
      <trkpt lat="64.98262" lon="11.76557">
        <ele>48.499075</ele>
        <time>2020-08-12T09:28:44.757Z</time>
      </trkpt>
      <trkpt lat="64.98268" lon="11.76531">
        <ele>48.607504</ele>
        <time>2020-08-12T09:28:46.742Z</time>
      </trkpt>
      <trkpt lat="64.98273" lon="11.76505">
        <ele>48.712287</ele>
        <time>2020-08-12T09:28:48.751Z</time>
      </trkpt>
      <trkpt lat="64.98278" lon="11.7648">
        <ele>48.813625</ele>
        <time>2020-08-12T09:28:50.767Z</time>
      </trkpt>
      <trkpt lat="64.98283" lon="11.76456">
        <ele>48.910308</ele>
        <time>2020-08-12T09:28:52.774Z</time>
      </trkpt>
      <trkpt lat="64.98288" lon="11.76434">
        <ele>49.002473</ele>
        <time>2020-08-12T09:28:54.750Z</time>
      </trkpt>
      <trkpt lat="64.98292" lon="11.76412">
        <ele>49.088147</ele>
        <time>2020-08-12T09:28:56.740Z</time>
      </trkpt>
      <trkpt lat="64.98296" lon="11.76393">
        <ele>49.166044</ele>
        <time>2020-08-12T09:28:58.746Z</time>
      </trkpt>
      <trkpt lat="64.98301" lon="11.76369">
        <ele>49.264184</ele>
        <time>2020-08-12T09:29:01.745Z</time>
      </trkpt>
      <trkpt lat="64.98307" lon="11.76347">
        <ele>49.357695</ele>
        <time>2020-08-12T09:29:04.743Z</time>
      </trkpt>
      <trkpt lat="64.98312" lon="11.76326">
        <ele>49.444192</ele>
        <time>2020-08-12T09:29:07.816Z</time>
      </trkpt>
      <trkpt lat="64.98316" lon="11.76305">
        <ele>49.530901</ele>
        <time>2020-08-12T09:29:10.750Z</time>
      </trkpt>
      <trkpt lat="64.98321" lon="11.76286">
        <ele>49.608831</ele>
        <time>2020-08-12T09:29:13.734Z</time>
      </trkpt>
      <trkpt lat="64.98326" lon="11.76269">
        <ele>49.686228</ele>
        <time>2020-08-12T09:29:16.740Z</time>
      </trkpt>
      <trkpt lat="64.98332" lon="11.76252">
        <ele>49.765856</ele>
        <time>2020-08-12T09:29:19.757Z</time>
      </trkpt>
      <trkpt lat="64.98337" lon="11.76233">
        <ele>49.848917</ele>
        <time>2020-08-12T09:29:22.772Z</time>
      </trkpt>
      <trkpt lat="64.98343" lon="11.76214">
        <ele>50.444791</ele>
        <time>2020-08-12T09:29:25.740Z</time>
      </trkpt>
      <trkpt lat="64.98348" lon="11.76196">
        <ele>51.183507</ele>
        <time>2020-08-12T09:29:28.767Z</time>
      </trkpt>
      <trkpt lat="64.98354" lon="11.76178">
        <ele>51.906444</ele>
        <time>2020-08-12T09:29:31.776Z</time>
      </trkpt>
      <trkpt lat="64.98361" lon="11.76156">
        <ele>52.795798</ele>
        <time>2020-08-12T09:29:35.748Z</time>
      </trkpt>
      <trkpt lat="64.98368" lon="11.76137">
        <ele>53.599546</ele>
        <time>2020-08-12T09:29:39.750Z</time>
      </trkpt>
      <trkpt lat="64.98374" lon="11.76119">
        <ele>54.375809</ele>
        <time>2020-08-12T09:29:43.765Z</time>
      </trkpt>
      <trkpt lat="64.98379" lon="11.761">
        <ele>55.120163</ele>
        <time>2020-08-12T09:29:47.770Z</time>
      </trkpt>
      <trkpt lat="64.98382" lon="11.76077">
        <ele>55.893689</ele>
        <time>2020-08-12T09:29:51.788Z</time>
      </trkpt>
      <trkpt lat="64.98387" lon="11.76056">
        <ele>56.672471</ele>
        <time>2020-08-12T09:29:56.738Z</time>
      </trkpt>
      <trkpt lat="64.9839" lon="11.76035">
        <ele>57.4029</ele>
        <time>2020-08-12T09:30:01.746Z</time>
      </trkpt>
      <trkpt lat="64.98392" lon="11.76013">
        <ele>58.125235</ele>
        <time>2020-08-12T09:30:06.736Z</time>
      </trkpt>
      <trkpt lat="64.98394" lon="11.75988">
        <ele>58.945165</ele>
        <time>2020-08-12T09:30:12.772Z</time>
      </trkpt>
      <trkpt lat="64.98398" lon="11.75964">
        <ele>59.785514</ele>
        <time>2020-08-12T09:30:17.740Z</time>
      </trkpt>
      <trkpt lat="64.98401" lon="11.75944">
        <ele>60.4968</ele>
        <time>2020-08-12T09:30:21.786Z</time>
      </trkpt>
      <trkpt lat="64.98404" lon="11.7592">
        <ele>61.323776</ele>
        <time>2020-08-12T09:30:26.763Z</time>
      </trkpt>
      <trkpt lat="64.9841" lon="11.75899">
        <ele>62.143814</ele>
        <time>2020-08-12T09:30:31.782Z</time>
      </trkpt>
      <trkpt lat="64.98418" lon="11.75883">
        <ele>62.94282</ele>
        <time>2020-08-12T09:30:36.741Z</time>
      </trkpt>
      <trkpt lat="64.98427" lon="11.75873">
        <ele>63.675629</ele>
        <time>2020-08-12T09:30:41.742Z</time>
      </trkpt>
      <trkpt lat="64.98436" lon="11.75864">
        <ele>64.083494</ele>
        <time>2020-08-12T09:30:47.745Z</time>
      </trkpt>
      <trkpt lat="64.98445" lon="11.75853">
        <ele>64.437085</ele>
        <time>2020-08-12T09:30:53.778Z</time>
      </trkpt>
      <trkpt lat="64.98455" lon="11.75852">
        <ele>64.802228</ele>
        <time>2020-08-12T09:30:59.760Z</time>
      </trkpt>
      <trkpt lat="64.98465" lon="11.75848">
        <ele>65.170588</ele>
        <time>2020-08-12T09:31:05.770Z</time>
      </trkpt>
      <trkpt lat="64.98474" lon="11.75848">
        <ele>65.50279</ele>
        <time>2020-08-12T09:31:10.753Z</time>
      </trkpt>
      <trkpt lat="64.98484" lon="11.75848">
        <ele>65.863892</ele>
        <time>2020-08-12T09:31:16.749Z</time>
      </trkpt>
      <trkpt lat="64.98494" lon="11.75849">
        <ele>66.214535</ele>
        <time>2020-08-12T09:31:22.764Z</time>
      </trkpt>
      <trkpt lat="64.98504" lon="11.75848">
        <ele>66.586891</ele>
        <time>2020-08-12T09:31:28.774Z</time>
      </trkpt>
      <trkpt lat="64.98514" lon="11.75849">
        <ele>66.930779</ele>
        <time>2020-08-12T09:31:35.737Z</time>
      </trkpt>
      <trkpt lat="64.98523" lon="11.75853">
        <ele>67.259628</ele>
        <time>2020-08-12T09:31:41.733Z</time>
      </trkpt>
      <trkpt lat="64.98532" lon="11.75854">
        <ele>67.588803</ele>
        <time>2020-08-12T09:31:47.759Z</time>
      </trkpt>
      <trkpt lat="64.98542" lon="11.75853">
        <ele>67.943053</ele>
        <time>2020-08-12T09:31:54.770Z</time>
      </trkpt>
      <trkpt lat="64.98551" lon="11.75853">
        <ele>68.271804</ele>
        <time>2020-08-12T09:31:59.741Z</time>
      </trkpt>
      <trkpt lat="64.9856" lon="11.75852">
        <ele>68.597375</ele>
        <time>2020-08-12T09:32:04.750Z</time>
      </trkpt>
      <trkpt lat="64.9857" lon="11.75848">
        <ele>68.952388</ele>
        <time>2020-08-12T09:32:09.738Z</time>
      </trkpt>
      <trkpt lat="64.9858" lon="11.75848">
        <ele>69.327904</ele>
        <time>2020-08-12T09:32:16.747Z</time>
      </trkpt>
      <trkpt lat="64.9859" lon="11.75848">
        <ele>69.692703</ele>
        <time>2020-08-12T09:32:23.742Z</time>
      </trkpt>
      <trkpt lat="64.986" lon="11.7585">
        <ele>70.059541</ele>
        <time>2020-08-12T09:32:29.736Z</time>
      </trkpt>
      <trkpt lat="64.9861" lon="11.75854">
        <ele>70.520575</ele>
        <time>2020-08-12T09:32:35.739Z</time>
      </trkpt>
      <trkpt lat="64.9862" lon="11.7586">
        <ele>71.088157</ele>
        <time>2020-08-12T09:32:41.784Z</time>
      </trkpt>
      <trkpt lat="64.98628" lon="11.75869">
        <ele>71.603456</ele>
        <time>2020-08-12T09:32:47.735Z</time>
      </trkpt>
      <trkpt lat="64.98637" lon="11.75882">
        <ele>72.167353</ele>
        <time>2020-08-12T09:32:55.737Z</time>
      </trkpt>
      <trkpt lat="64.98643" lon="11.75899">
        <ele>72.69063</ele>
        <time>2020-08-12T09:33:02.786Z</time>
      </trkpt>
      <trkpt lat="64.9865" lon="11.75914">
        <ele>73.193932</ele>
        <time>2020-08-12T09:33:08.746Z</time>
      </trkpt>
      <trkpt lat="64.98656" lon="11.75933">
        <ele>73.737769</ele>
        <time>2020-08-12T09:33:14.737Z</time>
      </trkpt>
      <trkpt lat="64.98661" lon="11.75952">
        <ele>74.273784</ele>
        <time>2020-08-12T09:33:20.760Z</time>
      </trkpt>
      <trkpt lat="64.98666" lon="11.75971">
        <ele>74.805339</ele>
        <time>2020-08-12T09:33:26.754Z</time>
      </trkpt>
      <trkpt lat="64.9867" lon="11.75993">
        <ele>75.352791</ele>
        <time>2020-08-12T09:33:33.729Z</time>
      </trkpt>
      <trkpt lat="64.98673" lon="11.76016">
        <ele>75.909976</ele>
        <time>2020-08-12T09:33:40.751Z</time>
      </trkpt>
      <trkpt lat="64.98676" lon="11.7604">
        <ele>76.486584</ele>
        <time>2020-08-12T09:33:47.768Z</time>
      </trkpt>
      <trkpt lat="64.98677" lon="11.76061">
        <ele>76.989013</ele>
        <time>2020-08-12T09:33:53.738Z</time>
      </trkpt>
      <trkpt lat="64.98678" lon="11.76085">
        <ele>77.545267</ele>
        <time>2020-08-12T09:34:00.740Z</time>
      </trkpt>
      <trkpt lat="64.9868" lon="11.76109">
        <ele>78.114581</ele>
        <time>2020-08-12T09:34:07.787Z</time>
      </trkpt>
      <trkpt lat="64.98681" lon="11.76131">
        <ele>78.636287</ele>
        <time>2020-08-12T09:34:13.744Z</time>
      </trkpt>
      <trkpt lat="64.98684" lon="11.76154">
        <ele>79.181376</ele>
        <time>2020-08-12T09:34:19.768Z</time>
      </trkpt>
      <trkpt lat="64.98683" lon="11.76178">
        <ele>79.738551</ele>
        <time>2020-08-12T09:34:26.766Z</time>
      </trkpt>
      <trkpt lat="64.98685" lon="11.76201">
        <ele>80.335373</ele>
        <time>2020-08-12T09:34:33.766Z</time>
      </trkpt>
      <trkpt lat="64.98685" lon="11.76224">
        <ele>81.063527</ele>
        <time>2020-08-12T09:34:40.743Z</time>
      </trkpt>
      <trkpt lat="64.98687" lon="11.76245">
        <ele>81.759252</ele>
        <time>2020-08-12T09:34:47.730Z</time>
      </trkpt>
      <trkpt lat="64.98688" lon="11.76269">
        <ele>82.508502</ele>
        <time>2020-08-12T09:34:54.753Z</time>
      </trkpt>
      <trkpt lat="64.98691" lon="11.76289">
        <ele>83.189126</ele>
        <time>2020-08-12T09:35:00.778Z</time>
      </trkpt>
      <trkpt lat="64.98694" lon="11.7631">
        <ele>83.881702</ele>
        <time>2020-08-12T09:35:06.733Z</time>
      </trkpt>
      <trkpt lat="64.98696" lon="11.76332">
        <ele>84.61606</ele>
        <time>2020-08-12T09:35:12.765Z</time>
      </trkpt>
      <trkpt lat="64.987" lon="11.76355">
        <ele>85.389544</ele>
        <time>2020-08-12T09:35:18.732Z</time>
      </trkpt>
      <trkpt lat="64.98704" lon="11.76379">
        <ele>86.203566</ele>
        <time>2020-08-12T09:35:23.733Z</time>
      </trkpt>
      <trkpt lat="64.98708" lon="11.764">
        <ele>86.951477</ele>
        <time>2020-08-12T09:35:27.761Z</time>
      </trkpt>
      <trkpt lat="64.98715" lon="11.76418">
        <ele>87.731713</ele>
        <time>2020-08-12T09:35:32.769Z</time>
      </trkpt>
      <trkpt lat="64.98722" lon="11.76433">
        <ele>88.428786</ele>
        <time>2020-08-12T09:35:37.738Z</time>
      </trkpt>
      <trkpt lat="64.9873" lon="11.76445">
        <ele>89.121173</ele>
        <time>2020-08-12T09:35:42.750Z</time>
      </trkpt>
      <trkpt lat="64.98739" lon="11.76454">
        <ele>89.883631</ele>
        <time>2020-08-12T09:35:48.771Z</time>
      </trkpt>
      <trkpt lat="64.98749" lon="11.76462">
        <ele>90.688639</ele>
        <time>2020-08-12T09:35:54.754Z</time>
      </trkpt>
      <trkpt lat="64.98758" lon="11.76468">
        <ele>91.369993</ele>
        <time>2020-08-12T09:35:59.765Z</time>
      </trkpt>
      <trkpt lat="64.98766" lon="11.76475">
        <ele>92.053807</ele>
        <time>2020-08-12T09:36:05.731Z</time>
      </trkpt>
      <trkpt lat="64.98776" lon="11.76484">
        <ele>92.848974</ele>
        <time>2020-08-12T09:36:12.738Z</time>
      </trkpt>
      <trkpt lat="64.98784" lon="11.76497">
        <ele>93.579641</ele>
        <time>2020-08-12T09:36:18.752Z</time>
      </trkpt>
      <trkpt lat="64.98792" lon="11.76512">
        <ele>94.161582</ele>
        <time>2020-08-12T09:36:24.743Z</time>
      </trkpt>
      <trkpt lat="64.98799" lon="11.76528">
        <ele>94.679691</ele>
        <time>2020-08-12T09:36:30.764Z</time>
      </trkpt>
      <trkpt lat="64.98805" lon="11.76543">
        <ele>95.182387</ele>
        <time>2020-08-12T09:36:36.755Z</time>
      </trkpt>
      <trkpt lat="64.98813" lon="11.7656">
        <ele>95.756347</ele>
        <time>2020-08-12T09:36:43.735Z</time>
      </trkpt>
      <trkpt lat="64.98819" lon="11.76576">
        <ele>96.258874</ele>
        <time>2020-08-12T09:36:49.748Z</time>
      </trkpt>
      <trkpt lat="64.98823" lon="11.76596">
        <ele>96.773963</ele>
        <time>2020-08-12T09:36:55.732Z</time>
      </trkpt>
      <trkpt lat="64.98828" lon="11.76617">
        <ele>97.325968</ele>
        <time>2020-08-12T09:37:02.748Z</time>
      </trkpt>
      <trkpt lat="64.98833" lon="11.76635">
        <ele>97.842367</ele>
        <time>2020-08-12T09:37:09.757Z</time>
      </trkpt>
      <trkpt lat="64.98838" lon="11.76655">
        <ele>98.377905</ele>
        <time>2020-08-12T09:37:16.780Z</time>
      </trkpt>
      <trkpt lat="64.98843" lon="11.76676">
        <ele>98.951825</ele>
        <time>2020-08-12T09:37:23.744Z</time>
      </trkpt>
      <trkpt lat="64.98848" lon="11.76696">
        <ele>99.485284</ele>
        <time>2020-08-12T09:37:29.764Z</time>
      </trkpt>
      <trkpt lat="64.98853" lon="11.76717">
        <ele>100.036279</ele>
        <time>2020-08-12T09:37:36.742Z</time>
      </trkpt>
      <trkpt lat="64.98858" lon="11.76737">
        <ele>100.589061</ele>
        <time>2020-08-12T09:37:43.736Z</time>
      </trkpt>
      <trkpt lat="64.98863" lon="11.76759">
        <ele>101.161652</ele>
        <time>2020-08-12T09:37:50.745Z</time>
      </trkpt>
      <trkpt lat="64.98868" lon="11.76781">
        <ele>101.741892</ele>
        <time>2020-08-12T09:37:56.738Z</time>
      </trkpt>
      <trkpt lat="64.98873" lon="11.76801">
        <ele>102.27416</ele>
        <time>2020-08-12T09:38:01.764Z</time>
      </trkpt>
      <trkpt lat="64.98879" lon="11.76821">
        <ele>102.846941</ele>
        <time>2020-08-12T09:38:06.735Z</time>
      </trkpt>
      <trkpt lat="64.98884" lon="11.76841">
        <ele>103.390893</ele>
        <time>2020-08-12T09:38:11.743Z</time>
      </trkpt>
      <trkpt lat="64.98889" lon="11.7686">
        <ele>103.92996</ele>
        <time>2020-08-12T09:38:16.761Z</time>
      </trkpt>
      <trkpt lat="64.98894" lon="11.7688">
        <ele>104.493843</ele>
        <time>2020-08-12T09:38:21.750Z</time>
      </trkpt>
      <trkpt lat="64.98898" lon="11.76899">
        <ele>105.034736</ele>
        <time>2020-08-12T09:38:26.777Z</time>
      </trkpt>
      <trkpt lat="64.98904" lon="11.7692">
        <ele>105.644045</ele>
        <time>2020-08-12T09:38:32.749Z</time>
      </trkpt>
      <trkpt lat="64.98909" lon="11.76943">
        <ele>106.262529</ele>
        <time>2020-08-12T09:38:38.787Z</time>
      </trkpt>
      <trkpt lat="64.98915" lon="11.76963">
        <ele>106.864356</ele>
        <time>2020-08-12T09:38:44.744Z</time>
      </trkpt>
      <trkpt lat="64.98918" lon="11.76983">
        <ele>107.402368</ele>
        <time>2020-08-12T09:38:50.755Z</time>
      </trkpt>
      <trkpt lat="64.98922" lon="11.77002">
        <ele>107.923254</ele>
        <time>2020-08-12T09:38:56.733Z</time>
      </trkpt>
      <trkpt lat="64.98928" lon="11.77022">
        <ele>108.505618</ele>
        <time>2020-08-12T09:39:03.770Z</time>
      </trkpt>
      <trkpt lat="64.98933" lon="11.77041">
        <ele>109.065187</ele>
        <time>2020-08-12T09:39:10.737Z</time>
      </trkpt>
      <trkpt lat="64.98937" lon="11.77061">
        <ele>109.613633</ele>
        <time>2020-08-12T09:39:17.751Z</time>
      </trkpt>
      <trkpt lat="64.98942" lon="11.7708">
        <ele>110.161027</ele>
        <time>2020-08-12T09:39:23.729Z</time>
      </trkpt>
      <trkpt lat="64.98946" lon="11.771">
        <ele>110.692418</ele>
        <time>2020-08-12T09:39:29.756Z</time>
      </trkpt>
      <trkpt lat="64.9895" lon="11.77119">
        <ele>111.224055</ele>
        <time>2020-08-12T09:39:35.754Z</time>
      </trkpt>
      <trkpt lat="64.98953" lon="11.77139">
        <ele>111.748635</ele>
        <time>2020-08-12T09:39:41.755Z</time>
      </trkpt>
      <trkpt lat="64.98957" lon="11.7716">
        <ele>112.287552</ele>
        <time>2020-08-12T09:39:46.781Z</time>
      </trkpt>
      <trkpt lat="64.9896" lon="11.77182">
        <ele>112.880227</ele>
        <time>2020-08-12T09:39:52.796Z</time>
      </trkpt>
      <trkpt lat="64.98964" lon="11.77203">
        <ele>113.431894</ele>
        <time>2020-08-12T09:39:57.749Z</time>
      </trkpt>
      <trkpt lat="64.98968" lon="11.77224">
        <ele>113.995282</ele>
        <time>2020-08-12T09:40:02.757Z</time>
      </trkpt>
      <trkpt lat="64.98971" lon="11.77246">
        <ele>114.226004</ele>
        <time>2020-08-12T09:40:07.742Z</time>
      </trkpt>
      <trkpt lat="64.98976" lon="11.77266">
        <ele>114.457915</ele>
        <time>2020-08-12T09:40:12.749Z</time>
      </trkpt>
      <trkpt lat="64.9898" lon="11.77286">
        <ele>114.686684</ele>
        <time>2020-08-12T09:40:17.734Z</time>
      </trkpt>
      <trkpt lat="64.98983" lon="11.77306">
        <ele>114.902984</ele>
        <time>2020-08-12T09:40:22.762Z</time>
      </trkpt>
      <trkpt lat="64.98987" lon="11.77327">
        <ele>115.1398</ele>
        <time>2020-08-12T09:40:27.750Z</time>
      </trkpt>
      <trkpt lat="64.98992" lon="11.77348">
        <ele>115.372348</ele>
        <time>2020-08-12T09:40:32.744Z</time>
      </trkpt>
      <trkpt lat="64.98995" lon="11.77371">
        <ele>115.622306</ele>
        <time>2020-08-12T09:40:37.745Z</time>
      </trkpt>
      <trkpt lat="64.99" lon="11.77393">
        <ele>115.877163</ele>
        <time>2020-08-12T09:40:42.753Z</time>
      </trkpt>
      <trkpt lat="64.99005" lon="11.77413">
        <ele>116.108515</ele>
        <time>2020-08-12T09:40:46.806Z</time>
      </trkpt>
      <trkpt lat="64.9901" lon="11.77435">
        <ele>116.360585</ele>
        <time>2020-08-12T09:40:50.767Z</time>
      </trkpt>
      <trkpt lat="64.99014" lon="11.77459">
        <ele>116.617069</ele>
        <time>2020-08-12T09:40:54.746Z</time>
      </trkpt>
      <trkpt lat="64.99018" lon="11.77481">
        <ele>116.866166</ele>
        <time>2020-08-12T09:40:58.793Z</time>
      </trkpt>
      <trkpt lat="64.99022" lon="11.77504">
        <ele>117.112311</ele>
        <time>2020-08-12T09:41:02.752Z</time>
      </trkpt>
      <trkpt lat="64.99026" lon="11.77526">
        <ele>117.35751</ele>
        <time>2020-08-12T09:41:06.738Z</time>
      </trkpt>
      <trkpt lat="64.9903" lon="11.77548">
        <ele>117.598184</ele>
        <time>2020-08-12T09:41:10.749Z</time>
      </trkpt>
      <trkpt lat="64.99033" lon="11.77569">
        <ele>117.826601</ele>
        <time>2020-08-12T09:41:14.750Z</time>
      </trkpt>
      <trkpt lat="64.99037" lon="11.7759">
        <ele>118.055019</ele>
        <time>2020-08-12T09:41:18.746Z</time>
      </trkpt>
      <trkpt lat="64.99041" lon="11.77613">
        <ele>118.295082</ele>
        <time>2020-08-12T09:41:23.790Z</time>
      </trkpt>
      <trkpt lat="64.99043" lon="11.77635">
        <ele>118.115771</ele>
        <time>2020-08-12T09:41:28.767Z</time>
      </trkpt>
      <trkpt lat="64.99048" lon="11.77658">
        <ele>117.92397</ele>
        <time>2020-08-12T09:41:33.737Z</time>
      </trkpt>
      <trkpt lat="64.99053" lon="11.7768">
        <ele>117.741027</ele>
        <time>2020-08-12T09:41:38.748Z</time>
      </trkpt>
      <trkpt lat="64.99057" lon="11.77699">
        <ele>117.579749</ele>
        <time>2020-08-12T09:41:42.755Z</time>
      </trkpt>
      <trkpt lat="64.9906" lon="11.77718">
        <ele>117.415416</ele>
        <time>2020-08-12T09:41:46.747Z</time>
      </trkpt>
      <trkpt lat="64.99065" lon="11.77741">
        <ele>117.226444</ele>
        <time>2020-08-12T09:41:51.766Z</time>
      </trkpt>
      <trkpt lat="64.9907" lon="11.77762">
        <ele>117.039277</ele>
        <time>2020-08-12T09:41:56.746Z</time>
      </trkpt>
      <trkpt lat="64.99074" lon="11.77782">
        <ele>116.875572</ele>
        <time>2020-08-12T09:42:00.789Z</time>
      </trkpt>
      <trkpt lat="64.99079" lon="11.77808">
        <ele>116.65848</ele>
        <time>2020-08-12T09:42:04.796Z</time>
      </trkpt>
      <trkpt lat="64.99084" lon="11.77835">
        <ele>116.428278</ele>
        <time>2020-08-12T09:42:07.732Z</time>
      </trkpt>
      <trkpt lat="64.99089" lon="11.77859">
        <ele>116.232457</ele>
        <time>2020-08-12T09:42:09.768Z</time>
      </trkpt>
      <trkpt lat="64.99093" lon="11.77886">
        <ele>116.008516</ele>
        <time>2020-08-12T09:42:11.765Z</time>
      </trkpt>
      <trkpt lat="64.99097" lon="11.77918">
        <ele>115.754134</ele>
        <time>2020-08-12T09:42:13.777Z</time>
      </trkpt>
      <trkpt lat="64.99101" lon="11.77955">
        <ele>115.465369</ele>
        <time>2020-08-12T09:42:15.755Z</time>
      </trkpt>
      <trkpt lat="64.99103" lon="11.77994">
        <ele>115.167523</ele>
        <time>2020-08-12T09:42:17.747Z</time>
      </trkpt>
      <trkpt lat="64.991" lon="11.78036">
        <ele>114.337781</ele>
        <time>2020-08-12T09:42:19.748Z</time>
      </trkpt>
      <trkpt lat="64.99098" lon="11.78058">
        <ele>113.782436</ele>
        <time>2020-08-12T09:42:20.730Z</time>
      </trkpt>
      <trkpt lat="64.99095" lon="11.78079">
        <ele>113.242037</ele>
        <time>2020-08-12T09:42:21.735Z</time>
      </trkpt>
      <trkpt lat="64.99092" lon="11.781">
        <ele>112.688698</ele>
        <time>2020-08-12T09:42:22.745Z</time>
      </trkpt>
      <trkpt lat="64.99089" lon="11.78122">
        <ele>112.124145</ele>
        <time>2020-08-12T09:42:23.757Z</time>
      </trkpt>
      <trkpt lat="64.99086" lon="11.78144">
        <ele>111.544168</ele>
        <time>2020-08-12T09:42:24.778Z</time>
      </trkpt>
      <trkpt lat="64.99084" lon="11.78168">
        <ele>110.948754</ele>
        <time>2020-08-12T09:42:25.734Z</time>
      </trkpt>
      <trkpt lat="64.99082" lon="11.78193">
        <ele>110.328405</ele>
        <time>2020-08-12T09:42:26.758Z</time>
      </trkpt>
      <trkpt lat="64.99081" lon="11.78218">
        <ele>109.704988</ele>
        <time>2020-08-12T09:42:27.730Z</time>
      </trkpt>
      <trkpt lat="64.99081" lon="11.78242">
        <ele>109.100243</ele>
        <time>2020-08-12T09:42:28.772Z</time>
      </trkpt>
      <trkpt lat="64.9908" lon="11.78266">
        <ele>108.501982</ele>
        <time>2020-08-12T09:42:29.744Z</time>
      </trkpt>
      <trkpt lat="64.99078" lon="11.78291">
        <ele>107.881633</ele>
        <time>2020-08-12T09:42:30.736Z</time>
      </trkpt>
      <trkpt lat="64.99075" lon="11.78316">
        <ele>107.251668</ele>
        <time>2020-08-12T09:42:31.730Z</time>
      </trkpt>
      <trkpt lat="64.99071" lon="11.78339">
        <ele>106.627593</ele>
        <time>2020-08-12T09:42:32.745Z</time>
      </trkpt>
      <trkpt lat="64.99066" lon="11.78362">
        <ele>105.988509</ele>
        <time>2020-08-12T09:42:33.753Z</time>
      </trkpt>
      <trkpt lat="64.99061" lon="11.78386">
        <ele>105.332618</ele>
        <time>2020-08-12T09:42:34.779Z</time>
      </trkpt>
      <trkpt lat="64.99056" lon="11.78409">
        <ele>104.690888</ele>
        <time>2020-08-12T09:42:35.728Z</time>
      </trkpt>
      <trkpt lat="64.99052" lon="11.78431">
        <ele>103.955309</ele>
        <time>2020-08-12T09:42:36.746Z</time>
      </trkpt>
      <trkpt lat="64.99049" lon="11.78453">
        <ele>103.215257</ele>
        <time>2020-08-12T09:42:37.773Z</time>
      </trkpt>
      <trkpt lat="64.99047" lon="11.78475">
        <ele>102.516893</ele>
        <time>2020-08-12T09:42:38.768Z</time>
      </trkpt>
      <trkpt lat="64.99046" lon="11.78497">
        <ele>101.821943</ele>
        <time>2020-08-12T09:42:39.741Z</time>
      </trkpt>
      <trkpt lat="64.99045" lon="11.78537">
        <ele>100.552056</ele>
        <time>2020-08-12T09:42:41.734Z</time>
      </trkpt>
      <trkpt lat="64.99043" lon="11.78576">
        <ele>99.295938</ele>
        <time>2020-08-12T09:42:43.749Z</time>
      </trkpt>
      <trkpt lat="64.99039" lon="11.78614">
        <ele>98.056369</ele>
        <time>2020-08-12T09:42:45.741Z</time>
      </trkpt>
      <trkpt lat="64.99035" lon="11.78654">
        <ele>96.758745</ele>
        <time>2020-08-12T09:42:47.747Z</time>
      </trkpt>
      <trkpt lat="64.99034" lon="11.78676">
        <ele>96.062941</ele>
        <time>2020-08-12T09:42:48.753Z</time>
      </trkpt>
      <trkpt lat="64.99035" lon="11.78699">
        <ele>95.334862</ele>
        <time>2020-08-12T09:42:49.738Z</time>
      </trkpt>
      <trkpt lat="64.99036" lon="11.78722">
        <ele>94.614481</ele>
        <time>2020-08-12T09:42:50.740Z</time>
      </trkpt>
      <trkpt lat="64.99039" lon="11.78743">
        <ele>93.897493</ele>
        <time>2020-08-12T09:42:51.787Z</time>
      </trkpt>
      <trkpt lat="64.99042" lon="11.78764">
        <ele>93.202364</ele>
        <time>2020-08-12T09:42:52.753Z</time>
      </trkpt>
      <trkpt lat="64.99048" lon="11.78802">
        <ele>91.913594</ele>
        <time>2020-08-12T09:42:54.798Z</time>
      </trkpt>
      <trkpt lat="64.99059" lon="11.78837">
        <ele>90.60222</ele>
        <time>2020-08-12T09:42:56.736Z</time>
      </trkpt>
      <trkpt lat="64.99065" lon="11.78853">
        <ele>89.954228</ele>
        <time>2020-08-12T09:42:57.739Z</time>
      </trkpt>
      <trkpt lat="64.99073" lon="11.78867">
        <ele>89.296514</ele>
        <time>2020-08-12T09:42:58.742Z</time>
      </trkpt>
      <trkpt lat="64.9908" lon="11.78881">
        <ele>88.656677</ele>
        <time>2020-08-12T09:42:59.743Z</time>
      </trkpt>
      <trkpt lat="64.99088" lon="11.78894">
        <ele>88.013411</ele>
        <time>2020-08-12T09:43:00.753Z</time>
      </trkpt>
      <trkpt lat="64.99096" lon="11.78906">
        <ele>87.34774</ele>
        <time>2020-08-12T09:43:01.752Z</time>
      </trkpt>
      <trkpt lat="64.99104" lon="11.7892">
        <ele>86.675503</ele>
        <time>2020-08-12T09:43:02.743Z</time>
      </trkpt>
      <trkpt lat="64.99112" lon="11.78934">
        <ele>86.012419</ele>
        <time>2020-08-12T09:43:03.743Z</time>
      </trkpt>
      <trkpt lat="64.99119" lon="11.78949">
        <ele>85.339474</ele>
        <time>2020-08-12T09:43:04.739Z</time>
      </trkpt>
      <trkpt lat="64.99127" lon="11.78965">
        <ele>84.670882</ele>
        <time>2020-08-12T09:43:05.749Z</time>
      </trkpt>
      <trkpt lat="64.99134" lon="11.78982">
        <ele>83.972584</ele>
        <time>2020-08-12T09:43:06.758Z</time>
      </trkpt>
      <trkpt lat="64.99141" lon="11.78999">
        <ele>83.256109</ele>
        <time>2020-08-12T09:43:07.810Z</time>
      </trkpt>
      <trkpt lat="64.99148" lon="11.79018">
        <ele>82.533133</ele>
        <time>2020-08-12T09:43:08.761Z</time>
      </trkpt>
      <trkpt lat="64.99155" lon="11.79038">
        <ele>81.800401</ele>
        <time>2020-08-12T09:43:09.743Z</time>
      </trkpt>
      <trkpt lat="64.99161" lon="11.79059">
        <ele>81.045619</ele>
        <time>2020-08-12T09:43:10.748Z</time>
      </trkpt>
      <trkpt lat="64.99169" lon="11.79079">
        <ele>80.282953</ele>
        <time>2020-08-12T09:43:11.733Z</time>
      </trkpt>
      <trkpt lat="64.99176" lon="11.79099">
        <ele>79.531153</ele>
        <time>2020-08-12T09:43:12.753Z</time>
      </trkpt>
      <trkpt lat="64.99184" lon="11.79118">
        <ele>78.774157</ele>
        <time>2020-08-12T09:43:13.747Z</time>
      </trkpt>
      <trkpt lat="64.99192" lon="11.79136">
        <ele>78.24302</ele>
        <time>2020-08-12T09:43:14.743Z</time>
      </trkpt>
      <trkpt lat="64.992" lon="11.79153">
        <ele>77.725926</ele>
        <time>2020-08-12T09:43:15.750Z</time>
      </trkpt>
      <trkpt lat="64.99208" lon="11.7917">
        <ele>77.212427</ele>
        <time>2020-08-12T09:43:16.763Z</time>
      </trkpt>
      <trkpt lat="64.99216" lon="11.79187">
        <ele>76.711062</ele>
        <time>2020-08-12T09:43:17.778Z</time>
      </trkpt>
      <trkpt lat="64.99222" lon="11.79205">
        <ele>76.229395</ele>
        <time>2020-08-12T09:43:18.759Z</time>
      </trkpt>
      <trkpt lat="64.99228" lon="11.79224">
        <ele>75.754362</ele>
        <time>2020-08-12T09:43:19.743Z</time>
      </trkpt>
      <trkpt lat="64.99233" lon="11.79246">
        <ele>75.268413</ele>
        <time>2020-08-12T09:43:20.737Z</time>
      </trkpt>
      <trkpt lat="64.99237" lon="11.79268">
        <ele>74.781835</ele>
        <time>2020-08-12T09:43:21.746Z</time>
      </trkpt>
      <trkpt lat="64.99241" lon="11.79289">
        <ele>74.312254</ele>
        <time>2020-08-12T09:43:22.783Z</time>
      </trkpt>
      <trkpt lat="64.99245" lon="11.7931">
        <ele>73.857424</ele>
        <time>2020-08-12T09:43:23.754Z</time>
      </trkpt>
      <trkpt lat="64.99248" lon="11.7933">
        <ele>73.40825</ele>
        <time>2020-08-12T09:43:24.743Z</time>
      </trkpt>
      <trkpt lat="64.99253" lon="11.79351">
        <ele>72.952829</ele>
        <time>2020-08-12T09:43:25.750Z</time>
      </trkpt>
      <trkpt lat="64.99258" lon="11.7937">
        <ele>72.503556</ele>
        <time>2020-08-12T09:43:26.757Z</time>
      </trkpt>
      <trkpt lat="64.99263" lon="11.79387">
        <ele>72.063163</ele>
        <time>2020-08-12T09:43:27.770Z</time>
      </trkpt>
      <trkpt lat="64.9927" lon="11.79402">
        <ele>71.628284</ele>
        <time>2020-08-12T09:43:28.732Z</time>
      </trkpt>
      <trkpt lat="64.99285" lon="11.79425">
        <ele>70.787063</ele>
        <time>2020-08-12T09:43:30.761Z</time>
      </trkpt>
      <trkpt lat="64.993" lon="11.7944">
        <ele>70.137081</ele>
        <time>2020-08-12T09:43:32.735Z</time>
      </trkpt>
      <trkpt lat="64.99315" lon="11.7945">
        <ele>69.847537</ele>
        <time>2020-08-12T09:43:34.740Z</time>
      </trkpt>
      <trkpt lat="64.99329" lon="11.7946">
        <ele>69.598638</ele>
        <time>2020-08-12T09:43:36.736Z</time>
      </trkpt>
      <trkpt lat="64.99341" lon="11.7947">
        <ele>69.367829</ele>
        <time>2020-08-12T09:43:38.770Z</time>
      </trkpt>
      <trkpt lat="64.99352" lon="11.79479">
        <ele>69.160062</ele>
        <time>2020-08-12T09:43:40.770Z</time>
      </trkpt>
      <trkpt lat="64.99362" lon="11.79489">
        <ele>68.952521</ele>
        <time>2020-08-12T09:43:42.747Z</time>
      </trkpt>
      <trkpt lat="64.99374" lon="11.795">
        <ele>68.727917</ele>
        <time>2020-08-12T09:43:44.737Z</time>
      </trkpt>
      <trkpt lat="64.99385" lon="11.79511">
        <ele>68.510968</ele>
        <time>2020-08-12T09:43:46.745Z</time>
      </trkpt>
      <trkpt lat="64.99396" lon="11.79525">
        <ele>68.290615</ele>
        <time>2020-08-12T09:43:48.742Z</time>
      </trkpt>
      <trkpt lat="64.99406" lon="11.7954">
        <ele>68.069346</ele>
        <time>2020-08-12T09:43:50.757Z</time>
      </trkpt>
      <trkpt lat="64.99417" lon="11.79555">
        <ele>67.842256</ele>
        <time>2020-08-12T09:43:52.760Z</time>
      </trkpt>
      <trkpt lat="64.99427" lon="11.79571">
        <ele>67.625326</ele>
        <time>2020-08-12T09:43:54.735Z</time>
      </trkpt>
      <trkpt lat="64.99437" lon="11.79587">
        <ele>67.403275</ele>
        <time>2020-08-12T09:43:56.731Z</time>
      </trkpt>
      <trkpt lat="64.99447" lon="11.79604">
        <ele>67.187306</ele>
        <time>2020-08-12T09:43:58.765Z</time>
      </trkpt>
      <trkpt lat="64.99457" lon="11.79619">
        <ele>66.984022</ele>
        <time>2020-08-12T09:44:00.767Z</time>
      </trkpt>
      <trkpt lat="64.99466" lon="11.79635">
        <ele>67.011661</ele>
        <time>2020-08-12T09:44:02.769Z</time>
      </trkpt>
      <trkpt lat="64.99476" lon="11.79651">
        <ele>67.039046</ele>
        <time>2020-08-12T09:44:04.779Z</time>
      </trkpt>
      <trkpt lat="64.99485" lon="11.79667">
        <ele>67.066283</ele>
        <time>2020-08-12T09:44:06.755Z</time>
      </trkpt>
      <trkpt lat="64.99494" lon="11.79682">
        <ele>67.092417</ele>
        <time>2020-08-12T09:44:08.745Z</time>
      </trkpt>
      <trkpt lat="64.99502" lon="11.79694">
        <ele>67.116815</ele>
        <time>2020-08-12T09:44:10.748Z</time>
      </trkpt>
      <trkpt lat="64.99511" lon="11.79708">
        <ele>67.141754</ele>
        <time>2020-08-12T09:44:12.767Z</time>
      </trkpt>
      <trkpt lat="64.99519" lon="11.79722">
        <ele>67.166424</ele>
        <time>2020-08-12T09:44:14.770Z</time>
      </trkpt>
      <trkpt lat="64.99528" lon="11.79737">
        <ele>67.192168</ele>
        <time>2020-08-12T09:44:16.730Z</time>
      </trkpt>
      <trkpt lat="64.99537" lon="11.7975">
        <ele>67.218165</ele>
        <time>2020-08-12T09:44:18.790Z</time>
      </trkpt>
      <trkpt lat="64.99547" lon="11.79762">
        <ele>67.244782</ele>
        <time>2020-08-12T09:44:20.744Z</time>
      </trkpt>
      <trkpt lat="64.99557" lon="11.79774">
        <ele>67.271987</ele>
        <time>2020-08-12T09:44:22.756Z</time>
      </trkpt>
      <trkpt lat="64.99568" lon="11.79786">
        <ele>67.29959</ele>
        <time>2020-08-12T09:44:24.771Z</time>
      </trkpt>
      <trkpt lat="64.99578" lon="11.79798">
        <ele>67.327978</ele>
        <time>2020-08-12T09:44:26.762Z</time>
      </trkpt>
      <trkpt lat="64.99589" lon="11.79809">
        <ele>67.356722</ele>
        <time>2020-08-12T09:44:28.749Z</time>
      </trkpt>
      <trkpt lat="64.99601" lon="11.79819">
        <ele>67.385156</ele>
        <time>2020-08-12T09:44:30.753Z</time>
      </trkpt>
      <trkpt lat="64.99612" lon="11.79828">
        <ele>67.412429</ele>
        <time>2020-08-12T09:44:32.751Z</time>
      </trkpt>
      <trkpt lat="64.99623" lon="11.79838">
        <ele>66.928252</ele>
        <time>2020-08-12T09:44:34.805Z</time>
      </trkpt>
      <trkpt lat="64.99634" lon="11.79848">
        <ele>66.463115</ele>
        <time>2020-08-12T09:44:36.757Z</time>
      </trkpt>
      <trkpt lat="64.99644" lon="11.79858">
        <ele>65.987184</ele>
        <time>2020-08-12T09:44:38.761Z</time>
      </trkpt>
      <trkpt lat="64.99657" lon="11.79866">
        <ele>65.467602</ele>
        <time>2020-08-12T09:44:40.770Z</time>
      </trkpt>
      <trkpt lat="64.9967" lon="11.79874">
        <ele>64.904772</ele>
        <time>2020-08-12T09:44:42.755Z</time>
      </trkpt>
      <trkpt lat="64.99685" lon="11.79881">
        <ele>64.28541</ele>
        <time>2020-08-12T09:44:44.744Z</time>
      </trkpt>
      <trkpt lat="64.99701" lon="11.79886">
        <ele>63.61814</ele>
        <time>2020-08-12T09:44:46.755Z</time>
      </trkpt>
      <trkpt lat="64.99718" lon="11.79889">
        <ele>62.930616</ele>
        <time>2020-08-12T09:44:48.768Z</time>
      </trkpt>
      <trkpt lat="64.99736" lon="11.79891">
        <ele>62.20336</ele>
        <time>2020-08-12T09:44:50.740Z</time>
      </trkpt>
      <trkpt lat="64.99754" lon="11.79893">
        <ele>61.476319</ele>
        <time>2020-08-12T09:44:52.765Z</time>
      </trkpt>
      <trkpt lat="64.99771" lon="11.79894">
        <ele>60.765522</ele>
        <time>2020-08-12T09:44:54.739Z</time>
      </trkpt>
      <trkpt lat="64.99788" lon="11.79896">
        <ele>60.058752</ele>
        <time>2020-08-12T09:44:56.771Z</time>
      </trkpt>
      <trkpt lat="64.99806" lon="11.79897">
        <ele>59.029465</ele>
        <time>2020-08-12T09:44:58.749Z</time>
      </trkpt>
      <trkpt lat="64.99815" lon="11.79898">
        <ele>58.485339</ele>
        <time>2020-08-12T09:44:59.769Z</time>
      </trkpt>
      <trkpt lat="64.99825" lon="11.799">
        <ele>57.935441</ele>
        <time>2020-08-12T09:45:00.740Z</time>
      </trkpt>
      <trkpt lat="64.99835" lon="11.79901">
        <ele>57.374233</ele>
        <time>2020-08-12T09:45:01.751Z</time>
      </trkpt>
      <trkpt lat="64.99844" lon="11.79902">
        <ele>56.807139</ele>
        <time>2020-08-12T09:45:02.786Z</time>
      </trkpt>
      <trkpt lat="64.99854" lon="11.79902">
        <ele>56.223337</ele>
        <time>2020-08-12T09:45:03.757Z</time>
      </trkpt>
      <trkpt lat="64.99865" lon="11.799">
        <ele>55.626533</ele>
        <time>2020-08-12T09:45:04.758Z</time>
      </trkpt>
      <trkpt lat="64.99875" lon="11.79897">
        <ele>55.005047</ele>
        <time>2020-08-12T09:45:05.747Z</time>
      </trkpt>
      <trkpt lat="64.99886" lon="11.79894">
        <ele>54.376213</ele>
        <time>2020-08-12T09:45:06.768Z</time>
      </trkpt>
      <trkpt lat="64.99897" lon="11.7989">
        <ele>53.743971</ele>
        <time>2020-08-12T09:45:07.749Z</time>
      </trkpt>
      <trkpt lat="64.99908" lon="11.79886">
        <ele>53.106021</ele>
        <time>2020-08-12T09:45:08.748Z</time>
      </trkpt>
      <trkpt lat="64.99919" lon="11.7988">
        <ele>52.476035</ele>
        <time>2020-08-12T09:45:09.774Z</time>
      </trkpt>
      <trkpt lat="64.99929" lon="11.79874">
        <ele>51.85428</ele>
        <time>2020-08-12T09:45:10.756Z</time>
      </trkpt>
      <trkpt lat="64.99939" lon="11.79866">
        <ele>51.231369</ele>
        <time>2020-08-12T09:45:11.763Z</time>
      </trkpt>
      <trkpt lat="64.99949" lon="11.79858">
        <ele>50.617264</ele>
        <time>2020-08-12T09:45:12.752Z</time>
      </trkpt>
      <trkpt lat="64.99959" lon="11.7985">
        <ele>50.029767</ele>
        <time>2020-08-12T09:45:13.754Z</time>
      </trkpt>
      <trkpt lat="64.99968" lon="11.79843">
        <ele>49.884235</ele>
        <time>2020-08-12T09:45:14.756Z</time>
      </trkpt>
      <trkpt lat="64.99977" lon="11.79835">
        <ele>50.416107</ele>
        <time>2020-08-12T09:45:15.750Z</time>
      </trkpt>
      <trkpt lat="64.99992" lon="11.79821">
        <ele>51.375772</ele>
        <time>2020-08-12T09:45:17.745Z</time>
      </trkpt>
      <trkpt lat="65.00006" lon="11.79809">
        <ele>52.219698</ele>
        <time>2020-08-12T09:45:19.751Z</time>
      </trkpt>
      <trkpt lat="65.00017" lon="11.79798">
        <ele>52.892574</ele>
        <time>2020-08-12T09:45:21.730Z</time>
      </trkpt>
      <trkpt lat="65.00028" lon="11.79786">
        <ele>53.602588</ele>
        <time>2020-08-12T09:45:24.772Z</time>
      </trkpt>
      <trkpt lat="65.00038" lon="11.79776">
        <ele>54.255478</ele>
        <time>2020-08-12T09:45:28.735Z</time>
      </trkpt>
      <trkpt lat="65.00047" lon="11.79766">
        <ele>54.821245</ele>
        <time>2020-08-12T09:45:35.741Z</time>
      </trkpt>
      <trkpt lat="65.00056" lon="11.79757">
        <ele>55.364995</ele>
        <time>2020-08-12T09:45:42.750Z</time>
      </trkpt>
      <trkpt lat="65.00064" lon="11.79747">
        <ele>55.904855</ele>
        <time>2020-08-12T09:45:48.817Z</time>
      </trkpt>
      <trkpt lat="65.00073" lon="11.79742">
        <ele>56.450323</ele>
        <time>2020-08-12T09:45:54.769Z</time>
      </trkpt>
      <trkpt lat="65.00082" lon="11.79732">
        <ele>56.995121</ele>
        <time>2020-08-12T09:46:01.772Z</time>
      </trkpt>
      <trkpt lat="65.00091" lon="11.79728">
        <ele>57.538036</ele>
        <time>2020-08-12T09:46:08.794Z</time>
      </trkpt>
      <trkpt lat="65.001" lon="11.79723">
        <ele>58.079538</ele>
        <time>2020-08-12T09:46:15.756Z</time>
      </trkpt>
      <trkpt lat="65.00109" lon="11.79717">
        <ele>58.634023</ele>
        <time>2020-08-12T09:46:22.730Z</time>
      </trkpt>
      <trkpt lat="65.00118" lon="11.79717">
        <ele>59.160416</ele>
        <time>2020-08-12T09:46:28.755Z</time>
      </trkpt>
      <trkpt lat="65.00128" lon="11.7972">
        <ele>59.721537</ele>
        <time>2020-08-12T09:46:34.794Z</time>
      </trkpt>
      <trkpt lat="65.00138" lon="11.79725">
        <ele>60.255025</ele>
        <time>2020-08-12T09:46:40.768Z</time>
      </trkpt>
      <trkpt lat="65.00148" lon="11.79735">
        <ele>60.666634</ele>
        <time>2020-08-12T09:46:46.732Z</time>
      </trkpt>
      <trkpt lat="65.00156" lon="11.79746">
        <ele>61.026416</ele>
        <time>2020-08-12T09:46:51.753Z</time>
      </trkpt>
      <trkpt lat="65.00164" lon="11.79759">
        <ele>61.42221</ele>
        <time>2020-08-12T09:46:56.748Z</time>
      </trkpt>
      <trkpt lat="65.00172" lon="11.79775">
        <ele>61.856743</ele>
        <time>2020-08-12T09:47:01.867Z</time>
      </trkpt>
      <trkpt lat="65.00181" lon="11.79789">
        <ele>62.268118</ele>
        <time>2020-08-12T09:47:06.763Z</time>
      </trkpt>
      <trkpt lat="65.00189" lon="11.79802">
        <ele>62.644776</ele>
        <time>2020-08-12T09:47:11.734Z</time>
      </trkpt>
      <trkpt lat="65.00196" lon="11.79815">
        <ele>63.005474</ele>
        <time>2020-08-12T09:47:17.782Z</time>
      </trkpt>
      <trkpt lat="65.00209" lon="11.79828">
        <ele>63.568379</ele>
        <time>2020-08-12T09:48:35.767Z</time>
      </trkpt>
      <trkpt lat="65.00217" lon="11.7984">
        <ele>63.956361</ele>
        <time>2020-08-12T09:48:39.748Z</time>
      </trkpt>
      <trkpt lat="65.00226" lon="11.79849">
        <ele>64.34744</ele>
        <time>2020-08-12T09:48:43.730Z</time>
      </trkpt>
      <trkpt lat="65.00235" lon="11.79855">
        <ele>64.714083</ele>
        <time>2020-08-12T09:48:47.746Z</time>
      </trkpt>
      <trkpt lat="65.00246" lon="11.79854">
        <ele>65.15118</ele>
        <time>2020-08-12T09:48:52.753Z</time>
      </trkpt>
      <trkpt lat="65.00256" lon="11.7985">
        <ele>65.526906</ele>
        <time>2020-08-12T09:48:56.745Z</time>
      </trkpt>
      <trkpt lat="65.00264" lon="11.7984">
        <ele>65.901755</ele>
        <time>2020-08-12T09:49:01.738Z</time>
      </trkpt>
      <trkpt lat="65.00272" lon="11.79826">
        <ele>66.298837</ele>
        <time>2020-08-12T09:49:08.784Z</time>
      </trkpt>
      <trkpt lat="65.00279" lon="11.79813">
        <ele>66.65953</ele>
        <time>2020-08-12T09:49:14.744Z</time>
      </trkpt>
      <trkpt lat="65.00289" lon="11.79805">
        <ele>67.060022</ele>
        <time>2020-08-12T09:49:21.742Z</time>
      </trkpt>
      <trkpt lat="65.00297" lon="11.79793">
        <ele>67.660045</ele>
        <time>2020-08-12T09:49:28.749Z</time>
      </trkpt>
      <trkpt lat="65.00306" lon="11.79784">
        <ele>68.437039</ele>
        <time>2020-08-12T09:49:35.743Z</time>
      </trkpt>
      <trkpt lat="65.00314" lon="11.79774">
        <ele>69.158328</ele>
        <time>2020-08-12T09:49:42.792Z</time>
      </trkpt>
      <trkpt lat="65.00322" lon="11.79768">
        <ele>69.875452</ele>
        <time>2020-08-12T09:49:48.744Z</time>
      </trkpt>
      <trkpt lat="65.00331" lon="11.79762">
        <ele>70.64067</ele>
        <time>2020-08-12T09:49:55.739Z</time>
      </trkpt>
      <trkpt lat="65.00341" lon="11.79754">
        <ele>71.462353</ele>
        <time>2020-08-12T09:50:03.764Z</time>
      </trkpt>
      <trkpt lat="65.00351" lon="11.7975">
        <ele>72.234731</ele>
        <time>2020-08-12T09:50:10.752Z</time>
      </trkpt>
      <trkpt lat="65.0036" lon="11.79746">
        <ele>72.978403</ele>
        <time>2020-08-12T09:50:17.738Z</time>
      </trkpt>
      <trkpt lat="65.00369" lon="11.79738">
        <ele>73.766082</ele>
        <time>2020-08-12T09:50:25.749Z</time>
      </trkpt>
      <trkpt lat="65.00378" lon="11.79732">
        <ele>74.494009</ele>
        <time>2020-08-12T09:50:31.744Z</time>
      </trkpt>
      <trkpt lat="65.00388" lon="11.79728">
        <ele>75.32095</ele>
        <time>2020-08-12T09:50:37.759Z</time>
      </trkpt>
      <trkpt lat="65.00398" lon="11.79732">
        <ele>76.182143</ele>
        <time>2020-08-12T09:50:43.746Z</time>
      </trkpt>
      <trkpt lat="65.00408" lon="11.7974">
        <ele>76.979601</ele>
        <time>2020-08-12T09:50:50.782Z</time>
      </trkpt>
      <trkpt lat="65.00416" lon="11.7975">
        <ele>77.759049</ele>
        <time>2020-08-12T09:50:57.732Z</time>
      </trkpt>
      <trkpt lat="65.00426" lon="11.79761">
        <ele>78.616778</ele>
        <time>2020-08-12T09:51:03.750Z</time>
      </trkpt>
      <trkpt lat="65.00434" lon="11.79773">
        <ele>79.393085</ele>
        <time>2020-08-12T09:51:09.770Z</time>
      </trkpt>
      <trkpt lat="65.00442" lon="11.79786">
        <ele>80.162897</ele>
        <time>2020-08-12T09:51:17.736Z</time>
      </trkpt>
      <trkpt lat="65.0045" lon="11.79796">
        <ele>80.900373</ele>
        <time>2020-08-12T09:51:24.745Z</time>
      </trkpt>
      <trkpt lat="65.00459" lon="11.79806">
        <ele>81.645023</ele>
        <time>2020-08-12T09:51:30.736Z</time>
      </trkpt>
      <trkpt lat="65.00467" lon="11.79818">
        <ele>81.855169</ele>
        <time>2020-08-12T09:51:37.736Z</time>
      </trkpt>
      <trkpt lat="65.00475" lon="11.79833">
        <ele>82.041841</ele>
        <time>2020-08-12T09:51:44.755Z</time>
      </trkpt>
      <trkpt lat="65.00483" lon="11.79842">
        <ele>82.218839</ele>
        <time>2020-08-12T09:51:51.754Z</time>
      </trkpt>
      <trkpt lat="65.00491" lon="11.79856">
        <ele>82.40213</ele>
        <time>2020-08-12T09:51:58.769Z</time>
      </trkpt>
      <trkpt lat="65.00498" lon="11.79868">
        <ele>82.574541</ele>
        <time>2020-08-12T09:52:04.748Z</time>
      </trkpt>
      <trkpt lat="65.00507" lon="11.79874">
        <ele>82.754247</ele>
        <time>2020-08-12T09:52:10.735Z</time>
      </trkpt>
      <trkpt lat="65.00516" lon="11.79886">
        <ele>82.948934</ele>
        <time>2020-08-12T09:52:16.749Z</time>
      </trkpt>
      <trkpt lat="65.00524" lon="11.79901">
        <ele>83.139341</ele>
        <time>2020-08-12T09:52:23.741Z</time>
      </trkpt>
      <trkpt lat="65.00532" lon="11.79915">
        <ele>83.329603</ele>
        <time>2020-08-12T09:52:30.759Z</time>
      </trkpt>
      <trkpt lat="65.0054" lon="11.79926">
        <ele>83.516035</ele>
        <time>2020-08-12T09:52:36.754Z</time>
      </trkpt>
      <trkpt lat="65.00548" lon="11.79945">
        <ele>83.722341</ele>
        <time>2020-08-12T09:52:42.744Z</time>
      </trkpt>
      <trkpt lat="65.00556" lon="11.7996">
        <ele>83.915515</ele>
        <time>2020-08-12T09:52:47.775Z</time>
      </trkpt>
      <trkpt lat="65.00564" lon="11.79978">
        <ele>84.140968</ele>
        <time>2020-08-12T09:52:51.786Z</time>
      </trkpt>
      <trkpt lat="65.00573" lon="11.79999">
        <ele>84.377603</ele>
        <time>2020-08-12T09:52:54.736Z</time>
      </trkpt>
      <trkpt lat="65.00582" lon="11.80016">
        <ele>84.593347</ele>
        <time>2020-08-12T09:52:56.770Z</time>
      </trkpt>
      <trkpt lat="65.00592" lon="11.80034">
        <ele>84.840122</ele>
        <time>2020-08-12T09:52:58.742Z</time>
      </trkpt>
      <trkpt lat="65.00604" lon="11.80056">
        <ele>85.041593</ele>
        <time>2020-08-12T09:53:00.807Z</time>
      </trkpt>
      <trkpt lat="65.00617" lon="11.8008">
        <ele>84.065661</ele>
        <time>2020-08-12T09:53:02.755Z</time>
      </trkpt>
      <trkpt lat="65.0063" lon="11.80106">
        <ele>83.036628</ele>
        <time>2020-08-12T09:53:04.741Z</time>
      </trkpt>
      <trkpt lat="65.00637" lon="11.80119">
        <ele>82.498784</ele>
        <time>2020-08-12T09:53:05.784Z</time>
      </trkpt>
      <trkpt lat="65.00644" lon="11.80132">
        <ele>81.962462</ele>
        <time>2020-08-12T09:53:06.746Z</time>
      </trkpt>
      <trkpt lat="65.00658" lon="11.80158">
        <ele>80.925636</ele>
        <time>2020-08-12T09:53:08.728Z</time>
      </trkpt>
      <trkpt lat="65.00671" lon="11.80184">
        <ele>79.924082</ele>
        <time>2020-08-12T09:53:10.746Z</time>
      </trkpt>
      <trkpt lat="65.00684" lon="11.8021">
        <ele>78.893613</ele>
        <time>2020-08-12T09:53:12.754Z</time>
      </trkpt>
      <trkpt lat="65.00697" lon="11.80238">
        <ele>77.826521</ele>
        <time>2020-08-12T09:53:14.775Z</time>
      </trkpt>
      <trkpt lat="65.00705" lon="11.80252">
        <ele>77.255943</ele>
        <time>2020-08-12T09:53:15.741Z</time>
      </trkpt>
      <trkpt lat="65.00713" lon="11.80266">
        <ele>76.648246</ele>
        <time>2020-08-12T09:53:16.763Z</time>
      </trkpt>
      <trkpt lat="65.00722" lon="11.8028">
        <ele>76.029292</ele>
        <time>2020-08-12T09:53:17.748Z</time>
      </trkpt>
      <trkpt lat="65.0073" lon="11.80294">
        <ele>75.406969</ele>
        <time>2020-08-12T09:53:18.736Z</time>
      </trkpt>
      <trkpt lat="65.00739" lon="11.8031">
        <ele>74.764554</ele>
        <time>2020-08-12T09:53:19.789Z</time>
      </trkpt>
      <trkpt lat="65.00748" lon="11.80325">
        <ele>74.039844</ele>
        <time>2020-08-12T09:53:20.789Z</time>
      </trkpt>
      <trkpt lat="65.00757" lon="11.8034">
        <ele>73.197972</ele>
        <time>2020-08-12T09:53:21.746Z</time>
      </trkpt>
      <trkpt lat="65.00767" lon="11.80354">
        <ele>72.327233</ele>
        <time>2020-08-12T09:53:22.731Z</time>
      </trkpt>
      <trkpt lat="65.00778" lon="11.80368">
        <ele>71.418698</ele>
        <time>2020-08-12T09:53:23.736Z</time>
      </trkpt>
      <trkpt lat="65.00789" lon="11.80381">
        <ele>70.483695</ele>
        <time>2020-08-12T09:53:24.749Z</time>
      </trkpt>
      <trkpt lat="65.008" lon="11.80395">
        <ele>69.529585</ele>
        <time>2020-08-12T09:53:25.767Z</time>
      </trkpt>
      <trkpt lat="65.00812" lon="11.8041">
        <ele>68.56349</ele>
        <time>2020-08-12T09:53:26.752Z</time>
      </trkpt>
      <trkpt lat="65.00823" lon="11.80426">
        <ele>67.578436</ele>
        <time>2020-08-12T09:53:27.739Z</time>
      </trkpt>
      <trkpt lat="65.00834" lon="11.80442">
        <ele>66.586872</ele>
        <time>2020-08-12T09:53:28.743Z</time>
      </trkpt>
      <trkpt lat="65.00846" lon="11.80459">
        <ele>65.585267</ele>
        <time>2020-08-12T09:53:29.745Z</time>
      </trkpt>
      <trkpt lat="65.00857" lon="11.80476">
        <ele>64.581965</ele>
        <time>2020-08-12T09:53:30.743Z</time>
      </trkpt>
      <trkpt lat="65.00868" lon="11.80493">
        <ele>63.580362</ele>
        <time>2020-08-12T09:53:31.757Z</time>
      </trkpt>
      <trkpt lat="65.0088" lon="11.80509">
        <ele>62.567973</ele>
        <time>2020-08-12T09:53:32.750Z</time>
      </trkpt>
      <trkpt lat="65.00892" lon="11.80525">
        <ele>61.548836</ele>
        <time>2020-08-12T09:53:33.728Z</time>
      </trkpt>
      <trkpt lat="65.00904" lon="11.80539">
        <ele>60.590217</ele>
        <time>2020-08-12T09:53:34.767Z</time>
      </trkpt>
      <trkpt lat="65.00916" lon="11.80553">
        <ele>59.700765</ele>
        <time>2020-08-12T09:53:35.757Z</time>
      </trkpt>
      <trkpt lat="65.00928" lon="11.80567">
        <ele>58.810121</ele>
        <time>2020-08-12T09:53:36.771Z</time>
      </trkpt>
      <trkpt lat="65.00941" lon="11.8058">
        <ele>57.923624</ele>
        <time>2020-08-12T09:53:37.745Z</time>
      </trkpt>
      <trkpt lat="65.00954" lon="11.80591">
        <ele>57.041558</ele>
        <time>2020-08-12T09:53:38.771Z</time>
      </trkpt>
      <trkpt lat="65.00966" lon="11.80602">
        <ele>56.191283</ele>
        <time>2020-08-12T09:53:39.759Z</time>
      </trkpt>
      <trkpt lat="65.00978" lon="11.80611">
        <ele>55.361344</ele>
        <time>2020-08-12T09:53:40.733Z</time>
      </trkpt>
      <trkpt lat="65.0099" lon="11.8062">
        <ele>54.558315</ele>
        <time>2020-08-12T09:53:41.743Z</time>
      </trkpt>
      <trkpt lat="65.01001" lon="11.80627">
        <ele>53.790446</ele>
        <time>2020-08-12T09:53:42.790Z</time>
      </trkpt>
      <trkpt lat="65.01012" lon="11.80635">
        <ele>53.015547</ele>
        <time>2020-08-12T09:53:43.744Z</time>
      </trkpt>
      <trkpt lat="65.01023" lon="11.80645">
        <ele>52.260778</ele>
        <time>2020-08-12T09:53:44.757Z</time>
      </trkpt>
      <trkpt lat="65.01033" lon="11.80657">
        <ele>51.557434</ele>
        <time>2020-08-12T09:53:45.758Z</time>
      </trkpt>
      <trkpt lat="65.01042" lon="11.80671">
        <ele>50.864909</ele>
        <time>2020-08-12T09:53:46.745Z</time>
      </trkpt>
      <trkpt lat="65.0105" lon="11.80687">
        <ele>50.185544</ele>
        <time>2020-08-12T09:53:47.759Z</time>
      </trkpt>
      <trkpt lat="65.01056" lon="11.80704">
        <ele>49.526871</ele>
        <time>2020-08-12T09:53:48.746Z</time>
      </trkpt>
      <trkpt lat="65.01062" lon="11.80723">
        <ele>49.110064</ele>
        <time>2020-08-12T09:53:49.737Z</time>
      </trkpt>
      <trkpt lat="65.01066" lon="11.80743">
        <ele>48.914623</ele>
        <time>2020-08-12T09:53:50.758Z</time>
      </trkpt>
      <trkpt lat="65.0107" lon="11.80762">
        <ele>48.724383</ele>
        <time>2020-08-12T09:53:51.763Z</time>
      </trkpt>
      <trkpt lat="65.01076" lon="11.80799">
        <ele>48.376658</ele>
        <time>2020-08-12T09:53:53.755Z</time>
      </trkpt>
      <trkpt lat="65.01081" lon="11.80833">
        <ele>48.05497</ele>
        <time>2020-08-12T09:53:55.737Z</time>
      </trkpt>
      <trkpt lat="65.01086" lon="11.80863">
        <ele>47.762222</ele>
        <time>2020-08-12T09:53:57.745Z</time>
      </trkpt>
      <trkpt lat="65.01091" lon="11.80891">
        <ele>47.492498</ele>
        <time>2020-08-12T09:53:59.763Z</time>
      </trkpt>
      <trkpt lat="65.01096" lon="11.80917">
        <ele>47.239999</ele>
        <time>2020-08-12T09:54:01.735Z</time>
      </trkpt>
      <trkpt lat="65.011" lon="11.80942">
        <ele>47.007078</ele>
        <time>2020-08-12T09:54:03.737Z</time>
      </trkpt>
      <trkpt lat="65.01104" lon="11.80965">
        <ele>46.779136</ele>
        <time>2020-08-12T09:54:05.758Z</time>
      </trkpt>
      <trkpt lat="65.01109" lon="11.80988">
        <ele>46.554163</ele>
        <time>2020-08-12T09:54:07.745Z</time>
      </trkpt>
      <trkpt lat="65.01114" lon="11.81011">
        <ele>46.320796</ele>
        <time>2020-08-12T09:54:09.814Z</time>
      </trkpt>
      <trkpt lat="65.01119" lon="11.81036">
        <ele>46.069481</ele>
        <time>2020-08-12T09:54:11.741Z</time>
      </trkpt>
      <trkpt lat="65.01125" lon="11.81062">
        <ele>45.807387</ele>
        <time>2020-08-12T09:54:13.737Z</time>
      </trkpt>
      <trkpt lat="65.01132" lon="11.8109">
        <ele>45.519374</ele>
        <time>2020-08-12T09:54:15.743Z</time>
      </trkpt>
      <trkpt lat="65.01139" lon="11.81117">
        <ele>45.741769</ele>
        <time>2020-08-12T09:54:17.784Z</time>
      </trkpt>
      <trkpt lat="65.01145" lon="11.81143">
        <ele>46.199386</ele>
        <time>2020-08-12T09:54:19.736Z</time>
      </trkpt>
      <trkpt lat="65.01151" lon="11.81164">
        <ele>46.60651</ele>
        <time>2020-08-12T09:54:21.757Z</time>
      </trkpt>
      <trkpt lat="65.01156" lon="11.81182">
        <ele>46.939325</ele>
        <time>2020-08-12T09:54:23.772Z</time>
      </trkpt>
      <trkpt lat="65.01162" lon="11.81201">
        <ele>47.300509</ele>
        <time>2020-08-12T09:54:26.744Z</time>
      </trkpt>
      <trkpt lat="65.01168" lon="11.81222">
        <ele>47.684656</ele>
        <time>2020-08-12T09:54:30.754Z</time>
      </trkpt>
      <trkpt lat="65.01173" lon="11.81244">
        <ele>48.083825</ele>
        <time>2020-08-12T09:54:35.734Z</time>
      </trkpt>
      <trkpt lat="65.0118" lon="11.81261">
        <ele>48.445466</ele>
        <time>2020-08-12T09:54:39.768Z</time>
      </trkpt>
      <trkpt lat="65.01186" lon="11.81282">
        <ele>48.835543</ele>
        <time>2020-08-12T09:54:43.792Z</time>
      </trkpt>
      <trkpt lat="65.01192" lon="11.81301">
        <ele>49.218997</ele>
        <time>2020-08-12T09:54:47.810Z</time>
      </trkpt>
      <trkpt lat="65.01199" lon="11.81321">
        <ele>49.603189</ele>
        <time>2020-08-12T09:54:51.757Z</time>
      </trkpt>
      <trkpt lat="65.01206" lon="11.81339">
        <ele>49.99119</ele>
        <time>2020-08-12T09:54:55.762Z</time>
      </trkpt>
      <trkpt lat="65.01213" lon="11.81355">
        <ele>50.351565</ele>
        <time>2020-08-12T09:54:59.747Z</time>
      </trkpt>
      <trkpt lat="65.01219" lon="11.81377">
        <ele>50.750733</ele>
        <time>2020-08-12T09:55:04.759Z</time>
      </trkpt>
      <trkpt lat="65.01225" lon="11.81396">
        <ele>51.140979</ele>
        <time>2020-08-12T09:55:08.748Z</time>
      </trkpt>
      <trkpt lat="65.01231" lon="11.81413">
        <ele>51.482475</ele>
        <time>2020-08-12T09:55:11.772Z</time>
      </trkpt>
      <trkpt lat="65.01236" lon="11.81432">
        <ele>51.840875</ele>
        <time>2020-08-12T09:55:14.755Z</time>
      </trkpt>
      <trkpt lat="65.01242" lon="11.81454">
        <ele>51.960248</ele>
        <time>2020-08-12T09:55:17.753Z</time>
      </trkpt>
      <trkpt lat="65.01247" lon="11.81472">
        <ele>51.804101</ele>
        <time>2020-08-12T09:55:19.740Z</time>
      </trkpt>
      <trkpt lat="65.01252" lon="11.81493">
        <ele>51.625923</ele>
        <time>2020-08-12T09:55:21.761Z</time>
      </trkpt>
      <trkpt lat="65.01259" lon="11.81517">
        <ele>51.421048</ele>
        <time>2020-08-12T09:55:23.739Z</time>
      </trkpt>
      <trkpt lat="65.01266" lon="11.81542">
        <ele>51.19746</ele>
        <time>2020-08-12T09:55:25.758Z</time>
      </trkpt>
      <trkpt lat="65.01273" lon="11.8157">
        <ele>50.956443</ele>
        <time>2020-08-12T09:55:27.742Z</time>
      </trkpt>
      <trkpt lat="65.01281" lon="11.816">
        <ele>50.698807</ele>
        <time>2020-08-12T09:55:29.731Z</time>
      </trkpt>
      <trkpt lat="65.01289" lon="11.81629">
        <ele>50.434394</ele>
        <time>2020-08-12T09:55:31.742Z</time>
      </trkpt>
      <trkpt lat="65.01299" lon="11.81658">
        <ele>50.168077</ele>
        <time>2020-08-12T09:55:33.755Z</time>
      </trkpt>
      <trkpt lat="65.0131" lon="11.81683">
        <ele>49.898713</ele>
        <time>2020-08-12T09:55:35.740Z</time>
      </trkpt>
      <trkpt lat="65.01323" lon="11.81705">
        <ele>49.626841</ele>
        <time>2020-08-12T09:55:37.777Z</time>
      </trkpt>
      <trkpt lat="65.01337" lon="11.81723">
        <ele>49.350925</ele>
        <time>2020-08-12T09:55:39.766Z</time>
      </trkpt>
      <trkpt lat="65.01349" lon="11.81742">
        <ele>49.095921</ele>
        <time>2020-08-12T09:55:41.783Z</time>
      </trkpt>
      <trkpt lat="65.01361" lon="11.8176">
        <ele>48.793187</ele>
        <time>2020-08-12T09:55:43.746Z</time>
      </trkpt>
      <trkpt lat="65.01372" lon="11.81779">
        <ele>48.398417</ele>
        <time>2020-08-12T09:55:45.763Z</time>
      </trkpt>
      <trkpt lat="65.01383" lon="11.81797">
        <ele>48.0121</ele>
        <time>2020-08-12T09:55:47.733Z</time>
      </trkpt>
      <trkpt lat="65.01394" lon="11.81815">
        <ele>47.6394</ele>
        <time>2020-08-12T09:55:49.745Z</time>
      </trkpt>
      <trkpt lat="65.01404" lon="11.81834">
        <ele>47.269322</ele>
        <time>2020-08-12T09:55:51.750Z</time>
      </trkpt>
      <trkpt lat="65.01413" lon="11.81855">
        <ele>46.905405</ele>
        <time>2020-08-12T09:55:53.735Z</time>
      </trkpt>
      <trkpt lat="65.01422" lon="11.81877">
        <ele>46.539947</ele>
        <time>2020-08-12T09:55:55.751Z</time>
      </trkpt>
      <trkpt lat="65.01429" lon="11.81901">
        <ele>46.172476</ele>
        <time>2020-08-12T09:55:57.772Z</time>
      </trkpt>
      <trkpt lat="65.01436" lon="11.81926">
        <ele>45.812181</ele>
        <time>2020-08-12T09:55:59.765Z</time>
      </trkpt>
      <trkpt lat="65.01442" lon="11.8195">
        <ele>45.473274</ele>
        <time>2020-08-12T09:56:01.774Z</time>
      </trkpt>
      <trkpt lat="65.01448" lon="11.81973">
        <ele>45.14778</ele>
        <time>2020-08-12T09:56:03.781Z</time>
      </trkpt>
      <trkpt lat="65.01453" lon="11.81997">
        <ele>44.814189</ele>
        <time>2020-08-12T09:56:05.737Z</time>
      </trkpt>
      <trkpt lat="65.01459" lon="11.8202">
        <ele>44.490838</ele>
        <time>2020-08-12T09:56:07.747Z</time>
      </trkpt>
      <trkpt lat="65.01465" lon="11.82043">
        <ele>44.156285</ele>
        <time>2020-08-12T09:56:09.781Z</time>
      </trkpt>
      <trkpt lat="65.01471" lon="11.82068">
        <ele>43.813828</ele>
        <time>2020-08-12T09:56:11.746Z</time>
      </trkpt>
      <trkpt lat="65.01476" lon="11.82093">
        <ele>44.573967</ele>
        <time>2020-08-12T09:56:13.755Z</time>
      </trkpt>
      <trkpt lat="65.01481" lon="11.82117">
        <ele>45.604785</ele>
        <time>2020-08-12T09:56:15.750Z</time>
      </trkpt>
      <trkpt lat="65.01487" lon="11.82139">
        <ele>46.585472</ele>
        <time>2020-08-12T09:56:17.768Z</time>
      </trkpt>
      <trkpt lat="65.01493" lon="11.82159">
        <ele>47.519547</ele>
        <time>2020-08-12T09:56:19.748Z</time>
      </trkpt>
      <trkpt lat="65.015" lon="11.82178">
        <ele>48.429236</ele>
        <time>2020-08-12T09:56:21.744Z</time>
      </trkpt>
      <trkpt lat="65.01508" lon="11.82202">
        <ele>49.629617</ele>
        <time>2020-08-12T09:56:24.769Z</time>
      </trkpt>
      <trkpt lat="65.01515" lon="11.82225">
        <ele>50.690634</ele>
        <time>2020-08-12T09:56:27.764Z</time>
      </trkpt>
      <trkpt lat="65.01522" lon="11.82245">
        <ele>51.650929</ele>
        <time>2020-08-12T09:56:30.741Z</time>
      </trkpt>
      <trkpt lat="65.01529" lon="11.82264">
        <ele>52.63008</ele>
        <time>2020-08-12T09:56:34.734Z</time>
      </trkpt>
      <trkpt lat="65.01536" lon="11.8228">
        <ele>53.498804</ele>
        <time>2020-08-12T09:56:38.756Z</time>
      </trkpt>
      <trkpt lat="65.01543" lon="11.82297">
        <ele>54.421764</ele>
        <time>2020-08-12T09:56:43.736Z</time>
      </trkpt>
      <trkpt lat="65.01551" lon="11.82313">
        <ele>55.325941</ele>
        <time>2020-08-12T09:56:49.739Z</time>
      </trkpt>
      <trkpt lat="65.01557" lon="11.82328">
        <ele>56.137697</ele>
        <time>2020-08-12T09:56:54.757Z</time>
      </trkpt>
      <trkpt lat="65.01564" lon="11.82345">
        <ele>57.000336</ele>
        <time>2020-08-12T09:57:01.742Z</time>
      </trkpt>
      <trkpt lat="65.01568" lon="11.82364">
        <ele>57.825088</ele>
        <time>2020-08-12T09:57:08.742Z</time>
      </trkpt>
      <trkpt lat="65.01575" lon="11.82377">
        <ele>58.631281</ele>
        <time>2020-08-12T09:57:14.775Z</time>
      </trkpt>
      <trkpt lat="65.01581" lon="11.82392">
        <ele>59.435756</ele>
        <time>2020-08-12T09:57:20.745Z</time>
      </trkpt>
      <trkpt lat="65.01586" lon="11.8241">
        <ele>60.139912</ele>
        <time>2020-08-12T09:57:27.766Z</time>
      </trkpt>
      <trkpt lat="65.01594" lon="11.82425">
        <ele>60.797845</ele>
        <time>2020-08-12T09:57:34.745Z</time>
      </trkpt>
      <trkpt lat="65.016" lon="11.82444">
        <ele>61.447788</ele>
        <time>2020-08-12T09:57:41.774Z</time>
      </trkpt>
      <trkpt lat="65.01606" lon="11.82463">
        <ele>62.085942</ele>
        <time>2020-08-12T09:57:48.785Z</time>
      </trkpt>
      <trkpt lat="65.01611" lon="11.82481">
        <ele>62.678285</ele>
        <time>2020-08-12T09:57:55.757Z</time>
      </trkpt>
      <trkpt lat="65.01615" lon="11.82502">
        <ele>63.309266</ele>
        <time>2020-08-12T09:58:02.747Z</time>
      </trkpt>
      <trkpt lat="65.01619" lon="11.82521">
        <ele>63.89816</ele>
        <time>2020-08-12T09:58:09.750Z</time>
      </trkpt>
      <trkpt lat="65.01622" lon="11.82542">
        <ele>64.511399</ele>
        <time>2020-08-12T09:58:15.756Z</time>
      </trkpt>
      <trkpt lat="65.01627" lon="11.82563">
        <ele>65.172117</ele>
        <time>2020-08-12T09:58:21.759Z</time>
      </trkpt>
      <trkpt lat="65.01633" lon="11.82583">
        <ele>65.865047</ele>
        <time>2020-08-12T09:58:26.735Z</time>
      </trkpt>
      <trkpt lat="65.01639" lon="11.82601">
        <ele>66.469492</ele>
        <time>2020-08-12T09:58:30.767Z</time>
      </trkpt>
      <trkpt lat="65.01644" lon="11.82621">
        <ele>67.127267</ele>
        <time>2020-08-12T09:58:35.746Z</time>
      </trkpt>
      <trkpt lat="65.0165" lon="11.82641">
        <ele>67.794604</ele>
        <time>2020-08-12T09:58:40.765Z</time>
      </trkpt>
      <trkpt lat="65.01656" lon="11.8266">
        <ele>68.460945</ele>
        <time>2020-08-12T09:58:46.765Z</time>
      </trkpt>
      <trkpt lat="65.01664" lon="11.82675">
        <ele>69.115388</ele>
        <time>2020-08-12T09:58:52.766Z</time>
      </trkpt>
      <trkpt lat="65.0167" lon="11.82696">
        <ele>69.812495</ele>
        <time>2020-08-12T09:58:58.751Z</time>
      </trkpt>
      <trkpt lat="65.01677" lon="11.82715">
        <ele>70.480889</ele>
        <time>2020-08-12T09:59:04.741Z</time>
      </trkpt>
      <trkpt lat="65.01684" lon="11.82728">
        <ele>71.082462</ele>
        <time>2020-08-12T09:59:09.749Z</time>
      </trkpt>
      <trkpt lat="65.01691" lon="11.82744">
        <ele>71.502128</ele>
        <time>2020-08-12T09:59:15.755Z</time>
      </trkpt>
      <trkpt lat="65.01697" lon="11.82761">
        <ele>71.102402</ele>
        <time>2020-08-12T09:59:21.772Z</time>
      </trkpt>
      <trkpt lat="65.01703" lon="11.8278">
        <ele>70.679676</ele>
        <time>2020-08-12T09:59:27.737Z</time>
      </trkpt>
      <trkpt lat="65.01708" lon="11.82801">
        <ele>70.266609</ele>
        <time>2020-08-12T09:59:34.765Z</time>
      </trkpt>
      <trkpt lat="65.01714" lon="11.82818">
        <ele>69.887004</ele>
        <time>2020-08-12T09:59:41.735Z</time>
      </trkpt>
      <trkpt lat="65.01719" lon="11.82836">
        <ele>69.498874</ele>
        <time>2020-08-12T09:59:47.735Z</time>
      </trkpt>
      <trkpt lat="65.01725" lon="11.82854">
        <ele>69.082859</ele>
        <time>2020-08-12T09:59:52.733Z</time>
      </trkpt>
      <trkpt lat="65.0173" lon="11.82876">
        <ele>68.655008</ele>
        <time>2020-08-12T09:59:57.758Z</time>
      </trkpt>
      <trkpt lat="65.01733" lon="11.82898">
        <ele>68.257079</ele>
        <time>2020-08-12T10:00:01.772Z</time>
      </trkpt>
      <trkpt lat="65.01734" lon="11.82924">
        <ele>67.78883</ele>
        <time>2020-08-12T10:00:05.792Z</time>
      </trkpt>
      <trkpt lat="65.01737" lon="11.82949">
        <ele>67.334468</ele>
        <time>2020-08-12T10:00:08.745Z</time>
      </trkpt>
      <trkpt lat="65.01738" lon="11.82971">
        <ele>66.94552</ele>
        <time>2020-08-12T10:00:10.745Z</time>
      </trkpt>
      <trkpt lat="65.01739" lon="11.82998">
        <ele>66.479769</ele>
        <time>2020-08-12T10:00:12.747Z</time>
      </trkpt>
      <trkpt lat="65.01741" lon="11.83028">
        <ele>65.940822</ele>
        <time>2020-08-12T10:00:14.735Z</time>
      </trkpt>
      <trkpt lat="65.01742" lon="11.83064">
        <ele>65.317937</ele>
        <time>2020-08-12T10:00:16.798Z</time>
      </trkpt>
      <trkpt lat="65.01743" lon="11.83103">
        <ele>64.620622</ele>
        <time>2020-08-12T10:00:18.734Z</time>
      </trkpt>
      <trkpt lat="65.01744" lon="11.83146">
        <ele>63.927939</ele>
        <time>2020-08-12T10:00:20.755Z</time>
      </trkpt>
      <trkpt lat="65.01744" lon="11.83168">
        <ele>63.640169</ele>
        <time>2020-08-12T10:00:21.746Z</time>
      </trkpt>
      <trkpt lat="65.01746" lon="11.8319">
        <ele>63.351187</ele>
        <time>2020-08-12T10:00:22.738Z</time>
      </trkpt>
      <trkpt lat="65.01747" lon="11.83212">
        <ele>63.057489</ele>
        <time>2020-08-12T10:00:23.752Z</time>
      </trkpt>
      <trkpt lat="65.01748" lon="11.83233">
        <ele>62.771433</ele>
        <time>2020-08-12T10:00:24.753Z</time>
      </trkpt>
      <trkpt lat="65.0175" lon="11.83254">
        <ele>62.488097</ele>
        <time>2020-08-12T10:00:25.765Z</time>
      </trkpt>
      <trkpt lat="65.01754" lon="11.83294">
        <ele>61.947596</ele>
        <time>2020-08-12T10:00:27.789Z</time>
      </trkpt>
      <trkpt lat="65.0176" lon="11.83329">
        <ele>61.459755</ele>
        <time>2020-08-12T10:00:29.764Z</time>
      </trkpt>
      <trkpt lat="65.01766" lon="11.83363">
        <ele>60.968553</ele>
        <time>2020-08-12T10:00:31.742Z</time>
      </trkpt>
      <trkpt lat="65.01772" lon="11.83397">
        <ele>60.486998</ele>
        <time>2020-08-12T10:00:33.736Z</time>
      </trkpt>
      <trkpt lat="65.01779" lon="11.83429">
        <ele>60.014995</ele>
        <time>2020-08-12T10:00:35.757Z</time>
      </trkpt>
      <trkpt lat="65.01786" lon="11.83457">
        <ele>59.585671</ele>
        <time>2020-08-12T10:00:37.752Z</time>
      </trkpt>
      <trkpt lat="65.01792" lon="11.83484">
        <ele>59.174621</ele>
        <time>2020-08-12T10:00:39.742Z</time>
      </trkpt>
      <trkpt lat="65.01799" lon="11.83508">
        <ele>58.803677</ele>
        <time>2020-08-12T10:00:41.749Z</time>
      </trkpt>
      <trkpt lat="65.01804" lon="11.83529">
        <ele>58.495734</ele>
        <time>2020-08-12T10:00:43.754Z</time>
      </trkpt>
      <trkpt lat="65.0181" lon="11.8355">
        <ele>58.48536</ele>
        <time>2020-08-12T10:00:45.746Z</time>
      </trkpt>
      <trkpt lat="65.01815" lon="11.8357">
        <ele>58.475586</ele>
        <time>2020-08-12T10:00:47.771Z</time>
      </trkpt>
      <trkpt lat="65.01821" lon="11.83588">
        <ele>58.465999</ele>
        <time>2020-08-12T10:00:49.750Z</time>
      </trkpt>
      <trkpt lat="65.01827" lon="11.83606">
        <ele>58.456631</ele>
        <time>2020-08-12T10:00:51.738Z</time>
      </trkpt>
      <trkpt lat="65.01832" lon="11.83624">
        <ele>58.447264</ele>
        <time>2020-08-12T10:00:53.744Z</time>
      </trkpt>
      <trkpt lat="65.01838" lon="11.83642">
        <ele>58.437843</ele>
        <time>2020-08-12T10:00:55.734Z</time>
      </trkpt>
      <trkpt lat="65.01844" lon="11.83659">
        <ele>58.428908</ele>
        <time>2020-08-12T10:00:57.742Z</time>
      </trkpt>
      <trkpt lat="65.01852" lon="11.83682">
        <ele>58.415848</ele>
        <time>2020-08-12T10:01:00.764Z</time>
      </trkpt>
      <trkpt lat="65.01858" lon="11.83698">
        <ele>58.406909</ele>
        <time>2020-08-12T10:01:02.777Z</time>
      </trkpt>
      <trkpt lat="65.01864" lon="11.83714">
        <ele>58.397752</ele>
        <time>2020-08-12T10:01:04.766Z</time>
      </trkpt>
      <trkpt lat="65.01871" lon="11.8373">
        <ele>58.388782</ele>
        <time>2020-08-12T10:01:06.789Z</time>
      </trkpt>
      <trkpt lat="65.01877" lon="11.83746">
        <ele>58.379837</ele>
        <time>2020-08-12T10:01:08.748Z</time>
      </trkpt>
      <trkpt lat="65.01883" lon="11.83762">
        <ele>58.370406</ele>
        <time>2020-08-12T10:01:10.750Z</time>
      </trkpt>
      <trkpt lat="65.0189" lon="11.83778">
        <ele>58.360951</ele>
        <time>2020-08-12T10:01:12.747Z</time>
      </trkpt>
      <trkpt lat="65.01897" lon="11.83795">
        <ele>58.351081</ele>
        <time>2020-08-12T10:01:14.741Z</time>
      </trkpt>
      <trkpt lat="65.01904" lon="11.83811">
        <ele>58.341167</ele>
        <time>2020-08-12T10:01:16.745Z</time>
      </trkpt>
      <trkpt lat="65.01912" lon="11.83828">
        <ele>58.330996</ele>
        <time>2020-08-12T10:01:18.745Z</time>
      </trkpt>
      <trkpt lat="65.0192" lon="11.83845">
        <ele>58.320393</ele>
        <time>2020-08-12T10:01:20.750Z</time>
      </trkpt>
      <trkpt lat="65.01927" lon="11.83862">
        <ele>58.223292</ele>
        <time>2020-08-12T10:01:22.760Z</time>
      </trkpt>
      <trkpt lat="65.01934" lon="11.8388">
        <ele>58.102148</ele>
        <time>2020-08-12T10:01:24.759Z</time>
      </trkpt>
      <trkpt lat="65.01941" lon="11.83896">
        <ele>57.988316</ele>
        <time>2020-08-12T10:01:26.737Z</time>
      </trkpt>
      <trkpt lat="65.01948" lon="11.83914">
        <ele>57.872255</ele>
        <time>2020-08-12T10:01:28.749Z</time>
      </trkpt>
      <trkpt lat="65.01955" lon="11.83931">
        <ele>57.755657</ele>
        <time>2020-08-12T10:01:30.748Z</time>
      </trkpt>
      <trkpt lat="65.01962" lon="11.83949">
        <ele>57.635419</ele>
        <time>2020-08-12T10:01:32.773Z</time>
      </trkpt>
      <trkpt lat="65.01969" lon="11.83968">
        <ele>57.510486</ele>
        <time>2020-08-12T10:01:34.777Z</time>
      </trkpt>
      <trkpt lat="65.01977" lon="11.83987">
        <ele>57.383841</ele>
        <time>2020-08-12T10:01:36.748Z</time>
      </trkpt>
      <trkpt lat="65.01984" lon="11.84005">
        <ele>57.258709</ele>
        <time>2020-08-12T10:01:38.769Z</time>
      </trkpt>
      <trkpt lat="65.01991" lon="11.84024">
        <ele>57.130992</ele>
        <time>2020-08-12T10:01:40.737Z</time>
      </trkpt>
      <trkpt lat="65.01999" lon="11.84044">
        <ele>57.000324</ele>
        <time>2020-08-12T10:01:42.755Z</time>
      </trkpt>
      <trkpt lat="65.02007" lon="11.84064">
        <ele>56.86633</ele>
        <time>2020-08-12T10:01:44.742Z</time>
      </trkpt>
      <trkpt lat="65.02015" lon="11.84083">
        <ele>56.732711</ele>
        <time>2020-08-12T10:01:46.769Z</time>
      </trkpt>
      <trkpt lat="65.02023" lon="11.84103">
        <ele>56.597098</ele>
        <time>2020-08-12T10:01:48.771Z</time>
      </trkpt>
      <trkpt lat="65.02031" lon="11.8412">
        <ele>56.467213</ele>
        <time>2020-08-12T10:01:50.829Z</time>
      </trkpt>
      <trkpt lat="65.0204" lon="11.84136">
        <ele>56.345817</ele>
        <time>2020-08-12T10:01:52.748Z</time>
      </trkpt>
      <trkpt lat="65.02048" lon="11.84149">
        <ele>56.228881</ele>
        <time>2020-08-12T10:01:54.750Z</time>
      </trkpt>
      <trkpt lat="65.02056" lon="11.84161">
        <ele>56.950144</ele>
        <time>2020-08-12T10:01:56.749Z</time>
      </trkpt>
      <trkpt lat="65.02066" lon="11.84174">
        <ele>57.887999</ele>
        <time>2020-08-12T10:01:59.770Z</time>
      </trkpt>
      <trkpt lat="65.02075" lon="11.84186">
        <ele>58.756394</ele>
        <time>2020-08-12T10:02:03.745Z</time>
      </trkpt>
      <trkpt lat="65.02083" lon="11.84197">
        <ele>59.494937</ele>
        <time>2020-08-12T10:02:10.736Z</time>
      </trkpt>
      <trkpt lat="65.02091" lon="11.8421">
        <ele>60.218805</ele>
        <time>2020-08-12T10:02:16.766Z</time>
      </trkpt>
      <trkpt lat="65.02099" lon="11.84221">
        <ele>61.02058</ele>
        <time>2020-08-12T10:02:23.794Z</time>
      </trkpt>
      <trkpt lat="65.02108" lon="11.84233">
        <ele>61.854332</ele>
        <time>2020-08-12T10:02:29.769Z</time>
      </trkpt>
      <trkpt lat="65.02116" lon="11.84242">
        <ele>62.575255</ele>
        <time>2020-08-12T10:02:35.735Z</time>
      </trkpt>
      <trkpt lat="65.02125" lon="11.84253">
        <ele>63.346667</ele>
        <time>2020-08-12T10:02:42.764Z</time>
      </trkpt>
      <trkpt lat="65.02132" lon="11.84266">
        <ele>64.093554</ele>
        <time>2020-08-12T10:02:49.743Z</time>
      </trkpt>
      <trkpt lat="65.0214" lon="11.84281">
        <ele>64.920588</ele>
        <time>2020-08-12T10:02:57.754Z</time>
      </trkpt>
      <trkpt lat="65.02149" lon="11.84292">
        <ele>65.688469</ele>
        <time>2020-08-12T10:03:04.753Z</time>
      </trkpt>
      <trkpt lat="65.02157" lon="11.84306">
        <ele>66.488519</ele>
        <time>2020-08-12T10:03:11.765Z</time>
      </trkpt>
      <trkpt lat="65.02165" lon="11.84319">
        <ele>67.274149</ele>
        <time>2020-08-12T10:03:18.756Z</time>
      </trkpt>
      <trkpt lat="65.02173" lon="11.84329">
        <ele>68.04762</ele>
        <time>2020-08-12T10:03:25.774Z</time>
      </trkpt>
      <trkpt lat="65.0218" lon="11.84342">
        <ele>68.770737</ele>
        <time>2020-08-12T10:03:32.745Z</time>
      </trkpt>
      <trkpt lat="65.02189" lon="11.84353">
        <ele>69.585237</ele>
        <time>2020-08-12T10:03:40.739Z</time>
      </trkpt>
      <trkpt lat="65.02198" lon="11.84366">
        <ele>70.394746</ele>
        <time>2020-08-12T10:03:48.741Z</time>
      </trkpt>
      <trkpt lat="65.02206" lon="11.84377">
        <ele>70.732355</ele>
        <time>2020-08-12T10:03:55.755Z</time>
      </trkpt>
      <trkpt lat="65.02213" lon="11.84393">
        <ele>70.758173</ele>
        <time>2020-08-12T10:04:02.751Z</time>
      </trkpt>
      <trkpt lat="65.0222" lon="11.84408">
        <ele>70.782411</ele>
        <time>2020-08-12T10:04:09.749Z</time>
      </trkpt>
      <trkpt lat="65.02228" lon="11.84425">
        <ele>70.80905</ele>
        <time>2020-08-12T10:04:16.774Z</time>
      </trkpt>
      <trkpt lat="65.02235" lon="11.84441">
        <ele>70.83517</ele>
        <time>2020-08-12T10:04:22.782Z</time>
      </trkpt>
      <trkpt lat="65.02243" lon="11.84457">
        <ele>70.862479</ele>
        <time>2020-08-12T10:04:28.773Z</time>
      </trkpt>
      <trkpt lat="65.0225" lon="11.84473">
        <ele>70.887316</ele>
        <time>2020-08-12T10:04:33.778Z</time>
      </trkpt>
      <trkpt lat="65.02258" lon="11.84493">
        <ele>70.916043</ele>
        <time>2020-08-12T10:04:38.746Z</time>
      </trkpt>
      <trkpt lat="65.02266" lon="11.84513">
        <ele>70.946086</ele>
        <time>2020-08-12T10:04:42.742Z</time>
      </trkpt>
      <trkpt lat="65.02274" lon="11.84528">
        <ele>70.972129</ele>
        <time>2020-08-12T10:04:45.794Z</time>
      </trkpt>
      <trkpt lat="65.02282" lon="11.84545">
        <ele>71.00069</ele>
        <time>2020-08-12T10:04:48.760Z</time>
      </trkpt>
      <trkpt lat="65.02291" lon="11.84564">
        <ele>71.030793</ele>
        <time>2020-08-12T10:04:51.778Z</time>
      </trkpt>
      <trkpt lat="65.02298" lon="11.84578">
        <ele>71.054625</ele>
        <time>2020-08-12T10:04:53.750Z</time>
      </trkpt>
      <trkpt lat="65.02306" lon="11.84595">
        <ele>71.082584</ele>
        <time>2020-08-12T10:04:55.743Z</time>
      </trkpt>
      <trkpt lat="65.02316" lon="11.84613">
        <ele>71.114753</ele>
        <time>2020-08-12T10:04:57.746Z</time>
      </trkpt>
      <trkpt lat="65.02327" lon="11.84634">
        <ele>71.151438</ele>
        <time>2020-08-12T10:04:59.781Z</time>
      </trkpt>
      <trkpt lat="65.0234" lon="11.84656">
        <ele>71.07766</ele>
        <time>2020-08-12T10:05:01.747Z</time>
      </trkpt>
      <trkpt lat="65.02353" lon="11.84682">
        <ele>70.649375</ele>
        <time>2020-08-12T10:05:03.755Z</time>
      </trkpt>
      <trkpt lat="65.02367" lon="11.84708">
        <ele>70.198271</ele>
        <time>2020-08-12T10:05:05.745Z</time>
      </trkpt>
      <trkpt lat="65.02375" lon="11.84722">
        <ele>69.9649</ele>
        <time>2020-08-12T10:05:06.748Z</time>
      </trkpt>
      <trkpt lat="65.02382" lon="11.84736">
        <ele>69.730783</ele>
        <time>2020-08-12T10:05:07.757Z</time>
      </trkpt>
      <trkpt lat="65.02389" lon="11.8475">
        <ele>69.503271</ele>
        <time>2020-08-12T10:05:08.747Z</time>
      </trkpt>
      <trkpt lat="65.02396" lon="11.84764">
        <ele>69.278937</ele>
        <time>2020-08-12T10:05:09.741Z</time>
      </trkpt>
      <trkpt lat="65.02409" lon="11.8479">
        <ele>68.849266</ele>
        <time>2020-08-12T10:05:11.748Z</time>
      </trkpt>
      <trkpt lat="65.02422" lon="11.84813">
        <ele>68.447682</ele>
        <time>2020-08-12T10:05:13.743Z</time>
      </trkpt>
      <trkpt lat="65.02434" lon="11.84834">
        <ele>68.083944</ele>
        <time>2020-08-12T10:05:15.743Z</time>
      </trkpt>
      <trkpt lat="65.02444" lon="11.84855">
        <ele>67.753349</ele>
        <time>2020-08-12T10:05:17.744Z</time>
      </trkpt>
      <trkpt lat="65.02454" lon="11.84875">
        <ele>67.415034</ele>
        <time>2020-08-12T10:05:19.813Z</time>
      </trkpt>
      <trkpt lat="65.02465" lon="11.84895">
        <ele>67.070205</ele>
        <time>2020-08-12T10:05:21.747Z</time>
      </trkpt>
      <trkpt lat="65.02477" lon="11.84916">
        <ele>66.713636</ele>
        <time>2020-08-12T10:05:23.749Z</time>
      </trkpt>
      <trkpt lat="65.02488" lon="11.84936">
        <ele>66.42828</ele>
        <time>2020-08-12T10:05:25.737Z</time>
      </trkpt>
      <trkpt lat="65.025" lon="11.84958">
        <ele>66.132766</ele>
        <time>2020-08-12T10:05:27.736Z</time>
      </trkpt>
      <trkpt lat="65.02512" lon="11.84981">
        <ele>65.829505</ele>
        <time>2020-08-12T10:05:29.805Z</time>
      </trkpt>
      <trkpt lat="65.02524" lon="11.85003">
        <ele>65.525215</ele>
        <time>2020-08-12T10:05:31.742Z</time>
      </trkpt>
      <trkpt lat="65.02536" lon="11.85026">
        <ele>65.222971</ele>
        <time>2020-08-12T10:05:33.777Z</time>
      </trkpt>
      <trkpt lat="65.02547" lon="11.85048">
        <ele>64.929529</ele>
        <time>2020-08-12T10:05:35.748Z</time>
      </trkpt>
      <trkpt lat="65.02559" lon="11.85068">
        <ele>64.653114</ele>
        <time>2020-08-12T10:05:37.752Z</time>
      </trkpt>
      <trkpt lat="65.02568" lon="11.85086">
        <ele>64.404104</ele>
        <time>2020-08-12T10:05:39.737Z</time>
      </trkpt>
      <trkpt lat="65.02577" lon="11.85105">
        <ele>64.177278</ele>
        <time>2020-08-12T10:05:41.791Z</time>
      </trkpt>
      <trkpt lat="65.02585" lon="11.85124">
        <ele>63.950499</ele>
        <time>2020-08-12T10:05:43.751Z</time>
      </trkpt>
      <trkpt lat="65.02594" lon="11.85142">
        <ele>63.72332</ele>
        <time>2020-08-12T10:05:45.748Z</time>
      </trkpt>
      <trkpt lat="65.02602" lon="11.85159">
        <ele>63.507186</ele>
        <time>2020-08-12T10:05:47.756Z</time>
      </trkpt>
      <trkpt lat="65.0261" lon="11.85174">
        <ele>63.304617</ele>
        <time>2020-08-12T10:05:49.764Z</time>
      </trkpt>
      <trkpt lat="65.02618" lon="11.85187">
        <ele>63.150366</ele>
        <time>2020-08-12T10:05:51.741Z</time>
      </trkpt>
      <trkpt lat="65.02628" lon="11.85206">
        <ele>63.163186</ele>
        <time>2020-08-12T10:05:54.741Z</time>
      </trkpt>
      <trkpt lat="65.02637" lon="11.85225">
        <ele>63.174821</ele>
        <time>2020-08-12T10:05:57.778Z</time>
      </trkpt>
      <trkpt lat="65.02645" lon="11.85243">
        <ele>63.186101</ele>
        <time>2020-08-12T10:06:00.745Z</time>
      </trkpt>
      <trkpt lat="65.02653" lon="11.85259">
        <ele>63.19667</ele>
        <time>2020-08-12T10:06:03.769Z</time>
      </trkpt>
      <trkpt lat="65.02662" lon="11.85275">
        <ele>63.207802</ele>
        <time>2020-08-12T10:06:06.776Z</time>
      </trkpt>
      <trkpt lat="65.02671" lon="11.85293">
        <ele>63.219452</ele>
        <time>2020-08-12T10:06:09.758Z</time>
      </trkpt>
      <trkpt lat="65.02682" lon="11.85312">
        <ele>63.232504</ele>
        <time>2020-08-12T10:06:12.742Z</time>
      </trkpt>
      <trkpt lat="65.0269" lon="11.85326">
        <ele>63.242424</ele>
        <time>2020-08-12T10:06:14.773Z</time>
      </trkpt>
      <trkpt lat="65.02699" lon="11.85342">
        <ele>63.253585</ele>
        <time>2020-08-12T10:06:16.769Z</time>
      </trkpt>
      <trkpt lat="65.02707" lon="11.85359">
        <ele>63.26464</ele>
        <time>2020-08-12T10:06:18.747Z</time>
      </trkpt>
      <trkpt lat="65.02716" lon="11.85377">
        <ele>63.275959</ele>
        <time>2020-08-12T10:06:20.776Z</time>
      </trkpt>
      <trkpt lat="65.02725" lon="11.85396">
        <ele>63.28816</ele>
        <time>2020-08-12T10:06:22.736Z</time>
      </trkpt>
      <trkpt lat="65.02735" lon="11.85414">
        <ele>63.300615</ele>
        <time>2020-08-12T10:06:24.742Z</time>
      </trkpt>
      <trkpt lat="65.02744" lon="11.85434">
        <ele>63.312979</ele>
        <time>2020-08-12T10:06:26.760Z</time>
      </trkpt>
      <trkpt lat="65.02753" lon="11.85452">
        <ele>63.324716</ele>
        <time>2020-08-12T10:06:28.743Z</time>
      </trkpt>
      <trkpt lat="65.02762" lon="11.85468">
        <ele>63.139028</ele>
        <time>2020-08-12T10:06:30.767Z</time>
      </trkpt>
      <trkpt lat="65.02769" lon="11.85483">
        <ele>62.922064</ele>
        <time>2020-08-12T10:06:32.734Z</time>
      </trkpt>
      <trkpt lat="65.02777" lon="11.85497">
        <ele>62.703913</ele>
        <time>2020-08-12T10:06:34.737Z</time>
      </trkpt>
      <trkpt lat="65.02785" lon="11.85511">
        <ele>62.495046</ele>
        <time>2020-08-12T10:06:36.743Z</time>
      </trkpt>
      <trkpt lat="65.02792" lon="11.85524">
        <ele>62.292554</ele>
        <time>2020-08-12T10:06:38.755Z</time>
      </trkpt>
      <trkpt lat="65.02802" lon="11.85542">
        <ele>62.004022</ele>
        <time>2020-08-12T10:06:41.752Z</time>
      </trkpt>
      <trkpt lat="65.02812" lon="11.85561">
        <ele>61.721862</ele>
        <time>2020-08-12T10:06:44.775Z</time>
      </trkpt>
      <trkpt lat="65.02822" lon="11.85581">
        <ele>61.432085</ele>
        <time>2020-08-12T10:06:47.750Z</time>
      </trkpt>
      <trkpt lat="65.02832" lon="11.85601">
        <ele>61.14401</ele>
        <time>2020-08-12T10:06:50.767Z</time>
      </trkpt>
      <trkpt lat="65.02841" lon="11.85621">
        <ele>60.861429</ele>
        <time>2020-08-12T10:06:53.791Z</time>
      </trkpt>
      <trkpt lat="65.02852" lon="11.85641">
        <ele>60.562924</ele>
        <time>2020-08-12T10:06:56.766Z</time>
      </trkpt>
      <trkpt lat="65.02859" lon="11.85657">
        <ele>60.34621</ele>
        <time>2020-08-12T10:06:58.731Z</time>
      </trkpt>
      <trkpt lat="65.02866" lon="11.85673">
        <ele>60.121174</ele>
        <time>2020-08-12T10:07:00.748Z</time>
      </trkpt>
      <trkpt lat="65.02874" lon="11.85688">
        <ele>59.894297</ele>
        <time>2020-08-12T10:07:02.746Z</time>
      </trkpt>
      <trkpt lat="65.02882" lon="11.85703">
        <ele>59.677867</ele>
        <time>2020-08-12T10:07:04.784Z</time>
      </trkpt>
      <trkpt lat="65.0289" lon="11.85717">
        <ele>59.455606</ele>
        <time>2020-08-12T10:07:06.765Z</time>
      </trkpt>
      <trkpt lat="65.02898" lon="11.85731">
        <ele>59.199043</ele>
        <time>2020-08-12T10:07:08.742Z</time>
      </trkpt>
      <trkpt lat="65.02907" lon="11.85746">
        <ele>58.903216</ele>
        <time>2020-08-12T10:07:10.743Z</time>
      </trkpt>
      <trkpt lat="65.02915" lon="11.85762">
        <ele>58.608831</ele>
        <time>2020-08-12T10:07:12.748Z</time>
      </trkpt>
      <trkpt lat="65.02923" lon="11.85779">
        <ele>58.293164</ele>
        <time>2020-08-12T10:07:14.750Z</time>
      </trkpt>
      <trkpt lat="65.02932" lon="11.85795">
        <ele>57.978988</ele>
        <time>2020-08-12T10:07:16.742Z</time>
      </trkpt>
      <trkpt lat="65.02941" lon="11.85812">
        <ele>57.661126</ele>
        <time>2020-08-12T10:07:18.757Z</time>
      </trkpt>
      <trkpt lat="65.02949" lon="11.85829">
        <ele>57.344438</ele>
        <time>2020-08-12T10:07:20.770Z</time>
      </trkpt>
      <trkpt lat="65.02958" lon="11.85846">
        <ele>57.026513</ele>
        <time>2020-08-12T10:07:22.752Z</time>
      </trkpt>
      <trkpt lat="65.02967" lon="11.85863">
        <ele>56.700451</ele>
        <time>2020-08-12T10:07:24.748Z</time>
      </trkpt>
      <trkpt lat="65.02976" lon="11.85881">
        <ele>56.375018</ele>
        <time>2020-08-12T10:07:26.753Z</time>
      </trkpt>
      <trkpt lat="65.02985" lon="11.859">
        <ele>56.041231</ele>
        <time>2020-08-12T10:07:28.739Z</time>
      </trkpt>
      <trkpt lat="65.02994" lon="11.85919">
        <ele>55.694254</ele>
        <time>2020-08-12T10:07:30.750Z</time>
      </trkpt>
      <trkpt lat="65.03004" lon="11.85939">
        <ele>55.331158</ele>
        <time>2020-08-12T10:07:32.749Z</time>
      </trkpt>
      <trkpt lat="65.03014" lon="11.85958">
        <ele>54.960828</ele>
        <time>2020-08-12T10:07:34.753Z</time>
      </trkpt>
      <trkpt lat="65.03025" lon="11.85979">
        <ele>54.575831</ele>
        <time>2020-08-12T10:07:36.755Z</time>
      </trkpt>
      <trkpt lat="65.03035" lon="11.85999">
        <ele>54.254212</ele>
        <time>2020-08-12T10:07:38.761Z</time>
      </trkpt>
      <trkpt lat="65.03046" lon="11.8602">
        <ele>54.235223</ele>
        <time>2020-08-12T10:07:40.751Z</time>
      </trkpt>
      <trkpt lat="65.03056" lon="11.8604">
        <ele>54.216555</ele>
        <time>2020-08-12T10:07:42.743Z</time>
      </trkpt>
      <trkpt lat="65.03066" lon="11.8606">
        <ele>54.198618</ele>
        <time>2020-08-12T10:07:44.784Z</time>
      </trkpt>
      <trkpt lat="65.03075" lon="11.86079">
        <ele>54.181418</ele>
        <time>2020-08-12T10:07:46.761Z</time>
      </trkpt>
      <trkpt lat="65.03084" lon="11.86097">
        <ele>54.165087</ele>
        <time>2020-08-12T10:07:48.787Z</time>
      </trkpt>
      <trkpt lat="65.03093" lon="11.86113">
        <ele>54.149493</ele>
        <time>2020-08-12T10:07:50.759Z</time>
      </trkpt>
      <trkpt lat="65.03101" lon="11.86129">
        <ele>54.134816</ele>
        <time>2020-08-12T10:07:52.787Z</time>
      </trkpt>
      <trkpt lat="65.03109" lon="11.86143">
        <ele>54.121089</ele>
        <time>2020-08-12T10:07:54.750Z</time>
      </trkpt>
      <trkpt lat="65.03116" lon="11.86157">
        <ele>54.108121</ele>
        <time>2020-08-12T10:07:56.753Z</time>
      </trkpt>
      <trkpt lat="65.03126" lon="11.86178">
        <ele>54.089301</ele>
        <time>2020-08-12T10:07:59.741Z</time>
      </trkpt>
      <trkpt lat="65.03136" lon="11.86199">
        <ele>54.071133</ele>
        <time>2020-08-12T10:08:02.743Z</time>
      </trkpt>
      <trkpt lat="65.03145" lon="11.86217">
        <ele>54.053971</ele>
        <time>2020-08-12T10:08:05.770Z</time>
      </trkpt>
      <trkpt lat="65.03155" lon="11.86236">
        <ele>54.036916</ele>
        <time>2020-08-12T10:08:08.787Z</time>
      </trkpt>
      <trkpt lat="65.03164" lon="11.86253">
        <ele>54.020339</ele>
        <time>2020-08-12T10:08:11.739Z</time>
      </trkpt>
      <trkpt lat="65.03173" lon="11.86271">
        <ele>54.019725</ele>
        <time>2020-08-12T10:08:14.777Z</time>
      </trkpt>
      <trkpt lat="65.03182" lon="11.86289">
        <ele>54.092619</ele>
        <time>2020-08-12T10:08:17.772Z</time>
      </trkpt>
      <trkpt lat="65.03191" lon="11.86306">
        <ele>54.160338</ele>
        <time>2020-08-12T10:08:20.742Z</time>
      </trkpt>
      <trkpt lat="65.032" lon="11.86324">
        <ele>54.231894</ele>
        <time>2020-08-12T10:08:23.779Z</time>
      </trkpt>
      <trkpt lat="65.03209" lon="11.86341">
        <ele>54.301521</ele>
        <time>2020-08-12T10:08:26.742Z</time>
      </trkpt>
      <trkpt lat="65.03217" lon="11.86357">
        <ele>54.369058</ele>
        <time>2020-08-12T10:08:29.767Z</time>
      </trkpt>
      <trkpt lat="65.03225" lon="11.86375">
        <ele>54.436059</ele>
        <time>2020-08-12T10:08:32.805Z</time>
      </trkpt>
      <trkpt lat="65.03234" lon="11.86391">
        <ele>54.502157</ele>
        <time>2020-08-12T10:08:35.748Z</time>
      </trkpt>
      <trkpt lat="65.03243" lon="11.86407">
        <ele>54.57146</ele>
        <time>2020-08-12T10:08:38.766Z</time>
      </trkpt>
      <trkpt lat="65.03252" lon="11.86423">
        <ele>54.640521</ele>
        <time>2020-08-12T10:08:41.748Z</time>
      </trkpt>
      <trkpt lat="65.0326" lon="11.86439">
        <ele>54.70711</ele>
        <time>2020-08-12T10:08:44.756Z</time>
      </trkpt>
      <trkpt lat="65.03269" lon="11.86457">
        <ele>54.777728</ele>
        <time>2020-08-12T10:08:47.749Z</time>
      </trkpt>
      <trkpt lat="65.03279" lon="11.86475">
        <ele>54.852464</ele>
        <time>2020-08-12T10:08:50.810Z</time>
      </trkpt>
      <trkpt lat="65.03289" lon="11.86494">
        <ele>54.929459</ele>
        <time>2020-08-12T10:08:53.756Z</time>
      </trkpt>
      <trkpt lat="65.03296" lon="11.86507">
        <ele>54.98419</ele>
        <time>2020-08-12T10:08:55.748Z</time>
      </trkpt>
      <trkpt lat="65.03303" lon="11.86521">
        <ele>55.041199</ele>
        <time>2020-08-12T10:08:57.758Z</time>
      </trkpt>
      <trkpt lat="65.0331" lon="11.86536">
        <ele>55.100945</ele>
        <time>2020-08-12T10:08:59.754Z</time>
      </trkpt>
      <trkpt lat="65.03318" lon="11.86551">
        <ele>55.396966</ele>
        <time>2020-08-12T10:09:01.763Z</time>
      </trkpt>
      <trkpt lat="65.03325" lon="11.86566">
        <ele>55.72119</ele>
        <time>2020-08-12T10:09:03.758Z</time>
      </trkpt>
      <trkpt lat="65.03333" lon="11.86582">
        <ele>56.040787</ele>
        <time>2020-08-12T10:09:05.809Z</time>
      </trkpt>
      <trkpt lat="65.0334" lon="11.86598">
        <ele>56.364636</ele>
        <time>2020-08-12T10:09:07.745Z</time>
      </trkpt>
      <trkpt lat="65.03348" lon="11.86614">
        <ele>56.700948</ele>
        <time>2020-08-12T10:09:09.744Z</time>
      </trkpt>
      <trkpt lat="65.03355" lon="11.8663">
        <ele>57.02664</ele>
        <time>2020-08-12T10:09:11.753Z</time>
      </trkpt>
      <trkpt lat="65.03363" lon="11.86644">
        <ele>57.337212</ele>
        <time>2020-08-12T10:09:13.747Z</time>
      </trkpt>
      <trkpt lat="65.03373" lon="11.86663">
        <ele>57.756475</ele>
        <time>2020-08-12T10:09:16.755Z</time>
      </trkpt>
      <trkpt lat="65.03381" lon="11.86681">
        <ele>58.125724</ele>
        <time>2020-08-12T10:09:19.764Z</time>
      </trkpt>
      <trkpt lat="65.0339" lon="11.86698">
        <ele>58.487348</ele>
        <time>2020-08-12T10:09:22.758Z</time>
      </trkpt>
      <trkpt lat="65.03398" lon="11.86713">
        <ele>58.835172</ele>
        <time>2020-08-12T10:09:25.757Z</time>
      </trkpt>
      <trkpt lat="65.03406" lon="11.86729">
        <ele>59.156027</ele>
        <time>2020-08-12T10:09:28.761Z</time>
      </trkpt>
      <trkpt lat="65.03413" lon="11.86744">
        <ele>59.480478</ele>
        <time>2020-08-12T10:09:31.786Z</time>
      </trkpt>
      <trkpt lat="65.0342" lon="11.86758">
        <ele>59.772722</ele>
        <time>2020-08-12T10:09:34.744Z</time>
      </trkpt>
      <trkpt lat="65.03428" lon="11.86778">
        <ele>60.148132</ele>
        <time>2020-08-12T10:09:38.792Z</time>
      </trkpt>
      <trkpt lat="65.03436" lon="11.86794">
        <ele>60.491411</ele>
        <time>2020-08-12T10:09:42.757Z</time>
      </trkpt>
      <trkpt lat="65.03444" lon="11.86811">
        <ele>60.849663</ele>
        <time>2020-08-12T10:09:46.753Z</time>
      </trkpt>
      <trkpt lat="65.03453" lon="11.86828">
        <ele>61.182404</ele>
        <time>2020-08-12T10:09:50.748Z</time>
      </trkpt>
      <trkpt lat="65.03461" lon="11.86841">
        <ele>61.436715</ele>
        <time>2020-08-12T10:09:54.763Z</time>
      </trkpt>
      <trkpt lat="65.03468" lon="11.86854">
        <ele>61.700352</ele>
        <time>2020-08-12T10:09:59.749Z</time>
      </trkpt>
      <trkpt lat="65.03475" lon="11.8687">
        <ele>61.964507</ele>
        <time>2020-08-12T10:10:03.768Z</time>
      </trkpt>
      <trkpt lat="65.03481" lon="11.86888">
        <ele>62.218722</ele>
        <time>2020-08-12T10:10:07.746Z</time>
      </trkpt>
      <trkpt lat="65.03486" lon="11.8691">
        <ele>62.521313</ele>
        <time>2020-08-12T10:10:12.751Z</time>
      </trkpt>
      <trkpt lat="65.0349" lon="11.86931">
        <ele>62.794925</ele>
        <time>2020-08-12T10:10:17.796Z</time>
      </trkpt>
      <trkpt lat="65.03497" lon="11.86952">
        <ele>63.092138</ele>
        <time>2020-08-12T10:10:22.755Z</time>
      </trkpt>
      <trkpt lat="65.03501" lon="11.86975">
        <ele>63.385276</ele>
        <time>2020-08-12T10:10:27.772Z</time>
      </trkpt>
      <trkpt lat="65.03508" lon="11.86996">
        <ele>63.693365</ele>
        <time>2020-08-12T10:10:32.772Z</time>
      </trkpt>
      <trkpt lat="65.03513" lon="11.87017">
        <ele>63.976225</ele>
        <time>2020-08-12T10:10:37.738Z</time>
      </trkpt>
      <trkpt lat="65.03517" lon="11.87038">
        <ele>64.246818</ele>
        <time>2020-08-12T10:10:42.748Z</time>
      </trkpt>
      <trkpt lat="65.03522" lon="11.87059">
        <ele>64.523078</ele>
        <time>2020-08-12T10:10:47.756Z</time>
      </trkpt>
      <trkpt lat="65.03527" lon="11.87079">
        <ele>64.799338</ele>
        <time>2020-08-12T10:10:52.780Z</time>
      </trkpt>
      <trkpt lat="65.03531" lon="11.87101">
        <ele>65.081435</ele>
        <time>2020-08-12T10:10:56.766Z</time>
      </trkpt>
      <trkpt lat="65.03536" lon="11.87123">
        <ele>65.375704</ele>
        <time>2020-08-12T10:11:00.764Z</time>
      </trkpt>
      <trkpt lat="65.03541" lon="11.87148">
        <ele>65.686848</ele>
        <time>2020-08-12T10:11:04.744Z</time>
      </trkpt>
      <trkpt lat="65.03547" lon="11.87168">
        <ele>65.939739</ele>
        <time>2020-08-12T10:11:08.777Z</time>
      </trkpt>
      <trkpt lat="65.03555" lon="11.87189">
        <ele>65.979467</ele>
        <time>2020-08-12T10:11:12.773Z</time>
      </trkpt>
      <trkpt lat="65.0356" lon="11.87208">
        <ele>66.01305</ele>
        <time>2020-08-12T10:11:15.736Z</time>
      </trkpt>
      <trkpt lat="65.03566" lon="11.87227">
        <ele>66.045609</ele>
        <time>2020-08-12T10:11:18.742Z</time>
      </trkpt>
      <trkpt lat="65.03571" lon="11.87246">
        <ele>66.077886</ele>
        <time>2020-08-12T10:11:21.768Z</time>
      </trkpt>
      <trkpt lat="65.03576" lon="11.87263">
        <ele>66.108715</ele>
        <time>2020-08-12T10:11:24.740Z</time>
      </trkpt>
      <trkpt lat="65.03581" lon="11.87282">
        <ele>66.140132</ele>
        <time>2020-08-12T10:11:27.786Z</time>
      </trkpt>
      <trkpt lat="65.03588" lon="11.87304">
        <ele>66.180816</ele>
        <time>2020-08-12T10:11:31.777Z</time>
      </trkpt>
      <trkpt lat="65.03595" lon="11.87322">
        <ele>66.214491</ele>
        <time>2020-08-12T10:11:34.743Z</time>
      </trkpt>
      <trkpt lat="65.03601" lon="11.87339">
        <ele>66.248947</ele>
        <time>2020-08-12T10:11:37.748Z</time>
      </trkpt>
      <trkpt lat="65.03608" lon="11.87355">
        <ele>66.280911</ele>
        <time>2020-08-12T10:11:40.752Z</time>
      </trkpt>
      <trkpt lat="65.03614" lon="11.87372">
        <ele>66.31215</ele>
        <time>2020-08-12T10:11:43.741Z</time>
      </trkpt>
      <trkpt lat="65.03619" lon="11.87388">
        <ele>66.343268</ele>
        <time>2020-08-12T10:11:46.769Z</time>
      </trkpt>
      <trkpt lat="65.03625" lon="11.87405">
        <ele>66.374499</ele>
        <time>2020-08-12T10:11:49.745Z</time>
      </trkpt>
      <trkpt lat="65.03632" lon="11.87421">
        <ele>66.406638</ele>
        <time>2020-08-12T10:11:52.746Z</time>
      </trkpt>
      <trkpt lat="65.0364" lon="11.8744">
        <ele>66.446629</ele>
        <time>2020-08-12T10:11:56.744Z</time>
      </trkpt>
      <trkpt lat="65.03648" lon="11.8746">
        <ele>66.485934</ele>
        <time>2020-08-12T10:12:00.769Z</time>
      </trkpt>
      <trkpt lat="65.03655" lon="11.8748">
        <ele>66.52348</ele>
        <time>2020-08-12T10:12:04.743Z</time>
      </trkpt>
      <trkpt lat="65.03663" lon="11.87499">
        <ele>66.659284</ele>
        <time>2020-08-12T10:12:08.774Z</time>
      </trkpt>
      <trkpt lat="65.03671" lon="11.87521">
        <ele>66.981003</ele>
        <time>2020-08-12T10:12:12.745Z</time>
      </trkpt>
      <trkpt lat="65.03679" lon="11.8754">
        <ele>67.289192</ele>
        <time>2020-08-12T10:12:16.767Z</time>
      </trkpt>
      <trkpt lat="65.03687" lon="11.87559">
        <ele>67.603052</ele>
        <time>2020-08-12T10:12:20.764Z</time>
      </trkpt>
      <trkpt lat="65.03695" lon="11.87579">
        <ele>67.912749</ele>
        <time>2020-08-12T10:12:24.743Z</time>
      </trkpt>
      <trkpt lat="65.03702" lon="11.87601">
        <ele>68.232777</ele>
        <time>2020-08-12T10:12:28.740Z</time>
      </trkpt>
      <trkpt lat="65.03708" lon="11.87616">
        <ele>68.478418</ele>
        <time>2020-08-12T10:12:31.746Z</time>
      </trkpt>
      <trkpt lat="65.03716" lon="11.87636">
        <ele>68.796389</ele>
        <time>2020-08-12T10:12:35.750Z</time>
      </trkpt>
      <trkpt lat="65.03724" lon="11.87656">
        <ele>69.098843</ele>
        <time>2020-08-12T10:12:39.765Z</time>
      </trkpt>
      <trkpt lat="65.03731" lon="11.87676">
        <ele>69.39865</ele>
        <time>2020-08-12T10:12:43.787Z</time>
      </trkpt>
      <trkpt lat="65.03737" lon="11.87693">
        <ele>69.651106</ele>
        <time>2020-08-12T10:12:46.783Z</time>
      </trkpt>
      <trkpt lat="65.03744" lon="11.87708">
        <ele>69.915514</ele>
        <time>2020-08-12T10:12:49.747Z</time>
      </trkpt>
      <trkpt lat="65.03751" lon="11.87724">
        <ele>70.174362</ele>
        <time>2020-08-12T10:12:52.743Z</time>
      </trkpt>
      <trkpt lat="65.03758" lon="11.87739">
        <ele>70.421349</ele>
        <time>2020-08-12T10:12:55.750Z</time>
      </trkpt>
      <trkpt lat="65.03766" lon="11.8776">
        <ele>70.74769</ele>
        <time>2020-08-12T10:12:59.753Z</time>
      </trkpt>
      <trkpt lat="65.03772" lon="11.87777">
        <ele>71.014351</ele>
        <time>2020-08-12T10:13:02.737Z</time>
      </trkpt>
      <trkpt lat="65.03778" lon="11.87793">
        <ele>71.261556</ele>
        <time>2020-08-12T10:13:05.752Z</time>
      </trkpt>
      <trkpt lat="65.03786" lon="11.87814">
        <ele>71.590691</ele>
        <time>2020-08-12T10:13:09.753Z</time>
      </trkpt>
      <trkpt lat="65.03793" lon="11.87831">
        <ele>71.897405</ele>
        <time>2020-08-12T10:13:13.744Z</time>
      </trkpt>
      <trkpt lat="65.03799" lon="11.87848">
        <ele>72.178171</ele>
        <time>2020-08-12T10:13:17.765Z</time>
      </trkpt>
      <trkpt lat="65.03806" lon="11.87867">
        <ele>72.503264</ele>
        <time>2020-08-12T10:13:22.763Z</time>
      </trkpt>
      <trkpt lat="65.03812" lon="11.87886">
        <ele>72.799383</ele>
        <time>2020-08-12T10:13:27.744Z</time>
      </trkpt>
      <trkpt lat="65.03819" lon="11.87903">
        <ele>73.106717</ele>
        <time>2020-08-12T10:13:33.762Z</time>
      </trkpt>
      <trkpt lat="65.03825" lon="11.87919">
        <ele>73.379596</ele>
        <time>2020-08-12T10:13:38.750Z</time>
      </trkpt>
      <trkpt lat="65.03832" lon="11.87935">
        <ele>73.64997</ele>
        <time>2020-08-12T10:13:43.752Z</time>
      </trkpt>
      <trkpt lat="65.03838" lon="11.87951">
        <ele>73.927682</ele>
        <time>2020-08-12T10:13:48.783Z</time>
      </trkpt>
      <trkpt lat="65.03845" lon="11.87968">
        <ele>74.226573</ele>
        <time>2020-08-12T10:13:54.733Z</time>
      </trkpt>
      <trkpt lat="65.03852" lon="11.87984">
        <ele>74.525394</ele>
        <time>2020-08-12T10:14:00.764Z</time>
      </trkpt>
      <trkpt lat="65.0386" lon="11.88">
        <ele>74.824774</ele>
        <time>2020-08-12T10:14:05.755Z</time>
      </trkpt>
      <trkpt lat="65.03867" lon="11.88014">
        <ele>75.120688</ele>
        <time>2020-08-12T10:14:10.740Z</time>
      </trkpt>
      <trkpt lat="65.03875" lon="11.88032">
        <ele>75.438139</ele>
        <time>2020-08-12T10:14:15.753Z</time>
      </trkpt>
      <trkpt lat="65.03882" lon="11.88049">
        <ele>75.751463</ele>
        <time>2020-08-12T10:14:19.757Z</time>
      </trkpt>
      <trkpt lat="65.03889" lon="11.88068">
        <ele>76.060222</ele>
        <time>2020-08-12T10:14:24.763Z</time>
      </trkpt>
      <trkpt lat="65.03895" lon="11.88087">
        <ele>76.35347</ele>
        <time>2020-08-12T10:14:34.737Z</time>
      </trkpt>
      <trkpt lat="65.03901" lon="11.88106">
        <ele>76.67105</ele>
        <time>2020-08-12T10:14:42.749Z</time>
      </trkpt>
      <trkpt lat="65.03908" lon="11.88128">
        <ele>76.769966</ele>
        <time>2020-08-12T10:14:45.749Z</time>
      </trkpt>
      <trkpt lat="65.03914" lon="11.88145">
        <ele>76.667457</ele>
        <time>2020-08-12T10:14:47.737Z</time>
      </trkpt>
      <trkpt lat="65.0392" lon="11.88163">
        <ele>76.556815</ele>
        <time>2020-08-12T10:14:49.757Z</time>
      </trkpt>
      <trkpt lat="65.03927" lon="11.88182">
        <ele>76.440852</ele>
        <time>2020-08-12T10:14:51.746Z</time>
      </trkpt>
      <trkpt lat="65.03934" lon="11.88199">
        <ele>76.334748</ele>
        <time>2020-08-12T10:14:53.741Z</time>
      </trkpt>
      <trkpt lat="65.03941" lon="11.88218">
        <ele>76.214527</ele>
        <time>2020-08-12T10:14:55.754Z</time>
      </trkpt>
      <trkpt lat="65.03948" lon="11.88239">
        <ele>76.092222</ele>
        <time>2020-08-12T10:14:57.777Z</time>
      </trkpt>
      <trkpt lat="65.03956" lon="11.8826">
        <ele>75.960714</ele>
        <time>2020-08-12T10:14:59.757Z</time>
      </trkpt>
      <trkpt lat="65.03965" lon="11.88281">
        <ele>75.823698</ele>
        <time>2020-08-12T10:15:01.755Z</time>
      </trkpt>
      <trkpt lat="65.03974" lon="11.88303">
        <ele>75.685058</ele>
        <time>2020-08-12T10:15:03.749Z</time>
      </trkpt>
      <trkpt lat="65.03982" lon="11.88326">
        <ele>75.540725</ele>
        <time>2020-08-12T10:15:05.761Z</time>
      </trkpt>
      <trkpt lat="65.03992" lon="11.88349">
        <ele>75.391299</ele>
        <time>2020-08-12T10:15:07.785Z</time>
      </trkpt>
      <trkpt lat="65.04001" lon="11.88373">
        <ele>75.238088</ele>
        <time>2020-08-12T10:15:09.759Z</time>
      </trkpt>
      <trkpt lat="65.0401" lon="11.88398">
        <ele>75.087477</ele>
        <time>2020-08-12T10:15:11.786Z</time>
      </trkpt>
      <trkpt lat="65.04019" lon="11.88423">
        <ele>74.934431</ele>
        <time>2020-08-12T10:15:13.775Z</time>
      </trkpt>
      <trkpt lat="65.04029" lon="11.8845">
        <ele>74.511236</ele>
        <time>2020-08-12T10:15:15.771Z</time>
      </trkpt>
      <trkpt lat="65.04038" lon="11.88476">
        <ele>73.879052</ele>
        <time>2020-08-12T10:15:17.754Z</time>
      </trkpt>
      <trkpt lat="65.04048" lon="11.88502">
        <ele>73.222154</ele>
        <time>2020-08-12T10:15:19.803Z</time>
      </trkpt>
      <trkpt lat="65.04057" lon="11.88526">
        <ele>72.600144</ele>
        <time>2020-08-12T10:15:21.751Z</time>
      </trkpt>
      <trkpt lat="65.04066" lon="11.88547">
        <ele>72.024957</ele>
        <time>2020-08-12T10:15:23.746Z</time>
      </trkpt>
      <trkpt lat="65.04075" lon="11.88569">
        <ele>71.478101</ele>
        <time>2020-08-12T10:15:25.746Z</time>
      </trkpt>
      <trkpt lat="65.04083" lon="11.88589">
        <ele>70.970271</ele>
        <time>2020-08-12T10:15:27.750Z</time>
      </trkpt>
      <trkpt lat="65.0409" lon="11.88609">
        <ele>70.469921</ele>
        <time>2020-08-12T10:15:29.736Z</time>
      </trkpt>
      <trkpt lat="65.04097" lon="11.88628">
        <ele>69.993699</ele>
        <time>2020-08-12T10:15:31.756Z</time>
      </trkpt>
      <trkpt lat="65.04105" lon="11.88647">
        <ele>69.505945</ele>
        <time>2020-08-12T10:15:33.749Z</time>
      </trkpt>
      <trkpt lat="65.04112" lon="11.88666">
        <ele>69.012152</ele>
        <time>2020-08-12T10:15:35.746Z</time>
      </trkpt>
      <trkpt lat="65.0412" lon="11.88686">
        <ele>68.504643</ele>
        <time>2020-08-12T10:15:37.769Z</time>
      </trkpt>
      <trkpt lat="65.04127" lon="11.88706">
        <ele>68.004297</ele>
        <time>2020-08-12T10:15:39.750Z</time>
      </trkpt>
      <trkpt lat="65.04135" lon="11.88726">
        <ele>67.506614</ele>
        <time>2020-08-12T10:15:41.816Z</time>
      </trkpt>
      <trkpt lat="65.04142" lon="11.88746">
        <ele>67.017764</ele>
        <time>2020-08-12T10:15:43.742Z</time>
      </trkpt>
      <trkpt lat="65.04149" lon="11.88766">
        <ele>66.842606</ele>
        <time>2020-08-12T10:15:45.745Z</time>
      </trkpt>
      <trkpt lat="65.04157" lon="11.88785">
        <ele>66.807019</ele>
        <time>2020-08-12T10:15:47.798Z</time>
      </trkpt>
      <trkpt lat="65.04166" lon="11.88806">
        <ele>66.769075</ele>
        <time>2020-08-12T10:15:49.744Z</time>
      </trkpt>
      <trkpt lat="65.04175" lon="11.88828">
        <ele>66.730029</ele>
        <time>2020-08-12T10:15:51.744Z</time>
      </trkpt>
      <trkpt lat="65.04184" lon="11.88849">
        <ele>66.691219</ele>
        <time>2020-08-12T10:15:53.758Z</time>
      </trkpt>
      <trkpt lat="65.04193" lon="11.8887">
        <ele>66.65363</ele>
        <time>2020-08-12T10:15:55.765Z</time>
      </trkpt>
      <trkpt lat="65.042" lon="11.8889">
        <ele>66.618723</ele>
        <time>2020-08-12T10:15:57.759Z</time>
      </trkpt>
      <trkpt lat="65.04207" lon="11.88907">
        <ele>66.588709</ele>
        <time>2020-08-12T10:15:59.753Z</time>
      </trkpt>
      <trkpt lat="65.04216" lon="11.88928">
        <ele>66.549947</ele>
        <time>2020-08-12T10:16:02.751Z</time>
      </trkpt>
      <trkpt lat="65.04225" lon="11.88944">
        <ele>66.515738</ele>
        <time>2020-08-12T10:16:05.742Z</time>
      </trkpt>
      <trkpt lat="65.04233" lon="11.88957">
        <ele>66.486851</ele>
        <time>2020-08-12T10:16:08.758Z</time>
      </trkpt>
      <trkpt lat="65.0424" lon="11.88971">
        <ele>66.459181</ele>
        <time>2020-08-12T10:16:11.767Z</time>
      </trkpt>
      <trkpt lat="65.04249" lon="11.88986">
        <ele>66.425928</ele>
        <time>2020-08-12T10:16:15.753Z</time>
      </trkpt>
      <trkpt lat="65.04257" lon="11.88999">
        <ele>66.395745</ele>
        <time>2020-08-12T10:16:19.754Z</time>
      </trkpt>
      <trkpt lat="65.04265" lon="11.89011">
        <ele>66.365575</ele>
        <time>2020-08-12T10:16:23.751Z</time>
      </trkpt>
      <trkpt lat="65.04273" lon="11.89026">
        <ele>66.335444</ele>
        <time>2020-08-12T10:16:27.761Z</time>
      </trkpt>
      <trkpt lat="65.04281" lon="11.8904">
        <ele>66.538612</ele>
        <time>2020-08-12T10:16:31.738Z</time>
      </trkpt>
      <trkpt lat="65.0429" lon="11.89053">
        <ele>67.090438</ele>
        <time>2020-08-12T10:16:35.742Z</time>
      </trkpt>
      <trkpt lat="65.04298" lon="11.89069">
        <ele>67.670592</ele>
        <time>2020-08-12T10:16:39.772Z</time>
      </trkpt>
      <trkpt lat="65.04306" lon="11.89082">
        <ele>68.20506</ele>
        <time>2020-08-12T10:16:43.790Z</time>
      </trkpt>
      <trkpt lat="65.04314" lon="11.89097">
        <ele>68.771142</ele>
        <time>2020-08-12T10:16:47.743Z</time>
      </trkpt>
      <trkpt lat="65.04323" lon="11.89115">
        <ele>69.390335</ele>
        <time>2020-08-12T10:16:51.767Z</time>
      </trkpt>
      <trkpt lat="65.04331" lon="11.89136">
        <ele>70.036781</ele>
        <time>2020-08-12T10:16:55.737Z</time>
      </trkpt>
      <trkpt lat="65.04338" lon="11.89152">
        <ele>70.556212</ele>
        <time>2020-08-12T10:16:58.749Z</time>
      </trkpt>
      <trkpt lat="65.04344" lon="11.89169">
        <ele>71.05862</ele>
        <time>2020-08-12T10:17:01.799Z</time>
      </trkpt>
      <trkpt lat="65.04351" lon="11.8919">
        <ele>71.69012</ele>
        <time>2020-08-12T10:17:05.740Z</time>
      </trkpt>
      <trkpt lat="65.04359" lon="11.89212">
        <ele>72.334119</ele>
        <time>2020-08-12T10:17:09.775Z</time>
      </trkpt>
      <trkpt lat="65.04366" lon="11.89233">
        <ele>72.953537</ele>
        <time>2020-08-12T10:17:13.745Z</time>
      </trkpt>
      <trkpt lat="65.04372" lon="11.89253">
        <ele>73.511826</ele>
        <time>2020-08-12T10:17:17.745Z</time>
      </trkpt>
      <trkpt lat="65.04378" lon="11.89271">
        <ele>74.042143</ele>
        <time>2020-08-12T10:17:21.740Z</time>
      </trkpt>
      <trkpt lat="65.04385" lon="11.89287">
        <ele>74.553457</ele>
        <time>2020-08-12T10:17:26.760Z</time>
      </trkpt>
      <trkpt lat="65.04393" lon="11.89299">
        <ele>75.05653</ele>
        <time>2020-08-12T10:17:31.754Z</time>
      </trkpt>
      <trkpt lat="65.04401" lon="11.89308">
        <ele>75.564931</ele>
        <time>2020-08-12T10:17:36.782Z</time>
      </trkpt>
      <trkpt lat="65.0441" lon="11.89316">
        <ele>76.052174</ele>
        <time>2020-08-12T10:17:42.761Z</time>
      </trkpt>
      <trkpt lat="65.04419" lon="11.89324">
        <ele>76.338993</ele>
        <time>2020-08-12T10:17:49.767Z</time>
      </trkpt>
      <trkpt lat="65.04428" lon="11.8933">
        <ele>76.59735</ele>
        <time>2020-08-12T10:17:55.740Z</time>
      </trkpt>
      <trkpt lat="65.04437" lon="11.89333">
        <ele>76.858225</ele>
        <time>2020-08-12T10:18:01.739Z</time>
      </trkpt>
      <trkpt lat="65.04446" lon="11.89335">
        <ele>77.125096</ele>
        <time>2020-08-12T10:18:08.762Z</time>
      </trkpt>
      <trkpt lat="65.04455" lon="11.89334">
        <ele>77.399203</ele>
        <time>2020-08-12T10:18:16.745Z</time>
      </trkpt>
      <trkpt lat="65.04464" lon="11.89326">
        <ele>77.675369</ele>
        <time>2020-08-12T10:18:23.750Z</time>
      </trkpt>
      <trkpt lat="65.04474" lon="11.89322">
        <ele>77.948438</ele>
        <time>2020-08-12T10:18:29.748Z</time>
      </trkpt>
      <trkpt lat="65.04484" lon="11.89317">
        <ele>78.252448</ele>
        <time>2020-08-12T10:18:34.737Z</time>
      </trkpt>
      <trkpt lat="65.04494" lon="11.89312">
        <ele>78.555446</ele>
        <time>2020-08-12T10:18:38.773Z</time>
      </trkpt>
      <trkpt lat="65.04504" lon="11.89307">
        <ele>78.83256</ele>
        <time>2020-08-12T10:18:41.788Z</time>
      </trkpt>
      <trkpt lat="65.04514" lon="11.893">
        <ele>79.150295</ele>
        <time>2020-08-12T10:18:44.752Z</time>
      </trkpt>
      <trkpt lat="65.04528" lon="11.89295">
        <ele>79.54161</ele>
        <time>2020-08-12T10:18:47.748Z</time>
      </trkpt>
      <trkpt lat="65.04539" lon="11.89292">
        <ele>79.867176</ele>
        <time>2020-08-12T10:18:49.749Z</time>
      </trkpt>
      <trkpt lat="65.04553" lon="11.8929">
        <ele>80.271528</ele>
        <time>2020-08-12T10:18:51.745Z</time>
      </trkpt>
      <trkpt lat="65.04569" lon="11.8929">
        <ele>80.741334</ele>
        <time>2020-08-12T10:18:53.745Z</time>
      </trkpt>
      <trkpt lat="65.04587" lon="11.89294">
        <ele>81.140249</ele>
        <time>2020-08-12T10:18:55.785Z</time>
      </trkpt>
      <trkpt lat="65.04597" lon="11.89299">
        <ele>80.389932</ele>
        <time>2020-08-12T10:18:56.758Z</time>
      </trkpt>
      <trkpt lat="65.04607" lon="11.89306">
        <ele>79.611501</ele>
        <time>2020-08-12T10:18:57.766Z</time>
      </trkpt>
      <trkpt lat="65.04617" lon="11.89316">
        <ele>78.785873</ele>
        <time>2020-08-12T10:18:58.767Z</time>
      </trkpt>
      <trkpt lat="65.04627" lon="11.89329">
        <ele>77.898644</ele>
        <time>2020-08-12T10:18:59.737Z</time>
      </trkpt>
      <trkpt lat="65.04637" lon="11.89346">
        <ele>76.911599</ele>
        <time>2020-08-12T10:19:00.750Z</time>
      </trkpt>
      <trkpt lat="65.04647" lon="11.89365">
        <ele>75.927223</ele>
        <time>2020-08-12T10:19:01.745Z</time>
      </trkpt>
      <trkpt lat="65.04657" lon="11.89387">
        <ele>74.909678</ele>
        <time>2020-08-12T10:19:02.777Z</time>
      </trkpt>
      <trkpt lat="65.04666" lon="11.8941">
        <ele>73.894376</ele>
        <time>2020-08-12T10:19:03.768Z</time>
      </trkpt>
      <trkpt lat="65.04674" lon="11.89433">
        <ele>72.899343</ele>
        <time>2020-08-12T10:19:04.774Z</time>
      </trkpt>
      <trkpt lat="65.04682" lon="11.89457">
        <ele>71.906743</ele>
        <time>2020-08-12T10:19:05.747Z</time>
      </trkpt>
      <trkpt lat="65.04691" lon="11.8948">
        <ele>70.896838</ele>
        <time>2020-08-12T10:19:06.750Z</time>
      </trkpt>
      <trkpt lat="65.04699" lon="11.89504">
        <ele>69.869532</ele>
        <time>2020-08-12T10:19:07.746Z</time>
      </trkpt>
      <trkpt lat="65.04708" lon="11.89529">
        <ele>68.832164</ele>
        <time>2020-08-12T10:19:08.744Z</time>
      </trkpt>
      <trkpt lat="65.04716" lon="11.89555">
        <ele>67.784374</ele>
        <time>2020-08-12T10:19:09.753Z</time>
      </trkpt>
      <trkpt lat="65.04725" lon="11.89581">
        <ele>66.857724</ele>
        <time>2020-08-12T10:19:10.746Z</time>
      </trkpt>
      <trkpt lat="65.04733" lon="11.89607">
        <ele>66.032894</ele>
        <time>2020-08-12T10:19:11.779Z</time>
      </trkpt>
      <trkpt lat="65.04742" lon="11.89633">
        <ele>65.199024</ele>
        <time>2020-08-12T10:19:12.743Z</time>
      </trkpt>
      <trkpt lat="65.0475" lon="11.89659">
        <ele>64.372177</ele>
        <time>2020-08-12T10:19:13.744Z</time>
      </trkpt>
      <trkpt lat="65.04759" lon="11.89686">
        <ele>63.508142</ele>
        <time>2020-08-12T10:19:14.743Z</time>
      </trkpt>
      <trkpt lat="65.04768" lon="11.89714">
        <ele>62.605763</ele>
        <time>2020-08-12T10:19:15.755Z</time>
      </trkpt>
      <trkpt lat="65.04776" lon="11.89742">
        <ele>61.722347</ele>
        <time>2020-08-12T10:19:16.762Z</time>
      </trkpt>
      <trkpt lat="65.04785" lon="11.89771">
        <ele>60.845422</ele>
        <time>2020-08-12T10:19:17.770Z</time>
      </trkpt>
      <trkpt lat="65.04792" lon="11.89798">
        <ele>60.009602</ele>
        <time>2020-08-12T10:19:18.749Z</time>
      </trkpt>
      <trkpt lat="65.048" lon="11.89825">
        <ele>59.200619</ele>
        <time>2020-08-12T10:19:19.798Z</time>
      </trkpt>
      <trkpt lat="65.04806" lon="11.8985">
        <ele>58.436636</ele>
        <time>2020-08-12T10:19:20.747Z</time>
      </trkpt>
      <trkpt lat="65.04813" lon="11.89874">
        <ele>57.705595</ele>
        <time>2020-08-12T10:19:21.762Z</time>
      </trkpt>
      <trkpt lat="65.0482" lon="11.89896">
        <ele>57.027198</ele>
        <time>2020-08-12T10:19:22.774Z</time>
      </trkpt>
      <trkpt lat="65.04826" lon="11.89917">
        <ele>56.368138</ele>
        <time>2020-08-12T10:19:23.746Z</time>
      </trkpt>
      <trkpt lat="65.04832" lon="11.89937">
        <ele>55.731718</ele>
        <time>2020-08-12T10:19:24.743Z</time>
      </trkpt>
      <trkpt lat="65.04838" lon="11.89956">
        <ele>55.141142</ele>
        <time>2020-08-12T10:19:25.751Z</time>
      </trkpt>
      <trkpt lat="65.04843" lon="11.89974">
        <ele>54.580367</ele>
        <time>2020-08-12T10:19:26.741Z</time>
      </trkpt>
      <trkpt lat="65.04848" lon="11.89992">
        <ele>54.023954</ele>
        <time>2020-08-12T10:19:27.742Z</time>
      </trkpt>
      <trkpt lat="65.04853" lon="11.9001">
        <ele>53.465118</ele>
        <time>2020-08-12T10:19:28.750Z</time>
      </trkpt>
      <trkpt lat="65.04857" lon="11.90029">
        <ele>52.907305</ele>
        <time>2020-08-12T10:19:29.751Z</time>
      </trkpt>
      <trkpt lat="65.04862" lon="11.90048">
        <ele>52.34054</ele>
        <time>2020-08-12T10:19:30.777Z</time>
      </trkpt>
      <trkpt lat="65.04866" lon="11.90067">
        <ele>51.779058</ele>
        <time>2020-08-12T10:19:31.759Z</time>
      </trkpt>
      <trkpt lat="65.04875" lon="11.90102">
        <ele>50.713176</ele>
        <time>2020-08-12T10:19:33.753Z</time>
      </trkpt>
      <trkpt lat="65.04885" lon="11.90136">
        <ele>49.66049</ele>
        <time>2020-08-12T10:19:35.765Z</time>
      </trkpt>
      <trkpt lat="65.04893" lon="11.90172">
        <ele>48.594324</ele>
        <time>2020-08-12T10:19:37.752Z</time>
      </trkpt>
      <trkpt lat="65.04902" lon="11.90207">
        <ele>47.539703</ele>
        <time>2020-08-12T10:19:39.761Z</time>
      </trkpt>
      <trkpt lat="65.0491" lon="11.9024">
        <ele>46.557256</ele>
        <time>2020-08-12T10:19:41.756Z</time>
      </trkpt>
      <trkpt lat="65.04918" lon="11.90271">
        <ele>45.637194</ele>
        <time>2020-08-12T10:19:43.747Z</time>
      </trkpt>
      <trkpt lat="65.04925" lon="11.903">
        <ele>45.668559</ele>
        <time>2020-08-12T10:19:45.777Z</time>
      </trkpt>
      <trkpt lat="65.04931" lon="11.90326">
        <ele>45.789083</ele>
        <time>2020-08-12T10:19:47.778Z</time>
      </trkpt>
      <trkpt lat="65.04936" lon="11.9035">
        <ele>45.899905</ele>
        <time>2020-08-12T10:19:49.776Z</time>
      </trkpt>
      <trkpt lat="65.04941" lon="11.90372">
        <ele>45.999526</ele>
        <time>2020-08-12T10:19:51.742Z</time>
      </trkpt>
      <trkpt lat="65.04946" lon="11.90392">
        <ele>46.095208</ele>
        <time>2020-08-12T10:19:53.790Z</time>
      </trkpt>
      <trkpt lat="65.04952" lon="11.90411">
        <ele>46.187014</ele>
        <time>2020-08-12T10:19:55.736Z</time>
      </trkpt>
      <trkpt lat="65.04956" lon="11.90429">
        <ele>46.273117</ele>
        <time>2020-08-12T10:19:57.756Z</time>
      </trkpt>
      <trkpt lat="65.04963" lon="11.90455">
        <ele>46.395553</ele>
        <time>2020-08-12T10:20:00.776Z</time>
      </trkpt>
      <trkpt lat="65.04969" lon="11.90478">
        <ele>46.511466</ele>
        <time>2020-08-12T10:20:03.749Z</time>
      </trkpt>
      <trkpt lat="65.04975" lon="11.90502">
        <ele>46.6213</ele>
        <time>2020-08-12T10:20:06.765Z</time>
      </trkpt>
      <trkpt lat="65.0498" lon="11.90524">
        <ele>46.724353</ele>
        <time>2020-08-12T10:20:09.751Z</time>
      </trkpt>
      <trkpt lat="65.04986" lon="11.90546">
        <ele>46.827604</ele>
        <time>2020-08-12T10:20:12.750Z</time>
      </trkpt>
      <trkpt lat="65.0499" lon="11.90565">
        <ele>46.916833</ele>
        <time>2020-08-12T10:20:15.765Z</time>
      </trkpt>
      <trkpt lat="65.04996" lon="11.9059">
        <ele>47.028098</ele>
        <time>2020-08-12T10:20:19.769Z</time>
      </trkpt>
      <trkpt lat="65.05001" lon="11.90613">
        <ele>47.134731</ele>
        <time>2020-08-12T10:20:23.748Z</time>
      </trkpt>
      <trkpt lat="65.05008" lon="11.90635">
        <ele>47.246765</ele>
        <time>2020-08-12T10:20:27.765Z</time>
      </trkpt>
      <trkpt lat="65.05013" lon="11.90653">
        <ele>47.389132</ele>
        <time>2020-08-12T10:20:30.752Z</time>
      </trkpt>
      <trkpt lat="65.05018" lon="11.90672">
        <ele>47.567676</ele>
        <time>2020-08-12T10:20:33.758Z</time>
      </trkpt>
      <trkpt lat="65.05023" lon="11.90691">
        <ele>47.755296</ele>
        <time>2020-08-12T10:20:36.760Z</time>
      </trkpt>
      <trkpt lat="65.05029" lon="11.90713">
        <ele>47.957329</ele>
        <time>2020-08-12T10:20:39.759Z</time>
      </trkpt>
      <trkpt lat="65.05035" lon="11.90736">
        <ele>48.171116</ele>
        <time>2020-08-12T10:20:42.739Z</time>
      </trkpt>
      <trkpt lat="65.05042" lon="11.90763">
        <ele>48.421782</ele>
        <time>2020-08-12T10:20:45.768Z</time>
      </trkpt>
      <trkpt lat="65.05048" lon="11.90783">
        <ele>48.612161</ele>
        <time>2020-08-12T10:20:47.753Z</time>
      </trkpt>
      <trkpt lat="65.05054" lon="11.90802">
        <ele>48.801457</ele>
        <time>2020-08-12T10:20:49.741Z</time>
      </trkpt>
      <trkpt lat="65.05059" lon="11.90821">
        <ele>48.987495</ele>
        <time>2020-08-12T10:20:51.796Z</time>
      </trkpt>
      <trkpt lat="65.05065" lon="11.90841">
        <ele>49.177478</ele>
        <time>2020-08-12T10:20:53.755Z</time>
      </trkpt>
      <trkpt lat="65.05071" lon="11.9086">
        <ele>49.361176</ele>
        <time>2020-08-12T10:20:55.767Z</time>
      </trkpt>
      <trkpt lat="65.05077" lon="11.90878">
        <ele>49.545999</ele>
        <time>2020-08-12T10:20:57.780Z</time>
      </trkpt>
      <trkpt lat="65.05083" lon="11.90897">
        <ele>49.732591</ele>
        <time>2020-08-12T10:20:59.745Z</time>
      </trkpt>
      <trkpt lat="65.05089" lon="11.90915">
        <ele>49.916664</ele>
        <time>2020-08-12T10:21:01.794Z</time>
      </trkpt>
      <trkpt lat="65.05095" lon="11.90931">
        <ele>50.086468</ele>
        <time>2020-08-12T10:21:03.739Z</time>
      </trkpt>
      <trkpt lat="65.05104" lon="11.90951">
        <ele>50.319099</ele>
        <time>2020-08-12T10:21:06.775Z</time>
      </trkpt>
      <trkpt lat="65.05112" lon="11.90968">
        <ele>50.522251</ele>
        <time>2020-08-12T10:21:09.753Z</time>
      </trkpt>
      <trkpt lat="65.0512" lon="11.90983">
        <ele>50.686859</ele>
        <time>2020-08-12T10:21:12.747Z</time>
      </trkpt>
      <trkpt lat="65.05127" lon="11.90997">
        <ele>50.77356</ele>
        <time>2020-08-12T10:21:15.749Z</time>
      </trkpt>
      <trkpt lat="65.05135" lon="11.91016">
        <ele>50.880843</ele>
        <time>2020-08-12T10:21:19.747Z</time>
      </trkpt>
      <trkpt lat="65.05143" lon="11.91033">
        <ele>50.987405</ele>
        <time>2020-08-12T10:21:23.780Z</time>
      </trkpt>
      <trkpt lat="65.05152" lon="11.91049">
        <ele>51.095048</ele>
        <time>2020-08-12T10:21:27.744Z</time>
      </trkpt>
      <trkpt lat="65.05161" lon="11.91064">
        <ele>51.194073</ele>
        <time>2020-08-12T10:21:30.783Z</time>
      </trkpt>
      <trkpt lat="65.05169" lon="11.91081">
        <ele>51.29665</ele>
        <time>2020-08-12T10:21:33.772Z</time>
      </trkpt>
      <trkpt lat="65.05177" lon="11.91097">
        <ele>51.395708</ele>
        <time>2020-08-12T10:21:36.785Z</time>
      </trkpt>
      <trkpt lat="65.05185" lon="11.91114">
        <ele>51.495704</ele>
        <time>2020-08-12T10:21:39.750Z</time>
      </trkpt>
      <trkpt lat="65.05193" lon="11.91133">
        <ele>51.605529</ele>
        <time>2020-08-12T10:21:43.735Z</time>
      </trkpt>
      <trkpt lat="65.052" lon="11.91148">
        <ele>51.694091</ele>
        <time>2020-08-12T10:21:46.784Z</time>
      </trkpt>
      <trkpt lat="65.05207" lon="11.91165">
        <ele>51.791876</ele>
        <time>2020-08-12T10:21:49.780Z</time>
      </trkpt>
      <trkpt lat="65.05214" lon="11.91179">
        <ele>51.880277</ele>
        <time>2020-08-12T10:21:52.746Z</time>
      </trkpt>
      <trkpt lat="65.05221" lon="11.91193">
        <ele>51.965552</ele>
        <time>2020-08-12T10:21:55.770Z</time>
      </trkpt>
      <trkpt lat="65.05229" lon="11.91209">
        <ele>52.063424</ele>
        <time>2020-08-12T10:21:58.750Z</time>
      </trkpt>
      <trkpt lat="65.05236" lon="11.91224">
        <ele>52.157003</ele>
        <time>2020-08-12T10:22:01.753Z</time>
      </trkpt>
      <trkpt lat="65.05244" lon="11.91241">
        <ele>52.258944</ele>
        <time>2020-08-12T10:22:05.762Z</time>
      </trkpt>
      <trkpt lat="65.05251" lon="11.91255">
        <ele>52.345055</ele>
        <time>2020-08-12T10:22:09.768Z</time>
      </trkpt>
      <trkpt lat="65.05258" lon="11.91269">
        <ele>52.607695</ele>
        <time>2020-08-12T10:22:13.770Z</time>
      </trkpt>
      <trkpt lat="65.05266" lon="11.91285">
        <ele>52.970216</ele>
        <time>2020-08-12T10:22:17.748Z</time>
      </trkpt>
      <trkpt lat="65.05274" lon="11.91304">
        <ele>53.399284</ele>
        <time>2020-08-12T10:22:21.767Z</time>
      </trkpt>
      <trkpt lat="65.05281" lon="11.9132">
        <ele>53.730482</ele>
        <time>2020-08-12T10:22:24.747Z</time>
      </trkpt>
      <trkpt lat="65.05288" lon="11.91334">
        <ele>54.06552</ele>
        <time>2020-08-12T10:22:27.751Z</time>
      </trkpt>
      <trkpt lat="65.05296" lon="11.91346">
        <ele>54.398583</ele>
        <time>2020-08-12T10:22:30.764Z</time>
      </trkpt>
      <trkpt lat="65.05303" lon="11.9136">
        <ele>54.738156</ele>
        <time>2020-08-12T10:22:33.769Z</time>
      </trkpt>
      <trkpt lat="65.05312" lon="11.91378">
        <ele>55.167048</ele>
        <time>2020-08-12T10:22:37.754Z</time>
      </trkpt>
      <trkpt lat="65.05321" lon="11.91394">
        <ele>55.559254</ele>
        <time>2020-08-12T10:22:41.745Z</time>
      </trkpt>
      <trkpt lat="65.05329" lon="11.91413">
        <ele>55.976772</ele>
        <time>2020-08-12T10:22:45.753Z</time>
      </trkpt>
      <trkpt lat="65.05336" lon="11.91428">
        <ele>56.318778</ele>
        <time>2020-08-12T10:22:48.758Z</time>
      </trkpt>
      <trkpt lat="65.05346" lon="11.91446">
        <ele>56.752857</ele>
        <time>2020-08-12T10:22:52.767Z</time>
      </trkpt>
      <trkpt lat="65.05354" lon="11.91466">
        <ele>57.182915</ele>
        <time>2020-08-12T10:22:56.768Z</time>
      </trkpt>
      <trkpt lat="65.05361" lon="11.91483">
        <ele>57.539693</ele>
        <time>2020-08-12T10:22:59.770Z</time>
      </trkpt>
      <trkpt lat="65.05368" lon="11.91498">
        <ele>57.879452</ele>
        <time>2020-08-12T10:23:02.758Z</time>
      </trkpt>
      <trkpt lat="65.05375" lon="11.91513">
        <ele>58.21745</ele>
        <time>2020-08-12T10:23:05.751Z</time>
      </trkpt>
      <trkpt lat="65.05383" lon="11.91533">
        <ele>58.62691</ele>
        <time>2020-08-12T10:23:09.769Z</time>
      </trkpt>
      <trkpt lat="65.05389" lon="11.91555">
        <ele>59.120602</ele>
        <time>2020-08-12T10:23:13.742Z</time>
      </trkpt>
      <trkpt lat="65.05397" lon="11.91575">
        <ele>59.712146</ele>
        <time>2020-08-12T10:23:17.745Z</time>
      </trkpt>
      <trkpt lat="65.05402" lon="11.91594">
        <ele>60.203358</ele>
        <time>2020-08-12T10:23:20.763Z</time>
      </trkpt>
      <trkpt lat="65.05408" lon="11.91616">
        <ele>60.772887</ele>
        <time>2020-08-12T10:23:24.763Z</time>
      </trkpt>
      <trkpt lat="65.05413" lon="11.91639">
        <ele>61.350359</ele>
        <time>2020-08-12T10:23:28.761Z</time>
      </trkpt>
      <trkpt lat="65.05419" lon="11.91662">
        <ele>61.943738</ele>
        <time>2020-08-12T10:23:32.753Z</time>
      </trkpt>
      <trkpt lat="65.05424" lon="11.91686">
        <ele>62.516603</ele>
        <time>2020-08-12T10:23:36.737Z</time>
      </trkpt>
      <trkpt lat="65.05429" lon="11.91705">
        <ele>63.012118</ele>
        <time>2020-08-12T10:23:40.781Z</time>
      </trkpt>
      <trkpt lat="65.05434" lon="11.91727">
        <ele>63.568597</ele>
        <time>2020-08-12T10:23:45.786Z</time>
      </trkpt>
      <trkpt lat="65.0544" lon="11.91744">
        <ele>64.062968</ele>
        <time>2020-08-12T10:23:50.755Z</time>
      </trkpt>
      <trkpt lat="65.05446" lon="11.91762">
        <ele>64.565468</ele>
        <time>2020-08-12T10:23:55.745Z</time>
      </trkpt>
      <trkpt lat="65.05452" lon="11.9178">
        <ele>65.041138</ele>
        <time>2020-08-12T10:24:01.770Z</time>
      </trkpt>
      <trkpt lat="65.05457" lon="11.91799">
        <ele>65.552066</ele>
        <time>2020-08-12T10:24:08.785Z</time>
      </trkpt>
      <trkpt lat="65.05463" lon="11.91818">
        <ele>66.066911</ele>
        <time>2020-08-12T10:24:16.744Z</time>
      </trkpt>
      <trkpt lat="65.0547" lon="11.91834">
        <ele>66.578863</ele>
        <time>2020-08-12T10:24:23.751Z</time>
      </trkpt>
      <trkpt lat="65.05477" lon="11.91854">
        <ele>67.123331</ele>
        <time>2020-08-12T10:24:30.752Z</time>
      </trkpt>
      <trkpt lat="65.05482" lon="11.9187">
        <ele>67.59569</ele>
        <time>2020-08-12T10:24:36.748Z</time>
      </trkpt>
      <trkpt lat="65.05489" lon="11.91888">
        <ele>68.099949</ele>
        <time>2020-08-12T10:24:43.779Z</time>
      </trkpt>
      <trkpt lat="65.05497" lon="11.91901">
        <ele>68.892778</ele>
        <time>2020-08-12T10:24:49.755Z</time>
      </trkpt>
      <trkpt lat="65.05504" lon="11.91916">
        <ele>69.657359</ele>
        <time>2020-08-12T10:24:56.751Z</time>
      </trkpt>
      <trkpt lat="65.05508" lon="11.91938">
        <ele>70.508304</ele>
        <time>2020-08-12T10:25:04.757Z</time>
      </trkpt>
      <trkpt lat="65.05514" lon="11.91958">
        <ele>71.37245</ele>
        <time>2020-08-12T10:25:12.761Z</time>
      </trkpt>
      <trkpt lat="65.0552" lon="11.91973">
        <ele>72.134553</ele>
        <time>2020-08-12T10:25:19.791Z</time>
      </trkpt>
      <trkpt lat="65.05529" lon="11.91986">
        <ele>72.976576</ele>
        <time>2020-08-12T10:25:27.768Z</time>
      </trkpt>
      <trkpt lat="65.05535" lon="11.92002">
        <ele>73.734374</ele>
        <time>2020-08-12T10:25:34.742Z</time>
      </trkpt>
      <trkpt lat="65.05543" lon="11.92016">
        <ele>74.547322</ele>
        <time>2020-08-12T10:25:42.747Z</time>
      </trkpt>
      <trkpt lat="65.05551" lon="11.92028">
        <ele>75.362544</ele>
        <time>2020-08-12T10:25:50.769Z</time>
      </trkpt>
      <trkpt lat="65.05557" lon="11.92044">
        <ele>76.144677</ele>
        <time>2020-08-12T10:25:57.756Z</time>
      </trkpt>
      <trkpt lat="65.05563" lon="11.92062">
        <ele>76.945375</ele>
        <time>2020-08-12T10:26:07.772Z</time>
      </trkpt>
      <trkpt lat="65.0557" lon="11.9208">
        <ele>77.797988</ele>
        <time>2020-08-12T10:26:16.764Z</time>
      </trkpt>
      <trkpt lat="65.05579" lon="11.92089">
        <ele>78.632135</ele>
        <time>2020-08-12T10:26:25.762Z</time>
      </trkpt>
      <trkpt lat="65.05587" lon="11.92104">
        <ele>79.479739</ele>
        <time>2020-08-12T10:26:33.755Z</time>
      </trkpt>
      <trkpt lat="65.05595" lon="11.92117">
        <ele>80.251586</ele>
        <time>2020-08-12T10:26:40.796Z</time>
      </trkpt>
      <trkpt lat="65.05601" lon="11.92133">
        <ele>81.033713</ele>
        <time>2020-08-12T10:26:47.747Z</time>
      </trkpt>
      <trkpt lat="65.05608" lon="11.92147">
        <ele>81.792575</ele>
        <time>2020-08-12T10:26:54.786Z</time>
      </trkpt>
      <trkpt lat="65.05615" lon="11.9216">
        <ele>82.543809</ele>
        <time>2020-08-12T10:27:02.739Z</time>
      </trkpt>
      <trkpt lat="65.05621" lon="11.92176">
        <ele>83.242282</ele>
        <time>2020-08-12T10:27:09.737Z</time>
      </trkpt>
      <trkpt lat="65.05628" lon="11.92192">
        <ele>83.220977</ele>
        <time>2020-08-12T10:27:16.739Z</time>
      </trkpt>
      <trkpt lat="65.05635" lon="11.92209">
        <ele>83.19991</ele>
        <time>2020-08-12T10:27:24.749Z</time>
      </trkpt>
      <trkpt lat="65.05641" lon="11.92228">
        <ele>83.17919</ele>
        <time>2020-08-12T10:27:32.770Z</time>
      </trkpt>
      <trkpt lat="65.05646" lon="11.92247">
        <ele>83.157583</ele>
        <time>2020-08-12T10:27:40.773Z</time>
      </trkpt>
      <trkpt lat="65.05651" lon="11.9227">
        <ele>83.135088</ele>
        <time>2020-08-12T10:27:47.758Z</time>
      </trkpt>
      <trkpt lat="65.05656" lon="11.92292">
        <ele>83.111803</ele>
        <time>2020-08-12T10:27:53.754Z</time>
      </trkpt>
      <trkpt lat="65.05659" lon="11.92313">
        <ele>83.091733</ele>
        <time>2020-08-12T10:27:57.751Z</time>
      </trkpt>
      <trkpt lat="65.05665" lon="11.92335">
        <ele>83.068503</ele>
        <time>2020-08-12T10:28:02.756Z</time>
      </trkpt>
      <trkpt lat="65.05668" lon="11.92357">
        <ele>83.047624</ele>
        <time>2020-08-12T10:28:06.761Z</time>
      </trkpt>
      <trkpt lat="65.05665" lon="11.92396">
        <ele>83.011863</ele>
        <time>2020-08-12T10:37:56.769Z</time>
      </trkpt>
      <trkpt lat="65.0566" lon="11.92427">
        <ele>82.981487</ele>
        <time>2020-08-12T10:37:59.749Z</time>
      </trkpt>
      <trkpt lat="65.05657" lon="11.92454">
        <ele>82.956254</ele>
        <time>2020-08-12T10:38:01.784Z</time>
      </trkpt>
      <trkpt lat="65.05654" lon="11.92484">
        <ele>82.928233</ele>
        <time>2020-08-12T10:38:03.769Z</time>
      </trkpt>
      <trkpt lat="65.05651" lon="11.92517">
        <ele>82.897244</ele>
        <time>2020-08-12T10:38:05.774Z</time>
      </trkpt>
      <trkpt lat="65.05646" lon="11.92554">
        <ele>82.862908</ele>
        <time>2020-08-12T10:38:07.748Z</time>
      </trkpt>
      <trkpt lat="65.05643" lon="11.92594">
        <ele>82.263787</ele>
        <time>2020-08-12T10:38:09.752Z</time>
      </trkpt>
      <trkpt lat="65.05641" lon="11.92615">
        <ele>81.890005</ele>
        <time>2020-08-12T10:38:10.759Z</time>
      </trkpt>
      <trkpt lat="65.0564" lon="11.92636">
        <ele>81.511095</ele>
        <time>2020-08-12T10:38:11.746Z</time>
      </trkpt>
      <trkpt lat="65.05638" lon="11.92658">
        <ele>81.125679</ele>
        <time>2020-08-12T10:38:12.770Z</time>
      </trkpt>
      <trkpt lat="65.05637" lon="11.92681">
        <ele>80.728796</ele>
        <time>2020-08-12T10:38:13.757Z</time>
      </trkpt>
      <trkpt lat="65.05636" lon="11.92704">
        <ele>80.318563</ele>
        <time>2020-08-12T10:38:14.763Z</time>
      </trkpt>
      <trkpt lat="65.05636" lon="11.92728">
        <ele>79.89849</ele>
        <time>2020-08-12T10:38:15.751Z</time>
      </trkpt>
      <trkpt lat="65.05635" lon="11.92752">
        <ele>79.478417</ele>
        <time>2020-08-12T10:38:16.755Z</time>
      </trkpt>
      <trkpt lat="65.05635" lon="11.92777">
        <ele>79.052094</ele>
        <time>2020-08-12T10:38:17.757Z</time>
      </trkpt>
      <trkpt lat="65.05635" lon="11.92802">
        <ele>78.618654</ele>
        <time>2020-08-12T10:38:18.746Z</time>
      </trkpt>
      <trkpt lat="65.05636" lon="11.92826">
        <ele>78.19311</ele>
        <time>2020-08-12T10:38:19.790Z</time>
      </trkpt>
      <trkpt lat="65.05637" lon="11.9285">
        <ele>77.781453</ele>
        <time>2020-08-12T10:38:20.764Z</time>
      </trkpt>
      <trkpt lat="65.05637" lon="11.92872">
        <ele>77.392883</ele>
        <time>2020-08-12T10:38:21.744Z</time>
      </trkpt>
      <trkpt lat="65.05638" lon="11.92914">
        <ele>76.658377</ele>
        <time>2020-08-12T10:38:23.812Z</time>
      </trkpt>
      <trkpt lat="65.05639" lon="11.92936">
        <ele>76.269807</ele>
        <time>2020-08-12T10:38:24.789Z</time>
      </trkpt>
      <trkpt lat="65.05639" lon="11.92959">
        <ele>75.867336</ele>
        <time>2020-08-12T10:38:25.790Z</time>
      </trkpt>
      <trkpt lat="65.0564" lon="11.92984">
        <ele>75.444237</ele>
        <time>2020-08-12T10:38:26.776Z</time>
      </trkpt>
      <trkpt lat="65.05641" lon="11.93008">
        <ele>74.72017</ele>
        <time>2020-08-12T10:38:27.764Z</time>
      </trkpt>
      <trkpt lat="65.05642" lon="11.93034">
        <ele>73.957869</ele>
        <time>2020-08-12T10:38:28.758Z</time>
      </trkpt>
      <trkpt lat="65.05643" lon="11.93061">
        <ele>73.152182</ele>
        <time>2020-08-12T10:38:29.768Z</time>
      </trkpt>
      <trkpt lat="65.05644" lon="11.93089">
        <ele>72.321964</ele>
        <time>2020-08-12T10:38:30.758Z</time>
      </trkpt>
      <trkpt lat="65.05647" lon="11.93117">
        <ele>71.501103</ele>
        <time>2020-08-12T10:38:31.749Z</time>
      </trkpt>
      <trkpt lat="65.0565" lon="11.93144">
        <ele>70.673172</ele>
        <time>2020-08-12T10:38:32.768Z</time>
      </trkpt>
      <trkpt lat="65.05654" lon="11.9317">
        <ele>69.851589</ele>
        <time>2020-08-12T10:38:33.753Z</time>
      </trkpt>
      <trkpt lat="65.05659" lon="11.93194">
        <ele>69.0455</ele>
        <time>2020-08-12T10:38:34.761Z</time>
      </trkpt>
      <trkpt lat="65.05664" lon="11.93217">
        <ele>68.269324</ele>
        <time>2020-08-12T10:38:35.774Z</time>
      </trkpt>
      <trkpt lat="65.0567" lon="11.93241">
        <ele>67.486156</ele>
        <time>2020-08-12T10:38:36.770Z</time>
      </trkpt>
      <trkpt lat="65.05676" lon="11.93264">
        <ele>66.693469</ele>
        <time>2020-08-12T10:38:37.780Z</time>
      </trkpt>
      <trkpt lat="65.05681" lon="11.93287">
        <ele>65.905287</ele>
        <time>2020-08-12T10:38:38.745Z</time>
      </trkpt>
      <trkpt lat="65.05687" lon="11.93311">
        <ele>65.092245</ele>
        <time>2020-08-12T10:38:39.776Z</time>
      </trkpt>
      <trkpt lat="65.05693" lon="11.93335">
        <ele>64.267068</ele>
        <time>2020-08-12T10:38:40.772Z</time>
      </trkpt>
      <trkpt lat="65.05699" lon="11.93359">
        <ele>63.442873</ele>
        <time>2020-08-12T10:38:41.762Z</time>
      </trkpt>
      <trkpt lat="65.05705" lon="11.93383">
        <ele>62.60071</ele>
        <time>2020-08-12T10:38:42.788Z</time>
      </trkpt>
      <trkpt lat="65.05711" lon="11.93407">
        <ele>61.701945</ele>
        <time>2020-08-12T10:38:43.794Z</time>
      </trkpt>
      <trkpt lat="65.05717" lon="11.93432">
        <ele>60.802057</ele>
        <time>2020-08-12T10:38:44.758Z</time>
      </trkpt>
      <trkpt lat="65.05723" lon="11.93455">
        <ele>59.925279</ele>
        <time>2020-08-12T10:38:45.777Z</time>
      </trkpt>
      <trkpt lat="65.05729" lon="11.93477">
        <ele>59.072805</ele>
        <time>2020-08-12T10:38:46.769Z</time>
      </trkpt>
      <trkpt lat="65.05736" lon="11.93499">
        <ele>58.207815</ele>
        <time>2020-08-12T10:38:47.759Z</time>
      </trkpt>
      <trkpt lat="65.05743" lon="11.93519">
        <ele>57.375703</ele>
        <time>2020-08-12T10:38:48.767Z</time>
      </trkpt>
      <trkpt lat="65.0575" lon="11.93537">
        <ele>56.570117</ele>
        <time>2020-08-12T10:38:49.757Z</time>
      </trkpt>
      <trkpt lat="65.05757" lon="11.93555">
        <ele>55.785082</ele>
        <time>2020-08-12T10:38:50.785Z</time>
      </trkpt>
      <trkpt lat="65.05765" lon="11.93572">
        <ele>54.995042</ele>
        <time>2020-08-12T10:38:51.768Z</time>
      </trkpt>
      <trkpt lat="65.05773" lon="11.93587">
        <ele>54.226718</ele>
        <time>2020-08-12T10:38:52.768Z</time>
      </trkpt>
      <trkpt lat="65.05781" lon="11.93601">
        <ele>53.464219</ele>
        <time>2020-08-12T10:38:53.759Z</time>
      </trkpt>
      <trkpt lat="65.05789" lon="11.93615">
        <ele>52.711788</ele>
        <time>2020-08-12T10:38:54.749Z</time>
      </trkpt>
      <trkpt lat="65.05796" lon="11.9363">
        <ele>52.002878</ele>
        <time>2020-08-12T10:38:55.773Z</time>
      </trkpt>
      <trkpt lat="65.05803" lon="11.93643">
        <ele>51.302036</ele>
        <time>2020-08-12T10:38:56.778Z</time>
      </trkpt>
      <trkpt lat="65.05817" lon="11.93668">
        <ele>50.015508</ele>
        <time>2020-08-12T10:38:58.767Z</time>
      </trkpt>
      <trkpt lat="65.05828" lon="11.93688">
        <ele>48.988081</ele>
        <time>2020-08-12T10:39:00.773Z</time>
      </trkpt>
      <trkpt lat="65.05838" lon="11.93708">
        <ele>48.303906</ele>
        <time>2020-08-12T10:39:02.758Z</time>
      </trkpt>
      <trkpt lat="65.05847" lon="11.93727">
        <ele>47.668246</ele>
        <time>2020-08-12T10:39:04.764Z</time>
      </trkpt>
      <trkpt lat="65.05855" lon="11.93747">
        <ele>47.062784</ele>
        <time>2020-08-12T10:39:06.753Z</time>
      </trkpt>
      <trkpt lat="65.05861" lon="11.9377">
        <ele>46.46024</ele>
        <time>2020-08-12T10:39:08.751Z</time>
      </trkpt>
      <trkpt lat="65.05866" lon="11.93794">
        <ele>45.860919</ele>
        <time>2020-08-12T10:39:10.767Z</time>
      </trkpt>
      <trkpt lat="65.0587" lon="11.93818">
        <ele>45.294882</ele>
        <time>2020-08-12T10:39:12.775Z</time>
      </trkpt>
      <trkpt lat="65.05872" lon="11.9384">
        <ele>44.761012</ele>
        <time>2020-08-12T10:39:14.780Z</time>
      </trkpt>
      <trkpt lat="65.05874" lon="11.93864">
        <ele>44.217994</ele>
        <time>2020-08-12T10:39:16.760Z</time>
      </trkpt>
      <trkpt lat="65.05876" lon="11.93888">
        <ele>43.672624</ele>
        <time>2020-08-12T10:39:18.759Z</time>
      </trkpt>
      <trkpt lat="65.05877" lon="11.93911">
        <ele>43.150861</ele>
        <time>2020-08-12T10:39:20.757Z</time>
      </trkpt>
      <trkpt lat="65.05878" lon="11.93934">
        <ele>42.640221</ele>
        <time>2020-08-12T10:39:22.749Z</time>
      </trkpt>
      <trkpt lat="65.0588" lon="11.93958">
        <ele>42.100373</ele>
        <time>2020-08-12T10:39:24.757Z</time>
      </trkpt>
      <trkpt lat="65.05881" lon="11.93983">
        <ele>41.535686</ele>
        <time>2020-08-12T10:39:26.750Z</time>
      </trkpt>
      <trkpt lat="65.05882" lon="11.9401">
        <ele>40.923129</ele>
        <time>2020-08-12T10:39:28.754Z</time>
      </trkpt>
      <trkpt lat="65.05884" lon="11.94039">
        <ele>40.260436</ele>
        <time>2020-08-12T10:39:30.746Z</time>
      </trkpt>
      <trkpt lat="65.05885" lon="11.9407">
        <ele>39.729467</ele>
        <time>2020-08-12T10:39:32.799Z</time>
      </trkpt>
      <trkpt lat="65.05887" lon="11.94099">
        <ele>40.60029</ele>
        <time>2020-08-12T10:39:34.747Z</time>
      </trkpt>
      <trkpt lat="65.05888" lon="11.94128">
        <ele>41.451845</ele>
        <time>2020-08-12T10:39:36.788Z</time>
      </trkpt>
      <trkpt lat="65.0589" lon="11.94156">
        <ele>42.273809</ele>
        <time>2020-08-12T10:39:38.746Z</time>
      </trkpt>
      <trkpt lat="65.05892" lon="11.94181">
        <ele>43.005359</ele>
        <time>2020-08-12T10:39:40.757Z</time>
      </trkpt>
      <trkpt lat="65.05893" lon="11.94203">
        <ele>43.665008</ele>
        <time>2020-08-12T10:39:42.779Z</time>
      </trkpt>
      <trkpt lat="65.05896" lon="11.94229">
        <ele>44.433153</ele>
        <time>2020-08-12T10:39:45.814Z</time>
      </trkpt>
      <trkpt lat="65.05899" lon="11.9425">
        <ele>45.057537</ele>
        <time>2020-08-12T10:39:48.798Z</time>
      </trkpt>
      <trkpt lat="65.05901" lon="11.94273">
        <ele>45.741973</ele>
        <time>2020-08-12T10:39:52.742Z</time>
      </trkpt>
      <trkpt lat="65.05902" lon="11.94294">
        <ele>46.379809</ele>
        <time>2020-08-12T10:39:56.791Z</time>
      </trkpt>
      <trkpt lat="65.05904" lon="11.94316">
        <ele>47.026904</ele>
        <time>2020-08-12T10:40:00.751Z</time>
      </trkpt>
      <trkpt lat="65.05906" lon="11.94339">
        <ele>47.694597</ele>
        <time>2020-08-12T10:40:04.745Z</time>
      </trkpt>
      <trkpt lat="65.05908" lon="11.9436">
        <ele>48.326404</ele>
        <time>2020-08-12T10:40:08.790Z</time>
      </trkpt>
      <trkpt lat="65.0591" lon="11.9438">
        <ele>48.946181</ele>
        <time>2020-08-12T10:40:12.766Z</time>
      </trkpt>
      <trkpt lat="65.05912" lon="11.94403">
        <ele>49.617933</ele>
        <time>2020-08-12T10:40:16.757Z</time>
      </trkpt>
      <trkpt lat="65.05913" lon="11.94427">
        <ele>50.323726</ele>
        <time>2020-08-12T10:40:20.752Z</time>
      </trkpt>
      <trkpt lat="65.05914" lon="11.94454">
        <ele>51.122535</ele>
        <time>2020-08-12T10:40:24.757Z</time>
      </trkpt>
      <trkpt lat="65.05914" lon="11.94476">
        <ele>51.759474</ele>
        <time>2020-08-12T10:40:27.749Z</time>
      </trkpt>
      <trkpt lat="65.05914" lon="11.94503">
        <ele>51.897024</ele>
        <time>2020-08-12T10:40:30.795Z</time>
      </trkpt>
      <trkpt lat="65.05913" lon="11.94524">
        <ele>51.698715</ele>
        <time>2020-08-12T10:40:32.763Z</time>
      </trkpt>
      <trkpt lat="65.05911" lon="11.9455">
        <ele>51.461413</ele>
        <time>2020-08-12T10:40:34.780Z</time>
      </trkpt>
      <trkpt lat="65.05908" lon="11.94577">
        <ele>51.199867</ele>
        <time>2020-08-12T10:40:36.760Z</time>
      </trkpt>
      <trkpt lat="65.05903" lon="11.94608">
        <ele>50.899601</ele>
        <time>2020-08-12T10:40:38.771Z</time>
      </trkpt>
      <trkpt lat="65.05897" lon="11.94643">
        <ele>50.55743</ele>
        <time>2020-08-12T10:40:40.750Z</time>
      </trkpt>
      <trkpt lat="65.05891" lon="11.94679">
        <ele>50.199974</ele>
        <time>2020-08-12T10:40:42.769Z</time>
      </trkpt>
      <trkpt lat="65.05887" lon="11.94715">
        <ele>49.859928</ele>
        <time>2020-08-12T10:40:44.770Z</time>
      </trkpt>
      <trkpt lat="65.05883" lon="11.94748">
        <ele>49.545013</ele>
        <time>2020-08-12T10:40:46.798Z</time>
      </trkpt>
      <trkpt lat="65.05881" lon="11.94782">
        <ele>49.232025</ele>
        <time>2020-08-12T10:40:48.789Z</time>
      </trkpt>
      <trkpt lat="65.0588" lon="11.94816">
        <ele>48.921562</ele>
        <time>2020-08-12T10:40:50.811Z</time>
      </trkpt>
      <trkpt lat="65.05879" lon="11.94848">
        <ele>48.623398</ele>
        <time>2020-08-12T10:40:52.765Z</time>
      </trkpt>
      <trkpt lat="65.0588" lon="11.9488">
        <ele>48.334469</ele>
        <time>2020-08-12T10:40:54.771Z</time>
      </trkpt>
      <trkpt lat="65.05881" lon="11.94909">
        <ele>48.058515</ele>
        <time>2020-08-12T10:40:56.758Z</time>
      </trkpt>
      <trkpt lat="65.05884" lon="11.94938">
        <ele>47.773143</ele>
        <time>2020-08-12T10:40:58.767Z</time>
      </trkpt>
      <trkpt lat="65.05888" lon="11.94966">
        <ele>47.49775</ele>
        <time>2020-08-12T10:41:00.750Z</time>
      </trkpt>
      <trkpt lat="65.05892" lon="11.94993">
        <ele>47.230458</ele>
        <time>2020-08-12T10:41:02.784Z</time>
      </trkpt>
      <trkpt lat="65.05897" lon="11.95017">
        <ele>46.976005</ele>
        <time>2020-08-12T10:41:04.774Z</time>
      </trkpt>
      <trkpt lat="65.05903" lon="11.95039">
        <ele>46.736346</ele>
        <time>2020-08-12T10:41:06.758Z</time>
      </trkpt>
      <trkpt lat="65.05908" lon="11.9506">
        <ele>46.502006</ele>
        <time>2020-08-12T10:41:08.748Z</time>
      </trkpt>
      <trkpt lat="65.05915" lon="11.95079">
        <ele>46.27144</ele>
        <time>2020-08-12T10:41:10.749Z</time>
      </trkpt>
      <trkpt lat="65.0592" lon="11.95098">
        <ele>46.053466</ele>
        <time>2020-08-12T10:41:12.816Z</time>
      </trkpt>
      <trkpt lat="65.05928" lon="11.95116">
        <ele>45.815053</ele>
        <time>2020-08-12T10:41:14.751Z</time>
      </trkpt>
      <trkpt lat="65.05936" lon="11.95134">
        <ele>45.566875</ele>
        <time>2020-08-12T10:41:16.774Z</time>
      </trkpt>
      <trkpt lat="65.05944" lon="11.95152">
        <ele>45.312212</ele>
        <time>2020-08-12T10:41:18.774Z</time>
      </trkpt>
      <trkpt lat="65.05954" lon="11.9517">
        <ele>45.029742</ele>
        <time>2020-08-12T10:41:20.744Z</time>
      </trkpt>
      <trkpt lat="65.05965" lon="11.95187">
        <ele>44.73564</ele>
        <time>2020-08-12T10:41:22.783Z</time>
      </trkpt>
      <trkpt lat="65.05976" lon="11.95205">
        <ele>44.437842</ele>
        <time>2020-08-12T10:41:24.788Z</time>
      </trkpt>
      <trkpt lat="65.05987" lon="11.95222">
        <ele>44.143189</ele>
        <time>2020-08-12T10:41:26.743Z</time>
      </trkpt>
      <trkpt lat="65.05998" lon="11.95238">
        <ele>43.862557</ele>
        <time>2020-08-12T10:41:28.752Z</time>
      </trkpt>
      <trkpt lat="65.06009" lon="11.95253">
        <ele>43.600448</ele>
        <time>2020-08-12T10:41:30.766Z</time>
      </trkpt>
      <trkpt lat="65.06018" lon="11.95268">
        <ele>43.359479</ele>
        <time>2020-08-12T10:41:32.745Z</time>
      </trkpt>
      <trkpt lat="65.06028" lon="11.95281">
        <ele>43.114023</ele>
        <time>2020-08-12T10:41:34.770Z</time>
      </trkpt>
      <trkpt lat="65.06038" lon="11.95293">
        <ele>42.871579</ele>
        <time>2020-08-12T10:41:36.772Z</time>
      </trkpt>
      <trkpt lat="65.06048" lon="11.95305">
        <ele>42.629135</ele>
        <time>2020-08-12T10:41:38.759Z</time>
      </trkpt>
      <trkpt lat="65.06059" lon="11.95317">
        <ele>42.372702</ele>
        <time>2020-08-12T10:41:40.753Z</time>
      </trkpt>
      <trkpt lat="65.06069" lon="11.95327">
        <ele>42.126255</ele>
        <time>2020-08-12T10:41:42.799Z</time>
      </trkpt>
      <trkpt lat="65.0608" lon="11.95337">
        <ele>41.887616</ele>
        <time>2020-08-12T10:41:44.742Z</time>
      </trkpt>
      <trkpt lat="65.0609" lon="11.95346">
        <ele>41.646959</ele>
        <time>2020-08-12T10:41:46.812Z</time>
      </trkpt>
      <trkpt lat="65.06101" lon="11.95353">
        <ele>41.407973</ele>
        <time>2020-08-12T10:41:48.756Z</time>
      </trkpt>
      <trkpt lat="65.06111" lon="11.95361">
        <ele>41.17077</ele>
        <time>2020-08-12T10:41:50.744Z</time>
      </trkpt>
      <trkpt lat="65.06121" lon="11.95368">
        <ele>40.945995</ele>
        <time>2020-08-12T10:41:52.758Z</time>
      </trkpt>
      <trkpt lat="65.06131" lon="11.95375">
        <ele>40.72819</ele>
        <time>2020-08-12T10:41:54.742Z</time>
      </trkpt>
      <trkpt lat="65.0614" lon="11.95381">
        <ele>40.524561</ele>
        <time>2020-08-12T10:41:56.774Z</time>
      </trkpt>
      <trkpt lat="65.0615" lon="11.95387">
        <ele>40.317948</ele>
        <time>2020-08-12T10:41:58.742Z</time>
      </trkpt>
      <trkpt lat="65.06159" lon="11.95393">
        <ele>40.225192</ele>
        <time>2020-08-12T10:42:00.750Z</time>
      </trkpt>
      <trkpt lat="65.06172" lon="11.95401">
        <ele>40.200274</ele>
        <time>2020-08-12T10:42:03.774Z</time>
      </trkpt>
      <trkpt lat="65.06181" lon="11.95405">
        <ele>40.183554</ele>
        <time>2020-08-12T10:42:05.753Z</time>
      </trkpt>
      <trkpt lat="65.06194" lon="11.95413">
        <ele>40.158961</ele>
        <time>2020-08-12T10:42:08.757Z</time>
      </trkpt>
      <trkpt lat="65.06206" lon="11.95419">
        <ele>40.135265</ele>
        <time>2020-08-12T10:42:11.762Z</time>
      </trkpt>
      <trkpt lat="65.06218" lon="11.95426">
        <ele>40.111751</ele>
        <time>2020-08-12T10:42:14.801Z</time>
      </trkpt>
      <trkpt lat="65.06231" lon="11.95432">
        <ele>40.088664</ele>
        <time>2020-08-12T10:42:17.752Z</time>
      </trkpt>
      <trkpt lat="65.06243" lon="11.95436">
        <ele>40.065145</ele>
        <time>2020-08-12T10:42:20.754Z</time>
      </trkpt>
      <trkpt lat="65.06256" lon="11.9544">
        <ele>40.041746</ele>
        <time>2020-08-12T10:42:23.757Z</time>
      </trkpt>
      <trkpt lat="65.06268" lon="11.95443">
        <ele>40.019754</ele>
        <time>2020-08-12T10:42:26.755Z</time>
      </trkpt>
      <trkpt lat="65.0628" lon="11.95446">
        <ele>39.996526</ele>
        <time>2020-08-12T10:42:29.786Z</time>
      </trkpt>
      <trkpt lat="65.06293" lon="11.95447">
        <ele>39.97206</ele>
        <time>2020-08-12T10:42:32.770Z</time>
      </trkpt>
      <trkpt lat="65.06306" lon="11.95448">
        <ele>39.949095</ele>
        <time>2020-08-12T10:42:35.737Z</time>
      </trkpt>
      <trkpt lat="65.06318" lon="11.95446">
        <ele>39.927015</ele>
        <time>2020-08-12T10:42:38.748Z</time>
      </trkpt>
      <trkpt lat="65.06329" lon="11.95445">
        <ele>39.906428</ele>
        <time>2020-08-12T10:42:41.752Z</time>
      </trkpt>
      <trkpt lat="65.06339" lon="11.95444">
        <ele>40.037195</ele>
        <time>2020-08-12T10:42:44.743Z</time>
      </trkpt>
      <trkpt lat="65.06349" lon="11.95443">
        <ele>40.19731</ele>
        <time>2020-08-12T10:42:47.762Z</time>
      </trkpt>
      <trkpt lat="65.06361" lon="11.9544">
        <ele>40.38066</ele>
        <time>2020-08-12T10:42:51.742Z</time>
      </trkpt>
      <trkpt lat="65.0637" lon="11.95437">
        <ele>40.527337</ele>
        <time>2020-08-12T10:42:54.738Z</time>
      </trkpt>
      <trkpt lat="65.06379" lon="11.95435">
        <ele>40.672755</ele>
        <time>2020-08-12T10:42:57.754Z</time>
      </trkpt>
      <trkpt lat="65.06388" lon="11.9543">
        <ele>40.815642</ele>
        <time>2020-08-12T10:43:00.771Z</time>
      </trkpt>
      <trkpt lat="65.06397" lon="11.95426">
        <ele>40.95853</ele>
        <time>2020-08-12T10:43:03.749Z</time>
      </trkpt>
      <trkpt lat="65.06407" lon="11.95421">
        <ele>41.111784</ele>
        <time>2020-08-12T10:43:06.765Z</time>
      </trkpt>
      <trkpt lat="65.06417" lon="11.95417">
        <ele>41.268495</ele>
        <time>2020-08-12T10:43:09.787Z</time>
      </trkpt>
      <trkpt lat="65.06428" lon="11.95408">
        <ele>41.45296</ele>
        <time>2020-08-12T10:43:12.772Z</time>
      </trkpt>
      <trkpt lat="65.06437" lon="11.95402">
        <ele>41.597571</ele>
        <time>2020-08-12T10:43:14.750Z</time>
      </trkpt>
      <trkpt lat="65.0645" lon="11.95395">
        <ele>41.809442</ele>
        <time>2020-08-12T10:43:17.763Z</time>
      </trkpt>
      <trkpt lat="65.06459" lon="11.95388">
        <ele>41.951943</ele>
        <time>2020-08-12T10:43:19.772Z</time>
      </trkpt>
      <trkpt lat="65.06471" lon="11.9538">
        <ele>42.153285</ele>
        <time>2020-08-12T10:43:22.737Z</time>
      </trkpt>
      <trkpt lat="65.06483" lon="11.9537">
        <ele>42.34876</ele>
        <time>2020-08-12T10:43:25.775Z</time>
      </trkpt>
      <trkpt lat="65.06494" lon="11.95361">
        <ele>42.537025</ele>
        <time>2020-08-12T10:43:28.746Z</time>
      </trkpt>
      <trkpt lat="65.06506" lon="11.95352">
        <ele>42.736355</ele>
        <time>2020-08-12T10:43:31.750Z</time>
      </trkpt>
      <trkpt lat="65.06517" lon="11.95342">
        <ele>43.090893</ele>
        <time>2020-08-12T10:43:34.747Z</time>
      </trkpt>
      <trkpt lat="65.06528" lon="11.95333">
        <ele>43.439949</ele>
        <time>2020-08-12T10:43:37.772Z</time>
      </trkpt>
      <trkpt lat="65.06539" lon="11.95323">
        <ele>43.796664</ele>
        <time>2020-08-12T10:43:40.756Z</time>
      </trkpt>
      <trkpt lat="65.0655" lon="11.95313">
        <ele>44.160542</ele>
        <time>2020-08-12T10:43:43.770Z</time>
      </trkpt>
      <trkpt lat="65.06561" lon="11.95305">
        <ele>44.500149</ele>
        <time>2020-08-12T10:43:46.782Z</time>
      </trkpt>
      <trkpt lat="65.0657" lon="11.95298">
        <ele>44.781556</ele>
        <time>2020-08-12T10:43:49.752Z</time>
      </trkpt>
      <trkpt lat="65.06581" lon="11.95289">
        <ele>45.126876</ele>
        <time>2020-08-12T10:43:53.779Z</time>
      </trkpt>
      <trkpt lat="65.0659" lon="11.9528">
        <ele>45.437157</ele>
        <time>2020-08-12T10:43:57.748Z</time>
      </trkpt>
      <trkpt lat="65.066" lon="11.95273">
        <ele>45.752422</ele>
        <time>2020-08-12T10:44:01.777Z</time>
      </trkpt>
      <trkpt lat="65.0661" lon="11.95263">
        <ele>46.084563</ele>
        <time>2020-08-12T10:44:05.757Z</time>
      </trkpt>
      <trkpt lat="65.0662" lon="11.95254">
        <ele>46.400885</ele>
        <time>2020-08-12T10:44:09.747Z</time>
      </trkpt>
      <trkpt lat="65.06629" lon="11.95245">
        <ele>46.695228</ele>
        <time>2020-08-12T10:44:13.766Z</time>
      </trkpt>
      <trkpt lat="65.06638" lon="11.95237">
        <ele>46.986305</ele>
        <time>2020-08-12T10:44:17.780Z</time>
      </trkpt>
      <trkpt lat="65.06647" lon="11.95228">
        <ele>47.279274</ele>
        <time>2020-08-12T10:44:21.787Z</time>
      </trkpt>
      <trkpt lat="65.06657" lon="11.95221">
        <ele>47.588415</ele>
        <time>2020-08-12T10:44:25.756Z</time>
      </trkpt>
      <trkpt lat="65.06667" lon="11.95215">
        <ele>47.903708</ele>
        <time>2020-08-12T10:44:29.744Z</time>
      </trkpt>
      <trkpt lat="65.06677" lon="11.95207">
        <ele>48.222954</ele>
        <time>2020-08-12T10:44:33.757Z</time>
      </trkpt>
      <trkpt lat="65.06686" lon="11.95201">
        <ele>48.61276</ele>
        <time>2020-08-12T10:44:37.758Z</time>
      </trkpt>
      <trkpt lat="65.06696" lon="11.95193">
        <ele>49.007488</ele>
        <time>2020-08-12T10:44:41.745Z</time>
      </trkpt>
      <trkpt lat="65.06705" lon="11.95185">
        <ele>49.400175</ele>
        <time>2020-08-12T10:44:45.753Z</time>
      </trkpt>
      <trkpt lat="65.06714" lon="11.95178">
        <ele>49.758821</ele>
        <time>2020-08-12T10:44:49.772Z</time>
      </trkpt>
      <trkpt lat="65.06724" lon="11.95168">
        <ele>50.186046</ele>
        <time>2020-08-12T10:44:54.774Z</time>
      </trkpt>
      <trkpt lat="65.06733" lon="11.9516">
        <ele>50.585571</ele>
        <time>2020-08-12T10:44:58.748Z</time>
      </trkpt>
      <trkpt lat="65.06743" lon="11.95152">
        <ele>50.996765</ele>
        <time>2020-08-12T10:45:02.783Z</time>
      </trkpt>
      <trkpt lat="65.06753" lon="11.95146">
        <ele>51.400979</ele>
        <time>2020-08-12T10:45:06.802Z</time>
      </trkpt>
      <trkpt lat="65.06763" lon="11.95138">
        <ele>51.797358</ele>
        <time>2020-08-12T10:45:10.762Z</time>
      </trkpt>
      <trkpt lat="65.06772" lon="11.95131">
        <ele>52.171976</ele>
        <time>2020-08-12T10:45:14.737Z</time>
      </trkpt>
      <trkpt lat="65.06781" lon="11.95123">
        <ele>52.551125</ele>
        <time>2020-08-12T10:45:18.755Z</time>
      </trkpt>
      <trkpt lat="65.06791" lon="11.95116">
        <ele>52.960983</ele>
        <time>2020-08-12T10:45:23.781Z</time>
      </trkpt>
      <trkpt lat="65.068" lon="11.95108">
        <ele>53.325536</ele>
        <time>2020-08-12T10:45:27.765Z</time>
      </trkpt>
      <trkpt lat="65.06809" lon="11.951">
        <ele>53.709711</ele>
        <time>2020-08-12T10:45:31.750Z</time>
      </trkpt>
      <trkpt lat="65.06818" lon="11.95092">
        <ele>54.103898</ele>
        <time>2020-08-12T10:45:35.772Z</time>
      </trkpt>
      <trkpt lat="65.06829" lon="11.95084">
        <ele>54.541676</ele>
        <time>2020-08-12T10:45:39.747Z</time>
      </trkpt>
      <trkpt lat="65.0684" lon="11.95075">
        <ele>55.003399</ele>
        <time>2020-08-12T10:45:43.764Z</time>
      </trkpt>
      <trkpt lat="65.06849" lon="11.95069">
        <ele>55.043145</ele>
        <time>2020-08-12T10:45:46.766Z</time>
      </trkpt>
      <trkpt lat="65.06859" lon="11.95062">
        <ele>54.606811</ele>
        <time>2020-08-12T10:45:49.749Z</time>
      </trkpt>
      <trkpt lat="65.06872" lon="11.95056">
        <ele>54.085482</ele>
        <time>2020-08-12T10:45:52.766Z</time>
      </trkpt>
      <trkpt lat="65.06881" lon="11.95052">
        <ele>53.708923</ele>
        <time>2020-08-12T10:45:54.752Z</time>
      </trkpt>
      <trkpt lat="65.06892" lon="11.95048">
        <ele>53.281731</ele>
        <time>2020-08-12T10:45:56.828Z</time>
      </trkpt>
      <trkpt lat="65.06904" lon="11.95044">
        <ele>52.802939</ele>
        <time>2020-08-12T10:45:58.753Z</time>
      </trkpt>
      <trkpt lat="65.06916" lon="11.95039">
        <ele>52.303195</ele>
        <time>2020-08-12T10:46:00.747Z</time>
      </trkpt>
      <trkpt lat="65.06929" lon="11.95037">
        <ele>51.77674</ele>
        <time>2020-08-12T10:46:02.771Z</time>
      </trkpt>
      <trkpt lat="65.06944" lon="11.95033">
        <ele>51.185462</ele>
        <time>2020-08-12T10:46:04.752Z</time>
      </trkpt>
      <trkpt lat="65.06961" lon="11.95029">
        <ele>50.53274</ele>
        <time>2020-08-12T10:46:06.766Z</time>
      </trkpt>
      <trkpt lat="65.06977" lon="11.95026">
        <ele>49.88304</ele>
        <time>2020-08-12T10:46:08.768Z</time>
      </trkpt>
      <trkpt lat="65.06992" lon="11.95026">
        <ele>49.286211</ele>
        <time>2020-08-12T10:46:10.760Z</time>
      </trkpt>
      <trkpt lat="65.07008" lon="11.95023">
        <ele>48.660738</ele>
        <time>2020-08-12T10:46:12.752Z</time>
      </trkpt>
      <trkpt lat="65.07022" lon="11.95021">
        <ele>48.079043</ele>
        <time>2020-08-12T10:46:14.750Z</time>
      </trkpt>
      <trkpt lat="65.07034" lon="11.95022">
        <ele>47.719245</ele>
        <time>2020-08-12T10:46:16.745Z</time>
      </trkpt>
      <trkpt lat="65.07048" lon="11.95026">
        <ele>47.307217</ele>
        <time>2020-08-12T10:46:19.735Z</time>
      </trkpt>
      <trkpt lat="65.0706" lon="11.95032">
        <ele>46.945199</ele>
        <time>2020-08-12T10:46:22.773Z</time>
      </trkpt>
      <trkpt lat="65.0707" lon="11.95038">
        <ele>46.638041</ele>
        <time>2020-08-12T10:46:25.779Z</time>
      </trkpt>
      <trkpt lat="65.07078" lon="11.95048">
        <ele>46.351787</ele>
        <time>2020-08-12T10:46:28.781Z</time>
      </trkpt>
      <trkpt lat="65.07087" lon="11.95059">
        <ele>46.048227</ele>
        <time>2020-08-12T10:46:31.745Z</time>
      </trkpt>
      <trkpt lat="65.07096" lon="11.95071">
        <ele>45.736352</ele>
        <time>2020-08-12T10:46:34.789Z</time>
      </trkpt>
      <trkpt lat="65.07105" lon="11.95087">
        <ele>45.401455</ele>
        <time>2020-08-12T10:46:37.761Z</time>
      </trkpt>
      <trkpt lat="65.07116" lon="11.95106">
        <ele>45.006691</ele>
        <time>2020-08-12T10:46:40.771Z</time>
      </trkpt>
      <trkpt lat="65.07123" lon="11.9512">
        <ele>44.734168</ele>
        <time>2020-08-12T10:46:42.771Z</time>
      </trkpt>
      <trkpt lat="65.07131" lon="11.95135">
        <ele>44.427412</ele>
        <time>2020-08-12T10:46:44.776Z</time>
      </trkpt>
      <trkpt lat="65.0714" lon="11.9515">
        <ele>44.112061</ele>
        <time>2020-08-12T10:46:46.754Z</time>
      </trkpt>
      <trkpt lat="65.0715" lon="11.95168">
        <ele>43.737226</ele>
        <time>2020-08-12T10:46:48.774Z</time>
      </trkpt>
      <trkpt lat="65.0716" lon="11.95184">
        <ele>43.374481</ele>
        <time>2020-08-12T10:46:50.766Z</time>
      </trkpt>
      <trkpt lat="65.07173" lon="11.952">
        <ele>42.939489</ele>
        <time>2020-08-12T10:46:52.755Z</time>
      </trkpt>
      <trkpt lat="65.07186" lon="11.95215">
        <ele>42.646067</ele>
        <time>2020-08-12T10:46:54.755Z</time>
      </trkpt>
      <trkpt lat="65.07199" lon="11.95225">
        <ele>42.550349</ele>
        <time>2020-08-12T10:46:56.756Z</time>
      </trkpt>
      <trkpt lat="65.07214" lon="11.95232">
        <ele>42.443404</ele>
        <time>2020-08-12T10:46:58.783Z</time>
      </trkpt>
      <trkpt lat="65.07227" lon="11.95237">
        <ele>42.34536</ele>
        <time>2020-08-12T10:47:00.770Z</time>
      </trkpt>
      <trkpt lat="65.07241" lon="11.95244">
        <ele>42.249216</ele>
        <time>2020-08-12T10:47:02.762Z</time>
      </trkpt>
      <trkpt lat="65.0725" lon="11.9525">
        <ele>42.183466</ele>
        <time>2020-08-12T10:47:03.756Z</time>
      </trkpt>
      <trkpt lat="65.07263" lon="11.95255">
        <ele>42.087264</ele>
        <time>2020-08-12T10:47:05.766Z</time>
      </trkpt>
      <trkpt lat="65.07274" lon="11.95261">
        <ele>42.007008</ele>
        <time>2020-08-12T10:47:07.766Z</time>
      </trkpt>
      <trkpt lat="65.07284" lon="11.95265">
        <ele>41.933253</ele>
        <time>2020-08-12T10:47:09.749Z</time>
      </trkpt>
      <trkpt lat="65.07295" lon="11.95271">
        <ele>41.855558</ele>
        <time>2020-08-12T10:47:11.758Z</time>
      </trkpt>
      <trkpt lat="65.07306" lon="11.95276">
        <ele>41.780571</ele>
        <time>2020-08-12T10:47:13.769Z</time>
      </trkpt>
      <trkpt lat="65.07315" lon="11.9528">
        <ele>41.710301</ele>
        <time>2020-08-12T10:47:15.764Z</time>
      </trkpt>
      <trkpt lat="65.07324" lon="11.95285">
        <ele>41.645933</ele>
        <time>2020-08-12T10:47:17.745Z</time>
      </trkpt>
      <trkpt lat="65.07337" lon="11.95291">
        <ele>41.555234</ele>
        <time>2020-08-12T10:47:20.770Z</time>
      </trkpt>
      <trkpt lat="65.07349" lon="11.95298">
        <ele>41.467991</ele>
        <time>2020-08-12T10:47:23.760Z</time>
      </trkpt>
      <trkpt lat="65.07361" lon="11.95307">
        <ele>41.841296</ele>
        <time>2020-08-12T10:47:26.747Z</time>
      </trkpt>
      <trkpt lat="65.07373" lon="11.95316">
        <ele>42.676496</ele>
        <time>2020-08-12T10:47:29.765Z</time>
      </trkpt>
      <trkpt lat="65.07383" lon="11.95325">
        <ele>43.445717</ele>
        <time>2020-08-12T10:47:32.761Z</time>
      </trkpt>
      <trkpt lat="65.07392" lon="11.95333">
        <ele>44.142282</ele>
        <time>2020-08-12T10:47:35.741Z</time>
      </trkpt>
      <trkpt lat="65.07402" lon="11.95343">
        <ele>44.857553</ele>
        <time>2020-08-12T10:47:38.786Z</time>
      </trkpt>
      <trkpt lat="65.07411" lon="11.95352">
        <ele>45.570516</ele>
        <time>2020-08-12T10:47:41.767Z</time>
      </trkpt>
      <trkpt lat="65.07421" lon="11.95362">
        <ele>46.294153</ele>
        <time>2020-08-12T10:47:45.753Z</time>
      </trkpt>
      <trkpt lat="65.0743" lon="11.95377">
        <ele>47.066917</ele>
        <time>2020-08-12T10:47:50.750Z</time>
      </trkpt>
      <trkpt lat="65.07437" lon="11.95389">
        <ele>47.71569</ele>
        <time>2020-08-12T10:47:55.741Z</time>
      </trkpt>
      <trkpt lat="65.07444" lon="11.95403">
        <ele>48.351776</ele>
        <time>2020-08-12T10:48:01.757Z</time>
      </trkpt>
      <trkpt lat="65.07451" lon="11.95417">
        <ele>48.986315</ele>
        <time>2020-08-12T10:48:07.748Z</time>
      </trkpt>
      <trkpt lat="65.07458" lon="11.95434">
        <ele>49.646308</ele>
        <time>2020-08-12T10:48:13.737Z</time>
      </trkpt>
      <trkpt lat="65.07464" lon="11.9545">
        <ele>50.290475</ele>
        <time>2020-08-12T10:48:20.783Z</time>
      </trkpt>
      <trkpt lat="65.07469" lon="11.95469">
        <ele>50.935359</ele>
        <time>2020-08-12T10:48:26.811Z</time>
      </trkpt>
      <trkpt lat="65.07473" lon="11.95489">
        <ele>51.619335</ele>
        <time>2020-08-12T10:48:32.743Z</time>
      </trkpt>
      <trkpt lat="65.07477" lon="11.95508">
        <ele>52.266103</ele>
        <time>2020-08-12T10:48:39.760Z</time>
      </trkpt>
      <trkpt lat="65.07481" lon="11.9553">
        <ele>52.958362</ele>
        <time>2020-08-12T10:48:45.768Z</time>
      </trkpt>
      <trkpt lat="65.07485" lon="11.95552">
        <ele>53.655043</ele>
        <time>2020-08-12T10:48:53.754Z</time>
      </trkpt>
      <trkpt lat="65.07487" lon="11.95573">
        <ele>54.269625</ele>
        <time>2020-08-12T10:49:01.760Z</time>
      </trkpt>
      <trkpt lat="65.07489" lon="11.956">
        <ele>54.962304</ele>
        <time>2020-08-12T10:49:09.783Z</time>
      </trkpt>
      <trkpt lat="65.0749" lon="11.95623">
        <ele>55.580325</ele>
        <time>2020-08-12T10:49:16.750Z</time>
      </trkpt>
      <trkpt lat="65.07491" lon="11.95647">
        <ele>56.21912</ele>
        <time>2020-08-12T10:49:23.739Z</time>
      </trkpt>
      <trkpt lat="65.07491" lon="11.95672">
        <ele>56.868765</ele>
        <time>2020-08-12T10:49:31.764Z</time>
      </trkpt>
      <trkpt lat="65.07491" lon="11.95696">
        <ele>57.505081</ele>
        <time>2020-08-12T10:49:38.774Z</time>
      </trkpt>
      <trkpt lat="65.07492" lon="11.95719">
        <ele>58.095052</ele>
        <time>2020-08-12T10:49:44.785Z</time>
      </trkpt>
      <trkpt lat="65.07492" lon="11.9574">
        <ele>58.653095</ele>
        <time>2020-08-12T10:49:49.744Z</time>
      </trkpt>
      <trkpt lat="65.07493" lon="11.95764">
        <ele>59.287249</ele>
        <time>2020-08-12T10:49:55.765Z</time>
      </trkpt>
      <trkpt lat="65.07492" lon="11.95789">
        <ele>59.928801</ele>
        <time>2020-08-12T10:50:01.752Z</time>
      </trkpt>
      <trkpt lat="65.07493" lon="11.95814">
        <ele>60.590522</ele>
        <time>2020-08-12T10:50:05.748Z</time>
      </trkpt>
      <trkpt lat="65.07495" lon="11.9584">
        <ele>61.270895</ele>
        <time>2020-08-12T10:50:09.786Z</time>
      </trkpt>
      <trkpt lat="65.07496" lon="11.95861">
        <ele>61.837161</ele>
        <time>2020-08-12T10:50:12.757Z</time>
      </trkpt>
      <trkpt lat="65.07498" lon="11.95882">
        <ele>62.395796</ele>
        <time>2020-08-12T10:50:15.743Z</time>
      </trkpt>
      <trkpt lat="65.07501" lon="11.95903">
        <ele>62.957116</ele>
        <time>2020-08-12T10:50:18.757Z</time>
      </trkpt>
      <trkpt lat="65.07505" lon="11.95927">
        <ele>63.656883</ele>
        <time>2020-08-12T10:50:21.770Z</time>
      </trkpt>
      <trkpt lat="65.0751" lon="11.95946">
        <ele>64.251154</ele>
        <time>2020-08-12T10:50:24.747Z</time>
      </trkpt>
      <trkpt lat="65.07515" lon="11.95965">
        <ele>64.828829</ele>
        <time>2020-08-12T10:50:27.755Z</time>
      </trkpt>
      <trkpt lat="65.07521" lon="11.95987">
        <ele>65.484218</ele>
        <time>2020-08-12T10:50:31.783Z</time>
      </trkpt>
      <trkpt lat="65.07527" lon="11.96008">
        <ele>66.092806</ele>
        <time>2020-08-12T10:50:35.752Z</time>
      </trkpt>
      <trkpt lat="65.07534" lon="11.96031">
        <ele>66.74521</ele>
        <time>2020-08-12T10:50:39.765Z</time>
      </trkpt>
      <trkpt lat="65.0754" lon="11.96053">
        <ele>67.35674</ele>
        <time>2020-08-12T10:50:43.765Z</time>
      </trkpt>
      <trkpt lat="65.07545" lon="11.96072">
        <ele>67.920866</ele>
        <time>2020-08-12T10:50:47.784Z</time>
      </trkpt>
      <trkpt lat="65.07551" lon="11.9609">
        <ele>68.453231</ele>
        <time>2020-08-12T10:50:51.764Z</time>
      </trkpt>
      <trkpt lat="65.07556" lon="11.96112">
        <ele>69.04598</ele>
        <time>2020-08-12T10:50:56.747Z</time>
      </trkpt>
      <trkpt lat="65.07561" lon="11.9613">
        <ele>69.559459</ele>
        <time>2020-08-12T10:51:01.746Z</time>
      </trkpt>
      <trkpt lat="65.07567" lon="11.96153">
        <ele>70.187484</ele>
        <time>2020-08-12T10:51:06.753Z</time>
      </trkpt>
      <trkpt lat="65.07571" lon="11.96174">
        <ele>70.764404</ele>
        <time>2020-08-12T10:51:10.753Z</time>
      </trkpt>
      <trkpt lat="65.07577" lon="11.96195">
        <ele>71.33586</ele>
        <time>2020-08-12T10:51:15.777Z</time>
      </trkpt>
      <trkpt lat="65.07582" lon="11.96214">
        <ele>71.87396</ele>
        <time>2020-08-12T10:51:20.813Z</time>
      </trkpt>
      <trkpt lat="65.07587" lon="11.96235">
        <ele>72.43897</ele>
        <time>2020-08-12T10:51:25.752Z</time>
      </trkpt>
      <trkpt lat="65.07592" lon="11.96256">
        <ele>73.017834</ele>
        <time>2020-08-12T10:51:30.748Z</time>
      </trkpt>
      <trkpt lat="65.07596" lon="11.96274">
        <ele>73.531907</ele>
        <time>2020-08-12T10:51:35.750Z</time>
      </trkpt>
      <trkpt lat="65.07602" lon="11.96296">
        <ele>74.133682</ele>
        <time>2020-08-12T10:51:41.772Z</time>
      </trkpt>
      <trkpt lat="65.07607" lon="11.96315">
        <ele>74.680982</ele>
        <time>2020-08-12T10:51:47.744Z</time>
      </trkpt>
      <trkpt lat="65.07613" lon="11.96334">
        <ele>75.247907</ele>
        <time>2020-08-12T10:51:53.748Z</time>
      </trkpt>
      <trkpt lat="65.07619" lon="11.96351">
        <ele>75.948771</ele>
        <time>2020-08-12T10:51:58.765Z</time>
      </trkpt>
      <trkpt lat="65.07625" lon="11.96368">
        <ele>76.652209</ele>
        <time>2020-08-12T10:52:04.792Z</time>
      </trkpt>
      <trkpt lat="65.07631" lon="11.96385">
        <ele>77.373036</ele>
        <time>2020-08-12T10:52:10.750Z</time>
      </trkpt>
      <trkpt lat="65.07636" lon="11.96404">
        <ele>78.14763</ele>
        <time>2020-08-12T10:52:16.736Z</time>
      </trkpt>
      <trkpt lat="65.07642" lon="11.96422">
        <ele>78.896651</ele>
        <time>2020-08-12T10:52:22.749Z</time>
      </trkpt>
      <trkpt lat="65.07649" lon="11.96444">
        <ele>79.814049</ele>
        <time>2020-08-12T10:52:29.791Z</time>
      </trkpt>
      <trkpt lat="65.07655" lon="11.96462">
        <ele>80.567912</ele>
        <time>2020-08-12T10:52:36.787Z</time>
      </trkpt>
      <trkpt lat="65.07662" lon="11.96477">
        <ele>81.288647</ele>
        <time>2020-08-12T10:52:42.768Z</time>
      </trkpt>
      <trkpt lat="65.07668" lon="11.96494">
        <ele>82.033107</ele>
        <time>2020-08-12T10:52:48.743Z</time>
      </trkpt>
      <trkpt lat="65.07675" lon="11.96508">
        <ele>82.73996</ele>
        <time>2020-08-12T10:52:53.758Z</time>
      </trkpt>
      <trkpt lat="65.07681" lon="11.96527">
        <ele>83.516456</ele>
        <time>2020-08-12T10:52:59.759Z</time>
      </trkpt>
      <trkpt lat="65.07687" lon="11.96547">
        <ele>84.338221</ele>
        <time>2020-08-12T10:53:05.752Z</time>
      </trkpt>
      <trkpt lat="65.07693" lon="11.96565">
        <ele>85.050458</ele>
        <time>2020-08-12T10:53:10.775Z</time>
      </trkpt>
      <trkpt lat="65.07698" lon="11.96586">
        <ele>85.88209</ele>
        <time>2020-08-12T10:53:15.774Z</time>
      </trkpt>
      <trkpt lat="65.07704" lon="11.96605">
        <ele>86.666079</ele>
        <time>2020-08-12T10:53:20.750Z</time>
      </trkpt>
      <trkpt lat="65.07709" lon="11.96624">
        <ele>87.38372</ele>
        <time>2020-08-12T10:53:25.747Z</time>
      </trkpt>
      <trkpt lat="65.07714" lon="11.96642">
        <ele>88.115861</ele>
        <time>2020-08-12T10:53:29.752Z</time>
      </trkpt>
      <trkpt lat="65.07721" lon="11.96662">
        <ele>88.940305</ele>
        <time>2020-08-12T10:53:36.762Z</time>
      </trkpt>
      <trkpt lat="65.07726" lon="11.96683">
        <ele>89.367516</ele>
        <time>2020-08-12T10:53:41.759Z</time>
      </trkpt>
      <trkpt lat="65.0773" lon="11.96702">
        <ele>89.319139</ele>
        <time>2020-08-12T10:53:47.744Z</time>
      </trkpt>
      <trkpt lat="65.07735" lon="11.96722">
        <ele>89.270856</ele>
        <time>2020-08-12T10:53:52.755Z</time>
      </trkpt>
      <trkpt lat="65.07739" lon="11.96742">
        <ele>89.220312</ele>
        <time>2020-08-12T10:53:57.753Z</time>
      </trkpt>
      <trkpt lat="65.07744" lon="11.96764">
        <ele>89.168432</ele>
        <time>2020-08-12T10:54:02.750Z</time>
      </trkpt>
      <trkpt lat="65.07748" lon="11.96787">
        <ele>89.113396</ele>
        <time>2020-08-12T10:54:07.760Z</time>
      </trkpt>
      <trkpt lat="65.07752" lon="11.96807">
        <ele>89.064592</ele>
        <time>2020-08-12T10:54:11.787Z</time>
      </trkpt>
      <trkpt lat="65.07756" lon="11.9683">
        <ele>89.010757</ele>
        <time>2020-08-12T10:54:15.763Z</time>
      </trkpt>
      <trkpt lat="65.07761" lon="11.96854">
        <ele>88.954919</ele>
        <time>2020-08-12T10:54:19.742Z</time>
      </trkpt>
      <trkpt lat="65.07765" lon="11.96878">
        <ele>88.897858</ele>
        <time>2020-08-12T10:54:23.741Z</time>
      </trkpt>
      <trkpt lat="65.0777" lon="11.96903">
        <ele>88.836336</ele>
        <time>2020-08-12T10:54:27.752Z</time>
      </trkpt>
      <trkpt lat="65.07775" lon="11.96923">
        <ele>88.788002</ele>
        <time>2020-08-12T10:54:30.763Z</time>
      </trkpt>
      <trkpt lat="65.07779" lon="11.96944">
        <ele>88.737493</ele>
        <time>2020-08-12T10:54:33.768Z</time>
      </trkpt>
      <trkpt lat="65.07784" lon="11.96968">
        <ele>88.679465</ele>
        <time>2020-08-12T10:54:36.771Z</time>
      </trkpt>
      <trkpt lat="65.0779" lon="11.96994">
        <ele>88.614501</ele>
        <time>2020-08-12T10:54:39.773Z</time>
      </trkpt>
      <trkpt lat="65.07795" lon="11.97021">
        <ele>88.549113</ele>
        <time>2020-08-12T10:54:42.749Z</time>
      </trkpt>
      <trkpt lat="65.078" lon="11.97045">
        <ele>88.491515</ele>
        <time>2020-08-12T10:54:45.769Z</time>
      </trkpt>
      <trkpt lat="65.07805" lon="11.97069">
        <ele>88.591101</ele>
        <time>2020-08-12T10:54:48.748Z</time>
      </trkpt>
      <trkpt lat="65.07809" lon="11.97092">
        <ele>88.811249</ele>
        <time>2020-08-12T10:54:51.785Z</time>
      </trkpt>
      <trkpt lat="65.07814" lon="11.97115">
        <ele>89.041462</ele>
        <time>2020-08-12T10:54:55.748Z</time>
      </trkpt>
      <trkpt lat="65.07818" lon="11.97138">
        <ele>89.267481</ele>
        <time>2020-08-12T10:55:00.764Z</time>
      </trkpt>
      <trkpt lat="65.07821" lon="11.9716">
        <ele>89.481035</ele>
        <time>2020-08-12T10:55:06.783Z</time>
      </trkpt>
      <trkpt lat="65.07825" lon="11.97183">
        <ele>89.700363</ele>
        <time>2020-08-12T10:55:11.778Z</time>
      </trkpt>
      <trkpt lat="65.07829" lon="11.97203">
        <ele>89.907249</ele>
        <time>2020-08-12T10:55:16.743Z</time>
      </trkpt>
      <trkpt lat="65.07833" lon="11.97224">
        <ele>90.113253</ele>
        <time>2020-08-12T10:55:22.746Z</time>
      </trkpt>
      <trkpt lat="65.07838" lon="11.97245">
        <ele>90.320621</ele>
        <time>2020-08-12T10:55:28.747Z</time>
      </trkpt>
      <trkpt lat="65.07842" lon="11.97264">
        <ele>90.518625</ele>
        <time>2020-08-12T10:55:34.774Z</time>
      </trkpt>
      <trkpt lat="65.07846" lon="11.97283">
        <ele>90.715178</ele>
        <time>2020-08-12T10:55:39.746Z</time>
      </trkpt>
      <trkpt lat="65.0785" lon="11.97303">
        <ele>90.917728</ele>
        <time>2020-08-12T10:55:44.822Z</time>
      </trkpt>
      <trkpt lat="65.07854" lon="11.97323">
        <ele>91.111196</ele>
        <time>2020-08-12T10:55:48.746Z</time>
      </trkpt>
      <trkpt lat="65.07858" lon="11.97344">
        <ele>91.325182</ele>
        <time>2020-08-12T10:55:53.763Z</time>
      </trkpt>
      <trkpt lat="65.07863" lon="11.97364">
        <ele>91.532735</ele>
        <time>2020-08-12T10:55:58.749Z</time>
      </trkpt>
      <trkpt lat="65.07867" lon="11.97385">
        <ele>91.739132</ele>
        <time>2020-08-12T10:56:02.774Z</time>
      </trkpt>
      <trkpt lat="65.07872" lon="11.97405">
        <ele>91.949289</ele>
        <time>2020-08-12T10:56:06.740Z</time>
      </trkpt>
      <trkpt lat="65.07876" lon="11.97428">
        <ele>92.177104</ele>
        <time>2020-08-12T10:56:10.765Z</time>
      </trkpt>
      <trkpt lat="65.07881" lon="11.9745">
        <ele>92.466404</ele>
        <time>2020-08-12T10:56:14.796Z</time>
      </trkpt>
      <trkpt lat="65.07886" lon="11.97472">
        <ele>92.921592</ele>
        <time>2020-08-12T10:56:18.774Z</time>
      </trkpt>
      <trkpt lat="65.0789" lon="11.97491">
        <ele>93.309616</ele>
        <time>2020-08-12T10:56:22.762Z</time>
      </trkpt>
      <trkpt lat="65.07895" lon="11.97512">
        <ele>93.729753</ele>
        <time>2020-08-12T10:56:26.742Z</time>
      </trkpt>
      <trkpt lat="65.07899" lon="11.97534">
        <ele>94.177767</ele>
        <time>2020-08-12T10:56:31.769Z</time>
      </trkpt>
      <trkpt lat="65.07903" lon="11.97556">
        <ele>94.608711</ele>
        <time>2020-08-12T10:56:36.752Z</time>
      </trkpt>
      <trkpt lat="65.07908" lon="11.97578">
        <ele>95.03638</ele>
        <time>2020-08-12T10:56:41.766Z</time>
      </trkpt>
      <trkpt lat="65.07911" lon="11.97598">
        <ele>95.421052</ele>
        <time>2020-08-12T10:56:46.793Z</time>
      </trkpt>
      <trkpt lat="65.07916" lon="11.97621">
        <ele>95.881154</ele>
        <time>2020-08-12T10:56:52.757Z</time>
      </trkpt>
      <trkpt lat="65.07919" lon="11.97641">
        <ele>96.277633</ele>
        <time>2020-08-12T10:56:57.777Z</time>
      </trkpt>
      <trkpt lat="65.07924" lon="11.97662">
        <ele>96.689775</ele>
        <time>2020-08-12T10:57:03.753Z</time>
      </trkpt>
      <trkpt lat="65.07927" lon="11.97682">
        <ele>97.072774</ele>
        <time>2020-08-12T10:57:08.773Z</time>
      </trkpt>
      <trkpt lat="65.07932" lon="11.97701">
        <ele>97.467457</ele>
        <time>2020-08-12T10:57:14.752Z</time>
      </trkpt>
      <trkpt lat="65.07936" lon="11.97722">
        <ele>97.892417</ele>
        <time>2020-08-12T10:57:21.788Z</time>
      </trkpt>
      <trkpt lat="65.0794" lon="11.97742">
        <ele>98.282072</ele>
        <time>2020-08-12T10:57:27.747Z</time>
      </trkpt>
      <trkpt lat="65.07945" lon="11.97767">
        <ele>98.781266</ele>
        <time>2020-08-12T10:57:36.751Z</time>
      </trkpt>
      <trkpt lat="65.07949" lon="11.9779">
        <ele>99.223701</ele>
        <time>2020-08-12T10:57:41.771Z</time>
      </trkpt>
      <trkpt lat="65.07954" lon="11.97812">
        <ele>99.662746</ele>
        <time>2020-08-12T10:57:48.781Z</time>
      </trkpt>
      <trkpt lat="65.07958" lon="11.97834">
        <ele>100.130712</ele>
        <time>2020-08-12T10:57:54.774Z</time>
      </trkpt>
      <trkpt lat="65.07963" lon="11.97856">
        <ele>100.633277</ele>
        <time>2020-08-12T10:58:00.765Z</time>
      </trkpt>
      <trkpt lat="65.07967" lon="11.97874">
        <ele>101.081929</ele>
        <time>2020-08-12T10:58:05.783Z</time>
      </trkpt>
      <trkpt lat="65.07972" lon="11.97893">
        <ele>101.537399</ele>
        <time>2020-08-12T10:58:10.794Z</time>
      </trkpt>
      <trkpt lat="65.07976" lon="11.97916">
        <ele>102.06942</ele>
        <time>2020-08-12T10:58:16.752Z</time>
      </trkpt>
      <trkpt lat="65.0798" lon="11.97937">
        <ele>102.540474</ele>
        <time>2020-08-12T10:58:21.751Z</time>
      </trkpt>
      <trkpt lat="65.07985" lon="11.97957">
        <ele>103.023294</ele>
        <time>2020-08-12T10:58:27.760Z</time>
      </trkpt>
      <trkpt lat="65.07989" lon="11.97976">
        <ele>103.478762</ele>
        <time>2020-08-12T10:58:32.794Z</time>
      </trkpt>
      <trkpt lat="65.07993" lon="11.97997">
        <ele>103.948011</ele>
        <time>2020-08-12T10:58:37.750Z</time>
      </trkpt>
      <trkpt lat="65.07997" lon="11.98017">
        <ele>104.426201</ele>
        <time>2020-08-12T10:58:42.750Z</time>
      </trkpt>
      <trkpt lat="65.08002" lon="11.98039">
        <ele>104.953491</ele>
        <time>2020-08-12T10:58:48.772Z</time>
      </trkpt>
      <trkpt lat="65.08007" lon="11.98058">
        <ele>105.411878</ele>
        <time>2020-08-12T10:58:53.751Z</time>
      </trkpt>
      <trkpt lat="65.08011" lon="11.98079">
        <ele>105.894624</ele>
        <time>2020-08-12T10:58:58.759Z</time>
      </trkpt>
      <trkpt lat="65.08015" lon="11.98101">
        <ele>106.393412</ele>
        <time>2020-08-12T10:59:03.785Z</time>
      </trkpt>
      <trkpt lat="65.08019" lon="11.98123">
        <ele>106.906905</ele>
        <time>2020-08-12T10:59:09.781Z</time>
      </trkpt>
      <trkpt lat="65.08024" lon="11.98146">
        <ele>107.43295</ele>
        <time>2020-08-12T10:59:15.741Z</time>
      </trkpt>
      <trkpt lat="65.08028" lon="11.98168">
        <ele>107.931</ele>
        <time>2020-08-12T10:59:20.765Z</time>
      </trkpt>
      <trkpt lat="65.08032" lon="11.98187">
        <ele>108.399896</ele>
        <time>2020-08-12T10:59:25.766Z</time>
      </trkpt>
      <trkpt lat="65.08037" lon="11.98211">
        <ele>108.902209</ele>
        <time>2020-08-12T10:59:30.770Z</time>
      </trkpt>
      <trkpt lat="65.08041" lon="11.98234">
        <ele>108.508293</ele>
        <time>2020-08-12T10:59:34.773Z</time>
      </trkpt>
      <trkpt lat="65.08046" lon="11.98255">
        <ele>108.138667</ele>
        <time>2020-08-12T10:59:37.757Z</time>
      </trkpt>
      <trkpt lat="65.08051" lon="11.98282">
        <ele>107.693759</ele>
        <time>2020-08-12T10:59:40.774Z</time>
      </trkpt>
      <trkpt lat="65.08055" lon="11.98303">
        <ele>107.319606</ele>
        <time>2020-08-12T10:59:42.745Z</time>
      </trkpt>
      <trkpt lat="65.08061" lon="11.9833">
        <ele>106.8662</ele>
        <time>2020-08-12T10:59:44.766Z</time>
      </trkpt>
      <trkpt lat="65.08067" lon="11.98357">
        <ele>106.390328</ele>
        <time>2020-08-12T10:59:46.756Z</time>
      </trkpt>
      <trkpt lat="65.08074" lon="11.98389">
        <ele>105.835975</ele>
        <time>2020-08-12T10:59:48.751Z</time>
      </trkpt>
      <trkpt lat="65.08082" lon="11.98426">
        <ele>105.201141</ele>
        <time>2020-08-12T10:59:50.784Z</time>
      </trkpt>
      <trkpt lat="65.08087" lon="11.98446">
        <ele>104.849899</ele>
        <time>2020-08-12T10:59:51.775Z</time>
      </trkpt>
      <trkpt lat="65.08091" lon="11.98467">
        <ele>104.4971</ele>
        <time>2020-08-12T10:59:52.758Z</time>
      </trkpt>
      <trkpt lat="65.08096" lon="11.98489">
        <ele>104.113261</ele>
        <time>2020-08-12T10:59:53.753Z</time>
      </trkpt>
      <trkpt lat="65.081" lon="11.98512">
        <ele>103.717754</ele>
        <time>2020-08-12T10:59:54.776Z</time>
      </trkpt>
      <trkpt lat="65.08105" lon="11.98536">
        <ele>103.315347</ele>
        <time>2020-08-12T10:59:55.775Z</time>
      </trkpt>
      <trkpt lat="65.0811" lon="11.9856">
        <ele>102.911968</ele>
        <time>2020-08-12T10:59:56.761Z</time>
      </trkpt>
      <trkpt lat="65.08114" lon="11.98584">
        <ele>102.511134</ele>
        <time>2020-08-12T10:59:57.760Z</time>
      </trkpt>
      <trkpt lat="65.08119" lon="11.98607">
        <ele>101.890098</ele>
        <time>2020-08-12T10:59:58.746Z</time>
      </trkpt>
      <trkpt lat="65.08123" lon="11.98629">
        <ele>101.158522</ele>
        <time>2020-08-12T10:59:59.739Z</time>
      </trkpt>
      <trkpt lat="65.08128" lon="11.98651">
        <ele>100.451368</ele>
        <time>2020-08-12T11:00:00.790Z</time>
      </trkpt>
      <trkpt lat="65.08132" lon="11.98671">
        <ele>99.792997</ele>
        <time>2020-08-12T11:00:01.755Z</time>
      </trkpt>
      <trkpt lat="65.08136" lon="11.98692">
        <ele>99.076588</ele>
        <time>2020-08-12T11:00:02.744Z</time>
      </trkpt>
      <trkpt lat="65.08141" lon="11.98713">
        <ele>98.379197</ele>
        <time>2020-08-12T11:00:03.745Z</time>
      </trkpt>
      <trkpt lat="65.08145" lon="11.98735">
        <ele>97.657961</ele>
        <time>2020-08-12T11:00:04.763Z</time>
      </trkpt>
      <trkpt lat="65.0815" lon="11.98758">
        <ele>96.915369</ele>
        <time>2020-08-12T11:00:05.764Z</time>
      </trkpt>
      <trkpt lat="65.08155" lon="11.9878">
        <ele>96.168277</ele>
        <time>2020-08-12T11:00:06.774Z</time>
      </trkpt>
      <trkpt lat="65.0816" lon="11.98803">
        <ele>95.408525</ele>
        <time>2020-08-12T11:00:07.756Z</time>
      </trkpt>
      <trkpt lat="65.08164" lon="11.98827">
        <ele>94.644443</ele>
        <time>2020-08-12T11:00:08.763Z</time>
      </trkpt>
      <trkpt lat="65.08169" lon="11.98851">
        <ele>93.875118</ele>
        <time>2020-08-12T11:00:09.760Z</time>
      </trkpt>
      <trkpt lat="65.08173" lon="11.98874">
        <ele>93.124173</ele>
        <time>2020-08-12T11:00:10.751Z</time>
      </trkpt>
      <trkpt lat="65.08177" lon="11.98896">
        <ele>92.382056</ele>
        <time>2020-08-12T11:00:11.738Z</time>
      </trkpt>
      <trkpt lat="65.08182" lon="11.98918">
        <ele>91.671885</ele>
        <time>2020-08-12T11:00:12.775Z</time>
      </trkpt>
      <trkpt lat="65.08186" lon="11.98938">
        <ele>91.017117</ele>
        <time>2020-08-12T11:00:13.752Z</time>
      </trkpt>
      <trkpt lat="65.0819" lon="11.98957">
        <ele>90.375975</ele>
        <time>2020-08-12T11:00:14.741Z</time>
      </trkpt>
      <trkpt lat="65.08194" lon="11.98978">
        <ele>89.727713</ele>
        <time>2020-08-12T11:00:15.767Z</time>
      </trkpt>
      <trkpt lat="65.08198" lon="11.98997">
        <ele>89.92852</ele>
        <time>2020-08-12T11:00:16.745Z</time>
      </trkpt>
      <trkpt lat="65.08204" lon="11.99032">
        <ele>90.277106</ele>
        <time>2020-08-12T11:00:18.775Z</time>
      </trkpt>
      <trkpt lat="65.0821" lon="11.99062">
        <ele>90.57467</ele>
        <time>2020-08-12T11:00:20.749Z</time>
      </trkpt>
      <trkpt lat="65.08214" lon="11.99087">
        <ele>90.827228</ele>
        <time>2020-08-12T11:00:22.825Z</time>
      </trkpt>
      <trkpt lat="65.08219" lon="11.99111">
        <ele>91.066133</ele>
        <time>2020-08-12T11:00:24.764Z</time>
      </trkpt>
      <trkpt lat="65.08223" lon="11.99131">
        <ele>91.279879</ele>
        <time>2020-08-12T11:00:26.768Z</time>
      </trkpt>
      <trkpt lat="65.08227" lon="11.99151">
        <ele>91.481393</ele>
        <time>2020-08-12T11:00:28.751Z</time>
      </trkpt>
      <trkpt lat="65.08231" lon="11.99178">
        <ele>91.745845</ele>
        <time>2020-08-12T11:00:31.775Z</time>
      </trkpt>
      <trkpt lat="65.08236" lon="11.99201">
        <ele>91.980842</ele>
        <time>2020-08-12T11:00:34.751Z</time>
      </trkpt>
      <trkpt lat="65.0824" lon="11.99223">
        <ele>92.212138</ele>
        <time>2020-08-12T11:00:37.753Z</time>
      </trkpt>
      <trkpt lat="65.08246" lon="11.9925">
        <ele>92.48259</ele>
        <time>2020-08-12T11:00:40.754Z</time>
      </trkpt>
      <trkpt lat="65.08251" lon="11.99276">
        <ele>92.746256</ele>
        <time>2020-08-12T11:00:43.751Z</time>
      </trkpt>
      <trkpt lat="65.08255" lon="11.99298">
        <ele>92.975317</ele>
        <time>2020-08-12T11:00:46.743Z</time>
      </trkpt>
      <trkpt lat="65.0826" lon="11.99321">
        <ele>93.205207</ele>
        <time>2020-08-12T11:00:49.757Z</time>
      </trkpt>
      <trkpt lat="65.08265" lon="11.99345">
        <ele>93.451131</ele>
        <time>2020-08-12T11:00:52.746Z</time>
      </trkpt>
      <trkpt lat="65.08269" lon="11.99367">
        <ele>93.676294</ele>
        <time>2020-08-12T11:00:55.759Z</time>
      </trkpt>
      <trkpt lat="65.08274" lon="11.99389">
        <ele>93.872703</ele>
        <time>2020-08-12T11:00:58.748Z</time>
      </trkpt>
      <trkpt lat="65.08279" lon="11.99416">
        <ele>94.117533</ele>
        <time>2020-08-12T11:01:01.746Z</time>
      </trkpt>
      <trkpt lat="65.08283" lon="11.99439">
        <ele>94.313629</ele>
        <time>2020-08-12T11:01:05.747Z</time>
      </trkpt>
      <trkpt lat="65.08288" lon="11.99463">
        <ele>94.530973</ele>
        <time>2020-08-12T11:01:09.751Z</time>
      </trkpt>
      <trkpt lat="65.08293" lon="11.99486">
        <ele>94.742159</ele>
        <time>2020-08-12T11:01:12.773Z</time>
      </trkpt>
      <trkpt lat="65.08298" lon="11.99507">
        <ele>94.937252</ele>
        <time>2020-08-12T11:01:15.773Z</time>
      </trkpt>
      <trkpt lat="65.08303" lon="11.99532">
        <ele>95.161856</ele>
        <time>2020-08-12T11:01:18.744Z</time>
      </trkpt>
      <trkpt lat="65.08309" lon="11.99557">
        <ele>95.392362</ele>
        <time>2020-08-12T11:01:21.755Z</time>
      </trkpt>
      <trkpt lat="65.08315" lon="11.99583">
        <ele>95.628446</ele>
        <time>2020-08-12T11:01:24.755Z</time>
      </trkpt>
      <trkpt lat="65.08321" lon="11.99611">
        <ele>95.888733</ele>
        <time>2020-08-12T11:01:27.777Z</time>
      </trkpt>
      <trkpt lat="65.08326" lon="11.99631">
        <ele>96.075661</ele>
        <time>2020-08-12T11:01:29.789Z</time>
      </trkpt>
      <trkpt lat="65.08331" lon="11.99652">
        <ele>96.27038</ele>
        <time>2020-08-12T11:01:31.743Z</time>
      </trkpt>
      <trkpt lat="65.08336" lon="11.99673">
        <ele>96.466946</ele>
        <time>2020-08-12T11:01:33.765Z</time>
      </trkpt>
      <trkpt lat="65.0834" lon="11.99692">
        <ele>96.643777</ele>
        <time>2020-08-12T11:01:35.746Z</time>
      </trkpt>
      <trkpt lat="65.08345" lon="11.99712">
        <ele>96.823999</ele>
        <time>2020-08-12T11:01:37.764Z</time>
      </trkpt>
      <trkpt lat="65.08351" lon="11.99741">
        <ele>97.083937</ele>
        <time>2020-08-12T11:01:40.773Z</time>
      </trkpt>
      <trkpt lat="65.08356" lon="11.9977">
        <ele>97.002594</ele>
        <time>2020-08-12T11:01:43.750Z</time>
      </trkpt>
      <trkpt lat="65.08361" lon="11.99798">
        <ele>96.878678</ele>
        <time>2020-08-12T11:01:46.748Z</time>
      </trkpt>
      <trkpt lat="65.08365" lon="11.99824">
        <ele>96.764022</ele>
        <time>2020-08-12T11:01:49.742Z</time>
      </trkpt>
      <trkpt lat="65.0837" lon="11.99849">
        <ele>96.655761</ele>
        <time>2020-08-12T11:01:52.756Z</time>
      </trkpt>
      <trkpt lat="65.08374" lon="11.99873">
        <ele>96.553873</ele>
        <time>2020-08-12T11:01:55.753Z</time>
      </trkpt>
      <trkpt lat="65.08378" lon="11.99896">
        <ele>96.45236</ele>
        <time>2020-08-12T11:01:58.749Z</time>
      </trkpt>
      <trkpt lat="65.08382" lon="11.99916">
        <ele>96.360165</ele>
        <time>2020-08-12T11:02:01.755Z</time>
      </trkpt>
      <trkpt lat="65.08386" lon="11.99941">
        <ele>96.249673</ele>
        <time>2020-08-12T11:02:04.749Z</time>
      </trkpt>
      <trkpt lat="65.08391" lon="11.99963">
        <ele>96.152232</ele>
        <time>2020-08-12T11:02:07.745Z</time>
      </trkpt>
      <trkpt lat="65.08395" lon="11.99984">
        <ele>96.058137</ele>
        <time>2020-08-12T11:02:10.765Z</time>
      </trkpt>
      <trkpt lat="65.08399" lon="12.00006">
        <ele>95.962855</ele>
        <time>2020-08-12T11:02:13.773Z</time>
      </trkpt>
      <trkpt lat="65.08403" lon="12.00026">
        <ele>95.869965</ele>
        <time>2020-08-12T11:02:16.755Z</time>
      </trkpt>
      <trkpt lat="65.08409" lon="12.00048">
        <ele>95.767213</ele>
        <time>2020-08-12T11:02:19.763Z</time>
      </trkpt>
      <trkpt lat="65.08414" lon="12.00073">
        <ele>95.653156</ele>
        <time>2020-08-12T11:02:22.753Z</time>
      </trkpt>
      <trkpt lat="65.0842" lon="12.00103">
        <ele>95.518968</ele>
        <time>2020-08-12T11:02:25.747Z</time>
      </trkpt>
      <trkpt lat="65.08425" lon="12.00126">
        <ele>95.413512</ele>
        <time>2020-08-12T11:02:27.764Z</time>
      </trkpt>
      <trkpt lat="65.0843" lon="12.00151">
        <ele>95.271507</ele>
        <time>2020-08-12T11:02:29.753Z</time>
      </trkpt>
      <trkpt lat="65.08436" lon="12.00177">
        <ele>95.113149</ele>
        <time>2020-08-12T11:02:31.773Z</time>
      </trkpt>
      <trkpt lat="65.08442" lon="12.00206">
        <ele>94.941377</ele>
        <time>2020-08-12T11:02:33.756Z</time>
      </trkpt>
      <trkpt lat="65.08448" lon="12.00235">
        <ele>94.765909</ele>
        <time>2020-08-12T11:02:35.745Z</time>
      </trkpt>
      <trkpt lat="65.08454" lon="12.00265">
        <ele>94.586852</ele>
        <time>2020-08-12T11:02:37.741Z</time>
      </trkpt>
      <trkpt lat="65.08459" lon="12.00293">
        <ele>94.417748</ele>
        <time>2020-08-12T11:02:39.771Z</time>
      </trkpt>
      <trkpt lat="65.08465" lon="12.00321">
        <ele>94.249056</ele>
        <time>2020-08-12T11:02:41.755Z</time>
      </trkpt>
      <trkpt lat="65.08471" lon="12.00348">
        <ele>94.09031</ele>
        <time>2020-08-12T11:02:43.751Z</time>
      </trkpt>
      <trkpt lat="65.08475" lon="12.00371">
        <ele>93.949178</ele>
        <time>2020-08-12T11:02:45.770Z</time>
      </trkpt>
      <trkpt lat="65.0848" lon="12.00395">
        <ele>93.807007</ele>
        <time>2020-08-12T11:02:47.788Z</time>
      </trkpt>
      <trkpt lat="65.08484" lon="12.00415">
        <ele>93.684248</ele>
        <time>2020-08-12T11:02:49.749Z</time>
      </trkpt>
      <trkpt lat="65.0849" lon="12.00443">
        <ele>93.517496</ele>
        <time>2020-08-12T11:02:52.755Z</time>
      </trkpt>
      <trkpt lat="65.08495" lon="12.00465">
        <ele>93.382769</ele>
        <time>2020-08-12T11:02:55.745Z</time>
      </trkpt>
      <trkpt lat="65.08499" lon="12.00486">
        <ele>93.258552</ele>
        <time>2020-08-12T11:02:58.765Z</time>
      </trkpt>
      <trkpt lat="65.08503" lon="12.00508">
        <ele>93.128952</ele>
        <time>2020-08-12T11:03:01.750Z</time>
      </trkpt>
      <trkpt lat="65.08507" lon="12.0053">
        <ele>93.48241</ele>
        <time>2020-08-12T11:03:04.747Z</time>
      </trkpt>
      <trkpt lat="65.08512" lon="12.00552">
        <ele>94.166145</ele>
        <time>2020-08-12T11:03:07.756Z</time>
      </trkpt>
      <trkpt lat="65.08516" lon="12.00575">
        <ele>94.84217</ele>
        <time>2020-08-12T11:03:10.762Z</time>
      </trkpt>
      <trkpt lat="65.08521" lon="12.00599">
        <ele>95.570811</ele>
        <time>2020-08-12T11:03:13.754Z</time>
      </trkpt>
      <trkpt lat="65.08526" lon="12.0062">
        <ele>96.219993</ele>
        <time>2020-08-12T11:03:16.767Z</time>
      </trkpt>
      <trkpt lat="65.0853" lon="12.00642">
        <ele>96.888071</ele>
        <time>2020-08-12T11:03:19.750Z</time>
      </trkpt>
      <trkpt lat="65.08535" lon="12.00667">
        <ele>97.624401</ele>
        <time>2020-08-12T11:03:22.752Z</time>
      </trkpt>
      <trkpt lat="65.0854" lon="12.00689">
        <ele>98.322186</ele>
        <time>2020-08-12T11:03:25.756Z</time>
      </trkpt>
      <trkpt lat="65.08545" lon="12.00714">
        <ele>99.056056</ele>
        <time>2020-08-12T11:03:28.747Z</time>
      </trkpt>
      <trkpt lat="65.0855" lon="12.00737">
        <ele>99.759238</ele>
        <time>2020-08-12T11:03:31.753Z</time>
      </trkpt>
      <trkpt lat="65.08554" lon="12.00758">
        <ele>100.390387</ele>
        <time>2020-08-12T11:03:34.753Z</time>
      </trkpt>
      <trkpt lat="65.08558" lon="12.00778">
        <ele>100.996699</ele>
        <time>2020-08-12T11:03:37.766Z</time>
      </trkpt>
      <trkpt lat="65.08563" lon="12.00801">
        <ele>101.699903</ele>
        <time>2020-08-12T11:03:41.766Z</time>
      </trkpt>
      <trkpt lat="65.08568" lon="12.0082">
        <ele>102.298918</ele>
        <time>2020-08-12T11:03:44.741Z</time>
      </trkpt>
      <trkpt lat="65.08573" lon="12.00842">
        <ele>102.984655</ele>
        <time>2020-08-12T11:03:48.758Z</time>
      </trkpt>
      <trkpt lat="65.08577" lon="12.00863">
        <ele>103.611383</ele>
        <time>2020-08-12T11:03:52.757Z</time>
      </trkpt>
      <trkpt lat="65.08582" lon="12.00883">
        <ele>104.227322</ele>
        <time>2020-08-12T11:03:56.769Z</time>
      </trkpt>
      <trkpt lat="65.08586" lon="12.00902">
        <ele>104.71032</ele>
        <time>2020-08-12T11:04:00.759Z</time>
      </trkpt>
      <trkpt lat="65.0859" lon="12.00921">
        <ele>104.718835</ele>
        <time>2020-08-12T11:04:04.738Z</time>
      </trkpt>
      <trkpt lat="65.08595" lon="12.00943">
        <ele>104.728581</ele>
        <time>2020-08-12T11:04:09.782Z</time>
      </trkpt>
      <trkpt lat="65.08599" lon="12.00965">
        <ele>104.737969</ele>
        <time>2020-08-12T11:04:14.784Z</time>
      </trkpt>
      <trkpt lat="65.08604" lon="12.00986">
        <ele>104.74736</ele>
        <time>2020-08-12T11:04:19.757Z</time>
      </trkpt>
      <trkpt lat="65.08608" lon="12.01009">
        <ele>104.757072</ele>
        <time>2020-08-12T11:04:24.787Z</time>
      </trkpt>
      <trkpt lat="65.08611" lon="12.01032">
        <ele>104.766359</ele>
        <time>2020-08-12T11:04:28.770Z</time>
      </trkpt>
      <trkpt lat="65.08615" lon="12.01053">
        <ele>104.775457</ele>
        <time>2020-08-12T11:04:32.783Z</time>
      </trkpt>
      <trkpt lat="65.08619" lon="12.01072">
        <ele>104.783871</ele>
        <time>2020-08-12T11:04:36.767Z</time>
      </trkpt>
      <trkpt lat="65.08622" lon="12.01094">
        <ele>104.793004</ele>
        <time>2020-08-12T11:04:40.761Z</time>
      </trkpt>
      <trkpt lat="65.08626" lon="12.01117">
        <ele>104.80264</ele>
        <time>2020-08-12T11:04:44.776Z</time>
      </trkpt>
      <trkpt lat="65.08631" lon="12.01141">
        <ele>104.813071</ele>
        <time>2020-08-12T11:04:48.773Z</time>
      </trkpt>
      <trkpt lat="65.08636" lon="12.01167">
        <ele>104.824241</ele>
        <time>2020-08-12T11:04:52.784Z</time>
      </trkpt>
      <trkpt lat="65.0864" lon="12.01188">
        <ele>104.833267</ele>
        <time>2020-08-12T11:04:55.754Z</time>
      </trkpt>
      <trkpt lat="65.08645" lon="12.0121">
        <ele>104.843004</ele>
        <time>2020-08-12T11:04:58.755Z</time>
      </trkpt>
      <trkpt lat="65.08649" lon="12.01234">
        <ele>104.853219</ele>
        <time>2020-08-12T11:05:01.758Z</time>
      </trkpt>
      <trkpt lat="65.08654" lon="12.01258">
        <ele>104.863469</ele>
        <time>2020-08-12T11:05:04.746Z</time>
      </trkpt>
      <trkpt lat="65.08659" lon="12.01284">
        <ele>104.874828</ele>
        <time>2020-08-12T11:05:07.745Z</time>
      </trkpt>
      <trkpt lat="65.08664" lon="12.01309">
        <ele>104.665283</ele>
        <time>2020-08-12T11:05:10.773Z</time>
      </trkpt>
      <trkpt lat="65.0867" lon="12.01337">
        <ele>104.407942</ele>
        <time>2020-08-12T11:05:13.749Z</time>
      </trkpt>
      <trkpt lat="65.08674" lon="12.01356">
        <ele>104.227797</ele>
        <time>2020-08-12T11:05:15.804Z</time>
      </trkpt>
      <trkpt lat="65.0868" lon="12.01385">
        <ele>103.96981</ele>
        <time>2020-08-12T11:05:18.762Z</time>
      </trkpt>
      <trkpt lat="65.08686" lon="12.01411">
        <ele>103.722688</ele>
        <time>2020-08-12T11:05:21.768Z</time>
      </trkpt>
      <trkpt lat="65.08692" lon="12.01438">
        <ele>103.472271</ele>
        <time>2020-08-12T11:05:24.812Z</time>
      </trkpt>
      <trkpt lat="65.08697" lon="12.01466">
        <ele>103.216528</ele>
        <time>2020-08-12T11:05:27.754Z</time>
      </trkpt>
      <trkpt lat="65.08701" lon="12.01488">
        <ele>103.019777</ele>
        <time>2020-08-12T11:05:29.760Z</time>
      </trkpt>
      <trkpt lat="65.08705" lon="12.0151">
        <ele>102.817645</ele>
        <time>2020-08-12T11:05:31.747Z</time>
      </trkpt>
      <trkpt lat="65.08709" lon="12.01533">
        <ele>102.613054</ele>
        <time>2020-08-12T11:05:33.772Z</time>
      </trkpt>
      <trkpt lat="65.08712" lon="12.01559">
        <ele>102.392309</ele>
        <time>2020-08-12T11:05:35.759Z</time>
      </trkpt>
      <trkpt lat="65.08715" lon="12.01586">
        <ele>102.161492</ele>
        <time>2020-08-12T11:05:37.764Z</time>
      </trkpt>
      <trkpt lat="65.08719" lon="12.01614">
        <ele>101.919564</ele>
        <time>2020-08-12T11:05:39.755Z</time>
      </trkpt>
      <trkpt lat="65.08722" lon="12.01645">
        <ele>101.65797</ele>
        <time>2020-08-12T11:05:41.758Z</time>
      </trkpt>
      <trkpt lat="65.08725" lon="12.01681">
        <ele>101.354299</ele>
        <time>2020-08-12T11:05:43.764Z</time>
      </trkpt>
      <trkpt lat="65.08727" lon="12.01718">
        <ele>100.185433</ele>
        <time>2020-08-12T11:05:45.786Z</time>
      </trkpt>
      <trkpt lat="65.08729" lon="12.01756">
        <ele>98.972846</ele>
        <time>2020-08-12T11:05:47.785Z</time>
      </trkpt>
      <trkpt lat="65.0873" lon="12.01795">
        <ele>97.70686</ele>
        <time>2020-08-12T11:05:49.751Z</time>
      </trkpt>
      <trkpt lat="65.08729" lon="12.01835">
        <ele>96.442781</ele>
        <time>2020-08-12T11:05:51.756Z</time>
      </trkpt>
      <trkpt lat="65.08729" lon="12.01875">
        <ele>95.171869</ele>
        <time>2020-08-12T11:05:53.767Z</time>
      </trkpt>
      <trkpt lat="65.08728" lon="12.01914">
        <ele>93.904886</ele>
        <time>2020-08-12T11:05:55.761Z</time>
      </trkpt>
      <trkpt lat="65.08725" lon="12.01955">
        <ele>92.581776</ele>
        <time>2020-08-12T11:05:57.745Z</time>
      </trkpt>
      <trkpt lat="65.08724" lon="12.01976">
        <ele>91.902493</ele>
        <time>2020-08-12T11:05:58.769Z</time>
      </trkpt>
      <trkpt lat="65.0872" lon="12.02018">
        <ele>90.548051</ele>
        <time>2020-08-12T11:06:00.749Z</time>
      </trkpt>
      <trkpt lat="65.08719" lon="12.02039">
        <ele>89.86885</ele>
        <time>2020-08-12T11:06:01.755Z</time>
      </trkpt>
      <trkpt lat="65.08714" lon="12.02081">
        <ele>88.49882</ele>
        <time>2020-08-12T11:06:03.795Z</time>
      </trkpt>
      <trkpt lat="65.08709" lon="12.02119">
        <ele>87.370073</ele>
        <time>2020-08-12T11:06:05.744Z</time>
      </trkpt>
      <trkpt lat="65.08704" lon="12.02155">
        <ele>86.486027</ele>
        <time>2020-08-12T11:06:07.755Z</time>
      </trkpt>
      <trkpt lat="65.08698" lon="12.02191">
        <ele>85.637275</ele>
        <time>2020-08-12T11:06:09.745Z</time>
      </trkpt>
      <trkpt lat="65.08692" lon="12.02226">
        <ele>84.766748</ele>
        <time>2020-08-12T11:06:11.757Z</time>
      </trkpt>
      <trkpt lat="65.08686" lon="12.02262">
        <ele>83.902412</ele>
        <time>2020-08-12T11:06:13.765Z</time>
      </trkpt>
      <trkpt lat="65.08681" lon="12.02297">
        <ele>83.050224</ele>
        <time>2020-08-12T11:06:15.766Z</time>
      </trkpt>
      <trkpt lat="65.08675" lon="12.02333">
        <ele>82.185307</ele>
        <time>2020-08-12T11:06:17.787Z</time>
      </trkpt>
      <trkpt lat="65.0867" lon="12.02368">
        <ele>81.337351</ele>
        <time>2020-08-12T11:06:19.742Z</time>
      </trkpt>
      <trkpt lat="65.08665" lon="12.02399">
        <ele>80.579188</ele>
        <time>2020-08-12T11:06:21.760Z</time>
      </trkpt>
      <trkpt lat="65.08661" lon="12.02423">
        <ele>79.988297</ele>
        <time>2020-08-12T11:06:23.778Z</time>
      </trkpt>
      <trkpt lat="65.08656" lon="12.02452">
        <ele>79.302949</ele>
        <time>2020-08-12T11:06:26.749Z</time>
      </trkpt>
      <trkpt lat="65.08654" lon="12.0248">
        <ele>78.65248</ele>
        <time>2020-08-12T11:06:29.774Z</time>
      </trkpt>
      <trkpt lat="65.08651" lon="12.02508">
        <ele>78.004796</ele>
        <time>2020-08-12T11:06:32.752Z</time>
      </trkpt>
      <trkpt lat="65.08647" lon="12.02533">
        <ele>77.449953</ele>
        <time>2020-08-12T11:06:35.782Z</time>
      </trkpt>
      <trkpt lat="65.08642" lon="12.02551">
        <ele>76.998193</ele>
        <time>2020-08-12T11:06:38.758Z</time>
      </trkpt>
      <trkpt lat="65.08638" lon="12.02577">
        <ele>76.418712</ele>
        <time>2020-08-12T11:06:40.773Z</time>
      </trkpt>
      <trkpt lat="65.08632" lon="12.0261">
        <ele>75.691731</ele>
        <time>2020-08-12T11:06:42.770Z</time>
      </trkpt>
      <trkpt lat="65.08626" lon="12.02646">
        <ele>74.890556</ele>
        <time>2020-08-12T11:06:44.762Z</time>
      </trkpt>
      <trkpt lat="65.08619" lon="12.02691">
        <ele>73.897045</ele>
        <time>2020-08-12T11:06:46.765Z</time>
      </trkpt>
      <trkpt lat="65.08616" lon="12.02712">
        <ele>73.457867</ele>
        <time>2020-08-12T11:06:47.782Z</time>
      </trkpt>
      <trkpt lat="65.08613" lon="12.02734">
        <ele>72.976189</ele>
        <time>2020-08-12T11:06:48.763Z</time>
      </trkpt>
      <trkpt lat="65.0861" lon="12.02758">
        <ele>72.461661</ele>
        <time>2020-08-12T11:06:49.752Z</time>
      </trkpt>
      <trkpt lat="65.08606" lon="12.02781">
        <ele>71.949536</ele>
        <time>2020-08-12T11:06:50.755Z</time>
      </trkpt>
      <trkpt lat="65.08603" lon="12.02805">
        <ele>71.431543</ele>
        <time>2020-08-12T11:06:51.768Z</time>
      </trkpt>
      <trkpt lat="65.086" lon="12.02829">
        <ele>70.911592</ele>
        <time>2020-08-12T11:06:52.771Z</time>
      </trkpt>
      <trkpt lat="65.08596" lon="12.02853">
        <ele>70.393598</ele>
        <time>2020-08-12T11:06:53.758Z</time>
      </trkpt>
      <trkpt lat="65.08593" lon="12.02877">
        <ele>69.867477</ele>
        <time>2020-08-12T11:06:54.772Z</time>
      </trkpt>
      <trkpt lat="65.08589" lon="12.02898">
        <ele>69.405862</ele>
        <time>2020-08-12T11:06:55.777Z</time>
      </trkpt>
      <trkpt lat="65.08586" lon="12.02919">
        <ele>69.067626</ele>
        <time>2020-08-12T11:06:56.782Z</time>
      </trkpt>
      <trkpt lat="65.0858" lon="12.02956">
        <ele>68.555092</ele>
        <time>2020-08-12T11:06:58.771Z</time>
      </trkpt>
      <trkpt lat="65.08575" lon="12.02988">
        <ele>68.110503</ele>
        <time>2020-08-12T11:07:00.787Z</time>
      </trkpt>
      <trkpt lat="65.08569" lon="12.03016">
        <ele>67.709302</ele>
        <time>2020-08-12T11:07:02.750Z</time>
      </trkpt>
      <trkpt lat="65.08563" lon="12.03044">
        <ele>67.296109</ele>
        <time>2020-08-12T11:07:04.749Z</time>
      </trkpt>
      <trkpt lat="65.08556" lon="12.03071">
        <ele>66.892314</ele>
        <time>2020-08-12T11:07:06.741Z</time>
      </trkpt>
      <trkpt lat="65.08549" lon="12.03096">
        <ele>66.499548</ele>
        <time>2020-08-12T11:07:08.764Z</time>
      </trkpt>
      <trkpt lat="65.08541" lon="12.0312">
        <ele>66.110873</ele>
        <time>2020-08-12T11:07:10.766Z</time>
      </trkpt>
      <trkpt lat="65.08532" lon="12.03143">
        <ele>65.709121</ele>
        <time>2020-08-12T11:07:12.752Z</time>
      </trkpt>
      <trkpt lat="65.08522" lon="12.03167">
        <ele>65.274165</ele>
        <time>2020-08-12T11:07:14.758Z</time>
      </trkpt>
      <trkpt lat="65.08511" lon="12.03188">
        <ele>64.84988</ele>
        <time>2020-08-12T11:07:16.744Z</time>
      </trkpt>
      <trkpt lat="65.08501" lon="12.03207">
        <ele>64.459496</ele>
        <time>2020-08-12T11:07:18.774Z</time>
      </trkpt>
      <trkpt lat="65.08492" lon="12.03224">
        <ele>64.114652</ele>
        <time>2020-08-12T11:07:20.795Z</time>
      </trkpt>
      <trkpt lat="65.08484" lon="12.03238">
        <ele>63.812827</ele>
        <time>2020-08-12T11:07:22.786Z</time>
      </trkpt>
      <trkpt lat="65.08477" lon="12.0325">
        <ele>63.903158</ele>
        <time>2020-08-12T11:07:24.776Z</time>
      </trkpt>
      <trkpt lat="65.08467" lon="12.03264">
        <ele>64.123867</ele>
        <time>2020-08-12T11:07:27.763Z</time>
      </trkpt>
      <trkpt lat="65.08458" lon="12.03279">
        <ele>64.345348</ele>
        <time>2020-08-12T11:07:31.776Z</time>
      </trkpt>
      <trkpt lat="65.08448" lon="12.03292">
        <ele>64.559852</ele>
        <time>2020-08-12T11:07:35.769Z</time>
      </trkpt>
      <trkpt lat="65.08439" lon="12.03303">
        <ele>64.759538</ele>
        <time>2020-08-12T11:07:39.760Z</time>
      </trkpt>
      <trkpt lat="65.08429" lon="12.03315">
        <ele>64.988823</ele>
        <time>2020-08-12T11:07:44.772Z</time>
      </trkpt>
      <trkpt lat="65.0842" lon="12.03323">
        <ele>65.174291</ele>
        <time>2020-08-12T11:07:47.790Z</time>
      </trkpt>
      <trkpt lat="65.08411" lon="12.03332">
        <ele>65.366433</ele>
        <time>2020-08-12T11:07:50.754Z</time>
      </trkpt>
      <trkpt lat="65.08402" lon="12.0334">
        <ele>65.555902</ele>
        <time>2020-08-12T11:07:52.770Z</time>
      </trkpt>
      <trkpt lat="65.08391" lon="12.03347">
        <ele>65.776406</ele>
        <time>2020-08-12T11:07:54.754Z</time>
      </trkpt>
      <trkpt lat="65.08377" lon="12.03356">
        <ele>66.057497</ele>
        <time>2020-08-12T11:07:56.764Z</time>
      </trkpt>
      <trkpt lat="65.08361" lon="12.03365">
        <ele>66.370847</ele>
        <time>2020-08-12T11:07:58.797Z</time>
      </trkpt>
      <trkpt lat="65.08344" lon="12.03374">
        <ele>66.710075</ele>
        <time>2020-08-12T11:08:00.753Z</time>
      </trkpt>
      <trkpt lat="65.08336" lon="12.03378">
        <ele>66.885594</ele>
        <time>2020-08-12T11:08:01.770Z</time>
      </trkpt>
      <trkpt lat="65.08325" lon="12.03384">
        <ele>67.107665</ele>
        <time>2020-08-12T11:08:02.809Z</time>
      </trkpt>
      <trkpt lat="65.08309" lon="12.03391">
        <ele>67.038627</ele>
        <time>2020-08-12T11:08:04.752Z</time>
      </trkpt>
      <trkpt lat="65.083" lon="12.03395">
        <ele>66.752599</ele>
        <time>2020-08-12T11:08:05.778Z</time>
      </trkpt>
      <trkpt lat="65.0829" lon="12.03399">
        <ele>66.463022</ele>
        <time>2020-08-12T11:08:06.821Z</time>
      </trkpt>
      <trkpt lat="65.08281" lon="12.03403">
        <ele>66.159648</ele>
        <time>2020-08-12T11:08:07.750Z</time>
      </trkpt>
      <trkpt lat="65.08271" lon="12.03409">
        <ele>65.842668</ele>
        <time>2020-08-12T11:08:08.747Z</time>
      </trkpt>
      <trkpt lat="65.08261" lon="12.03413">
        <ele>65.508335</ele>
        <time>2020-08-12T11:08:09.773Z</time>
      </trkpt>
      <trkpt lat="65.08251" lon="12.03418">
        <ele>65.188571</ele>
        <time>2020-08-12T11:08:10.791Z</time>
      </trkpt>
      <trkpt lat="65.0824" lon="12.03423">
        <ele>64.847088</ele>
        <time>2020-08-12T11:08:11.775Z</time>
      </trkpt>
      <trkpt lat="65.08229" lon="12.03429">
        <ele>64.502277</ele>
        <time>2020-08-12T11:08:12.769Z</time>
      </trkpt>
      <trkpt lat="65.08219" lon="12.03434">
        <ele>64.175843</ele>
        <time>2020-08-12T11:08:13.743Z</time>
      </trkpt>
      <trkpt lat="65.08208" lon="12.03438">
        <ele>63.826124</ele>
        <time>2020-08-12T11:08:14.774Z</time>
      </trkpt>
      <trkpt lat="65.08197" lon="12.03443">
        <ele>63.479004</ele>
        <time>2020-08-12T11:08:15.746Z</time>
      </trkpt>
      <trkpt lat="65.08186" lon="12.03448">
        <ele>63.141835</ele>
        <time>2020-08-12T11:08:16.766Z</time>
      </trkpt>
      <trkpt lat="65.08176" lon="12.03452">
        <ele>62.80513</ele>
        <time>2020-08-12T11:08:17.744Z</time>
      </trkpt>
      <trkpt lat="65.08166" lon="12.03457">
        <ele>62.482303</ele>
        <time>2020-08-12T11:08:18.753Z</time>
      </trkpt>
      <trkpt lat="65.08155" lon="12.03462">
        <ele>62.142056</ele>
        <time>2020-08-12T11:08:19.774Z</time>
      </trkpt>
      <trkpt lat="65.08144" lon="12.03466">
        <ele>61.805796</ele>
        <time>2020-08-12T11:08:20.751Z</time>
      </trkpt>
      <trkpt lat="65.08134" lon="12.03471">
        <ele>61.372421</ele>
        <time>2020-08-12T11:08:21.747Z</time>
      </trkpt>
      <trkpt lat="65.08123" lon="12.03476">
        <ele>60.840503</ele>
        <time>2020-08-12T11:08:22.749Z</time>
      </trkpt>
      <trkpt lat="65.08111" lon="12.03481">
        <ele>60.30254</ele>
        <time>2020-08-12T11:08:23.771Z</time>
      </trkpt>
      <trkpt lat="65.081" lon="12.03485">
        <ele>59.750664</ele>
        <time>2020-08-12T11:08:24.790Z</time>
      </trkpt>
      <trkpt lat="65.08088" lon="12.0349">
        <ele>59.19679</ele>
        <time>2020-08-12T11:08:25.775Z</time>
      </trkpt>
      <trkpt lat="65.08076" lon="12.03495">
        <ele>58.628695</ele>
        <time>2020-08-12T11:08:26.754Z</time>
      </trkpt>
      <trkpt lat="65.08064" lon="12.03501">
        <ele>58.058758</ele>
        <time>2020-08-12T11:08:27.749Z</time>
      </trkpt>
      <trkpt lat="65.08053" lon="12.03508">
        <ele>57.515646</ele>
        <time>2020-08-12T11:08:28.792Z</time>
      </trkpt>
      <trkpt lat="65.08041" lon="12.03516">
        <ele>56.935134</ele>
        <time>2020-08-12T11:08:29.760Z</time>
      </trkpt>
      <trkpt lat="65.0803" lon="12.03525">
        <ele>56.387213</ele>
        <time>2020-08-12T11:08:30.754Z</time>
      </trkpt>
      <trkpt lat="65.08019" lon="12.03535">
        <ele>55.820751</ele>
        <time>2020-08-12T11:08:31.777Z</time>
      </trkpt>
      <trkpt lat="65.08007" lon="12.03547">
        <ele>55.233718</ele>
        <time>2020-08-12T11:08:32.766Z</time>
      </trkpt>
      <trkpt lat="65.07995" lon="12.03559">
        <ele>54.585643</ele>
        <time>2020-08-12T11:08:33.753Z</time>
      </trkpt>
      <trkpt lat="65.07984" lon="12.03572">
        <ele>54.028353</ele>
        <time>2020-08-12T11:08:34.774Z</time>
      </trkpt>
      <trkpt lat="65.07976" lon="12.03586">
        <ele>53.54913</ele>
        <time>2020-08-12T11:08:35.748Z</time>
      </trkpt>
      <trkpt lat="65.07967" lon="12.03602">
        <ele>53.25571</ele>
        <time>2020-08-12T11:08:36.800Z</time>
      </trkpt>
      <trkpt lat="65.07958" lon="12.03617">
        <ele>53.421364</ele>
        <time>2020-08-12T11:08:37.765Z</time>
      </trkpt>
      <trkpt lat="65.0795" lon="12.03632">
        <ele>53.569233</ele>
        <time>2020-08-12T11:08:38.746Z</time>
      </trkpt>
      <trkpt lat="65.07943" lon="12.03647">
        <ele>53.705971</ele>
        <time>2020-08-12T11:08:39.765Z</time>
      </trkpt>
      <trkpt lat="65.07933" lon="12.03675">
        <ele>53.945235</ele>
        <time>2020-08-12T11:08:41.747Z</time>
      </trkpt>
      <trkpt lat="65.07924" lon="12.03699">
        <ele>54.14535</ele>
        <time>2020-08-12T11:08:43.765Z</time>
      </trkpt>
      <trkpt lat="65.07916" lon="12.0372">
        <ele>54.32929</ele>
        <time>2020-08-12T11:08:45.746Z</time>
      </trkpt>
      <trkpt lat="65.07909" lon="12.03736">
        <ele>54.465879</ele>
        <time>2020-08-12T11:08:47.774Z</time>
      </trkpt>
      <trkpt lat="65.07901" lon="12.03754">
        <ele>54.631922</ele>
        <time>2020-08-12T11:08:50.749Z</time>
      </trkpt>
      <trkpt lat="65.07894" lon="12.03769">
        <ele>54.781788</ele>
        <time>2020-08-12T11:08:53.747Z</time>
      </trkpt>
      <trkpt lat="65.07885" lon="12.03784">
        <ele>54.94391</ele>
        <time>2020-08-12T11:08:57.759Z</time>
      </trkpt>
      <trkpt lat="65.07875" lon="12.03799">
        <ele>55.115896</ele>
        <time>2020-08-12T11:09:01.750Z</time>
      </trkpt>
      <trkpt lat="65.07866" lon="12.03811">
        <ele>55.270986</ele>
        <time>2020-08-12T11:09:05.765Z</time>
      </trkpt>
      <trkpt lat="65.07856" lon="12.03822">
        <ele>55.43727</ele>
        <time>2020-08-12T11:09:09.817Z</time>
      </trkpt>
      <trkpt lat="65.07847" lon="12.0383">
        <ele>55.578803</ele>
        <time>2020-08-12T11:09:12.753Z</time>
      </trkpt>
      <trkpt lat="65.07837" lon="12.03839">
        <ele>55.74208</ele>
        <time>2020-08-12T11:09:15.741Z</time>
      </trkpt>
      <trkpt lat="65.07826" lon="12.03849">
        <ele>55.961302</ele>
        <time>2020-08-12T11:09:19.779Z</time>
      </trkpt>
      <trkpt lat="65.07817" lon="12.03855">
        <ele>56.346526</ele>
        <time>2020-08-12T11:09:22.741Z</time>
      </trkpt>
      <trkpt lat="65.07807" lon="12.03862">
        <ele>56.774242</ele>
        <time>2020-08-12T11:09:26.767Z</time>
      </trkpt>
      <trkpt lat="65.07797" lon="12.03868">
        <ele>57.194865</ele>
        <time>2020-08-12T11:09:30.769Z</time>
      </trkpt>
      <trkpt lat="65.07786" lon="12.03872">
        <ele>57.64503</ele>
        <time>2020-08-12T11:09:35.744Z</time>
      </trkpt>
      <trkpt lat="65.07776" lon="12.03876">
        <ele>58.090608</ele>
        <time>2020-08-12T11:09:39.750Z</time>
      </trkpt>
      <trkpt lat="65.07766" lon="12.03878">
        <ele>58.513162</ele>
        <time>2020-08-12T11:09:43.750Z</time>
      </trkpt>
      <trkpt lat="65.07756" lon="12.03879">
        <ele>58.90502</ele>
        <time>2020-08-12T11:09:47.781Z</time>
      </trkpt>
      <trkpt lat="65.07746" lon="12.03881">
        <ele>59.33437</ele>
        <time>2020-08-12T11:09:51.781Z</time>
      </trkpt>
      <trkpt lat="65.07736" lon="12.03882">
        <ele>59.751276</ele>
        <time>2020-08-12T11:09:55.772Z</time>
      </trkpt>
      <trkpt lat="65.07725" lon="12.03883">
        <ele>60.184545</ele>
        <time>2020-08-12T11:09:59.799Z</time>
      </trkpt>
      <trkpt lat="65.07716" lon="12.03884">
        <ele>60.571959</ele>
        <time>2020-08-12T11:10:03.754Z</time>
      </trkpt>
      <trkpt lat="65.07706" lon="12.03885">
        <ele>60.956462</ele>
        <time>2020-08-12T11:10:07.752Z</time>
      </trkpt>
      <trkpt lat="65.07697" lon="12.03887">
        <ele>61.349046</ele>
        <time>2020-08-12T11:10:11.773Z</time>
      </trkpt>
      <trkpt lat="65.07686" lon="12.03889">
        <ele>61.811212</ele>
        <time>2020-08-12T11:10:15.753Z</time>
      </trkpt>
      <trkpt lat="65.07675" lon="12.0389">
        <ele>62.261585</ele>
        <time>2020-08-12T11:10:19.766Z</time>
      </trkpt>
      <trkpt lat="65.07664" lon="12.03893">
        <ele>62.704639</ele>
        <time>2020-08-12T11:10:23.757Z</time>
      </trkpt>
      <trkpt lat="65.07654" lon="12.03898">
        <ele>63.132807</ele>
        <time>2020-08-12T11:10:27.742Z</time>
      </trkpt>
      <trkpt lat="65.07644" lon="12.03902">
        <ele>63.279639</ele>
        <time>2020-08-12T11:10:31.773Z</time>
      </trkpt>
      <trkpt lat="65.07634" lon="12.03911">
        <ele>63.241756</ele>
        <time>2020-08-12T11:10:36.766Z</time>
      </trkpt>
      <trkpt lat="65.07624" lon="12.03924">
        <ele>63.201198</ele>
        <time>2020-08-12T11:10:41.772Z</time>
      </trkpt>
      <trkpt lat="65.07616" lon="12.03936">
        <ele>63.167411</ele>
        <time>2020-08-12T11:10:45.783Z</time>
      </trkpt>
      <trkpt lat="65.07609" lon="12.03951">
        <ele>63.133276</ele>
        <time>2020-08-12T11:10:49.766Z</time>
      </trkpt>
      <trkpt lat="65.07602" lon="12.03968">
        <ele>63.097031</ele>
        <time>2020-08-12T11:10:53.742Z</time>
      </trkpt>
      <trkpt lat="65.07596" lon="12.03984">
        <ele>63.063033</ele>
        <time>2020-08-12T11:10:57.747Z</time>
      </trkpt>
      <trkpt lat="65.0759" lon="12.04006">
        <ele>63.024088</ele>
        <time>2020-08-12T11:11:02.773Z</time>
      </trkpt>
      <trkpt lat="65.07587" lon="12.04027">
        <ele>62.989169</ele>
        <time>2020-08-12T11:11:06.746Z</time>
      </trkpt>
      <trkpt lat="65.07583" lon="12.04047">
        <ele>62.955509</ele>
        <time>2020-08-12T11:11:09.757Z</time>
      </trkpt>
      <trkpt lat="65.0758" lon="12.04071">
        <ele>62.918242</ele>
        <time>2020-08-12T11:11:12.745Z</time>
      </trkpt>
      <trkpt lat="65.07577" lon="12.04099">
        <ele>62.87362</ele>
        <time>2020-08-12T11:11:15.757Z</time>
      </trkpt>
      <trkpt lat="65.07574" lon="12.04131">
        <ele>62.823451</ele>
        <time>2020-08-12T11:11:18.793Z</time>
      </trkpt>
      <trkpt lat="65.07571" lon="12.04158">
        <ele>62.780345</ele>
        <time>2020-08-12T11:11:20.754Z</time>
      </trkpt>
      <trkpt lat="65.07567" lon="12.04189">
        <ele>62.731851</ele>
        <time>2020-08-12T11:11:22.768Z</time>
      </trkpt>
      <trkpt lat="65.07563" lon="12.04226">
        <ele>62.673355</ele>
        <time>2020-08-12T11:11:24.763Z</time>
      </trkpt>
      <trkpt lat="65.07558" lon="12.04265">
        <ele>61.974895</ele>
        <time>2020-08-12T11:11:26.748Z</time>
      </trkpt>
      <trkpt lat="65.07555" lon="12.04303">
        <ele>60.966879</ele>
        <time>2020-08-12T11:11:28.754Z</time>
      </trkpt>
      <trkpt lat="65.07554" lon="12.04327">
        <ele>60.338455</ele>
        <time>2020-08-12T11:11:29.774Z</time>
      </trkpt>
      <trkpt lat="65.07553" lon="12.0435">
        <ele>59.740309</ele>
        <time>2020-08-12T11:11:30.756Z</time>
      </trkpt>
      <trkpt lat="65.07553" lon="12.04372">
        <ele>59.167621</ele>
        <time>2020-08-12T11:11:31.751Z</time>
      </trkpt>
      <trkpt lat="65.07554" lon="12.04414">
        <ele>58.073581</ele>
        <time>2020-08-12T11:11:33.754Z</time>
      </trkpt>
      <trkpt lat="65.07554" lon="12.04436">
        <ele>57.515356</ele>
        <time>2020-08-12T11:11:34.761Z</time>
      </trkpt>
      <trkpt lat="65.07555" lon="12.04459">
        <ele>56.897015</ele>
        <time>2020-08-12T11:11:35.762Z</time>
      </trkpt>
      <trkpt lat="65.07556" lon="12.04484">
        <ele>56.244967</ele>
        <time>2020-08-12T11:11:36.762Z</time>
      </trkpt>
      <trkpt lat="65.07557" lon="12.04509">
        <ele>55.598547</ele>
        <time>2020-08-12T11:11:37.741Z</time>
      </trkpt>
      <trkpt lat="65.07557" lon="12.04535">
        <ele>54.929141</ele>
        <time>2020-08-12T11:11:38.766Z</time>
      </trkpt>
      <trkpt lat="65.07558" lon="12.04561">
        <ele>54.248984</ele>
        <time>2020-08-12T11:11:39.782Z</time>
      </trkpt>
      <trkpt lat="65.07559" lon="12.04587">
        <ele>53.575708</ele>
        <time>2020-08-12T11:11:40.753Z</time>
      </trkpt>
      <trkpt lat="65.0756" lon="12.04616">
        <ele>52.803899</ele>
        <time>2020-08-12T11:11:41.745Z</time>
      </trkpt>
      <trkpt lat="65.07561" lon="12.04643">
        <ele>52.109887</ele>
        <time>2020-08-12T11:11:42.777Z</time>
      </trkpt>
      <trkpt lat="65.07562" lon="12.04669">
        <ele>51.466903</ele>
        <time>2020-08-12T11:11:43.769Z</time>
      </trkpt>
      <trkpt lat="65.07563" lon="12.04693">
        <ele>50.969351</ele>
        <time>2020-08-12T11:11:44.765Z</time>
      </trkpt>
      <trkpt lat="65.07563" lon="12.04717">
        <ele>50.504335</ele>
        <time>2020-08-12T11:11:45.759Z</time>
      </trkpt>
      <trkpt lat="65.07565" lon="12.04753">
        <ele>49.77079</ele>
        <time>2020-08-12T11:11:47.741Z</time>
      </trkpt>
      <trkpt lat="65.07558" lon="12.04778">
        <ele>49.164146</ele>
        <time>2020-08-12T11:11:51.746Z</time>
      </trkpt>
      <trkpt lat="65.07551" lon="12.04794">
        <ele>48.710581</ele>
        <time>2020-08-12T11:11:52.752Z</time>
      </trkpt>
      <trkpt lat="65.07557" lon="12.0483">
        <ele>47.923966</ele>
        <time>2020-08-12T11:11:57.786Z</time>
      </trkpt>
      <trkpt lat="65.07559" lon="12.04854">
        <ele>47.449019</ele>
        <time>2020-08-12T11:11:58.754Z</time>
      </trkpt>
      <trkpt lat="65.07561" lon="12.04875">
        <ele>47.011112</ele>
        <time>2020-08-12T11:11:59.748Z</time>
      </trkpt>
      <trkpt lat="65.07566" lon="12.04908">
        <ele>46.3117</ele>
        <time>2020-08-12T11:12:01.762Z</time>
      </trkpt>
      <trkpt lat="65.07568" lon="12.04933">
        <ele>45.816167</ele>
        <time>2020-08-12T11:12:03.769Z</time>
      </trkpt>
      <trkpt lat="65.0757" lon="12.04956">
        <ele>45.347996</ele>
        <time>2020-08-12T11:12:05.790Z</time>
      </trkpt>
      <trkpt lat="65.07571" lon="12.04978">
        <ele>44.903882</ele>
        <time>2020-08-12T11:12:07.770Z</time>
      </trkpt>
      <trkpt lat="65.07571" lon="12.05">
        <ele>44.468984</ele>
        <time>2020-08-12T11:12:09.757Z</time>
      </trkpt>
      <trkpt lat="65.07573" lon="12.05022">
        <ele>44.033631</ele>
        <time>2020-08-12T11:12:11.778Z</time>
      </trkpt>
      <trkpt lat="65.07574" lon="12.05053">
        <ele>43.413455</ele>
        <time>2020-08-12T11:12:14.767Z</time>
      </trkpt>
      <trkpt lat="65.07575" lon="12.05076">
        <ele>43.098821</ele>
        <time>2020-08-12T11:12:16.784Z</time>
      </trkpt>
      <trkpt lat="65.07576" lon="12.05108">
        <ele>43.319079</ele>
        <time>2020-08-12T11:12:19.764Z</time>
      </trkpt>
      <trkpt lat="65.07577" lon="12.05137">
        <ele>43.516211</ele>
        <time>2020-08-12T11:12:22.773Z</time>
      </trkpt>
      <trkpt lat="65.07577" lon="12.05167">
        <ele>43.726564</ele>
        <time>2020-08-12T11:12:25.741Z</time>
      </trkpt>
      <trkpt lat="65.07578" lon="12.05199">
        <ele>43.945629</ele>
        <time>2020-08-12T11:12:28.771Z</time>
      </trkpt>
      <trkpt lat="65.07579" lon="12.05228">
        <ele>44.142377</ele>
        <time>2020-08-12T11:12:31.771Z</time>
      </trkpt>
      <trkpt lat="65.07579" lon="12.05258">
        <ele>44.351455</ele>
        <time>2020-08-12T11:12:34.787Z</time>
      </trkpt>
      <trkpt lat="65.0758" lon="12.05289">
        <ele>44.561325</ele>
        <time>2020-08-12T11:12:37.782Z</time>
      </trkpt>
      <trkpt lat="65.07581" lon="12.05319">
        <ele>44.768712</ele>
        <time>2020-08-12T11:12:40.749Z</time>
      </trkpt>
      <trkpt lat="65.07582" lon="12.05348">
        <ele>44.969471</ele>
        <time>2020-08-12T11:12:43.781Z</time>
      </trkpt>
      <trkpt lat="65.07583" lon="12.05377">
        <ele>45.172128</ele>
        <time>2020-08-12T11:12:46.775Z</time>
      </trkpt>
      <trkpt lat="65.07584" lon="12.05407">
        <ele>45.375275</ele>
        <time>2020-08-12T11:12:49.748Z</time>
      </trkpt>
      <trkpt lat="65.07584" lon="12.05435">
        <ele>45.565069</ele>
        <time>2020-08-12T11:12:52.755Z</time>
      </trkpt>
      <trkpt lat="65.07585" lon="12.05463">
        <ele>45.763871</ele>
        <time>2020-08-12T11:12:55.738Z</time>
      </trkpt>
      <trkpt lat="65.07586" lon="12.05494">
        <ele>45.974545</ele>
        <time>2020-08-12T11:12:58.742Z</time>
      </trkpt>
      <trkpt lat="65.07587" lon="12.05523">
        <ele>46.19019</ele>
        <time>2020-08-12T11:13:01.742Z</time>
      </trkpt>
      <trkpt lat="65.07587" lon="12.05552">
        <ele>46.401966</ele>
        <time>2020-08-12T11:13:04.769Z</time>
      </trkpt>
      <trkpt lat="65.07588" lon="12.05578">
        <ele>46.595982</ele>
        <time>2020-08-12T11:13:07.794Z</time>
      </trkpt>
      <trkpt lat="65.07587" lon="12.05604">
        <ele>46.790793</ele>
        <time>2020-08-12T11:13:10.755Z</time>
      </trkpt>
      <trkpt lat="65.07588" lon="12.05629">
        <ele>46.969967</ele>
        <time>2020-08-12T11:13:13.781Z</time>
      </trkpt>
      <trkpt lat="65.07588" lon="12.05651">
        <ele>47.1373</ele>
        <time>2020-08-12T11:13:16.754Z</time>
      </trkpt>
      <trkpt lat="65.07588" lon="12.05679">
        <ele>47.343836</ele>
        <time>2020-08-12T11:13:20.765Z</time>
      </trkpt>
      <trkpt lat="65.07588" lon="12.05703">
        <ele>47.518112</ele>
        <time>2020-08-12T11:13:23.753Z</time>
      </trkpt>
      <trkpt lat="65.07588" lon="12.05724">
        <ele>47.676564</ele>
        <time>2020-08-12T11:13:26.749Z</time>
      </trkpt>
      <trkpt lat="65.07588" lon="12.05747">
        <ele>47.843868</ele>
        <time>2020-08-12T11:13:29.767Z</time>
      </trkpt>
      <trkpt lat="65.07589" lon="12.05774">
        <ele>48.04614</ele>
        <time>2020-08-12T11:13:33.757Z</time>
      </trkpt>
      <trkpt lat="65.0759" lon="12.05802">
        <ele>48.254216</ele>
        <time>2020-08-12T11:13:37.774Z</time>
      </trkpt>
      <trkpt lat="65.0759" lon="12.05829">
        <ele>48.457164</ele>
        <time>2020-08-12T11:13:41.768Z</time>
      </trkpt>
      <trkpt lat="65.07591" lon="12.05856">
        <ele>48.658875</ele>
        <time>2020-08-12T11:13:45.749Z</time>
      </trkpt>
      <trkpt lat="65.07593" lon="12.05879">
        <ele>48.830193</ele>
        <time>2020-08-12T11:13:48.799Z</time>
      </trkpt>
      <trkpt lat="65.07594" lon="12.05901">
        <ele>48.994986</ele>
        <time>2020-08-12T11:13:51.756Z</time>
      </trkpt>
      <trkpt lat="65.07596" lon="12.05929">
        <ele>49.189485</ele>
        <time>2020-08-12T11:13:55.747Z</time>
      </trkpt>
      <trkpt lat="65.07598" lon="12.05954">
        <ele>49.325334</ele>
        <time>2020-08-12T11:13:59.780Z</time>
      </trkpt>
      <trkpt lat="65.076" lon="12.05975">
        <ele>49.439665</ele>
        <time>2020-08-12T11:14:02.758Z</time>
      </trkpt>
      <trkpt lat="65.07602" lon="12.05997">
        <ele>49.555303</ele>
        <time>2020-08-12T11:14:05.787Z</time>
      </trkpt>
      <trkpt lat="65.07604" lon="12.06023">
        <ele>49.700213</ele>
        <time>2020-08-12T11:14:09.741Z</time>
      </trkpt>
      <trkpt lat="65.07606" lon="12.0605">
        <ele>49.847932</ele>
        <time>2020-08-12T11:14:13.790Z</time>
      </trkpt>
      <trkpt lat="65.07609" lon="12.06073">
        <ele>49.969044</ele>
        <time>2020-08-12T11:14:16.758Z</time>
      </trkpt>
      <trkpt lat="65.07611" lon="12.06097">
        <ele>50.101096</ele>
        <time>2020-08-12T11:14:19.765Z</time>
      </trkpt>
      <trkpt lat="65.07613" lon="12.0612">
        <ele>50.228479</ele>
        <time>2020-08-12T11:14:22.761Z</time>
      </trkpt>
      <trkpt lat="65.07615" lon="12.06143">
        <ele>50.355061</ele>
        <time>2020-08-12T11:14:25.754Z</time>
      </trkpt>
      <trkpt lat="65.07618" lon="12.06168">
        <ele>50.492437</ele>
        <time>2020-08-12T11:14:28.766Z</time>
      </trkpt>
      <trkpt lat="65.07621" lon="12.06197">
        <ele>50.650006</ele>
        <time>2020-08-12T11:14:31.764Z</time>
      </trkpt>
      <trkpt lat="65.07624" lon="12.06223">
        <ele>50.791445</ele>
        <time>2020-08-12T11:14:34.761Z</time>
      </trkpt>
      <trkpt lat="65.07628" lon="12.06252">
        <ele>50.955389</ele>
        <time>2020-08-12T11:14:37.748Z</time>
      </trkpt>
      <trkpt lat="65.07632" lon="12.06272">
        <ele>51.074256</ele>
        <time>2020-08-12T11:14:39.762Z</time>
      </trkpt>
      <trkpt lat="65.07637" lon="12.06293">
        <ele>51.201422</ele>
        <time>2020-08-12T11:14:41.768Z</time>
      </trkpt>
      <trkpt lat="65.07642" lon="12.06312">
        <ele>51.322015</ele>
        <time>2020-08-12T11:14:43.764Z</time>
      </trkpt>
      <trkpt lat="65.07648" lon="12.0633">
        <ele>51.411538</ele>
        <time>2020-08-12T11:14:45.784Z</time>
      </trkpt>
      <trkpt lat="65.07655" lon="12.06354">
        <ele>51.327686</ele>
        <time>2020-08-12T11:14:48.753Z</time>
      </trkpt>
      <trkpt lat="65.07662" lon="12.06378">
        <ele>51.244545</ele>
        <time>2020-08-12T11:14:51.780Z</time>
      </trkpt>
      <trkpt lat="65.07669" lon="12.06399">
        <ele>51.168426</ele>
        <time>2020-08-12T11:14:54.784Z</time>
      </trkpt>
      <trkpt lat="65.07676" lon="12.0642">
        <ele>51.091484</ele>
        <time>2020-08-12T11:14:57.765Z</time>
      </trkpt>
      <trkpt lat="65.07681" lon="12.06441">
        <ele>51.0225</ele>
        <time>2020-08-12T11:15:00.786Z</time>
      </trkpt>
      <trkpt lat="65.07688" lon="12.06465">
        <ele>50.938972</ele>
        <time>2020-08-12T11:15:03.765Z</time>
      </trkpt>
      <trkpt lat="65.07694" lon="12.06487">
        <ele>50.865463</ele>
        <time>2020-08-12T11:15:06.794Z</time>
      </trkpt>
      <trkpt lat="65.07699" lon="12.06512">
        <ele>50.786321</ele>
        <time>2020-08-12T11:15:09.794Z</time>
      </trkpt>
      <trkpt lat="65.07705" lon="12.0653">
        <ele>50.72213</ele>
        <time>2020-08-12T11:15:11.773Z</time>
      </trkpt>
      <trkpt lat="65.0771" lon="12.06552">
        <ele>50.650931</ele>
        <time>2020-08-12T11:15:14.747Z</time>
      </trkpt>
      <trkpt lat="65.07715" lon="12.06579">
        <ele>50.567711</ele>
        <time>2020-08-12T11:15:17.757Z</time>
      </trkpt>
      <trkpt lat="65.07718" lon="12.06607">
        <ele>50.485338</ele>
        <time>2020-08-12T11:15:20.765Z</time>
      </trkpt>
      <trkpt lat="65.07722" lon="12.06633">
        <ele>50.405265</ele>
        <time>2020-08-12T11:15:23.782Z</time>
      </trkpt>
      <trkpt lat="65.07727" lon="12.06659">
        <ele>50.325122</ele>
        <time>2020-08-12T11:15:26.772Z</time>
      </trkpt>
      <trkpt lat="65.07731" lon="12.06684">
        <ele>50.248151</ele>
        <time>2020-08-12T11:15:29.791Z</time>
      </trkpt>
      <trkpt lat="65.07735" lon="12.06713">
        <ele>50.232783</ele>
        <time>2020-08-12T11:15:32.790Z</time>
      </trkpt>
      <trkpt lat="65.07739" lon="12.0674">
        <ele>50.286319</ele>
        <time>2020-08-12T11:15:35.754Z</time>
      </trkpt>
      <trkpt lat="65.07743" lon="12.06769">
        <ele>50.342069</ele>
        <time>2020-08-12T11:15:38.746Z</time>
      </trkpt>
      <trkpt lat="65.07746" lon="12.06789">
        <ele>50.3813</ele>
        <time>2020-08-12T11:15:40.782Z</time>
      </trkpt>
      <trkpt lat="65.07749" lon="12.0681">
        <ele>50.422303</ele>
        <time>2020-08-12T11:15:42.757Z</time>
      </trkpt>
      <trkpt lat="65.07753" lon="12.06832">
        <ele>50.466028</ele>
        <time>2020-08-12T11:15:44.754Z</time>
      </trkpt>
      <trkpt lat="65.07756" lon="12.06854">
        <ele>50.508229</ele>
        <time>2020-08-12T11:15:46.765Z</time>
      </trkpt>
      <trkpt lat="65.07759" lon="12.06876">
        <ele>50.550166</ele>
        <time>2020-08-12T11:15:48.781Z</time>
      </trkpt>
      <trkpt lat="65.07763" lon="12.06896">
        <ele>50.590987</ele>
        <time>2020-08-12T11:15:50.785Z</time>
      </trkpt>
      <trkpt lat="65.07766" lon="12.06917">
        <ele>50.630334</ele>
        <time>2020-08-12T11:15:52.769Z</time>
      </trkpt>
      <trkpt lat="65.0777" lon="12.06945">
        <ele>50.683866</ele>
        <time>2020-08-12T11:15:55.787Z</time>
      </trkpt>
      <trkpt lat="65.07773" lon="12.06972">
        <ele>50.73657</ele>
        <time>2020-08-12T11:15:58.760Z</time>
      </trkpt>
      <trkpt lat="65.07777" lon="12.06999">
        <ele>50.788796</ele>
        <time>2020-08-12T11:16:01.775Z</time>
      </trkpt>
      <trkpt lat="65.0778" lon="12.07025">
        <ele>50.837443</ele>
        <time>2020-08-12T11:16:04.754Z</time>
      </trkpt>
      <trkpt lat="65.07782" lon="12.07052">
        <ele>50.888594</ele>
        <time>2020-08-12T11:16:08.754Z</time>
      </trkpt>
      <trkpt lat="65.07784" lon="12.07078">
        <ele>50.936457</ele>
        <time>2020-08-12T11:16:12.776Z</time>
      </trkpt>
      <trkpt lat="65.07786" lon="12.07106">
        <ele>50.985533</ele>
        <time>2020-08-12T11:16:16.744Z</time>
      </trkpt>
      <trkpt lat="65.07786" lon="12.07132">
        <ele>50.95679</ele>
        <time>2020-08-12T11:16:19.771Z</time>
      </trkpt>
      <trkpt lat="65.07787" lon="12.07156">
        <ele>50.928809</ele>
        <time>2020-08-12T11:16:22.765Z</time>
      </trkpt>
      <trkpt lat="65.07786" lon="12.07178">
        <ele>50.903543</ele>
        <time>2020-08-12T11:16:25.742Z</time>
      </trkpt>
      <trkpt lat="65.07784" lon="12.07201">
        <ele>50.877079</ele>
        <time>2020-08-12T11:16:28.745Z</time>
      </trkpt>
      <trkpt lat="65.07783" lon="12.07224">
        <ele>50.85001</ele>
        <time>2020-08-12T11:16:31.777Z</time>
      </trkpt>
      <trkpt lat="65.07781" lon="12.07248">
        <ele>50.822244</ele>
        <time>2020-08-12T11:16:34.746Z</time>
      </trkpt>
      <trkpt lat="65.07778" lon="12.0727">
        <ele>50.796548</ele>
        <time>2020-08-12T11:16:37.780Z</time>
      </trkpt>
      <trkpt lat="65.07775" lon="12.07291">
        <ele>50.77088</ele>
        <time>2020-08-12T11:16:40.758Z</time>
      </trkpt>
      <trkpt lat="65.07772" lon="12.07311">
        <ele>50.746573</ele>
        <time>2020-08-12T11:16:43.767Z</time>
      </trkpt>
      <trkpt lat="65.07768" lon="12.0733">
        <ele>50.721705</ele>
        <time>2020-08-12T11:16:46.775Z</time>
      </trkpt>
      <trkpt lat="65.07763" lon="12.07351">
        <ele>50.695435</ele>
        <time>2020-08-12T11:16:49.782Z</time>
      </trkpt>
      <trkpt lat="65.07758" lon="12.07371">
        <ele>50.668523</ele>
        <time>2020-08-12T11:16:52.781Z</time>
      </trkpt>
      <trkpt lat="65.07754" lon="12.07392">
        <ele>50.641371</ele>
        <time>2020-08-12T11:16:55.794Z</time>
      </trkpt>
      <trkpt lat="65.07749" lon="12.07414">
        <ele>50.613259</ele>
        <time>2020-08-12T11:16:58.765Z</time>
      </trkpt>
      <trkpt lat="65.07744" lon="12.07433">
        <ele>50.588163</ele>
        <time>2020-08-12T11:17:01.788Z</time>
      </trkpt>
      <trkpt lat="65.07739" lon="12.07452">
        <ele>50.562703</ele>
        <time>2020-08-12T11:17:04.749Z</time>
      </trkpt>
      <trkpt lat="65.07734" lon="12.07477">
        <ele>50.531748</ele>
        <time>2020-08-12T11:17:08.743Z</time>
      </trkpt>
      <trkpt lat="65.07729" lon="12.075">
        <ele>50.501564</ele>
        <time>2020-08-12T11:17:12.788Z</time>
      </trkpt>
      <trkpt lat="65.07725" lon="12.07522">
        <ele>51.14817</ele>
        <time>2020-08-12T11:17:16.743Z</time>
      </trkpt>
      <trkpt lat="65.0772" lon="12.07545">
        <ele>51.869303</ele>
        <time>2020-08-12T11:17:21.753Z</time>
      </trkpt>
      <trkpt lat="65.07716" lon="12.07567">
        <ele>52.53211</ele>
        <time>2020-08-12T11:17:26.777Z</time>
      </trkpt>
      <trkpt lat="65.07711" lon="12.07586">
        <ele>53.220321</ele>
        <time>2020-08-12T11:17:30.768Z</time>
      </trkpt>
      <trkpt lat="65.07706" lon="12.07609">
        <ele>53.947722</ele>
        <time>2020-08-12T11:17:35.750Z</time>
      </trkpt>
      <trkpt lat="65.077" lon="12.07632">
        <ele>54.696661</ele>
        <time>2020-08-12T11:17:40.750Z</time>
      </trkpt>
      <trkpt lat="65.07695" lon="12.07651">
        <ele>55.3276</ele>
        <time>2020-08-12T11:17:44.740Z</time>
      </trkpt>
      <trkpt lat="65.0769" lon="12.07674">
        <ele>56.079033</ele>
        <time>2020-08-12T11:17:49.806Z</time>
      </trkpt>
      <trkpt lat="65.07685" lon="12.07695">
        <ele>56.759061</ele>
        <time>2020-08-12T11:17:54.787Z</time>
      </trkpt>
      <trkpt lat="65.07681" lon="12.07717">
        <ele>57.459183</ele>
        <time>2020-08-12T11:17:59.765Z</time>
      </trkpt>
      <trkpt lat="65.07676" lon="12.07738">
        <ele>58.139737</ele>
        <time>2020-08-12T11:18:04.757Z</time>
      </trkpt>
      <trkpt lat="65.07672" lon="12.0776">
        <ele>58.839916</ele>
        <time>2020-08-12T11:18:09.757Z</time>
      </trkpt>
      <trkpt lat="65.07667" lon="12.07784">
        <ele>59.568466</ele>
        <time>2020-08-12T11:18:14.764Z</time>
      </trkpt>
      <trkpt lat="65.07663" lon="12.07808">
        <ele>60.315694</ele>
        <time>2020-08-12T11:18:19.772Z</time>
      </trkpt>
      <trkpt lat="65.07659" lon="12.07833">
        <ele>61.07071</ele>
        <time>2020-08-12T11:18:25.765Z</time>
      </trkpt>
      <trkpt lat="65.07657" lon="12.07853">
        <ele>61.683454</ele>
        <time>2020-08-12T11:18:30.772Z</time>
      </trkpt>
      <trkpt lat="65.07654" lon="12.07876">
        <ele>62.364883</ele>
        <time>2020-08-12T11:18:35.789Z</time>
      </trkpt>
      <trkpt lat="65.07652" lon="12.07899">
        <ele>62.827462</ele>
        <time>2020-08-12T11:18:40.769Z</time>
      </trkpt>
      <trkpt lat="65.0765" lon="12.07923">
        <ele>63.139183</ele>
        <time>2020-08-12T11:18:46.753Z</time>
      </trkpt>
      <trkpt lat="65.07648" lon="12.07946">
        <ele>63.434853</ele>
        <time>2020-08-12T11:18:52.774Z</time>
      </trkpt>
      <trkpt lat="65.07646" lon="12.07968">
        <ele>63.710423</ele>
        <time>2020-08-12T11:18:57.758Z</time>
      </trkpt>
      <trkpt lat="65.07644" lon="12.07991">
        <ele>64.000599</ele>
        <time>2020-08-12T11:19:03.765Z</time>
      </trkpt>
      <trkpt lat="65.07643" lon="12.08013">
        <ele>64.274915</ele>
        <time>2020-08-12T11:19:08.749Z</time>
      </trkpt>
      <trkpt lat="65.0764" lon="12.08037">
        <ele>64.58257</ele>
        <time>2020-08-12T11:19:14.764Z</time>
      </trkpt>
      <trkpt lat="65.07638" lon="12.08058">
        <ele>64.85837</ele>
        <time>2020-08-12T11:19:19.757Z</time>
      </trkpt>
      <trkpt lat="65.07636" lon="12.08082">
        <ele>65.16682</ele>
        <time>2020-08-12T11:19:25.746Z</time>
      </trkpt>
      <trkpt lat="65.07634" lon="12.08106">
        <ele>65.459883</ele>
        <time>2020-08-12T11:19:31.774Z</time>
      </trkpt>
      <trkpt lat="65.07632" lon="12.0813">
        <ele>65.773777</ele>
        <time>2020-08-12T11:19:37.770Z</time>
      </trkpt>
      <trkpt lat="65.0763" lon="12.08151">
        <ele>66.038746</ele>
        <time>2020-08-12T11:19:42.766Z</time>
      </trkpt>
      <trkpt lat="65.07628" lon="12.08172">
        <ele>66.306437</ele>
        <time>2020-08-12T11:19:47.749Z</time>
      </trkpt>
      <trkpt lat="65.07625" lon="12.08193">
        <ele>66.577904</ele>
        <time>2020-08-12T11:19:52.776Z</time>
      </trkpt>
      <trkpt lat="65.07622" lon="12.08217">
        <ele>66.897439</ele>
        <time>2020-08-12T11:19:57.745Z</time>
      </trkpt>
      <trkpt lat="65.0762" lon="12.08241">
        <ele>67.201625</ele>
        <time>2020-08-12T11:20:02.752Z</time>
      </trkpt>
      <trkpt lat="65.07616" lon="12.08266">
        <ele>67.526812</ele>
        <time>2020-08-12T11:20:08.758Z</time>
      </trkpt>
      <trkpt lat="65.07614" lon="12.08291">
        <ele>67.846285</ele>
        <time>2020-08-12T11:20:13.748Z</time>
      </trkpt>
      <trkpt lat="65.07611" lon="12.08312">
        <ele>68.066671</ele>
        <time>2020-08-12T11:20:17.756Z</time>
      </trkpt>
      <trkpt lat="65.07608" lon="12.08334">
        <ele>68.234764</ele>
        <time>2020-08-12T11:20:21.792Z</time>
      </trkpt>
      <trkpt lat="65.07606" lon="12.08357">
        <ele>68.414362</ele>
        <time>2020-08-12T11:20:25.765Z</time>
      </trkpt>
      <trkpt lat="65.07602" lon="12.08381">
        <ele>68.603495</ele>
        <time>2020-08-12T11:20:29.774Z</time>
      </trkpt>
      <trkpt lat="65.076" lon="12.08401">
        <ele>68.765023</ele>
        <time>2020-08-12T11:20:32.784Z</time>
      </trkpt>
      <trkpt lat="65.07597" lon="12.08423">
        <ele>68.935974</ele>
        <time>2020-08-12T11:20:35.753Z</time>
      </trkpt>
      <trkpt lat="65.07594" lon="12.08445">
        <ele>69.108355</ele>
        <time>2020-08-12T11:20:38.805Z</time>
      </trkpt>
      <trkpt lat="65.07591" lon="12.08469">
        <ele>69.292215</ele>
        <time>2020-08-12T11:20:41.772Z</time>
      </trkpt>
      <trkpt lat="65.0759" lon="12.0849">
        <ele>69.453527</ele>
        <time>2020-08-12T11:20:44.757Z</time>
      </trkpt>
      <trkpt lat="65.07588" lon="12.08513">
        <ele>69.626027</ele>
        <time>2020-08-12T11:20:47.754Z</time>
      </trkpt>
      <trkpt lat="65.07587" lon="12.08537">
        <ele>69.805617</ele>
        <time>2020-08-12T11:20:50.798Z</time>
      </trkpt>
      <trkpt lat="65.07585" lon="12.08564">
        <ele>70.009564</ele>
        <time>2020-08-12T11:20:54.761Z</time>
      </trkpt>
      <trkpt lat="65.07586" lon="12.0859">
        <ele>70.201193</ele>
        <time>2020-08-12T11:20:58.755Z</time>
      </trkpt>
      <trkpt lat="65.07587" lon="12.08615">
        <ele>70.389696</ele>
        <time>2020-08-12T11:21:02.755Z</time>
      </trkpt>
      <trkpt lat="65.07588" lon="12.0864">
        <ele>70.579355</ele>
        <time>2020-08-12T11:21:06.753Z</time>
      </trkpt>
      <trkpt lat="65.0759" lon="12.08661">
        <ele>70.739432</ele>
        <time>2020-08-12T11:21:09.806Z</time>
      </trkpt>
      <trkpt lat="65.07592" lon="12.08683">
        <ele>70.913245</ele>
        <time>2020-08-12T11:21:13.756Z</time>
      </trkpt>
      <trkpt lat="65.07597" lon="12.08709">
        <ele>71.116365</ele>
        <time>2020-08-12T11:21:18.762Z</time>
      </trkpt>
      <trkpt lat="65.07601" lon="12.08731">
        <ele>71.362476</ele>
        <time>2020-08-12T11:21:22.776Z</time>
      </trkpt>
      <trkpt lat="65.07605" lon="12.08751">
        <ele>71.622359</ele>
        <time>2020-08-12T11:21:27.756Z</time>
      </trkpt>
      <trkpt lat="65.07609" lon="12.0877">
        <ele>71.881198</ele>
        <time>2020-08-12T11:21:31.747Z</time>
      </trkpt>
      <trkpt lat="65.07614" lon="12.08793">
        <ele>72.180843</ele>
        <time>2020-08-12T11:21:36.754Z</time>
      </trkpt>
      <trkpt lat="65.07621" lon="12.08814">
        <ele>72.487923</ele>
        <time>2020-08-12T11:21:41.753Z</time>
      </trkpt>
      <trkpt lat="65.07625" lon="12.08837">
        <ele>72.779936</ele>
        <time>2020-08-12T11:21:47.766Z</time>
      </trkpt>
      <trkpt lat="65.0763" lon="12.08854">
        <ele>73.031273</ele>
        <time>2020-08-12T11:21:52.767Z</time>
      </trkpt>
      <trkpt lat="65.07635" lon="12.08875">
        <ele>73.305829</ele>
        <time>2020-08-12T11:21:57.746Z</time>
      </trkpt>
      <trkpt lat="65.0764" lon="12.08894">
        <ele>73.564499</ele>
        <time>2020-08-12T11:22:02.750Z</time>
      </trkpt>
      <trkpt lat="65.07645" lon="12.08913">
        <ele>73.831032</ele>
        <time>2020-08-12T11:22:08.766Z</time>
      </trkpt>
      <trkpt lat="65.0765" lon="12.08932">
        <ele>74.087216</ele>
        <time>2020-08-12T11:22:13.765Z</time>
      </trkpt>
      <trkpt lat="65.07656" lon="12.08953">
        <ele>74.392227</ele>
        <time>2020-08-12T11:22:19.754Z</time>
      </trkpt>
      <trkpt lat="65.07662" lon="12.08972">
        <ele>74.66456</ele>
        <time>2020-08-12T11:22:25.755Z</time>
      </trkpt>
      <trkpt lat="65.07667" lon="12.08993">
        <ele>74.932663</ele>
        <time>2020-08-12T11:22:30.749Z</time>
      </trkpt>
      <trkpt lat="65.07672" lon="12.09011">
        <ele>75.188452</ele>
        <time>2020-08-12T11:22:36.788Z</time>
      </trkpt>
      <trkpt lat="65.07677" lon="12.09033">
        <ele>75.484714</ele>
        <time>2020-08-12T11:22:42.786Z</time>
      </trkpt>
      <trkpt lat="65.07684" lon="12.0905">
        <ele>75.753108</ele>
        <time>2020-08-12T11:22:48.768Z</time>
      </trkpt>
      <trkpt lat="65.0769" lon="12.09071">
        <ele>76.051887</ele>
        <time>2020-08-12T11:22:54.788Z</time>
      </trkpt>
      <trkpt lat="65.07693" lon="12.09091">
        <ele>76.774067</ele>
        <time>2020-08-12T11:23:00.753Z</time>
      </trkpt>
      <trkpt lat="65.07699" lon="12.09108">
        <ele>77.796917</ele>
        <time>2020-08-12T11:23:06.757Z</time>
      </trkpt>
      <trkpt lat="65.07705" lon="12.09125">
        <ele>78.882279</ele>
        <time>2020-08-12T11:23:11.760Z</time>
      </trkpt>
      <trkpt lat="65.07709" lon="12.09143">
        <ele>79.929569</ele>
        <time>2020-08-12T11:23:16.761Z</time>
      </trkpt>
      <trkpt lat="65.07716" lon="12.09161">
        <ele>81.059946</ele>
        <time>2020-08-12T11:23:21.764Z</time>
      </trkpt>
      <trkpt lat="65.07723" lon="12.09176">
        <ele>82.162343</ele>
        <time>2020-08-12T11:23:27.763Z</time>
      </trkpt>
      <trkpt lat="65.07729" lon="12.09192">
        <ele>83.204559</ele>
        <time>2020-08-12T11:23:32.755Z</time>
      </trkpt>
      <trkpt lat="65.07737" lon="12.09207">
        <ele>84.371476</ele>
        <time>2020-08-12T11:23:38.773Z</time>
      </trkpt>
      <trkpt lat="65.07745" lon="12.09217">
        <ele>85.443648</ele>
        <time>2020-08-12T11:23:44.750Z</time>
      </trkpt>
      <trkpt lat="65.07756" lon="12.0923">
        <ele>86.774493</ele>
        <time>2020-08-12T11:23:51.743Z</time>
      </trkpt>
      <trkpt lat="65.07764" lon="12.09239">
        <ele>87.807921</ele>
        <time>2020-08-12T11:23:55.749Z</time>
      </trkpt>
      <trkpt lat="65.07773" lon="12.09247">
        <ele>88.954172</ele>
        <time>2020-08-12T11:24:00.765Z</time>
      </trkpt>
      <trkpt lat="65.07782" lon="12.09257">
        <ele>90.119353</ele>
        <time>2020-08-12T11:24:06.745Z</time>
      </trkpt>
      <trkpt lat="65.07793" lon="12.09261">
        <ele>91.314634</ele>
        <time>2020-08-12T11:24:13.753Z</time>
      </trkpt>
      <trkpt lat="65.07802" lon="12.09264">
        <ele>92.412793</ele>
        <time>2020-08-12T11:24:19.791Z</time>
      </trkpt>
      <trkpt lat="65.07812" lon="12.09265">
        <ele>93.575204</ele>
        <time>2020-08-12T11:24:27.763Z</time>
      </trkpt>
      <trkpt lat="65.07822" lon="12.09264">
        <ele>94.645531</ele>
        <time>2020-08-12T11:24:33.758Z</time>
      </trkpt>
      <trkpt lat="65.07831" lon="12.09263">
        <ele>95.738207</ele>
        <time>2020-08-12T11:24:40.785Z</time>
      </trkpt>
      <trkpt lat="65.07841" lon="12.09258">
        <ele>96.87518</ele>
        <time>2020-08-12T11:24:46.750Z</time>
      </trkpt>
      <trkpt lat="65.07851" lon="12.09254">
        <ele>97.74093</ele>
        <time>2020-08-12T11:24:53.776Z</time>
      </trkpt>
      <trkpt lat="65.0786" lon="12.09249">
        <ele>98.507396</ele>
        <time>2020-08-12T11:25:00.777Z</time>
      </trkpt>
      <trkpt lat="65.07869" lon="12.09241">
        <ele>99.35926</ele>
        <time>2020-08-12T11:25:07.795Z</time>
      </trkpt>
      <trkpt lat="65.07879" lon="12.09235">
        <ele>100.242317</ele>
        <time>2020-08-12T11:25:14.767Z</time>
      </trkpt>
      <trkpt lat="65.07889" lon="12.09227">
        <ele>101.139939</ele>
        <time>2020-08-12T11:25:22.750Z</time>
      </trkpt>
      <trkpt lat="65.07898" lon="12.09221">
        <ele>101.916792</ele>
        <time>2020-08-12T11:25:29.747Z</time>
      </trkpt>
      <trkpt lat="65.07907" lon="12.09217">
        <ele>102.717265</ele>
        <time>2020-08-12T11:25:36.755Z</time>
      </trkpt>
      <trkpt lat="65.07916" lon="12.09208">
        <ele>103.574289</ele>
        <time>2020-08-12T11:25:42.777Z</time>
      </trkpt>
      <trkpt lat="65.07927" lon="12.09202">
        <ele>104.456524</ele>
        <time>2020-08-12T11:25:48.765Z</time>
      </trkpt>
      <trkpt lat="65.07937" lon="12.09193">
        <ele>105.384676</ele>
        <time>2020-08-12T11:25:54.761Z</time>
      </trkpt>
      <trkpt lat="65.07947" lon="12.09187">
        <ele>106.258629</ele>
        <time>2020-08-12T11:25:59.769Z</time>
      </trkpt>
      <trkpt lat="65.07955" lon="12.0918">
        <ele>107.042348</ele>
        <time>2020-08-12T11:26:04.778Z</time>
      </trkpt>
      <trkpt lat="65.07965" lon="12.09171">
        <ele>107.921643</ele>
        <time>2020-08-12T11:26:09.753Z</time>
      </trkpt>
      <trkpt lat="65.07974" lon="12.09164">
        <ele>108.735327</ele>
        <time>2020-08-12T11:26:14.769Z</time>
      </trkpt>
      <trkpt lat="65.07984" lon="12.09158">
        <ele>109.598948</ele>
        <time>2020-08-12T11:26:20.758Z</time>
      </trkpt>
      <trkpt lat="65.07992" lon="12.0915">
        <ele>110.372831</ele>
        <time>2020-08-12T11:26:25.758Z</time>
      </trkpt>
      <trkpt lat="65.08002" lon="12.09141">
        <ele>111.277548</ele>
        <time>2020-08-12T11:26:31.756Z</time>
      </trkpt>
      <trkpt lat="65.08013" lon="12.09131">
        <ele>112.204927</ele>
        <time>2020-08-12T11:26:37.772Z</time>
      </trkpt>
      <trkpt lat="65.08022" lon="12.09124">
        <ele>112.794211</ele>
        <time>2020-08-12T11:26:42.775Z</time>
      </trkpt>
      <trkpt lat="65.08031" lon="12.09114">
        <ele>113.410156</ele>
        <time>2020-08-12T11:26:47.751Z</time>
      </trkpt>
      <trkpt lat="65.0804" lon="12.09104">
        <ele>114.016846</ele>
        <time>2020-08-12T11:26:53.764Z</time>
      </trkpt>
      <trkpt lat="65.08048" lon="12.09092">
        <ele>114.614164</ele>
        <time>2020-08-12T11:26:59.764Z</time>
      </trkpt>
      <trkpt lat="65.08056" lon="12.09078">
        <ele>115.213417</ele>
        <time>2020-08-12T11:27:05.754Z</time>
      </trkpt>
      <trkpt lat="65.08064" lon="12.09066">
        <ele>115.809543</ele>
        <time>2020-08-12T11:27:11.767Z</time>
      </trkpt>
      <trkpt lat="65.08071" lon="12.09052">
        <ele>116.39286</ele>
        <time>2020-08-12T11:27:17.748Z</time>
      </trkpt>
      <trkpt lat="65.0808" lon="12.09037">
        <ele>117.018103</ele>
        <time>2020-08-12T11:27:23.767Z</time>
      </trkpt>
      <trkpt lat="65.08089" lon="12.09023">
        <ele>117.67722</ele>
        <time>2020-08-12T11:27:30.766Z</time>
      </trkpt>
      <trkpt lat="65.08095" lon="12.09008">
        <ele>118.236751</ele>
        <time>2020-08-12T11:27:37.754Z</time>
      </trkpt>
      <trkpt lat="65.08104" lon="12.08996">
        <ele>118.856567</ele>
        <time>2020-08-12T11:27:44.771Z</time>
      </trkpt>
      <trkpt lat="65.0811" lon="12.0898">
        <ele>119.433985</ele>
        <time>2020-08-12T11:27:50.774Z</time>
      </trkpt>
      <trkpt lat="65.08118" lon="12.08967">
        <ele>120.02682</ele>
        <time>2020-08-12T11:27:57.749Z</time>
      </trkpt>
      <trkpt lat="65.08126" lon="12.08956">
        <ele>120.614919</ele>
        <time>2020-08-12T11:28:04.779Z</time>
      </trkpt>
      <trkpt lat="65.08135" lon="12.08943">
        <ele>121.239183</ele>
        <time>2020-08-12T11:28:10.777Z</time>
      </trkpt>
      <trkpt lat="65.08145" lon="12.08929">
        <ele>121.955734</ele>
        <time>2020-08-12T11:28:19.775Z</time>
      </trkpt>
      <trkpt lat="65.08154" lon="12.08921">
        <ele>122.570519</ele>
        <time>2020-08-12T11:28:26.772Z</time>
      </trkpt>
      <trkpt lat="65.08163" lon="12.08908">
        <ele>123.18781</ele>
        <time>2020-08-12T11:28:32.746Z</time>
      </trkpt>
      <trkpt lat="65.08172" lon="12.089">
        <ele>123.841902</ele>
        <time>2020-08-12T11:28:39.749Z</time>
      </trkpt>
      <trkpt lat="65.08181" lon="12.08894">
        <ele>124.512513</ele>
        <time>2020-08-12T11:28:45.773Z</time>
      </trkpt>
      <trkpt lat="65.08192" lon="12.08885">
        <ele>125.29346</ele>
        <time>2020-08-12T11:28:53.788Z</time>
      </trkpt>
      <trkpt lat="65.08202" lon="12.08882">
        <ele>125.989419</ele>
        <time>2020-08-12T11:28:59.781Z</time>
      </trkpt>
      <trkpt lat="65.08212" lon="12.08878">
        <ele>126.706295</ele>
        <time>2020-08-12T11:29:07.752Z</time>
      </trkpt>
      <trkpt lat="65.08222" lon="12.08876">
        <ele>127.391859</ele>
        <time>2020-08-12T11:29:14.762Z</time>
      </trkpt>
      <trkpt lat="65.08231" lon="12.08875">
        <ele>128.027627</ele>
        <time>2020-08-12T11:29:20.790Z</time>
      </trkpt>
      <trkpt lat="65.08242" lon="12.08874">
        <ele>128.766706</ele>
        <time>2020-08-12T11:29:27.782Z</time>
      </trkpt>
      <trkpt lat="65.08252" lon="12.08874">
        <ele>129.450571</ele>
        <time>2020-08-12T11:29:34.763Z</time>
      </trkpt>
      <trkpt lat="65.08261" lon="12.08875">
        <ele>130.120727</ele>
        <time>2020-08-12T11:29:40.746Z</time>
      </trkpt>
      <trkpt lat="65.08271" lon="12.08876">
        <ele>130.770553</ele>
        <time>2020-08-12T11:29:46.765Z</time>
      </trkpt>
      <trkpt lat="65.08282" lon="12.08879">
        <ele>131.56462</ele>
        <time>2020-08-12T11:29:53.750Z</time>
      </trkpt>
      <trkpt lat="65.08291" lon="12.08881">
        <ele>132.195122</ele>
        <time>2020-08-12T11:29:59.749Z</time>
      </trkpt>
      <trkpt lat="65.08302" lon="12.08883">
        <ele>132.90802</ele>
        <time>2020-08-12T11:30:06.806Z</time>
      </trkpt>
      <trkpt lat="65.08312" lon="12.08886">
        <ele>133.652301</ele>
        <time>2020-08-12T11:30:13.752Z</time>
      </trkpt>
      <trkpt lat="65.08322" lon="12.08888">
        <ele>134.338587</ele>
        <time>2020-08-12T11:30:20.771Z</time>
      </trkpt>
      <trkpt lat="65.08332" lon="12.08888">
        <ele>134.980727</ele>
        <time>2020-08-12T11:30:26.771Z</time>
      </trkpt>
      <trkpt lat="65.08341" lon="12.08887">
        <ele>135.633609</ele>
        <time>2020-08-12T11:30:31.768Z</time>
      </trkpt>
      <trkpt lat="65.0835" lon="12.08887">
        <ele>135.851464</ele>
        <time>2020-08-12T11:30:36.801Z</time>
      </trkpt>
      <trkpt lat="65.0836" lon="12.08884">
        <ele>136.096928</ele>
        <time>2020-08-12T11:30:42.747Z</time>
      </trkpt>
      <trkpt lat="65.08369" lon="12.0888">
        <ele>136.317306</ele>
        <time>2020-08-12T11:30:47.763Z</time>
      </trkpt>
      <trkpt lat="65.08378" lon="12.08873">
        <ele>136.5445</ele>
        <time>2020-08-12T11:30:52.765Z</time>
      </trkpt>
      <trkpt lat="65.08387" lon="12.08867">
        <ele>136.768004</ele>
        <time>2020-08-12T11:30:56.762Z</time>
      </trkpt>
      <trkpt lat="65.08397" lon="12.08857">
        <ele>137.01596</ele>
        <time>2020-08-12T11:31:00.753Z</time>
      </trkpt>
      <trkpt lat="65.08405" lon="12.08849">
        <ele>137.238191</ele>
        <time>2020-08-12T11:31:04.763Z</time>
      </trkpt>
      <trkpt lat="65.08414" lon="12.08836">
        <ele>137.490385</ele>
        <time>2020-08-12T11:31:08.756Z</time>
      </trkpt>
      <trkpt lat="65.08424" lon="12.08824">
        <ele>137.740068</ele>
        <time>2020-08-12T11:31:12.770Z</time>
      </trkpt>
      <trkpt lat="65.08432" lon="12.08813">
        <ele>137.960875</ele>
        <time>2020-08-12T11:31:16.772Z</time>
      </trkpt>
      <trkpt lat="65.0844" lon="12.08801">
        <ele>138.198273</ele>
        <time>2020-08-12T11:31:20.753Z</time>
      </trkpt>
      <trkpt lat="65.08449" lon="12.0879">
        <ele>138.431481</ele>
        <time>2020-08-12T11:31:24.741Z</time>
      </trkpt>
      <trkpt lat="65.08457" lon="12.08779">
        <ele>138.668879</ele>
        <time>2020-08-12T11:31:28.769Z</time>
      </trkpt>
      <trkpt lat="65.08466" lon="12.08768">
        <ele>138.897789</ele>
        <time>2020-08-12T11:31:32.750Z</time>
      </trkpt>
      <trkpt lat="65.08475" lon="12.08756">
        <ele>139.146979</ele>
        <time>2020-08-12T11:31:37.756Z</time>
      </trkpt>
      <trkpt lat="65.08484" lon="12.08747">
        <ele>139.375797</ele>
        <time>2020-08-12T11:31:42.768Z</time>
      </trkpt>
      <trkpt lat="65.08494" lon="12.08738">
        <ele>139.628851</ele>
        <time>2020-08-12T11:31:47.739Z</time>
      </trkpt>
      <trkpt lat="65.08502" lon="12.08729">
        <ele>139.849426</ele>
        <time>2020-08-12T11:31:51.807Z</time>
      </trkpt>
      <trkpt lat="65.08511" lon="12.0872">
        <ele>140.211426</ele>
        <time>2020-08-12T11:31:56.754Z</time>
      </trkpt>
      <trkpt lat="65.0852" lon="12.08715">
        <ele>140.633939</ele>
        <time>2020-08-12T11:32:01.757Z</time>
      </trkpt>
      <trkpt lat="65.0853" lon="12.08707">
        <ele>141.088794</ele>
        <time>2020-08-12T11:32:06.768Z</time>
      </trkpt>
      <trkpt lat="65.0854" lon="12.08701">
        <ele>141.568373</ele>
        <time>2020-08-12T11:32:11.750Z</time>
      </trkpt>
      <trkpt lat="65.08549" lon="12.08693">
        <ele>141.973553</ele>
        <time>2020-08-12T11:32:16.768Z</time>
      </trkpt>
      <trkpt lat="65.0856" lon="12.08687">
        <ele>142.477187</ele>
        <time>2020-08-12T11:32:20.749Z</time>
      </trkpt>
      <trkpt lat="65.0857" lon="12.08678">
        <ele>142.976945</ele>
        <time>2020-08-12T11:32:25.793Z</time>
      </trkpt>
      <trkpt lat="65.08579" lon="12.08668">
        <ele>143.423557</ele>
        <time>2020-08-12T11:32:30.754Z</time>
      </trkpt>
      <trkpt lat="65.08588" lon="12.08664">
        <ele>143.846012</ele>
        <time>2020-08-12T11:32:34.765Z</time>
      </trkpt>
      <trkpt lat="65.08599" lon="12.08655">
        <ele>144.338412</ele>
        <time>2020-08-12T11:32:39.794Z</time>
      </trkpt>
      <trkpt lat="65.08608" lon="12.08646">
        <ele>144.801875</ele>
        <time>2020-08-12T11:32:43.791Z</time>
      </trkpt>
      <trkpt lat="65.08618" lon="12.08635">
        <ele>145.297677</ele>
        <time>2020-08-12T11:32:48.764Z</time>
      </trkpt>
      <trkpt lat="65.08628" lon="12.08622">
        <ele>145.782804</ele>
        <time>2020-08-12T11:32:53.762Z</time>
      </trkpt>
      <trkpt lat="65.08636" lon="12.0861">
        <ele>146.205165</ele>
        <time>2020-08-12T11:32:58.749Z</time>
      </trkpt>
      <trkpt lat="65.08644" lon="12.08594">
        <ele>146.695541</ele>
        <time>2020-08-12T11:33:03.826Z</time>
      </trkpt>
      <trkpt lat="65.08654" lon="12.08578">
        <ele>147.206835</ele>
        <time>2020-08-12T11:33:07.753Z</time>
      </trkpt>
      <trkpt lat="65.0866" lon="12.0856">
        <ele>147.652501</ele>
        <time>2020-08-12T11:33:12.749Z</time>
      </trkpt>
      <trkpt lat="65.08667" lon="12.08542">
        <ele>148.040534</ele>
        <time>2020-08-12T11:33:17.759Z</time>
      </trkpt>
      <trkpt lat="65.08672" lon="12.08523">
        <ele>148.237423</ele>
        <time>2020-08-12T11:33:22.765Z</time>
      </trkpt>
      <trkpt lat="65.08679" lon="12.08507">
        <ele>148.425961</ele>
        <time>2020-08-12T11:33:26.750Z</time>
      </trkpt>
      <trkpt lat="65.08686" lon="12.08488">
        <ele>148.63615</ele>
        <time>2020-08-12T11:33:31.744Z</time>
      </trkpt>
      <trkpt lat="65.08692" lon="12.08469">
        <ele>148.836936</ele>
        <time>2020-08-12T11:33:36.757Z</time>
      </trkpt>
      <trkpt lat="65.08699" lon="12.0845">
        <ele>149.06008</ele>
        <time>2020-08-12T11:33:41.759Z</time>
      </trkpt>
      <trkpt lat="65.08706" lon="12.08433">
        <ele>149.2465</ele>
        <time>2020-08-12T11:33:45.749Z</time>
      </trkpt>
      <trkpt lat="65.08712" lon="12.08419">
        <ele>149.425828</ele>
        <time>2020-08-12T11:33:49.757Z</time>
      </trkpt>
      <trkpt lat="65.0872" lon="12.08405">
        <ele>149.618608</ele>
        <time>2020-08-12T11:33:53.767Z</time>
      </trkpt>
      <trkpt lat="65.08728" lon="12.08392">
        <ele>149.806995</ele>
        <time>2020-08-12T11:33:57.768Z</time>
      </trkpt>
      <trkpt lat="65.08736" lon="12.08381">
        <ele>150.001069</ele>
        <time>2020-08-12T11:34:01.753Z</time>
      </trkpt>
      <trkpt lat="65.08744" lon="12.0837">
        <ele>150.18988</ele>
        <time>2020-08-12T11:34:05.779Z</time>
      </trkpt>
      <trkpt lat="65.08752" lon="12.08359">
        <ele>150.373308</ele>
        <time>2020-08-12T11:34:09.749Z</time>
      </trkpt>
      <trkpt lat="65.08762" lon="12.0835">
        <ele>150.581054</ele>
        <time>2020-08-12T11:34:13.806Z</time>
      </trkpt>
      <trkpt lat="65.0877" lon="12.08342">
        <ele>150.76336</ele>
        <time>2020-08-12T11:34:17.753Z</time>
      </trkpt>
      <trkpt lat="65.08779" lon="12.08336">
        <ele>150.951555</ele>
        <time>2020-08-12T11:34:21.761Z</time>
      </trkpt>
      <trkpt lat="65.08789" lon="12.0833">
        <ele>151.14779</ele>
        <time>2020-08-12T11:34:25.760Z</time>
      </trkpt>
      <trkpt lat="65.08799" lon="12.08324">
        <ele>151.362101</ele>
        <time>2020-08-12T11:34:29.745Z</time>
      </trkpt>
      <trkpt lat="65.08808" lon="12.08319">
        <ele>151.543317</ele>
        <time>2020-08-12T11:34:33.771Z</time>
      </trkpt>
      <trkpt lat="65.08818" lon="12.08316">
        <ele>151.740637</ele>
        <time>2020-08-12T11:34:37.758Z</time>
      </trkpt>
      <trkpt lat="65.08828" lon="12.08313">
        <ele>151.947701</ele>
        <time>2020-08-12T11:34:42.772Z</time>
      </trkpt>
      <trkpt lat="65.08839" lon="12.08312">
        <ele>152.171498</ele>
        <time>2020-08-12T11:34:47.797Z</time>
      </trkpt>
      <trkpt lat="65.0885" lon="12.08311">
        <ele>152.373567</ele>
        <time>2020-08-12T11:34:52.753Z</time>
      </trkpt>
      <trkpt lat="65.08859" lon="12.0831">
        <ele>152.557473</ele>
        <time>2020-08-12T11:34:57.771Z</time>
      </trkpt>
      <trkpt lat="65.08868" lon="12.08312">
        <ele>152.743836</ele>
        <time>2020-08-12T11:35:02.793Z</time>
      </trkpt>
      <trkpt lat="65.08877" lon="12.08313">
        <ele>152.925869</ele>
        <time>2020-08-12T11:35:06.771Z</time>
      </trkpt>
      <trkpt lat="65.08887" lon="12.08318">
        <ele>153.121474</ele>
        <time>2020-08-12T11:35:11.749Z</time>
      </trkpt>
      <trkpt lat="65.08896" lon="12.08321">
        <ele>153.30695</ele>
        <time>2020-08-12T11:35:16.750Z</time>
      </trkpt>
      <trkpt lat="65.08906" lon="12.08325">
        <ele>153.501917</ele>
        <time>2020-08-12T11:35:21.748Z</time>
      </trkpt>
      <trkpt lat="65.08915" lon="12.0833">
        <ele>153.690609</ele>
        <time>2020-08-12T11:35:25.813Z</time>
      </trkpt>
      <trkpt lat="65.08924" lon="12.08335">
        <ele>153.887852</ele>
        <time>2020-08-12T11:35:29.748Z</time>
      </trkpt>
      <trkpt lat="65.08933" lon="12.08342">
        <ele>154.071675</ele>
        <time>2020-08-12T11:35:33.766Z</time>
      </trkpt>
      <trkpt lat="65.08943" lon="12.0835">
        <ele>154.274331</ele>
        <time>2020-08-12T11:35:37.753Z</time>
      </trkpt>
      <trkpt lat="65.08951" lon="12.08359">
        <ele>154.465593</ele>
        <time>2020-08-12T11:35:41.762Z</time>
      </trkpt>
      <trkpt lat="65.08962" lon="12.0837">
        <ele>154.695847</ele>
        <time>2020-08-12T11:35:45.746Z</time>
      </trkpt>
      <trkpt lat="65.08972" lon="12.08383">
        <ele>154.915484</ele>
        <time>2020-08-12T11:35:49.776Z</time>
      </trkpt>
      <trkpt lat="65.08981" lon="12.08395">
        <ele>155.136494</ele>
        <time>2020-08-12T11:35:53.754Z</time>
      </trkpt>
      <trkpt lat="65.08992" lon="12.08409">
        <ele>155.172767</ele>
        <time>2020-08-12T11:35:57.781Z</time>
      </trkpt>
      <trkpt lat="65.09001" lon="12.08421">
        <ele>155.165276</ele>
        <time>2020-08-12T11:36:00.749Z</time>
      </trkpt>
      <trkpt lat="65.09011" lon="12.08435">
        <ele>155.156465</ele>
        <time>2020-08-12T11:36:04.783Z</time>
      </trkpt>
      <trkpt lat="65.09019" lon="12.08449">
        <ele>155.149332</ele>
        <time>2020-08-12T11:36:07.765Z</time>
      </trkpt>
      <trkpt lat="65.09027" lon="12.0846">
        <ele>155.142453</ele>
        <time>2020-08-12T11:36:10.770Z</time>
      </trkpt>
      <trkpt lat="65.09036" lon="12.08471">
        <ele>155.135497</ele>
        <time>2020-08-12T11:36:13.766Z</time>
      </trkpt>
      <trkpt lat="65.09044" lon="12.08484">
        <ele>155.128285</ele>
        <time>2020-08-12T11:36:16.757Z</time>
      </trkpt>
      <trkpt lat="65.09053" lon="12.08495">
        <ele>155.120855</ele>
        <time>2020-08-12T11:36:19.763Z</time>
      </trkpt>
      <trkpt lat="65.09061" lon="12.08508">
        <ele>155.113679</ele>
        <time>2020-08-12T11:36:22.756Z</time>
      </trkpt>
      <trkpt lat="65.0907" lon="12.08519">
        <ele>155.106263</ele>
        <time>2020-08-12T11:36:25.799Z</time>
      </trkpt>
      <trkpt lat="65.09078" lon="12.08529">
        <ele>155.099616</ele>
        <time>2020-08-12T11:36:28.762Z</time>
      </trkpt>
      <trkpt lat="65.09089" lon="12.08541">
        <ele>155.091211</ele>
        <time>2020-08-12T11:36:32.761Z</time>
      </trkpt>
      <trkpt lat="65.09097" lon="12.0855">
        <ele>155.08445</ele>
        <time>2020-08-12T11:36:35.767Z</time>
      </trkpt>
      <trkpt lat="65.09107" lon="12.0856">
        <ele>155.076635</ele>
        <time>2020-08-12T11:36:39.793Z</time>
      </trkpt>
      <trkpt lat="65.09117" lon="12.0857">
        <ele>155.068868</ele>
        <time>2020-08-12T11:36:43.751Z</time>
      </trkpt>
      <trkpt lat="65.09126" lon="12.08578">
        <ele>155.061496</ele>
        <time>2020-08-12T11:36:47.746Z</time>
      </trkpt>
      <trkpt lat="65.09136" lon="12.08586">
        <ele>155.053609</ele>
        <time>2020-08-12T11:36:51.795Z</time>
      </trkpt>
      <trkpt lat="65.09146" lon="12.08594">
        <ele>155.169783</ele>
        <time>2020-08-12T11:36:55.753Z</time>
      </trkpt>
      <trkpt lat="65.09156" lon="12.08603">
        <ele>155.583432</ele>
        <time>2020-08-12T11:36:59.749Z</time>
      </trkpt>
      <trkpt lat="65.09165" lon="12.08609">
        <ele>155.949615</ele>
        <time>2020-08-12T11:37:03.746Z</time>
      </trkpt>
      <trkpt lat="65.09174" lon="12.08616">
        <ele>156.341338</ele>
        <time>2020-08-12T11:37:07.777Z</time>
      </trkpt>
      <trkpt lat="65.09183" lon="12.08622">
        <ele>156.704073</ele>
        <time>2020-08-12T11:37:11.769Z</time>
      </trkpt>
      <trkpt lat="65.09192" lon="12.08628">
        <ele>157.061835</ele>
        <time>2020-08-12T11:37:14.752Z</time>
      </trkpt>
      <trkpt lat="65.09203" lon="12.08635">
        <ele>157.505583</ele>
        <time>2020-08-12T11:37:18.786Z</time>
      </trkpt>
      <trkpt lat="65.09214" lon="12.08642">
        <ele>157.961917</ele>
        <time>2020-08-12T11:37:22.741Z</time>
      </trkpt>
      <trkpt lat="65.09224" lon="12.08646">
        <ele>158.337626</ele>
        <time>2020-08-12T11:37:25.777Z</time>
      </trkpt>
      <trkpt lat="65.09233" lon="12.08651">
        <ele>158.712656</ele>
        <time>2020-08-12T11:37:28.775Z</time>
      </trkpt>
      <trkpt lat="65.09243" lon="12.08654">
        <ele>159.102239</ele>
        <time>2020-08-12T11:37:31.763Z</time>
      </trkpt>
      <trkpt lat="65.09253" lon="12.08658">
        <ele>159.480141</ele>
        <time>2020-08-12T11:37:34.748Z</time>
      </trkpt>
      <trkpt lat="65.09263" lon="12.08662">
        <ele>159.899036</ele>
        <time>2020-08-12T11:37:37.748Z</time>
      </trkpt>
      <trkpt lat="65.09274" lon="12.08664">
        <ele>160.338178</ele>
        <time>2020-08-12T11:37:40.768Z</time>
      </trkpt>
      <trkpt lat="65.09286" lon="12.08665">
        <ele>160.791884</ele>
        <time>2020-08-12T11:37:43.766Z</time>
      </trkpt>
      <trkpt lat="65.09297" lon="12.08668">
        <ele>161.243609</ele>
        <time>2020-08-12T11:37:46.802Z</time>
      </trkpt>
      <trkpt lat="65.0931" lon="12.0867">
        <ele>161.721831</ele>
        <time>2020-08-12T11:37:49.751Z</time>
      </trkpt>
      <trkpt lat="65.09319" lon="12.08672">
        <ele>162.075539</ele>
        <time>2020-08-12T11:37:51.751Z</time>
      </trkpt>
      <trkpt lat="65.09328" lon="12.08674">
        <ele>162.025388</ele>
        <time>2020-08-12T11:37:53.790Z</time>
      </trkpt>
      <trkpt lat="65.09338" lon="12.08675">
        <ele>161.972016</ele>
        <time>2020-08-12T11:37:55.761Z</time>
      </trkpt>
      <trkpt lat="65.09348" lon="12.08677">
        <ele>161.918613</ele>
        <time>2020-08-12T11:37:57.752Z</time>
      </trkpt>
      <trkpt lat="65.09358" lon="12.08678">
        <ele>161.862578</ele>
        <time>2020-08-12T11:37:59.773Z</time>
      </trkpt>
      <trkpt lat="65.09368" lon="12.0868">
        <ele>161.806448</ele>
        <time>2020-08-12T11:38:01.761Z</time>
      </trkpt>
      <trkpt lat="65.09379" lon="12.08682">
        <ele>161.747517</ele>
        <time>2020-08-12T11:38:03.761Z</time>
      </trkpt>
      <trkpt lat="65.0939" lon="12.08684">
        <ele>161.68705</ele>
        <time>2020-08-12T11:38:05.752Z</time>
      </trkpt>
      <trkpt lat="65.09401" lon="12.08686">
        <ele>161.628254</ele>
        <time>2020-08-12T11:38:07.782Z</time>
      </trkpt>
      <trkpt lat="65.09412" lon="12.08687">
        <ele>161.568329</ele>
        <time>2020-08-12T11:38:09.764Z</time>
      </trkpt>
      <trkpt lat="65.09423" lon="12.08689">
        <ele>161.511081</ele>
        <time>2020-08-12T11:38:11.748Z</time>
      </trkpt>
      <trkpt lat="65.09433" lon="12.0869">
        <ele>161.454513</ele>
        <time>2020-08-12T11:38:13.748Z</time>
      </trkpt>
      <trkpt lat="65.09444" lon="12.08692">
        <ele>161.395114</ele>
        <time>2020-08-12T11:38:15.770Z</time>
      </trkpt>
      <trkpt lat="65.09454" lon="12.08693">
        <ele>161.339098</ele>
        <time>2020-08-12T11:38:17.751Z</time>
      </trkpt>
      <trkpt lat="65.09464" lon="12.08694">
        <ele>161.284711</ele>
        <time>2020-08-12T11:38:19.756Z</time>
      </trkpt>
      <trkpt lat="65.09473" lon="12.08696">
        <ele>161.23448</ele>
        <time>2020-08-12T11:38:21.771Z</time>
      </trkpt>
      <trkpt lat="65.09484" lon="12.08698">
        <ele>161.178953</ele>
        <time>2020-08-12T11:38:23.786Z</time>
      </trkpt>
      <trkpt lat="65.09494" lon="12.08699">
        <ele>161.120128</ele>
        <time>2020-08-12T11:38:25.828Z</time>
      </trkpt>
      <trkpt lat="65.09504" lon="12.08701">
        <ele>160.942745</ele>
        <time>2020-08-12T11:38:27.756Z</time>
      </trkpt>
      <trkpt lat="65.09515" lon="12.08703">
        <ele>160.682651</ele>
        <time>2020-08-12T11:38:29.792Z</time>
      </trkpt>
      <trkpt lat="65.09524" lon="12.08704">
        <ele>160.435565</ele>
        <time>2020-08-12T11:38:31.775Z</time>
      </trkpt>
      <trkpt lat="65.09534" lon="12.08706">
        <ele>160.192096</ele>
        <time>2020-08-12T11:38:33.822Z</time>
      </trkpt>
      <trkpt lat="65.09544" lon="12.08709">
        <ele>159.942975</ele>
        <time>2020-08-12T11:38:35.743Z</time>
      </trkpt>
      <trkpt lat="65.09555" lon="12.08712">
        <ele>159.671724</ele>
        <time>2020-08-12T11:38:37.748Z</time>
      </trkpt>
      <trkpt lat="65.09564" lon="12.08715">
        <ele>159.433383</ele>
        <time>2020-08-12T11:38:39.826Z</time>
      </trkpt>
      <trkpt lat="65.09573" lon="12.08718">
        <ele>159.192032</ele>
        <time>2020-08-12T11:38:41.750Z</time>
      </trkpt>
      <trkpt lat="65.09582" lon="12.0872">
        <ele>158.966446</ele>
        <time>2020-08-12T11:38:43.789Z</time>
      </trkpt>
      <trkpt lat="65.09591" lon="12.08722">
        <ele>158.74086</ele>
        <time>2020-08-12T11:38:45.774Z</time>
      </trkpt>
      <trkpt lat="65.096" lon="12.08724">
        <ele>158.50807</ele>
        <time>2020-08-12T11:38:47.756Z</time>
      </trkpt>
      <trkpt lat="65.09609" lon="12.08726">
        <ele>158.283083</ele>
        <time>2020-08-12T11:38:49.771Z</time>
      </trkpt>
      <trkpt lat="65.09623" lon="12.08729">
        <ele>157.948951</ele>
        <time>2020-08-12T11:38:52.761Z</time>
      </trkpt>
      <trkpt lat="65.09636" lon="12.08732">
        <ele>157.614715</ele>
        <time>2020-08-12T11:38:55.756Z</time>
      </trkpt>
      <trkpt lat="65.09649" lon="12.08735">
        <ele>157.290911</ele>
        <time>2020-08-12T11:38:58.762Z</time>
      </trkpt>
      <trkpt lat="65.09662" lon="12.08737">
        <ele>156.96243</ele>
        <time>2020-08-12T11:39:01.784Z</time>
      </trkpt>
      <trkpt lat="65.09671" lon="12.0874">
        <ele>156.721079</ele>
        <time>2020-08-12T11:39:03.793Z</time>
      </trkpt>
      <trkpt lat="65.0968" lon="12.08742">
        <ele>156.497952</ele>
        <time>2020-08-12T11:39:05.783Z</time>
      </trkpt>
      <trkpt lat="65.09694" lon="12.08747">
        <ele>156.178598</ele>
        <time>2020-08-12T11:39:08.794Z</time>
      </trkpt>
      <trkpt lat="65.09706" lon="12.08753">
        <ele>155.875126</ele>
        <time>2020-08-12T11:39:11.765Z</time>
      </trkpt>
      <trkpt lat="65.09715" lon="12.08758">
        <ele>155.661865</ele>
        <time>2020-08-12T11:39:13.754Z</time>
      </trkpt>
      <trkpt lat="65.09727" lon="12.08769">
        <ele>155.354184</ele>
        <time>2020-08-12T11:39:16.758Z</time>
      </trkpt>
      <trkpt lat="65.09736" lon="12.08777">
        <ele>155.137723</ele>
        <time>2020-08-12T11:39:18.749Z</time>
      </trkpt>
      <trkpt lat="65.09745" lon="12.08787">
        <ele>154.90909</ele>
        <time>2020-08-12T11:39:20.763Z</time>
      </trkpt>
      <trkpt lat="65.09753" lon="12.08799">
        <ele>154.67574</ele>
        <time>2020-08-12T11:39:22.761Z</time>
      </trkpt>
      <trkpt lat="65.09762" lon="12.08811">
        <ele>154.451999</ele>
        <time>2020-08-12T11:39:24.754Z</time>
      </trkpt>
      <trkpt lat="65.09769" lon="12.08823">
        <ele>154.232289</ele>
        <time>2020-08-12T11:39:26.750Z</time>
      </trkpt>
      <trkpt lat="65.09777" lon="12.08838">
        <ele>153.999496</ele>
        <time>2020-08-12T11:39:28.791Z</time>
      </trkpt>
      <trkpt lat="65.09784" lon="12.08853">
        <ele>153.769346</ele>
        <time>2020-08-12T11:39:30.765Z</time>
      </trkpt>
      <trkpt lat="65.09792" lon="12.0887">
        <ele>153.521479</ele>
        <time>2020-08-12T11:39:32.773Z</time>
      </trkpt>
      <trkpt lat="65.098" lon="12.08887">
        <ele>153.268573</ele>
        <time>2020-08-12T11:39:34.774Z</time>
      </trkpt>
      <trkpt lat="65.09809" lon="12.08906">
        <ele>152.987446</ele>
        <time>2020-08-12T11:39:36.773Z</time>
      </trkpt>
      <trkpt lat="65.09817" lon="12.08924">
        <ele>152.740115</ele>
        <time>2020-08-12T11:39:38.753Z</time>
      </trkpt>
      <trkpt lat="65.09824" lon="12.08943">
        <ele>152.490638</ele>
        <time>2020-08-12T11:39:40.768Z</time>
      </trkpt>
      <trkpt lat="65.09832" lon="12.08961">
        <ele>152.137949</ele>
        <time>2020-08-12T11:39:42.761Z</time>
      </trkpt>
      <trkpt lat="65.0984" lon="12.0898">
        <ele>151.682776</ele>
        <time>2020-08-12T11:39:44.754Z</time>
      </trkpt>
      <trkpt lat="65.09848" lon="12.08997">
        <ele>151.239292</ele>
        <time>2020-08-12T11:39:46.753Z</time>
      </trkpt>
      <trkpt lat="65.09857" lon="12.09014">
        <ele>150.775977</ele>
        <time>2020-08-12T11:39:48.770Z</time>
      </trkpt>
      <trkpt lat="65.09866" lon="12.0903">
        <ele>150.309519</ele>
        <time>2020-08-12T11:39:50.743Z</time>
      </trkpt>
      <trkpt lat="65.09875" lon="12.09046">
        <ele>149.844738</ele>
        <time>2020-08-12T11:39:52.768Z</time>
      </trkpt>
      <trkpt lat="65.09884" lon="12.0906">
        <ele>149.39114</ele>
        <time>2020-08-12T11:39:54.747Z</time>
      </trkpt>
      <trkpt lat="65.09893" lon="12.09074">
        <ele>148.94631</ele>
        <time>2020-08-12T11:39:56.748Z</time>
      </trkpt>
      <trkpt lat="65.09903" lon="12.09089">
        <ele>148.478282</ele>
        <time>2020-08-12T11:39:58.791Z</time>
      </trkpt>
      <trkpt lat="65.09912" lon="12.09103">
        <ele>148.028384</ele>
        <time>2020-08-12T11:40:00.773Z</time>
      </trkpt>
      <trkpt lat="65.09921" lon="12.09117">
        <ele>147.581212</ele>
        <time>2020-08-12T11:40:02.761Z</time>
      </trkpt>
      <trkpt lat="65.0993" lon="12.0913">
        <ele>147.13844</ele>
        <time>2020-08-12T11:40:04.773Z</time>
      </trkpt>
      <trkpt lat="65.09939" lon="12.09143">
        <ele>146.704468</ele>
        <time>2020-08-12T11:40:06.769Z</time>
      </trkpt>
      <trkpt lat="65.09949" lon="12.09156">
        <ele>146.259065</ele>
        <time>2020-08-12T11:40:08.759Z</time>
      </trkpt>
      <trkpt lat="65.09958" lon="12.09169">
        <ele>145.806637</ele>
        <time>2020-08-12T11:40:10.763Z</time>
      </trkpt>
      <trkpt lat="65.09968" lon="12.09182">
        <ele>145.351886</ele>
        <time>2020-08-12T11:40:12.764Z</time>
      </trkpt>
      <trkpt lat="65.09978" lon="12.09194">
        <ele>144.943443</ele>
        <time>2020-08-12T11:40:14.782Z</time>
      </trkpt>
      <trkpt lat="65.09988" lon="12.09205">
        <ele>144.789371</ele>
        <time>2020-08-12T11:40:16.770Z</time>
      </trkpt>
      <trkpt lat="65.1" lon="12.09215">
        <ele>144.626149</ele>
        <time>2020-08-12T11:40:18.766Z</time>
      </trkpt>
      <trkpt lat="65.10012" lon="12.09224">
        <ele>144.447487</ele>
        <time>2020-08-12T11:40:20.757Z</time>
      </trkpt>
      <trkpt lat="65.10025" lon="12.09233">
        <ele>144.262726</ele>
        <time>2020-08-12T11:40:22.757Z</time>
      </trkpt>
      <trkpt lat="65.10038" lon="12.0924">
        <ele>144.071284</ele>
        <time>2020-08-12T11:40:24.746Z</time>
      </trkpt>
      <trkpt lat="65.10052" lon="12.09244">
        <ele>143.876561</ele>
        <time>2020-08-12T11:40:26.754Z</time>
      </trkpt>
      <trkpt lat="65.10067" lon="12.09248">
        <ele>143.681342</ele>
        <time>2020-08-12T11:40:28.785Z</time>
      </trkpt>
      <trkpt lat="65.10082" lon="12.0925">
        <ele>143.474526</ele>
        <time>2020-08-12T11:40:30.768Z</time>
      </trkpt>
      <trkpt lat="65.10096" lon="12.09252">
        <ele>143.2689</ele>
        <time>2020-08-12T11:40:32.740Z</time>
      </trkpt>
      <trkpt lat="65.10112" lon="12.09254">
        <ele>143.056674</ele>
        <time>2020-08-12T11:40:34.768Z</time>
      </trkpt>
      <trkpt lat="65.10126" lon="12.09256">
        <ele>142.858034</ele>
        <time>2020-08-12T11:40:36.768Z</time>
      </trkpt>
      <trkpt lat="65.10142" lon="12.09257">
        <ele>142.641878</ele>
        <time>2020-08-12T11:40:38.778Z</time>
      </trkpt>
      <trkpt lat="65.10158" lon="12.09259">
        <ele>142.405062</ele>
        <time>2020-08-12T11:40:40.751Z</time>
      </trkpt>
      <trkpt lat="65.10174" lon="12.09261">
        <ele>142.148882</ele>
        <time>2020-08-12T11:40:42.755Z</time>
      </trkpt>
      <trkpt lat="65.1019" lon="12.09263">
        <ele>141.903725</ele>
        <time>2020-08-12T11:40:44.779Z</time>
      </trkpt>
      <trkpt lat="65.10205" lon="12.09266">
        <ele>141.661555</ele>
        <time>2020-08-12T11:40:46.755Z</time>
      </trkpt>
      <trkpt lat="65.1022" lon="12.09267">
        <ele>141.418359</ele>
        <time>2020-08-12T11:40:48.759Z</time>
      </trkpt>
      <trkpt lat="65.10235" lon="12.09268">
        <ele>141.183141</ele>
        <time>2020-08-12T11:40:50.762Z</time>
      </trkpt>
      <trkpt lat="65.10248" lon="12.09269">
        <ele>140.976442</ele>
        <time>2020-08-12T11:40:52.787Z</time>
      </trkpt>
      <trkpt lat="65.10262" lon="12.09269">
        <ele>140.753987</ele>
        <time>2020-08-12T11:40:54.777Z</time>
      </trkpt>
      <trkpt lat="65.10274" lon="12.09271">
        <ele>140.567751</ele>
        <time>2020-08-12T11:40:56.753Z</time>
      </trkpt>
      <trkpt lat="65.10286" lon="12.09272">
        <ele>140.375465</ele>
        <time>2020-08-12T11:40:58.754Z</time>
      </trkpt>
      <trkpt lat="65.10297" lon="12.09273">
        <ele>140.194102</ele>
        <time>2020-08-12T11:41:00.811Z</time>
      </trkpt>
      <trkpt lat="65.10309" lon="12.09275">
        <ele>140.009364</ele>
        <time>2020-08-12T11:41:02.757Z</time>
      </trkpt>
      <trkpt lat="65.10318" lon="12.09275">
        <ele>139.863171</ele>
        <time>2020-08-12T11:41:04.733Z</time>
      </trkpt>
      <trkpt lat="65.10329" lon="12.09276">
        <ele>139.688276</ele>
        <time>2020-08-12T11:41:06.756Z</time>
      </trkpt>
      <trkpt lat="65.10339" lon="12.09276">
        <ele>139.965343</ele>
        <time>2020-08-12T11:41:08.761Z</time>
      </trkpt>
      <trkpt lat="65.10349" lon="12.09277">
        <ele>140.423287</ele>
        <time>2020-08-12T11:41:10.734Z</time>
      </trkpt>
      <trkpt lat="65.10358" lon="12.09276">
        <ele>140.858007</ele>
        <time>2020-08-12T11:41:12.746Z</time>
      </trkpt>
      <trkpt lat="65.10368" lon="12.09274">
        <ele>141.294401</ele>
        <time>2020-08-12T11:41:14.759Z</time>
      </trkpt>
      <trkpt lat="65.10377" lon="12.09272">
        <ele>141.729837</ele>
        <time>2020-08-12T11:41:16.746Z</time>
      </trkpt>
      <trkpt lat="65.10389" lon="12.09269">
        <ele>142.304121</ele>
        <time>2020-08-12T11:41:19.750Z</time>
      </trkpt>
      <trkpt lat="65.104" lon="12.09263">
        <ele>142.825917</ele>
        <time>2020-08-12T11:41:22.762Z</time>
      </trkpt>
      <trkpt lat="65.1041" lon="12.09257">
        <ele>143.292228</ele>
        <time>2020-08-12T11:41:25.749Z</time>
      </trkpt>
      <trkpt lat="65.1042" lon="12.09249">
        <ele>143.802885</ele>
        <time>2020-08-12T11:41:29.732Z</time>
      </trkpt>
      <trkpt lat="65.1043" lon="12.09241">
        <ele>144.305909</ele>
        <time>2020-08-12T11:41:33.781Z</time>
      </trkpt>
      <trkpt lat="65.10439" lon="12.09231">
        <ele>144.768395</ele>
        <time>2020-08-12T11:41:38.789Z</time>
      </trkpt>
      <trkpt lat="65.10448" lon="12.0922">
        <ele>145.22025</ele>
        <time>2020-08-12T11:41:43.786Z</time>
      </trkpt>
      <trkpt lat="65.10455" lon="12.09208">
        <ele>145.649366</ele>
        <time>2020-08-12T11:41:48.768Z</time>
      </trkpt>
      <trkpt lat="65.10463" lon="12.09194">
        <ele>146.086571</ele>
        <time>2020-08-12T11:41:52.783Z</time>
      </trkpt>
      <trkpt lat="65.1047" lon="12.09179">
        <ele>146.527495</ele>
        <time>2020-08-12T11:41:56.765Z</time>
      </trkpt>
      <trkpt lat="65.10477" lon="12.09164">
        <ele>146.986181</ele>
        <time>2020-08-12T11:42:01.786Z</time>
      </trkpt>
      <trkpt lat="65.10485" lon="12.09147">
        <ele>147.475969</ele>
        <time>2020-08-12T11:42:06.770Z</time>
      </trkpt>
      <trkpt lat="65.10492" lon="12.09132">
        <ele>147.909509</ele>
        <time>2020-08-12T11:42:11.787Z</time>
      </trkpt>
      <trkpt lat="65.10498" lon="12.09116">
        <ele>148.087426</ele>
        <time>2020-08-12T11:42:16.764Z</time>
      </trkpt>
      <trkpt lat="65.10506" lon="12.09101">
        <ele>148.158083</ele>
        <time>2020-08-12T11:42:21.751Z</time>
      </trkpt>
      <trkpt lat="65.10513" lon="12.09085">
        <ele>148.232003</ele>
        <time>2020-08-12T11:42:26.762Z</time>
      </trkpt>
      <trkpt lat="65.10522" lon="12.0907">
        <ele>148.308418</ele>
        <time>2020-08-12T11:42:32.778Z</time>
      </trkpt>
      <trkpt lat="65.1053" lon="12.09057">
        <ele>148.378228</ele>
        <time>2020-08-12T11:42:37.768Z</time>
      </trkpt>
      <trkpt lat="65.10538" lon="12.09045">
        <ele>148.447255</ele>
        <time>2020-08-12T11:42:42.745Z</time>
      </trkpt>
      <trkpt lat="65.10548" lon="12.09034">
        <ele>148.524953</ele>
        <time>2020-08-12T11:42:47.797Z</time>
      </trkpt>
      <trkpt lat="65.10557" lon="12.09026">
        <ele>148.595539</ele>
        <time>2020-08-12T11:42:52.827Z</time>
      </trkpt>
      <trkpt lat="65.10568" lon="12.09019">
        <ele>148.67224</ele>
        <time>2020-08-12T11:42:57.769Z</time>
      </trkpt>
      <trkpt lat="65.10578" lon="12.09015">
        <ele>148.74513</ele>
        <time>2020-08-12T11:43:01.765Z</time>
      </trkpt>
      <trkpt lat="65.10588" lon="12.09013">
        <ele>148.81904</ele>
        <time>2020-08-12T11:43:05.790Z</time>
      </trkpt>
      <trkpt lat="65.10599" lon="12.09015">
        <ele>148.898664</ele>
        <time>2020-08-12T11:43:09.759Z</time>
      </trkpt>
      <trkpt lat="65.1061" lon="12.0902">
        <ele>148.979048</ele>
        <time>2020-08-12T11:43:13.767Z</time>
      </trkpt>
      <trkpt lat="65.10619" lon="12.09026">
        <ele>149.046209</ele>
        <time>2020-08-12T11:43:16.772Z</time>
      </trkpt>
      <trkpt lat="65.10629" lon="12.09035">
        <ele>149.121066</ele>
        <time>2020-08-12T11:43:19.763Z</time>
      </trkpt>
      <trkpt lat="65.10638" lon="12.09049">
        <ele>149.201639</ele>
        <time>2020-08-12T11:43:22.757Z</time>
      </trkpt>
      <trkpt lat="65.10649" lon="12.09068">
        <ele>149.296037</ele>
        <time>2020-08-12T11:43:25.766Z</time>
      </trkpt>
      <trkpt lat="65.10656" lon="12.09085">
        <ele>149.143686</ele>
        <time>2020-08-12T11:43:27.779Z</time>
      </trkpt>
      <trkpt lat="65.10663" lon="12.09105">
        <ele>148.758825</ele>
        <time>2020-08-12T11:43:29.758Z</time>
      </trkpt>
      <trkpt lat="65.10669" lon="12.09128">
        <ele>148.358452</ele>
        <time>2020-08-12T11:43:31.747Z</time>
      </trkpt>
      <trkpt lat="65.10676" lon="12.09155">
        <ele>147.916765</ele>
        <time>2020-08-12T11:43:33.758Z</time>
      </trkpt>
      <trkpt lat="65.10682" lon="12.09183">
        <ele>147.445479</ele>
        <time>2020-08-12T11:43:35.778Z</time>
      </trkpt>
      <trkpt lat="65.10689" lon="12.09214">
        <ele>146.947136</ele>
        <time>2020-08-12T11:43:37.766Z</time>
      </trkpt>
      <trkpt lat="65.10696" lon="12.09247">
        <ele>146.414444</ele>
        <time>2020-08-12T11:43:39.750Z</time>
      </trkpt>
      <trkpt lat="65.10702" lon="12.09283">
        <ele>145.830116</ele>
        <time>2020-08-12T11:43:41.764Z</time>
      </trkpt>
      <trkpt lat="65.10706" lon="12.09303">
        <ele>145.52016</ele>
        <time>2020-08-12T11:43:42.788Z</time>
      </trkpt>
      <trkpt lat="65.10714" lon="12.09342">
        <ele>144.884332</ele>
        <time>2020-08-12T11:43:44.784Z</time>
      </trkpt>
      <trkpt lat="65.10718" lon="12.09362">
        <ele>144.561081</ele>
        <time>2020-08-12T11:43:45.791Z</time>
      </trkpt>
      <trkpt lat="65.10722" lon="12.09383">
        <ele>144.236748</ele>
        <time>2020-08-12T11:43:46.759Z</time>
      </trkpt>
      <trkpt lat="65.10725" lon="12.09405">
        <ele>143.894923</ele>
        <time>2020-08-12T11:43:47.749Z</time>
      </trkpt>
      <trkpt lat="65.10729" lon="12.09427">
        <ele>143.551249</ele>
        <time>2020-08-12T11:43:48.774Z</time>
      </trkpt>
      <trkpt lat="65.10732" lon="12.0945">
        <ele>143.193261</ele>
        <time>2020-08-12T11:43:49.755Z</time>
      </trkpt>
      <trkpt lat="65.10735" lon="12.09475">
        <ele>142.475822</ele>
        <time>2020-08-12T11:43:50.793Z</time>
      </trkpt>
      <trkpt lat="65.10738" lon="12.09499">
        <ele>141.687741</ele>
        <time>2020-08-12T11:43:51.753Z</time>
      </trkpt>
      <trkpt lat="65.10741" lon="12.09526">
        <ele>140.850705</ele>
        <time>2020-08-12T11:43:52.788Z</time>
      </trkpt>
      <trkpt lat="65.10744" lon="12.09552">
        <ele>139.996846</ele>
        <time>2020-08-12T11:43:53.832Z</time>
      </trkpt>
      <trkpt lat="65.10747" lon="12.09579">
        <ele>139.15125</ele>
        <time>2020-08-12T11:43:54.773Z</time>
      </trkpt>
      <trkpt lat="65.10749" lon="12.09605">
        <ele>138.324952</ele>
        <time>2020-08-12T11:43:55.751Z</time>
      </trkpt>
      <trkpt lat="65.10751" lon="12.09633">
        <ele>137.452077</ele>
        <time>2020-08-12T11:43:56.771Z</time>
      </trkpt>
      <trkpt lat="65.10753" lon="12.09661">
        <ele>136.567254</ele>
        <time>2020-08-12T11:43:57.757Z</time>
      </trkpt>
      <trkpt lat="65.10756" lon="12.09689">
        <ele>135.670291</ele>
        <time>2020-08-12T11:43:58.762Z</time>
      </trkpt>
      <trkpt lat="65.10758" lon="12.09717">
        <ele>134.792985</ele>
        <time>2020-08-12T11:43:59.762Z</time>
      </trkpt>
      <trkpt lat="65.10761" lon="12.09743">
        <ele>133.958956</ele>
        <time>2020-08-12T11:44:00.769Z</time>
      </trkpt>
      <trkpt lat="65.10764" lon="12.0977">
        <ele>133.097279</ele>
        <time>2020-08-12T11:44:01.764Z</time>
      </trkpt>
      <trkpt lat="65.10768" lon="12.09799">
        <ele>132.15457</ele>
        <time>2020-08-12T11:44:02.798Z</time>
      </trkpt>
      <trkpt lat="65.10772" lon="12.09824">
        <ele>131.318303</ele>
        <time>2020-08-12T11:44:03.755Z</time>
      </trkpt>
      <trkpt lat="65.10778" lon="12.0985">
        <ele>130.424938</ele>
        <time>2020-08-12T11:44:04.787Z</time>
      </trkpt>
      <trkpt lat="65.10784" lon="12.09878">
        <ele>129.311828</ele>
        <time>2020-08-12T11:44:05.748Z</time>
      </trkpt>
      <trkpt lat="65.10791" lon="12.09904">
        <ele>128.147646</ele>
        <time>2020-08-12T11:44:06.765Z</time>
      </trkpt>
      <trkpt lat="65.108" lon="12.09932">
        <ele>126.833583</ele>
        <time>2020-08-12T11:44:07.793Z</time>
      </trkpt>
      <trkpt lat="65.10808" lon="12.09956">
        <ele>125.654138</ele>
        <time>2020-08-12T11:44:08.767Z</time>
      </trkpt>
      <trkpt lat="65.10817" lon="12.09978">
        <ele>124.465685</ele>
        <time>2020-08-12T11:44:09.806Z</time>
      </trkpt>
      <trkpt lat="65.10827" lon="12.09996">
        <ele>123.371803</ele>
        <time>2020-08-12T11:44:10.757Z</time>
      </trkpt>
      <trkpt lat="65.10837" lon="12.10016">
        <ele>122.166968</ele>
        <time>2020-08-12T11:44:11.772Z</time>
      </trkpt>
      <trkpt lat="65.10847" lon="12.10033">
        <ele>121.04587</ele>
        <time>2020-08-12T11:44:12.774Z</time>
      </trkpt>
      <trkpt lat="65.10859" lon="12.10052">
        <ele>119.802685</ele>
        <time>2020-08-12T11:44:13.764Z</time>
      </trkpt>
      <trkpt lat="65.10871" lon="12.10077">
        <ele>118.331563</ele>
        <time>2020-08-12T11:44:14.745Z</time>
      </trkpt>
      <trkpt lat="65.10882" lon="12.10098">
        <ele>117.049075</ele>
        <time>2020-08-12T11:44:15.755Z</time>
      </trkpt>
      <trkpt lat="65.10893" lon="12.10117">
        <ele>115.856179</ele>
        <time>2020-08-12T11:44:16.779Z</time>
      </trkpt>
      <trkpt lat="65.10903" lon="12.10136">
        <ele>114.670368</ele>
        <time>2020-08-12T11:44:17.750Z</time>
      </trkpt>
      <trkpt lat="65.10914" lon="12.10156">
        <ele>113.487655</ele>
        <time>2020-08-12T11:44:18.751Z</time>
      </trkpt>
      <trkpt lat="65.10925" lon="12.10174">
        <ele>112.461984</ele>
        <time>2020-08-12T11:44:19.765Z</time>
      </trkpt>
      <trkpt lat="65.10935" lon="12.10192">
        <ele>111.51032</ele>
        <time>2020-08-12T11:44:20.810Z</time>
      </trkpt>
      <trkpt lat="65.10945" lon="12.10212">
        <ele>110.489206</ele>
        <time>2020-08-12T11:44:21.767Z</time>
      </trkpt>
      <trkpt lat="65.10956" lon="12.1023">
        <ele>109.48524</ele>
        <time>2020-08-12T11:44:22.761Z</time>
      </trkpt>
      <trkpt lat="65.10967" lon="12.10248">
        <ele>108.46821</ele>
        <time>2020-08-12T11:44:23.781Z</time>
      </trkpt>
      <trkpt lat="65.10977" lon="12.10265">
        <ele>107.549673</ele>
        <time>2020-08-12T11:44:24.748Z</time>
      </trkpt>
      <trkpt lat="65.10988" lon="12.10284">
        <ele>106.4894</ele>
        <time>2020-08-12T11:44:25.768Z</time>
      </trkpt>
      <trkpt lat="65.10999" lon="12.10302">
        <ele>105.471516</ele>
        <time>2020-08-12T11:44:26.744Z</time>
      </trkpt>
      <trkpt lat="65.11011" lon="12.10319">
        <ele>104.448014</ele>
        <time>2020-08-12T11:44:27.757Z</time>
      </trkpt>
      <trkpt lat="65.11022" lon="12.10336">
        <ele>103.442962</ele>
        <time>2020-08-12T11:44:28.765Z</time>
      </trkpt>
      <trkpt lat="65.11033" lon="12.10351">
        <ele>102.472348</ele>
        <time>2020-08-12T11:44:29.749Z</time>
      </trkpt>
      <trkpt lat="65.11045" lon="12.10367">
        <ele>101.410049</ele>
        <time>2020-08-12T11:44:30.803Z</time>
      </trkpt>
      <trkpt lat="65.11057" lon="12.10383">
        <ele>100.387142</ele>
        <time>2020-08-12T11:44:31.769Z</time>
      </trkpt>
      <trkpt lat="65.11069" lon="12.10397">
        <ele>99.442422</ele>
        <time>2020-08-12T11:44:32.747Z</time>
      </trkpt>
      <trkpt lat="65.1108" lon="12.10413">
        <ele>98.511791</ele>
        <time>2020-08-12T11:44:33.767Z</time>
      </trkpt>
      <trkpt lat="65.11093" lon="12.10428">
        <ele>97.548389</ele>
        <time>2020-08-12T11:44:34.800Z</time>
      </trkpt>
      <trkpt lat="65.11105" lon="12.10443">
        <ele>96.597233</ele>
        <time>2020-08-12T11:44:35.766Z</time>
      </trkpt>
      <trkpt lat="65.11116" lon="12.10458">
        <ele>95.681601</ele>
        <time>2020-08-12T11:44:36.810Z</time>
      </trkpt>
      <trkpt lat="65.11129" lon="12.10474">
        <ele>94.716808</ele>
        <time>2020-08-12T11:44:37.789Z</time>
      </trkpt>
      <trkpt lat="65.11141" lon="12.10489">
        <ele>93.745268</ele>
        <time>2020-08-12T11:44:38.763Z</time>
      </trkpt>
      <trkpt lat="65.11153" lon="12.10505">
        <ele>92.766222</ele>
        <time>2020-08-12T11:44:39.762Z</time>
      </trkpt>
      <trkpt lat="65.11165" lon="12.1052">
        <ele>91.825316</ele>
        <time>2020-08-12T11:44:40.774Z</time>
      </trkpt>
      <trkpt lat="65.11177" lon="12.10536">
        <ele>90.899787</ele>
        <time>2020-08-12T11:44:41.751Z</time>
      </trkpt>
      <trkpt lat="65.11189" lon="12.10552">
        <ele>89.940133</ele>
        <time>2020-08-12T11:44:42.754Z</time>
      </trkpt>
      <trkpt lat="65.11199" lon="12.10569">
        <ele>89.068552</ele>
        <time>2020-08-12T11:44:43.774Z</time>
      </trkpt>
      <trkpt lat="65.11211" lon="12.10589">
        <ele>88.043408</ele>
        <time>2020-08-12T11:44:44.799Z</time>
      </trkpt>
      <trkpt lat="65.11223" lon="12.10609">
        <ele>86.986211</ele>
        <time>2020-08-12T11:44:45.768Z</time>
      </trkpt>
      <trkpt lat="65.11235" lon="12.1063">
        <ele>85.835321</ele>
        <time>2020-08-12T11:44:46.750Z</time>
      </trkpt>
      <trkpt lat="65.11246" lon="12.10651">
        <ele>84.705415</ele>
        <time>2020-08-12T11:44:47.800Z</time>
      </trkpt>
      <trkpt lat="65.11258" lon="12.10672">
        <ele>83.581692</ele>
        <time>2020-08-12T11:44:48.785Z</time>
      </trkpt>
      <trkpt lat="65.11268" lon="12.10693">
        <ele>82.492505</ele>
        <time>2020-08-12T11:44:49.774Z</time>
      </trkpt>
      <trkpt lat="65.11279" lon="12.10714">
        <ele>81.419154</ele>
        <time>2020-08-12T11:44:50.770Z</time>
      </trkpt>
      <trkpt lat="65.11289" lon="12.10736">
        <ele>80.335002</ele>
        <time>2020-08-12T11:44:51.767Z</time>
      </trkpt>
      <trkpt lat="65.11299" lon="12.10757">
        <ele>79.26326</ele>
        <time>2020-08-12T11:44:52.751Z</time>
      </trkpt>
      <trkpt lat="65.1131" lon="12.10779">
        <ele>78.184212</ele>
        <time>2020-08-12T11:44:53.770Z</time>
      </trkpt>
      <trkpt lat="65.11319" lon="12.10801">
        <ele>77.133638</ele>
        <time>2020-08-12T11:44:54.754Z</time>
      </trkpt>
      <trkpt lat="65.11329" lon="12.10822">
        <ele>76.085287</ele>
        <time>2020-08-12T11:44:55.757Z</time>
      </trkpt>
      <trkpt lat="65.11339" lon="12.10844">
        <ele>75.016476</ele>
        <time>2020-08-12T11:44:56.766Z</time>
      </trkpt>
      <trkpt lat="65.11349" lon="12.10864">
        <ele>73.987858</ele>
        <time>2020-08-12T11:44:57.769Z</time>
      </trkpt>
      <trkpt lat="65.11359" lon="12.10886">
        <ele>72.931977</ele>
        <time>2020-08-12T11:44:58.789Z</time>
      </trkpt>
      <trkpt lat="65.11369" lon="12.10908">
        <ele>71.908153</ele>
        <time>2020-08-12T11:44:59.764Z</time>
      </trkpt>
      <trkpt lat="65.11379" lon="12.1093">
        <ele>70.887933</ele>
        <time>2020-08-12T11:45:00.757Z</time>
      </trkpt>
      <trkpt lat="65.11389" lon="12.10952">
        <ele>69.867571</ele>
        <time>2020-08-12T11:45:01.773Z</time>
      </trkpt>
      <trkpt lat="65.11399" lon="12.10973">
        <ele>68.835135</ele>
        <time>2020-08-12T11:45:02.765Z</time>
      </trkpt>
      <trkpt lat="65.11409" lon="12.10996">
        <ele>67.789426</ele>
        <time>2020-08-12T11:45:03.807Z</time>
      </trkpt>
      <trkpt lat="65.11418" lon="12.11019">
        <ele>66.796267</ele>
        <time>2020-08-12T11:45:04.762Z</time>
      </trkpt>
      <trkpt lat="65.11428" lon="12.11042">
        <ele>65.75978</ele>
        <time>2020-08-12T11:45:05.775Z</time>
      </trkpt>
      <trkpt lat="65.11436" lon="12.11066">
        <ele>64.755008</ele>
        <time>2020-08-12T11:45:06.773Z</time>
      </trkpt>
      <trkpt lat="65.11445" lon="12.1109">
        <ele>63.762549</ele>
        <time>2020-08-12T11:45:07.757Z</time>
      </trkpt>
      <trkpt lat="65.11454" lon="12.11116">
        <ele>62.686986</ele>
        <time>2020-08-12T11:45:08.756Z</time>
      </trkpt>
      <trkpt lat="65.11462" lon="12.11142">
        <ele>61.633547</ele>
        <time>2020-08-12T11:45:09.771Z</time>
      </trkpt>
      <trkpt lat="65.1147" lon="12.11167">
        <ele>60.611186</ele>
        <time>2020-08-12T11:45:10.802Z</time>
      </trkpt>
      <trkpt lat="65.11478" lon="12.11192">
        <ele>59.626146</ele>
        <time>2020-08-12T11:45:11.767Z</time>
      </trkpt>
      <trkpt lat="65.11486" lon="12.11217">
        <ele>58.649789</ele>
        <time>2020-08-12T11:45:12.759Z</time>
      </trkpt>
      <trkpt lat="65.11494" lon="12.11242">
        <ele>57.646919</ele>
        <time>2020-08-12T11:45:13.775Z</time>
      </trkpt>
      <trkpt lat="65.11502" lon="12.11267">
        <ele>56.63414</ele>
        <time>2020-08-12T11:45:14.796Z</time>
      </trkpt>
      <trkpt lat="65.11511" lon="12.11293">
        <ele>55.620372</ele>
        <time>2020-08-12T11:45:15.753Z</time>
      </trkpt>
      <trkpt lat="65.11519" lon="12.11319">
        <ele>54.608507</ele>
        <time>2020-08-12T11:45:16.753Z</time>
      </trkpt>
      <trkpt lat="65.11526" lon="12.11345">
        <ele>53.601979</ele>
        <time>2020-08-12T11:45:17.744Z</time>
      </trkpt>
      <trkpt lat="65.11534" lon="12.11372">
        <ele>52.56716</ele>
        <time>2020-08-12T11:45:18.789Z</time>
      </trkpt>
      <trkpt lat="65.11541" lon="12.11398">
        <ele>51.605458</ele>
        <time>2020-08-12T11:45:19.752Z</time>
      </trkpt>
      <trkpt lat="65.11548" lon="12.11427">
        <ele>50.556869</ele>
        <time>2020-08-12T11:45:20.774Z</time>
      </trkpt>
      <trkpt lat="65.11554" lon="12.11455">
        <ele>49.575938</ele>
        <time>2020-08-12T11:45:21.777Z</time>
      </trkpt>
      <trkpt lat="65.1156" lon="12.11485">
        <ele>48.550664</ele>
        <time>2020-08-12T11:45:22.777Z</time>
      </trkpt>
      <trkpt lat="65.11565" lon="12.11516">
        <ele>47.502404</ele>
        <time>2020-08-12T11:45:23.774Z</time>
      </trkpt>
      <trkpt lat="65.11569" lon="12.11545">
        <ele>46.528011</ele>
        <time>2020-08-12T11:45:24.781Z</time>
      </trkpt>
      <trkpt lat="65.11573" lon="12.11576">
        <ele>46.132124</ele>
        <time>2020-08-12T11:45:25.767Z</time>
      </trkpt>
      <trkpt lat="65.11577" lon="12.11606">
        <ele>45.905641</ele>
        <time>2020-08-12T11:45:26.757Z</time>
      </trkpt>
      <trkpt lat="65.1158" lon="12.11628">
        <ele>45.73082</ele>
        <time>2020-08-12T11:45:27.767Z</time>
      </trkpt>
      <trkpt lat="65.11589" lon="12.11679">
        <ele>45.317701</ele>
        <time>2020-08-12T11:45:29.759Z</time>
      </trkpt>
      <trkpt lat="65.11593" lon="12.11708">
        <ele>45.092596</ele>
        <time>2020-08-12T11:45:30.765Z</time>
      </trkpt>
      <trkpt lat="65.11599" lon="12.11739">
        <ele>44.838866</ele>
        <time>2020-08-12T11:45:31.805Z</time>
      </trkpt>
      <trkpt lat="65.11603" lon="12.11761">
        <ele>44.656028</ele>
        <time>2020-08-12T11:45:32.775Z</time>
      </trkpt>
      <trkpt lat="65.11611" lon="12.11798">
        <ele>44.351981</ele>
        <time>2020-08-12T11:45:34.775Z</time>
      </trkpt>
      <trkpt lat="65.11619" lon="12.11834">
        <ele>44.054585</ele>
        <time>2020-08-12T11:45:36.764Z</time>
      </trkpt>
      <trkpt lat="65.11625" lon="12.11861">
        <ele>43.822708</ele>
        <time>2020-08-12T11:45:38.785Z</time>
      </trkpt>
      <trkpt lat="65.11629" lon="12.11882">
        <ele>43.652394</ele>
        <time>2020-08-12T11:45:40.752Z</time>
      </trkpt>
      <trkpt lat="65.11632" lon="12.11904">
        <ele>43.477186</ele>
        <time>2020-08-12T11:45:42.763Z</time>
      </trkpt>
      <trkpt lat="65.11637" lon="12.11932">
        <ele>43.2583</ele>
        <time>2020-08-12T11:45:45.777Z</time>
      </trkpt>
      <trkpt lat="65.11641" lon="12.11955">
        <ele>43.533691</ele>
        <time>2020-08-12T11:45:49.766Z</time>
      </trkpt>
      <trkpt lat="65.11644" lon="12.11976">
        <ele>44.377656</ele>
        <time>2020-08-12T11:45:53.775Z</time>
      </trkpt>
      <trkpt lat="65.11646" lon="12.12">
        <ele>45.269615</ele>
        <time>2020-08-12T11:45:58.766Z</time>
      </trkpt>
      <trkpt lat="65.11648" lon="12.12024">
        <ele>46.18885</ele>
        <time>2020-08-12T11:46:02.747Z</time>
      </trkpt>
      <trkpt lat="65.11651" lon="12.12047">
        <ele>47.073097</ele>
        <time>2020-08-12T11:46:07.770Z</time>
      </trkpt>
      <trkpt lat="65.11651" lon="12.1207">
        <ele>47.916859</ele>
        <time>2020-08-12T11:46:12.756Z</time>
      </trkpt>
      <trkpt lat="65.11653" lon="12.12095">
        <ele>48.844884</ele>
        <time>2020-08-12T11:46:17.787Z</time>
      </trkpt>
      <trkpt lat="65.11655" lon="12.12116">
        <ele>49.627888</ele>
        <time>2020-08-12T11:46:22.751Z</time>
      </trkpt>
      <trkpt lat="65.11656" lon="12.12138">
        <ele>50.430491</ele>
        <time>2020-08-12T11:46:28.776Z</time>
      </trkpt>
      <trkpt lat="65.11655" lon="12.12161">
        <ele>51.301778</ele>
        <time>2020-08-12T11:46:33.770Z</time>
      </trkpt>
      <trkpt lat="65.11656" lon="12.12186">
        <ele>52.21348</ele>
        <time>2020-08-12T11:46:38.745Z</time>
      </trkpt>
      <trkpt lat="65.11656" lon="12.12209">
        <ele>53.060514</ele>
        <time>2020-08-12T11:46:43.789Z</time>
      </trkpt>
      <trkpt lat="65.11655" lon="12.12231">
        <ele>53.89287</ele>
        <time>2020-08-12T11:46:48.780Z</time>
      </trkpt>
      <trkpt lat="65.11655" lon="12.12256">
        <ele>54.792996</ele>
        <time>2020-08-12T11:46:53.758Z</time>
      </trkpt>
      <trkpt lat="65.11653" lon="12.12282">
        <ele>55.751016</ele>
        <time>2020-08-12T11:46:59.794Z</time>
      </trkpt>
      <trkpt lat="65.11652" lon="12.12305">
        <ele>56.622725</ele>
        <time>2020-08-12T11:47:04.759Z</time>
      </trkpt>
      <trkpt lat="65.11912" lon="12.13359">
        <ele>45.109548</ele>
        <time>2020-08-12T11:49:07.839Z</time>
      </trkpt>
      <trkpt lat="65.11916" lon="12.13337">
        <ele>45.035483</ele>
        <time>2020-08-12T11:49:08.765Z</time>
      </trkpt>
      <trkpt lat="65.1192" lon="12.13317">
        <ele>44.967117</ele>
        <time>2020-08-12T11:49:09.767Z</time>
      </trkpt>
      <trkpt lat="65.1193" lon="12.13343">
        <ele>44.860673</ele>
        <time>2020-08-12T11:49:10.767Z</time>
      </trkpt>
      <trkpt lat="65.11942" lon="12.13369">
        <ele>44.744435</ele>
        <time>2020-08-12T11:49:12.777Z</time>
      </trkpt>
      <trkpt lat="65.11956" lon="12.13387">
        <ele>46.011021</ele>
        <time>2020-08-12T11:49:14.785Z</time>
      </trkpt>
      <trkpt lat="65.11967" lon="12.13402">
        <ele>47.092224</ele>
        <time>2020-08-12T11:49:16.789Z</time>
      </trkpt>
      <trkpt lat="65.11976" lon="12.13413">
        <ele>47.937179</ele>
        <time>2020-08-12T11:49:18.759Z</time>
      </trkpt>
      <trkpt lat="65.11987" lon="12.13427">
        <ele>48.962955</ele>
        <time>2020-08-12T11:49:21.787Z</time>
      </trkpt>
      <trkpt lat="65.11995" lon="12.13439">
        <ele>49.801618</ele>
        <time>2020-08-12T11:49:24.768Z</time>
      </trkpt>
      <trkpt lat="65.12004" lon="12.13452">
        <ele>50.666034</ele>
        <time>2020-08-12T11:49:28.767Z</time>
      </trkpt>
      <trkpt lat="65.12011" lon="12.13469">
        <ele>51.566018</ele>
        <time>2020-08-12T11:49:33.763Z</time>
      </trkpt>
      <trkpt lat="65.12019" lon="12.13485">
        <ele>52.429464</ele>
        <time>2020-08-12T11:49:38.765Z</time>
      </trkpt>
      <trkpt lat="65.12026" lon="12.13501">
        <ele>53.2189</ele>
        <time>2020-08-12T11:49:43.766Z</time>
      </trkpt>
      <trkpt lat="65.12032" lon="12.13517">
        <ele>54.00347</ele>
        <time>2020-08-12T11:49:48.759Z</time>
      </trkpt>
      <trkpt lat="65.12038" lon="12.13533">
        <ele>54.788039</ele>
        <time>2020-08-12T11:49:53.761Z</time>
      </trkpt>
      <trkpt lat="65.12044" lon="12.13551">
        <ele>55.607236</ele>
        <time>2020-08-12T11:49:58.768Z</time>
      </trkpt>
      <trkpt lat="65.12051" lon="12.1357">
        <ele>56.478889</ele>
        <time>2020-08-12T11:50:04.750Z</time>
      </trkpt>
      <trkpt lat="65.12056" lon="12.13589">
        <ele>57.298897</ele>
        <time>2020-08-12T11:50:09.766Z</time>
      </trkpt>
      <trkpt lat="65.12063" lon="12.13609">
        <ele>58.216287</ele>
        <time>2020-08-12T11:50:15.788Z</time>
      </trkpt>
      <trkpt lat="65.12069" lon="12.1363">
        <ele>59.115548</ele>
        <time>2020-08-12T11:50:20.751Z</time>
      </trkpt>
      <trkpt lat="65.12074" lon="12.13652">
        <ele>59.993873</ele>
        <time>2020-08-12T11:50:25.766Z</time>
      </trkpt>
      <trkpt lat="65.12079" lon="12.13672">
        <ele>60.063138</ele>
        <time>2020-08-12T11:50:29.750Z</time>
      </trkpt>
      <trkpt lat="65.12085" lon="12.13695">
        <ele>60.14064</ele>
        <time>2020-08-12T11:50:34.757Z</time>
      </trkpt>
      <trkpt lat="65.12091" lon="12.13716">
        <ele>60.216682</ele>
        <time>2020-08-12T11:50:38.778Z</time>
      </trkpt>
      <trkpt lat="65.12097" lon="12.13734">
        <ele>60.281456</ele>
        <time>2020-08-12T11:50:41.756Z</time>
      </trkpt>
      <trkpt lat="65.12102" lon="12.13751">
        <ele>60.345497</ele>
        <time>2020-08-12T11:50:44.785Z</time>
      </trkpt>
      <trkpt lat="65.12108" lon="12.13776">
        <ele>60.427682</ele>
        <time>2020-08-12T11:50:48.787Z</time>
      </trkpt>
      <trkpt lat="65.12113" lon="12.13794">
        <ele>60.492071</ele>
        <time>2020-08-12T11:50:51.759Z</time>
      </trkpt>
      <trkpt lat="65.12118" lon="12.13815">
        <ele>60.564444</ele>
        <time>2020-08-12T11:50:54.765Z</time>
      </trkpt>
      <trkpt lat="65.12124" lon="12.13836">
        <ele>60.639706</ele>
        <time>2020-08-12T11:50:57.752Z</time>
      </trkpt>
      <trkpt lat="65.1213" lon="12.13861">
        <ele>60.722594</ele>
        <time>2020-08-12T11:51:00.807Z</time>
      </trkpt>
      <trkpt lat="65.12136" lon="12.13885">
        <ele>60.807942</ele>
        <time>2020-08-12T11:51:03.769Z</time>
      </trkpt>
      <trkpt lat="65.12143" lon="12.13909">
        <ele>60.889672</ele>
        <time>2020-08-12T11:51:06.794Z</time>
      </trkpt>
      <trkpt lat="65.12148" lon="12.13931">
        <ele>60.967537</ele>
        <time>2020-08-12T11:51:09.772Z</time>
      </trkpt>
      <trkpt lat="65.12155" lon="12.13954">
        <ele>61.049542</ele>
        <time>2020-08-12T11:51:12.759Z</time>
      </trkpt>
      <trkpt lat="65.12161" lon="12.13978">
        <ele>61.133389</ele>
        <time>2020-08-12T11:51:15.806Z</time>
      </trkpt>
      <trkpt lat="65.12167" lon="12.14005">
        <ele>61.22193</ele>
        <time>2020-08-12T11:51:18.797Z</time>
      </trkpt>
      <trkpt lat="65.12171" lon="12.14024">
        <ele>61.115345</ele>
        <time>2020-08-12T11:51:20.770Z</time>
      </trkpt>
      <trkpt lat="65.12176" lon="12.14045">
        <ele>60.843205</ele>
        <time>2020-08-12T11:51:22.797Z</time>
      </trkpt>
      <trkpt lat="65.12181" lon="12.14067">
        <ele>60.546747</ele>
        <time>2020-08-12T11:51:24.759Z</time>
      </trkpt>
      <trkpt lat="65.12186" lon="12.14093">
        <ele>60.213165</ele>
        <time>2020-08-12T11:51:26.767Z</time>
      </trkpt>
      <trkpt lat="65.1219" lon="12.14121">
        <ele>59.861437</ele>
        <time>2020-08-12T11:51:28.758Z</time>
      </trkpt>
      <trkpt lat="65.12195" lon="12.14152">
        <ele>59.480984</ele>
        <time>2020-08-12T11:51:30.759Z</time>
      </trkpt>
      <trkpt lat="65.12199" lon="12.14185">
        <ele>59.077871</ele>
        <time>2020-08-12T11:51:32.777Z</time>
      </trkpt>
      <trkpt lat="65.12203" lon="12.1422">
        <ele>58.65531</ele>
        <time>2020-08-12T11:51:34.751Z</time>
      </trkpt>
      <trkpt lat="65.12205" lon="12.14258">
        <ele>58.210395</ele>
        <time>2020-08-12T11:51:36.772Z</time>
      </trkpt>
      <trkpt lat="65.12206" lon="12.14298">
        <ele>57.742259</ele>
        <time>2020-08-12T11:51:38.755Z</time>
      </trkpt>
      <trkpt lat="65.12206" lon="12.1434">
        <ele>57.259171</ele>
        <time>2020-08-12T11:51:40.757Z</time>
      </trkpt>
      <trkpt lat="65.12205" lon="12.14382">
        <ele>56.758823</ele>
        <time>2020-08-12T11:51:42.788Z</time>
      </trkpt>
      <trkpt lat="65.12204" lon="12.14405">
        <ele>56.497138</ele>
        <time>2020-08-12T11:51:43.748Z</time>
      </trkpt>
      <trkpt lat="65.12203" lon="12.14428">
        <ele>56.21042</ele>
        <time>2020-08-12T11:51:44.783Z</time>
      </trkpt>
      <trkpt lat="65.12201" lon="12.14451">
        <ele>55.807489</ele>
        <time>2020-08-12T11:51:45.784Z</time>
      </trkpt>
      <trkpt lat="65.12199" lon="12.14475">
        <ele>55.391557</ele>
        <time>2020-08-12T11:51:46.783Z</time>
      </trkpt>
      <trkpt lat="65.12196" lon="12.145">
        <ele>54.969846</ele>
        <time>2020-08-12T11:51:47.771Z</time>
      </trkpt>
      <trkpt lat="65.12194" lon="12.14525">
        <ele>54.542105</ele>
        <time>2020-08-12T11:51:48.753Z</time>
      </trkpt>
      <trkpt lat="65.12191" lon="12.1455">
        <ele>54.105863</ele>
        <time>2020-08-12T11:51:49.751Z</time>
      </trkpt>
      <trkpt lat="65.12188" lon="12.14575">
        <ele>53.663649</ele>
        <time>2020-08-12T11:51:50.762Z</time>
      </trkpt>
      <trkpt lat="65.12184" lon="12.146">
        <ele>53.226256</ele>
        <time>2020-08-12T11:51:51.780Z</time>
      </trkpt>
      <trkpt lat="65.12181" lon="12.14625">
        <ele>52.782431</ele>
        <time>2020-08-12T11:51:52.766Z</time>
      </trkpt>
      <trkpt lat="65.12178" lon="12.14651">
        <ele>52.329836</ele>
        <time>2020-08-12T11:51:53.804Z</time>
      </trkpt>
      <trkpt lat="65.12174" lon="12.14676">
        <ele>51.875637</ele>
        <time>2020-08-12T11:51:54.787Z</time>
      </trkpt>
      <trkpt lat="65.12171" lon="12.14702">
        <ele>51.419399</ele>
        <time>2020-08-12T11:51:55.752Z</time>
      </trkpt>
      <trkpt lat="65.12168" lon="12.14728">
        <ele>50.966476</ele>
        <time>2020-08-12T11:51:56.796Z</time>
      </trkpt>
      <trkpt lat="65.12165" lon="12.14755">
        <ele>50.510046</ele>
        <time>2020-08-12T11:51:57.765Z</time>
      </trkpt>
      <trkpt lat="65.12163" lon="12.14782">
        <ele>50.053722</ele>
        <time>2020-08-12T11:51:58.765Z</time>
      </trkpt>
      <trkpt lat="65.12162" lon="12.14808">
        <ele>49.597315</ele>
        <time>2020-08-12T11:51:59.756Z</time>
      </trkpt>
      <trkpt lat="65.12161" lon="12.14835">
        <ele>49.14595</ele>
        <time>2020-08-12T11:52:00.773Z</time>
      </trkpt>
      <trkpt lat="65.12161" lon="12.14861">
        <ele>48.74234</ele>
        <time>2020-08-12T11:52:01.757Z</time>
      </trkpt>
      <trkpt lat="65.12161" lon="12.14886">
        <ele>48.364101</ele>
        <time>2020-08-12T11:52:02.785Z</time>
      </trkpt>
      <trkpt lat="65.12162" lon="12.14909">
        <ele>48.002437</ele>
        <time>2020-08-12T11:52:03.813Z</time>
      </trkpt>
      <trkpt lat="65.12165" lon="12.14932">
        <ele>47.650602</ele>
        <time>2020-08-12T11:52:04.753Z</time>
      </trkpt>
      <trkpt lat="65.12167" lon="12.14954">
        <ele>47.298604</ele>
        <time>2020-08-12T11:52:05.769Z</time>
      </trkpt>
      <trkpt lat="65.1217" lon="12.14975">
        <ele>46.960193</ele>
        <time>2020-08-12T11:52:06.767Z</time>
      </trkpt>
      <trkpt lat="65.12175" lon="12.15015">
        <ele>46.325438</ele>
        <time>2020-08-12T11:52:08.747Z</time>
      </trkpt>
      <trkpt lat="65.12179" lon="12.15053">
        <ele>45.725397</ele>
        <time>2020-08-12T11:52:10.800Z</time>
      </trkpt>
      <trkpt lat="65.12182" lon="12.15089">
        <ele>45.155083</ele>
        <time>2020-08-12T11:52:12.758Z</time>
      </trkpt>
      <trkpt lat="65.12184" lon="12.15125">
        <ele>44.60784</ele>
        <time>2020-08-12T11:52:14.757Z</time>
      </trkpt>
      <trkpt lat="65.12184" lon="12.15159">
        <ele>44.082751</ele>
        <time>2020-08-12T11:52:16.753Z</time>
      </trkpt>
      <trkpt lat="65.12185" lon="12.15192">
        <ele>43.587058</ele>
        <time>2020-08-12T11:52:18.767Z</time>
      </trkpt>
      <trkpt lat="65.12185" lon="12.15225">
        <ele>43.077706</ele>
        <time>2020-08-12T11:52:20.764Z</time>
      </trkpt>
      <trkpt lat="65.12184" lon="12.15257">
        <ele>42.580271</ele>
        <time>2020-08-12T11:52:22.792Z</time>
      </trkpt>
      <trkpt lat="65.12183" lon="12.15289">
        <ele>42.536869</ele>
        <time>2020-08-12T11:52:24.813Z</time>
      </trkpt>
      <trkpt lat="65.12181" lon="12.15321">
        <ele>42.532995</ele>
        <time>2020-08-12T11:52:26.759Z</time>
      </trkpt>
      <trkpt lat="65.1218" lon="12.15351">
        <ele>42.529212</ele>
        <time>2020-08-12T11:52:28.780Z</time>
      </trkpt>
      <trkpt lat="65.1218" lon="12.15382">
        <ele>42.52541</ele>
        <time>2020-08-12T11:52:30.763Z</time>
      </trkpt>
      <trkpt lat="65.1218" lon="12.15413">
        <ele>42.521699</ele>
        <time>2020-08-12T11:52:32.761Z</time>
      </trkpt>
      <trkpt lat="65.12179" lon="12.15442">
        <ele>42.518131</ele>
        <time>2020-08-12T11:52:34.763Z</time>
      </trkpt>
      <trkpt lat="65.12179" lon="12.15469">
        <ele>42.514796</ele>
        <time>2020-08-12T11:52:36.796Z</time>
      </trkpt>
      <trkpt lat="65.12178" lon="12.15494">
        <ele>42.511683</ele>
        <time>2020-08-12T11:52:38.804Z</time>
      </trkpt>
      <trkpt lat="65.12178" lon="12.15519">
        <ele>42.508631</ele>
        <time>2020-08-12T11:52:40.759Z</time>
      </trkpt>
      <trkpt lat="65.12178" lon="12.15544">
        <ele>42.505582</ele>
        <time>2020-08-12T11:52:42.750Z</time>
      </trkpt>
      <trkpt lat="65.12177" lon="12.15568">
        <ele>42.50266</ele>
        <time>2020-08-12T11:52:44.765Z</time>
      </trkpt>
      <trkpt lat="65.12176" lon="12.15591">
        <ele>42.499866</ele>
        <time>2020-08-12T11:52:46.762Z</time>
      </trkpt>
      <trkpt lat="65.12175" lon="12.15613">
        <ele>42.49711</ele>
        <time>2020-08-12T11:52:48.755Z</time>
      </trkpt>
      <trkpt lat="65.12174" lon="12.15635">
        <ele>42.494345</ele>
        <time>2020-08-12T11:52:50.787Z</time>
      </trkpt>
      <trkpt lat="65.12173" lon="12.15658">
        <ele>42.491594</ele>
        <time>2020-08-12T11:52:52.767Z</time>
      </trkpt>
      <trkpt lat="65.12172" lon="12.1568">
        <ele>42.488828</ele>
        <time>2020-08-12T11:52:54.750Z</time>
      </trkpt>
      <trkpt lat="65.12171" lon="12.15702">
        <ele>42.584129</ele>
        <time>2020-08-12T11:52:56.761Z</time>
      </trkpt>
      <trkpt lat="65.1217" lon="12.15733">
        <ele>42.766497</ele>
        <time>2020-08-12T11:52:59.756Z</time>
      </trkpt>
      <trkpt lat="65.12169" lon="12.15764">
        <ele>42.949834</ele>
        <time>2020-08-12T11:53:02.769Z</time>
      </trkpt>
      <trkpt lat="65.12169" lon="12.15793">
        <ele>43.123404</ele>
        <time>2020-08-12T11:53:05.773Z</time>
      </trkpt>
      <trkpt lat="65.12168" lon="12.15822">
        <ele>43.299518</ele>
        <time>2020-08-12T11:53:08.786Z</time>
      </trkpt>
      <trkpt lat="65.12167" lon="12.15851">
        <ele>43.470784</ele>
        <time>2020-08-12T11:53:11.794Z</time>
      </trkpt>
      <trkpt lat="65.12167" lon="12.15879">
        <ele>43.638242</ele>
        <time>2020-08-12T11:53:14.761Z</time>
      </trkpt>
      <trkpt lat="65.12167" lon="12.15906">
        <ele>43.801532</ele>
        <time>2020-08-12T11:53:17.765Z</time>
      </trkpt>
      <trkpt lat="65.12167" lon="12.15934">
        <ele>43.966608</ele>
        <time>2020-08-12T11:53:20.799Z</time>
      </trkpt>
      <trkpt lat="65.12168" lon="12.15962">
        <ele>44.131726</ele>
        <time>2020-08-12T11:53:23.781Z</time>
      </trkpt>
      <trkpt lat="65.12168" lon="12.15988">
        <ele>44.291543</ele>
        <time>2020-08-12T11:53:26.763Z</time>
      </trkpt>
      <trkpt lat="65.12168" lon="12.16015">
        <ele>44.451303</ele>
        <time>2020-08-12T11:53:29.753Z</time>
      </trkpt>
      <trkpt lat="65.12169" lon="12.16043">
        <ele>44.619786</ele>
        <time>2020-08-12T11:53:32.765Z</time>
      </trkpt>
      <trkpt lat="65.1217" lon="12.16074">
        <ele>44.800496</ele>
        <time>2020-08-12T11:53:35.787Z</time>
      </trkpt>
      <trkpt lat="65.12171" lon="12.16105">
        <ele>44.989283</ele>
        <time>2020-08-12T11:53:38.790Z</time>
      </trkpt>
      <trkpt lat="65.12171" lon="12.16129">
        <ele>44.994682</ele>
        <time>2020-08-12T11:53:40.768Z</time>
      </trkpt>
      <trkpt lat="65.12171" lon="12.16154">
        <ele>44.931386</ele>
        <time>2020-08-12T11:53:42.757Z</time>
      </trkpt>
      <trkpt lat="65.1217" lon="12.16179">
        <ele>44.864958</ele>
        <time>2020-08-12T11:53:44.752Z</time>
      </trkpt>
      <trkpt lat="65.12169" lon="12.16208">
        <ele>44.791951</ele>
        <time>2020-08-12T11:53:46.764Z</time>
      </trkpt>
      <trkpt lat="65.12167" lon="12.16238">
        <ele>44.713779</ele>
        <time>2020-08-12T11:53:48.759Z</time>
      </trkpt>
      <trkpt lat="65.12164" lon="12.16269">
        <ele>44.633128</ele>
        <time>2020-08-12T11:53:50.755Z</time>
      </trkpt>
      <trkpt lat="65.12162" lon="12.16302">
        <ele>44.547379</ele>
        <time>2020-08-12T11:53:52.778Z</time>
      </trkpt>
      <trkpt lat="65.12158" lon="12.16335">
        <ele>44.458483</ele>
        <time>2020-08-12T11:53:54.775Z</time>
      </trkpt>
      <trkpt lat="65.12154" lon="12.16369">
        <ele>44.368356</ele>
        <time>2020-08-12T11:53:56.763Z</time>
      </trkpt>
      <trkpt lat="65.12148" lon="12.16401">
        <ele>44.279078</ele>
        <time>2020-08-12T11:53:58.756Z</time>
      </trkpt>
      <trkpt lat="65.12142" lon="12.16433">
        <ele>44.188065</ele>
        <time>2020-08-12T11:54:00.770Z</time>
      </trkpt>
      <trkpt lat="65.12135" lon="12.16464">
        <ele>44.100304</ele>
        <time>2020-08-12T11:54:02.754Z</time>
      </trkpt>
      <trkpt lat="65.12128" lon="12.16494">
        <ele>44.011665</ele>
        <time>2020-08-12T11:54:04.787Z</time>
      </trkpt>
      <trkpt lat="65.12121" lon="12.16522">
        <ele>44.000128</ele>
        <time>2020-08-12T11:54:06.749Z</time>
      </trkpt>
      <trkpt lat="65.12114" lon="12.1655">
        <ele>44.409386</ele>
        <time>2020-08-12T11:54:08.816Z</time>
      </trkpt>
      <trkpt lat="65.12108" lon="12.16573">
        <ele>44.757914</ele>
        <time>2020-08-12T11:54:10.777Z</time>
      </trkpt>
      <trkpt lat="65.12103" lon="12.16594">
        <ele>45.063071</ele>
        <time>2020-08-12T11:54:12.795Z</time>
      </trkpt>
      <trkpt lat="65.12098" lon="12.16613">
        <ele>45.352611</ele>
        <time>2020-08-12T11:54:14.756Z</time>
      </trkpt>
      <trkpt lat="65.12094" lon="12.16633">
        <ele>45.631879</ele>
        <time>2020-08-12T11:54:16.761Z</time>
      </trkpt>
      <trkpt lat="65.12089" lon="12.16662">
        <ele>46.030826</ele>
        <time>2020-08-12T11:54:19.756Z</time>
      </trkpt>
      <trkpt lat="65.12086" lon="12.16693">
        <ele>46.438942</ele>
        <time>2020-08-12T11:54:22.754Z</time>
      </trkpt>
      <trkpt lat="65.12085" lon="12.16716">
        <ele>46.733205</ele>
        <time>2020-08-12T11:54:24.790Z</time>
      </trkpt>
      <trkpt lat="65.12083" lon="12.1674">
        <ele>47.04684</ele>
        <time>2020-08-12T11:54:26.788Z</time>
      </trkpt>
      <trkpt lat="65.12083" lon="12.16766">
        <ele>47.379668</ele>
        <time>2020-08-12T11:54:28.787Z</time>
      </trkpt>
      <trkpt lat="65.12083" lon="12.16793">
        <ele>47.720366</ele>
        <time>2020-08-12T11:54:30.755Z</time>
      </trkpt>
      <trkpt lat="65.12086" lon="12.16819">
        <ele>48.061556</ele>
        <time>2020-08-12T11:54:32.755Z</time>
      </trkpt>
      <trkpt lat="65.1209" lon="12.16845">
        <ele>48.421189</ele>
        <time>2020-08-12T11:54:34.790Z</time>
      </trkpt>
      <trkpt lat="65.12095" lon="12.16872">
        <ele>48.803029</ele>
        <time>2020-08-12T11:54:36.756Z</time>
      </trkpt>
      <trkpt lat="65.12103" lon="12.16896">
        <ele>49.19244</ele>
        <time>2020-08-12T11:54:38.769Z</time>
      </trkpt>
      <trkpt lat="65.12112" lon="12.16918">
        <ele>49.39503</ele>
        <time>2020-08-12T11:54:40.785Z</time>
      </trkpt>
      <trkpt lat="65.12122" lon="12.16936">
        <ele>49.388412</ele>
        <time>2020-08-12T11:54:42.790Z</time>
      </trkpt>
      <trkpt lat="65.12132" lon="12.16951">
        <ele>49.381878</ele>
        <time>2020-08-12T11:54:44.773Z</time>
      </trkpt>
      <trkpt lat="65.12143" lon="12.16963">
        <ele>49.375678</ele>
        <time>2020-08-12T11:54:46.775Z</time>
      </trkpt>
      <trkpt lat="65.12154" lon="12.16971">
        <ele>49.369648</ele>
        <time>2020-08-12T11:54:48.761Z</time>
      </trkpt>
      <trkpt lat="65.12163" lon="12.16975">
        <ele>49.364469</ele>
        <time>2020-08-12T11:54:50.779Z</time>
      </trkpt>
      <trkpt lat="65.12172" lon="12.16974">
        <ele>49.359657</ele>
        <time>2020-08-12T11:54:52.763Z</time>
      </trkpt>
      <trkpt lat="65.12181" lon="12.16973">
        <ele>49.354885</ele>
        <time>2020-08-12T11:54:54.784Z</time>
      </trkpt>
      <trkpt lat="65.12194" lon="12.16965">
        <ele>49.347892</ele>
        <time>2020-08-12T11:54:57.756Z</time>
      </trkpt>
      <trkpt lat="65.12206" lon="12.16954">
        <ele>49.34118</ele>
        <time>2020-08-12T11:55:00.764Z</time>
      </trkpt>
      <trkpt lat="65.12217" lon="12.16939">
        <ele>49.334668</ele>
        <time>2020-08-12T11:55:03.749Z</time>
      </trkpt>
      <trkpt lat="65.12226" lon="12.16921">
        <ele>49.328188</ele>
        <time>2020-08-12T11:55:06.771Z</time>
      </trkpt>
      <trkpt lat="65.12235" lon="12.16903">
        <ele>49.321991</ele>
        <time>2020-08-12T11:55:09.757Z</time>
      </trkpt>
      <trkpt lat="65.12244" lon="12.16883">
        <ele>49.315492</ele>
        <time>2020-08-12T11:55:12.817Z</time>
      </trkpt>
      <trkpt lat="65.12253" lon="12.16864">
        <ele>49.30922</ele>
        <time>2020-08-12T11:55:15.756Z</time>
      </trkpt>
      <trkpt lat="65.12261" lon="12.16845">
        <ele>49.30305</ele>
        <time>2020-08-12T11:55:18.767Z</time>
      </trkpt>
      <trkpt lat="65.1227" lon="12.16825">
        <ele>49.407297</ele>
        <time>2020-08-12T11:55:21.750Z</time>
      </trkpt>
      <trkpt lat="65.12278" lon="12.16807">
        <ele>49.50839</ele>
        <time>2020-08-12T11:55:24.776Z</time>
      </trkpt>
      <trkpt lat="65.12285" lon="12.16789">
        <ele>49.603302</ele>
        <time>2020-08-12T11:55:27.752Z</time>
      </trkpt>
      <trkpt lat="65.12293" lon="12.1677">
        <ele>49.703251</ele>
        <time>2020-08-12T11:55:30.764Z</time>
      </trkpt>
      <trkpt lat="65.12302" lon="12.16751">
        <ele>49.811734</ele>
        <time>2020-08-12T11:55:33.763Z</time>
      </trkpt>
      <trkpt lat="65.12312" lon="12.16735">
        <ele>49.918838</ele>
        <time>2020-08-12T11:55:36.771Z</time>
      </trkpt>
      <trkpt lat="65.12323" lon="12.1672">
        <ele>50.030419</ele>
        <time>2020-08-12T11:55:39.782Z</time>
      </trkpt>
      <trkpt lat="65.12331" lon="12.1671">
        <ele>50.112463</ele>
        <time>2020-08-12T11:55:41.768Z</time>
      </trkpt>
      <trkpt lat="65.12339" lon="12.16699">
        <ele>50.198138</ele>
        <time>2020-08-12T11:55:43.754Z</time>
      </trkpt>
      <trkpt lat="65.12348" lon="12.16689">
        <ele>50.283307</ele>
        <time>2020-08-12T11:55:45.779Z</time>
      </trkpt>
      <trkpt lat="65.12357" lon="12.16679">
        <ele>50.3766</ele>
        <time>2020-08-12T11:55:47.794Z</time>
      </trkpt>
      <trkpt lat="65.12368" lon="12.16667">
        <ele>50.485702</ele>
        <time>2020-08-12T11:55:49.776Z</time>
      </trkpt>
      <trkpt lat="65.12381" lon="12.16655">
        <ele>50.610764</ele>
        <time>2020-08-12T11:55:51.784Z</time>
      </trkpt>
      <trkpt lat="65.12395" lon="12.16645">
        <ele>50.74219</ele>
        <time>2020-08-12T11:55:53.780Z</time>
      </trkpt>
      <trkpt lat="65.12409" lon="12.16636">
        <ele>50.874621</ele>
        <time>2020-08-12T11:55:55.761Z</time>
      </trkpt>
      <trkpt lat="65.12422" lon="12.16627">
        <ele>51.004573</ele>
        <time>2020-08-12T11:55:57.787Z</time>
      </trkpt>
      <trkpt lat="65.12435" lon="12.16617">
        <ele>51.131196</ele>
        <time>2020-08-12T11:55:59.794Z</time>
      </trkpt>
      <trkpt lat="65.12446" lon="12.16606">
        <ele>51.252883</ele>
        <time>2020-08-12T11:56:01.769Z</time>
      </trkpt>
      <trkpt lat="65.12458" lon="12.16595">
        <ele>51.372191</ele>
        <time>2020-08-12T11:56:03.813Z</time>
      </trkpt>
      <trkpt lat="65.12469" lon="12.16583">
        <ele>51.489652</ele>
        <time>2020-08-12T11:56:05.775Z</time>
      </trkpt>
      <trkpt lat="65.12479" lon="12.1657">
        <ele>51.601186</ele>
        <time>2020-08-12T11:56:07.753Z</time>
      </trkpt>
      <trkpt lat="65.12488" lon="12.16556">
        <ele>51.704219</ele>
        <time>2020-08-12T11:56:09.775Z</time>
      </trkpt>
      <trkpt lat="65.12494" lon="12.16541">
        <ele>51.794937</ele>
        <time>2020-08-12T11:56:11.769Z</time>
      </trkpt>
      <trkpt lat="65.12503" lon="12.16519">
        <ele>51.918655</ele>
        <time>2020-08-12T11:56:14.754Z</time>
      </trkpt>
      <trkpt lat="65.12511" lon="12.16499">
        <ele>52.027221</ele>
        <time>2020-08-12T11:56:17.765Z</time>
      </trkpt>
      <trkpt lat="65.12516" lon="12.16482">
        <ele>52.116613</ele>
        <time>2020-08-12T11:56:20.755Z</time>
      </trkpt>
      <trkpt lat="65.12521" lon="12.1646">
        <ele>52.218485</ele>
        <time>2020-08-12T11:56:24.755Z</time>
      </trkpt>
      <trkpt lat="65.12526" lon="12.16438">
        <ele>52.316372</ele>
        <time>2020-08-12T11:56:29.793Z</time>
      </trkpt>
      <trkpt lat="65.12529" lon="12.16418">
        <ele>52.405322</ele>
        <time>2020-08-12T11:56:34.755Z</time>
      </trkpt>
      <trkpt lat="65.12532" lon="12.16395">
        <ele>52.504269</ele>
        <time>2020-08-12T11:56:40.757Z</time>
      </trkpt>
      <trkpt lat="65.12536" lon="12.16374">
        <ele>52.596301</ele>
        <time>2020-08-12T11:56:45.761Z</time>
      </trkpt>
      <trkpt lat="65.12539" lon="12.1635">
        <ele>52.800742</ele>
        <time>2020-08-12T11:56:51.754Z</time>
      </trkpt>
      <trkpt lat="65.12541" lon="12.16327">
        <ele>53.216947</ele>
        <time>2020-08-12T11:56:56.774Z</time>
      </trkpt>
      <trkpt lat="65.12544" lon="12.16305">
        <ele>53.628006</ele>
        <time>2020-08-12T11:57:01.763Z</time>
      </trkpt>
      <trkpt lat="65.12547" lon="12.16283">
        <ele>54.033157</ele>
        <time>2020-08-12T11:57:06.775Z</time>
      </trkpt>
      <trkpt lat="65.1255" lon="12.1626">
        <ele>54.465869</ele>
        <time>2020-08-12T11:57:12.779Z</time>
      </trkpt>
      <trkpt lat="65.12554" lon="12.16239">
        <ele>54.871472</ele>
        <time>2020-08-12T11:57:17.745Z</time>
      </trkpt>
      <trkpt lat="65.12557" lon="12.16216">
        <ele>55.298452</ele>
        <time>2020-08-12T11:57:22.828Z</time>
      </trkpt>
      <trkpt lat="65.12562" lon="12.16196">
        <ele>55.714124</ele>
        <time>2020-08-12T11:57:27.754Z</time>
      </trkpt>
      <trkpt lat="65.12568" lon="12.16176">
        <ele>56.14451</ele>
        <time>2020-08-12T11:57:32.793Z</time>
      </trkpt>
      <trkpt lat="65.12574" lon="12.16157">
        <ele>56.567689</ele>
        <time>2020-08-12T11:57:37.772Z</time>
      </trkpt>
      <trkpt lat="65.12582" lon="12.1614">
        <ele>57.02096</ele>
        <time>2020-08-12T11:57:42.774Z</time>
      </trkpt>
      <trkpt lat="65.12588" lon="12.16123">
        <ele>57.426943</ele>
        <time>2020-08-12T11:57:46.764Z</time>
      </trkpt>
      <trkpt lat="65.12595" lon="12.16106">
        <ele>57.853118</ele>
        <time>2020-08-12T11:57:51.768Z</time>
      </trkpt>
      <trkpt lat="65.12604" lon="12.16096">
        <ele>58.241558</ele>
        <time>2020-08-12T11:57:59.786Z</time>
      </trkpt>
      <trkpt lat="65.12693" lon="12.15904">
        <ele>62.241812</ele>
        <time>2020-08-12T11:58:21.888Z</time>
      </trkpt>
      <trkpt lat="65.127" lon="12.16031">
        <ele>63.700927</ele>
        <time>2020-08-12T11:58:23.778Z</time>
      </trkpt>
      <trkpt lat="65.12709" lon="12.16038">
        <ele>63.950274</ele>
        <time>2020-08-12T11:58:26.775Z</time>
      </trkpt>
      <trkpt lat="65.12726" lon="12.16032">
        <ele>64.436145</ele>
        <time>2020-08-12T11:58:34.767Z</time>
      </trkpt>
      <trkpt lat="65.12748" lon="12.16028">
        <ele>65.029216</ele>
        <time>2020-08-12T11:58:36.770Z</time>
      </trkpt>
      <trkpt lat="65.12755" lon="12.16008">
        <ele>64.551346</ele>
        <time>2020-08-12T11:58:40.753Z</time>
      </trkpt>
      <trkpt lat="65.12763" lon="12.15993">
        <ele>63.509668</ele>
        <time>2020-08-12T11:58:42.797Z</time>
      </trkpt>
      <trkpt lat="65.12772" lon="12.15975">
        <ele>62.431352</ele>
        <time>2020-08-12T11:58:44.778Z</time>
      </trkpt>
      <trkpt lat="65.1278" lon="12.15954">
        <ele>61.251631</ele>
        <time>2020-08-12T11:58:46.767Z</time>
      </trkpt>
      <trkpt lat="65.1279" lon="12.1593">
        <ele>59.902055</ele>
        <time>2020-08-12T11:58:48.765Z</time>
      </trkpt>
      <trkpt lat="65.128" lon="12.15903">
        <ele>58.44966</ele>
        <time>2020-08-12T11:58:50.799Z</time>
      </trkpt>
      <trkpt lat="65.12809" lon="12.15871">
        <ele>56.903571</ele>
        <time>2020-08-12T11:58:52.759Z</time>
      </trkpt>
      <trkpt lat="65.12819" lon="12.15836">
        <ele>55.221913</ele>
        <time>2020-08-12T11:58:54.771Z</time>
      </trkpt>
      <trkpt lat="65.12824" lon="12.15818">
        <ele>54.361495</ele>
        <time>2020-08-12T11:58:55.786Z</time>
      </trkpt>
      <trkpt lat="65.12828" lon="12.158">
        <ele>53.478887</ele>
        <time>2020-08-12T11:58:56.766Z</time>
      </trkpt>
      <trkpt lat="65.12834" lon="12.15781">
        <ele>52.551744</ele>
        <time>2020-08-12T11:58:57.787Z</time>
      </trkpt>
      <trkpt lat="65.12839" lon="12.15761">
        <ele>51.599083</ele>
        <time>2020-08-12T11:58:58.754Z</time>
      </trkpt>
      <trkpt lat="65.12844" lon="12.1574">
        <ele>50.650692</ele>
        <time>2020-08-12T11:58:59.783Z</time>
      </trkpt>
      <trkpt lat="65.12848" lon="12.15719">
        <ele>49.704156</ele>
        <time>2020-08-12T11:59:00.762Z</time>
      </trkpt>
      <trkpt lat="65.12852" lon="12.15697">
        <ele>48.735695</ele>
        <time>2020-08-12T11:59:01.749Z</time>
      </trkpt>
      <trkpt lat="65.12854" lon="12.15673">
        <ele>47.813859</ele>
        <time>2020-08-12T11:59:02.767Z</time>
      </trkpt>
      <trkpt lat="65.12856" lon="12.15648">
        <ele>47.319751</ele>
        <time>2020-08-12T11:59:03.770Z</time>
      </trkpt>
      <trkpt lat="65.12856" lon="12.15623">
        <ele>46.835136</ele>
        <time>2020-08-12T11:59:04.795Z</time>
      </trkpt>
      <trkpt lat="65.12856" lon="12.15599">
        <ele>46.355714</ele>
        <time>2020-08-12T11:59:05.744Z</time>
      </trkpt>
      <trkpt lat="65.12855" lon="12.15576">
        <ele>45.900011</ele>
        <time>2020-08-12T11:59:06.773Z</time>
      </trkpt>
      <trkpt lat="65.12853" lon="12.15555">
        <ele>45.478327</ele>
        <time>2020-08-12T11:59:07.766Z</time>
      </trkpt>
      <trkpt lat="65.12848" lon="12.15518">
        <ele>44.715218</ele>
        <time>2020-08-12T11:59:09.789Z</time>
      </trkpt>
      <trkpt lat="65.12841" lon="12.15487">
        <ele>44.008832</ele>
        <time>2020-08-12T11:59:11.761Z</time>
      </trkpt>
      <trkpt lat="65.12833" lon="12.15458">
        <ele>43.344009</ele>
        <time>2020-08-12T11:59:13.768Z</time>
      </trkpt>
      <trkpt lat="65.12828" lon="12.1543">
        <ele>42.723429</ele>
        <time>2020-08-12T11:59:15.786Z</time>
      </trkpt>
      <trkpt lat="65.12821" lon="12.15402">
        <ele>42.097302</ele>
        <time>2020-08-12T11:59:17.778Z</time>
      </trkpt>
      <trkpt lat="65.12815" lon="12.15379">
        <ele>41.559258</ele>
        <time>2020-08-12T11:59:19.774Z</time>
      </trkpt>
      <trkpt lat="65.1281" lon="12.15357">
        <ele>41.061298</ele>
        <time>2020-08-12T11:59:21.752Z</time>
      </trkpt>
      <trkpt lat="65.12805" lon="12.15336">
        <ele>40.574507</ele>
        <time>2020-08-12T11:59:23.782Z</time>
      </trkpt>
      <trkpt lat="65.12799" lon="12.15314">
        <ele>40.076821</ele>
        <time>2020-08-12T11:59:25.772Z</time>
      </trkpt>
      <trkpt lat="65.12793" lon="12.15293">
        <ele>39.590193</ele>
        <time>2020-08-12T11:59:27.761Z</time>
      </trkpt>
      <trkpt lat="65.12788" lon="12.15273">
        <ele>39.686462</ele>
        <time>2020-08-12T11:59:29.767Z</time>
      </trkpt>
      <trkpt lat="65.12784" lon="12.15253">
        <ele>40.005333</ele>
        <time>2020-08-12T11:59:31.767Z</time>
      </trkpt>
      <trkpt lat="65.1278" lon="12.15233">
        <ele>40.312614</ele>
        <time>2020-08-12T11:59:33.763Z</time>
      </trkpt>
      <trkpt lat="65.12776" lon="12.15214">
        <ele>40.611291</ele>
        <time>2020-08-12T11:59:35.771Z</time>
      </trkpt>
      <trkpt lat="65.12771" lon="12.15184">
        <ele>41.044293</ele>
        <time>2020-08-12T11:59:38.757Z</time>
      </trkpt>
      <trkpt lat="65.12766" lon="12.15155">
        <ele>41.476806</ele>
        <time>2020-08-12T11:59:41.757Z</time>
      </trkpt>
      <trkpt lat="65.12761" lon="12.15127">
        <ele>41.908072</ele>
        <time>2020-08-12T11:59:44.753Z</time>
      </trkpt>
      <trkpt lat="65.12758" lon="12.15097">
        <ele>42.341671</ele>
        <time>2020-08-12T11:59:47.787Z</time>
      </trkpt>
      <trkpt lat="65.12753" lon="12.15068">
        <ele>42.76744</ele>
        <time>2020-08-12T11:59:50.770Z</time>
      </trkpt>
      <trkpt lat="65.1275" lon="12.15041">
        <ele>43.153371</ele>
        <time>2020-08-12T11:59:53.753Z</time>
      </trkpt>
      <trkpt lat="65.12746" lon="12.15014">
        <ele>43.547291</ele>
        <time>2020-08-12T11:59:56.797Z</time>
      </trkpt>
      <trkpt lat="65.12743" lon="12.14988">
        <ele>43.931895</ele>
        <time>2020-08-12T11:59:59.789Z</time>
      </trkpt>
      <trkpt lat="65.12739" lon="12.14961">
        <ele>44.312887</ele>
        <time>2020-08-12T12:00:02.783Z</time>
      </trkpt>
      <trkpt lat="65.12736" lon="12.14936">
        <ele>44.685368</ele>
        <time>2020-08-12T12:00:05.750Z</time>
      </trkpt>
      <trkpt lat="65.12733" lon="12.1491">
        <ele>45.061432</ele>
        <time>2020-08-12T12:00:08.752Z</time>
      </trkpt>
      <trkpt lat="65.1273" lon="12.14883">
        <ele>45.453309</ele>
        <time>2020-08-12T12:00:11.768Z</time>
      </trkpt>
      <trkpt lat="65.12726" lon="12.14856">
        <ele>45.858608</ele>
        <time>2020-08-12T12:00:14.755Z</time>
      </trkpt>
      <trkpt lat="65.12722" lon="12.14829">
        <ele>46.262265</ele>
        <time>2020-08-12T12:00:17.753Z</time>
      </trkpt>
      <trkpt lat="65.12719" lon="12.14803">
        <ele>46.651589</ele>
        <time>2020-08-12T12:00:20.791Z</time>
      </trkpt>
      <trkpt lat="65.12715" lon="12.14778">
        <ele>47.033296</ele>
        <time>2020-08-12T12:00:23.758Z</time>
      </trkpt>
      <trkpt lat="65.12711" lon="12.14753">
        <ele>47.416669</ele>
        <time>2020-08-12T12:00:26.765Z</time>
      </trkpt>
      <trkpt lat="65.12707" lon="12.14729">
        <ele>47.789135</ele>
        <time>2020-08-12T12:00:29.769Z</time>
      </trkpt>
      <trkpt lat="65.12703" lon="12.14706">
        <ele>48.146872</ele>
        <time>2020-08-12T12:00:32.755Z</time>
      </trkpt>
      <trkpt lat="65.12699" lon="12.14684">
        <ele>48.49016</ele>
        <time>2020-08-12T12:00:35.767Z</time>
      </trkpt>
      <trkpt lat="65.12695" lon="12.14662">
        <ele>48.828224</ele>
        <time>2020-08-12T12:00:38.758Z</time>
      </trkpt>
      <trkpt lat="65.12691" lon="12.14642">
        <ele>49.150522</ele>
        <time>2020-08-12T12:00:41.777Z</time>
      </trkpt>
      <trkpt lat="65.12686" lon="12.14623">
        <ele>49.460166</ele>
        <time>2020-08-12T12:00:44.754Z</time>
      </trkpt>
      <trkpt lat="65.12682" lon="12.14604">
        <ele>49.774547</ele>
        <time>2020-08-12T12:00:47.764Z</time>
      </trkpt>
      <trkpt lat="65.12678" lon="12.14583">
        <ele>50.113341</ele>
        <time>2020-08-12T12:00:50.773Z</time>
      </trkpt>
      <trkpt lat="65.12673" lon="12.14562">
        <ele>50.453103</ele>
        <time>2020-08-12T12:00:53.805Z</time>
      </trkpt>
      <trkpt lat="65.12668" lon="12.14536">
        <ele>50.861114</ele>
        <time>2020-08-12T12:00:57.768Z</time>
      </trkpt>
      <trkpt lat="65.12663" lon="12.14511">
        <ele>51.25458</ele>
        <time>2020-08-12T12:01:01.807Z</time>
      </trkpt>
      <trkpt lat="65.12659" lon="12.14492">
        <ele>51.546547</ele>
        <time>2020-08-12T12:01:04.773Z</time>
      </trkpt>
      <trkpt lat="65.12654" lon="12.14472">
        <ele>51.7792</ele>
        <time>2020-08-12T12:01:07.759Z</time>
      </trkpt>
      <trkpt lat="65.1265" lon="12.14452">
        <ele>52.001768</ele>
        <time>2020-08-12T12:01:10.775Z</time>
      </trkpt>
      <trkpt lat="65.12646" lon="12.14433">
        <ele>52.219678</ele>
        <time>2020-08-12T12:01:13.763Z</time>
      </trkpt>
      <trkpt lat="65.12642" lon="12.14413">
        <ele>52.437588</ele>
        <time>2020-08-12T12:01:16.774Z</time>
      </trkpt>
      <trkpt lat="65.12637" lon="12.14394">
        <ele>52.654138</ele>
        <time>2020-08-12T12:01:19.806Z</time>
      </trkpt>
      <trkpt lat="65.12633" lon="12.14375">
        <ele>52.873577</ele>
        <time>2020-08-12T12:01:22.782Z</time>
      </trkpt>
      <trkpt lat="65.12628" lon="12.14351">
        <ele>53.145253</ele>
        <time>2020-08-12T12:01:26.752Z</time>
      </trkpt>
      <trkpt lat="65.12624" lon="12.1433">
        <ele>53.37298</ele>
        <time>2020-08-12T12:01:29.754Z</time>
      </trkpt>
      <trkpt lat="65.1262" lon="12.14308">
        <ele>53.619199</ele>
        <time>2020-08-12T12:01:32.775Z</time>
      </trkpt>
      <trkpt lat="65.12615" lon="12.14286">
        <ele>53.859863</ele>
        <time>2020-08-12T12:01:35.792Z</time>
      </trkpt>
      <trkpt lat="65.12611" lon="12.14265">
        <ele>54.092483</ele>
        <time>2020-08-12T12:01:38.802Z</time>
      </trkpt>
      <trkpt lat="65.12606" lon="12.1424">
        <ele>54.375111</ele>
        <time>2020-08-12T12:01:42.805Z</time>
      </trkpt>
      <trkpt lat="65.12601" lon="12.14221">
        <ele>54.599509</ele>
        <time>2020-08-12T12:01:45.770Z</time>
      </trkpt>
      <trkpt lat="65.12597" lon="12.14201">
        <ele>54.82918</ele>
        <time>2020-08-12T12:01:48.766Z</time>
      </trkpt>
      <trkpt lat="65.12593" lon="12.14181">
        <ele>55.048477</ele>
        <time>2020-08-12T12:01:51.789Z</time>
      </trkpt>
      <trkpt lat="65.12588" lon="12.14156">
        <ele>55.321798</ele>
        <time>2020-08-12T12:01:55.760Z</time>
      </trkpt>
      <trkpt lat="65.12583" lon="12.1413">
        <ele>55.604916</ele>
        <time>2020-08-12T12:01:59.794Z</time>
      </trkpt>
      <trkpt lat="65.12581" lon="12.1411">
        <ele>55.830007</ele>
        <time>2020-08-12T12:02:02.789Z</time>
      </trkpt>
      <trkpt lat="65.12577" lon="12.14082">
        <ele>56.300984</ele>
        <time>2020-08-12T12:02:06.819Z</time>
      </trkpt>
      <trkpt lat="65.12575" lon="12.14061">
        <ele>56.655546</ele>
        <time>2020-08-12T12:02:09.755Z</time>
      </trkpt>
      <trkpt lat="65.12572" lon="12.14035">
        <ele>57.103123</ele>
        <time>2020-08-12T12:02:13.769Z</time>
      </trkpt>
      <trkpt lat="65.12569" lon="12.14011">
        <ele>57.521501</ele>
        <time>2020-08-12T12:02:17.768Z</time>
      </trkpt>
      <trkpt lat="65.12566" lon="12.13984">
        <ele>57.989788</ele>
        <time>2020-08-12T12:02:21.770Z</time>
      </trkpt>
      <trkpt lat="65.12565" lon="12.13961">
        <ele>58.360042</ele>
        <time>2020-08-12T12:02:24.765Z</time>
      </trkpt>
      <trkpt lat="65.12563" lon="12.13939">
        <ele>58.731685</ele>
        <time>2020-08-12T12:02:27.772Z</time>
      </trkpt>
      <trkpt lat="65.12561" lon="12.13918">
        <ele>59.091073</ele>
        <time>2020-08-12T12:02:30.772Z</time>
      </trkpt>
      <trkpt lat="65.12559" lon="12.1389">
        <ele>59.557386</ele>
        <time>2020-08-12T12:02:34.792Z</time>
      </trkpt>
      <trkpt lat="65.12557" lon="12.13863">
        <ele>60.01227</ele>
        <time>2020-08-12T12:02:38.745Z</time>
      </trkpt>
      <trkpt lat="65.12554" lon="12.13838">
        <ele>60.447918</ele>
        <time>2020-08-12T12:02:42.789Z</time>
      </trkpt>
      <trkpt lat="65.12552" lon="12.13817">
        <ele>60.804867</ele>
        <time>2020-08-12T12:02:45.765Z</time>
      </trkpt>
      <trkpt lat="65.1255" lon="12.13794">
        <ele>61.181249</ele>
        <time>2020-08-12T12:02:48.800Z</time>
      </trkpt>
      <trkpt lat="65.12548" lon="12.13767">
        <ele>61.64034</ele>
        <time>2020-08-12T12:02:52.799Z</time>
      </trkpt>
      <trkpt lat="65.12547" lon="12.13741">
        <ele>62.073968</ele>
        <time>2020-08-12T12:02:56.782Z</time>
      </trkpt>
      <trkpt lat="65.12545" lon="12.13714">
        <ele>62.528914</ele>
        <time>2020-08-12T12:03:00.775Z</time>
      </trkpt>
      <trkpt lat="65.12545" lon="12.13691">
        <ele>62.878184</ele>
        <time>2020-08-12T12:03:03.764Z</time>
      </trkpt>
      <trkpt lat="65.12543" lon="12.13668">
        <ele>62.868051</ele>
        <time>2020-08-12T12:03:06.774Z</time>
      </trkpt>
      <trkpt lat="65.12543" lon="12.13647">
        <ele>62.858864</ele>
        <time>2020-08-12T12:03:09.785Z</time>
      </trkpt>
      <trkpt lat="65.12542" lon="12.13624">
        <ele>62.849042</ele>
        <time>2020-08-12T12:03:12.749Z</time>
      </trkpt>
      <trkpt lat="65.12541" lon="12.13602">
        <ele>62.839701</ele>
        <time>2020-08-12T12:03:15.758Z</time>
      </trkpt>
      <trkpt lat="65.12541" lon="12.1358">
        <ele>62.829974</ele>
        <time>2020-08-12T12:03:18.780Z</time>
      </trkpt>
      <trkpt lat="65.1254" lon="12.13557">
        <ele>62.820063</ele>
        <time>2020-08-12T12:03:21.754Z</time>
      </trkpt>
      <trkpt lat="65.1254" lon="12.13534">
        <ele>62.810361</ele>
        <time>2020-08-12T12:03:24.786Z</time>
      </trkpt>
      <trkpt lat="65.12538" lon="12.13506">
        <ele>62.798183</ele>
        <time>2020-08-12T12:03:28.777Z</time>
      </trkpt>
      <trkpt lat="65.12537" lon="12.13485">
        <ele>62.78882</ele>
        <time>2020-08-12T12:03:31.763Z</time>
      </trkpt>
      <trkpt lat="65.12536" lon="12.13463">
        <ele>62.77936</ele>
        <time>2020-08-12T12:03:34.764Z</time>
      </trkpt>
      <trkpt lat="65.12536" lon="12.13435">
        <ele>62.767275</ele>
        <time>2020-08-12T12:03:38.791Z</time>
      </trkpt>
      <trkpt lat="65.12535" lon="12.13407">
        <ele>62.755261</ele>
        <time>2020-08-12T12:03:42.761Z</time>
      </trkpt>
      <trkpt lat="65.12533" lon="12.13385">
        <ele>62.745888</ele>
        <time>2020-08-12T12:03:45.755Z</time>
      </trkpt>
      <trkpt lat="65.12532" lon="12.13364">
        <ele>62.736581</ele>
        <time>2020-08-12T12:03:48.770Z</time>
      </trkpt>
      <trkpt lat="65.12529" lon="12.1334">
        <ele>62.725778</ele>
        <time>2020-08-12T12:03:52.769Z</time>
      </trkpt>
      <trkpt lat="65.12527" lon="12.13318">
        <ele>62.716231</ele>
        <time>2020-08-12T12:03:56.767Z</time>
      </trkpt>
      <trkpt lat="65.12525" lon="12.13294">
        <ele>62.705632</ele>
        <time>2020-08-12T12:04:01.766Z</time>
      </trkpt>
      <trkpt lat="65.12522" lon="12.13271">
        <ele>62.695104</ele>
        <time>2020-08-12T12:04:06.767Z</time>
      </trkpt>
      <trkpt lat="65.12519" lon="12.13247">
        <ele>63.316512</ele>
        <time>2020-08-12T12:04:11.770Z</time>
      </trkpt>
      <trkpt lat="65.12516" lon="12.13224">
        <ele>63.972167</ele>
        <time>2020-08-12T12:04:16.767Z</time>
      </trkpt>
      <trkpt lat="65.12513" lon="12.13202">
        <ele>64.578329</ele>
        <time>2020-08-12T12:04:21.770Z</time>
      </trkpt>
      <trkpt lat="65.12508" lon="12.13181">
        <ele>65.210796</ele>
        <time>2020-08-12T12:04:26.814Z</time>
      </trkpt>
      <trkpt lat="65.12503" lon="12.13161">
        <ele>65.847782</ele>
        <time>2020-08-12T12:04:32.766Z</time>
      </trkpt>
      <trkpt lat="65.12498" lon="12.1314">
        <ele>66.463508</ele>
        <time>2020-08-12T12:04:39.756Z</time>
      </trkpt>
      <trkpt lat="65.12495" lon="12.1312">
        <ele>67.035665</ele>
        <time>2020-08-12T12:04:45.755Z</time>
      </trkpt>
      <trkpt lat="65.12492" lon="12.13099">
        <ele>67.634347</ele>
        <time>2020-08-12T12:04:51.792Z</time>
      </trkpt>
      <trkpt lat="65.12487" lon="12.13078">
        <ele>68.253043</ele>
        <time>2020-08-12T12:04:58.777Z</time>
      </trkpt>
      <trkpt lat="65.12484" lon="12.13055">
        <ele>68.883734</ele>
        <time>2020-08-12T12:05:06.761Z</time>
      </trkpt>
      <trkpt lat="65.1248" lon="12.13034">
        <ele>69.487265</ele>
        <time>2020-08-12T12:05:13.774Z</time>
      </trkpt>
      <trkpt lat="65.12477" lon="12.13011">
        <ele>70.138996</ele>
        <time>2020-08-12T12:05:20.760Z</time>
      </trkpt>
      <trkpt lat="65.12476" lon="12.12987">
        <ele>70.774805</ele>
        <time>2020-08-12T12:05:27.768Z</time>
      </trkpt>
      <trkpt lat="65.12473" lon="12.12965">
        <ele>71.378986</ele>
        <time>2020-08-12T12:05:34.755Z</time>
      </trkpt>
      <trkpt lat="65.12469" lon="12.12943">
        <ele>72.002051</ele>
        <time>2020-08-12T12:05:41.765Z</time>
      </trkpt>
      <trkpt lat="65.12466" lon="12.1292">
        <ele>72.639111</ele>
        <time>2020-08-12T12:05:48.766Z</time>
      </trkpt>
      <trkpt lat="65.12464" lon="12.12898">
        <ele>73.235993</ele>
        <time>2020-08-12T12:05:54.765Z</time>
      </trkpt>
      <trkpt lat="65.12464" lon="12.12875">
        <ele>73.833834</ele>
        <time>2020-08-12T12:05:59.750Z</time>
      </trkpt>
      <trkpt lat="65.12463" lon="12.12849">
        <ele>74.204193</ele>
        <time>2020-08-12T12:06:04.767Z</time>
      </trkpt>
      <trkpt lat="65.12462" lon="12.12824">
        <ele>74.483872</ele>
        <time>2020-08-12T12:06:09.753Z</time>
      </trkpt>
      <trkpt lat="65.12462" lon="12.12799">
        <ele>74.754633</ele>
        <time>2020-08-12T12:06:14.794Z</time>
      </trkpt>
      <trkpt lat="65.12463" lon="12.12778">
        <ele>74.988541</ele>
        <time>2020-08-12T12:06:18.798Z</time>
      </trkpt>
      <trkpt lat="65.12463" lon="12.12751">
        <ele>75.276307</ele>
        <time>2020-08-12T12:06:23.809Z</time>
      </trkpt>
      <trkpt lat="65.12463" lon="12.12726">
        <ele>75.555534</ele>
        <time>2020-08-12T12:06:27.767Z</time>
      </trkpt>
      <trkpt lat="65.12463" lon="12.127">
        <ele>75.83349</ele>
        <time>2020-08-12T12:06:31.766Z</time>
      </trkpt>
      <trkpt lat="65.12463" lon="12.12675">
        <ele>76.107516</ele>
        <time>2020-08-12T12:06:35.757Z</time>
      </trkpt>
      <trkpt lat="65.12462" lon="12.12653">
        <ele>76.350595</ele>
        <time>2020-08-12T12:06:39.747Z</time>
      </trkpt>
      <trkpt lat="65.12462" lon="12.12626">
        <ele>76.637365</ele>
        <time>2020-08-12T12:06:43.764Z</time>
      </trkpt>
      <trkpt lat="65.12462" lon="12.12598">
        <ele>76.944749</ele>
        <time>2020-08-12T12:06:47.761Z</time>
      </trkpt>
      <trkpt lat="65.12462" lon="12.12574">
        <ele>77.204371</ele>
        <time>2020-08-12T12:06:50.777Z</time>
      </trkpt>
      <trkpt lat="65.12461" lon="12.1255">
        <ele>77.475973</ele>
        <time>2020-08-12T12:06:53.763Z</time>
      </trkpt>
      <trkpt lat="65.12461" lon="12.12525">
        <ele>77.740066</ele>
        <time>2020-08-12T12:06:56.753Z</time>
      </trkpt>
      <trkpt lat="65.12459" lon="12.12502">
        <ele>78.002773</ele>
        <time>2020-08-12T12:06:59.796Z</time>
      </trkpt>
      <trkpt lat="65.12458" lon="12.12479">
        <ele>78.248587</ele>
        <time>2020-08-12T12:07:02.786Z</time>
      </trkpt>
      <trkpt lat="65.12458" lon="12.12457">
        <ele>78.491652</ele>
        <time>2020-08-12T12:07:05.776Z</time>
      </trkpt>
      <trkpt lat="65.12456" lon="12.12434">
        <ele>78.752725</ele>
        <time>2020-08-12T12:07:08.771Z</time>
      </trkpt>
      <trkpt lat="65.12454" lon="12.12411">
        <ele>79.02286</ele>
        <time>2020-08-12T12:07:11.787Z</time>
      </trkpt>
      <trkpt lat="65.12453" lon="12.12388">
        <ele>79.282484</ele>
        <time>2020-08-12T12:07:14.787Z</time>
      </trkpt>
      <trkpt lat="65.12452" lon="12.12366">
        <ele>79.537524</ele>
        <time>2020-08-12T12:07:17.775Z</time>
      </trkpt>
      <trkpt lat="65.12451" lon="12.12345">
        <ele>79.790154</ele>
        <time>2020-08-12T12:07:20.806Z</time>
      </trkpt>
      <trkpt lat="65.1245" lon="12.12324">
        <ele>80.036351</ele>
        <time>2020-08-12T12:07:23.785Z</time>
      </trkpt>
      <trkpt lat="65.12448" lon="12.12301">
        <ele>80.304608</ele>
        <time>2020-08-12T12:07:26.759Z</time>
      </trkpt>
      <trkpt lat="65.12446" lon="12.12277">
        <ele>80.580573</ele>
        <time>2020-08-12T12:07:29.779Z</time>
      </trkpt>
      <trkpt lat="65.12445" lon="12.12255">
        <ele>80.842335</ele>
        <time>2020-08-12T12:07:32.757Z</time>
      </trkpt>
      <trkpt lat="65.12444" lon="12.12233">
        <ele>81.090402</ele>
        <time>2020-08-12T12:07:35.750Z</time>
      </trkpt>
      <trkpt lat="65.12442" lon="12.12212">
        <ele>81.337042</ele>
        <time>2020-08-12T12:07:38.796Z</time>
      </trkpt>
      <trkpt lat="65.12441" lon="12.12191">
        <ele>81.586919</ele>
        <time>2020-08-12T12:07:41.780Z</time>
      </trkpt>
      <trkpt lat="65.12438" lon="12.12164">
        <ele>81.898783</ele>
        <time>2020-08-12T12:07:45.765Z</time>
      </trkpt>
      <trkpt lat="65.12436" lon="12.12141">
        <ele>82.178514</ele>
        <time>2020-08-12T12:07:49.785Z</time>
      </trkpt>
      <trkpt lat="65.12434" lon="12.12117">
        <ele>82.46284</ele>
        <time>2020-08-12T12:07:53.768Z</time>
      </trkpt>
      <trkpt lat="65.12431" lon="12.12092">
        <ele>82.756568</ele>
        <time>2020-08-12T12:07:57.778Z</time>
      </trkpt>
      <trkpt lat="65.12429" lon="12.12068">
        <ele>83.032535</ele>
        <time>2020-08-12T12:08:01.758Z</time>
      </trkpt>
      <trkpt lat="65.12427" lon="12.12044">
        <ele>83.32015</ele>
        <time>2020-08-12T12:08:05.796Z</time>
      </trkpt>
      <trkpt lat="65.12426" lon="12.12021">
        <ele>83.587846</ele>
        <time>2020-08-12T12:08:09.804Z</time>
      </trkpt>
      <trkpt lat="65.12426" lon="12.11999">
        <ele>83.855079</ele>
        <time>2020-08-12T12:08:13.761Z</time>
      </trkpt>
      <trkpt lat="65.12426" lon="12.11976">
        <ele>84.12157</ele>
        <time>2020-08-12T12:08:17.767Z</time>
      </trkpt>
      <trkpt lat="65.12426" lon="12.1195">
        <ele>84.4312</ele>
        <time>2020-08-12T12:08:22.798Z</time>
      </trkpt>
      <trkpt lat="65.12427" lon="12.11927">
        <ele>84.710535</ele>
        <time>2020-08-12T12:08:26.755Z</time>
      </trkpt>
      <trkpt lat="65.1243" lon="12.11905">
        <ele>84.991755</ele>
        <time>2020-08-12T12:08:30.766Z</time>
      </trkpt>
      <trkpt lat="65.12433" lon="12.1188">
        <ele>85.30358</ele>
        <time>2020-08-12T12:08:35.766Z</time>
      </trkpt>
      <trkpt lat="65.12438" lon="12.11855">
        <ele>85.626691</ele>
        <time>2020-08-12T12:08:40.766Z</time>
      </trkpt>
      <trkpt lat="65.12443" lon="12.11835">
        <ele>85.904646</ele>
        <time>2020-08-12T12:08:44.751Z</time>
      </trkpt>
      <trkpt lat="65.12448" lon="12.11815">
        <ele>86.188649</ele>
        <time>2020-08-12T12:08:48.782Z</time>
      </trkpt>
      <trkpt lat="65.12454" lon="12.11795">
        <ele>86.474382</ele>
        <time>2020-08-12T12:08:52.757Z</time>
      </trkpt>
      <trkpt lat="65.1246" lon="12.11777">
        <ele>86.758826</ele>
        <time>2020-08-12T12:08:57.775Z</time>
      </trkpt>
      <trkpt lat="65.12466" lon="12.11759">
        <ele>87.043226</ele>
        <time>2020-08-12T12:09:01.787Z</time>
      </trkpt>
      <trkpt lat="65.12473" lon="12.11741">
        <ele>87.330945</ele>
        <time>2020-08-12T12:09:05.767Z</time>
      </trkpt>
      <trkpt lat="65.1248" lon="12.11727">
        <ele>87.587109</ele>
        <time>2020-08-12T12:09:08.767Z</time>
      </trkpt>
      <trkpt lat="65.12488" lon="12.11711">
        <ele>87.883344</ele>
        <time>2020-08-12T12:09:12.770Z</time>
      </trkpt>
      <trkpt lat="65.12763" lon="12.11627">
        <ele>70.75085</ele>
        <time>2020-08-12T12:09:58.884Z</time>
      </trkpt>
      <trkpt lat="65.12781" lon="12.11616">
        <ele>69.46888</ele>
        <time>2020-08-12T12:09:59.815Z</time>
      </trkpt>
      <trkpt lat="65.12804" lon="12.11616">
        <ele>67.892506</ele>
        <time>2020-08-12T12:10:01.762Z</time>
      </trkpt>
      <trkpt lat="65.12815" lon="12.11618">
        <ele>67.108381</ele>
        <time>2020-08-12T12:10:02.781Z</time>
      </trkpt>
      <trkpt lat="65.12826" lon="12.11624">
        <ele>66.315873</ele>
        <time>2020-08-12T12:10:03.785Z</time>
      </trkpt>
      <trkpt lat="65.12838" lon="12.11632">
        <ele>65.502347</ele>
        <time>2020-08-12T12:10:04.756Z</time>
      </trkpt>
      <trkpt lat="65.12849" lon="12.11642">
        <ele>64.683706</ele>
        <time>2020-08-12T12:10:05.770Z</time>
      </trkpt>
      <trkpt lat="65.12859" lon="12.11652">
        <ele>63.925533</ele>
        <time>2020-08-12T12:10:06.773Z</time>
      </trkpt>
      <trkpt lat="65.12868" lon="12.11664">
        <ele>63.187164</ele>
        <time>2020-08-12T12:10:07.780Z</time>
      </trkpt>
      <trkpt lat="65.12877" lon="12.11676">
        <ele>63.222132</ele>
        <time>2020-08-12T12:10:08.765Z</time>
      </trkpt>
      <trkpt lat="65.12886" lon="12.11686">
        <ele>63.35684</ele>
        <time>2020-08-12T12:10:09.761Z</time>
      </trkpt>
      <trkpt lat="65.12895" lon="12.11696">
        <ele>63.485841</ele>
        <time>2020-08-12T12:10:10.758Z</time>
      </trkpt>
      <trkpt lat="65.12903" lon="12.11705">
        <ele>63.613125</ele>
        <time>2020-08-12T12:10:11.756Z</time>
      </trkpt>
      <trkpt lat="65.12919" lon="12.11723">
        <ele>63.851658</ele>
        <time>2020-08-12T12:10:13.764Z</time>
      </trkpt>
      <trkpt lat="65.12934" lon="12.1174">
        <ele>64.072968</ele>
        <time>2020-08-12T12:10:15.762Z</time>
      </trkpt>
      <trkpt lat="65.12946" lon="12.11755">
        <ele>64.264759</ele>
        <time>2020-08-12T12:10:17.750Z</time>
      </trkpt>
      <trkpt lat="65.12958" lon="12.11767">
        <ele>64.439673</ele>
        <time>2020-08-12T12:10:19.788Z</time>
      </trkpt>
      <trkpt lat="65.1297" lon="12.11776">
        <ele>64.610992</ele>
        <time>2020-08-12T12:10:21.763Z</time>
      </trkpt>
      <trkpt lat="65.12981" lon="12.11783">
        <ele>64.77251</ele>
        <time>2020-08-12T12:10:23.806Z</time>
      </trkpt>
      <trkpt lat="65.12992" lon="12.11792">
        <ele>64.922768</ele>
        <time>2020-08-12T12:10:25.750Z</time>
      </trkpt>
      <trkpt lat="65.13002" lon="12.118">
        <ele>65.063984</ele>
        <time>2020-08-12T12:10:27.777Z</time>
      </trkpt>
      <trkpt lat="65.13011" lon="12.11806">
        <ele>65.200878</ele>
        <time>2020-08-12T12:10:29.757Z</time>
      </trkpt>
      <trkpt lat="65.13021" lon="12.11811">
        <ele>65.338468</ele>
        <time>2020-08-12T12:10:31.773Z</time>
      </trkpt>
      <trkpt lat="65.13031" lon="12.11815">
        <ele>65.467816</ele>
        <time>2020-08-12T12:10:33.775Z</time>
      </trkpt>
      <trkpt lat="65.1304" lon="12.11818">
        <ele>65.509078</ele>
        <time>2020-08-12T12:10:35.777Z</time>
      </trkpt>
      <trkpt lat="65.13049" lon="12.11821">
        <ele>65.385551</ele>
        <time>2020-08-12T12:10:37.773Z</time>
      </trkpt>
      <trkpt lat="65.13058" lon="12.11823">
        <ele>65.265052</ele>
        <time>2020-08-12T12:10:39.757Z</time>
      </trkpt>
      <trkpt lat="65.13072" lon="12.11825">
        <ele>65.091345</ele>
        <time>2020-08-12T12:10:42.758Z</time>
      </trkpt>
      <trkpt lat="65.13081" lon="12.11826">
        <ele>64.968766</ele>
        <time>2020-08-12T12:10:44.753Z</time>
      </trkpt>
      <trkpt lat="65.13091" lon="12.11826">
        <ele>64.841051</ele>
        <time>2020-08-12T12:10:46.762Z</time>
      </trkpt>
      <trkpt lat="65.13101" lon="12.11826">
        <ele>64.708124</ele>
        <time>2020-08-12T12:10:48.766Z</time>
      </trkpt>
      <trkpt lat="65.13111" lon="12.11826">
        <ele>64.58041</ele>
        <time>2020-08-12T12:10:50.765Z</time>
      </trkpt>
      <trkpt lat="65.13121" lon="12.11825">
        <ele>64.448418</ele>
        <time>2020-08-12T12:10:52.785Z</time>
      </trkpt>
      <trkpt lat="65.13131" lon="12.11823">
        <ele>64.321533</ele>
        <time>2020-08-12T12:10:54.752Z</time>
      </trkpt>
      <trkpt lat="65.1314" lon="12.11821">
        <ele>64.193302</ele>
        <time>2020-08-12T12:10:56.767Z</time>
      </trkpt>
      <trkpt lat="65.1315" lon="12.11817">
        <ele>64.069553</ele>
        <time>2020-08-12T12:10:58.761Z</time>
      </trkpt>
      <trkpt lat="65.13159" lon="12.11815">
        <ele>63.951647</ele>
        <time>2020-08-12T12:11:00.750Z</time>
      </trkpt>
      <trkpt lat="65.13172" lon="12.11812">
        <ele>63.778676</ele>
        <time>2020-08-12T12:11:03.761Z</time>
      </trkpt>
      <trkpt lat="65.13185" lon="12.1181">
        <ele>63.614268</ele>
        <time>2020-08-12T12:11:06.763Z</time>
      </trkpt>
      <trkpt lat="65.13196" lon="12.11808">
        <ele>63.463775</ele>
        <time>2020-08-12T12:11:09.765Z</time>
      </trkpt>
      <trkpt lat="65.13208" lon="12.11806">
        <ele>63.310907</ele>
        <time>2020-08-12T12:11:12.796Z</time>
      </trkpt>
      <trkpt lat="65.13219" lon="12.11804">
        <ele>63.190474</ele>
        <time>2020-08-12T12:11:15.795Z</time>
      </trkpt>
      <trkpt lat="65.1323" lon="12.11802">
        <ele>63.129653</ele>
        <time>2020-08-12T12:11:18.760Z</time>
      </trkpt>
      <trkpt lat="65.13242" lon="12.11798">
        <ele>63.066244</ele>
        <time>2020-08-12T12:11:21.752Z</time>
      </trkpt>
      <trkpt lat="65.13254" lon="12.11794">
        <ele>63.000239</ele>
        <time>2020-08-12T12:11:24.777Z</time>
      </trkpt>
      <trkpt lat="65.13266" lon="12.11791">
        <ele>62.933354</ele>
        <time>2020-08-12T12:11:27.769Z</time>
      </trkpt>
      <trkpt lat="65.13279" lon="12.11788">
        <ele>62.864379</ele>
        <time>2020-08-12T12:11:30.755Z</time>
      </trkpt>
      <trkpt lat="65.13292" lon="12.11785">
        <ele>62.795845</ele>
        <time>2020-08-12T12:11:33.781Z</time>
      </trkpt>
      <trkpt lat="65.13305" lon="12.11782">
        <ele>62.724668</ele>
        <time>2020-08-12T12:11:36.767Z</time>
      </trkpt>
      <trkpt lat="65.13314" lon="12.11779">
        <ele>62.67451</ele>
        <time>2020-08-12T12:11:38.767Z</time>
      </trkpt>
      <trkpt lat="65.13324" lon="12.11777">
        <ele>62.621637</ele>
        <time>2020-08-12T12:11:40.758Z</time>
      </trkpt>
      <trkpt lat="65.13334" lon="12.11774">
        <ele>62.567649</ele>
        <time>2020-08-12T12:11:42.765Z</time>
      </trkpt>
      <trkpt lat="65.13345" lon="12.11771">
        <ele>62.511422</ele>
        <time>2020-08-12T12:11:44.767Z</time>
      </trkpt>
      <trkpt lat="65.13355" lon="12.11767">
        <ele>62.453483</ele>
        <time>2020-08-12T12:11:46.771Z</time>
      </trkpt>
      <trkpt lat="65.13367" lon="12.11764">
        <ele>62.392824</ele>
        <time>2020-08-12T12:11:48.763Z</time>
      </trkpt>
      <trkpt lat="65.13379" lon="12.11761">
        <ele>62.327515</ele>
        <time>2020-08-12T12:11:50.759Z</time>
      </trkpt>
      <trkpt lat="65.13391" lon="12.11757">
        <ele>62.260072</ele>
        <time>2020-08-12T12:11:52.786Z</time>
      </trkpt>
      <trkpt lat="65.13404" lon="12.11754">
        <ele>62.164593</ele>
        <time>2020-08-12T12:11:54.757Z</time>
      </trkpt>
      <trkpt lat="65.13417" lon="12.11751">
        <ele>62.057514</ele>
        <time>2020-08-12T12:11:56.752Z</time>
      </trkpt>
      <trkpt lat="65.13429" lon="12.11748">
        <ele>61.950434</ele>
        <time>2020-08-12T12:11:58.765Z</time>
      </trkpt>
      <trkpt lat="65.13442" lon="12.11744">
        <ele>61.846586</ele>
        <time>2020-08-12T12:12:00.792Z</time>
      </trkpt>
      <trkpt lat="65.13454" lon="12.1174">
        <ele>61.745673</ele>
        <time>2020-08-12T12:12:02.774Z</time>
      </trkpt>
      <trkpt lat="65.13466" lon="12.11736">
        <ele>61.643887</ele>
        <time>2020-08-12T12:12:04.781Z</time>
      </trkpt>
      <trkpt lat="65.13478" lon="12.11733">
        <ele>61.543462</ele>
        <time>2020-08-12T12:12:06.761Z</time>
      </trkpt>
      <trkpt lat="65.1349" lon="12.11729">
        <ele>61.443703</ele>
        <time>2020-08-12T12:12:08.792Z</time>
      </trkpt>
      <trkpt lat="65.13501" lon="12.11726">
        <ele>61.347413</ele>
        <time>2020-08-12T12:12:10.774Z</time>
      </trkpt>
      <trkpt lat="65.13512" lon="12.11722">
        <ele>61.254209</ele>
        <time>2020-08-12T12:12:12.773Z</time>
      </trkpt>
      <trkpt lat="65.13522" lon="12.11719">
        <ele>61.170352</ele>
        <time>2020-08-12T12:12:14.773Z</time>
      </trkpt>
      <trkpt lat="65.13532" lon="12.11716">
        <ele>61.090318</ele>
        <time>2020-08-12T12:12:16.757Z</time>
      </trkpt>
      <trkpt lat="65.13541" lon="12.11712">
        <ele>61.011105</ele>
        <time>2020-08-12T12:12:18.771Z</time>
      </trkpt>
      <trkpt lat="65.1355" lon="12.11709">
        <ele>60.933939</ele>
        <time>2020-08-12T12:12:20.785Z</time>
      </trkpt>
      <trkpt lat="65.13564" lon="12.11705">
        <ele>60.824055</ele>
        <time>2020-08-12T12:12:23.765Z</time>
      </trkpt>
      <trkpt lat="65.13576" lon="12.11703">
        <ele>60.829255</ele>
        <time>2020-08-12T12:12:26.769Z</time>
      </trkpt>
      <trkpt lat="65.13588" lon="12.11699">
        <ele>61.130598</ele>
        <time>2020-08-12T12:12:29.781Z</time>
      </trkpt>
      <trkpt lat="65.13598" lon="12.11697">
        <ele>61.396335</ele>
        <time>2020-08-12T12:12:32.753Z</time>
      </trkpt>
      <trkpt lat="65.13607" lon="12.11696">
        <ele>61.653196</ele>
        <time>2020-08-12T12:12:35.755Z</time>
      </trkpt>
      <trkpt lat="65.13617" lon="12.11695">
        <ele>61.894214</ele>
        <time>2020-08-12T12:12:38.781Z</time>
      </trkpt>
      <trkpt lat="65.13628" lon="12.11694">
        <ele>62.203707</ele>
        <time>2020-08-12T12:12:42.765Z</time>
      </trkpt>
      <trkpt lat="65.13639" lon="12.1169">
        <ele>62.480176</ele>
        <time>2020-08-12T12:12:46.785Z</time>
      </trkpt>
      <trkpt lat="65.1365" lon="12.11689">
        <ele>62.773515</ele>
        <time>2020-08-12T12:12:50.813Z</time>
      </trkpt>
      <trkpt lat="65.1366" lon="12.11688">
        <ele>63.027969</ele>
        <time>2020-08-12T12:12:54.786Z</time>
      </trkpt>
      <trkpt lat="65.13671" lon="12.11687">
        <ele>63.31922</ele>
        <time>2020-08-12T12:12:58.763Z</time>
      </trkpt>
      <trkpt lat="65.13682" lon="12.11685">
        <ele>63.615915</ele>
        <time>2020-08-12T12:13:02.786Z</time>
      </trkpt>
      <trkpt lat="65.13693" lon="12.11683">
        <ele>63.912217</ele>
        <time>2020-08-12T12:13:06.766Z</time>
      </trkpt>
      <trkpt lat="65.13704" lon="12.11681">
        <ele>64.201074</ele>
        <time>2020-08-12T12:13:10.787Z</time>
      </trkpt>
      <trkpt lat="65.13716" lon="12.11681">
        <ele>64.49978</ele>
        <time>2020-08-12T12:13:14.777Z</time>
      </trkpt>
      <trkpt lat="65.13727" lon="12.1168">
        <ele>64.798485</ele>
        <time>2020-08-12T12:13:18.762Z</time>
      </trkpt>
      <trkpt lat="65.13737" lon="12.1168">
        <ele>65.047358</ele>
        <time>2020-08-12T12:13:21.780Z</time>
      </trkpt>
      <trkpt lat="65.13746" lon="12.11681">
        <ele>65.285704</ele>
        <time>2020-08-12T12:13:24.759Z</time>
      </trkpt>
      <trkpt lat="65.13756" lon="12.11679">
        <ele>65.274123</ele>
        <time>2020-08-12T12:13:27.768Z</time>
      </trkpt>
      <trkpt lat="65.13768" lon="12.11679">
        <ele>64.750335</ele>
        <time>2020-08-12T12:13:30.768Z</time>
      </trkpt>
      <trkpt lat="65.13781" lon="12.11681">
        <ele>64.16157</ele>
        <time>2020-08-12T12:13:33.795Z</time>
      </trkpt>
      <trkpt lat="65.1379" lon="12.11682">
        <ele>63.724079</ele>
        <time>2020-08-12T12:13:35.762Z</time>
      </trkpt>
      <trkpt lat="65.13801" lon="12.11684">
        <ele>63.253088</ele>
        <time>2020-08-12T12:13:37.759Z</time>
      </trkpt>
      <trkpt lat="65.13811" lon="12.11687">
        <ele>62.771879</ele>
        <time>2020-08-12T12:13:39.757Z</time>
      </trkpt>
      <trkpt lat="65.13822" lon="12.1169">
        <ele>62.266432</ele>
        <time>2020-08-12T12:13:41.770Z</time>
      </trkpt>
      <trkpt lat="65.13834" lon="12.11694">
        <ele>61.725083</ele>
        <time>2020-08-12T12:13:43.753Z</time>
      </trkpt>
      <trkpt lat="65.13847" lon="12.11697">
        <ele>61.142581</ele>
        <time>2020-08-12T12:13:45.759Z</time>
      </trkpt>
      <trkpt lat="65.1386" lon="12.11702">
        <ele>60.521728</ele>
        <time>2020-08-12T12:13:47.798Z</time>
      </trkpt>
      <trkpt lat="65.13874" lon="12.11708">
        <ele>59.870025</ele>
        <time>2020-08-12T12:13:49.810Z</time>
      </trkpt>
      <trkpt lat="65.13889" lon="12.11713">
        <ele>59.196794</ele>
        <time>2020-08-12T12:13:51.795Z</time>
      </trkpt>
      <trkpt lat="65.13905" lon="12.11718">
        <ele>58.476112</ele>
        <time>2020-08-12T12:13:53.765Z</time>
      </trkpt>
      <trkpt lat="65.13921" lon="12.11722">
        <ele>57.724453</ele>
        <time>2020-08-12T12:13:55.763Z</time>
      </trkpt>
      <trkpt lat="65.13938" lon="12.11728">
        <ele>56.908293</ele>
        <time>2020-08-12T12:13:57.777Z</time>
      </trkpt>
      <trkpt lat="65.13955" lon="12.11732">
        <ele>56.024206</ele>
        <time>2020-08-12T12:13:59.773Z</time>
      </trkpt>
      <trkpt lat="65.13972" lon="12.11737">
        <ele>55.121771</ele>
        <time>2020-08-12T12:14:01.770Z</time>
      </trkpt>
      <trkpt lat="65.13989" lon="12.11745">
        <ele>54.192847</ele>
        <time>2020-08-12T12:14:03.750Z</time>
      </trkpt>
      <trkpt lat="65.14007" lon="12.1175">
        <ele>53.278924</ele>
        <time>2020-08-12T12:14:05.773Z</time>
      </trkpt>
      <trkpt lat="65.14024" lon="12.11757">
        <ele>52.36889</ele>
        <time>2020-08-12T12:14:07.764Z</time>
      </trkpt>
      <trkpt lat="65.14042" lon="12.11762">
        <ele>51.455268</ele>
        <time>2020-08-12T12:14:09.762Z</time>
      </trkpt>
      <trkpt lat="65.14059" lon="12.11768">
        <ele>50.550377</ele>
        <time>2020-08-12T12:14:11.789Z</time>
      </trkpt>
      <trkpt lat="65.14075" lon="12.11775">
        <ele>49.671527</ele>
        <time>2020-08-12T12:14:13.794Z</time>
      </trkpt>
      <trkpt lat="65.14091" lon="12.1178">
        <ele>48.830625</ele>
        <time>2020-08-12T12:14:15.757Z</time>
      </trkpt>
      <trkpt lat="65.14107" lon="12.11785">
        <ele>48.016699</ele>
        <time>2020-08-12T12:14:17.787Z</time>
      </trkpt>
      <trkpt lat="65.14122" lon="12.1179">
        <ele>47.440516</ele>
        <time>2020-08-12T12:14:19.776Z</time>
      </trkpt>
      <trkpt lat="65.14136" lon="12.11793">
        <ele>46.923507</ele>
        <time>2020-08-12T12:14:21.785Z</time>
      </trkpt>
      <trkpt lat="65.14149" lon="12.11797">
        <ele>46.419912</ele>
        <time>2020-08-12T12:14:23.754Z</time>
      </trkpt>
      <trkpt lat="65.14163" lon="12.11801">
        <ele>45.920336</ele>
        <time>2020-08-12T12:14:25.770Z</time>
      </trkpt>
      <trkpt lat="65.14176" lon="12.11803">
        <ele>45.419593</ele>
        <time>2020-08-12T12:14:27.780Z</time>
      </trkpt>
      <trkpt lat="65.1419" lon="12.11803">
        <ele>44.930672</ele>
        <time>2020-08-12T12:14:29.754Z</time>
      </trkpt>
      <trkpt lat="65.14203" lon="12.11804">
        <ele>44.445542</ele>
        <time>2020-08-12T12:14:31.766Z</time>
      </trkpt>
      <trkpt lat="65.14216" lon="12.11803">
        <ele>43.964038</ele>
        <time>2020-08-12T12:14:33.760Z</time>
      </trkpt>
      <trkpt lat="65.14229" lon="12.11801">
        <ele>43.474393</ele>
        <time>2020-08-12T12:14:35.768Z</time>
      </trkpt>
      <trkpt lat="65.14242" lon="12.118">
        <ele>42.988888</ele>
        <time>2020-08-12T12:14:37.765Z</time>
      </trkpt>
      <trkpt lat="65.14255" lon="12.11797">
        <ele>42.511922</ele>
        <time>2020-08-12T12:14:39.764Z</time>
      </trkpt>
      <trkpt lat="65.14268" lon="12.11791">
        <ele>42.048378</ele>
        <time>2020-08-12T12:14:41.754Z</time>
      </trkpt>
      <trkpt lat="65.1428" lon="12.11784">
        <ele>41.569646</ele>
        <time>2020-08-12T12:14:43.776Z</time>
      </trkpt>
      <trkpt lat="65.14293" lon="12.11778">
        <ele>41.498795</ele>
        <time>2020-08-12T12:14:45.769Z</time>
      </trkpt>
      <trkpt lat="65.14305" lon="12.1177">
        <ele>41.957942</ele>
        <time>2020-08-12T12:14:47.756Z</time>
      </trkpt>
      <trkpt lat="65.14317" lon="12.11762">
        <ele>42.402152</ele>
        <time>2020-08-12T12:14:49.789Z</time>
      </trkpt>
      <trkpt lat="65.14328" lon="12.11753">
        <ele>42.828638</ele>
        <time>2020-08-12T12:14:51.767Z</time>
      </trkpt>
      <trkpt lat="65.14339" lon="12.11745">
        <ele>43.244326</ele>
        <time>2020-08-12T12:14:53.773Z</time>
      </trkpt>
      <trkpt lat="65.1435" lon="12.11737">
        <ele>43.648139</ele>
        <time>2020-08-12T12:14:55.757Z</time>
      </trkpt>
      <trkpt lat="65.1436" lon="12.11728">
        <ele>44.045118</ele>
        <time>2020-08-12T12:14:57.780Z</time>
      </trkpt>
      <trkpt lat="65.14371" lon="12.1172">
        <ele>44.431366</ele>
        <time>2020-08-12T12:14:59.794Z</time>
      </trkpt>
      <trkpt lat="65.1438" lon="12.11712">
        <ele>44.793674</ele>
        <time>2020-08-12T12:15:01.769Z</time>
      </trkpt>
      <trkpt lat="65.14389" lon="12.11705">
        <ele>45.124737</ele>
        <time>2020-08-12T12:15:03.767Z</time>
      </trkpt>
      <trkpt lat="65.144" lon="12.11695">
        <ele>45.571185</ele>
        <time>2020-08-12T12:15:06.799Z</time>
      </trkpt>
      <trkpt lat="65.14411" lon="12.11686">
        <ele>45.961846</ele>
        <time>2020-08-12T12:15:09.762Z</time>
      </trkpt>
      <trkpt lat="65.1442" lon="12.11678">
        <ele>46.33163</ele>
        <time>2020-08-12T12:15:12.762Z</time>
      </trkpt>
      <trkpt lat="65.14431" lon="12.11668">
        <ele>46.733793</ele>
        <time>2020-08-12T12:15:16.776Z</time>
      </trkpt>
      <trkpt lat="65.1444" lon="12.1166">
        <ele>47.112224</ele>
        <time>2020-08-12T12:15:20.757Z</time>
      </trkpt>
      <trkpt lat="65.1445" lon="12.11652">
        <ele>47.474182</ele>
        <time>2020-08-12T12:15:24.777Z</time>
      </trkpt>
      <trkpt lat="65.14459" lon="12.11644">
        <ele>47.812022</ele>
        <time>2020-08-12T12:15:28.767Z</time>
      </trkpt>
      <trkpt lat="65.14469" lon="12.11637">
        <ele>48.130898</ele>
        <time>2020-08-12T12:15:32.779Z</time>
      </trkpt>
      <trkpt lat="65.14479" lon="12.11633">
        <ele>48.449214</ele>
        <time>2020-08-12T12:15:36.779Z</time>
      </trkpt>
      <trkpt lat="65.14489" lon="12.11629">
        <ele>48.765708</ele>
        <time>2020-08-12T12:15:40.785Z</time>
      </trkpt>
      <trkpt lat="65.145" lon="12.11626">
        <ele>49.094735</ele>
        <time>2020-08-12T12:15:44.782Z</time>
      </trkpt>
      <trkpt lat="65.14509" lon="12.11621">
        <ele>49.399448</ele>
        <time>2020-08-12T12:15:48.780Z</time>
      </trkpt>
      <trkpt lat="65.14519" lon="12.11618">
        <ele>49.696498</ele>
        <time>2020-08-12T12:15:52.759Z</time>
      </trkpt>
      <trkpt lat="65.14529" lon="12.11616">
        <ele>50.004764</ele>
        <time>2020-08-12T12:15:56.772Z</time>
      </trkpt>
      <trkpt lat="65.14539" lon="12.11615">
        <ele>50.321533</ele>
        <time>2020-08-12T12:16:00.762Z</time>
      </trkpt>
      <trkpt lat="65.1455" lon="12.11613">
        <ele>50.639199</ele>
        <time>2020-08-12T12:16:04.801Z</time>
      </trkpt>
      <trkpt lat="65.14561" lon="12.11609">
        <ele>50.981337</ele>
        <time>2020-08-12T12:16:08.773Z</time>
      </trkpt>
      <trkpt lat="65.1457" lon="12.11605">
        <ele>51.27271</ele>
        <time>2020-08-12T12:16:11.791Z</time>
      </trkpt>
      <trkpt lat="65.14579" lon="12.11602">
        <ele>51.561102</ele>
        <time>2020-08-12T12:16:14.764Z</time>
      </trkpt>
      <trkpt lat="65.14589" lon="12.116">
        <ele>51.860076</ele>
        <time>2020-08-12T12:16:17.749Z</time>
      </trkpt>
      <trkpt lat="65.146" lon="12.11599">
        <ele>52.198447</ele>
        <time>2020-08-12T12:16:20.759Z</time>
      </trkpt>
      <trkpt lat="65.14611" lon="12.11598">
        <ele>52.53978</ele>
        <time>2020-08-12T12:16:23.761Z</time>
      </trkpt>
      <trkpt lat="65.14622" lon="12.11596">
        <ele>52.881419</ele>
        <time>2020-08-12T12:16:26.795Z</time>
      </trkpt>
      <trkpt lat="65.14634" lon="12.11594">
        <ele>53.236156</ele>
        <time>2020-08-12T12:16:29.767Z</time>
      </trkpt>
      <trkpt lat="65.14646" lon="12.11593">
        <ele>52.9372</ele>
        <time>2020-08-12T12:16:32.792Z</time>
      </trkpt>
      <trkpt lat="65.14658" lon="12.11591">
        <ele>52.43758</ele>
        <time>2020-08-12T12:16:35.763Z</time>
      </trkpt>
      <trkpt lat="65.14671" lon="12.11589">
        <ele>51.909931</ele>
        <time>2020-08-12T12:16:38.767Z</time>
      </trkpt>
      <trkpt lat="65.1468" lon="12.11588">
        <ele>51.540877</ele>
        <time>2020-08-12T12:16:40.824Z</time>
      </trkpt>
      <trkpt lat="65.1469" lon="12.11587">
        <ele>51.14663</ele>
        <time>2020-08-12T12:16:42.762Z</time>
      </trkpt>
      <trkpt lat="65.147" lon="12.11586">
        <ele>50.749099</ele>
        <time>2020-08-12T12:16:44.788Z</time>
      </trkpt>
      <trkpt lat="65.1471" lon="12.11584">
        <ele>50.334637</ele>
        <time>2020-08-12T12:16:46.755Z</time>
      </trkpt>
      <trkpt lat="65.1472" lon="12.11583">
        <ele>49.91286</ele>
        <time>2020-08-12T12:16:48.773Z</time>
      </trkpt>
      <trkpt lat="65.14731" lon="12.11583">
        <ele>49.491219</ele>
        <time>2020-08-12T12:16:50.755Z</time>
      </trkpt>
      <trkpt lat="65.14741" lon="12.11581">
        <ele>49.064738</ele>
        <time>2020-08-12T12:16:52.772Z</time>
      </trkpt>
      <trkpt lat="65.14752" lon="12.11579">
        <ele>48.633588</ele>
        <time>2020-08-12T12:16:54.766Z</time>
      </trkpt>
      <trkpt lat="65.14762" lon="12.11577">
        <ele>48.199016</ele>
        <time>2020-08-12T12:16:56.758Z</time>
      </trkpt>
      <trkpt lat="65.14773" lon="12.11577">
        <ele>47.753088</ele>
        <time>2020-08-12T12:16:58.835Z</time>
      </trkpt>
      <trkpt lat="65.14784" lon="12.11576">
        <ele>47.310622</ele>
        <time>2020-08-12T12:17:00.802Z</time>
      </trkpt>
      <trkpt lat="65.14796" lon="12.11574">
        <ele>46.847516</ele>
        <time>2020-08-12T12:17:02.776Z</time>
      </trkpt>
      <trkpt lat="65.14807" lon="12.11572">
        <ele>46.376086</ele>
        <time>2020-08-12T12:17:04.789Z</time>
      </trkpt>
      <trkpt lat="65.14819" lon="12.1157">
        <ele>45.986888</ele>
        <time>2020-08-12T12:17:06.770Z</time>
      </trkpt>
      <trkpt lat="65.1483" lon="12.11568">
        <ele>45.830598</ele>
        <time>2020-08-12T12:17:08.763Z</time>
      </trkpt>
      <trkpt lat="65.14842" lon="12.11566">
        <ele>45.672917</ele>
        <time>2020-08-12T12:17:10.774Z</time>
      </trkpt>
      <trkpt lat="65.14853" lon="12.11564">
        <ele>45.517858</ele>
        <time>2020-08-12T12:17:12.761Z</time>
      </trkpt>
      <trkpt lat="65.14865" lon="12.11563">
        <ele>45.359069</ele>
        <time>2020-08-12T12:17:14.765Z</time>
      </trkpt>
      <trkpt lat="65.14877" lon="12.11561">
        <ele>45.201462</ele>
        <time>2020-08-12T12:17:16.769Z</time>
      </trkpt>
      <trkpt lat="65.14889" lon="12.1156">
        <ele>45.039827</ele>
        <time>2020-08-12T12:17:18.765Z</time>
      </trkpt>
      <trkpt lat="65.149" lon="12.11558">
        <ele>44.880962</ele>
        <time>2020-08-12T12:17:20.763Z</time>
      </trkpt>
      <trkpt lat="65.14912" lon="12.11557">
        <ele>44.726097</ele>
        <time>2020-08-12T12:17:22.763Z</time>
      </trkpt>
      <trkpt lat="65.14923" lon="12.11555">
        <ele>44.572618</ele>
        <time>2020-08-12T12:17:24.756Z</time>
      </trkpt>
      <trkpt lat="65.14934" lon="12.11555">
        <ele>44.416639</ele>
        <time>2020-08-12T12:17:26.765Z</time>
      </trkpt>
      <trkpt lat="65.14946" lon="12.11556">
        <ele>44.265928</ele>
        <time>2020-08-12T12:17:28.780Z</time>
      </trkpt>
      <trkpt lat="65.14956" lon="12.11558">
        <ele>44.117427</ele>
        <time>2020-08-12T12:17:30.759Z</time>
      </trkpt>
      <trkpt lat="65.14967" lon="12.11561">
        <ele>43.972918</ele>
        <time>2020-08-12T12:17:32.807Z</time>
      </trkpt>
      <trkpt lat="65.14978" lon="12.11564">
        <ele>43.826526</ele>
        <time>2020-08-12T12:17:34.760Z</time>
      </trkpt>
      <trkpt lat="65.14988" lon="12.11568">
        <ele>43.682664</ele>
        <time>2020-08-12T12:17:36.774Z</time>
      </trkpt>
      <trkpt lat="65.14999" lon="12.11572">
        <ele>43.633051</ele>
        <time>2020-08-12T12:17:38.781Z</time>
      </trkpt>
      <trkpt lat="65.15009" lon="12.11576">
        <ele>43.751726</ele>
        <time>2020-08-12T12:17:40.768Z</time>
      </trkpt>
      <trkpt lat="65.15018" lon="12.1158">
        <ele>43.866114</ele>
        <time>2020-08-12T12:17:42.789Z</time>
      </trkpt>
      <trkpt lat="65.15028" lon="12.11586">
        <ele>43.978299</ele>
        <time>2020-08-12T12:17:44.756Z</time>
      </trkpt>
      <trkpt lat="65.15037" lon="12.11592">
        <ele>44.092226</ele>
        <time>2020-08-12T12:17:46.785Z</time>
      </trkpt>
      <trkpt lat="65.15046" lon="12.11598">
        <ele>44.205277</ele>
        <time>2020-08-12T12:17:48.770Z</time>
      </trkpt>
      <trkpt lat="65.15056" lon="12.11605">
        <ele>44.318469</ele>
        <time>2020-08-12T12:17:50.755Z</time>
      </trkpt>
      <trkpt lat="65.15065" lon="12.11611">
        <ele>44.429813</ele>
        <time>2020-08-12T12:17:52.757Z</time>
      </trkpt>
      <trkpt lat="65.15074" lon="12.11618">
        <ele>44.54524</ele>
        <time>2020-08-12T12:17:54.767Z</time>
      </trkpt>
      <trkpt lat="65.15083" lon="12.11627">
        <ele>44.660727</ele>
        <time>2020-08-12T12:17:56.761Z</time>
      </trkpt>
      <trkpt lat="65.15092" lon="12.11637">
        <ele>44.774386</ele>
        <time>2020-08-12T12:17:58.781Z</time>
      </trkpt>
      <trkpt lat="65.15101" lon="12.11647">
        <ele>44.886358</ele>
        <time>2020-08-12T12:18:00.767Z</time>
      </trkpt>
      <trkpt lat="65.15109" lon="12.11657">
        <ele>44.99621</ele>
        <time>2020-08-12T12:18:02.782Z</time>
      </trkpt>
      <trkpt lat="65.15117" lon="12.11667">
        <ele>45.107113</ele>
        <time>2020-08-12T12:18:04.776Z</time>
      </trkpt>
      <trkpt lat="65.15126" lon="12.11676">
        <ele>45.219914</ele>
        <time>2020-08-12T12:18:06.766Z</time>
      </trkpt>
      <trkpt lat="65.15135" lon="12.11687">
        <ele>45.335279</ele>
        <time>2020-08-12T12:18:08.752Z</time>
      </trkpt>
      <trkpt lat="65.15144" lon="12.11697">
        <ele>45.447887</ele>
        <time>2020-08-12T12:18:10.798Z</time>
      </trkpt>
      <trkpt lat="65.15152" lon="12.11706">
        <ele>45.558588</ele>
        <time>2020-08-12T12:18:12.749Z</time>
      </trkpt>
      <trkpt lat="65.1516" lon="12.11717">
        <ele>45.665604</ele>
        <time>2020-08-12T12:18:14.784Z</time>
      </trkpt>
      <trkpt lat="65.15168" lon="12.11728">
        <ele>45.697898</ele>
        <time>2020-08-12T12:18:16.767Z</time>
      </trkpt>
      <trkpt lat="65.15177" lon="12.11738">
        <ele>45.699328</ele>
        <time>2020-08-12T12:18:18.770Z</time>
      </trkpt>
      <trkpt lat="65.15185" lon="12.11748">
        <ele>45.70069</ele>
        <time>2020-08-12T12:18:20.763Z</time>
      </trkpt>
      <trkpt lat="65.15196" lon="12.11761">
        <ele>45.702552</ele>
        <time>2020-08-12T12:18:23.760Z</time>
      </trkpt>
      <trkpt lat="65.15207" lon="12.11774">
        <ele>45.704447</ele>
        <time>2020-08-12T12:18:26.767Z</time>
      </trkpt>
      <trkpt lat="65.15218" lon="12.11787">
        <ele>45.706341</ele>
        <time>2020-08-12T12:18:29.761Z</time>
      </trkpt>
      <trkpt lat="65.1523" lon="12.11799">
        <ele>45.7083</ele>
        <time>2020-08-12T12:18:32.784Z</time>
      </trkpt>
      <trkpt lat="65.15241" lon="12.11811">
        <ele>45.710152</ele>
        <time>2020-08-12T12:18:35.753Z</time>
      </trkpt>
      <trkpt lat="65.15252" lon="12.11822">
        <ele>45.711931</ele>
        <time>2020-08-12T12:18:38.783Z</time>
      </trkpt>
      <trkpt lat="65.15262" lon="12.11832">
        <ele>45.713589</ele>
        <time>2020-08-12T12:18:41.766Z</time>
      </trkpt>
      <trkpt lat="65.15272" lon="12.11839">
        <ele>45.715179</ele>
        <time>2020-08-12T12:18:44.806Z</time>
      </trkpt>
      <trkpt lat="65.15282" lon="12.11846">
        <ele>45.716674</ele>
        <time>2020-08-12T12:18:47.814Z</time>
      </trkpt>
      <trkpt lat="65.15292" lon="12.11853">
        <ele>45.718264</ele>
        <time>2020-08-12T12:18:50.758Z</time>
      </trkpt>
      <trkpt lat="65.15302" lon="12.1186">
        <ele>45.719862</ele>
        <time>2020-08-12T12:18:53.789Z</time>
      </trkpt>
      <trkpt lat="65.15312" lon="12.11867">
        <ele>45.721428</ele>
        <time>2020-08-12T12:18:56.778Z</time>
      </trkpt>
      <trkpt lat="65.15322" lon="12.11875">
        <ele>45.723073</ele>
        <time>2020-08-12T12:18:59.765Z</time>
      </trkpt>
      <trkpt lat="65.15333" lon="12.11883">
        <ele>45.768377</ele>
        <time>2020-08-12T12:19:02.789Z</time>
      </trkpt>
      <trkpt lat="65.15343" lon="12.11892">
        <ele>45.875457</ele>
        <time>2020-08-12T12:19:05.759Z</time>
      </trkpt>
      <trkpt lat="65.15352" lon="12.119">
        <ele>45.978662</ele>
        <time>2020-08-12T12:19:08.778Z</time>
      </trkpt>
      <trkpt lat="65.15361" lon="12.1191">
        <ele>46.08056</ele>
        <time>2020-08-12T12:19:11.763Z</time>
      </trkpt>
      <trkpt lat="65.15371" lon="12.11921">
        <ele>46.189449</ele>
        <time>2020-08-12T12:19:14.763Z</time>
      </trkpt>
      <trkpt lat="65.1538" lon="12.11932">
        <ele>46.294482</ele>
        <time>2020-08-12T12:19:17.771Z</time>
      </trkpt>
      <trkpt lat="65.1539" lon="12.11944">
        <ele>46.409318</ele>
        <time>2020-08-12T12:19:20.758Z</time>
      </trkpt>
      <trkpt lat="65.15401" lon="12.11958">
        <ele>46.532866</ele>
        <time>2020-08-12T12:19:23.773Z</time>
      </trkpt>
      <trkpt lat="65.15412" lon="12.11972">
        <ele>46.659366</ele>
        <time>2020-08-12T12:19:26.771Z</time>
      </trkpt>
      <trkpt lat="65.15423" lon="12.11986">
        <ele>46.792441</ele>
        <time>2020-08-12T12:19:29.757Z</time>
      </trkpt>
      <trkpt lat="65.15432" lon="12.11995">
        <ele>46.893916</ele>
        <time>2020-08-12T12:19:31.817Z</time>
      </trkpt>
      <trkpt lat="65.15442" lon="12.12002">
        <ele>46.994997</ele>
        <time>2020-08-12T12:19:33.801Z</time>
      </trkpt>
      <trkpt lat="65.15454" lon="12.12014">
        <ele>47.126244</ele>
        <time>2020-08-12T12:19:35.766Z</time>
      </trkpt>
      <trkpt lat="65.15467" lon="12.12025">
        <ele>47.270849</ele>
        <time>2020-08-12T12:19:37.789Z</time>
      </trkpt>
      <trkpt lat="65.15481" lon="12.12032">
        <ele>47.412446</ele>
        <time>2020-08-12T12:19:39.772Z</time>
      </trkpt>
      <trkpt lat="65.15495" lon="12.12037">
        <ele>47.55485</ele>
        <time>2020-08-12T12:19:41.765Z</time>
      </trkpt>
      <trkpt lat="65.15508" lon="12.12041">
        <ele>47.583767</ele>
        <time>2020-08-12T12:19:43.758Z</time>
      </trkpt>
      <trkpt lat="65.1552" lon="12.12044">
        <ele>47.60833</ele>
        <time>2020-08-12T12:19:45.761Z</time>
      </trkpt>
      <trkpt lat="65.15533" lon="12.12051">
        <ele>47.632599</ele>
        <time>2020-08-12T12:19:47.797Z</time>
      </trkpt>
      <trkpt lat="65.15544" lon="12.12058">
        <ele>47.655582</ele>
        <time>2020-08-12T12:19:49.763Z</time>
      </trkpt>
      <trkpt lat="65.15556" lon="12.12064">
        <ele>47.677512</ele>
        <time>2020-08-12T12:19:51.796Z</time>
      </trkpt>
      <trkpt lat="65.15567" lon="12.1207">
        <ele>47.699633</ele>
        <time>2020-08-12T12:19:53.753Z</time>
      </trkpt>
      <trkpt lat="65.15578" lon="12.12076">
        <ele>47.721271</ele>
        <time>2020-08-12T12:19:55.766Z</time>
      </trkpt>
      <trkpt lat="65.15588" lon="12.1208">
        <ele>47.741858</ele>
        <time>2020-08-12T12:19:57.763Z</time>
      </trkpt>
      <trkpt lat="65.15598" lon="12.12082">
        <ele>47.761377</ele>
        <time>2020-08-12T12:19:59.752Z</time>
      </trkpt>
      <trkpt lat="65.15607" lon="12.12085">
        <ele>47.778598</ele>
        <time>2020-08-12T12:20:01.749Z</time>
      </trkpt>
      <trkpt lat="65.15619" lon="12.12089">
        <ele>47.802082</ele>
        <time>2020-08-12T12:20:04.762Z</time>
      </trkpt>
      <trkpt lat="65.15631" lon="12.12092">
        <ele>47.823527</ele>
        <time>2020-08-12T12:20:07.767Z</time>
      </trkpt>
      <trkpt lat="65.15641" lon="12.12095">
        <ele>47.843476</ele>
        <time>2020-08-12T12:20:10.773Z</time>
      </trkpt>
      <trkpt lat="65.15651" lon="12.12097">
        <ele>47.862922</ele>
        <time>2020-08-12T12:20:13.757Z</time>
      </trkpt>
      <trkpt lat="65.15661" lon="12.121">
        <ele>47.882892</ele>
        <time>2020-08-12T12:20:16.766Z</time>
      </trkpt>
      <trkpt lat="65.15671" lon="12.12104">
        <ele>47.901722</ele>
        <time>2020-08-12T12:20:19.755Z</time>
      </trkpt>
      <trkpt lat="65.15681" lon="12.12106">
        <ele>47.671583</ele>
        <time>2020-08-12T12:20:22.784Z</time>
      </trkpt>
      <trkpt lat="65.15692" lon="12.12108">
        <ele>47.36731</ele>
        <time>2020-08-12T12:20:25.783Z</time>
      </trkpt>
      <trkpt lat="65.15703" lon="12.1211">
        <ele>47.05496</ele>
        <time>2020-08-12T12:20:28.763Z</time>
      </trkpt>
      <trkpt lat="65.15716" lon="12.12113">
        <ele>46.695338</ele>
        <time>2020-08-12T12:20:31.799Z</time>
      </trkpt>
      <trkpt lat="65.15725" lon="12.12115">
        <ele>46.448068</ele>
        <time>2020-08-12T12:20:33.769Z</time>
      </trkpt>
      <trkpt lat="65.15735" lon="12.12117">
        <ele>46.193353</ele>
        <time>2020-08-12T12:20:35.774Z</time>
      </trkpt>
      <trkpt lat="65.15744" lon="12.12119">
        <ele>45.943907</ele>
        <time>2020-08-12T12:20:37.767Z</time>
      </trkpt>
      <trkpt lat="65.15753" lon="12.12119">
        <ele>45.689814</ele>
        <time>2020-08-12T12:20:39.794Z</time>
      </trkpt>
      <trkpt lat="65.15763" lon="12.12119">
        <ele>45.427564</ele>
        <time>2020-08-12T12:20:41.762Z</time>
      </trkpt>
      <trkpt lat="65.15772" lon="12.12118">
        <ele>45.162463</ele>
        <time>2020-08-12T12:20:43.762Z</time>
      </trkpt>
      <trkpt lat="65.15782" lon="12.12117">
        <ele>44.894271</ele>
        <time>2020-08-12T12:20:45.787Z</time>
      </trkpt>
      <trkpt lat="65.15792" lon="12.12113">
        <ele>44.630317</ele>
        <time>2020-08-12T12:20:47.755Z</time>
      </trkpt>
      <trkpt lat="65.15801" lon="12.12109">
        <ele>44.372927</ele>
        <time>2020-08-12T12:20:49.768Z</time>
      </trkpt>
      <trkpt lat="65.1581" lon="12.12105">
        <ele>44.112072</ele>
        <time>2020-08-12T12:20:51.754Z</time>
      </trkpt>
      <trkpt lat="65.1582" lon="12.121">
        <ele>43.857453</ele>
        <time>2020-08-12T12:20:53.767Z</time>
      </trkpt>
      <trkpt lat="65.15829" lon="12.12096">
        <ele>43.60111</ele>
        <time>2020-08-12T12:20:55.783Z</time>
      </trkpt>
      <trkpt lat="65.15838" lon="12.1209">
        <ele>43.347462</ele>
        <time>2020-08-12T12:20:57.815Z</time>
      </trkpt>
      <trkpt lat="65.15847" lon="12.12084">
        <ele>43.090116</ele>
        <time>2020-08-12T12:20:59.778Z</time>
      </trkpt>
      <trkpt lat="65.15855" lon="12.12077">
        <ele>43.202135</ele>
        <time>2020-08-12T12:21:01.763Z</time>
      </trkpt>
      <trkpt lat="65.15864" lon="12.12069">
        <ele>43.547669</ele>
        <time>2020-08-12T12:21:03.766Z</time>
      </trkpt>
      <trkpt lat="65.15873" lon="12.12062">
        <ele>43.889115</ele>
        <time>2020-08-12T12:21:05.758Z</time>
      </trkpt>
      <trkpt lat="65.15884" lon="12.1205">
        <ele>44.364865</ele>
        <time>2020-08-12T12:21:08.767Z</time>
      </trkpt>
      <trkpt lat="65.15894" lon="12.12039">
        <ele>44.787321</ele>
        <time>2020-08-12T12:21:11.767Z</time>
      </trkpt>
      <trkpt lat="65.15904" lon="12.12028">
        <ele>45.20769</ele>
        <time>2020-08-12T12:21:14.774Z</time>
      </trkpt>
      <trkpt lat="65.15913" lon="12.12015">
        <ele>45.579747</ele>
        <time>2020-08-12T12:21:17.779Z</time>
      </trkpt>
      <trkpt lat="65.15921" lon="12.12003">
        <ele>45.95113</ele>
        <time>2020-08-12T12:21:20.762Z</time>
      </trkpt>
      <trkpt lat="65.1593" lon="12.11992">
        <ele>46.336886</ele>
        <time>2020-08-12T12:21:23.762Z</time>
      </trkpt>
      <trkpt lat="65.15939" lon="12.11982">
        <ele>46.710496</ele>
        <time>2020-08-12T12:21:26.787Z</time>
      </trkpt>
      <trkpt lat="65.15948" lon="12.11971">
        <ele>47.098442</ele>
        <time>2020-08-12T12:21:29.759Z</time>
      </trkpt>
      <trkpt lat="65.15958" lon="12.11959">
        <ele>47.504601</ele>
        <time>2020-08-12T12:21:32.785Z</time>
      </trkpt>
      <trkpt lat="65.15969" lon="12.11947">
        <ele>47.966517</ele>
        <time>2020-08-12T12:21:35.826Z</time>
      </trkpt>
      <trkpt lat="65.1598" lon="12.11932">
        <ele>48.454624</ele>
        <time>2020-08-12T12:21:38.813Z</time>
      </trkpt>
      <trkpt lat="65.15992" lon="12.11919">
        <ele>48.926733</ele>
        <time>2020-08-12T12:21:41.757Z</time>
      </trkpt>
      <trkpt lat="65.16004" lon="12.11908">
        <ele>49.418341</ele>
        <time>2020-08-12T12:21:44.765Z</time>
      </trkpt>
      <trkpt lat="65.16012" lon="12.11901">
        <ele>49.760215</ele>
        <time>2020-08-12T12:21:46.778Z</time>
      </trkpt>
      <trkpt lat="65.16022" lon="12.11895">
        <ele>49.660165</ele>
        <time>2020-08-12T12:21:48.765Z</time>
      </trkpt>
      <trkpt lat="65.16031" lon="12.11889">
        <ele>49.536615</ele>
        <time>2020-08-12T12:21:50.764Z</time>
      </trkpt>
      <trkpt lat="65.16041" lon="12.11884">
        <ele>49.40638</ele>
        <time>2020-08-12T12:21:52.769Z</time>
      </trkpt>
      <trkpt lat="65.16051" lon="12.11881">
        <ele>49.274337</ele>
        <time>2020-08-12T12:21:54.764Z</time>
      </trkpt>
      <trkpt lat="65.16062" lon="12.11876">
        <ele>49.132755</ele>
        <time>2020-08-12T12:21:56.770Z</time>
      </trkpt>
      <trkpt lat="65.16073" lon="12.11872">
        <ele>48.985215</ele>
        <time>2020-08-12T12:21:58.770Z</time>
      </trkpt>
      <trkpt lat="65.16084" lon="12.1187">
        <ele>48.837071</ele>
        <time>2020-08-12T12:22:00.811Z</time>
      </trkpt>
      <trkpt lat="65.16096" lon="12.11867">
        <ele>48.689325</ele>
        <time>2020-08-12T12:22:02.769Z</time>
      </trkpt>
      <trkpt lat="65.16107" lon="12.11865">
        <ele>48.545255</ele>
        <time>2020-08-12T12:22:04.767Z</time>
      </trkpt>
      <trkpt lat="65.16118" lon="12.11863">
        <ele>48.40024</ele>
        <time>2020-08-12T12:22:06.766Z</time>
      </trkpt>
      <trkpt lat="65.16129" lon="12.11862">
        <ele>48.259269</ele>
        <time>2020-08-12T12:22:08.761Z</time>
      </trkpt>
      <trkpt lat="65.1614" lon="12.11862">
        <ele>48.120991</ele>
        <time>2020-08-12T12:22:10.766Z</time>
      </trkpt>
      <trkpt lat="65.1615" lon="12.11861">
        <ele>47.98789</ele>
        <time>2020-08-12T12:22:12.749Z</time>
      </trkpt>
      <trkpt lat="65.1616" lon="12.11861">
        <ele>47.861217</ele>
        <time>2020-08-12T12:22:14.778Z</time>
      </trkpt>
      <trkpt lat="65.16169" lon="12.11861">
        <ele>47.741041</ele>
        <time>2020-08-12T12:22:16.768Z</time>
      </trkpt>
      <trkpt lat="65.16178" lon="12.11861">
        <ele>47.622152</ele>
        <time>2020-08-12T12:22:18.763Z</time>
      </trkpt>
      <trkpt lat="65.16191" lon="12.11861">
        <ele>47.456748</ele>
        <time>2020-08-12T12:22:21.787Z</time>
      </trkpt>
      <trkpt lat="65.16203" lon="12.1186">
        <ele>47.389795</ele>
        <time>2020-08-12T12:22:24.766Z</time>
      </trkpt>
      <trkpt lat="65.16214" lon="12.11858">
        <ele>47.3302</ele>
        <time>2020-08-12T12:22:27.762Z</time>
      </trkpt>
      <trkpt lat="65.16225" lon="12.11856">
        <ele>47.271114</ele>
        <time>2020-08-12T12:22:30.768Z</time>
      </trkpt>
      <trkpt lat="65.16235" lon="12.11855">
        <ele>47.214757</ele>
        <time>2020-08-12T12:22:33.803Z</time>
      </trkpt>
      <trkpt lat="65.16245" lon="12.11853">
        <ele>47.16047</ele>
        <time>2020-08-12T12:22:36.774Z</time>
      </trkpt>
      <trkpt lat="65.16256" lon="12.11851">
        <ele>47.101414</ele>
        <time>2020-08-12T12:22:39.782Z</time>
      </trkpt>
      <trkpt lat="65.16267" lon="12.11851">
        <ele>47.041387</ele>
        <time>2020-08-12T12:22:42.762Z</time>
      </trkpt>
      <trkpt lat="65.16278" lon="12.11851">
        <ele>46.982442</ele>
        <time>2020-08-12T12:22:45.757Z</time>
      </trkpt>
      <trkpt lat="65.16289" lon="12.11849">
        <ele>46.921804</ele>
        <time>2020-08-12T12:22:48.814Z</time>
      </trkpt>
      <trkpt lat="65.163" lon="12.11848">
        <ele>46.862734</ele>
        <time>2020-08-12T12:22:51.753Z</time>
      </trkpt>
      <trkpt lat="65.16311" lon="12.11846">
        <ele>46.803632</ele>
        <time>2020-08-12T12:22:54.766Z</time>
      </trkpt>
      <trkpt lat="65.16322" lon="12.11844">
        <ele>46.742957</ele>
        <time>2020-08-12T12:22:57.761Z</time>
      </trkpt>
      <trkpt lat="65.16334" lon="12.11843">
        <ele>46.679618</ele>
        <time>2020-08-12T12:23:00.754Z</time>
      </trkpt>
      <trkpt lat="65.16346" lon="12.11842">
        <ele>46.613079</ele>
        <time>2020-08-12T12:23:03.790Z</time>
      </trkpt>
      <trkpt lat="65.16359" lon="12.11842">
        <ele>46.54602</ele>
        <time>2020-08-12T12:23:06.768Z</time>
      </trkpt>
      <trkpt lat="65.16371" lon="12.11842">
        <ele>46.478371</ele>
        <time>2020-08-12T12:23:09.767Z</time>
      </trkpt>
      <trkpt lat="65.16384" lon="12.11842">
        <ele>46.42878</ele>
        <time>2020-08-12T12:23:12.754Z</time>
      </trkpt>
      <trkpt lat="65.16396" lon="12.1184">
        <ele>46.380306</ele>
        <time>2020-08-12T12:23:15.766Z</time>
      </trkpt>
      <trkpt lat="65.16407" lon="12.11839">
        <ele>46.333515</ele>
        <time>2020-08-12T12:23:18.770Z</time>
      </trkpt>
      <trkpt lat="65.16419" lon="12.11838">
        <ele>46.286729</ele>
        <time>2020-08-12T12:23:21.837Z</time>
      </trkpt>
      <trkpt lat="65.1643" lon="12.11836">
        <ele>46.239741</ele>
        <time>2020-08-12T12:23:24.753Z</time>
      </trkpt>
      <trkpt lat="65.16442" lon="12.11834">
        <ele>46.192852</ele>
        <time>2020-08-12T12:23:27.810Z</time>
      </trkpt>
      <trkpt lat="65.16453" lon="12.11833">
        <ele>46.147667</ele>
        <time>2020-08-12T12:23:30.773Z</time>
      </trkpt>
      <trkpt lat="65.16464" lon="12.11831">
        <ele>46.104785</ele>
        <time>2020-08-12T12:23:33.757Z</time>
      </trkpt>
      <trkpt lat="65.16474" lon="12.1183">
        <ele>46.062023</ele>
        <time>2020-08-12T12:23:36.790Z</time>
      </trkpt>
      <trkpt lat="65.16486" lon="12.11829">
        <ele>46.016044</ele>
        <time>2020-08-12T12:23:39.769Z</time>
      </trkpt>
      <trkpt lat="65.16497" lon="12.11828">
        <ele>45.97124</ele>
        <time>2020-08-12T12:23:42.783Z</time>
      </trkpt>
      <trkpt lat="65.16507" lon="12.11826">
        <ele>45.929262</ele>
        <time>2020-08-12T12:23:45.759Z</time>
      </trkpt>
      <trkpt lat="65.16517" lon="12.11825">
        <ele>45.888484</ele>
        <time>2020-08-12T12:23:48.806Z</time>
      </trkpt>
      <trkpt lat="65.16528" lon="12.11823">
        <ele>45.84636</ele>
        <time>2020-08-12T12:23:51.773Z</time>
      </trkpt>
      <trkpt lat="65.16538" lon="12.11819">
        <ele>45.803193</ele>
        <time>2020-08-12T12:23:54.786Z</time>
      </trkpt>
      <trkpt lat="65.16549" lon="12.11815">
        <ele>45.759814</ele>
        <time>2020-08-12T12:23:57.747Z</time>
      </trkpt>
      <trkpt lat="65.1656" lon="12.1181">
        <ele>45.742058</ele>
        <time>2020-08-12T12:24:00.785Z</time>
      </trkpt>
      <trkpt lat="65.16571" lon="12.11804">
        <ele>45.727468</ele>
        <time>2020-08-12T12:24:03.767Z</time>
      </trkpt>
      <trkpt lat="65.16583" lon="12.11798">
        <ele>45.712139</ele>
        <time>2020-08-12T12:24:06.757Z</time>
      </trkpt>
      <trkpt lat="65.16592" lon="12.11792">
        <ele>45.700469</ele>
        <time>2020-08-12T12:24:08.769Z</time>
      </trkpt>
      <trkpt lat="65.16601" lon="12.11785">
        <ele>45.687975</ele>
        <time>2020-08-12T12:24:10.769Z</time>
      </trkpt>
      <trkpt lat="65.16611" lon="12.11779">
        <ele>45.675236</ele>
        <time>2020-08-12T12:24:12.761Z</time>
      </trkpt>
      <trkpt lat="65.1662" lon="12.11771">
        <ele>45.662266</ele>
        <time>2020-08-12T12:24:14.753Z</time>
      </trkpt>
      <trkpt lat="65.1663" lon="12.11765">
        <ele>45.650001</ele>
        <time>2020-08-12T12:24:16.785Z</time>
      </trkpt>
      <trkpt lat="65.16639" lon="12.11758">
        <ele>45.63772</ele>
        <time>2020-08-12T12:24:18.781Z</time>
      </trkpt>
      <trkpt lat="65.16648" lon="12.11751">
        <ele>45.625714</ele>
        <time>2020-08-12T12:24:20.794Z</time>
      </trkpt>
      <trkpt lat="65.1666" lon="12.11742">
        <ele>45.608727</ele>
        <time>2020-08-12T12:24:23.780Z</time>
      </trkpt>
      <trkpt lat="65.16669" lon="12.11735">
        <ele>45.597256</ele>
        <time>2020-08-12T12:24:25.776Z</time>
      </trkpt>
      <trkpt lat="65.16682" lon="12.11727">
        <ele>45.58074</ele>
        <time>2020-08-12T12:24:28.775Z</time>
      </trkpt>
      <trkpt lat="65.16692" lon="12.11722">
        <ele>45.567306</ele>
        <time>2020-08-12T12:24:31.763Z</time>
      </trkpt>
      <trkpt lat="65.16701" lon="12.11718">
        <ele>45.554862</ele>
        <time>2020-08-12T12:24:34.751Z</time>
      </trkpt>
      <trkpt lat="65.1671" lon="12.11713">
        <ele>45.543191</ele>
        <time>2020-08-12T12:24:37.782Z</time>
      </trkpt>
      <trkpt lat="65.16722" lon="12.11707">
        <ele>45.528612</ele>
        <time>2020-08-12T12:24:41.768Z</time>
      </trkpt>
      <trkpt lat="65.16731" lon="12.11705">
        <ele>45.378677</ele>
        <time>2020-08-12T12:24:44.774Z</time>
      </trkpt>
      <trkpt lat="65.16741" lon="12.11704">
        <ele>45.131709</ele>
        <time>2020-08-12T12:24:48.765Z</time>
      </trkpt>
      <trkpt lat="65.16751" lon="12.11702">
        <ele>44.924834</ele>
        <time>2020-08-12T12:24:51.766Z</time>
      </trkpt>
      <trkpt lat="65.1676" lon="12.11702">
        <ele>44.707414</ele>
        <time>2020-08-12T12:24:54.765Z</time>
      </trkpt>
      <trkpt lat="65.1677" lon="12.11701">
        <ele>44.487583</ele>
        <time>2020-08-12T12:24:57.769Z</time>
      </trkpt>
      <trkpt lat="65.16781" lon="12.117">
        <ele>44.245347</ele>
        <time>2020-08-12T12:25:00.804Z</time>
      </trkpt>
      <trkpt lat="65.16792" lon="12.11701">
        <ele>43.980406</ele>
        <time>2020-08-12T12:25:03.773Z</time>
      </trkpt>
      <trkpt lat="65.16805" lon="12.11702">
        <ele>43.692835</ele>
        <time>2020-08-12T12:25:06.772Z</time>
      </trkpt>
      <trkpt lat="65.16818" lon="12.11702">
        <ele>43.396248</ele>
        <time>2020-08-12T12:25:09.774Z</time>
      </trkpt>
      <trkpt lat="65.16827" lon="12.11702">
        <ele>43.187983</ele>
        <time>2020-08-12T12:25:11.768Z</time>
      </trkpt>
      <trkpt lat="65.16836" lon="12.11701">
        <ele>42.981843</ele>
        <time>2020-08-12T12:25:13.769Z</time>
      </trkpt>
      <trkpt lat="65.16846" lon="12.117">
        <ele>42.766618</ele>
        <time>2020-08-12T12:25:15.766Z</time>
      </trkpt>
      <trkpt lat="65.16855" lon="12.11698">
        <ele>42.553062</ele>
        <time>2020-08-12T12:25:17.763Z</time>
      </trkpt>
      <trkpt lat="65.16865" lon="12.11696">
        <ele>42.332093</ele>
        <time>2020-08-12T12:25:19.767Z</time>
      </trkpt>
      <trkpt lat="65.16875" lon="12.11693">
        <ele>42.113033</ele>
        <time>2020-08-12T12:25:21.771Z</time>
      </trkpt>
      <trkpt lat="65.16884" lon="12.11689">
        <ele>41.8991</ele>
        <time>2020-08-12T12:25:23.757Z</time>
      </trkpt>
      <trkpt lat="65.16893" lon="12.11684">
        <ele>41.689674</ele>
        <time>2020-08-12T12:25:25.780Z</time>
      </trkpt>
      <trkpt lat="65.16905" lon="12.11676">
        <ele>41.490641</ele>
        <time>2020-08-12T12:25:28.789Z</time>
      </trkpt>
      <trkpt lat="65.16914" lon="12.11669">
        <ele>41.627107</ele>
        <time>2020-08-12T12:25:30.773Z</time>
      </trkpt>
      <trkpt lat="65.16923" lon="12.11664">
        <ele>41.762871</ele>
        <time>2020-08-12T12:25:32.785Z</time>
      </trkpt>
      <trkpt lat="65.16931" lon="12.11656">
        <ele>41.898357</ele>
        <time>2020-08-12T12:25:34.776Z</time>
      </trkpt>
      <trkpt lat="65.16943" lon="12.11643">
        <ele>42.093805</ele>
        <time>2020-08-12T12:25:37.772Z</time>
      </trkpt>
      <trkpt lat="65.16954" lon="12.11632">
        <ele>42.274333</ele>
        <time>2020-08-12T12:25:40.766Z</time>
      </trkpt>
      <trkpt lat="65.16964" lon="12.11621">
        <ele>42.444982</ele>
        <time>2020-08-12T12:25:43.777Z</time>
      </trkpt>
      <trkpt lat="65.16976" lon="12.1161">
        <ele>42.628017</ele>
        <time>2020-08-12T12:25:46.767Z</time>
      </trkpt>
      <trkpt lat="65.16987" lon="12.116">
        <ele>42.81102</ele>
        <time>2020-08-12T12:25:49.786Z</time>
      </trkpt>
      <trkpt lat="65.16997" lon="12.11591">
        <ele>42.977738</ele>
        <time>2020-08-12T12:25:52.781Z</time>
      </trkpt>
      <trkpt lat="65.17008" lon="12.11583">
        <ele>43.145894</ele>
        <time>2020-08-12T12:25:55.806Z</time>
      </trkpt>
      <trkpt lat="65.1702" lon="12.11578">
        <ele>43.329181</ele>
        <time>2020-08-12T12:25:58.766Z</time>
      </trkpt>
      <trkpt lat="65.17031" lon="12.11574">
        <ele>43.500419</ele>
        <time>2020-08-12T12:26:01.771Z</time>
      </trkpt>
      <trkpt lat="65.17043" lon="12.11573">
        <ele>43.679528</ele>
        <time>2020-08-12T12:26:04.769Z</time>
      </trkpt>
      <trkpt lat="65.17055" lon="12.11574">
        <ele>43.855713</ele>
        <time>2020-08-12T12:26:07.757Z</time>
      </trkpt>
      <trkpt lat="65.17067" lon="12.11578">
        <ele>44.029853</ele>
        <time>2020-08-12T12:26:10.748Z</time>
      </trkpt>
      <trkpt lat="65.17079" lon="12.11582">
        <ele>44.169196</ele>
        <time>2020-08-12T12:26:13.764Z</time>
      </trkpt>
      <trkpt lat="65.17091" lon="12.11585">
        <ele>44.207618</ele>
        <time>2020-08-12T12:26:16.764Z</time>
      </trkpt>
      <trkpt lat="65.17103" lon="12.11587">
        <ele>44.246278</ele>
        <time>2020-08-12T12:26:19.780Z</time>
      </trkpt>
      <trkpt lat="65.17115" lon="12.11589">
        <ele>44.283053</ele>
        <time>2020-08-12T12:26:22.767Z</time>
      </trkpt>
      <trkpt lat="65.17127" lon="12.11593">
        <ele>44.320776</ele>
        <time>2020-08-12T12:26:25.768Z</time>
      </trkpt>
      <trkpt lat="65.17139" lon="12.11597">
        <ele>44.35741</ele>
        <time>2020-08-12T12:26:28.760Z</time>
      </trkpt>
      <trkpt lat="65.1715" lon="12.11599">
        <ele>44.394194</ele>
        <time>2020-08-12T12:26:31.751Z</time>
      </trkpt>
      <trkpt lat="65.17162" lon="12.116">
        <ele>44.430296</ele>
        <time>2020-08-12T12:26:34.752Z</time>
      </trkpt>
      <trkpt lat="65.17173" lon="12.116">
        <ele>44.46479</ele>
        <time>2020-08-12T12:26:37.785Z</time>
      </trkpt>
      <trkpt lat="65.17183" lon="12.11599">
        <ele>44.497135</ele>
        <time>2020-08-12T12:26:40.798Z</time>
      </trkpt>
      <trkpt lat="65.17194" lon="12.11598">
        <ele>44.530087</ele>
        <time>2020-08-12T12:26:43.772Z</time>
      </trkpt>
      <trkpt lat="65.17204" lon="12.11596">
        <ele>44.563098</ele>
        <time>2020-08-12T12:26:46.774Z</time>
      </trkpt>
      <trkpt lat="65.17215" lon="12.11592">
        <ele>44.596638</ele>
        <time>2020-08-12T12:26:49.758Z</time>
      </trkpt>
      <trkpt lat="65.17225" lon="12.11589">
        <ele>44.629489</ele>
        <time>2020-08-12T12:26:52.761Z</time>
      </trkpt>
      <trkpt lat="65.17235" lon="12.11586">
        <ele>44.66049</ele>
        <time>2020-08-12T12:26:55.774Z</time>
      </trkpt>
      <trkpt lat="65.17244" lon="12.11582">
        <ele>44.690742</ele>
        <time>2020-08-12T12:26:58.759Z</time>
      </trkpt>
      <trkpt lat="65.17253" lon="12.11578">
        <ele>44.719452</ele>
        <time>2020-08-12T12:27:01.766Z</time>
      </trkpt>
      <trkpt lat="65.17265" lon="12.11573">
        <ele>44.538709</ele>
        <time>2020-08-12T12:27:05.785Z</time>
      </trkpt>
      <trkpt lat="65.17274" lon="12.11571">
        <ele>44.397759</ele>
        <time>2020-08-12T12:27:08.815Z</time>
      </trkpt>
      <trkpt lat="65.17286" lon="12.11567">
        <ele>44.206328</ele>
        <time>2020-08-12T12:27:12.765Z</time>
      </trkpt>
      <trkpt lat="65.17295" lon="12.11564">
        <ele>44.061343</ele>
        <time>2020-08-12T12:27:15.779Z</time>
      </trkpt>
      <trkpt lat="65.17304" lon="12.11561">
        <ele>43.919706</ele>
        <time>2020-08-12T12:27:18.768Z</time>
      </trkpt>
      <trkpt lat="65.17314" lon="12.1156">
        <ele>43.770819</ele>
        <time>2020-08-12T12:27:21.790Z</time>
      </trkpt>
      <trkpt lat="65.17323" lon="12.11561">
        <ele>43.626907</ele>
        <time>2020-08-12T12:27:24.779Z</time>
      </trkpt>
      <trkpt lat="65.17333" lon="12.11562">
        <ele>43.468885</ele>
        <time>2020-08-12T12:27:27.775Z</time>
      </trkpt>
      <trkpt lat="65.17343" lon="12.11565">
        <ele>43.308154</ele>
        <time>2020-08-12T12:27:30.789Z</time>
      </trkpt>
      <trkpt lat="65.17353" lon="12.11569">
        <ele>43.154128</ele>
        <time>2020-08-12T12:27:33.798Z</time>
      </trkpt>
      <trkpt lat="65.17363" lon="12.11574">
        <ele>42.991942</ele>
        <time>2020-08-12T12:27:36.806Z</time>
      </trkpt>
      <trkpt lat="65.17374" lon="12.11581">
        <ele>42.824603</ele>
        <time>2020-08-12T12:27:39.815Z</time>
      </trkpt>
      <trkpt lat="65.17384" lon="12.1159">
        <ele>42.650039</ele>
        <time>2020-08-12T12:27:42.764Z</time>
      </trkpt>
      <trkpt lat="65.17395" lon="12.11601">
        <ele>42.470684</ele>
        <time>2020-08-12T12:27:45.775Z</time>
      </trkpt>
      <trkpt lat="65.17406" lon="12.11613">
        <ele>42.275697</ele>
        <time>2020-08-12T12:27:48.763Z</time>
      </trkpt>
      <trkpt lat="65.17418" lon="12.11626">
        <ele>42.065806</ele>
        <time>2020-08-12T12:27:51.801Z</time>
      </trkpt>
      <trkpt lat="65.17427" lon="12.11635">
        <ele>41.922439</ele>
        <time>2020-08-12T12:27:53.786Z</time>
      </trkpt>
      <trkpt lat="65.17436" lon="12.11643">
        <ele>42.047895</ele>
        <time>2020-08-12T12:27:55.777Z</time>
      </trkpt>
      <trkpt lat="65.17445" lon="12.11651">
        <ele>42.196457</ele>
        <time>2020-08-12T12:27:57.764Z</time>
      </trkpt>
      <trkpt lat="65.17454" lon="12.1166">
        <ele>42.34216</ele>
        <time>2020-08-12T12:27:59.756Z</time>
      </trkpt>
      <trkpt lat="65.17462" lon="12.1167">
        <ele>42.491112</ele>
        <time>2020-08-12T12:28:01.782Z</time>
      </trkpt>
      <trkpt lat="65.17471" lon="12.11679">
        <ele>42.637861</ele>
        <time>2020-08-12T12:28:03.765Z</time>
      </trkpt>
      <trkpt lat="65.1748" lon="12.11689">
        <ele>42.791007</ele>
        <time>2020-08-12T12:28:05.765Z</time>
      </trkpt>
      <trkpt lat="65.1749" lon="12.11699">
        <ele>42.951614</ele>
        <time>2020-08-12T12:28:07.789Z</time>
      </trkpt>
      <trkpt lat="65.17499" lon="12.1171">
        <ele>43.107225</ele>
        <time>2020-08-12T12:28:09.775Z</time>
      </trkpt>
      <trkpt lat="65.17508" lon="12.11719">
        <ele>43.255335</ele>
        <time>2020-08-12T12:28:11.777Z</time>
      </trkpt>
      <trkpt lat="65.17516" lon="12.11728">
        <ele>43.39604</ele>
        <time>2020-08-12T12:28:13.761Z</time>
      </trkpt>
      <trkpt lat="65.17528" lon="12.11742">
        <ele>43.601841</ele>
        <time>2020-08-12T12:28:16.781Z</time>
      </trkpt>
      <trkpt lat="65.1754" lon="12.11755">
        <ele>43.80601</ele>
        <time>2020-08-12T12:28:19.757Z</time>
      </trkpt>
      <trkpt lat="65.17552" lon="12.11767">
        <ele>44.005434</ele>
        <time>2020-08-12T12:28:22.757Z</time>
      </trkpt>
      <trkpt lat="65.17563" lon="12.11778">
        <ele>44.18629</ele>
        <time>2020-08-12T12:28:25.771Z</time>
      </trkpt>
      <trkpt lat="65.17572" lon="12.11789">
        <ele>44.347166</ele>
        <time>2020-08-12T12:28:28.782Z</time>
      </trkpt>
      <trkpt lat="65.17582" lon="12.118">
        <ele>44.513309</ele>
        <time>2020-08-12T12:28:31.761Z</time>
      </trkpt>
      <trkpt lat="65.17591" lon="12.1181">
        <ele>44.666969</ele>
        <time>2020-08-12T12:28:34.814Z</time>
      </trkpt>
      <trkpt lat="65.176" lon="12.11819">
        <ele>44.799215</ele>
        <time>2020-08-12T12:28:37.786Z</time>
      </trkpt>
      <trkpt lat="65.17608" lon="12.11829">
        <ele>44.924986</ele>
        <time>2020-08-12T12:28:40.750Z</time>
      </trkpt>
      <trkpt lat="65.17619" lon="12.1184">
        <ele>45.085013</ele>
        <time>2020-08-12T12:28:44.771Z</time>
      </trkpt>
      <trkpt lat="65.17629" lon="12.11851">
        <ele>45.242065</ele>
        <time>2020-08-12T12:28:48.767Z</time>
      </trkpt>
      <trkpt lat="65.1764" lon="12.11863">
        <ele>45.406715</ele>
        <time>2020-08-12T12:28:52.777Z</time>
      </trkpt>
      <trkpt lat="65.17649" lon="12.11874">
        <ele>45.54407</ele>
        <time>2020-08-12T12:28:55.768Z</time>
      </trkpt>
      <trkpt lat="65.17658" lon="12.11885">
        <ele>45.675627</ele>
        <time>2020-08-12T12:28:58.808Z</time>
      </trkpt>
      <trkpt lat="65.17666" lon="12.11893">
        <ele>45.799966</ele>
        <time>2020-08-12T12:29:01.768Z</time>
      </trkpt>
      <trkpt lat="65.17675" lon="12.11901">
        <ele>45.927633</ele>
        <time>2020-08-12T12:29:04.817Z</time>
      </trkpt>
      <trkpt lat="65.17683" lon="12.1191">
        <ele>46.053459</ele>
        <time>2020-08-12T12:29:07.785Z</time>
      </trkpt>
      <trkpt lat="65.17692" lon="12.1192">
        <ele>46.183687</ele>
        <time>2020-08-12T12:29:10.777Z</time>
      </trkpt>
      <trkpt lat="65.177" lon="12.11928">
        <ele>46.313894</ele>
        <time>2020-08-12T12:29:13.794Z</time>
      </trkpt>
      <trkpt lat="65.1771" lon="12.11938">
        <ele>46.453102</ele>
        <time>2020-08-12T12:29:16.795Z</time>
      </trkpt>
      <trkpt lat="65.17719" lon="12.11947">
        <ele>46.586283</ele>
        <time>2020-08-12T12:29:19.785Z</time>
      </trkpt>
      <trkpt lat="65.17728" lon="12.11956">
        <ele>46.722984</ele>
        <time>2020-08-12T12:29:22.780Z</time>
      </trkpt>
      <trkpt lat="65.17737" lon="12.11966">
        <ele>46.861508</ele>
        <time>2020-08-12T12:29:25.789Z</time>
      </trkpt>
      <trkpt lat="65.17747" lon="12.11976">
        <ele>47.007468</ele>
        <time>2020-08-12T12:29:28.764Z</time>
      </trkpt>
      <trkpt lat="65.17756" lon="12.11986">
        <ele>47.143244</ele>
        <time>2020-08-12T12:29:31.769Z</time>
      </trkpt>
      <trkpt lat="65.17765" lon="12.11995">
        <ele>47.201719</ele>
        <time>2020-08-12T12:29:34.796Z</time>
      </trkpt>
      <trkpt lat="65.17773" lon="12.12003">
        <ele>47.258484</ele>
        <time>2020-08-12T12:29:37.788Z</time>
      </trkpt>
      <trkpt lat="65.17782" lon="12.12012">
        <ele>47.320578</ele>
        <time>2020-08-12T12:29:40.767Z</time>
      </trkpt>
      <trkpt lat="65.17792" lon="12.12024">
        <ele>47.389691</ele>
        <time>2020-08-12T12:29:43.775Z</time>
      </trkpt>
      <trkpt lat="65.17803" lon="12.12036">
        <ele>47.464127</ele>
        <time>2020-08-12T12:29:46.777Z</time>
      </trkpt>
      <trkpt lat="65.17813" lon="12.12049">
        <ele>47.537782</ele>
        <time>2020-08-12T12:29:49.767Z</time>
      </trkpt>
      <trkpt lat="65.17824" lon="12.1206">
        <ele>47.61076</ele>
        <time>2020-08-12T12:29:52.784Z</time>
      </trkpt>
      <trkpt lat="65.17834" lon="12.12071">
        <ele>47.683416</ele>
        <time>2020-08-12T12:29:55.784Z</time>
      </trkpt>
      <trkpt lat="65.17845" lon="12.12083">
        <ele>47.756833</ele>
        <time>2020-08-12T12:29:58.774Z</time>
      </trkpt>
      <trkpt lat="65.17855" lon="12.12094">
        <ele>47.828559</ele>
        <time>2020-08-12T12:30:01.792Z</time>
      </trkpt>
      <trkpt lat="65.17866" lon="12.12105">
        <ele>47.900015</ele>
        <time>2020-08-12T12:30:04.766Z</time>
      </trkpt>
      <trkpt lat="65.17876" lon="12.12116">
        <ele>47.97185</ele>
        <time>2020-08-12T12:30:07.766Z</time>
      </trkpt>
      <trkpt lat="65.17886" lon="12.12127">
        <ele>48.040746</ele>
        <time>2020-08-12T12:30:10.786Z</time>
      </trkpt>
      <trkpt lat="65.17896" lon="12.12137">
        <ele>48.104758</ele>
        <time>2020-08-12T12:30:13.750Z</time>
      </trkpt>
      <trkpt lat="65.17904" lon="12.12147">
        <ele>48.164012</ele>
        <time>2020-08-12T12:30:16.781Z</time>
      </trkpt>
      <trkpt lat="65.17913" lon="12.12157">
        <ele>48.227822</ele>
        <time>2020-08-12T12:30:19.807Z</time>
      </trkpt>
      <trkpt lat="65.17923" lon="12.12167">
        <ele>48.37454</ele>
        <time>2020-08-12T12:30:22.759Z</time>
      </trkpt>
      <trkpt lat="65.17933" lon="12.12178">
        <ele>48.678163</ele>
        <time>2020-08-12T12:30:25.785Z</time>
      </trkpt>
      <trkpt lat="65.17942" lon="12.12189">
        <ele>48.949135</ele>
        <time>2020-08-12T12:30:28.771Z</time>
      </trkpt>
      <trkpt lat="65.17951" lon="12.12199">
        <ele>49.205957</ele>
        <time>2020-08-12T12:30:31.772Z</time>
      </trkpt>
      <trkpt lat="65.1796" lon="12.12208">
        <ele>49.469347</ele>
        <time>2020-08-12T12:30:34.773Z</time>
      </trkpt>
      <trkpt lat="65.17968" lon="12.12217">
        <ele>49.7267</ele>
        <time>2020-08-12T12:30:37.753Z</time>
      </trkpt>
      <trkpt lat="65.17977" lon="12.12225">
        <ele>49.97667</ele>
        <time>2020-08-12T12:30:40.774Z</time>
      </trkpt>
      <trkpt lat="65.17986" lon="12.12235">
        <ele>50.230636</ele>
        <time>2020-08-12T12:30:43.763Z</time>
      </trkpt>
      <trkpt lat="65.17994" lon="12.12243">
        <ele>50.473386</ele>
        <time>2020-08-12T12:30:46.773Z</time>
      </trkpt>
      <trkpt lat="65.18004" lon="12.12254">
        <ele>50.765324</ele>
        <time>2020-08-12T12:30:50.785Z</time>
      </trkpt>
      <trkpt lat="65.18014" lon="12.12267">
        <ele>51.087543</ele>
        <time>2020-08-12T12:30:54.829Z</time>
      </trkpt>
      <trkpt lat="65.18023" lon="12.12277">
        <ele>51.33368</ele>
        <time>2020-08-12T12:30:57.811Z</time>
      </trkpt>
      <trkpt lat="65.18031" lon="12.12285">
        <ele>51.591572</ele>
        <time>2020-08-12T12:31:00.759Z</time>
      </trkpt>
      <trkpt lat="65.1804" lon="12.12293">
        <ele>51.841993</ele>
        <time>2020-08-12T12:31:03.755Z</time>
      </trkpt>
      <trkpt lat="65.18049" lon="12.12302">
        <ele>52.090583</ele>
        <time>2020-08-12T12:31:06.788Z</time>
      </trkpt>
      <trkpt lat="65.18057" lon="12.1231">
        <ele>52.340552</ele>
        <time>2020-08-12T12:31:09.767Z</time>
      </trkpt>
      <trkpt lat="65.18066" lon="12.1232">
        <ele>52.594944</ele>
        <time>2020-08-12T12:31:12.751Z</time>
      </trkpt>
      <trkpt lat="65.18074" lon="12.1233">
        <ele>52.847398</ele>
        <time>2020-08-12T12:31:15.802Z</time>
      </trkpt>
      <trkpt lat="65.18083" lon="12.12339">
        <ele>53.108308</ele>
        <time>2020-08-12T12:31:18.768Z</time>
      </trkpt>
      <trkpt lat="65.18094" lon="12.1235">
        <ele>53.247325</ele>
        <time>2020-08-12T12:31:22.769Z</time>
      </trkpt>
      <trkpt lat="65.18104" lon="12.12361">
        <ele>53.376876</ele>
        <time>2020-08-12T12:31:26.801Z</time>
      </trkpt>
      <trkpt lat="65.18114" lon="12.12372">
        <ele>53.506297</ele>
        <time>2020-08-12T12:31:30.770Z</time>
      </trkpt>
      <trkpt lat="65.18123" lon="12.12379">
        <ele>53.617688</ele>
        <time>2020-08-12T12:31:33.779Z</time>
      </trkpt>
      <trkpt lat="65.18132" lon="12.12388">
        <ele>53.723835</ele>
        <time>2020-08-12T12:31:36.798Z</time>
      </trkpt>
      <trkpt lat="65.18141" lon="12.12396">
        <ele>53.831233</ele>
        <time>2020-08-12T12:31:39.763Z</time>
      </trkpt>
      <trkpt lat="65.18149" lon="12.12404">
        <ele>53.935957</ele>
        <time>2020-08-12T12:31:42.821Z</time>
      </trkpt>
      <trkpt lat="65.18158" lon="12.1241">
        <ele>54.040566</ele>
        <time>2020-08-12T12:31:45.757Z</time>
      </trkpt>
      <trkpt lat="65.18167" lon="12.12415">
        <ele>54.149202</ele>
        <time>2020-08-12T12:31:48.759Z</time>
      </trkpt>
      <trkpt lat="65.18179" lon="12.1242">
        <ele>54.286857</ele>
        <time>2020-08-12T12:31:52.762Z</time>
      </trkpt>
      <trkpt lat="65.1819" lon="12.12425">
        <ele>54.421786</ele>
        <time>2020-08-12T12:31:56.767Z</time>
      </trkpt>
      <trkpt lat="65.18201" lon="12.12431">
        <ele>54.549383</ele>
        <time>2020-08-12T12:32:00.766Z</time>
      </trkpt>
      <trkpt lat="65.18213" lon="12.12433">
        <ele>54.683611</ele>
        <time>2020-08-12T12:32:04.769Z</time>
      </trkpt>
      <trkpt lat="65.18224" lon="12.12437">
        <ele>54.822303</ele>
        <time>2020-08-12T12:32:08.767Z</time>
      </trkpt>
      <trkpt lat="65.18234" lon="12.1244">
        <ele>54.929349</ele>
        <time>2020-08-12T12:32:11.779Z</time>
      </trkpt>
      <trkpt lat="65.18243" lon="12.12442">
        <ele>55.037988</ele>
        <time>2020-08-12T12:32:14.758Z</time>
      </trkpt>
      <trkpt lat="65.18253" lon="12.12443">
        <ele>55.154555</ele>
        <time>2020-08-12T12:32:17.780Z</time>
      </trkpt>
      <trkpt lat="65.18263" lon="12.1244">
        <ele>55.187239</ele>
        <time>2020-08-12T12:32:20.784Z</time>
      </trkpt>
      <trkpt lat="65.18274" lon="12.1244">
        <ele>55.185148</ele>
        <time>2020-08-12T12:32:23.766Z</time>
      </trkpt>
      <trkpt lat="65.18285" lon="12.12438">
        <ele>55.183069</ele>
        <time>2020-08-12T12:32:26.757Z</time>
      </trkpt>
      <trkpt lat="65.18296" lon="12.12434">
        <ele>55.181012</ele>
        <time>2020-08-12T12:32:29.756Z</time>
      </trkpt>
      <trkpt lat="65.18307" lon="12.1243">
        <ele>55.179001</ele>
        <time>2020-08-12T12:32:32.778Z</time>
      </trkpt>
      <trkpt lat="65.18318" lon="12.12424">
        <ele>55.176829</ele>
        <time>2020-08-12T12:32:35.763Z</time>
      </trkpt>
      <trkpt lat="65.1833" lon="12.12417">
        <ele>55.174633</ele>
        <time>2020-08-12T12:32:38.766Z</time>
      </trkpt>
      <trkpt lat="65.18342" lon="12.12408">
        <ele>55.17224</ele>
        <time>2020-08-12T12:32:41.763Z</time>
      </trkpt>
      <trkpt lat="65.18354" lon="12.12396">
        <ele>55.169724</ele>
        <time>2020-08-12T12:32:44.783Z</time>
      </trkpt>
      <trkpt lat="65.18363" lon="12.12386">
        <ele>55.167846</ele>
        <time>2020-08-12T12:32:46.764Z</time>
      </trkpt>
      <trkpt lat="65.18373" lon="12.12375">
        <ele>55.165851</ele>
        <time>2020-08-12T12:32:48.770Z</time>
      </trkpt>
      <trkpt lat="65.18383" lon="12.12362">
        <ele>55.163769</ele>
        <time>2020-08-12T12:32:50.764Z</time>
      </trkpt>
      <trkpt lat="65.18392" lon="12.12346">
        <ele>55.161584</ele>
        <time>2020-08-12T12:32:52.766Z</time>
      </trkpt>
      <trkpt lat="65.18401" lon="12.1233">
        <ele>55.159479</ele>
        <time>2020-08-12T12:32:54.782Z</time>
      </trkpt>
      <trkpt lat="65.1841" lon="12.12311">
        <ele>55.157249</ele>
        <time>2020-08-12T12:32:56.770Z</time>
      </trkpt>
      <trkpt lat="65.18418" lon="12.12287">
        <ele>55.136028</ele>
        <time>2020-08-12T12:32:58.772Z</time>
      </trkpt>
      <trkpt lat="65.18426" lon="12.1226">
        <ele>54.545227</ele>
        <time>2020-08-12T12:33:00.766Z</time>
      </trkpt>
      <trkpt lat="65.18434" lon="12.12232">
        <ele>53.929686</ele>
        <time>2020-08-12T12:33:02.773Z</time>
      </trkpt>
      <trkpt lat="65.1844" lon="12.12201">
        <ele>53.303595</ele>
        <time>2020-08-12T12:33:04.769Z</time>
      </trkpt>
      <trkpt lat="65.18445" lon="12.12167">
        <ele>52.644697</ele>
        <time>2020-08-12T12:33:06.759Z</time>
      </trkpt>
      <trkpt lat="65.18449" lon="12.12132">
        <ele>51.991452</ele>
        <time>2020-08-12T12:33:08.775Z</time>
      </trkpt>
      <trkpt lat="65.18451" lon="12.12096">
        <ele>51.328333</ele>
        <time>2020-08-12T12:33:10.769Z</time>
      </trkpt>
      <trkpt lat="65.18452" lon="12.12056">
        <ele>50.608109</ele>
        <time>2020-08-12T12:33:12.793Z</time>
      </trkpt>
      <trkpt lat="65.1845" lon="12.12014">
        <ele>49.842597</ele>
        <time>2020-08-12T12:33:14.758Z</time>
      </trkpt>
      <trkpt lat="65.18446" lon="12.11973">
        <ele>49.076379</ele>
        <time>2020-08-12T12:33:16.781Z</time>
      </trkpt>
      <trkpt lat="65.18441" lon="12.11933">
        <ele>48.328344</ele>
        <time>2020-08-12T12:33:18.779Z</time>
      </trkpt>
      <trkpt lat="65.18436" lon="12.11895">
        <ele>47.602472</ele>
        <time>2020-08-12T12:33:20.782Z</time>
      </trkpt>
      <trkpt lat="65.18431" lon="12.11858">
        <ele>47.119143</ele>
        <time>2020-08-12T12:33:22.825Z</time>
      </trkpt>
      <trkpt lat="65.18426" lon="12.11823">
        <ele>46.762707</ele>
        <time>2020-08-12T12:33:24.751Z</time>
      </trkpt>
      <trkpt lat="65.18422" lon="12.11789">
        <ele>46.430232</ele>
        <time>2020-08-12T12:33:26.760Z</time>
      </trkpt>
      <trkpt lat="65.18418" lon="12.11758">
        <ele>46.115785</ele>
        <time>2020-08-12T12:33:28.762Z</time>
      </trkpt>
      <trkpt lat="65.18413" lon="12.11728">
        <ele>45.809256</ele>
        <time>2020-08-12T12:33:30.783Z</time>
      </trkpt>
      <trkpt lat="65.18409" lon="12.11699">
        <ele>45.520785</ele>
        <time>2020-08-12T12:33:32.761Z</time>
      </trkpt>
      <trkpt lat="65.18405" lon="12.11671">
        <ele>45.231272</ele>
        <time>2020-08-12T12:33:34.751Z</time>
      </trkpt>
      <trkpt lat="65.184" lon="12.11646">
        <ele>44.96833</ele>
        <time>2020-08-12T12:33:36.782Z</time>
      </trkpt>
      <trkpt lat="65.18395" lon="12.11624">
        <ele>44.727252</ele>
        <time>2020-08-12T12:33:38.758Z</time>
      </trkpt>
      <trkpt lat="65.18389" lon="12.11601">
        <ele>44.468087</ele>
        <time>2020-08-12T12:33:40.772Z</time>
      </trkpt>
      <trkpt lat="65.18384" lon="12.11577">
        <ele>44.208385</ele>
        <time>2020-08-12T12:33:42.767Z</time>
      </trkpt>
      <trkpt lat="65.18378" lon="12.11552">
        <ele>43.942075</ele>
        <time>2020-08-12T12:33:44.786Z</time>
      </trkpt>
      <trkpt lat="65.18373" lon="12.11528">
        <ele>43.675092</ele>
        <time>2020-08-12T12:33:46.770Z</time>
      </trkpt>
      <trkpt lat="65.18367" lon="12.11505">
        <ele>43.418778</ele>
        <time>2020-08-12T12:33:48.771Z</time>
      </trkpt>
      <trkpt lat="65.18361" lon="12.11484">
        <ele>43.371394</ele>
        <time>2020-08-12T12:33:50.770Z</time>
      </trkpt>
      <trkpt lat="65.18354" lon="12.11465">
        <ele>43.612932</ele>
        <time>2020-08-12T12:33:52.776Z</time>
      </trkpt>
      <trkpt lat="65.18348" lon="12.11449">
        <ele>43.832852</ele>
        <time>2020-08-12T12:33:54.785Z</time>
      </trkpt>
      <trkpt lat="65.18342" lon="12.11434">
        <ele>44.043795</ele>
        <time>2020-08-12T12:33:56.774Z</time>
      </trkpt>
      <trkpt lat="65.18332" lon="12.11413">
        <ele>44.350071</ele>
        <time>2020-08-12T12:33:59.790Z</time>
      </trkpt>
      <trkpt lat="65.18324" lon="12.11395">
        <ele>44.609346</ele>
        <time>2020-08-12T12:34:02.762Z</time>
      </trkpt>
      <trkpt lat="65.18317" lon="12.11379">
        <ele>44.835768</ele>
        <time>2020-08-12T12:34:05.760Z</time>
      </trkpt>
      <trkpt lat="65.18308" lon="12.11366">
        <ele>45.077465</ele>
        <time>2020-08-12T12:34:09.761Z</time>
      </trkpt>
      <trkpt lat="65.18298" lon="12.11357">
        <ele>45.324475</ele>
        <time>2020-08-12T12:34:13.769Z</time>
      </trkpt>
      <trkpt lat="65.1829" lon="12.1135">
        <ele>45.53697</ele>
        <time>2020-08-12T12:34:16.770Z</time>
      </trkpt>
      <trkpt lat="65.18281" lon="12.11347">
        <ele>45.751905</ele>
        <time>2020-08-12T12:34:21.752Z</time>
      </trkpt>
      <trkpt lat="65.18272" lon="12.11328">
        <ele>46.035444</ele>
        <time>2020-08-12T12:35:42.771Z</time>
      </trkpt>
      <trkpt lat="65.18262" lon="12.11325">
        <ele>46.256477</ele>
        <time>2020-08-12T12:35:52.803Z</time>
      </trkpt>
      <trkpt lat="65.18253" lon="12.11325">
        <ele>46.47552</ele>
        <time>2020-08-12T12:36:01.765Z</time>
      </trkpt>
      <trkpt lat="65.18238" lon="12.11329">
        <ele>46.825707</ele>
        <time>2020-08-12T12:36:39.759Z</time>
      </trkpt>
      <trkpt lat="65.18222" lon="12.11359">
        <ele>47.304023</ele>
        <time>2020-08-12T12:39:31.759Z</time>
      </trkpt>
      <trkpt lat="65.18218" lon="12.11339">
        <ele>47.501866</ele>
        <time>2020-08-12T12:40:09.762Z</time>
      </trkpt>
      <trkpt lat="65.18178" lon="12.11251">
        <ele>47.009287</ele>
        <time>2020-08-12T12:46:08.748Z</time>
      </trkpt>
      <trkpt lat="65.18161" lon="12.11238">
        <ele>46.844506</ele>
        <time>2020-08-12T12:46:14.761Z</time>
      </trkpt>
      <trkpt lat="65.18145" lon="12.11221">
        <ele>46.679679</ele>
        <time>2020-08-12T12:46:22.751Z</time>
      </trkpt>
      <trkpt lat="65.1811" lon="12.1107">
        <ele>46.022596</ele>
        <time>2020-08-12T12:46:55.749Z</time>
      </trkpt>
      <trkpt lat="65.18107" lon="12.11023">
        <ele>45.792206</ele>
        <time>2020-08-12T12:47:02.751Z</time>
      </trkpt>
      <trkpt lat="65.18105" lon="12.10975">
        <ele>45.306919</ele>
        <time>2020-08-12T12:47:09.760Z</time>
      </trkpt>
      <trkpt lat="65.18105" lon="12.10928">
        <ele>44.83693</ele>
        <time>2020-08-12T12:47:14.756Z</time>
      </trkpt>
      <trkpt lat="65.18103" lon="12.10885">
        <ele>44.405658</ele>
        <time>2020-08-12T12:47:19.754Z</time>
      </trkpt>
      <trkpt lat="65.18103" lon="12.10842">
        <ele>43.971004</ele>
        <time>2020-08-12T12:47:25.776Z</time>
      </trkpt>
      <trkpt lat="65.18103" lon="12.10799">
        <ele>43.538468</ele>
        <time>2020-08-12T12:47:30.766Z</time>
      </trkpt>
      <trkpt lat="65.18104" lon="12.10755">
        <ele>43.10064</ele>
        <time>2020-08-12T12:47:36.779Z</time>
      </trkpt>
      <trkpt lat="65.18105" lon="12.10712">
        <ele>42.665202</ele>
        <time>2020-08-12T12:47:40.771Z</time>
      </trkpt>
      <trkpt lat="65.18108" lon="12.10665">
        <ele>42.181726</ele>
        <time>2020-08-12T12:47:45.776Z</time>
      </trkpt>
      <trkpt lat="65.18112" lon="12.10622">
        <ele>41.741174</ele>
        <time>2020-08-12T12:47:50.782Z</time>
      </trkpt>
      <trkpt lat="65.18119" lon="12.10573">
        <ele>41.804319</ele>
        <time>2020-08-12T12:47:54.762Z</time>
      </trkpt>
      <trkpt lat="65.18125" lon="12.1053">
        <ele>42.134134</ele>
        <time>2020-08-12T12:47:58.807Z</time>
      </trkpt>
      <trkpt lat="65.18132" lon="12.10489">
        <ele>42.456752</ele>
        <time>2020-08-12T12:48:02.787Z</time>
      </trkpt>
      <trkpt lat="65.1814" lon="12.10447">
        <ele>42.799941</ele>
        <time>2020-08-12T12:48:06.761Z</time>
      </trkpt>
      <trkpt lat="65.18151" lon="12.10403">
        <ele>43.167022</ele>
        <time>2020-08-12T12:48:09.776Z</time>
      </trkpt>
      <trkpt lat="65.18156" lon="12.10382">
        <ele>43.346514</ele>
        <time>2020-08-12T12:48:10.770Z</time>
      </trkpt>
      <trkpt lat="65.18161" lon="12.10358">
        <ele>43.548358</ele>
        <time>2020-08-12T12:48:11.777Z</time>
      </trkpt>
      <trkpt lat="65.18167" lon="12.10336">
        <ele>43.733805</ele>
        <time>2020-08-12T12:48:12.774Z</time>
      </trkpt>
      <trkpt lat="65.18172" lon="12.10316">
        <ele>43.901062</ele>
        <time>2020-08-12T12:48:13.777Z</time>
      </trkpt>
      <trkpt lat="65.18181" lon="12.10283">
        <ele>44.190426</ele>
        <time>2020-08-12T12:48:15.764Z</time>
      </trkpt>
      <trkpt lat="65.18189" lon="12.10257">
        <ele>44.430543</ele>
        <time>2020-08-12T12:48:17.773Z</time>
      </trkpt>
      <trkpt lat="65.18196" lon="12.10233">
        <ele>44.64326</ele>
        <time>2020-08-12T12:48:19.768Z</time>
      </trkpt>
      <trkpt lat="65.18202" lon="12.1021">
        <ele>44.49758</ele>
        <time>2020-08-12T12:48:21.772Z</time>
      </trkpt>
      <trkpt lat="65.1821" lon="12.10195">
        <ele>44.25279</ele>
        <time>2020-08-12T12:48:23.771Z</time>
      </trkpt>
      <trkpt lat="65.18218" lon="12.10178">
        <ele>43.997915</ele>
        <time>2020-08-12T12:48:25.769Z</time>
      </trkpt>
      <trkpt lat="65.18225" lon="12.10159">
        <ele>43.72728</ele>
        <time>2020-08-12T12:48:27.780Z</time>
      </trkpt>
      <trkpt lat="65.18233" lon="12.10141">
        <ele>43.460606</ele>
        <time>2020-08-12T12:48:29.779Z</time>
      </trkpt>
      <trkpt lat="65.18241" lon="12.10123">
        <ele>43.196712</ele>
        <time>2020-08-12T12:48:31.761Z</time>
      </trkpt>
      <trkpt lat="65.18249" lon="12.10105">
        <ele>42.942163</ele>
        <time>2020-08-12T12:48:33.775Z</time>
      </trkpt>
      <trkpt lat="65.18256" lon="12.10086">
        <ele>42.689912</ele>
        <time>2020-08-12T12:48:35.763Z</time>
      </trkpt>
      <trkpt lat="65.18264" lon="12.10069">
        <ele>42.435364</ele>
        <time>2020-08-12T12:48:37.758Z</time>
      </trkpt>
      <trkpt lat="65.18271" lon="12.10051">
        <ele>42.178088</ele>
        <time>2020-08-12T12:48:39.765Z</time>
      </trkpt>
      <trkpt lat="65.18279" lon="12.10034">
        <ele>41.921156</ele>
        <time>2020-08-12T12:48:41.765Z</time>
      </trkpt>
      <trkpt lat="65.18287" lon="12.10017">
        <ele>41.661878</ele>
        <time>2020-08-12T12:48:43.770Z</time>
      </trkpt>
      <trkpt lat="65.18295" lon="12.1">
        <ele>41.411505</ele>
        <time>2020-08-12T12:48:45.765Z</time>
      </trkpt>
      <trkpt lat="65.18303" lon="12.09983">
        <ele>41.155629</ele>
        <time>2020-08-12T12:48:47.767Z</time>
      </trkpt>
      <trkpt lat="65.18311" lon="12.09965">
        <ele>40.885756</ele>
        <time>2020-08-12T12:48:49.772Z</time>
      </trkpt>
      <trkpt lat="65.18319" lon="12.09948">
        <ele>40.622394</ele>
        <time>2020-08-12T12:48:51.781Z</time>
      </trkpt>
      <trkpt lat="65.18328" lon="12.09931">
        <ele>40.364745</ele>
        <time>2020-08-12T12:48:53.756Z</time>
      </trkpt>
      <trkpt lat="65.18337" lon="12.09915">
        <ele>40.287108</ele>
        <time>2020-08-12T12:48:55.756Z</time>
      </trkpt>
      <trkpt lat="65.18345" lon="12.09898">
        <ele>40.212877</ele>
        <time>2020-08-12T12:48:57.788Z</time>
      </trkpt>
      <trkpt lat="65.18353" lon="12.09881">
        <ele>40.138222</ele>
        <time>2020-08-12T12:48:59.768Z</time>
      </trkpt>
      <trkpt lat="65.18361" lon="12.09864">
        <ele>40.067226</ele>
        <time>2020-08-12T12:49:01.767Z</time>
      </trkpt>
      <trkpt lat="65.18369" lon="12.09847">
        <ele>39.992506</ele>
        <time>2020-08-12T12:49:03.754Z</time>
      </trkpt>
      <trkpt lat="65.18377" lon="12.09829">
        <ele>39.914098</ele>
        <time>2020-08-12T12:49:05.761Z</time>
      </trkpt>
      <trkpt lat="65.18385" lon="12.09809">
        <ele>39.834872</ele>
        <time>2020-08-12T12:49:07.761Z</time>
      </trkpt>
      <trkpt lat="65.18394" lon="12.09791">
        <ele>39.757251</ele>
        <time>2020-08-12T12:49:09.763Z</time>
      </trkpt>
      <trkpt lat="65.18402" lon="12.09773">
        <ele>39.67802</ele>
        <time>2020-08-12T12:49:11.763Z</time>
      </trkpt>
      <trkpt lat="65.1841" lon="12.09754">
        <ele>39.598507</ele>
        <time>2020-08-12T12:49:13.788Z</time>
      </trkpt>
      <trkpt lat="65.18418" lon="12.09735">
        <ele>39.519198</ele>
        <time>2020-08-12T12:49:15.763Z</time>
      </trkpt>
      <trkpt lat="65.18427" lon="12.09717">
        <ele>39.442674</ele>
        <time>2020-08-12T12:49:17.789Z</time>
      </trkpt>
      <trkpt lat="65.18435" lon="12.097">
        <ele>39.366825</ele>
        <time>2020-08-12T12:49:19.774Z</time>
      </trkpt>
      <trkpt lat="65.18444" lon="12.09684">
        <ele>39.290643</ele>
        <time>2020-08-12T12:49:21.776Z</time>
      </trkpt>
      <trkpt lat="65.18452" lon="12.09667">
        <ele>39.213017</ele>
        <time>2020-08-12T12:49:23.766Z</time>
      </trkpt>
      <trkpt lat="65.18461" lon="12.0965">
        <ele>39.137396</ele>
        <time>2020-08-12T12:49:25.772Z</time>
      </trkpt>
      <trkpt lat="65.18469" lon="12.09632">
        <ele>39.110497</ele>
        <time>2020-08-12T12:49:27.759Z</time>
      </trkpt>
      <trkpt lat="65.18477" lon="12.09615">
        <ele>39.091311</ele>
        <time>2020-08-12T12:49:29.769Z</time>
      </trkpt>
      <trkpt lat="65.18485" lon="12.09596">
        <ele>39.07132</ele>
        <time>2020-08-12T12:49:31.763Z</time>
      </trkpt>
      <trkpt lat="65.18493" lon="12.09578">
        <ele>39.051529</ele>
        <time>2020-08-12T12:49:33.761Z</time>
      </trkpt>
      <trkpt lat="65.18502" lon="12.09559">
        <ele>39.031816</ele>
        <time>2020-08-12T12:49:35.759Z</time>
      </trkpt>
      <trkpt lat="65.18509" lon="12.09541">
        <ele>39.012686</ele>
        <time>2020-08-12T12:49:37.791Z</time>
      </trkpt>
      <trkpt lat="65.18517" lon="12.09523">
        <ele>38.993379</ele>
        <time>2020-08-12T12:49:39.779Z</time>
      </trkpt>
      <trkpt lat="65.18526" lon="12.09506">
        <ele>38.974194</ele>
        <time>2020-08-12T12:49:41.763Z</time>
      </trkpt>
      <trkpt lat="65.18533" lon="12.09489">
        <ele>38.955842</ele>
        <time>2020-08-12T12:49:43.794Z</time>
      </trkpt>
      <trkpt lat="65.18542" lon="12.09472">
        <ele>38.936782</ele>
        <time>2020-08-12T12:49:45.767Z</time>
      </trkpt>
      <trkpt lat="65.1855" lon="12.09454">
        <ele>38.917499</ele>
        <time>2020-08-12T12:49:47.761Z</time>
      </trkpt>
      <trkpt lat="65.18557" lon="12.09437">
        <ele>38.899687</ele>
        <time>2020-08-12T12:49:51.759Z</time>
      </trkpt>
      <trkpt lat="65.18565" lon="12.09419">
        <ele>38.880734</ele>
        <time>2020-08-12T12:49:53.760Z</time>
      </trkpt>
      <trkpt lat="65.18573" lon="12.094">
        <ele>38.861098</ele>
        <time>2020-08-12T12:49:55.767Z</time>
      </trkpt>
      <trkpt lat="65.18581" lon="12.09383">
        <ele>38.841029</ele>
        <time>2020-08-12T12:49:57.776Z</time>
      </trkpt>
      <trkpt lat="65.1859" lon="12.09364">
        <ele>38.820442</ele>
        <time>2020-08-12T12:49:59.788Z</time>
      </trkpt>
      <trkpt lat="65.186" lon="12.09347">
        <ele>38.64878</ele>
        <time>2020-08-12T12:50:01.764Z</time>
      </trkpt>
      <trkpt lat="65.1861" lon="12.09329">
        <ele>38.362732</ele>
        <time>2020-08-12T12:50:03.768Z</time>
      </trkpt>
      <trkpt lat="65.18619" lon="12.09312">
        <ele>38.099156</ele>
        <time>2020-08-12T12:50:05.767Z</time>
      </trkpt>
      <trkpt lat="65.18629" lon="12.09298">
        <ele>37.843684</ele>
        <time>2020-08-12T12:50:07.761Z</time>
      </trkpt>
      <trkpt lat="65.18639" lon="12.09283">
        <ele>37.590884</ele>
        <time>2020-08-12T12:50:09.762Z</time>
      </trkpt>
      <trkpt lat="65.18648" lon="12.09266">
        <ele>37.32203</ele>
        <time>2020-08-12T12:50:11.770Z</time>
      </trkpt>
      <trkpt lat="65.18657" lon="12.09251">
        <ele>37.07468</ele>
        <time>2020-08-12T12:50:13.768Z</time>
      </trkpt>
      <trkpt lat="65.18666" lon="12.09232">
        <ele>36.814294</ele>
        <time>2020-08-12T12:50:15.764Z</time>
      </trkpt>
      <trkpt lat="65.18674" lon="12.09213">
        <ele>36.554076</ele>
        <time>2020-08-12T12:50:17.773Z</time>
      </trkpt>
      <trkpt lat="65.18683" lon="12.09197">
        <ele>36.302241</ele>
        <time>2020-08-12T12:50:19.781Z</time>
      </trkpt>
      <trkpt lat="65.18692" lon="12.09182">
        <ele>36.058474</ele>
        <time>2020-08-12T12:50:21.777Z</time>
      </trkpt>
      <trkpt lat="65.187" lon="12.09166">
        <ele>35.831548</ele>
        <time>2020-08-12T12:50:23.773Z</time>
      </trkpt>
      <trkpt lat="65.18706" lon="12.09144">
        <ele>35.571765</ele>
        <time>2020-08-12T12:50:25.784Z</time>
      </trkpt>
      <trkpt lat="65.18714" lon="12.09123">
        <ele>35.315677</ele>
        <time>2020-08-12T12:50:27.767Z</time>
      </trkpt>
      <trkpt lat="65.18722" lon="12.09106">
        <ele>35.073277</ele>
        <time>2020-08-12T12:50:29.778Z</time>
      </trkpt>
      <trkpt lat="65.18729" lon="12.09087">
        <ele>34.828502</ele>
        <time>2020-08-12T12:50:31.753Z</time>
      </trkpt>
      <trkpt lat="65.18737" lon="12.09068">
        <ele>34.844548</ele>
        <time>2020-08-12T12:50:33.773Z</time>
      </trkpt>
      <trkpt lat="65.18744" lon="12.09049">
        <ele>34.926196</ele>
        <time>2020-08-12T12:50:35.782Z</time>
      </trkpt>
      <trkpt lat="65.1875" lon="12.09029">
        <ele>35.00961</ele>
        <time>2020-08-12T12:50:37.773Z</time>
      </trkpt>
      <trkpt lat="65.18757" lon="12.09011">
        <ele>35.089255</ele>
        <time>2020-08-12T12:50:39.786Z</time>
      </trkpt>
      <trkpt lat="65.18765" lon="12.08993">
        <ele>35.173457</ele>
        <time>2020-08-12T12:50:41.768Z</time>
      </trkpt>
      <trkpt lat="65.18772" lon="12.08976">
        <ele>35.255488</ele>
        <time>2020-08-12T12:50:43.767Z</time>
      </trkpt>
      <trkpt lat="65.1878" lon="12.08959">
        <ele>35.335026</ele>
        <time>2020-08-12T12:50:45.824Z</time>
      </trkpt>
      <trkpt lat="65.18787" lon="12.08943">
        <ele>35.415669</ele>
        <time>2020-08-12T12:50:47.770Z</time>
      </trkpt>
      <trkpt lat="65.18797" lon="12.08926">
        <ele>35.511097</ele>
        <time>2020-08-12T12:50:49.803Z</time>
      </trkpt>
      <trkpt lat="65.18806" lon="12.08909">
        <ele>35.601874</ele>
        <time>2020-08-12T12:50:51.772Z</time>
      </trkpt>
      <trkpt lat="65.18815" lon="12.0889">
        <ele>35.694895</ele>
        <time>2020-08-12T12:50:53.777Z</time>
      </trkpt>
      <trkpt lat="65.18824" lon="12.08869">
        <ele>35.793326</ele>
        <time>2020-08-12T12:50:55.756Z</time>
      </trkpt>
      <trkpt lat="65.18833" lon="12.0885">
        <ele>35.883857</ele>
        <time>2020-08-12T12:50:57.755Z</time>
      </trkpt>
      <trkpt lat="65.18841" lon="12.08829">
        <ele>35.979933</ele>
        <time>2020-08-12T12:50:59.762Z</time>
      </trkpt>
      <trkpt lat="65.1885" lon="12.0881">
        <ele>36.072822</ele>
        <time>2020-08-12T12:51:01.775Z</time>
      </trkpt>
      <trkpt lat="65.18858" lon="12.0879">
        <ele>36.163503</ele>
        <time>2020-08-12T12:51:03.765Z</time>
      </trkpt>
      <trkpt lat="65.18866" lon="12.08771">
        <ele>36.375306</ele>
        <time>2020-08-12T12:51:05.778Z</time>
      </trkpt>
      <trkpt lat="65.18874" lon="12.08754">
        <ele>36.616096</ele>
        <time>2020-08-12T12:51:07.751Z</time>
      </trkpt>
      <trkpt lat="65.18881" lon="12.08736">
        <ele>36.857648</ele>
        <time>2020-08-12T12:51:09.855Z</time>
      </trkpt>
      <trkpt lat="65.18888" lon="12.08714">
        <ele>37.123756</ele>
        <time>2020-08-12T12:51:11.778Z</time>
      </trkpt>
      <trkpt lat="65.18897" lon="12.08694">
        <ele>37.39148</ele>
        <time>2020-08-12T12:51:13.765Z</time>
      </trkpt>
      <trkpt lat="65.18906" lon="12.08677">
        <ele>37.654405</ele>
        <time>2020-08-12T12:51:15.770Z</time>
      </trkpt>
      <trkpt lat="65.18914" lon="12.08659">
        <ele>37.913863</ele>
        <time>2020-08-12T12:51:17.786Z</time>
      </trkpt>
      <trkpt lat="65.18923" lon="12.08642">
        <ele>38.171384</ele>
        <time>2020-08-12T12:51:19.787Z</time>
      </trkpt>
      <trkpt lat="65.18932" lon="12.08626">
        <ele>38.428593</ele>
        <time>2020-08-12T12:51:21.781Z</time>
      </trkpt>
      <trkpt lat="65.18942" lon="12.08611">
        <ele>38.688949</ele>
        <time>2020-08-12T12:51:23.763Z</time>
      </trkpt>
      <trkpt lat="65.18952" lon="12.08595">
        <ele>38.959198</ele>
        <time>2020-08-12T12:51:25.800Z</time>
      </trkpt>
      <trkpt lat="65.18961" lon="12.08577">
        <ele>39.238628</ele>
        <time>2020-08-12T12:51:27.770Z</time>
      </trkpt>
      <trkpt lat="65.18972" lon="12.08557">
        <ele>39.538773</ele>
        <time>2020-08-12T12:51:29.782Z</time>
      </trkpt>
      <trkpt lat="65.18982" lon="12.08538">
        <ele>39.837802</ele>
        <time>2020-08-12T12:51:31.801Z</time>
      </trkpt>
      <trkpt lat="65.18992" lon="12.08519">
        <ele>40.129068</ele>
        <time>2020-08-12T12:51:33.755Z</time>
      </trkpt>
      <trkpt lat="65.19002" lon="12.08499">
        <ele>40.39557</ele>
        <time>2020-08-12T12:51:35.777Z</time>
      </trkpt>
      <trkpt lat="65.1901" lon="12.08478">
        <ele>40.639492</ele>
        <time>2020-08-12T12:51:37.776Z</time>
      </trkpt>
      <trkpt lat="65.19018" lon="12.08458">
        <ele>40.867567</ele>
        <time>2020-08-12T12:51:39.776Z</time>
      </trkpt>
      <trkpt lat="65.19026" lon="12.08438">
        <ele>41.090364</ele>
        <time>2020-08-12T12:51:41.769Z</time>
      </trkpt>
      <trkpt lat="65.19033" lon="12.0842">
        <ele>41.304135</ele>
        <time>2020-08-12T12:51:43.763Z</time>
      </trkpt>
      <trkpt lat="65.19041" lon="12.08402">
        <ele>41.514147</ele>
        <time>2020-08-12T12:51:45.763Z</time>
      </trkpt>
      <trkpt lat="65.19048" lon="12.08385">
        <ele>41.722988</ele>
        <time>2020-08-12T12:51:47.771Z</time>
      </trkpt>
      <trkpt lat="65.19057" lon="12.08368">
        <ele>41.952404</ele>
        <time>2020-08-12T12:51:49.777Z</time>
      </trkpt>
      <trkpt lat="65.19067" lon="12.08351">
        <ele>42.179275</ele>
        <time>2020-08-12T12:51:51.784Z</time>
      </trkpt>
      <trkpt lat="65.19076" lon="12.08334">
        <ele>42.414921</ele>
        <time>2020-08-12T12:51:53.764Z</time>
      </trkpt>
      <trkpt lat="65.19085" lon="12.08315">
        <ele>42.651642</ele>
        <time>2020-08-12T12:51:55.768Z</time>
      </trkpt>
      <trkpt lat="65.19093" lon="12.08292">
        <ele>42.901131</ele>
        <time>2020-08-12T12:51:57.774Z</time>
      </trkpt>
      <trkpt lat="65.19101" lon="12.08273">
        <ele>43.132963</ele>
        <time>2020-08-12T12:51:59.779Z</time>
      </trkpt>
      <trkpt lat="65.19109" lon="12.08255">
        <ele>43.338636</ele>
        <time>2020-08-12T12:52:01.763Z</time>
      </trkpt>
      <trkpt lat="65.19117" lon="12.08239">
        <ele>43.549515</ele>
        <time>2020-08-12T12:52:03.778Z</time>
      </trkpt>
      <trkpt lat="65.19125" lon="12.08221">
        <ele>43.77238</ele>
        <time>2020-08-12T12:52:05.776Z</time>
      </trkpt>
      <trkpt lat="65.19133" lon="12.08203">
        <ele>43.706963</ele>
        <time>2020-08-12T12:52:07.788Z</time>
      </trkpt>
      <trkpt lat="65.19142" lon="12.08188">
        <ele>43.54121</ele>
        <time>2020-08-12T12:52:09.762Z</time>
      </trkpt>
      <trkpt lat="65.19149" lon="12.08169">
        <ele>43.377896</ele>
        <time>2020-08-12T12:52:11.767Z</time>
      </trkpt>
      <trkpt lat="65.19157" lon="12.08154">
        <ele>43.22368</ele>
        <time>2020-08-12T12:52:13.768Z</time>
      </trkpt>
      <trkpt lat="65.19165" lon="12.08136">
        <ele>43.054016</ele>
        <time>2020-08-12T12:52:15.772Z</time>
      </trkpt>
      <trkpt lat="65.19173" lon="12.08121">
        <ele>42.89785</ele>
        <time>2020-08-12T12:52:17.781Z</time>
      </trkpt>
      <trkpt lat="65.19181" lon="12.08104">
        <ele>42.733648</ele>
        <time>2020-08-12T12:52:19.764Z</time>
      </trkpt>
      <trkpt lat="65.1919" lon="12.08087">
        <ele>42.568508</ele>
        <time>2020-08-12T12:52:21.776Z</time>
      </trkpt>
      <trkpt lat="65.19197" lon="12.08068">
        <ele>42.396784</ele>
        <time>2020-08-12T12:52:23.778Z</time>
      </trkpt>
      <trkpt lat="65.19204" lon="12.08049">
        <ele>42.231546</ele>
        <time>2020-08-12T12:52:25.757Z</time>
      </trkpt>
      <trkpt lat="65.19212" lon="12.08028">
        <ele>42.057936</ele>
        <time>2020-08-12T12:52:27.771Z</time>
      </trkpt>
      <trkpt lat="65.1922" lon="12.08009">
        <ele>41.882852</ele>
        <time>2020-08-12T12:52:29.765Z</time>
      </trkpt>
      <trkpt lat="65.19228" lon="12.07991">
        <ele>41.716005</ele>
        <time>2020-08-12T12:52:31.756Z</time>
      </trkpt>
      <trkpt lat="65.19237" lon="12.07975">
        <ele>41.545046</ele>
        <time>2020-08-12T12:52:33.766Z</time>
      </trkpt>
      <trkpt lat="65.19246" lon="12.07958">
        <ele>41.369318</ele>
        <time>2020-08-12T12:52:35.767Z</time>
      </trkpt>
      <trkpt lat="65.19253" lon="12.0794">
        <ele>41.203561</ele>
        <time>2020-08-12T12:52:37.751Z</time>
      </trkpt>
      <trkpt lat="65.19261" lon="12.07923">
        <ele>41.04149</ele>
        <time>2020-08-12T12:52:39.773Z</time>
      </trkpt>
      <trkpt lat="65.19269" lon="12.07904">
        <ele>40.852282</ele>
        <time>2020-08-12T12:52:41.767Z</time>
      </trkpt>
      <trkpt lat="65.19278" lon="12.07885">
        <ele>40.653709</ele>
        <time>2020-08-12T12:52:43.755Z</time>
      </trkpt>
      <trkpt lat="65.19287" lon="12.07865">
        <ele>40.452732</ele>
        <time>2020-08-12T12:52:45.772Z</time>
      </trkpt>
      <trkpt lat="65.19295" lon="12.07847">
        <ele>40.25854</ele>
        <time>2020-08-12T12:52:47.783Z</time>
      </trkpt>
      <trkpt lat="65.19304" lon="12.07829">
        <ele>40.069248</ele>
        <time>2020-08-12T12:52:49.770Z</time>
      </trkpt>
      <trkpt lat="65.19314" lon="12.07813">
        <ele>39.870745</ele>
        <time>2020-08-12T12:52:51.772Z</time>
      </trkpt>
      <trkpt lat="65.19323" lon="12.07795">
        <ele>39.669773</ele>
        <time>2020-08-12T12:52:53.760Z</time>
      </trkpt>
      <trkpt lat="65.19332" lon="12.07778">
        <ele>39.474005</ele>
        <time>2020-08-12T12:52:55.776Z</time>
      </trkpt>
      <trkpt lat="65.19341" lon="12.0776">
        <ele>39.282087</ele>
        <time>2020-08-12T12:52:57.759Z</time>
      </trkpt>
      <trkpt lat="65.19351" lon="12.07741">
        <ele>39.078387</ele>
        <time>2020-08-12T12:52:59.774Z</time>
      </trkpt>
      <trkpt lat="65.19359" lon="12.07722">
        <ele>38.883129</ele>
        <time>2020-08-12T12:53:01.768Z</time>
      </trkpt>
      <trkpt lat="65.19367" lon="12.07707">
        <ele>38.722487</ele>
        <time>2020-08-12T12:53:03.760Z</time>
      </trkpt>
      <trkpt lat="65.19374" lon="12.07688">
        <ele>38.534723</ele>
        <time>2020-08-12T12:53:05.793Z</time>
      </trkpt>
      <trkpt lat="65.19382" lon="12.07669">
        <ele>38.353981</ele>
        <time>2020-08-12T12:53:07.760Z</time>
      </trkpt>
      <trkpt lat="65.1939" lon="12.07652">
        <ele>38.175921</ele>
        <time>2020-08-12T12:53:09.774Z</time>
      </trkpt>
      <trkpt lat="65.19398" lon="12.07634">
        <ele>38.165873</ele>
        <time>2020-08-12T12:53:11.772Z</time>
      </trkpt>
      <trkpt lat="65.19406" lon="12.07616">
        <ele>38.348819</ele>
        <time>2020-08-12T12:53:13.818Z</time>
      </trkpt>
      <trkpt lat="65.19414" lon="12.07597">
        <ele>38.541019</ele>
        <time>2020-08-12T12:53:15.781Z</time>
      </trkpt>
      <trkpt lat="65.19423" lon="12.07578">
        <ele>38.733693</ele>
        <time>2020-08-12T12:53:17.790Z</time>
      </trkpt>
      <trkpt lat="65.19431" lon="12.07558">
        <ele>38.928037</ele>
        <time>2020-08-12T12:53:19.771Z</time>
      </trkpt>
      <trkpt lat="65.1944" lon="12.07539">
        <ele>39.119292</ele>
        <time>2020-08-12T12:53:21.773Z</time>
      </trkpt>
      <trkpt lat="65.19449" lon="12.07521">
        <ele>39.30929</ele>
        <time>2020-08-12T12:53:23.788Z</time>
      </trkpt>
      <trkpt lat="65.19458" lon="12.07503">
        <ele>39.50573</ele>
        <time>2020-08-12T12:53:25.768Z</time>
      </trkpt>
      <trkpt lat="65.19467" lon="12.07484">
        <ele>39.704317</ele>
        <time>2020-08-12T12:53:27.786Z</time>
      </trkpt>
      <trkpt lat="65.19475" lon="12.07466">
        <ele>39.89002</ele>
        <time>2020-08-12T12:53:29.766Z</time>
      </trkpt>
      <trkpt lat="65.19484" lon="12.07448">
        <ele>40.080809</ele>
        <time>2020-08-12T12:53:31.777Z</time>
      </trkpt>
      <trkpt lat="65.19493" lon="12.0743">
        <ele>40.274552</ele>
        <time>2020-08-12T12:53:33.793Z</time>
      </trkpt>
      <trkpt lat="65.19502" lon="12.07412">
        <ele>40.463193</ele>
        <time>2020-08-12T12:53:35.790Z</time>
      </trkpt>
      <trkpt lat="65.1951" lon="12.07394">
        <ele>40.651645</ele>
        <time>2020-08-12T12:53:37.794Z</time>
      </trkpt>
      <trkpt lat="65.19519" lon="12.07375">
        <ele>40.842648</ele>
        <time>2020-08-12T12:53:39.781Z</time>
      </trkpt>
      <trkpt lat="65.19527" lon="12.07355">
        <ele>41.036749</ele>
        <time>2020-08-12T12:53:41.769Z</time>
      </trkpt>
      <trkpt lat="65.19535" lon="12.07336">
        <ele>41.115224</ele>
        <time>2020-08-12T12:53:43.755Z</time>
      </trkpt>
      <trkpt lat="65.19542" lon="12.07318">
        <ele>41.184543</ele>
        <time>2020-08-12T12:53:45.778Z</time>
      </trkpt>
      <trkpt lat="65.1955" lon="12.07301">
        <ele>41.25307</ele>
        <time>2020-08-12T12:53:47.771Z</time>
      </trkpt>
      <trkpt lat="65.19557" lon="12.07285">
        <ele>41.317917</ele>
        <time>2020-08-12T12:53:49.756Z</time>
      </trkpt>
      <trkpt lat="65.19564" lon="12.07269">
        <ele>41.385797</ele>
        <time>2020-08-12T12:53:51.807Z</time>
      </trkpt>
      <trkpt lat="65.19569" lon="12.07248">
        <ele>41.453023</ele>
        <time>2020-08-12T12:53:53.770Z</time>
      </trkpt>
      <trkpt lat="65.19576" lon="12.07227">
        <ele>41.525441</ele>
        <time>2020-08-12T12:53:55.756Z</time>
      </trkpt>
      <trkpt lat="65.19581" lon="12.07207">
        <ele>41.593857</ele>
        <time>2020-08-12T12:53:57.766Z</time>
      </trkpt>
      <trkpt lat="65.19588" lon="12.07187">
        <ele>41.663863</ele>
        <time>2020-08-12T12:53:59.773Z</time>
      </trkpt>
      <trkpt lat="65.19596" lon="12.07169">
        <ele>41.741086</ele>
        <time>2020-08-12T12:54:01.755Z</time>
      </trkpt>
      <trkpt lat="65.19607" lon="12.0715">
        <ele>41.827386</ele>
        <time>2020-08-12T12:54:03.763Z</time>
      </trkpt>
      <trkpt lat="65.19616" lon="12.07133">
        <ele>41.907014</ele>
        <time>2020-08-12T12:54:05.765Z</time>
      </trkpt>
      <trkpt lat="65.19626" lon="12.07121">
        <ele>41.983307</ele>
        <time>2020-08-12T12:54:07.763Z</time>
      </trkpt>
      <trkpt lat="65.19638" lon="12.07113">
        <ele>42.062805</ele>
        <time>2020-08-12T12:54:09.765Z</time>
      </trkpt>
      <trkpt lat="65.19649" lon="12.07096">
        <ele>42.152998</ele>
        <time>2020-08-12T12:54:11.774Z</time>
      </trkpt>
      <trkpt lat="65.19659" lon="12.07081">
        <ele>42.22773</ele>
        <time>2020-08-12T12:54:13.757Z</time>
      </trkpt>
      <trkpt lat="65.1967" lon="12.0706">
        <ele>42.388532</ele>
        <time>2020-08-12T12:54:15.759Z</time>
      </trkpt>
      <trkpt lat="65.19678" lon="12.07037">
        <ele>42.545161</ele>
        <time>2020-08-12T12:54:17.793Z</time>
      </trkpt>
      <trkpt lat="65.19687" lon="12.07017">
        <ele>42.692453</ele>
        <time>2020-08-12T12:54:19.760Z</time>
      </trkpt>
      <trkpt lat="65.19695" lon="12.06996">
        <ele>42.83812</ele>
        <time>2020-08-12T12:54:21.794Z</time>
      </trkpt>
      <trkpt lat="65.19702" lon="12.06978">
        <ele>42.961917</ele>
        <time>2020-08-12T12:54:23.766Z</time>
      </trkpt>
      <trkpt lat="65.1971" lon="12.06963">
        <ele>43.089437</ele>
        <time>2020-08-12T12:54:25.745Z</time>
      </trkpt>
      <trkpt lat="65.1972" lon="12.06945">
        <ele>43.239569</ele>
        <time>2020-08-12T12:54:27.763Z</time>
      </trkpt>
      <trkpt lat="65.19729" lon="12.06923">
        <ele>43.402135</ele>
        <time>2020-08-12T12:54:29.769Z</time>
      </trkpt>
      <trkpt lat="65.19738" lon="12.069">
        <ele>43.558994</ele>
        <time>2020-08-12T12:54:31.745Z</time>
      </trkpt>
      <trkpt lat="65.19746" lon="12.0688">
        <ele>43.705333</ele>
        <time>2020-08-12T12:54:33.774Z</time>
      </trkpt>
      <trkpt lat="65.19752" lon="12.06861">
        <ele>43.824686</ele>
        <time>2020-08-12T12:54:35.762Z</time>
      </trkpt>
      <trkpt lat="65.19758" lon="12.06836">
        <ele>43.975691</ele>
        <time>2020-08-12T12:54:38.768Z</time>
      </trkpt>
      <trkpt lat="65.19765" lon="12.06814">
        <ele>44.118072</ele>
        <time>2020-08-12T12:54:40.791Z</time>
      </trkpt>
      <trkpt lat="65.19773" lon="12.06795">
        <ele>44.257734</ele>
        <time>2020-08-12T12:54:42.778Z</time>
      </trkpt>
      <trkpt lat="65.19782" lon="12.06781">
        <ele>44.387684</ele>
        <time>2020-08-12T12:54:45.779Z</time>
      </trkpt>
      <trkpt lat="65.19791" lon="12.06768">
        <ele>44.251073</ele>
        <time>2020-08-12T12:54:47.767Z</time>
      </trkpt>
      <trkpt lat="65.198" lon="12.06748">
        <ele>43.847215</ele>
        <time>2020-08-12T12:54:49.766Z</time>
      </trkpt>
      <trkpt lat="65.1981" lon="12.06725">
        <ele>43.407259</ele>
        <time>2020-08-12T12:54:51.773Z</time>
      </trkpt>
      <trkpt lat="65.1982" lon="12.06705">
        <ele>42.986628</ele>
        <time>2020-08-12T12:54:53.768Z</time>
      </trkpt>
      <trkpt lat="65.1983" lon="12.06679">
        <ele>42.535356</ele>
        <time>2020-08-12T12:54:55.753Z</time>
      </trkpt>
      <trkpt lat="65.19839" lon="12.06661">
        <ele>42.157684</ele>
        <time>2020-08-12T12:54:57.792Z</time>
      </trkpt>
      <trkpt lat="65.19849" lon="12.06643">
        <ele>41.767992</ele>
        <time>2020-08-12T12:54:59.783Z</time>
      </trkpt>
      <trkpt lat="65.19858" lon="12.06622">
        <ele>41.353902</ele>
        <time>2020-08-12T12:55:01.758Z</time>
      </trkpt>
      <trkpt lat="65.19871" lon="12.06612">
        <ele>40.916663</ele>
        <time>2020-08-12T12:55:03.757Z</time>
      </trkpt>
      <trkpt lat="65.19884" lon="12.06598">
        <ele>40.486631</ele>
        <time>2020-08-12T12:55:06.774Z</time>
      </trkpt>
      <trkpt lat="65.19893" lon="12.06586">
        <ele>40.138529</ele>
        <time>2020-08-12T12:55:08.790Z</time>
      </trkpt>
      <trkpt lat="65.19904" lon="12.06573">
        <ele>39.763364</ele>
        <time>2020-08-12T12:55:10.760Z</time>
      </trkpt>
      <trkpt lat="65.19911" lon="12.06554">
        <ele>39.426534</ele>
        <time>2020-08-12T12:55:12.778Z</time>
      </trkpt>
      <trkpt lat="65.19917" lon="12.06532">
        <ele>39.074947</ele>
        <time>2020-08-12T12:55:14.761Z</time>
      </trkpt>
      <trkpt lat="65.19923" lon="12.06504">
        <ele>38.765719</ele>
        <time>2020-08-12T12:55:17.782Z</time>
      </trkpt>
      <trkpt lat="65.1993" lon="12.06482">
        <ele>39.003794</ele>
        <time>2020-08-12T12:55:19.761Z</time>
      </trkpt>
      <trkpt lat="65.19937" lon="12.06461">
        <ele>39.229228</ele>
        <time>2020-08-12T12:55:21.767Z</time>
      </trkpt>
      <trkpt lat="65.19943" lon="12.06441">
        <ele>39.432431</ele>
        <time>2020-08-12T12:55:23.763Z</time>
      </trkpt>
      <trkpt lat="65.19952" lon="12.06419">
        <ele>39.6985</ele>
        <time>2020-08-12T12:55:25.769Z</time>
      </trkpt>
      <trkpt lat="65.19962" lon="12.06401">
        <ele>39.963802</ele>
        <time>2020-08-12T12:55:27.756Z</time>
      </trkpt>
      <trkpt lat="65.19972" lon="12.06382">
        <ele>40.220995</ele>
        <time>2020-08-12T12:55:29.764Z</time>
      </trkpt>
      <trkpt lat="65.19983" lon="12.06367">
        <ele>40.47006</ele>
        <time>2020-08-12T12:55:31.750Z</time>
      </trkpt>
      <trkpt lat="65.19989" lon="12.06349">
        <ele>40.667278</ele>
        <time>2020-08-12T12:55:33.773Z</time>
      </trkpt>
      <trkpt lat="65.19999" lon="12.06339">
        <ele>40.884322</ele>
        <time>2020-08-12T12:55:36.758Z</time>
      </trkpt>
      <trkpt lat="65.20007" lon="12.06321">
        <ele>41.106641</ele>
        <time>2020-08-12T12:55:38.759Z</time>
      </trkpt>
      <trkpt lat="65.20014" lon="12.06306">
        <ele>41.297646</ele>
        <time>2020-08-12T12:55:40.753Z</time>
      </trkpt>
      <trkpt lat="65.20022" lon="12.06287">
        <ele>41.515588</ele>
        <time>2020-08-12T12:55:42.772Z</time>
      </trkpt>
      <trkpt lat="65.20031" lon="12.06269">
        <ele>41.756932</ele>
        <time>2020-08-12T12:55:44.793Z</time>
      </trkpt>
      <trkpt lat="65.20039" lon="12.06246">
        <ele>42.017268</ele>
        <time>2020-08-12T12:55:46.763Z</time>
      </trkpt>
      <trkpt lat="65.2005" lon="12.06224">
        <ele>42.294647</ele>
        <time>2020-08-12T12:55:48.785Z</time>
      </trkpt>
      <trkpt lat="65.2006" lon="12.06205">
        <ele>42.448894</ele>
        <time>2020-08-12T12:55:50.770Z</time>
      </trkpt>
      <trkpt lat="65.2007" lon="12.06186">
        <ele>42.562794</ele>
        <time>2020-08-12T12:55:52.755Z</time>
      </trkpt>
      <trkpt lat="65.20083" lon="12.06159">
        <ele>42.715488</ele>
        <time>2020-08-12T12:55:54.766Z</time>
      </trkpt>
      <trkpt lat="65.20094" lon="12.06133">
        <ele>42.857771</ele>
        <time>2020-08-12T12:55:56.766Z</time>
      </trkpt>
      <trkpt lat="65.20104" lon="12.06108">
        <ele>42.984971</ele>
        <time>2020-08-12T12:55:58.760Z</time>
      </trkpt>
      <trkpt lat="65.20114" lon="12.06088">
        <ele>43.09814</ele>
        <time>2020-08-12T12:56:00.780Z</time>
      </trkpt>
      <trkpt lat="65.20124" lon="12.06076">
        <ele>43.198749</ele>
        <time>2020-08-12T12:56:02.762Z</time>
      </trkpt>
      <trkpt lat="65.20135" lon="12.0606">
        <ele>43.311912</ele>
        <time>2020-08-12T12:56:04.753Z</time>
      </trkpt>
      <trkpt lat="65.20144" lon="12.06045">
        <ele>43.412047</ele>
        <time>2020-08-12T12:56:06.769Z</time>
      </trkpt>
      <trkpt lat="65.20153" lon="12.06034">
        <ele>43.497665</ele>
        <time>2020-08-12T12:56:08.751Z</time>
      </trkpt>
      <trkpt lat="65.20164" lon="12.06015">
        <ele>43.618666</ele>
        <time>2020-08-12T12:56:11.769Z</time>
      </trkpt>
      <trkpt lat="65.20171" lon="12.05999">
        <ele>43.708038</ele>
        <time>2020-08-12T12:56:13.770Z</time>
      </trkpt>
      <trkpt lat="65.2018" lon="12.05981">
        <ele>43.809932</ele>
        <time>2020-08-12T12:56:15.844Z</time>
      </trkpt>
      <trkpt lat="65.20217" lon="12.05887">
        <ele>43.899464</ele>
        <time>2020-08-12T12:56:25.762Z</time>
      </trkpt>
      <trkpt lat="65.20225" lon="12.05868">
        <ele>43.880584</ele>
        <time>2020-08-12T12:56:27.780Z</time>
      </trkpt>
      <trkpt lat="65.20235" lon="12.05849">
        <ele>43.860608</ele>
        <time>2020-08-12T12:56:29.774Z</time>
      </trkpt>
      <trkpt lat="65.20244" lon="12.05832">
        <ele>43.842572</ele>
        <time>2020-08-12T12:56:31.765Z</time>
      </trkpt>
      <trkpt lat="65.2025" lon="12.05814">
        <ele>43.825827</ele>
        <time>2020-08-12T12:56:33.752Z</time>
      </trkpt>
      <trkpt lat="65.20258" lon="12.05799">
        <ele>43.810275</ele>
        <time>2020-08-12T12:56:35.780Z</time>
      </trkpt>
      <trkpt lat="65.20267" lon="12.05779">
        <ele>43.78961</ele>
        <time>2020-08-12T12:56:37.766Z</time>
      </trkpt>
      <trkpt lat="65.20318" lon="12.05676">
        <ele>43.682157</ele>
        <time>2020-08-12T12:56:47.761Z</time>
      </trkpt>
      <trkpt lat="65.20327" lon="12.05658">
        <ele>43.437955</ele>
        <time>2020-08-12T12:56:49.762Z</time>
      </trkpt>
      <trkpt lat="65.20333" lon="12.05642">
        <ele>42.802597</ele>
        <time>2020-08-12T12:56:51.780Z</time>
      </trkpt>
      <trkpt lat="65.2034" lon="12.05626">
        <ele>42.111516</ele>
        <time>2020-08-12T12:56:53.779Z</time>
      </trkpt>
      <trkpt lat="65.20349" lon="12.05611">
        <ele>41.321582</ele>
        <time>2020-08-12T12:56:55.765Z</time>
      </trkpt>
      <trkpt lat="65.20359" lon="12.05595">
        <ele>40.4872</ele>
        <time>2020-08-12T12:56:58.785Z</time>
      </trkpt>
      <trkpt lat="65.20381" lon="12.05563">
        <ele>38.736868</ele>
        <time>2020-08-12T12:57:04.782Z</time>
      </trkpt>
      <trkpt lat="65.20417" lon="12.05468">
        <ele>34.959811</ele>
        <time>2020-08-12T12:57:12.747Z</time>
      </trkpt>
      <trkpt lat="65.20426" lon="12.05447">
        <ele>34.100333</ele>
        <time>2020-08-12T12:57:14.756Z</time>
      </trkpt>
      <trkpt lat="65.20436" lon="12.05426">
        <ele>33.173211</ele>
        <time>2020-08-12T12:57:16.758Z</time>
      </trkpt>
      <trkpt lat="65.20446" lon="12.05405">
        <ele>32.257705</ele>
        <time>2020-08-12T12:57:18.775Z</time>
      </trkpt>
      <trkpt lat="65.20456" lon="12.05387">
        <ele>31.346146</ele>
        <time>2020-08-12T12:57:20.767Z</time>
      </trkpt>
      <trkpt lat="65.20464" lon="12.05369">
        <ele>30.69666</ele>
        <time>2020-08-12T12:57:22.755Z</time>
      </trkpt>
      <trkpt lat="65.20472" lon="12.0535">
        <ele>30.140788</ele>
        <time>2020-08-12T12:57:24.757Z</time>
      </trkpt>
      <trkpt lat="65.2048" lon="12.05329">
        <ele>29.528092</ele>
        <time>2020-08-12T12:57:26.755Z</time>
      </trkpt>
      <trkpt lat="65.20488" lon="12.05319">
        <ele>29.054765</ele>
        <time>2020-08-12T12:57:27.753Z</time>
      </trkpt>
      <trkpt lat="65.20496" lon="12.053">
        <ele>28.456453</ele>
        <time>2020-08-12T12:57:29.762Z</time>
      </trkpt>
      <trkpt lat="65.20504" lon="12.05282">
        <ele>27.89804</ele>
        <time>2020-08-12T12:57:31.766Z</time>
      </trkpt>
      <trkpt lat="65.20513" lon="12.05259">
        <ele>27.211227</ele>
        <time>2020-08-12T12:57:33.749Z</time>
      </trkpt>
      <trkpt lat="65.20521" lon="12.05237">
        <ele>26.536301</ele>
        <time>2020-08-12T12:57:35.756Z</time>
      </trkpt>
      <trkpt lat="65.20531" lon="12.05215">
        <ele>25.859697</ele>
        <time>2020-08-12T12:57:37.759Z</time>
      </trkpt>
      <trkpt lat="65.2054" lon="12.052">
        <ele>25.285524</ele>
        <time>2020-08-12T12:57:39.764Z</time>
      </trkpt>
      <trkpt lat="65.20553" lon="12.05185">
        <ele>24.546708</ele>
        <time>2020-08-12T12:57:41.800Z</time>
      </trkpt>
      <trkpt lat="65.2056" lon="12.05171">
        <ele>24.032973</ele>
        <time>2020-08-12T12:57:43.784Z</time>
      </trkpt>
      <trkpt lat="65.20569" lon="12.05152">
        <ele>23.406678</ele>
        <time>2020-08-12T12:57:45.779Z</time>
      </trkpt>
      <trkpt lat="65.20577" lon="12.05137">
        <ele>22.880682</ele>
        <time>2020-08-12T12:57:47.774Z</time>
      </trkpt>
      <trkpt lat="65.20586" lon="12.0512">
        <ele>22.320352</ele>
        <time>2020-08-12T12:57:49.770Z</time>
      </trkpt>
      <trkpt lat="65.20594" lon="12.05104">
        <ele>21.766817</ele>
        <time>2020-08-12T12:57:51.762Z</time>
      </trkpt>
      <trkpt lat="65.20604" lon="12.05089">
        <ele>22.239299</ele>
        <time>2020-08-12T12:57:53.759Z</time>
      </trkpt>
      <trkpt lat="65.20614" lon="12.05072">
        <ele>22.784381</ele>
        <time>2020-08-12T12:57:56.770Z</time>
      </trkpt>
      <trkpt lat="65.20634" lon="12.0504">
        <ele>23.844762</ele>
        <time>2020-08-12T12:58:04.758Z</time>
      </trkpt>
      <trkpt lat="65.2067" lon="12.04989">
        <ele>25.648361</ele>
        <time>2020-08-12T12:58:09.773Z</time>
      </trkpt>
      <trkpt lat="65.20681" lon="12.04972">
        <ele>26.209637</ele>
        <time>2020-08-12T12:58:11.779Z</time>
      </trkpt>
      <trkpt lat="65.20691" lon="12.04958">
        <ele>26.737127</ele>
        <time>2020-08-12T12:58:14.765Z</time>
      </trkpt>
      <trkpt lat="65.20703" lon="12.04944">
        <ele>27.296265</ele>
        <time>2020-08-12T12:58:16.765Z</time>
      </trkpt>
      <trkpt lat="65.20713" lon="12.04928">
        <ele>27.833121</ele>
        <time>2020-08-12T12:58:19.767Z</time>
      </trkpt>
      <trkpt lat="65.20724" lon="12.04911">
        <ele>28.420562</ele>
        <time>2020-08-12T12:58:22.787Z</time>
      </trkpt>
      <trkpt lat="65.20737" lon="12.04893">
        <ele>29.055374</ele>
        <time>2020-08-12T12:58:24.789Z</time>
      </trkpt>
      <trkpt lat="65.20747" lon="12.04876">
        <ele>29.574799</ele>
        <time>2020-08-12T12:58:27.775Z</time>
      </trkpt>
      <trkpt lat="65.20758" lon="12.0486">
        <ele>29.781728</ele>
        <time>2020-08-12T12:58:30.781Z</time>
      </trkpt>
      <trkpt lat="65.20769" lon="12.04844">
        <ele>29.985863</ele>
        <time>2020-08-12T12:58:32.775Z</time>
      </trkpt>
      <trkpt lat="65.20779" lon="12.04829">
        <ele>30.175605</ele>
        <time>2020-08-12T12:58:34.757Z</time>
      </trkpt>
      <trkpt lat="65.20788" lon="12.04813">
        <ele>30.368771</ele>
        <time>2020-08-12T12:58:36.810Z</time>
      </trkpt>
      <trkpt lat="65.20799" lon="12.04797">
        <ele>30.575678</ele>
        <time>2020-08-12T12:58:39.781Z</time>
      </trkpt>
      <trkpt lat="65.2081" lon="12.04783">
        <ele>30.772904</ele>
        <time>2020-08-12T12:58:42.779Z</time>
      </trkpt>
      <trkpt lat="65.2082" lon="12.0477">
        <ele>30.959746</ele>
        <time>2020-08-12T12:58:44.770Z</time>
      </trkpt>
      <trkpt lat="65.20831" lon="12.04758">
        <ele>31.149475</ele>
        <time>2020-08-12T12:58:47.801Z</time>
      </trkpt>
      <trkpt lat="65.2084" lon="12.04744">
        <ele>31.330031</ele>
        <time>2020-08-12T12:58:49.785Z</time>
      </trkpt>
      <trkpt lat="65.2085" lon="12.04731">
        <ele>31.504314</ele>
        <time>2020-08-12T12:58:52.773Z</time>
      </trkpt>
      <trkpt lat="65.2086" lon="12.04716">
        <ele>31.703929</ele>
        <time>2020-08-12T12:58:54.790Z</time>
      </trkpt>
      <trkpt lat="65.20871" lon="12.04699">
        <ele>31.907222</ele>
        <time>2020-08-12T12:58:56.773Z</time>
      </trkpt>
      <trkpt lat="65.20882" lon="12.04685">
        <ele>32.121656</ele>
        <time>2020-08-12T12:58:58.813Z</time>
      </trkpt>
      <trkpt lat="65.20892" lon="12.0467">
        <ele>32.304289</ele>
        <time>2020-08-12T12:59:01.790Z</time>
      </trkpt>
      <trkpt lat="65.20901" lon="12.04656">
        <ele>32.46833</ele>
        <time>2020-08-12T12:59:03.769Z</time>
      </trkpt>
      <trkpt lat="65.20909" lon="12.04643">
        <ele>32.313363</ele>
        <time>2020-08-12T12:59:06.774Z</time>
      </trkpt>
      <trkpt lat="65.20917" lon="12.0463">
        <ele>32.164787</ele>
        <time>2020-08-12T12:59:08.783Z</time>
      </trkpt>
      <trkpt lat="65.20927" lon="12.04616">
        <ele>31.982426</ele>
        <time>2020-08-12T12:59:11.774Z</time>
      </trkpt>
      <trkpt lat="65.20937" lon="12.04603">
        <ele>31.808703</ele>
        <time>2020-08-12T12:59:13.783Z</time>
      </trkpt>
      <trkpt lat="65.20946" lon="12.0459">
        <ele>31.644612</ele>
        <time>2020-08-12T12:59:15.768Z</time>
      </trkpt>
      <trkpt lat="65.20955" lon="12.0458">
        <ele>31.499405</ele>
        <time>2020-08-12T12:59:17.783Z</time>
      </trkpt>
      <trkpt lat="65.20967" lon="12.04569">
        <ele>31.302314</ele>
        <time>2020-08-12T12:59:20.806Z</time>
      </trkpt>
      <trkpt lat="65.20975" lon="12.04561">
        <ele>31.162963</ele>
        <time>2020-08-12T12:59:23.765Z</time>
      </trkpt>
      <trkpt lat="65.20984" lon="12.04551">
        <ele>31.000354</ele>
        <time>2020-08-12T12:59:26.788Z</time>
      </trkpt>
      <trkpt lat="65.20997" lon="12.04542">
        <ele>30.804686</ele>
        <time>2020-08-12T12:59:28.771Z</time>
      </trkpt>
      <trkpt lat="65.21009" lon="12.04532">
        <ele>30.604321</ele>
        <time>2020-08-12T12:59:30.798Z</time>
      </trkpt>
      <trkpt lat="65.21019" lon="12.0452">
        <ele>30.431626</ele>
        <time>2020-08-12T12:59:32.764Z</time>
      </trkpt>
      <trkpt lat="65.21028" lon="12.04508">
        <ele>30.273502</ele>
        <time>2020-08-12T12:59:34.781Z</time>
      </trkpt>
      <trkpt lat="65.21036" lon="12.04491">
        <ele>30.095937</ele>
        <time>2020-08-12T12:59:36.766Z</time>
      </trkpt>
      <trkpt lat="65.21046" lon="12.04475">
        <ele>29.912979</ele>
        <time>2020-08-12T12:59:39.760Z</time>
      </trkpt>
      <trkpt lat="65.21055" lon="12.04464">
        <ele>29.756419</ele>
        <time>2020-08-12T12:59:41.801Z</time>
      </trkpt>
      <trkpt lat="65.21064" lon="12.04454">
        <ele>29.65308</ele>
        <time>2020-08-12T12:59:43.787Z</time>
      </trkpt>
      <trkpt lat="65.21073" lon="12.04444">
        <ele>29.597795</ele>
        <time>2020-08-12T12:59:46.778Z</time>
      </trkpt>
      <trkpt lat="65.21084" lon="12.04428">
        <ele>29.520367</ele>
        <time>2020-08-12T12:59:50.781Z</time>
      </trkpt>
      <trkpt lat="65.21093" lon="12.04419">
        <ele>29.464457</ele>
        <time>2020-08-12T12:59:52.802Z</time>
      </trkpt>
      <trkpt lat="65.21104" lon="12.04403">
        <ele>29.385757</ele>
        <time>2020-08-12T12:59:55.775Z</time>
      </trkpt>
      <trkpt lat="65.21113" lon="12.04393">
        <ele>29.32674</ele>
        <time>2020-08-12T12:59:57.759Z</time>
      </trkpt>
      <trkpt lat="65.21125" lon="12.04381">
        <ele>29.247318</ele>
        <time>2020-08-12T13:00:00.772Z</time>
      </trkpt>
      <trkpt lat="65.21139" lon="12.0437">
        <ele>29.161963</ele>
        <time>2020-08-12T13:00:04.780Z</time>
      </trkpt>
      <trkpt lat="65.21149" lon="12.04365">
        <ele>29.104883</ele>
        <time>2020-08-12T13:00:06.782Z</time>
      </trkpt>
      <trkpt lat="65.21571" lon="12.04067">
        <ele>34.510398</ele>
        <time>2020-08-12T13:03:22.252Z</time>
      </trkpt>
      <trkpt lat="65.21595" lon="12.04083">
        <ele>35.223933</ele>
        <time>2020-08-12T13:06:29.273Z</time>
      </trkpt>
      <trkpt lat="65.21604" lon="12.04074">
        <ele>35.498727</ele>
        <time>2020-08-12T13:06:40.270Z</time>
      </trkpt>
      <trkpt lat="65.21613" lon="12.04074">
        <ele>35.762128</ele>
        <time>2020-08-12T13:06:53.264Z</time>
      </trkpt>
      <trkpt lat="65.21622" lon="12.04083">
        <ele>36.022616</ele>
        <time>2020-08-12T13:07:04.248Z</time>
      </trkpt>
      <trkpt lat="65.21624" lon="12.04106">
        <ele>36.316336</ele>
        <time>2020-08-12T13:07:10.261Z</time>
      </trkpt>
      <trkpt lat="65.21621" lon="12.04129">
        <ele>36.605765</ele>
        <time>2020-08-12T13:07:15.259Z</time>
      </trkpt>
      <trkpt lat="65.21615" lon="12.04149">
        <ele>36.901076</ele>
        <time>2020-08-12T13:07:19.237Z</time>
      </trkpt>
      <trkpt lat="65.21608" lon="12.04179">
        <ele>37.313804</ele>
        <time>2020-08-12T13:07:25.260Z</time>
      </trkpt>
      <trkpt lat="65.21607" lon="12.04201">
        <ele>37.592395</ele>
        <time>2020-08-12T13:07:29.244Z</time>
      </trkpt>
      <trkpt lat="65.21606" lon="12.04225">
        <ele>37.878973</ele>
        <time>2020-08-12T13:07:33.248Z</time>
      </trkpt>
      <trkpt lat="65.21606" lon="12.04247">
        <ele>38.147117</ele>
        <time>2020-08-12T13:07:37.257Z</time>
      </trkpt>
      <trkpt lat="65.21598" lon="12.04287">
        <ele>38.680188</ele>
        <time>2020-08-12T13:07:41.265Z</time>
      </trkpt>
      <trkpt lat="65.21591" lon="12.04305">
        <ele>39.000607</ele>
        <time>2020-08-12T13:07:45.255Z</time>
      </trkpt>
      <trkpt lat="65.21582" lon="12.04321">
        <ele>39.305771</ele>
        <time>2020-08-12T13:07:48.270Z</time>
      </trkpt>
      <trkpt lat="65.21575" lon="12.04335">
        <ele>39.568614</ele>
        <time>2020-08-12T13:07:51.279Z</time>
      </trkpt>
      <trkpt lat="65.21568" lon="12.04351">
        <ele>39.727855</ele>
        <time>2020-08-12T13:07:55.253Z</time>
      </trkpt>
      <trkpt lat="65.21562" lon="12.0437">
        <ele>39.727855</ele>
        <time>2020-08-12T13:08:00.252Z</time>
      </trkpt>
      <trkpt lat="65.21553" lon="12.0438">
        <ele>39.727855</ele>
        <time>2020-08-12T13:08:05.259Z</time>
      </trkpt>
      <trkpt lat="65.21544" lon="12.0437">
        <ele>39.727855</ele>
        <time>2020-08-12T13:08:10.258Z</time>
      </trkpt>
      <trkpt lat="65.21535" lon="12.0436">
        <ele>39.727855</ele>
        <time>2020-08-12T13:08:16.256Z</time>
      </trkpt>
      <trkpt lat="65.21527" lon="12.04346">
        <ele>39.727855</ele>
        <time>2020-08-12T13:08:22.252Z</time>
      </trkpt>
      <trkpt lat="65.21519" lon="12.04332">
        <ele>39.727855</ele>
        <time>2020-08-12T13:08:28.265Z</time>
      </trkpt>
      <trkpt lat="65.21528" lon="12.04291">
        <ele>39.727855</ele>
        <time>2020-08-12T13:09:22.256Z</time>
      </trkpt>
      <trkpt lat="65.21536" lon="12.04277">
        <ele>39.727855</ele>
        <time>2020-08-12T13:09:37.246Z</time>
      </trkpt>
      <trkpt lat="65.21539" lon="12.04299">
        <ele>39.727855</ele>
        <time>2020-08-12T13:11:36.262Z</time>
      </trkpt>
      <trkpt lat="65.21542" lon="12.04319">
        <ele>39.727855</ele>
        <time>2020-08-12T13:11:47.255Z</time>
      </trkpt>
      <trkpt lat="65.21534" lon="12.04331">
        <ele>39.727855</ele>
        <time>2020-08-12T13:12:17.258Z</time>
      </trkpt>
      <trkpt lat="65.21527" lon="12.04343">
        <ele>39.727855</ele>
        <time>2020-08-12T13:13:07.246Z</time>
      </trkpt>
      <trkpt lat="65.21532" lon="12.04323">
        <ele>39.727855</ele>
        <time>2020-08-12T13:13:18.264Z</time>
      </trkpt>
      <trkpt lat="65.21537" lon="12.04303">
        <ele>39.727855</ele>
        <time>2020-08-12T13:13:34.261Z</time>
      </trkpt>
      <trkpt lat="65.21546" lon="12.04286">
        <ele>39.727855</ele>
        <time>2020-08-12T13:14:26.257Z</time>
      </trkpt>
      <trkpt lat="65.21553" lon="12.04272">
        <ele>39.727855</ele>
        <time>2020-08-12T13:14:41.243Z</time>
      </trkpt>
      <trkpt lat="65.21549" lon="12.04292">
        <ele>39.727855</ele>
        <time>2020-08-12T13:15:47.257Z</time>
      </trkpt>
      <trkpt lat="65.21545" lon="12.04312">
        <ele>39.727855</ele>
        <time>2020-08-12T13:16:00.260Z</time>
      </trkpt>
      <trkpt lat="65.21544" lon="12.04323">
        <ele>39.727855</ele>
        <time>2020-08-12T13:16:37.500Z</time>
      </trkpt>
    </trkseg>
  </trk>
</gpx>